<?xml version="1.0" encoding="UTF-8" standalone="no" ?>
<gpx xmlns="http://www.topografix.com/GPX/1/1" xmlns:xsi="http://www.w3.org/2001/XMLSchema-instance" xsi:schemaLocation="http://www.topografix.com/GPX/1/1 http://www.topografix.com/GPX/1/1/gpx.xsd" version="1.1" creator="VisuGPX - https://www.visugpx.com">
  <metadata>
    <name>Parcours humide</name>
    <desc><![CDATA[Export from GpsPrune]]></desc>
  </metadata>
  <trk>
    <name><![CDATA[couvet_20141207]]></name>
    <trkseg>
      <trkpt lat="47.51793" lon="6.77449">
        <ele>387.55665792001</ele>
        <time>2014-12-07T08:10:09Z</time>
      </trkpt>
      <trkpt lat="47.51796" lon="6.77452">
        <ele>387.5070672</ele>
        <time>2014-12-07T08:10:14Z</time>
      </trkpt>
      <trkpt lat="47.51796" lon="6.77453">
        <ele>387.52083072</ele>
        <time>2014-12-07T08:10:15Z</time>
      </trkpt>
      <trkpt lat="47.518" lon="6.77457">
        <ele>387.48187872</ele>
        <time>2014-12-07T08:10:22Z</time>
      </trkpt>
      <trkpt lat="47.518" lon="6.77457">
        <ele>387.48264</ele>
        <time>2014-12-07T08:10:23Z</time>
      </trkpt>
      <trkpt lat="47.51802" lon="6.77456">
        <ele>387.38927904</ele>
        <time>2014-12-07T08:10:24Z</time>
      </trkpt>
      <trkpt lat="47.51807" lon="6.77455">
        <ele>387.25212</ele>
        <time>2014-12-07T08:10:25Z</time>
      </trkpt>
      <trkpt lat="47.51809" lon="6.77457">
        <ele>387.19894944001</ele>
        <time>2014-12-07T08:10:28Z</time>
      </trkpt>
      <trkpt lat="47.51811" lon="6.77454">
        <ele>387.10132032</ele>
        <time>2014-12-07T08:10:29Z</time>
      </trkpt>
      <trkpt lat="47.51814" lon="6.77456">
        <ele>387.03952896</ele>
        <time>2014-12-07T08:10:32Z</time>
      </trkpt>
      <trkpt lat="47.51811" lon="6.77467">
        <ele>387.29890463999</ele>
        <time>2014-12-07T08:10:33Z</time>
      </trkpt>
      <trkpt lat="47.5181" lon="6.77472">
        <ele>387.41286144</ele>
        <time>2014-12-07T08:10:34Z</time>
      </trkpt>
      <trkpt lat="47.51809" lon="6.77478">
        <ele>387.54026400001</ele>
        <time>2014-12-07T08:10:35Z</time>
      </trkpt>
      <trkpt lat="47.51805" lon="6.77481">
        <ele>387.70289711999</ele>
        <time>2014-12-07T08:10:40Z</time>
      </trkpt>
      <trkpt lat="47.51805" lon="6.77481">
        <ele>387.72778560001</ele>
        <time>2014-12-07T08:10:41Z</time>
      </trkpt>
      <trkpt lat="47.51808" lon="6.77481">
        <ele>387.6002256</ele>
        <time>2014-12-07T08:14:37Z</time>
      </trkpt>
      <trkpt lat="47.51809" lon="6.77484">
        <ele>387.63182592</ele>
        <time>2014-12-07T08:14:38Z</time>
      </trkpt>
      <trkpt lat="47.51809" lon="6.77487">
        <ele>387.68654304001</ele>
        <time>2014-12-07T08:14:39Z</time>
      </trkpt>
      <trkpt lat="47.51808" lon="6.7749">
        <ele>387.77437199999</ele>
        <time>2014-12-07T08:14:40Z</time>
      </trkpt>
      <trkpt lat="47.51805" lon="6.77493">
        <ele>387.89373503999</ele>
        <time>2014-12-07T08:14:41Z</time>
      </trkpt>
      <trkpt lat="47.51803" lon="6.77495">
        <ele>388.01229696</ele>
        <time>2014-12-07T08:14:42Z</time>
      </trkpt>
      <trkpt lat="47.51798" lon="6.77496">
        <ele>388.18947840001</ele>
        <time>2014-12-07T08:14:44Z</time>
      </trkpt>
      <trkpt lat="47.51797" lon="6.77496">
        <ele>388.25142672</ele>
        <time>2014-12-07T08:14:45Z</time>
      </trkpt>
      <trkpt lat="47.51793" lon="6.77496">
        <ele>388.37192352001</ele>
        <time>2014-12-07T08:14:47Z</time>
      </trkpt>
      <trkpt lat="47.51791" lon="6.77496">
        <ele>388.44285792001</ele>
        <time>2014-12-07T08:14:48Z</time>
      </trkpt>
      <trkpt lat="47.51789" lon="6.77496">
        <ele>388.52232672001</ele>
        <time>2014-12-07T08:14:49Z</time>
      </trkpt>
      <trkpt lat="47.51786" lon="6.77495">
        <ele>388.6042752</ele>
        <time>2014-12-07T08:14:50Z</time>
      </trkpt>
      <trkpt lat="47.51783" lon="6.77493">
        <ele>388.68461568</ele>
        <time>2014-12-07T08:14:51Z</time>
      </trkpt>
      <trkpt lat="47.5178" lon="6.77492">
        <ele>388.77104207999</ele>
        <time>2014-12-07T08:14:52Z</time>
      </trkpt>
      <trkpt lat="47.51777" lon="6.77491">
        <ele>388.85627040001</ele>
        <time>2014-12-07T08:14:53Z</time>
      </trkpt>
      <trkpt lat="47.51773" lon="6.7749">
        <ele>388.94855856</ele>
        <time>2014-12-07T08:14:54Z</time>
      </trkpt>
      <trkpt lat="47.5177" lon="6.77489">
        <ele>389.04212783999</ele>
        <time>2014-12-07T08:14:55Z</time>
      </trkpt>
      <trkpt lat="47.51767" lon="6.77489">
        <ele>389.12984879999</ele>
        <time>2014-12-07T08:14:56Z</time>
      </trkpt>
      <trkpt lat="47.51763" lon="6.77488">
        <ele>389.27653392</ele>
        <time>2014-12-07T08:14:58Z</time>
      </trkpt>
      <trkpt lat="47.51761" lon="6.77488">
        <ele>389.34054143999</ele>
        <time>2014-12-07T08:14:59Z</time>
      </trkpt>
      <trkpt lat="47.51757" lon="6.77489">
        <ele>389.4904896</ele>
        <time>2014-12-07T08:15:01Z</time>
      </trkpt>
      <trkpt lat="47.51755" lon="6.77489">
        <ele>389.5535952</ele>
        <time>2014-12-07T08:15:02Z</time>
      </trkpt>
      <trkpt lat="47.51752" lon="6.77489">
        <ele>389.67274176001</ele>
        <time>2014-12-07T08:15:20Z</time>
      </trkpt>
      <trkpt lat="47.5175" lon="6.77489">
        <ele>389.72056559999</ele>
        <time>2014-12-07T08:15:21Z</time>
      </trkpt>
      <trkpt lat="47.51748" lon="6.77488">
        <ele>389.680116</ele>
        <time>2014-12-07T08:15:22Z</time>
      </trkpt>
      <trkpt lat="47.51745" lon="6.77488">
        <ele>389.6392416</ele>
        <time>2014-12-07T08:15:23Z</time>
      </trkpt>
      <trkpt lat="47.51741" lon="6.77488">
        <ele>389.5925664</ele>
        <time>2014-12-07T08:15:24Z</time>
      </trkpt>
      <trkpt lat="47.51738" lon="6.77489">
        <ele>389.55588</ele>
        <time>2014-12-07T08:15:25Z</time>
      </trkpt>
      <trkpt lat="47.51734" lon="6.77491">
        <ele>389.5540656</ele>
        <time>2014-12-07T08:15:26Z</time>
      </trkpt>
      <trkpt lat="47.51729" lon="6.77494">
        <ele>389.58431904</ele>
        <time>2014-12-07T08:15:27Z</time>
      </trkpt>
      <trkpt lat="47.51725" lon="6.77505">
        <ele>389.78331648</ele>
        <time>2014-12-07T08:15:28Z</time>
      </trkpt>
      <trkpt lat="47.51724" lon="6.77511">
        <ele>389.87763648</ele>
        <time>2014-12-07T08:15:29Z</time>
      </trkpt>
      <trkpt lat="47.51723" lon="6.77519">
        <ele>389.9778768</ele>
        <time>2014-12-07T08:15:30Z</time>
      </trkpt>
      <trkpt lat="47.51722" lon="6.77525">
        <ele>390.07456896</ele>
        <time>2014-12-07T08:15:31Z</time>
      </trkpt>
      <trkpt lat="47.51722" lon="6.77533">
        <ele>390.1759776</ele>
        <time>2014-12-07T08:15:32Z</time>
      </trkpt>
      <trkpt lat="47.5172" lon="6.7754">
        <ele>390.24887136001</ele>
        <time>2014-12-07T08:15:33Z</time>
      </trkpt>
      <trkpt lat="47.51719" lon="6.77547">
        <ele>390.31764479999</ele>
        <time>2014-12-07T08:15:34Z</time>
      </trkpt>
      <trkpt lat="47.51717" lon="6.77553">
        <ele>390.37483008001</ele>
        <time>2014-12-07T08:15:35Z</time>
      </trkpt>
      <trkpt lat="47.51715" lon="6.77558">
        <ele>390.39603455999</ele>
        <time>2014-12-07T08:15:36Z</time>
      </trkpt>
      <trkpt lat="47.5171" lon="6.77558">
        <ele>390.2376</ele>
        <time>2014-12-07T08:15:37Z</time>
      </trkpt>
      <trkpt lat="47.51705" lon="6.77555">
        <ele>390.08279808</ele>
        <time>2014-12-07T08:15:38Z</time>
      </trkpt>
      <trkpt lat="47.51701" lon="6.77553">
        <ele>389.92766207999</ele>
        <time>2014-12-07T08:15:39Z</time>
      </trkpt>
      <trkpt lat="47.51697" lon="6.77549">
        <ele>389.78858208001</ele>
        <time>2014-12-07T08:15:40Z</time>
      </trkpt>
      <trkpt lat="47.51693" lon="6.77545">
        <ele>389.65673088</ele>
        <time>2014-12-07T08:15:41Z</time>
      </trkpt>
      <trkpt lat="47.51688" lon="6.77539">
        <ele>389.49340416</ele>
        <time>2014-12-07T08:15:42Z</time>
      </trkpt>
      <trkpt lat="47.51683" lon="6.77535">
        <ele>389.36190144001</ele>
        <time>2014-12-07T08:15:43Z</time>
      </trkpt>
      <trkpt lat="47.51678" lon="6.77529">
        <ele>389.23744512</ele>
        <time>2014-12-07T08:15:44Z</time>
      </trkpt>
      <trkpt lat="47.51673" lon="6.77522">
        <ele>389.11998336</ele>
        <time>2014-12-07T08:15:45Z</time>
      </trkpt>
      <trkpt lat="47.51668" lon="6.77516">
        <ele>389.0220672</ele>
        <time>2014-12-07T08:15:46Z</time>
      </trkpt>
      <trkpt lat="47.51663" lon="6.77509">
        <ele>388.81439999999</ele>
        <time>2014-12-07T08:15:47Z</time>
      </trkpt>
      <trkpt lat="47.51658" lon="6.77502">
        <ele>388.5648</ele>
        <time>2014-12-07T08:15:48Z</time>
      </trkpt>
      <trkpt lat="47.51653" lon="6.77496">
        <ele>388.18416000001</ele>
        <time>2014-12-07T08:15:49Z</time>
      </trkpt>
      <trkpt lat="47.51647" lon="6.77489">
        <ele>387.68847119999</ele>
        <time>2014-12-07T08:15:50Z</time>
      </trkpt>
      <trkpt lat="47.51641" lon="6.77481">
        <ele>387.18074208</ele>
        <time>2014-12-07T08:15:51Z</time>
      </trkpt>
      <trkpt lat="47.51636" lon="6.77474">
        <ele>386.68596096001</ele>
        <time>2014-12-07T08:15:52Z</time>
      </trkpt>
      <trkpt lat="47.51629" lon="6.77466">
        <ele>386.17578432001</ele>
        <time>2014-12-07T08:15:53Z</time>
      </trkpt>
      <trkpt lat="47.51624" lon="6.77459">
        <ele>385.7110656</ele>
        <time>2014-12-07T08:15:54Z</time>
      </trkpt>
      <trkpt lat="47.51617" lon="6.77452">
        <ele>385.24651152001</ele>
        <time>2014-12-07T08:15:55Z</time>
      </trkpt>
      <trkpt lat="47.51611" lon="6.77444">
        <ele>384.76649279999</ele>
        <time>2014-12-07T08:15:56Z</time>
      </trkpt>
      <trkpt lat="47.51605" lon="6.77436">
        <ele>384.30198143999</ele>
        <time>2014-12-07T08:15:57Z</time>
      </trkpt>
      <trkpt lat="47.51598" lon="6.77428">
        <ele>383.81930496001</ele>
        <time>2014-12-07T08:15:58Z</time>
      </trkpt>
      <trkpt lat="47.51591" lon="6.7742">
        <ele>383.35854096</ele>
        <time>2014-12-07T08:15:59Z</time>
      </trkpt>
      <trkpt lat="47.51537" lon="6.77357">
        <ele>379.8952</ele>
        <time>2014-12-07T08:16:07Z</time>
      </trkpt>
      <trkpt lat="47.51529" lon="6.77349">
        <ele>379.408</ele>
        <time>2014-12-07T08:16:08Z</time>
      </trkpt>
      <trkpt lat="47.51523" lon="6.77341">
        <ele>378.9964</ele>
        <time>2014-12-07T08:16:09Z</time>
      </trkpt>
      <trkpt lat="47.51517" lon="6.77334">
        <ele>378.60040000001</ele>
        <time>2014-12-07T08:16:10Z</time>
      </trkpt>
      <trkpt lat="47.51511" lon="6.77327">
        <ele>378.262</ele>
        <time>2014-12-07T08:16:11Z</time>
      </trkpt>
      <trkpt lat="47.51507" lon="6.77321">
        <ele>377.94640000001</ele>
        <time>2014-12-07T08:16:12Z</time>
      </trkpt>
      <trkpt lat="47.51503" lon="6.77313">
        <ele>377.62720000001</ele>
        <time>2014-12-07T08:16:13Z</time>
      </trkpt>
      <trkpt lat="47.51499" lon="6.77307">
        <ele>377.3503048</ele>
        <time>2014-12-07T08:16:14Z</time>
      </trkpt>
      <trkpt lat="47.51497" lon="6.77301">
        <ele>377.20181008</ele>
        <time>2014-12-07T08:16:15Z</time>
      </trkpt>
      <trkpt lat="47.51495" lon="6.77293">
        <ele>377.01097696</ele>
        <time>2014-12-07T08:16:16Z</time>
      </trkpt>
      <trkpt lat="47.51493" lon="6.77286">
        <ele>376.8346096</ele>
        <time>2014-12-07T08:16:17Z</time>
      </trkpt>
      <trkpt lat="47.51492" lon="6.77277">
        <ele>376.6081192</ele>
        <time>2014-12-07T08:16:18Z</time>
      </trkpt>
      <trkpt lat="47.5149" lon="6.77268">
        <ele>376.395304</ele>
        <time>2014-12-07T08:16:19Z</time>
      </trkpt>
      <trkpt lat="47.5149" lon="6.77258">
        <ele>376.1888992</ele>
        <time>2014-12-07T08:16:20Z</time>
      </trkpt>
      <trkpt lat="47.51489" lon="6.77248">
        <ele>375.9544</ele>
        <time>2014-12-07T08:16:21Z</time>
      </trkpt>
      <trkpt lat="47.51489" lon="6.77238">
        <ele>375.7144</ele>
        <time>2014-12-07T08:16:22Z</time>
      </trkpt>
      <trkpt lat="47.51488" lon="6.77228">
        <ele>375.4744</ele>
        <time>2014-12-07T08:16:23Z</time>
      </trkpt>
      <trkpt lat="47.51485" lon="6.77219">
        <ele>375.256</ele>
        <time>2014-12-07T08:16:24Z</time>
      </trkpt>
      <trkpt lat="47.51481" lon="6.77212">
        <ele>375.0832</ele>
        <time>2014-12-07T08:16:25Z</time>
      </trkpt>
      <trkpt lat="47.51475" lon="6.77207">
        <ele>374.9752</ele>
        <time>2014-12-07T08:16:26Z</time>
      </trkpt>
      <trkpt lat="47.51467" lon="6.77207">
        <ele>374.9632</ele>
        <time>2014-12-07T08:16:27Z</time>
      </trkpt>
      <trkpt lat="47.51458" lon="6.77209">
        <ele>375.0232</ele>
        <time>2014-12-07T08:16:28Z</time>
      </trkpt>
      <trkpt lat="47.5145" lon="6.77213">
        <ele>375.1192</ele>
        <time>2014-12-07T08:16:29Z</time>
      </trkpt>
      <trkpt lat="47.51443" lon="6.77218">
        <ele>375.2224</ele>
        <time>2014-12-07T08:16:30Z</time>
      </trkpt>
      <trkpt lat="47.51435" lon="6.77222">
        <ele>375.3256</ele>
        <time>2014-12-07T08:16:31Z</time>
      </trkpt>
      <trkpt lat="47.51427" lon="6.77226">
        <ele>375.4144</ele>
        <time>2014-12-07T08:16:32Z</time>
      </trkpt>
      <trkpt lat="47.5142" lon="6.77229">
        <ele>375.484</ele>
        <time>2014-12-07T08:16:33Z</time>
      </trkpt>
      <trkpt lat="47.51413" lon="6.77233">
        <ele>375.624</ele>
        <time>2014-12-07T08:16:34Z</time>
      </trkpt>
      <trkpt lat="47.51407" lon="6.77235">
        <ele>375.762</ele>
        <time>2014-12-07T08:16:35Z</time>
      </trkpt>
      <trkpt lat="47.51401" lon="6.77238">
        <ele>375.9072</ele>
        <time>2014-12-07T08:16:36Z</time>
      </trkpt>
      <trkpt lat="47.51395" lon="6.77241">
        <ele>376.0488</ele>
        <time>2014-12-07T08:16:37Z</time>
      </trkpt>
      <trkpt lat="47.51389" lon="6.77244">
        <ele>376.1784</ele>
        <time>2014-12-07T08:16:38Z</time>
      </trkpt>
      <trkpt lat="47.51385" lon="6.77246">
        <ele>376.296</ele>
        <time>2014-12-07T08:16:39Z</time>
      </trkpt>
      <trkpt lat="47.5138" lon="6.77249">
        <ele>376.416</ele>
        <time>2014-12-07T08:16:40Z</time>
      </trkpt>
      <trkpt lat="47.51376" lon="6.77252">
        <ele>376.5725664</ele>
        <time>2014-12-07T08:16:41Z</time>
      </trkpt>
      <trkpt lat="47.51372" lon="6.77256">
        <ele>376.7495712</ele>
        <time>2014-12-07T08:16:42Z</time>
      </trkpt>
      <trkpt lat="47.51368" lon="6.77258">
        <ele>376.91290944</ele>
        <time>2014-12-07T08:16:43Z</time>
      </trkpt>
      <trkpt lat="47.51365" lon="6.77261">
        <ele>377.09089344</ele>
        <time>2014-12-07T08:16:44Z</time>
      </trkpt>
      <trkpt lat="47.51361" lon="6.77264">
        <ele>377.26132032</ele>
        <time>2014-12-07T08:16:45Z</time>
      </trkpt>
      <trkpt lat="47.51358" lon="6.77266">
        <ele>377.43274176</ele>
        <time>2014-12-07T08:16:46Z</time>
      </trkpt>
      <trkpt lat="47.51356" lon="6.77269">
        <ele>377.61967872</ele>
        <time>2014-12-07T08:16:47Z</time>
      </trkpt>
      <trkpt lat="47.51352" lon="6.77271">
        <ele>377.80056960001</ele>
        <time>2014-12-07T08:16:48Z</time>
      </trkpt>
      <trkpt lat="47.5135" lon="6.77273">
        <ele>377.97436223999</ele>
        <time>2014-12-07T08:16:49Z</time>
      </trkpt>
      <trkpt lat="47.51346" lon="6.77275">
        <ele>378.16553472</ele>
        <time>2014-12-07T08:16:50Z</time>
      </trkpt>
      <trkpt lat="47.51344" lon="6.77277">
        <ele>378.33978047999</ele>
        <time>2014-12-07T08:16:51Z</time>
      </trkpt>
      <trkpt lat="47.51341" lon="6.77279">
        <ele>378.52261824001</ele>
        <time>2014-12-07T08:16:52Z</time>
      </trkpt>
      <trkpt lat="47.51339" lon="6.77281">
        <ele>378.70275840001</ele>
        <time>2014-12-07T08:16:53Z</time>
      </trkpt>
      <trkpt lat="47.51336" lon="6.77283">
        <ele>378.88285632</ele>
        <time>2014-12-07T08:16:54Z</time>
      </trkpt>
      <trkpt lat="47.51333" lon="6.77284">
        <ele>379.03340799999</ele>
        <time>2014-12-07T08:16:55Z</time>
      </trkpt>
      <trkpt lat="47.5133" lon="6.77285">
        <ele>378.93254079999</ele>
        <time>2014-12-07T08:16:56Z</time>
      </trkpt>
      <trkpt lat="47.51327" lon="6.77285">
        <ele>378.78867999999</ele>
        <time>2014-12-07T08:16:57Z</time>
      </trkpt>
      <trkpt lat="47.51324" lon="6.77285">
        <ele>378.61043200002</ele>
        <time>2014-12-07T08:16:58Z</time>
      </trkpt>
      <trkpt lat="47.51321" lon="6.77284">
        <ele>378.436912</ele>
        <time>2014-12-07T08:16:59Z</time>
      </trkpt>
      <trkpt lat="47.51295" lon="6.77274">
        <ele>377.39222800001</ele>
        <time>2014-12-07T08:17:07Z</time>
      </trkpt>
      <trkpt lat="47.51292" lon="6.77272">
        <ele>377.3437768</ele>
        <time>2014-12-07T08:17:08Z</time>
      </trkpt>
      <trkpt lat="47.51288" lon="6.7727">
        <ele>377.3238664</ele>
        <time>2014-12-07T08:17:09Z</time>
      </trkpt>
      <trkpt lat="47.51284" lon="6.77268">
        <ele>377.3366104</ele>
        <time>2014-12-07T08:17:10Z</time>
      </trkpt>
      <trkpt lat="47.51281" lon="6.77266">
        <ele>377.3838592</ele>
        <time>2014-12-07T08:17:11Z</time>
      </trkpt>
      <trkpt lat="47.51277" lon="6.77264">
        <ele>377.4816664</ele>
        <time>2014-12-07T08:17:12Z</time>
      </trkpt>
      <trkpt lat="47.51273" lon="6.77262">
        <ele>377.63932</ele>
        <time>2014-12-07T08:17:13Z</time>
      </trkpt>
      <trkpt lat="47.51269" lon="6.77259">
        <ele>377.8575688</ele>
        <time>2014-12-07T08:17:14Z</time>
      </trkpt>
      <trkpt lat="47.51265" lon="6.77256">
        <ele>378.1582</ele>
        <time>2014-12-07T08:17:15Z</time>
      </trkpt>
      <trkpt lat="47.51261" lon="6.77252">
        <ele>378.5642608</ele>
        <time>2014-12-07T08:17:16Z</time>
      </trkpt>
      <trkpt lat="47.51258" lon="6.77247">
        <ele>378.79682368</ele>
        <time>2014-12-07T08:17:17Z</time>
      </trkpt>
      <trkpt lat="47.51255" lon="6.77242">
        <ele>378.86643711999</ele>
        <time>2014-12-07T08:17:18Z</time>
      </trkpt>
      <trkpt lat="47.51251" lon="6.77236">
        <ele>378.97466752</ele>
        <time>2014-12-07T08:17:19Z</time>
      </trkpt>
      <trkpt lat="47.51248" lon="6.77231">
        <ele>378.62260000003</ele>
        <time>2014-12-07T08:17:20Z</time>
      </trkpt>
      <trkpt lat="47.51245" lon="6.77226">
        <ele>378.24896799996</ele>
        <time>2014-12-07T08:17:21Z</time>
      </trkpt>
      <trkpt lat="47.51241" lon="6.77219">
        <ele>377.9209408</ele>
        <time>2014-12-07T08:17:22Z</time>
      </trkpt>
      <trkpt lat="47.51238" lon="6.77213">
        <ele>377.6836096</ele>
        <time>2014-12-07T08:17:23Z</time>
      </trkpt>
      <trkpt lat="47.51235" lon="6.77207">
        <ele>377.54293599997</ele>
        <time>2014-12-07T08:17:24Z</time>
      </trkpt>
      <trkpt lat="47.51232" lon="6.77201">
        <ele>377.457736</ele>
        <time>2014-12-07T08:17:25Z</time>
      </trkpt>
      <trkpt lat="47.51229" lon="6.77195">
        <ele>377.47371040002</ele>
        <time>2014-12-07T08:17:26Z</time>
      </trkpt>
      <trkpt lat="47.51226" lon="6.77188">
        <ele>377.582848</ele>
        <time>2014-12-07T08:17:27Z</time>
      </trkpt>
      <trkpt lat="47.51223" lon="6.77182">
        <ele>377.78001760001</ele>
        <time>2014-12-07T08:17:28Z</time>
      </trkpt>
      <trkpt lat="47.51219" lon="6.77176">
        <ele>378.0227776</ele>
        <time>2014-12-07T08:17:29Z</time>
      </trkpt>
      <trkpt lat="47.51216" lon="6.77169">
        <ele>378.3915328</ele>
        <time>2014-12-07T08:17:30Z</time>
      </trkpt>
      <trkpt lat="47.51212" lon="6.77162">
        <ele>378.43163456</ele>
        <time>2014-12-07T08:17:31Z</time>
      </trkpt>
      <trkpt lat="47.51209" lon="6.77156">
        <ele>378.2497952</ele>
        <time>2014-12-07T08:17:32Z</time>
      </trkpt>
      <trkpt lat="47.51205" lon="6.77149">
        <ele>378.0702848</ele>
        <time>2014-12-07T08:17:33Z</time>
      </trkpt>
      <trkpt lat="47.51202" lon="6.77142">
        <ele>377.91861056</ele>
        <time>2014-12-07T08:17:34Z</time>
      </trkpt>
      <trkpt lat="47.51198" lon="6.77134">
        <ele>377.78937152</ele>
        <time>2014-12-07T08:17:35Z</time>
      </trkpt>
      <trkpt lat="47.51194" lon="6.77127">
        <ele>377.69545856</ele>
        <time>2014-12-07T08:17:36Z</time>
      </trkpt>
      <trkpt lat="47.5119" lon="6.77119">
        <ele>377.62791680001</ele>
        <time>2014-12-07T08:17:37Z</time>
      </trkpt>
      <trkpt lat="47.51187" lon="6.77111">
        <ele>377.59431680001</ele>
        <time>2014-12-07T08:17:38Z</time>
      </trkpt>
      <trkpt lat="47.51183" lon="6.77102">
        <ele>377.59955072</ele>
        <time>2014-12-07T08:17:39Z</time>
      </trkpt>
      <trkpt lat="47.51179" lon="6.77095">
        <ele>377.65147519999</ele>
        <time>2014-12-07T08:17:40Z</time>
      </trkpt>
      <trkpt lat="47.51174" lon="6.77087">
        <ele>377.74132159999</ele>
        <time>2014-12-07T08:17:41Z</time>
      </trkpt>
      <trkpt lat="47.5117" lon="6.7708">
        <ele>377.76719999999</ele>
        <time>2014-12-07T08:17:42Z</time>
      </trkpt>
      <trkpt lat="47.51165" lon="6.77073">
        <ele>377.54556239999</ele>
        <time>2014-12-07T08:17:43Z</time>
      </trkpt>
      <trkpt lat="47.5116" lon="6.77067">
        <ele>377.0776464</ele>
        <time>2014-12-07T08:17:44Z</time>
      </trkpt>
      <trkpt lat="47.51155" lon="6.77061">
        <ele>376.67253599999</ele>
        <time>2014-12-07T08:17:45Z</time>
      </trkpt>
      <trkpt lat="47.51149" lon="6.77056">
        <ele>376.3007064</ele>
        <time>2014-12-07T08:17:46Z</time>
      </trkpt>
      <trkpt lat="47.51143" lon="6.77051">
        <ele>375.97030559999</ele>
        <time>2014-12-07T08:17:47Z</time>
      </trkpt>
      <trkpt lat="47.51138" lon="6.77045">
        <ele>375.69254639999</ele>
        <time>2014-12-07T08:17:48Z</time>
      </trkpt>
      <trkpt lat="47.51132" lon="6.7704">
        <ele>375.45023999999</ele>
        <time>2014-12-07T08:17:49Z</time>
      </trkpt>
      <trkpt lat="47.51126" lon="6.77035">
        <ele>375.232512</ele>
        <time>2014-12-07T08:17:50Z</time>
      </trkpt>
      <trkpt lat="47.5112" lon="6.77029">
        <ele>375.0756024</ele>
        <time>2014-12-07T08:17:51Z</time>
      </trkpt>
      <trkpt lat="47.51115" lon="6.77023">
        <ele>374.963496</ele>
        <time>2014-12-07T08:17:52Z</time>
      </trkpt>
      <trkpt lat="47.51109" lon="6.77018">
        <ele>374.9015808</ele>
        <time>2014-12-07T08:17:53Z</time>
      </trkpt>
      <trkpt lat="47.51103" lon="6.77013">
        <ele>374.8796448</ele>
        <time>2014-12-07T08:17:54Z</time>
      </trkpt>
      <trkpt lat="47.51098" lon="6.77008">
        <ele>374.895168</ele>
        <time>2014-12-07T08:17:55Z</time>
      </trkpt>
      <trkpt lat="47.51093" lon="6.77003">
        <ele>374.95128</ele>
        <time>2014-12-07T08:17:56Z</time>
      </trkpt>
      <trkpt lat="47.51087" lon="6.76998">
        <ele>374.99675424</ele>
        <time>2014-12-07T08:17:57Z</time>
      </trkpt>
      <trkpt lat="47.51081" lon="6.76993">
        <ele>374.95552768</ele>
        <time>2014-12-07T08:17:58Z</time>
      </trkpt>
      <trkpt lat="47.51075" lon="6.76988">
        <ele>374.85141184</ele>
        <time>2014-12-07T08:17:59Z</time>
      </trkpt>
      <trkpt lat="47.51033" lon="6.76952">
        <ele>374.8462792</ele>
        <time>2014-12-07T08:18:07Z</time>
      </trkpt>
      <trkpt lat="47.51028" lon="6.76947">
        <ele>374.92973344</ele>
        <time>2014-12-07T08:18:08Z</time>
      </trkpt>
      <trkpt lat="47.51025" lon="6.76942">
        <ele>375.0618112</ele>
        <time>2014-12-07T08:18:09Z</time>
      </trkpt>
      <trkpt lat="47.51021" lon="6.76937">
        <ele>375.2058496</ele>
        <time>2014-12-07T08:18:10Z</time>
      </trkpt>
      <trkpt lat="47.51017" lon="6.76933">
        <ele>375.33131632</ele>
        <time>2014-12-07T08:18:11Z</time>
      </trkpt>
      <trkpt lat="47.51012" lon="6.7693">
        <ele>375.43955968</ele>
        <time>2014-12-07T08:18:12Z</time>
      </trkpt>
      <trkpt lat="47.51009" lon="6.76928">
        <ele>375.52626496</ele>
        <time>2014-12-07T08:18:13Z</time>
      </trkpt>
      <trkpt lat="47.51005" lon="6.76924">
        <ele>375.68933488</ele>
        <time>2014-12-07T08:18:14Z</time>
      </trkpt>
      <trkpt lat="47.51003" lon="6.7692">
        <ele>375.86112832</ele>
        <time>2014-12-07T08:18:15Z</time>
      </trkpt>
      <trkpt lat="47.51002" lon="6.76915">
        <ele>375.97993984</ele>
        <time>2014-12-07T08:18:16Z</time>
      </trkpt>
      <trkpt lat="47.51" lon="6.76911">
        <ele>375.99725632</ele>
        <time>2014-12-07T08:18:17Z</time>
      </trkpt>
      <trkpt lat="47.50997" lon="6.76908">
        <ele>376.07957439999</ele>
        <time>2014-12-07T08:18:18Z</time>
      </trkpt>
      <trkpt lat="47.50993" lon="6.76905">
        <ele>376.19071360001</ele>
        <time>2014-12-07T08:18:19Z</time>
      </trkpt>
      <trkpt lat="47.50989" lon="6.76906">
        <ele>376.31199040001</ele>
        <time>2014-12-07T08:18:20Z</time>
      </trkpt>
      <trkpt lat="47.50986" lon="6.76905">
        <ele>376.38728512</ele>
        <time>2014-12-07T08:18:21Z</time>
      </trkpt>
      <trkpt lat="47.50981" lon="6.76904">
        <ele>376.51647904</ele>
        <time>2014-12-07T08:18:22Z</time>
      </trkpt>
      <trkpt lat="47.50977" lon="6.76903">
        <ele>376.6481152</ele>
        <time>2014-12-07T08:18:23Z</time>
      </trkpt>
      <trkpt lat="47.50973" lon="6.76901">
        <ele>376.78328799999</ele>
        <time>2014-12-07T08:18:24Z</time>
      </trkpt>
      <trkpt lat="47.50968" lon="6.76899">
        <ele>376.92974464</ele>
        <time>2014-12-07T08:18:25Z</time>
      </trkpt>
      <trkpt lat="47.50964" lon="6.76896">
        <ele>377.08230688</ele>
        <time>2014-12-07T08:18:26Z</time>
      </trkpt>
      <trkpt lat="47.5096" lon="6.76892">
        <ele>377.24884864</ele>
        <time>2014-12-07T08:18:27Z</time>
      </trkpt>
      <trkpt lat="47.50955" lon="6.76885">
        <ele>377.49442047999</ele>
        <time>2014-12-07T08:18:28Z</time>
      </trkpt>
      <trkpt lat="47.50951" lon="6.76881">
        <ele>377.67308415999</ele>
        <time>2014-12-07T08:18:29Z</time>
      </trkpt>
      <trkpt lat="47.50947" lon="6.76877">
        <ele>377.86027264001</ele>
        <time>2014-12-07T08:18:30Z</time>
      </trkpt>
      <trkpt lat="47.50944" lon="6.76873">
        <ele>378.04163199999</ele>
        <time>2014-12-07T08:18:31Z</time>
      </trkpt>
      <trkpt lat="47.50941" lon="6.76869">
        <ele>378.23444799999</ele>
        <time>2014-12-07T08:18:32Z</time>
      </trkpt>
      <trkpt lat="47.50938" lon="6.76864">
        <ele>378.42161920001</ele>
        <time>2014-12-07T08:18:33Z</time>
      </trkpt>
      <trkpt lat="47.50936" lon="6.76859">
        <ele>378.62442880001</ele>
        <time>2014-12-07T08:18:34Z</time>
      </trkpt>
      <trkpt lat="47.50933" lon="6.76853">
        <ele>378.84110848001</ele>
        <time>2014-12-07T08:18:35Z</time>
      </trkpt>
      <trkpt lat="47.5093" lon="6.76849">
        <ele>379.0367872</ele>
        <time>2014-12-07T08:18:36Z</time>
      </trkpt>
      <trkpt lat="47.50928" lon="6.76844">
        <ele>379.24553824</ele>
        <time>2014-12-07T08:18:37Z</time>
      </trkpt>
      <trkpt lat="47.50925" lon="6.76839">
        <ele>379.47263487998</ele>
        <time>2014-12-07T08:18:38Z</time>
      </trkpt>
      <trkpt lat="47.50923" lon="6.76834">
        <ele>379.6907776</ele>
        <time>2014-12-07T08:18:39Z</time>
      </trkpt>
      <trkpt lat="47.50921" lon="6.76829">
        <ele>379.70720224</ele>
        <time>2014-12-07T08:18:40Z</time>
      </trkpt>
      <trkpt lat="47.50918" lon="6.76824">
        <ele>379.69289536001</ele>
        <time>2014-12-07T08:18:41Z</time>
      </trkpt>
      <trkpt lat="47.50917" lon="6.76819">
        <ele>379.66371999999</ele>
        <time>2014-12-07T08:18:42Z</time>
      </trkpt>
      <trkpt lat="47.50915" lon="6.76814">
        <ele>379.63518400002</ele>
        <time>2014-12-07T08:18:43Z</time>
      </trkpt>
      <trkpt lat="47.50912" lon="6.76808">
        <ele>379.63301919999</ele>
        <time>2014-12-07T08:18:44Z</time>
      </trkpt>
      <trkpt lat="47.5091" lon="6.76803">
        <ele>379.65568000002</ele>
        <time>2014-12-07T08:18:45Z</time>
      </trkpt>
      <trkpt lat="47.50908" lon="6.76798">
        <ele>379.69589440001</ele>
        <time>2014-12-07T08:18:46Z</time>
      </trkpt>
      <trkpt lat="47.50905" lon="6.76792">
        <ele>379.75525120001</ele>
        <time>2014-12-07T08:18:47Z</time>
      </trkpt>
      <trkpt lat="47.50903" lon="6.76787">
        <ele>379.82347840002</ele>
        <time>2014-12-07T08:18:48Z</time>
      </trkpt>
      <trkpt lat="47.50901" lon="6.76782">
        <ele>379.89258880001</ele>
        <time>2014-12-07T08:18:49Z</time>
      </trkpt>
      <trkpt lat="47.50899" lon="6.76776">
        <ele>379.98495759999</ele>
        <time>2014-12-07T08:18:50Z</time>
      </trkpt>
      <trkpt lat="47.50897" lon="6.76771">
        <ele>380.08456959998</ele>
        <time>2014-12-07T08:18:51Z</time>
      </trkpt>
      <trkpt lat="47.50895" lon="6.76766">
        <ele>380.21104000001</ele>
        <time>2014-12-07T08:18:52Z</time>
      </trkpt>
      <trkpt lat="47.50893" lon="6.76761">
        <ele>380.35392399998</ele>
        <time>2014-12-07T08:18:53Z</time>
      </trkpt>
      <trkpt lat="47.50891" lon="6.76755">
        <ele>380.493256</ele>
        <time>2014-12-07T08:18:54Z</time>
      </trkpt>
      <trkpt lat="47.50889" lon="6.7675">
        <ele>380.6272</ele>
        <time>2014-12-07T08:18:55Z</time>
      </trkpt>
      <trkpt lat="47.50888" lon="6.76745">
        <ele>380.94260223999</ele>
        <time>2014-12-07T08:18:56Z</time>
      </trkpt>
      <trkpt lat="47.50886" lon="6.76739">
        <ele>381.25496223999</ele>
        <time>2014-12-07T08:18:57Z</time>
      </trkpt>
      <trkpt lat="47.50884" lon="6.76734">
        <ele>381.56413311999</ele>
        <time>2014-12-07T08:18:58Z</time>
      </trkpt>
      <trkpt lat="47.50883" lon="6.76729">
        <ele>381.87864399998</ele>
        <time>2014-12-07T08:18:59Z</time>
      </trkpt>
      <trkpt lat="47.50878" lon="6.76714">
        <ele>382.79372512001</ele>
        <time>2014-12-07T08:19:02Z</time>
      </trkpt>
      <trkpt lat="47.50876" lon="6.76709">
        <ele>383.11069792003</ele>
        <time>2014-12-07T08:19:03Z</time>
      </trkpt>
      <trkpt lat="47.50874" lon="6.76704">
        <ele>383.44759168</ele>
        <time>2014-12-07T08:19:04Z</time>
      </trkpt>
      <trkpt lat="47.50873" lon="6.76699">
        <ele>383.78106015997</ele>
        <time>2014-12-07T08:19:05Z</time>
      </trkpt>
      <trkpt lat="47.50871" lon="6.76694">
        <ele>384.13788160004</ele>
        <time>2014-12-07T08:19:06Z</time>
      </trkpt>
      <trkpt lat="47.50869" lon="6.76689">
        <ele>384.4987216</ele>
        <time>2014-12-07T08:19:07Z</time>
      </trkpt>
      <trkpt lat="47.50866" lon="6.76685">
        <ele>384.87288256002</ele>
        <time>2014-12-07T08:19:08Z</time>
      </trkpt>
      <trkpt lat="47.50864" lon="6.7668">
        <ele>385.24995808003</ele>
        <time>2014-12-07T08:19:09Z</time>
      </trkpt>
      <trkpt lat="47.50862" lon="6.76676">
        <ele>385.62994815997</ele>
        <time>2014-12-07T08:19:10Z</time>
      </trkpt>
      <trkpt lat="47.5086" lon="6.76671">
        <ele>386.01929343998</ele>
        <time>2014-12-07T08:19:11Z</time>
      </trkpt>
      <trkpt lat="47.50858" lon="6.76666">
        <ele>386.36746496</ele>
        <time>2014-12-07T08:19:12Z</time>
      </trkpt>
      <trkpt lat="47.50856" lon="6.76662">
        <ele>386.66158784002</ele>
        <time>2014-12-07T08:19:13Z</time>
      </trkpt>
      <trkpt lat="47.50854" lon="6.76657">
        <ele>386.92346623999</ele>
        <time>2014-12-07T08:19:14Z</time>
      </trkpt>
      <trkpt lat="47.50852" lon="6.76654">
        <ele>387.17213696001</ele>
        <time>2014-12-07T08:19:15Z</time>
      </trkpt>
      <trkpt lat="47.5085" lon="6.7665">
        <ele>387.42919135998</ele>
        <time>2014-12-07T08:19:16Z</time>
      </trkpt>
      <trkpt lat="47.50848" lon="6.76646">
        <ele>387.65472127999</ele>
        <time>2014-12-07T08:19:17Z</time>
      </trkpt>
      <trkpt lat="47.50846" lon="6.76643">
        <ele>387.87034400001</ele>
        <time>2014-12-07T08:19:18Z</time>
      </trkpt>
      <trkpt lat="47.50845" lon="6.76638">
        <ele>388.05835904001</ele>
        <time>2014-12-07T08:19:19Z</time>
      </trkpt>
      <trkpt lat="47.50843" lon="6.76635">
        <ele>388.2326768</ele>
        <time>2014-12-07T08:19:20Z</time>
      </trkpt>
      <trkpt lat="47.50841" lon="6.76631">
        <ele>388.40255071998</ele>
        <time>2014-12-07T08:19:21Z</time>
      </trkpt>
      <trkpt lat="47.50839" lon="6.76627">
        <ele>388.56060512001</ele>
        <time>2014-12-07T08:19:22Z</time>
      </trkpt>
      <trkpt lat="47.50838" lon="6.76623">
        <ele>388.70719999999</ele>
        <time>2014-12-07T08:19:23Z</time>
      </trkpt>
      <trkpt lat="47.50836" lon="6.76619">
        <ele>388.82828384001</ele>
        <time>2014-12-07T08:19:24Z</time>
      </trkpt>
      <trkpt lat="47.50835" lon="6.76615">
        <ele>388.92587840001</ele>
        <time>2014-12-07T08:19:25Z</time>
      </trkpt>
      <trkpt lat="47.50833" lon="6.76611">
        <ele>389.00638335999</ele>
        <time>2014-12-07T08:19:26Z</time>
      </trkpt>
      <trkpt lat="47.50832" lon="6.76608">
        <ele>389.07085024</ele>
        <time>2014-12-07T08:19:27Z</time>
      </trkpt>
      <trkpt lat="47.5083" lon="6.76604">
        <ele>389.14955775999</ele>
        <time>2014-12-07T08:19:28Z</time>
      </trkpt>
      <trkpt lat="47.50829" lon="6.76601">
        <ele>389.24828416001</ele>
        <time>2014-12-07T08:19:29Z</time>
      </trkpt>
      <trkpt lat="47.50827" lon="6.76598">
        <ele>389.35145151999</ele>
        <time>2014-12-07T08:19:30Z</time>
      </trkpt>
      <trkpt lat="47.50823" lon="6.76595">
        <ele>389.58348928001</ele>
        <time>2014-12-07T08:19:32Z</time>
      </trkpt>
      <trkpt lat="47.5082" lon="6.76596">
        <ele>389.70355264</ele>
        <time>2014-12-07T08:19:33Z</time>
      </trkpt>
      <trkpt lat="47.50818" lon="6.76598">
        <ele>389.83626495999</ele>
        <time>2014-12-07T08:19:34Z</time>
      </trkpt>
      <trkpt lat="47.50815" lon="6.76598">
        <ele>389.96547328001</ele>
        <time>2014-12-07T08:19:35Z</time>
      </trkpt>
      <trkpt lat="47.50813" lon="6.76596">
        <ele>390.09583936</ele>
        <time>2014-12-07T08:19:36Z</time>
      </trkpt>
      <trkpt lat="47.50812" lon="6.76592">
        <ele>390.21513568001</ele>
        <time>2014-12-07T08:19:37Z</time>
      </trkpt>
      <trkpt lat="47.5081" lon="6.76589">
        <ele>390.32959456001</ele>
        <time>2014-12-07T08:19:38Z</time>
      </trkpt>
      <trkpt lat="47.50809" lon="6.76586">
        <ele>390.45175071998</ele>
        <time>2014-12-07T08:19:39Z</time>
      </trkpt>
      <trkpt lat="47.50804" lon="6.76585">
        <ele>390.7273672</ele>
        <time>2014-12-07T08:19:41Z</time>
      </trkpt>
      <trkpt lat="47.50802" lon="6.76585">
        <ele>390.87841024001</ele>
        <time>2014-12-07T08:19:42Z</time>
      </trkpt>
      <trkpt lat="47.50799" lon="6.76586">
        <ele>391.02335775999</ele>
        <time>2014-12-07T08:19:43Z</time>
      </trkpt>
      <trkpt lat="47.50797" lon="6.76587">
        <ele>391.14422751998</ele>
        <time>2014-12-07T08:19:44Z</time>
      </trkpt>
      <trkpt lat="47.50793" lon="6.76589">
        <ele>391.33051264002</ele>
        <time>2014-12-07T08:19:46Z</time>
      </trkpt>
      <trkpt lat="47.50791" lon="6.7659">
        <ele>391.40247808</ele>
        <time>2014-12-07T08:19:47Z</time>
      </trkpt>
      <trkpt lat="47.50787" lon="6.76591">
        <ele>391.61948079998</ele>
        <time>2014-12-07T08:19:49Z</time>
      </trkpt>
      <trkpt lat="47.50785" lon="6.76591">
        <ele>391.75335423998</ele>
        <time>2014-12-07T08:19:50Z</time>
      </trkpt>
      <trkpt lat="47.50782" lon="6.76591">
        <ele>391.88290816</ele>
        <time>2014-12-07T08:19:51Z</time>
      </trkpt>
      <trkpt lat="47.5078" lon="6.76592">
        <ele>392.02082175999</ele>
        <time>2014-12-07T08:19:52Z</time>
      </trkpt>
      <trkpt lat="47.50777" lon="6.76592">
        <ele>392.14494928</ele>
        <time>2014-12-07T08:19:53Z</time>
      </trkpt>
      <trkpt lat="47.50775" lon="6.76593">
        <ele>392.26198240002</ele>
        <time>2014-12-07T08:19:54Z</time>
      </trkpt>
      <trkpt lat="47.50772" lon="6.76594">
        <ele>392.39686143999</ele>
        <time>2014-12-07T08:19:55Z</time>
      </trkpt>
      <trkpt lat="47.50769" lon="6.76594">
        <ele>392.54416815998</ele>
        <time>2014-12-07T08:19:56Z</time>
      </trkpt>
      <trkpt lat="47.50766" lon="6.76595">
        <ele>392.69863119999</ele>
        <time>2014-12-07T08:19:57Z</time>
      </trkpt>
      <trkpt lat="47.50763" lon="6.76595">
        <ele>392.85259935998</ele>
        <time>2014-12-07T08:19:58Z</time>
      </trkpt>
      <trkpt lat="47.5076" lon="6.76595">
        <ele>393.02653215998</ele>
        <time>2014-12-07T08:19:59Z</time>
      </trkpt>
      <trkpt lat="47.50751" lon="6.76594">
        <ele>393.56455551999</ele>
        <time>2014-12-07T08:20:02Z</time>
      </trkpt>
      <trkpt lat="47.50748" lon="6.76594">
        <ele>393.706276</ele>
        <time>2014-12-07T08:20:03Z</time>
      </trkpt>
      <trkpt lat="47.50744" lon="6.76594">
        <ele>393.82291935999</ele>
        <time>2014-12-07T08:20:04Z</time>
      </trkpt>
      <trkpt lat="47.50741" lon="6.76595">
        <ele>393.91447648001</ele>
        <time>2014-12-07T08:20:05Z</time>
      </trkpt>
      <trkpt lat="47.50739" lon="6.76595">
        <ele>394.0064512</ele>
        <time>2014-12-07T08:20:06Z</time>
      </trkpt>
      <trkpt lat="47.50735" lon="6.76596">
        <ele>394.1131792</ele>
        <time>2014-12-07T08:20:07Z</time>
      </trkpt>
      <trkpt lat="47.50732" lon="6.76595">
        <ele>394.23355552</ele>
        <time>2014-12-07T08:20:08Z</time>
      </trkpt>
      <trkpt lat="47.50729" lon="6.76595">
        <ele>394.37457760001</ele>
        <time>2014-12-07T08:20:09Z</time>
      </trkpt>
      <trkpt lat="47.50726" lon="6.76594">
        <ele>394.52162463999</ele>
        <time>2014-12-07T08:20:10Z</time>
      </trkpt>
      <trkpt lat="47.50722" lon="6.76594">
        <ele>394.66480384</ele>
        <time>2014-12-07T08:20:11Z</time>
      </trkpt>
      <trkpt lat="47.50719" lon="6.76593">
        <ele>394.80799839999</ele>
        <time>2014-12-07T08:20:12Z</time>
      </trkpt>
      <trkpt lat="47.50716" lon="6.76592">
        <ele>394.96064320001</ele>
        <time>2014-12-07T08:20:13Z</time>
      </trkpt>
      <trkpt lat="47.50712" lon="6.76592">
        <ele>395.1156352</ele>
        <time>2014-12-07T08:20:14Z</time>
      </trkpt>
      <trkpt lat="47.50709" lon="6.76591">
        <ele>395.26240576001</ele>
        <time>2014-12-07T08:20:15Z</time>
      </trkpt>
      <trkpt lat="47.50705" lon="6.7659">
        <ele>395.40545824001</ele>
        <time>2014-12-07T08:20:16Z</time>
      </trkpt>
      <trkpt lat="47.50702" lon="6.7659">
        <ele>395.53173136001</ele>
        <time>2014-12-07T08:20:17Z</time>
      </trkpt>
      <trkpt lat="47.50699" lon="6.76589">
        <ele>395.65846624</ele>
        <time>2014-12-07T08:20:18Z</time>
      </trkpt>
      <trkpt lat="47.50696" lon="6.76589">
        <ele>395.77928271999</ele>
        <time>2014-12-07T08:20:19Z</time>
      </trkpt>
      <trkpt lat="47.50693" lon="6.76589">
        <ele>395.89723216001</ele>
        <time>2014-12-07T08:20:20Z</time>
      </trkpt>
      <trkpt lat="47.5069" lon="6.76589">
        <ele>396.0124528</ele>
        <time>2014-12-07T08:20:21Z</time>
      </trkpt>
      <trkpt lat="47.50686" lon="6.7659">
        <ele>396.12776559999</ele>
        <time>2014-12-07T08:20:22Z</time>
      </trkpt>
      <trkpt lat="47.50683" lon="6.7659">
        <ele>396.2415904</ele>
        <time>2014-12-07T08:20:23Z</time>
      </trkpt>
      <trkpt lat="47.5068" lon="6.7659">
        <ele>396.34941375999</ele>
        <time>2014-12-07T08:20:24Z</time>
      </trkpt>
      <trkpt lat="47.50677" lon="6.76591">
        <ele>396.45876879999</ele>
        <time>2014-12-07T08:20:25Z</time>
      </trkpt>
      <trkpt lat="47.50673" lon="6.76591">
        <ele>396.56488576001</ele>
        <time>2014-12-07T08:20:26Z</time>
      </trkpt>
      <trkpt lat="47.5067" lon="6.76592">
        <ele>396.66774304001</ele>
        <time>2014-12-07T08:20:27Z</time>
      </trkpt>
      <trkpt lat="47.50667" lon="6.76592">
        <ele>396.76623424001</ele>
        <time>2014-12-07T08:20:28Z</time>
      </trkpt>
      <trkpt lat="47.50664" lon="6.76593">
        <ele>396.82862720001</ele>
        <time>2014-12-07T08:20:29Z</time>
      </trkpt>
      <trkpt lat="47.50661" lon="6.76594">
        <ele>396.88174879999</ele>
        <time>2014-12-07T08:20:30Z</time>
      </trkpt>
      <trkpt lat="47.50658" lon="6.76595">
        <ele>396.94058047999</ele>
        <time>2014-12-07T08:20:31Z</time>
      </trkpt>
      <trkpt lat="47.50655" lon="6.76596">
        <ele>396.99540128</ele>
        <time>2014-12-07T08:20:32Z</time>
      </trkpt>
      <trkpt lat="47.50652" lon="6.76597">
        <ele>397.04889872001</ele>
        <time>2014-12-07T08:20:33Z</time>
      </trkpt>
      <trkpt lat="47.50649" lon="6.76598">
        <ele>397.10596352001</ele>
        <time>2014-12-07T08:20:34Z</time>
      </trkpt>
      <trkpt lat="47.50646" lon="6.766">
        <ele>397.15507903999</ele>
        <time>2014-12-07T08:20:35Z</time>
      </trkpt>
      <trkpt lat="47.50643" lon="6.76601">
        <ele>397.20334784</ele>
        <time>2014-12-07T08:20:36Z</time>
      </trkpt>
      <trkpt lat="47.5064" lon="6.76603">
        <ele>397.25089952001</ele>
        <time>2014-12-07T08:20:37Z</time>
      </trkpt>
      <trkpt lat="47.50637" lon="6.76605">
        <ele>397.29983359999</ele>
        <time>2014-12-07T08:20:38Z</time>
      </trkpt>
      <trkpt lat="47.50634" lon="6.76606">
        <ele>397.34742224001</ele>
        <time>2014-12-07T08:20:39Z</time>
      </trkpt>
      <trkpt lat="47.50631" lon="6.76608">
        <ele>397.39359632001</ele>
        <time>2014-12-07T08:20:40Z</time>
      </trkpt>
      <trkpt lat="47.50628" lon="6.7661">
        <ele>397.44569600001</ele>
        <time>2014-12-07T08:20:41Z</time>
      </trkpt>
      <trkpt lat="47.50625" lon="6.76611">
        <ele>397.49760416001</ele>
        <time>2014-12-07T08:20:42Z</time>
      </trkpt>
      <trkpt lat="47.50622" lon="6.76613">
        <ele>397.55013248</ele>
        <time>2014-12-07T08:20:43Z</time>
      </trkpt>
      <trkpt lat="47.50619" lon="6.76615">
        <ele>397.61049343999</ele>
        <time>2014-12-07T08:20:44Z</time>
      </trkpt>
      <trkpt lat="47.50616" lon="6.76616">
        <ele>397.6653248</ele>
        <time>2014-12-07T08:20:45Z</time>
      </trkpt>
      <trkpt lat="47.50613" lon="6.76618">
        <ele>397.72299584</ele>
        <time>2014-12-07T08:20:46Z</time>
      </trkpt>
      <trkpt lat="47.50611" lon="6.76619">
        <ele>397.78206320001</ele>
        <time>2014-12-07T08:20:47Z</time>
      </trkpt>
      <trkpt lat="47.50608" lon="6.7662">
        <ele>397.84654400001</ele>
        <time>2014-12-07T08:20:48Z</time>
      </trkpt>
      <trkpt lat="47.50605" lon="6.76621">
        <ele>397.91191184001</ele>
        <time>2014-12-07T08:20:49Z</time>
      </trkpt>
      <trkpt lat="47.50602" lon="6.76622">
        <ele>397.9811264</ele>
        <time>2014-12-07T08:20:50Z</time>
      </trkpt>
      <trkpt lat="47.50599" lon="6.76623">
        <ele>398.05268671999</ele>
        <time>2014-12-07T08:20:51Z</time>
      </trkpt>
      <trkpt lat="47.50596" lon="6.76624">
        <ele>398.12508224001</ele>
        <time>2014-12-07T08:20:52Z</time>
      </trkpt>
      <trkpt lat="47.50593" lon="6.76625">
        <ele>398.19665503999</ele>
        <time>2014-12-07T08:20:53Z</time>
      </trkpt>
      <trkpt lat="47.50591" lon="6.76626">
        <ele>398.27025823999</ele>
        <time>2014-12-07T08:20:54Z</time>
      </trkpt>
      <trkpt lat="47.50588" lon="6.76627">
        <ele>398.34626816001</ele>
        <time>2014-12-07T08:20:55Z</time>
      </trkpt>
      <trkpt lat="47.50585" lon="6.76628">
        <ele>398.42606863999</ele>
        <time>2014-12-07T08:20:56Z</time>
      </trkpt>
      <trkpt lat="47.50582" lon="6.76628">
        <ele>398.48</ele>
        <time>2014-12-07T08:20:57Z</time>
      </trkpt>
      <trkpt lat="47.50579" lon="6.76629">
        <ele>398.5064</ele>
        <time>2014-12-07T08:20:58Z</time>
      </trkpt>
      <trkpt lat="47.50576" lon="6.7663">
        <ele>398.534</ele>
        <time>2014-12-07T08:20:59Z</time>
      </trkpt>
      <trkpt lat="47.50567" lon="6.76632">
        <ele>398.6084</ele>
        <time>2014-12-07T08:21:02Z</time>
      </trkpt>
      <trkpt lat="47.50564" lon="6.76633">
        <ele>398.6336</ele>
        <time>2014-12-07T08:21:03Z</time>
      </trkpt>
      <trkpt lat="47.50561" lon="6.76634">
        <ele>398.66</ele>
        <time>2014-12-07T08:21:04Z</time>
      </trkpt>
      <trkpt lat="47.50558" lon="6.76635">
        <ele>398.6852</ele>
        <time>2014-12-07T08:21:05Z</time>
      </trkpt>
      <trkpt lat="47.50555" lon="6.76636">
        <ele>398.7092</ele>
        <time>2014-12-07T08:21:06Z</time>
      </trkpt>
      <trkpt lat="47.50552" lon="6.76637">
        <ele>398.7356</ele>
        <time>2014-12-07T08:21:07Z</time>
      </trkpt>
      <trkpt lat="47.50549" lon="6.76638">
        <ele>398.7632</ele>
        <time>2014-12-07T08:21:08Z</time>
      </trkpt>
      <trkpt lat="47.50545" lon="6.76639">
        <ele>398.7932</ele>
        <time>2014-12-07T08:21:09Z</time>
      </trkpt>
      <trkpt lat="47.50542" lon="6.7664">
        <ele>398.828</ele>
        <time>2014-12-07T08:21:10Z</time>
      </trkpt>
      <trkpt lat="47.50538" lon="6.7664">
        <ele>398.864</ele>
        <time>2014-12-07T08:21:11Z</time>
      </trkpt>
      <trkpt lat="47.50534" lon="6.76641">
        <ele>398.9024</ele>
        <time>2014-12-07T08:21:12Z</time>
      </trkpt>
      <trkpt lat="47.5053" lon="6.76642">
        <ele>398.9456</ele>
        <time>2014-12-07T08:21:13Z</time>
      </trkpt>
      <trkpt lat="47.50525" lon="6.76643">
        <ele>398.9864</ele>
        <time>2014-12-07T08:21:14Z</time>
      </trkpt>
      <trkpt lat="47.50521" lon="6.76644">
        <ele>399.0284</ele>
        <time>2014-12-07T08:21:15Z</time>
      </trkpt>
      <trkpt lat="47.50517" lon="6.76645">
        <ele>399.0656</ele>
        <time>2014-12-07T08:21:16Z</time>
      </trkpt>
      <trkpt lat="47.50512" lon="6.76646">
        <ele>399.1004</ele>
        <time>2014-12-07T08:21:17Z</time>
      </trkpt>
      <trkpt lat="47.50508" lon="6.76647">
        <ele>399.1328</ele>
        <time>2014-12-07T08:21:18Z</time>
      </trkpt>
      <trkpt lat="47.50504" lon="6.76649">
        <ele>399.164</ele>
        <time>2014-12-07T08:21:19Z</time>
      </trkpt>
      <trkpt lat="47.50501" lon="6.7665">
        <ele>399.1928</ele>
        <time>2014-12-07T08:21:20Z</time>
      </trkpt>
      <trkpt lat="47.50497" lon="6.76651">
        <ele>399.10167296</ele>
        <time>2014-12-07T08:21:21Z</time>
      </trkpt>
      <trkpt lat="47.50493" lon="6.76652">
        <ele>398.98100288001</ele>
        <time>2014-12-07T08:21:22Z</time>
      </trkpt>
      <trkpt lat="47.50489" lon="6.76654">
        <ele>398.8581272</ele>
        <time>2014-12-07T08:21:23Z</time>
      </trkpt>
      <trkpt lat="47.50484" lon="6.76655">
        <ele>398.72045072001</ele>
        <time>2014-12-07T08:21:24Z</time>
      </trkpt>
      <trkpt lat="47.5048" lon="6.76656">
        <ele>398.60871152001</ele>
        <time>2014-12-07T08:21:25Z</time>
      </trkpt>
      <trkpt lat="47.50475" lon="6.76658">
        <ele>398.47700672001</ele>
        <time>2014-12-07T08:21:26Z</time>
      </trkpt>
      <trkpt lat="47.50471" lon="6.7666">
        <ele>398.35616000001</ele>
        <time>2014-12-07T08:21:27Z</time>
      </trkpt>
      <trkpt lat="47.50467" lon="6.76662">
        <ele>398.23688960001</ele>
        <time>2014-12-07T08:21:28Z</time>
      </trkpt>
      <trkpt lat="47.50462" lon="6.76664">
        <ele>398.11384448</ele>
        <time>2014-12-07T08:21:29Z</time>
      </trkpt>
      <trkpt lat="47.50458" lon="6.76665">
        <ele>398.00981312</ele>
        <time>2014-12-07T08:21:30Z</time>
      </trkpt>
      <trkpt lat="47.50454" lon="6.76668">
        <ele>397.877072</ele>
        <time>2014-12-07T08:21:31Z</time>
      </trkpt>
      <trkpt lat="47.5045" lon="6.76669">
        <ele>397.74423871999</ele>
        <time>2014-12-07T08:21:32Z</time>
      </trkpt>
      <trkpt lat="47.50446" lon="6.76671">
        <ele>397.61272064</ele>
        <time>2014-12-07T08:21:33Z</time>
      </trkpt>
      <trkpt lat="47.50442" lon="6.76673">
        <ele>397.49391872</ele>
        <time>2014-12-07T08:21:34Z</time>
      </trkpt>
      <trkpt lat="47.50438" lon="6.76676">
        <ele>397.4036768</ele>
        <time>2014-12-07T08:21:35Z</time>
      </trkpt>
      <trkpt lat="47.50434" lon="6.76677">
        <ele>397.3385024</ele>
        <time>2014-12-07T08:21:36Z</time>
      </trkpt>
      <trkpt lat="47.50431" lon="6.76679">
        <ele>397.28781248</ele>
        <time>2014-12-07T08:21:37Z</time>
      </trkpt>
      <trkpt lat="47.50427" lon="6.76681">
        <ele>397.25013248</ele>
        <time>2014-12-07T08:21:38Z</time>
      </trkpt>
      <trkpt lat="47.50424" lon="6.76682">
        <ele>397.2285344</ele>
        <time>2014-12-07T08:21:39Z</time>
      </trkpt>
      <trkpt lat="47.5042" lon="6.76684">
        <ele>397.2206336</ele>
        <time>2014-12-07T08:21:40Z</time>
      </trkpt>
      <trkpt lat="47.50416" lon="6.76686">
        <ele>397.226</ele>
        <time>2014-12-07T08:21:41Z</time>
      </trkpt>
      <trkpt lat="47.50412" lon="6.76687">
        <ele>397.244</ele>
        <time>2014-12-07T08:21:42Z</time>
      </trkpt>
      <trkpt lat="47.50408" lon="6.76688">
        <ele>397.256</ele>
        <time>2014-12-07T08:21:43Z</time>
      </trkpt>
      <trkpt lat="47.50404" lon="6.7669">
        <ele>397.2776</ele>
        <time>2014-12-07T08:21:44Z</time>
      </trkpt>
      <trkpt lat="47.50401" lon="6.76692">
        <ele>397.304</ele>
        <time>2014-12-07T08:21:45Z</time>
      </trkpt>
      <trkpt lat="47.50397" lon="6.76693">
        <ele>397.3184</ele>
        <time>2014-12-07T08:21:46Z</time>
      </trkpt>
      <trkpt lat="47.50393" lon="6.76695">
        <ele>397.3364</ele>
        <time>2014-12-07T08:21:47Z</time>
      </trkpt>
      <trkpt lat="47.5039" lon="6.76697">
        <ele>397.3604</ele>
        <time>2014-12-07T08:21:48Z</time>
      </trkpt>
      <trkpt lat="47.50386" lon="6.76699">
        <ele>397.3844</ele>
        <time>2014-12-07T08:21:49Z</time>
      </trkpt>
      <trkpt lat="47.50383" lon="6.767">
        <ele>397.4</ele>
        <time>2014-12-07T08:21:50Z</time>
      </trkpt>
      <trkpt lat="47.50379" lon="6.76702">
        <ele>397.4192</ele>
        <time>2014-12-07T08:21:51Z</time>
      </trkpt>
      <trkpt lat="47.50376" lon="6.76703">
        <ele>397.4348</ele>
        <time>2014-12-07T08:21:52Z</time>
      </trkpt>
      <trkpt lat="47.50372" lon="6.76704">
        <ele>397.4492</ele>
        <time>2014-12-07T08:21:53Z</time>
      </trkpt>
      <trkpt lat="47.50369" lon="6.76705">
        <ele>397.4624</ele>
        <time>2014-12-07T08:21:54Z</time>
      </trkpt>
      <trkpt lat="47.50365" lon="6.76707">
        <ele>397.478</ele>
        <time>2014-12-07T08:21:55Z</time>
      </trkpt>
      <trkpt lat="47.50362" lon="6.76708">
        <ele>397.4948</ele>
        <time>2014-12-07T08:21:56Z</time>
      </trkpt>
      <trkpt lat="47.50359" lon="6.76709">
        <ele>397.5104</ele>
        <time>2014-12-07T08:21:57Z</time>
      </trkpt>
      <trkpt lat="47.50355" lon="6.76711">
        <ele>397.5272</ele>
        <time>2014-12-07T08:21:58Z</time>
      </trkpt>
      <trkpt lat="47.50352" lon="6.76712">
        <ele>397.5428</ele>
        <time>2014-12-07T08:21:59Z</time>
      </trkpt>
      <trkpt lat="47.50341" lon="6.76716">
        <ele>397.5896</ele>
        <time>2014-12-07T08:22:02Z</time>
      </trkpt>
      <trkpt lat="47.50337" lon="6.76717">
        <ele>397.6052</ele>
        <time>2014-12-07T08:22:03Z</time>
      </trkpt>
      <trkpt lat="47.50334" lon="6.76719">
        <ele>397.622</ele>
        <time>2014-12-07T08:22:04Z</time>
      </trkpt>
      <trkpt lat="47.5033" lon="6.7672">
        <ele>397.7224</ele>
        <time>2014-12-07T08:22:05Z</time>
      </trkpt>
      <trkpt lat="47.50326" lon="6.76721">
        <ele>397.8256</ele>
        <time>2014-12-07T08:22:06Z</time>
      </trkpt>
      <trkpt lat="47.50322" lon="6.76723">
        <ele>397.9372</ele>
        <time>2014-12-07T08:22:07Z</time>
      </trkpt>
      <trkpt lat="47.50318" lon="6.76724">
        <ele>398.05479999999</ele>
        <time>2014-12-07T08:22:08Z</time>
      </trkpt>
      <trkpt lat="47.50314" lon="6.76726">
        <ele>398.17</ele>
        <time>2014-12-07T08:22:09Z</time>
      </trkpt>
      <trkpt lat="47.50311" lon="6.76728">
        <ele>398.28159999999</ele>
        <time>2014-12-07T08:22:10Z</time>
      </trkpt>
      <trkpt lat="47.50307" lon="6.76729">
        <ele>398.37999999999</ele>
        <time>2014-12-07T08:22:11Z</time>
      </trkpt>
      <trkpt lat="47.50304" lon="6.7673">
        <ele>398.4712</ele>
        <time>2014-12-07T08:22:12Z</time>
      </trkpt>
      <trkpt lat="47.50301" lon="6.76731">
        <ele>398.5576</ele>
        <time>2014-12-07T08:22:13Z</time>
      </trkpt>
      <trkpt lat="47.50297" lon="6.76732">
        <ele>398.6416</ele>
        <time>2014-12-07T08:22:14Z</time>
      </trkpt>
      <trkpt lat="47.50294" lon="6.76732">
        <ele>398.728</ele>
        <time>2014-12-07T08:22:15Z</time>
      </trkpt>
      <trkpt lat="47.50291" lon="6.76733">
        <ele>398.818</ele>
        <time>2014-12-07T08:22:16Z</time>
      </trkpt>
      <trkpt lat="47.50287" lon="6.76734">
        <ele>398.9068</ele>
        <time>2014-12-07T08:22:17Z</time>
      </trkpt>
      <trkpt lat="47.50284" lon="6.76734">
        <ele>398.99320000001</ele>
        <time>2014-12-07T08:22:18Z</time>
      </trkpt>
      <trkpt lat="47.50281" lon="6.76735">
        <ele>399.07600000001</ele>
        <time>2014-12-07T08:22:19Z</time>
      </trkpt>
      <trkpt lat="47.50278" lon="6.76736">
        <ele>399.15640000001</ele>
        <time>2014-12-07T08:22:20Z</time>
      </trkpt>
      <trkpt lat="47.50275" lon="6.76736">
        <ele>399.2404</ele>
        <time>2014-12-07T08:22:21Z</time>
      </trkpt>
      <trkpt lat="47.50272" lon="6.76737">
        <ele>399.3268</ele>
        <time>2014-12-07T08:22:22Z</time>
      </trkpt>
      <trkpt lat="47.50269" lon="6.76738">
        <ele>399.4108</ele>
        <time>2014-12-07T08:22:23Z</time>
      </trkpt>
      <trkpt lat="47.50265" lon="6.76739">
        <ele>399.4984</ele>
        <time>2014-12-07T08:22:24Z</time>
      </trkpt>
      <trkpt lat="47.50262" lon="6.7674">
        <ele>399.58120000001</ele>
        <time>2014-12-07T08:22:25Z</time>
      </trkpt>
      <trkpt lat="47.50259" lon="6.76741">
        <ele>399.6652</ele>
        <time>2014-12-07T08:22:26Z</time>
      </trkpt>
      <trkpt lat="47.50256" lon="6.7674">
        <ele>399.7384</ele>
        <time>2014-12-07T08:22:27Z</time>
      </trkpt>
      <trkpt lat="47.50253" lon="6.76739">
        <ele>399.79600000001</ele>
        <time>2014-12-07T08:22:28Z</time>
      </trkpt>
      <trkpt lat="47.50251" lon="6.76737">
        <ele>399.832</ele>
        <time>2014-12-07T08:22:29Z</time>
      </trkpt>
      <trkpt lat="47.50249" lon="6.76735">
        <ele>399.90137344</ele>
        <time>2014-12-07T08:22:30Z</time>
      </trkpt>
      <trkpt lat="47.50247" lon="6.76732">
        <ele>399.98082304002</ele>
        <time>2014-12-07T08:22:31Z</time>
      </trkpt>
      <trkpt lat="47.50246" lon="6.7673">
        <ele>400.04400160002</ele>
        <time>2014-12-07T08:22:32Z</time>
      </trkpt>
      <trkpt lat="47.50244" lon="6.76727">
        <ele>400.11167536</ele>
        <time>2014-12-07T08:22:33Z</time>
      </trkpt>
      <trkpt lat="47.50243" lon="6.76724">
        <ele>400.17944319999</ele>
        <time>2014-12-07T08:22:34Z</time>
      </trkpt>
      <trkpt lat="47.50241" lon="6.76721">
        <ele>400.23925791999</ele>
        <time>2014-12-07T08:22:35Z</time>
      </trkpt>
      <trkpt lat="47.5024" lon="6.76718">
        <ele>400.30204096002</ele>
        <time>2014-12-07T08:22:36Z</time>
      </trkpt>
      <trkpt lat="47.50239" lon="6.76715">
        <ele>400.35277120002</ele>
        <time>2014-12-07T08:22:37Z</time>
      </trkpt>
      <trkpt lat="47.50237" lon="6.76712">
        <ele>400.39805392002</ele>
        <time>2014-12-07T08:22:38Z</time>
      </trkpt>
      <trkpt lat="47.50236" lon="6.76708">
        <ele>400.44148672001</ele>
        <time>2014-12-07T08:22:39Z</time>
      </trkpt>
      <trkpt lat="47.50234" lon="6.76704">
        <ele>400.48829440002</ele>
        <time>2014-12-07T08:22:40Z</time>
      </trkpt>
      <trkpt lat="47.50232" lon="6.76699">
        <ele>400.53030591999</ele>
        <time>2014-12-07T08:22:41Z</time>
      </trkpt>
      <trkpt lat="47.50231" lon="6.76695">
        <ele>400.58315200002</ele>
        <time>2014-12-07T08:22:42Z</time>
      </trkpt>
      <trkpt lat="47.50229" lon="6.76691">
        <ele>400.62257919999</ele>
        <time>2014-12-07T08:22:43Z</time>
      </trkpt>
      <trkpt lat="47.50227" lon="6.76687">
        <ele>400.67417344001</ele>
        <time>2014-12-07T08:22:44Z</time>
      </trkpt>
      <trkpt lat="47.50226" lon="6.76683">
        <ele>400.71273471998</ele>
        <time>2014-12-07T08:22:45Z</time>
      </trkpt>
      <trkpt lat="47.50224" lon="6.76679">
        <ele>400.75405023998</ele>
        <time>2014-12-07T08:22:46Z</time>
      </trkpt>
      <trkpt lat="47.50222" lon="6.76675">
        <ele>400.79495871998</ele>
        <time>2014-12-07T08:22:47Z</time>
      </trkpt>
      <trkpt lat="47.50221" lon="6.7667">
        <ele>400.83065919998</ele>
        <time>2014-12-07T08:22:48Z</time>
      </trkpt>
      <trkpt lat="47.50219" lon="6.76666">
        <ele>400.87657792002</ele>
        <time>2014-12-07T08:22:49Z</time>
      </trkpt>
      <trkpt lat="47.50217" lon="6.76661">
        <ele>401.01199552002</ele>
        <time>2014-12-07T08:22:50Z</time>
      </trkpt>
      <trkpt lat="47.50215" lon="6.76656">
        <ele>401.15820352002</ele>
        <time>2014-12-07T08:22:51Z</time>
      </trkpt>
      <trkpt lat="47.50214" lon="6.76652">
        <ele>401.31311680002</ele>
        <time>2014-12-07T08:22:52Z</time>
      </trkpt>
      <trkpt lat="47.50212" lon="6.76647">
        <ele>401.48458048</ele>
        <time>2014-12-07T08:22:53Z</time>
      </trkpt>
      <trkpt lat="47.5021" lon="6.76642">
        <ele>401.65966335999</ele>
        <time>2014-12-07T08:22:54Z</time>
      </trkpt>
      <trkpt lat="47.50209" lon="6.76637">
        <ele>401.84434239999</ele>
        <time>2014-12-07T08:22:55Z</time>
      </trkpt>
      <trkpt lat="47.50207" lon="6.76632">
        <ele>402.03861759999</ele>
        <time>2014-12-07T08:22:56Z</time>
      </trkpt>
      <trkpt lat="47.50204" lon="6.76627">
        <ele>402.37403776003</ele>
        <time>2014-12-07T08:22:57Z</time>
      </trkpt>
      <trkpt lat="47.50202" lon="6.76621">
        <ele>402.6329632</ele>
        <time>2014-12-07T08:22:58Z</time>
      </trkpt>
      <trkpt lat="47.50199" lon="6.76616">
        <ele>402.94212160001</ele>
        <time>2014-12-07T08:22:59Z</time>
      </trkpt>
      <trkpt lat="47.50198" lon="6.76612">
        <ele>403.12870719999</ele>
        <time>2014-12-07T08:23:00Z</time>
      </trkpt>
      <trkpt lat="47.50196" lon="6.76604">
        <ele>403.40252031999</ele>
        <time>2014-12-07T08:23:02Z</time>
      </trkpt>
      <trkpt lat="47.50197" lon="6.766">
        <ele>403.42875711998</ele>
        <time>2014-12-07T08:23:04Z</time>
      </trkpt>
      <trkpt lat="47.50197" lon="6.76597">
        <ele>403.470784</ele>
        <time>2014-12-07T08:23:05Z</time>
      </trkpt>
      <trkpt lat="47.50197" lon="6.76592">
        <ele>403.54650495998</ele>
        <time>2014-12-07T08:23:07Z</time>
      </trkpt>
      <trkpt lat="47.50197" lon="6.76589">
        <ele>403.57162432003</ele>
        <time>2014-12-07T08:23:08Z</time>
      </trkpt>
      <trkpt lat="47.50198" lon="6.76585">
        <ele>403.62544192004</ele>
        <time>2014-12-07T08:23:10Z</time>
      </trkpt>
      <trkpt lat="47.50198" lon="6.76582">
        <ele>403.60729999998</ele>
        <time>2014-12-07T08:23:11Z</time>
      </trkpt>
      <trkpt lat="47.50197" lon="6.76575">
        <ele>403.4043944</ele>
        <time>2014-12-07T08:23:13Z</time>
      </trkpt>
      <trkpt lat="47.50198" lon="6.76572">
        <ele>403.27555999998</ele>
        <time>2014-12-07T08:23:14Z</time>
      </trkpt>
      <trkpt lat="47.50194" lon="6.76575">
        <ele>403.8048824</ele>
        <time>2014-12-07T08:23:39Z</time>
      </trkpt>
      <trkpt lat="47.50193" lon="6.76575">
        <ele>403.90631120003</ele>
        <time>2014-12-07T08:23:40Z</time>
      </trkpt>
      <trkpt lat="47.50196" lon="6.7657">
        <ele>403.40546480001</ele>
        <time>2014-12-07T08:24:14Z</time>
      </trkpt>
      <trkpt lat="47.50196" lon="6.7657">
        <ele>403.39371200004</ele>
        <time>2014-12-07T08:24:15Z</time>
      </trkpt>
      <trkpt lat="47.50198" lon="6.7657">
        <ele>403.10253199997</ele>
        <time>2014-12-07T08:24:31Z</time>
      </trkpt>
      <trkpt lat="47.50202" lon="6.76569">
        <ele>402.710228</ele>
        <time>2014-12-07T08:24:32Z</time>
      </trkpt>
      <trkpt lat="47.50204" lon="6.76569">
        <ele>402.35567599999</ele>
        <time>2014-12-07T08:24:33Z</time>
      </trkpt>
      <trkpt lat="47.50207" lon="6.76567">
        <ele>401.91751039999</ele>
        <time>2014-12-07T08:24:34Z</time>
      </trkpt>
      <trkpt lat="47.5021" lon="6.76564">
        <ele>401.53356799998</ele>
        <time>2014-12-07T08:24:35Z</time>
      </trkpt>
      <trkpt lat="47.50211" lon="6.76561">
        <ele>401.18948239998</ele>
        <time>2014-12-07T08:24:36Z</time>
      </trkpt>
      <trkpt lat="47.50212" lon="6.76558">
        <ele>400.90914559998</ele>
        <time>2014-12-07T08:24:37Z</time>
      </trkpt>
      <trkpt lat="47.50212" lon="6.76554">
        <ele>400.72494079997</ele>
        <time>2014-12-07T08:24:38Z</time>
      </trkpt>
      <trkpt lat="47.50212" lon="6.76549">
        <ele>400.59784880002</ele>
        <time>2014-12-07T08:24:39Z</time>
      </trkpt>
      <trkpt lat="47.50211" lon="6.76544">
        <ele>400.489856</ele>
        <time>2014-12-07T08:24:40Z</time>
      </trkpt>
      <trkpt lat="47.50209" lon="6.76538">
        <ele>400.53326720003</ele>
        <time>2014-12-07T08:24:41Z</time>
      </trkpt>
      <trkpt lat="47.50206" lon="6.76533">
        <ele>400.6873952</ele>
        <time>2014-12-07T08:24:42Z</time>
      </trkpt>
      <trkpt lat="47.50203" lon="6.76529">
        <ele>400.97645839997</ele>
        <time>2014-12-07T08:24:43Z</time>
      </trkpt>
      <trkpt lat="47.502" lon="6.76524">
        <ele>401.29772959999</ele>
        <time>2014-12-07T08:24:44Z</time>
      </trkpt>
      <trkpt lat="47.50196" lon="6.76519">
        <ele>401.65291519999</ele>
        <time>2014-12-07T08:24:45Z</time>
      </trkpt>
      <trkpt lat="47.50193" lon="6.76514">
        <ele>402.02182399998</ele>
        <time>2014-12-07T08:24:46Z</time>
      </trkpt>
      <trkpt lat="47.50189" lon="6.76509">
        <ele>402.436112</ele>
        <time>2014-12-07T08:24:47Z</time>
      </trkpt>
      <trkpt lat="47.50186" lon="6.76503">
        <ele>402.78877279995</ele>
        <time>2014-12-07T08:24:48Z</time>
      </trkpt>
      <trkpt lat="47.50183" lon="6.76496">
        <ele>402.94350463998</ele>
        <time>2014-12-07T08:24:49Z</time>
      </trkpt>
      <trkpt lat="47.50176" lon="6.76471">
        <ele>402.04295168</ele>
        <time>2014-12-07T08:24:50Z</time>
      </trkpt>
      <trkpt lat="47.50173" lon="6.76462">
        <ele>401.75216048005</ele>
        <time>2014-12-07T08:24:51Z</time>
      </trkpt>
      <trkpt lat="47.50172" lon="6.76452">
        <ele>401.08706624006</ele>
        <time>2014-12-07T08:24:52Z</time>
      </trkpt>
      <trkpt lat="47.50169" lon="6.76444">
        <ele>400.90353535998</ele>
        <time>2014-12-07T08:24:53Z</time>
      </trkpt>
      <trkpt lat="47.50171" lon="6.7643">
        <ele>399.39239551998</ele>
        <time>2014-12-07T08:24:54Z</time>
      </trkpt>
      <trkpt lat="47.5017" lon="6.76417">
        <ele>398.36463296006</ele>
        <time>2014-12-07T08:24:55Z</time>
      </trkpt>
      <trkpt lat="47.50167" lon="6.76408">
        <ele>398.14878080005</ele>
        <time>2014-12-07T08:24:56Z</time>
      </trkpt>
      <trkpt lat="47.50163" lon="6.76404">
        <ele>398.35861920003</ele>
        <time>2014-12-07T08:24:57Z</time>
      </trkpt>
      <trkpt lat="47.50161" lon="6.764">
        <ele>398.39937600003</ele>
        <time>2014-12-07T08:24:58Z</time>
      </trkpt>
      <trkpt lat="47.50159" lon="6.76393">
        <ele>398.072736</ele>
        <time>2014-12-07T08:24:59Z</time>
      </trkpt>
      <trkpt lat="47.50155" lon="6.76387">
        <ele>398.23918080001</ele>
        <time>2014-12-07T08:25:01Z</time>
      </trkpt>
      <trkpt lat="47.50153" lon="6.76385">
        <ele>398.35801440001</ele>
        <time>2014-12-07T08:25:02Z</time>
      </trkpt>
      <trkpt lat="47.50151" lon="6.76384">
        <ele>398.69653440006</ele>
        <time>2014-12-07T08:25:03Z</time>
      </trkpt>
      <trkpt lat="47.50148" lon="6.76382">
        <ele>398.97079919999</ele>
        <time>2014-12-07T08:25:04Z</time>
      </trkpt>
      <trkpt lat="47.50145" lon="6.76377">
        <ele>399.10083839995</ele>
        <time>2014-12-07T08:25:05Z</time>
      </trkpt>
      <trkpt lat="47.50144" lon="6.76372">
        <ele>398.9501688</ele>
        <time>2014-12-07T08:25:06Z</time>
      </trkpt>
      <trkpt lat="47.50142" lon="6.76367">
        <ele>398.95856639999</ele>
        <time>2014-12-07T08:25:07Z</time>
      </trkpt>
      <trkpt lat="47.5014" lon="6.76362">
        <ele>398.88758879994</ele>
        <time>2014-12-07T08:25:08Z</time>
      </trkpt>
      <trkpt lat="47.50138" lon="6.76357">
        <ele>398.85811199997</ele>
        <time>2014-12-07T08:25:09Z</time>
      </trkpt>
      <trkpt lat="47.50137" lon="6.7635">
        <ele>398.72064239996</ele>
        <time>2014-12-07T08:25:10Z</time>
      </trkpt>
      <trkpt lat="47.50135" lon="6.76342">
        <ele>398.45445120006</ele>
        <time>2014-12-07T08:25:11Z</time>
      </trkpt>
      <trkpt lat="47.50137" lon="6.7631">
        <ele>395.87221631992</ele>
        <time>2014-12-07T08:25:12Z</time>
      </trkpt>
      <trkpt lat="47.50137" lon="6.76299">
        <ele>395.3261592</ele>
        <time>2014-12-07T08:25:13Z</time>
      </trkpt>
      <trkpt lat="47.50136" lon="6.76292">
        <ele>394.97770367993</ele>
        <time>2014-12-07T08:25:14Z</time>
      </trkpt>
      <trkpt lat="47.50135" lon="6.76285">
        <ele>394.80169295994</ele>
        <time>2014-12-07T08:25:15Z</time>
      </trkpt>
      <trkpt lat="47.50134" lon="6.7628">
        <ele>394.63383744006</ele>
        <time>2014-12-07T08:25:16Z</time>
      </trkpt>
      <trkpt lat="47.50133" lon="6.76274">
        <ele>394.46584319998</ele>
        <time>2014-12-07T08:25:17Z</time>
      </trkpt>
      <trkpt lat="47.50132" lon="6.76267">
        <ele>394.25944319994</ele>
        <time>2014-12-07T08:25:18Z</time>
      </trkpt>
      <trkpt lat="47.5013" lon="6.7626">
        <ele>394.24859040002</ele>
        <time>2014-12-07T08:25:19Z</time>
      </trkpt>
      <trkpt lat="47.50127" lon="6.76253">
        <ele>394.25481792</ele>
        <time>2014-12-07T08:25:20Z</time>
      </trkpt>
      <trkpt lat="47.50125" lon="6.76246">
        <ele>394.17621888007</ele>
        <time>2014-12-07T08:25:21Z</time>
      </trkpt>
      <trkpt lat="47.50123" lon="6.76239">
        <ele>393.87905279996</ele>
        <time>2014-12-07T08:25:22Z</time>
      </trkpt>
      <trkpt lat="47.50121" lon="6.76232">
        <ele>393.52506240005</ele>
        <time>2014-12-07T08:25:23Z</time>
      </trkpt>
      <trkpt lat="47.5012" lon="6.76226">
        <ele>393.24549119995</ele>
        <time>2014-12-07T08:25:24Z</time>
      </trkpt>
      <trkpt lat="47.50119" lon="6.76219">
        <ele>392.87732352007</ele>
        <time>2014-12-07T08:25:25Z</time>
      </trkpt>
      <trkpt lat="47.50118" lon="6.76212">
        <ele>392.39292192003</ele>
        <time>2014-12-07T08:25:26Z</time>
      </trkpt>
      <trkpt lat="47.50117" lon="6.76205">
        <ele>391.90927584006</ele>
        <time>2014-12-07T08:25:27Z</time>
      </trkpt>
      <trkpt lat="47.50116" lon="6.76198">
        <ele>391.51324416008</ele>
        <time>2014-12-07T08:25:28Z</time>
      </trkpt>
      <trkpt lat="47.50115" lon="6.76191">
        <ele>391.14711839998</ele>
        <time>2014-12-07T08:25:29Z</time>
      </trkpt>
      <trkpt lat="47.50113" lon="6.76184">
        <ele>390.87164832003</ele>
        <time>2014-12-07T08:25:30Z</time>
      </trkpt>
      <trkpt lat="47.50111" lon="6.76177">
        <ele>390.58303487996</ele>
        <time>2014-12-07T08:25:31Z</time>
      </trkpt>
      <trkpt lat="47.50109" lon="6.76169">
        <ele>390.33851519994</ele>
        <time>2014-12-07T08:25:32Z</time>
      </trkpt>
      <trkpt lat="47.50108" lon="6.76136">
        <ele>388.15868735997</ele>
        <time>2014-12-07T08:25:33Z</time>
      </trkpt>
      <trkpt lat="47.50106" lon="6.76128">
        <ele>388.13708351999</ele>
        <time>2014-12-07T08:25:34Z</time>
      </trkpt>
      <trkpt lat="47.50104" lon="6.7612">
        <ele>388.01276352007</ele>
        <time>2014-12-07T08:25:35Z</time>
      </trkpt>
      <trkpt lat="47.50101" lon="6.76103">
        <ele>387.31013760002</ele>
        <time>2014-12-07T08:25:36Z</time>
      </trkpt>
      <trkpt lat="47.50098" lon="6.76093">
        <ele>387.05322239999</ele>
        <time>2014-12-07T08:25:37Z</time>
      </trkpt>
      <trkpt lat="47.50093" lon="6.7608">
        <ele>386.89568480001</ele>
        <time>2014-12-07T08:25:38Z</time>
      </trkpt>
      <trkpt lat="47.50093" lon="6.76061">
        <ele>384.98470400005</ele>
        <time>2014-12-07T08:25:39Z</time>
      </trkpt>
      <trkpt lat="47.5009" lon="6.76052">
        <ele>384.57610112005</ele>
        <time>2014-12-07T08:25:40Z</time>
      </trkpt>
      <trkpt lat="47.50088" lon="6.76042">
        <ele>383.92275584</ele>
        <time>2014-12-07T08:25:41Z</time>
      </trkpt>
      <trkpt lat="47.50086" lon="6.76033">
        <ele>383.25903103999</ele>
        <time>2014-12-07T08:25:42Z</time>
      </trkpt>
      <trkpt lat="47.50082" lon="6.76026">
        <ele>382.8810656</ele>
        <time>2014-12-07T08:25:43Z</time>
      </trkpt>
      <trkpt lat="47.5008" lon="6.7602">
        <ele>382.33113920002</ele>
        <time>2014-12-07T08:25:44Z</time>
      </trkpt>
      <trkpt lat="47.50075" lon="6.76015">
        <ele>381.97180352001</ele>
        <time>2014-12-07T08:25:45Z</time>
      </trkpt>
      <trkpt lat="47.50073" lon="6.7601">
        <ele>381.52097599999</ele>
        <time>2014-12-07T08:25:46Z</time>
      </trkpt>
      <trkpt lat="47.5007" lon="6.76003">
        <ele>380.84994367999</ele>
        <time>2014-12-07T08:25:47Z</time>
      </trkpt>
      <trkpt lat="47.50068" lon="6.76">
        <ele>380.581712</ele>
        <time>2014-12-07T08:25:48Z</time>
      </trkpt>
      <trkpt lat="47.50066" lon="6.75997">
        <ele>380.44725584001</ele>
        <time>2014-12-07T08:25:49Z</time>
      </trkpt>
      <trkpt lat="47.50064" lon="6.75994">
        <ele>380.29131056</ele>
        <time>2014-12-07T08:25:50Z</time>
      </trkpt>
      <trkpt lat="47.50062" lon="6.75991">
        <ele>380.14505984001</ele>
        <time>2014-12-07T08:25:51Z</time>
      </trkpt>
      <trkpt lat="47.50059" lon="6.75987">
        <ele>379.97027599999</ele>
        <time>2014-12-07T08:25:52Z</time>
      </trkpt>
      <trkpt lat="47.50055" lon="6.75981">
        <ele>379.74697472</ele>
        <time>2014-12-07T08:25:53Z</time>
      </trkpt>
      <trkpt lat="47.50042" lon="6.75956">
        <ele>378.55122943999</ele>
        <time>2014-12-07T08:25:54Z</time>
      </trkpt>
      <trkpt lat="47.50038" lon="6.75948">
        <ele>378.22525903999</ele>
        <time>2014-12-07T08:25:55Z</time>
      </trkpt>
      <trkpt lat="47.50035" lon="6.7594">
        <ele>377.84245952</ele>
        <time>2014-12-07T08:25:56Z</time>
      </trkpt>
      <trkpt lat="47.50031" lon="6.75932">
        <ele>377.49773887999</ele>
        <time>2014-12-07T08:25:57Z</time>
      </trkpt>
      <trkpt lat="47.50027" lon="6.75923">
        <ele>377.08642303999</ele>
        <time>2014-12-07T08:25:58Z</time>
      </trkpt>
      <trkpt lat="47.50022" lon="6.75913">
        <ele>376.94514559999</ele>
        <time>2014-12-07T08:25:59Z</time>
      </trkpt>
      <trkpt lat="47.50011" lon="6.75889">
        <ele>377.74523360001</ele>
        <time>2014-12-07T08:26:02Z</time>
      </trkpt>
      <trkpt lat="47.5001" lon="6.75885">
        <ele>377.80190720001</ele>
        <time>2014-12-07T08:26:03Z</time>
      </trkpt>
      <trkpt lat="47.5001" lon="6.75882">
        <ele>377.86120064</ele>
        <time>2014-12-07T08:26:04Z</time>
      </trkpt>
      <trkpt lat="47.50007" lon="6.75879">
        <ele>378.01257728001</ele>
        <time>2014-12-07T08:26:05Z</time>
      </trkpt>
      <trkpt lat="47.49992" lon="6.75868">
        <ele>378.07958720002</ele>
        <time>2014-12-07T08:26:06Z</time>
      </trkpt>
      <trkpt lat="47.49986" lon="6.75861">
        <ele>377.68852928002</ele>
        <time>2014-12-07T08:26:07Z</time>
      </trkpt>
      <trkpt lat="47.49981" lon="6.7585">
        <ele>377.19053888001</ele>
        <time>2014-12-07T08:26:08Z</time>
      </trkpt>
      <trkpt lat="47.49977" lon="6.75839">
        <ele>376.66063232002</ele>
        <time>2014-12-07T08:26:09Z</time>
      </trkpt>
      <trkpt lat="47.49973" lon="6.75832">
        <ele>376.03562239997</ele>
        <time>2014-12-07T08:26:10Z</time>
      </trkpt>
      <trkpt lat="47.49966" lon="6.75815">
        <ele>374.94233983999</ele>
        <time>2014-12-07T08:26:11Z</time>
      </trkpt>
      <trkpt lat="47.49963" lon="6.75795">
        <ele>374.29661936001</ele>
        <time>2014-12-07T08:26:12Z</time>
      </trkpt>
      <trkpt lat="47.49958" lon="6.75778">
        <ele>373.48604911999</ele>
        <time>2014-12-07T08:26:13Z</time>
      </trkpt>
      <trkpt lat="47.49953" lon="6.75766">
        <ele>372.78802064</ele>
        <time>2014-12-07T08:26:14Z</time>
      </trkpt>
      <trkpt lat="47.4995" lon="6.75754">
        <ele>372.31088768002</ele>
        <time>2014-12-07T08:26:15Z</time>
      </trkpt>
      <trkpt lat="47.49946" lon="6.75747">
        <ele>371.65250527997</ele>
        <time>2014-12-07T08:26:16Z</time>
      </trkpt>
      <trkpt lat="47.49941" lon="6.75742">
        <ele>370.94894720002</ele>
        <time>2014-12-07T08:26:17Z</time>
      </trkpt>
      <trkpt lat="47.49938" lon="6.75739">
        <ele>370.62822079998</ele>
        <time>2014-12-07T08:26:18Z</time>
      </trkpt>
      <trkpt lat="47.49933" lon="6.75739">
        <ele>370.22096384</ele>
        <time>2014-12-07T08:26:19Z</time>
      </trkpt>
      <trkpt lat="47.49929" lon="6.75737">
        <ele>369.81546752</ele>
        <time>2014-12-07T08:26:20Z</time>
      </trkpt>
      <trkpt lat="47.49925" lon="6.75737">
        <ele>369.47639552</ele>
        <time>2014-12-07T08:26:21Z</time>
      </trkpt>
      <trkpt lat="47.4992" lon="6.75737">
        <ele>369.10753039999</ele>
        <time>2014-12-07T08:26:22Z</time>
      </trkpt>
      <trkpt lat="47.49915" lon="6.75737">
        <ele>368.67742335996</ele>
        <time>2014-12-07T08:26:23Z</time>
      </trkpt>
      <trkpt lat="47.49912" lon="6.75736">
        <ele>368.21171584004</ele>
        <time>2014-12-07T08:26:24Z</time>
      </trkpt>
      <trkpt lat="47.49907" lon="6.75737">
        <ele>367.66087744</ele>
        <time>2014-12-07T08:26:25Z</time>
      </trkpt>
      <trkpt lat="47.49903" lon="6.75738">
        <ele>367.15763967996</ele>
        <time>2014-12-07T08:26:26Z</time>
      </trkpt>
      <trkpt lat="47.49899" lon="6.75739">
        <ele>366.63162879999</ele>
        <time>2014-12-07T08:26:27Z</time>
      </trkpt>
      <trkpt lat="47.49895" lon="6.75741">
        <ele>366.10470399999</ele>
        <time>2014-12-07T08:26:28Z</time>
      </trkpt>
      <trkpt lat="47.49889" lon="6.75743">
        <ele>365.50647231997</ele>
        <time>2014-12-07T08:26:29Z</time>
      </trkpt>
      <trkpt lat="47.49884" lon="6.75745">
        <ele>364.89835264002</ele>
        <time>2014-12-07T08:26:30Z</time>
      </trkpt>
      <trkpt lat="47.49869" lon="6.75747">
        <ele>363.10897215999</ele>
        <time>2014-12-07T08:26:31Z</time>
      </trkpt>
      <trkpt lat="47.49854" lon="6.75747">
        <ele>361.27968639996</ele>
        <time>2014-12-07T08:26:32Z</time>
      </trkpt>
      <trkpt lat="47.49842" lon="6.75747">
        <ele>359.89264384</ele>
        <time>2014-12-07T08:26:33Z</time>
      </trkpt>
      <trkpt lat="47.49828" lon="6.75748">
        <ele>358.33637183997</ele>
        <time>2014-12-07T08:26:34Z</time>
      </trkpt>
      <trkpt lat="47.49819" lon="6.7575">
        <ele>357.66724224003</ele>
        <time>2014-12-07T08:26:35Z</time>
      </trkpt>
      <trkpt lat="47.49811" lon="6.75753">
        <ele>357.26255616001</ele>
        <time>2014-12-07T08:26:36Z</time>
      </trkpt>
      <trkpt lat="47.49803" lon="6.75754">
        <ele>356.67523583997</ele>
        <time>2014-12-07T08:26:37Z</time>
      </trkpt>
      <trkpt lat="47.49796" lon="6.75756">
        <ele>356.23442016001</ele>
        <time>2014-12-07T08:26:38Z</time>
      </trkpt>
      <trkpt lat="47.49788" lon="6.75755">
        <ele>355.37107872003</ele>
        <time>2014-12-07T08:26:39Z</time>
      </trkpt>
      <trkpt lat="47.4978" lon="6.75757">
        <ele>354.93802176002</ele>
        <time>2014-12-07T08:26:40Z</time>
      </trkpt>
      <trkpt lat="47.49772" lon="6.7576">
        <ele>354.73939200003</ele>
        <time>2014-12-07T08:26:41Z</time>
      </trkpt>
      <trkpt lat="47.49764" lon="6.75762">
        <ele>354.34142016001</ele>
        <time>2014-12-07T08:26:42Z</time>
      </trkpt>
      <trkpt lat="47.49757" lon="6.75765">
        <ele>354.22003776001</ele>
        <time>2014-12-07T08:26:43Z</time>
      </trkpt>
      <trkpt lat="47.4975" lon="6.75767">
        <ele>354.05659391999</ele>
        <time>2014-12-07T08:26:44Z</time>
      </trkpt>
      <trkpt lat="47.4974" lon="6.75769">
        <ele>353.43787679997</ele>
        <time>2014-12-07T08:26:45Z</time>
      </trkpt>
      <trkpt lat="47.49729" lon="6.75769">
        <ele>352.68669312001</ele>
        <time>2014-12-07T08:26:46Z</time>
      </trkpt>
      <trkpt lat="47.49721" lon="6.75771">
        <ele>352.30887935997</ele>
        <time>2014-12-07T08:26:47Z</time>
      </trkpt>
      <trkpt lat="47.49713" lon="6.75771">
        <ele>351.58634112</ele>
        <time>2014-12-07T08:26:48Z</time>
      </trkpt>
      <trkpt lat="47.49706" lon="6.75772">
        <ele>351.10735872001</ele>
        <time>2014-12-07T08:26:49Z</time>
      </trkpt>
      <trkpt lat="47.49701" lon="6.75773">
        <ele>350.88756671998</ele>
        <time>2014-12-07T08:26:50Z</time>
      </trkpt>
      <trkpt lat="47.49695" lon="6.75773">
        <ele>350.23435200003</ele>
        <time>2014-12-07T08:26:51Z</time>
      </trkpt>
      <trkpt lat="47.49687" lon="6.75774">
        <ele>349.75102320001</ele>
        <time>2014-12-07T08:26:52Z</time>
      </trkpt>
      <trkpt lat="47.49683" lon="6.75774">
        <ele>349.54655327999</ele>
        <time>2014-12-07T08:26:53Z</time>
      </trkpt>
      <trkpt lat="47.49677" lon="6.75774">
        <ele>348.84169727998</ele>
        <time>2014-12-07T08:26:54Z</time>
      </trkpt>
      <trkpt lat="47.49672" lon="6.75772">
        <ele>348.09284064</ele>
        <time>2014-12-07T08:26:55Z</time>
      </trkpt>
      <trkpt lat="47.49667" lon="6.75772">
        <ele>347.74930704003</ele>
        <time>2014-12-07T08:26:56Z</time>
      </trkpt>
      <trkpt lat="47.49662" lon="6.75773">
        <ele>347.25847200002</ele>
        <time>2014-12-07T08:26:57Z</time>
      </trkpt>
      <trkpt lat="47.49655" lon="6.75775">
        <ele>346.78045440001</ele>
        <time>2014-12-07T08:26:58Z</time>
      </trkpt>
      <trkpt lat="47.4965" lon="6.75774">
        <ele>345.99273840001</ele>
        <time>2014-12-07T08:26:59Z</time>
      </trkpt>
      <trkpt lat="47.49643" lon="6.75775">
        <ele>345.34169951997</ele>
        <time>2014-12-07T08:27:02Z</time>
      </trkpt>
      <trkpt lat="47.4964" lon="6.75774">
        <ele>344.98736207998</ele>
        <time>2014-12-07T08:27:03Z</time>
      </trkpt>
      <trkpt lat="47.49638" lon="6.75772">
        <ele>344.38677551998</ele>
        <time>2014-12-07T08:27:04Z</time>
      </trkpt>
      <trkpt lat="47.49636" lon="6.75769">
        <ele>343.61246256003</ele>
        <time>2014-12-07T08:27:05Z</time>
      </trkpt>
      <trkpt lat="47.49634" lon="6.75766">
        <ele>342.84801407999</ele>
        <time>2014-12-07T08:27:06Z</time>
      </trkpt>
      <trkpt lat="47.4963" lon="6.75763">
        <ele>341.85263999997</ele>
        <time>2014-12-07T08:27:07Z</time>
      </trkpt>
      <trkpt lat="47.496" lon="6.75754">
        <ele>336.63936000003</ele>
        <time>2014-12-07T08:27:08Z</time>
      </trkpt>
      <trkpt lat="47.49595" lon="6.7575">
        <ele>335.41971072</ele>
        <time>2014-12-07T08:27:09Z</time>
      </trkpt>
      <trkpt lat="47.49594" lon="6.75745">
        <ele>334.32979200003</ele>
        <time>2014-12-07T08:27:11Z</time>
      </trkpt>
      <trkpt lat="47.49594" lon="6.75742">
        <ele>333.9713088</ele>
        <time>2014-12-07T08:27:12Z</time>
      </trkpt>
      <trkpt lat="47.49589" lon="6.75739">
        <ele>332.91895680002</ele>
        <time>2014-12-07T08:27:13Z</time>
      </trkpt>
      <trkpt lat="47.49591" lon="6.75735">
        <ele>332.51376000002</ele>
        <time>2014-12-07T08:27:14Z</time>
      </trkpt>
      <trkpt lat="47.49593" lon="6.75731">
        <ele>332.03646335998</ele>
        <time>2014-12-07T08:27:15Z</time>
      </trkpt>
      <trkpt lat="47.49596" lon="6.75726">
        <ele>331.62784896001</ele>
        <time>2014-12-07T08:27:16Z</time>
      </trkpt>
      <trkpt lat="47.49599" lon="6.75719">
        <ele>330.68023679998</ele>
        <time>2014-12-07T08:27:17Z</time>
      </trkpt>
      <trkpt lat="47.49602" lon="6.75714">
        <ele>330.18057023998</ele>
        <time>2014-12-07T08:27:18Z</time>
      </trkpt>
      <trkpt lat="47.49604" lon="6.75707">
        <ele>329.26279679999</ele>
        <time>2014-12-07T08:27:19Z</time>
      </trkpt>
      <trkpt lat="47.49605" lon="6.757">
        <ele>328.23424896</ele>
        <time>2014-12-07T08:27:20Z</time>
      </trkpt>
      <trkpt lat="47.49599" lon="6.75694">
        <ele>326.53865279998</ele>
        <time>2014-12-07T08:27:21Z</time>
      </trkpt>
      <trkpt lat="47.49593" lon="6.75687">
        <ele>324.95780736</ele>
        <time>2014-12-07T08:27:22Z</time>
      </trkpt>
      <trkpt lat="47.49589" lon="6.75682">
        <ele>323.91427967999</ele>
        <time>2014-12-07T08:27:23Z</time>
      </trkpt>
      <trkpt lat="47.49586" lon="6.75677">
        <ele>322.89057024</ele>
        <time>2014-12-07T08:27:24Z</time>
      </trkpt>
      <trkpt lat="47.49583" lon="6.75674">
        <ele>322.065672</ele>
        <time>2014-12-07T08:27:25Z</time>
      </trkpt>
      <trkpt lat="47.49579" lon="6.75671">
        <ele>321.6658512</ele>
        <time>2014-12-07T08:27:26Z</time>
      </trkpt>
      <trkpt lat="47.49575" lon="6.75672">
        <ele>321.721176</ele>
        <time>2014-12-07T08:27:27Z</time>
      </trkpt>
      <trkpt lat="47.4957" lon="6.75674">
        <ele>321.98743679999</ele>
        <time>2014-12-07T08:27:28Z</time>
      </trkpt>
      <trkpt lat="47.49565" lon="6.75679">
        <ele>322.5907248</ele>
        <time>2014-12-07T08:27:29Z</time>
      </trkpt>
      <trkpt lat="47.49562" lon="6.75685">
        <ele>323.2821888</ele>
        <time>2014-12-07T08:27:30Z</time>
      </trkpt>
      <trkpt lat="47.49559" lon="6.7569">
        <ele>323.841672</ele>
        <time>2014-12-07T08:27:31Z</time>
      </trkpt>
      <trkpt lat="47.49554" lon="6.75696">
        <ele>324.3225984</ele>
        <time>2014-12-07T08:27:32Z</time>
      </trkpt>
      <trkpt lat="47.4955" lon="6.75701">
        <ele>324.6648</ele>
        <time>2014-12-07T08:27:33Z</time>
      </trkpt>
      <trkpt lat="47.49546" lon="6.75706">
        <ele>324.98150400002</ele>
        <time>2014-12-07T08:27:34Z</time>
      </trkpt>
      <trkpt lat="47.49542" lon="6.75709">
        <ele>325.09396800002</ele>
        <time>2014-12-07T08:27:35Z</time>
      </trkpt>
      <trkpt lat="47.49538" lon="6.75713">
        <ele>325.1856864</ele>
        <time>2014-12-07T08:27:36Z</time>
      </trkpt>
      <trkpt lat="47.49533" lon="6.75716">
        <ele>325.08480000001</ele>
        <time>2014-12-07T08:27:37Z</time>
      </trkpt>
      <trkpt lat="47.49528" lon="6.7572">
        <ele>325.09329600001</ele>
        <time>2014-12-07T08:27:38Z</time>
      </trkpt>
      <trkpt lat="47.49523" lon="6.75724">
        <ele>324.94468800001</ele>
        <time>2014-12-07T08:27:39Z</time>
      </trkpt>
      <trkpt lat="47.49519" lon="6.75726">
        <ele>324.73146239997</ele>
        <time>2014-12-07T08:27:40Z</time>
      </trkpt>
      <trkpt lat="47.49513" lon="6.75728">
        <ele>324.37932479998</ele>
        <time>2014-12-07T08:27:41Z</time>
      </trkpt>
      <trkpt lat="47.49508" lon="6.75731">
        <ele>324.07086719997</ele>
        <time>2014-12-07T08:27:42Z</time>
      </trkpt>
      <trkpt lat="47.49503" lon="6.75733">
        <ele>323.67146879998</ele>
        <time>2014-12-07T08:27:43Z</time>
      </trkpt>
      <trkpt lat="47.49497" lon="6.75735">
        <ele>323.34290687999</ele>
        <time>2014-12-07T08:27:44Z</time>
      </trkpt>
      <trkpt lat="47.49492" lon="6.75732">
        <ele>323.01436415999</ele>
        <time>2014-12-07T08:27:45Z</time>
      </trkpt>
      <trkpt lat="47.49488" lon="6.75728">
        <ele>322.69320192</ele>
        <time>2014-12-07T08:27:46Z</time>
      </trkpt>
      <trkpt lat="47.49485" lon="6.75721">
        <ele>322.35573215999</ele>
        <time>2014-12-07T08:27:47Z</time>
      </trkpt>
      <trkpt lat="47.49483" lon="6.75713">
        <ele>322.03999967999</ele>
        <time>2014-12-07T08:27:48Z</time>
      </trkpt>
      <trkpt lat="47.49481" lon="6.75706">
        <ele>321.7478208</ele>
        <time>2014-12-07T08:27:49Z</time>
      </trkpt>
      <trkpt lat="47.49478" lon="6.75699">
        <ele>321.43254912001</ele>
        <time>2014-12-07T08:27:50Z</time>
      </trkpt>
      <trkpt lat="47.49476" lon="6.75693">
        <ele>321.16286400001</ele>
        <time>2014-12-07T08:27:51Z</time>
      </trkpt>
      <trkpt lat="47.4947" lon="6.75691">
        <ele>320.94576</ele>
        <time>2014-12-07T08:27:52Z</time>
      </trkpt>
      <trkpt lat="47.49465" lon="6.75691">
        <ele>320.79901055999</ele>
        <time>2014-12-07T08:27:53Z</time>
      </trkpt>
      <trkpt lat="47.4946" lon="6.75692">
        <ele>320.665056</ele>
        <time>2014-12-07T08:27:54Z</time>
      </trkpt>
      <trkpt lat="47.49455" lon="6.75694">
        <ele>320.5625088</ele>
        <time>2014-12-07T08:27:55Z</time>
      </trkpt>
      <trkpt lat="47.49452" lon="6.75693">
        <ele>320.4275328</ele>
        <time>2014-12-07T08:27:56Z</time>
      </trkpt>
      <trkpt lat="47.4945" lon="6.75687">
        <ele>320.23753728</ele>
        <time>2014-12-07T08:27:57Z</time>
      </trkpt>
      <trkpt lat="47.49448" lon="6.75682">
        <ele>320.06522784</ele>
        <time>2014-12-07T08:27:58Z</time>
      </trkpt>
      <trkpt lat="47.49446" lon="6.75676">
        <ele>319.88932608</ele>
        <time>2014-12-07T08:27:59Z</time>
      </trkpt>
      <trkpt lat="47.49437" lon="6.75667">
        <ele>319.50297504001</ele>
        <time>2014-12-07T08:28:02Z</time>
      </trkpt>
      <trkpt lat="47.49434" lon="6.75667">
        <ele>319.42747776</ele>
        <time>2014-12-07T08:28:03Z</time>
      </trkpt>
      <trkpt lat="47.4943" lon="6.75671">
        <ele>319.39143648001</ele>
        <time>2014-12-07T08:28:04Z</time>
      </trkpt>
      <trkpt lat="47.49426" lon="6.75674">
        <ele>319.34659776</ele>
        <time>2014-12-07T08:28:05Z</time>
      </trkpt>
      <trkpt lat="47.49423" lon="6.75676">
        <ele>319.27439136001</ele>
        <time>2014-12-07T08:28:06Z</time>
      </trkpt>
      <trkpt lat="47.4942" lon="6.75678">
        <ele>319.21068479999</ele>
        <time>2014-12-07T08:28:07Z</time>
      </trkpt>
      <trkpt lat="47.49416" lon="6.7568">
        <ele>319.15128832</ele>
        <time>2014-12-07T08:28:08Z</time>
      </trkpt>
      <trkpt lat="47.49411" lon="6.75683">
        <ele>319.12234576</ele>
        <time>2014-12-07T08:28:09Z</time>
      </trkpt>
      <trkpt lat="47.49407" lon="6.75687">
        <ele>319.0975744</ele>
        <time>2014-12-07T08:28:10Z</time>
      </trkpt>
      <trkpt lat="47.49403" lon="6.7569">
        <ele>319.06293856</ele>
        <time>2014-12-07T08:28:11Z</time>
      </trkpt>
      <trkpt lat="47.49398" lon="6.75693">
        <ele>319.02372784</ele>
        <time>2014-12-07T08:28:12Z</time>
      </trkpt>
      <trkpt lat="47.49394" lon="6.75695">
        <ele>318.97330384</ele>
        <time>2014-12-07T08:28:13Z</time>
      </trkpt>
      <trkpt lat="47.4939" lon="6.75698">
        <ele>318.94225792</ele>
        <time>2014-12-07T08:28:14Z</time>
      </trkpt>
      <trkpt lat="47.49387" lon="6.75701">
        <ele>318.9144112</ele>
        <time>2014-12-07T08:28:15Z</time>
      </trkpt>
      <trkpt lat="47.49384" lon="6.75705">
        <ele>318.89016304001</ele>
        <time>2014-12-07T08:28:17Z</time>
      </trkpt>
      <trkpt lat="47.49383" lon="6.75707">
        <ele>318.8773408</ele>
        <time>2014-12-07T08:28:18Z</time>
      </trkpt>
      <trkpt lat="47.49381" lon="6.75708">
        <ele>318.85169055999</ele>
        <time>2014-12-07T08:28:21Z</time>
      </trkpt>
      <trkpt lat="47.49377" lon="6.75711">
        <ele>318.8046064</ele>
        <time>2014-12-07T08:28:22Z</time>
      </trkpt>
      <trkpt lat="47.49375" lon="6.75713">
        <ele>318.78233728</ele>
        <time>2014-12-07T08:28:23Z</time>
      </trkpt>
      <trkpt lat="47.49372" lon="6.75715">
        <ele>318.73278304</ele>
        <time>2014-12-07T08:28:24Z</time>
      </trkpt>
      <trkpt lat="47.49364" lon="6.75716">
        <ele>318.59337088</ele>
        <time>2014-12-07T08:28:25Z</time>
      </trkpt>
      <trkpt lat="47.4936" lon="6.75718">
        <ele>318.52254928</ele>
        <time>2014-12-07T08:28:26Z</time>
      </trkpt>
      <trkpt lat="47.49356" lon="6.75721">
        <ele>318.45760576</ele>
        <time>2014-12-07T08:28:27Z</time>
      </trkpt>
      <trkpt lat="47.49353" lon="6.75724">
        <ele>318.3943168</ele>
        <time>2014-12-07T08:28:28Z</time>
      </trkpt>
      <trkpt lat="47.49348" lon="6.75728">
        <ele>318.31135456</ele>
        <time>2014-12-07T08:28:29Z</time>
      </trkpt>
      <trkpt lat="47.49345" lon="6.75732">
        <ele>318.24711952</ele>
        <time>2014-12-07T08:28:30Z</time>
      </trkpt>
      <trkpt lat="47.49342" lon="6.75735">
        <ele>318.1787128</ele>
        <time>2014-12-07T08:28:31Z</time>
      </trkpt>
      <trkpt lat="47.49339" lon="6.7574">
        <ele>318.11656000001</ele>
        <time>2014-12-07T08:28:32Z</time>
      </trkpt>
      <trkpt lat="47.49334" lon="6.75744">
        <ele>318.01314304</ele>
        <time>2014-12-07T08:28:33Z</time>
      </trkpt>
      <trkpt lat="47.49329" lon="6.75749">
        <ele>318.0544576</ele>
        <time>2014-12-07T08:28:34Z</time>
      </trkpt>
      <trkpt lat="47.49327" lon="6.75755">
        <ele>318.2747536</ele>
        <time>2014-12-07T08:28:35Z</time>
      </trkpt>
      <trkpt lat="47.49324" lon="6.7576">
        <ele>318.4564</ele>
        <time>2014-12-07T08:28:36Z</time>
      </trkpt>
      <trkpt lat="47.4932" lon="6.75765">
        <ele>318.5919568</ele>
        <time>2014-12-07T08:28:37Z</time>
      </trkpt>
      <trkpt lat="47.49317" lon="6.75771">
        <ele>318.710464</ele>
        <time>2014-12-07T08:28:38Z</time>
      </trkpt>
      <trkpt lat="47.49314" lon="6.75777">
        <ele>318.770944</ele>
        <time>2014-12-07T08:28:39Z</time>
      </trkpt>
      <trkpt lat="47.49308" lon="6.75784">
        <ele>318.69053439999</ele>
        <time>2014-12-07T08:28:40Z</time>
      </trkpt>
      <trkpt lat="47.49304" lon="6.7579">
        <ele>318.57492159999</ele>
        <time>2014-12-07T08:28:41Z</time>
      </trkpt>
      <trkpt lat="47.493" lon="6.75797">
        <ele>318.40000000001</ele>
        <time>2014-12-07T08:28:42Z</time>
      </trkpt>
      <trkpt lat="47.49295" lon="6.75805">
        <ele>318.05654560002</ele>
        <time>2014-12-07T08:28:43Z</time>
      </trkpt>
      <trkpt lat="47.49291" lon="6.75814">
        <ele>317.6665024</ele>
        <time>2014-12-07T08:28:44Z</time>
      </trkpt>
      <trkpt lat="47.49287" lon="6.7582">
        <ele>317.25819520001</ele>
        <time>2014-12-07T08:28:45Z</time>
      </trkpt>
      <trkpt lat="47.49282" lon="6.75826">
        <ele>316.65324639999</ele>
        <time>2014-12-07T08:28:46Z</time>
      </trkpt>
      <trkpt lat="47.49279" lon="6.75832">
        <ele>316.14194559997</ele>
        <time>2014-12-07T08:28:47Z</time>
      </trkpt>
      <trkpt lat="47.49276" lon="6.75838">
        <ele>316.14328768001</ele>
        <time>2014-12-07T08:28:48Z</time>
      </trkpt>
      <trkpt lat="47.49274" lon="6.75845">
        <ele>316.21740160004</ele>
        <time>2014-12-07T08:28:49Z</time>
      </trkpt>
      <trkpt lat="47.4927" lon="6.75853">
        <ele>316.14725632003</ele>
        <time>2014-12-07T08:28:50Z</time>
      </trkpt>
      <trkpt lat="47.49266" lon="6.7586">
        <ele>315.98124159999</ele>
        <time>2014-12-07T08:28:51Z</time>
      </trkpt>
      <trkpt lat="47.49261" lon="6.75868">
        <ele>315.71051296</ele>
        <time>2014-12-07T08:28:52Z</time>
      </trkpt>
      <trkpt lat="47.49256" lon="6.75875">
        <ele>315.41134431996</ele>
        <time>2014-12-07T08:28:53Z</time>
      </trkpt>
      <trkpt lat="47.49253" lon="6.75882">
        <ele>315.15359871997</ele>
        <time>2014-12-07T08:28:54Z</time>
      </trkpt>
      <trkpt lat="47.49247" lon="6.7589">
        <ele>315.32505471998</ele>
        <time>2014-12-07T08:28:55Z</time>
      </trkpt>
      <trkpt lat="47.49245" lon="6.75896">
        <ele>315.74430496002</ele>
        <time>2014-12-07T08:28:56Z</time>
      </trkpt>
      <trkpt lat="47.49242" lon="6.75903">
        <ele>316.23398271998</ele>
        <time>2014-12-07T08:28:57Z</time>
      </trkpt>
      <trkpt lat="47.4924" lon="6.75909">
        <ele>316.61019903999</ele>
        <time>2014-12-07T08:28:58Z</time>
      </trkpt>
      <trkpt lat="47.4924" lon="6.75913">
        <ele>316.78864959998</ele>
        <time>2014-12-07T08:28:59Z</time>
      </trkpt>
      <trkpt lat="47.4922" lon="6.75955">
        <ele>319.90738160001</ele>
        <time>2014-12-07T08:29:07Z</time>
      </trkpt>
      <trkpt lat="47.49219" lon="6.75961">
        <ele>320.16019472</ele>
        <time>2014-12-07T08:29:08Z</time>
      </trkpt>
      <trkpt lat="47.49218" lon="6.7597">
        <ele>320.47114304</ele>
        <time>2014-12-07T08:29:09Z</time>
      </trkpt>
      <trkpt lat="47.49216" lon="6.75978">
        <ele>320.6894504</ele>
        <time>2014-12-07T08:29:10Z</time>
      </trkpt>
      <trkpt lat="47.49214" lon="6.75984">
        <ele>320.83275488</ele>
        <time>2014-12-07T08:29:11Z</time>
      </trkpt>
      <trkpt lat="47.49208" lon="6.75989">
        <ele>320.8009808</ele>
        <time>2014-12-07T08:29:12Z</time>
      </trkpt>
      <trkpt lat="47.49204" lon="6.75999">
        <ele>320.7661712</ele>
        <time>2014-12-07T08:29:13Z</time>
      </trkpt>
      <trkpt lat="47.49197" lon="6.76008">
        <ele>320.51386496001</ele>
        <time>2014-12-07T08:29:14Z</time>
      </trkpt>
      <trkpt lat="47.49193" lon="6.76015">
        <ele>320.28377600001</ele>
        <time>2014-12-07T08:29:15Z</time>
      </trkpt>
      <trkpt lat="47.49189" lon="6.76023">
        <ele>320.07947264002</ele>
        <time>2014-12-07T08:29:16Z</time>
      </trkpt>
      <trkpt lat="47.49186" lon="6.76029">
        <ele>319.92221696001</ele>
        <time>2014-12-07T08:29:17Z</time>
      </trkpt>
      <trkpt lat="47.49183" lon="6.76036">
        <ele>319.66951424</ele>
        <time>2014-12-07T08:29:18Z</time>
      </trkpt>
      <trkpt lat="47.49181" lon="6.76043">
        <ele>319.4918336</ele>
        <time>2014-12-07T08:29:19Z</time>
      </trkpt>
      <trkpt lat="47.49179" lon="6.76048">
        <ele>319.34794111998</ele>
        <time>2014-12-07T08:29:20Z</time>
      </trkpt>
      <trkpt lat="47.49177" lon="6.76055">
        <ele>319.14495872</ele>
        <time>2014-12-07T08:29:21Z</time>
      </trkpt>
      <trkpt lat="47.49172" lon="6.76063">
        <ele>318.68331008003</ele>
        <time>2014-12-07T08:29:22Z</time>
      </trkpt>
      <trkpt lat="47.4917" lon="6.76071">
        <ele>318.43340287997</ele>
        <time>2014-12-07T08:29:23Z</time>
      </trkpt>
      <trkpt lat="47.49167" lon="6.76079">
        <ele>318.06208255997</ele>
        <time>2014-12-07T08:29:24Z</time>
      </trkpt>
      <trkpt lat="47.49165" lon="6.76086">
        <ele>318.25028480003</ele>
        <time>2014-12-07T08:29:25Z</time>
      </trkpt>
      <trkpt lat="47.49163" lon="6.76096">
        <ele>318.58816639999</ele>
        <time>2014-12-07T08:29:26Z</time>
      </trkpt>
      <trkpt lat="47.4916" lon="6.76104">
        <ele>318.90675199998</ele>
        <time>2014-12-07T08:29:27Z</time>
      </trkpt>
      <trkpt lat="47.49158" lon="6.7611">
        <ele>319.2232856</ele>
        <time>2014-12-07T08:29:28Z</time>
      </trkpt>
      <trkpt lat="47.49158" lon="6.76115">
        <ele>319.20414079999</ele>
        <time>2014-12-07T08:29:29Z</time>
      </trkpt>
      <trkpt lat="47.49157" lon="6.76121">
        <ele>319.32250159998</ele>
        <time>2014-12-07T08:29:30Z</time>
      </trkpt>
      <trkpt lat="47.49156" lon="6.76128">
        <ele>319.46198000002</ele>
        <time>2014-12-07T08:29:31Z</time>
      </trkpt>
      <trkpt lat="47.49155" lon="6.76134">
        <ele>319.57514959999</ele>
        <time>2014-12-07T08:29:32Z</time>
      </trkpt>
      <trkpt lat="47.49154" lon="6.76141">
        <ele>319.70259680001</ele>
        <time>2014-12-07T08:29:33Z</time>
      </trkpt>
      <trkpt lat="47.49153" lon="6.76148">
        <ele>319.77903200002</ele>
        <time>2014-12-07T08:29:34Z</time>
      </trkpt>
      <trkpt lat="47.49153" lon="6.76154">
        <ele>319.81318160002</ele>
        <time>2014-12-07T08:29:35Z</time>
      </trkpt>
      <trkpt lat="47.49152" lon="6.76162">
        <ele>319.85427199999</ele>
        <time>2014-12-07T08:29:36Z</time>
      </trkpt>
      <trkpt lat="47.4915" lon="6.76169">
        <ele>319.93143424002</ele>
        <time>2014-12-07T08:29:37Z</time>
      </trkpt>
      <trkpt lat="47.49149" lon="6.76175">
        <ele>319.83962175999</ele>
        <time>2014-12-07T08:29:38Z</time>
      </trkpt>
      <trkpt lat="47.49148" lon="6.76182">
        <ele>319.7180704</ele>
        <time>2014-12-07T08:29:39Z</time>
      </trkpt>
      <trkpt lat="47.49148" lon="6.76188">
        <ele>319.60778944001</ele>
        <time>2014-12-07T08:29:40Z</time>
      </trkpt>
      <trkpt lat="47.49147" lon="6.76195">
        <ele>319.4784928</ele>
        <time>2014-12-07T08:29:41Z</time>
      </trkpt>
      <trkpt lat="47.49146" lon="6.76203">
        <ele>319.35074752001</ele>
        <time>2014-12-07T08:29:42Z</time>
      </trkpt>
      <trkpt lat="47.49146" lon="6.76211">
        <ele>319.2178912</ele>
        <time>2014-12-07T08:29:43Z</time>
      </trkpt>
      <trkpt lat="47.49145" lon="6.76218">
        <ele>319.10353216001</ele>
        <time>2014-12-07T08:29:44Z</time>
      </trkpt>
      <trkpt lat="47.49144" lon="6.76226">
        <ele>319.00073919998</ele>
        <time>2014-12-07T08:29:45Z</time>
      </trkpt>
      <trkpt lat="47.49143" lon="6.76233">
        <ele>318.90601216002</ele>
        <time>2014-12-07T08:29:46Z</time>
      </trkpt>
      <trkpt lat="47.49143" lon="6.76239">
        <ele>318.848464</ele>
        <time>2014-12-07T08:29:47Z</time>
      </trkpt>
      <trkpt lat="47.49141" lon="6.76245">
        <ele>318.85905856001</ele>
        <time>2014-12-07T08:29:48Z</time>
      </trkpt>
      <trkpt lat="47.4914" lon="6.76252">
        <ele>318.86320000004</ele>
        <time>2014-12-07T08:29:49Z</time>
      </trkpt>
      <trkpt lat="47.49138" lon="6.76258">
        <ele>318.87280000004</ele>
        <time>2014-12-07T08:29:50Z</time>
      </trkpt>
      <trkpt lat="47.49137" lon="6.76263">
        <ele>318.90399999998</ele>
        <time>2014-12-07T08:29:51Z</time>
      </trkpt>
      <trkpt lat="47.49135" lon="6.7627">
        <ele>318.91480000004</ele>
        <time>2014-12-07T08:29:52Z</time>
      </trkpt>
      <trkpt lat="47.49134" lon="6.76277">
        <ele>318.89199999999</ele>
        <time>2014-12-07T08:29:53Z</time>
      </trkpt>
      <trkpt lat="47.49133" lon="6.76284">
        <ele>318.81760000002</ele>
        <time>2014-12-07T08:29:54Z</time>
      </trkpt>
      <trkpt lat="47.49132" lon="6.76292">
        <ele>318.71680000004</ele>
        <time>2014-12-07T08:29:55Z</time>
      </trkpt>
      <trkpt lat="47.49132" lon="6.763">
        <ele>318.5704</ele>
        <time>2014-12-07T08:29:56Z</time>
      </trkpt>
      <trkpt lat="47.49131" lon="6.76308">
        <ele>318.43240000002</ele>
        <time>2014-12-07T08:29:57Z</time>
      </trkpt>
      <trkpt lat="47.49131" lon="6.76316">
        <ele>318.30040000001</ele>
        <time>2014-12-07T08:29:58Z</time>
      </trkpt>
      <trkpt lat="47.4913" lon="6.76325">
        <ele>318.14560000003</ele>
        <time>2014-12-07T08:29:59Z</time>
      </trkpt>
      <trkpt lat="47.49129" lon="6.76346">
        <ele>317.88627007998</ele>
        <time>2014-12-07T08:30:02Z</time>
      </trkpt>
      <trkpt lat="47.49128" lon="6.76354">
        <ele>317.77441087997</ele>
        <time>2014-12-07T08:30:03Z</time>
      </trkpt>
      <trkpt lat="47.4913" lon="6.76372">
        <ele>317.27307872003</ele>
        <time>2014-12-07T08:30:04Z</time>
      </trkpt>
      <trkpt lat="47.49127" lon="6.76384">
        <ele>317.34984128003</ele>
        <time>2014-12-07T08:30:05Z</time>
      </trkpt>
      <trkpt lat="47.49129" lon="6.76394">
        <ele>317.03952320003</ele>
        <time>2014-12-07T08:30:06Z</time>
      </trkpt>
      <trkpt lat="47.49129" lon="6.76404">
        <ele>316.80040448001</ele>
        <time>2014-12-07T08:30:07Z</time>
      </trkpt>
      <trkpt lat="47.49129" lon="6.76414">
        <ele>316.64223920001</ele>
        <time>2014-12-07T08:30:08Z</time>
      </trkpt>
      <trkpt lat="47.49129" lon="6.7642">
        <ele>316.57759999997</ele>
        <time>2014-12-07T08:30:09Z</time>
      </trkpt>
      <trkpt lat="47.49129" lon="6.76427">
        <ele>316.62559999998</ele>
        <time>2014-12-07T08:30:10Z</time>
      </trkpt>
      <trkpt lat="47.4913" lon="6.76432">
        <ele>316.54879999997</ele>
        <time>2014-12-07T08:30:11Z</time>
      </trkpt>
      <trkpt lat="47.49128" lon="6.7644">
        <ele>316.6736</ele>
        <time>2014-12-07T08:30:12Z</time>
      </trkpt>
      <trkpt lat="47.49128" lon="6.76448">
        <ele>316.72160000001</ele>
        <time>2014-12-07T08:30:13Z</time>
      </trkpt>
      <trkpt lat="47.49127" lon="6.76457">
        <ele>316.83679999999</ele>
        <time>2014-12-07T08:30:14Z</time>
      </trkpt>
      <trkpt lat="47.49126" lon="6.76469">
        <ele>316.93280000003</ele>
        <time>2014-12-07T08:30:15Z</time>
      </trkpt>
      <trkpt lat="47.49127" lon="6.76482">
        <ele>316.808</ele>
        <time>2014-12-07T08:30:16Z</time>
      </trkpt>
      <trkpt lat="47.49125" lon="6.76494">
        <ele>317.00959999997</ele>
        <time>2014-12-07T08:30:17Z</time>
      </trkpt>
      <trkpt lat="47.4913" lon="6.76498">
        <ele>316.56799999999</ele>
        <time>2014-12-07T08:30:18Z</time>
      </trkpt>
      <trkpt lat="47.49135" lon="6.76503">
        <ele>315.92507839999</ele>
        <time>2014-12-07T08:30:19Z</time>
      </trkpt>
      <trkpt lat="47.49141" lon="6.76505">
        <ele>315.36964544</ele>
        <time>2014-12-07T08:30:20Z</time>
      </trkpt>
      <trkpt lat="47.49147" lon="6.76506">
        <ele>314.81379920002</ele>
        <time>2014-12-07T08:30:21Z</time>
      </trkpt>
      <trkpt lat="47.49153" lon="6.76507">
        <ele>314.22928544</ele>
        <time>2014-12-07T08:30:22Z</time>
      </trkpt>
      <trkpt lat="47.49157" lon="6.76505">
        <ele>313.85938303999</ele>
        <time>2014-12-07T08:30:23Z</time>
      </trkpt>
      <trkpt lat="47.49161" lon="6.76505">
        <ele>313.49343488001</ele>
        <time>2014-12-07T08:30:24Z</time>
      </trkpt>
      <trkpt lat="47.49164" lon="6.76503">
        <ele>313.17347071999</ele>
        <time>2014-12-07T08:30:25Z</time>
      </trkpt>
      <trkpt lat="47.49167" lon="6.76502">
        <ele>313.02639999996</ele>
        <time>2014-12-07T08:30:26Z</time>
      </trkpt>
      <trkpt lat="47.49169" lon="6.76501">
        <ele>313.20040000002</ele>
        <time>2014-12-07T08:30:27Z</time>
      </trkpt>
      <trkpt lat="47.49172" lon="6.765">
        <ele>313.55513919999</ele>
        <time>2014-12-07T08:30:28Z</time>
      </trkpt>
      <trkpt lat="47.49175" lon="6.76497">
        <ele>313.85254240002</ele>
        <time>2014-12-07T08:30:30Z</time>
      </trkpt>
      <trkpt lat="47.49176" lon="6.76496">
        <ele>314.03021055996</ele>
        <time>2014-12-07T08:30:31Z</time>
      </trkpt>
      <trkpt lat="47.49176" lon="6.76492">
        <ele>313.99719328</ele>
        <time>2014-12-07T08:30:32Z</time>
      </trkpt>
      <trkpt lat="47.49174" lon="6.76489">
        <ele>313.84924192</ele>
        <time>2014-12-07T08:30:33Z</time>
      </trkpt>
      <trkpt lat="47.49172" lon="6.76484">
        <ele>313.64495871998</ele>
        <time>2014-12-07T08:30:35Z</time>
      </trkpt>
      <trkpt lat="47.49171" lon="6.76483">
        <ele>313.52335167997</ele>
        <time>2014-12-07T08:30:36Z</time>
      </trkpt>
      <trkpt lat="47.49174" lon="6.76483">
        <ele>313.84961536002</ele>
        <time>2014-12-07T08:34:59Z</time>
      </trkpt>
      <trkpt lat="47.49168" lon="6.76493">
        <ele>313.16882367997</ele>
        <time>2014-12-07T08:35:07Z</time>
      </trkpt>
      <trkpt lat="47.49166" lon="6.76495">
        <ele>313.03519999997</ele>
        <time>2014-12-07T08:35:08Z</time>
      </trkpt>
      <trkpt lat="47.49163" lon="6.76497">
        <ele>313.31360000002</ele>
        <time>2014-12-07T08:35:09Z</time>
      </trkpt>
      <trkpt lat="47.4916" lon="6.765">
        <ele>313.63702400002</ele>
        <time>2014-12-07T08:35:10Z</time>
      </trkpt>
      <trkpt lat="47.49153" lon="6.76507">
        <ele>314.15522432003</ele>
        <time>2014-12-07T08:35:11Z</time>
      </trkpt>
      <trkpt lat="47.49148" lon="6.7651">
        <ele>314.57701952002</ele>
        <time>2014-12-07T08:35:12Z</time>
      </trkpt>
      <trkpt lat="47.49143" lon="6.76512">
        <ele>315.04611776003</ele>
        <time>2014-12-07T08:35:13Z</time>
      </trkpt>
      <trkpt lat="47.49136" lon="6.76514">
        <ele>315.56708480002</ele>
        <time>2014-12-07T08:35:14Z</time>
      </trkpt>
      <trkpt lat="47.49131" lon="6.76514">
        <ele>316.06026367999</ele>
        <time>2014-12-07T08:35:15Z</time>
      </trkpt>
      <trkpt lat="47.49127" lon="6.76508">
        <ele>316.5690848</ele>
        <time>2014-12-07T08:35:16Z</time>
      </trkpt>
      <trkpt lat="47.49125" lon="6.76503">
        <ele>316.95433040001</ele>
        <time>2014-12-07T08:35:17Z</time>
      </trkpt>
      <trkpt lat="47.49123" lon="6.76496">
        <ele>317.18240000001</ele>
        <time>2014-12-07T08:35:18Z</time>
      </trkpt>
      <trkpt lat="47.49124" lon="6.76492">
        <ele>317.13439999999</ele>
        <time>2014-12-07T08:35:19Z</time>
      </trkpt>
      <trkpt lat="47.49123" lon="6.76485">
        <ele>317.15360000001</ele>
        <time>2014-12-07T08:35:20Z</time>
      </trkpt>
      <trkpt lat="47.49123" lon="6.76479">
        <ele>317.19199999998</ele>
        <time>2014-12-07T08:35:21Z</time>
      </trkpt>
      <trkpt lat="47.49123" lon="6.76473">
        <ele>317.15360000001</ele>
        <time>2014-12-07T08:35:22Z</time>
      </trkpt>
      <trkpt lat="47.49124" lon="6.76468">
        <ele>317.14399999997</ele>
        <time>2014-12-07T08:35:23Z</time>
      </trkpt>
      <trkpt lat="47.49123" lon="6.76462">
        <ele>317.20160000003</ele>
        <time>2014-12-07T08:35:24Z</time>
      </trkpt>
      <trkpt lat="47.49122" lon="6.76455">
        <ele>317.28800000002</ele>
        <time>2014-12-07T08:35:25Z</time>
      </trkpt>
      <trkpt lat="47.49123" lon="6.76449">
        <ele>317.23040000002</ele>
        <time>2014-12-07T08:35:26Z</time>
      </trkpt>
      <trkpt lat="47.49123" lon="6.76443">
        <ele>317.20160000003</ele>
        <time>2014-12-07T08:35:27Z</time>
      </trkpt>
      <trkpt lat="47.49123" lon="6.76438">
        <ele>317.23040000002</ele>
        <time>2014-12-07T08:35:28Z</time>
      </trkpt>
      <trkpt lat="47.49123" lon="6.76437">
        <ele>317.24</ele>
        <time>2014-12-07T08:35:29Z</time>
      </trkpt>
      <trkpt lat="47.4912" lon="6.76431">
        <ele>317.46079999999</ele>
        <time>2014-12-07T08:35:31Z</time>
      </trkpt>
      <trkpt lat="47.49118" lon="6.7643">
        <ele>317.66240000002</ele>
        <time>2014-12-07T08:35:32Z</time>
      </trkpt>
      <trkpt lat="47.49114" lon="6.7643">
        <ele>318.01760000001</ele>
        <time>2014-12-07T08:35:34Z</time>
      </trkpt>
      <trkpt lat="47.49112" lon="6.7643">
        <ele>318.25760000002</ele>
        <time>2014-12-07T08:35:35Z</time>
      </trkpt>
      <trkpt lat="47.4911" lon="6.7643">
        <ele>318.46879999997</ele>
        <time>2014-12-07T08:35:36Z</time>
      </trkpt>
      <trkpt lat="47.49107" lon="6.76429">
        <ele>318.72799999999</ele>
        <time>2014-12-07T08:35:37Z</time>
      </trkpt>
      <trkpt lat="47.49104" lon="6.76428">
        <ele>318.97759999998</ele>
        <time>2014-12-07T08:35:38Z</time>
      </trkpt>
      <trkpt lat="47.49102" lon="6.76426">
        <ele>319.19839999997</ele>
        <time>2014-12-07T08:35:39Z</time>
      </trkpt>
      <trkpt lat="47.491" lon="6.76423">
        <ele>319.38079999998</ele>
        <time>2014-12-07T08:35:40Z</time>
      </trkpt>
      <trkpt lat="47.49099" lon="6.76419">
        <ele>319.52480000003</ele>
        <time>2014-12-07T08:35:41Z</time>
      </trkpt>
      <trkpt lat="47.49098" lon="6.76414">
        <ele>319.66306976002</ele>
        <time>2014-12-07T08:35:42Z</time>
      </trkpt>
      <trkpt lat="47.49097" lon="6.7641">
        <ele>319.79609599999</ele>
        <time>2014-12-07T08:35:43Z</time>
      </trkpt>
      <trkpt lat="47.49097" lon="6.76406">
        <ele>319.90570112001</ele>
        <time>2014-12-07T08:35:44Z</time>
      </trkpt>
      <trkpt lat="47.49097" lon="6.76402">
        <ele>319.97950352003</ele>
        <time>2014-12-07T08:35:45Z</time>
      </trkpt>
      <trkpt lat="47.49097" lon="6.76396">
        <ele>320.13453440001</ele>
        <time>2014-12-07T08:35:47Z</time>
      </trkpt>
      <trkpt lat="47.49097" lon="6.76393">
        <ele>320.23592383998</ele>
        <time>2014-12-07T08:35:48Z</time>
      </trkpt>
      <trkpt lat="47.49096" lon="6.76387">
        <ele>320.41844623999</ele>
        <time>2014-12-07T08:35:50Z</time>
      </trkpt>
      <trkpt lat="47.49096" lon="6.76383">
        <ele>320.53845776003</ele>
        <time>2014-12-07T08:35:51Z</time>
      </trkpt>
      <trkpt lat="47.49096" lon="6.76379">
        <ele>320.6633336</ele>
        <time>2014-12-07T08:35:52Z</time>
      </trkpt>
      <trkpt lat="47.49095" lon="6.76376">
        <ele>320.78864719997</ele>
        <time>2014-12-07T08:35:53Z</time>
      </trkpt>
      <trkpt lat="47.49095" lon="6.76372">
        <ele>320.90768960002</ele>
        <time>2014-12-07T08:35:54Z</time>
      </trkpt>
      <trkpt lat="47.49094" lon="6.76369">
        <ele>321.01816687998</ele>
        <time>2014-12-07T08:35:55Z</time>
      </trkpt>
      <trkpt lat="47.49093" lon="6.76363">
        <ele>321.31056896003</ele>
        <time>2014-12-07T08:35:57Z</time>
      </trkpt>
      <trkpt lat="47.49092" lon="6.7636">
        <ele>321.46638079997</ele>
        <time>2014-12-07T08:35:58Z</time>
      </trkpt>
      <trkpt lat="47.49091" lon="6.76357">
        <ele>321.61835647998</ele>
        <time>2014-12-07T08:35:59Z</time>
      </trkpt>
      <trkpt lat="47.49087" lon="6.76336">
        <ele>322.50209455999</ele>
        <time>2014-12-07T08:36:07Z</time>
      </trkpt>
      <trkpt lat="47.49086" lon="6.76331">
        <ele>322.76679999997</ele>
        <time>2014-12-07T08:36:10Z</time>
      </trkpt>
      <trkpt lat="47.49086" lon="6.76328">
        <ele>322.88799999999</ele>
        <time>2014-12-07T08:36:11Z</time>
      </trkpt>
      <trkpt lat="47.49085" lon="6.76321">
        <ele>323.09560000001</ele>
        <time>2014-12-07T08:36:13Z</time>
      </trkpt>
      <trkpt lat="47.49085" lon="6.76317">
        <ele>323.20479999998</ele>
        <time>2014-12-07T08:36:14Z</time>
      </trkpt>
      <trkpt lat="47.49085" lon="6.76313">
        <ele>323.3344</ele>
        <time>2014-12-07T08:36:15Z</time>
      </trkpt>
      <trkpt lat="47.49085" lon="6.76308">
        <ele>323.4724</ele>
        <time>2014-12-07T08:36:16Z</time>
      </trkpt>
      <trkpt lat="47.49084" lon="6.76304">
        <ele>323.63440000002</ele>
        <time>2014-12-07T08:36:17Z</time>
      </trkpt>
      <trkpt lat="47.49084" lon="6.76299">
        <ele>323.79640000003</ele>
        <time>2014-12-07T08:36:18Z</time>
      </trkpt>
      <trkpt lat="47.49083" lon="6.76295">
        <ele>324.16910511988</ele>
        <time>2014-12-07T08:36:19Z</time>
      </trkpt>
      <trkpt lat="47.49082" lon="6.7629">
        <ele>324.44083312004</ele>
        <time>2014-12-07T08:36:20Z</time>
      </trkpt>
      <trkpt lat="47.49082" lon="6.76285">
        <ele>324.68128000002</ele>
        <time>2014-12-07T08:36:21Z</time>
      </trkpt>
      <trkpt lat="47.49082" lon="6.7628">
        <ele>324.85109055993</ele>
        <time>2014-12-07T08:36:22Z</time>
      </trkpt>
      <trkpt lat="47.49082" lon="6.76274">
        <ele>324.86405055994</ele>
        <time>2014-12-07T08:36:23Z</time>
      </trkpt>
      <trkpt lat="47.49083" lon="6.76269">
        <ele>324.83480416006</ele>
        <time>2014-12-07T08:36:24Z</time>
      </trkpt>
      <trkpt lat="47.49083" lon="6.76264">
        <ele>324.7237369601</ele>
        <time>2014-12-07T08:36:25Z</time>
      </trkpt>
      <trkpt lat="47.49084" lon="6.76258">
        <ele>324.79960000003</ele>
        <time>2014-12-07T08:36:26Z</time>
      </trkpt>
      <trkpt lat="47.49084" lon="6.76251">
        <ele>324.93759999998</ele>
        <time>2014-12-07T08:36:27Z</time>
      </trkpt>
      <trkpt lat="47.49084" lon="6.76245">
        <ele>324.90499264001</ele>
        <time>2014-12-07T08:36:28Z</time>
      </trkpt>
      <trkpt lat="47.49084" lon="6.76239">
        <ele>324.81039039999</ele>
        <time>2014-12-07T08:36:29Z</time>
      </trkpt>
      <trkpt lat="47.49084" lon="6.76233">
        <ele>324.71433663999</ele>
        <time>2014-12-07T08:36:30Z</time>
      </trkpt>
      <trkpt lat="47.49085" lon="6.76228">
        <ele>324.624784</ele>
        <time>2014-12-07T08:36:31Z</time>
      </trkpt>
      <trkpt lat="47.49085" lon="6.76223">
        <ele>324.51267520001</ele>
        <time>2014-12-07T08:36:32Z</time>
      </trkpt>
      <trkpt lat="47.49086" lon="6.76217">
        <ele>324.40121535999</ele>
        <time>2014-12-07T08:36:33Z</time>
      </trkpt>
      <trkpt lat="47.49086" lon="6.7621">
        <ele>324.28806591998</ele>
        <time>2014-12-07T08:36:34Z</time>
      </trkpt>
      <trkpt lat="47.49087" lon="6.76204">
        <ele>324.1868512</ele>
        <time>2014-12-07T08:36:35Z</time>
      </trkpt>
      <trkpt lat="47.49087" lon="6.76197">
        <ele>324.09543040001</ele>
        <time>2014-12-07T08:36:36Z</time>
      </trkpt>
      <trkpt lat="47.49087" lon="6.76191">
        <ele>324.00678207998</ele>
        <time>2014-12-07T08:36:37Z</time>
      </trkpt>
      <trkpt lat="47.49087" lon="6.76186">
        <ele>323.94271360001</ele>
        <time>2014-12-07T08:36:38Z</time>
      </trkpt>
      <trkpt lat="47.49087" lon="6.76181">
        <ele>323.90416576</ele>
        <time>2014-12-07T08:36:39Z</time>
      </trkpt>
      <trkpt lat="47.49087" lon="6.76177">
        <ele>323.87459776001</ele>
        <time>2014-12-07T08:36:40Z</time>
      </trkpt>
      <trkpt lat="47.49087" lon="6.76173">
        <ele>323.84600511998</ele>
        <time>2014-12-07T08:36:41Z</time>
      </trkpt>
      <trkpt lat="47.49087" lon="6.76168">
        <ele>323.80533760001</ele>
        <time>2014-12-07T08:36:42Z</time>
      </trkpt>
      <trkpt lat="47.49087" lon="6.76164">
        <ele>323.91910399999</ele>
        <time>2014-12-07T08:36:43Z</time>
      </trkpt>
      <trkpt lat="47.49088" lon="6.76159">
        <ele>324.09049999998</ele>
        <time>2014-12-07T08:36:44Z</time>
      </trkpt>
      <trkpt lat="47.49088" lon="6.76155">
        <ele>324.22950319999</ele>
        <time>2014-12-07T08:36:45Z</time>
      </trkpt>
      <trkpt lat="47.49088" lon="6.76152">
        <ele>324.36867199999</ele>
        <time>2014-12-07T08:36:46Z</time>
      </trkpt>
      <trkpt lat="47.49089" lon="6.76148">
        <ele>324.52098800001</ele>
        <time>2014-12-07T08:36:47Z</time>
      </trkpt>
      <trkpt lat="47.49089" lon="6.76144">
        <ele>324.67720639998</ele>
        <time>2014-12-07T08:36:48Z</time>
      </trkpt>
      <trkpt lat="47.49089" lon="6.7614">
        <ele>324.83382080002</ele>
        <time>2014-12-07T08:36:49Z</time>
      </trkpt>
      <trkpt lat="47.49089" lon="6.76136">
        <ele>324.998096</ele>
        <time>2014-12-07T08:36:50Z</time>
      </trkpt>
      <trkpt lat="47.4909" lon="6.76131">
        <ele>325.1663744</ele>
        <time>2014-12-07T08:36:51Z</time>
      </trkpt>
      <trkpt lat="47.4909" lon="6.76126">
        <ele>325.3296704</ele>
        <time>2014-12-07T08:36:52Z</time>
      </trkpt>
      <trkpt lat="47.49091" lon="6.7612">
        <ele>325.49009360001</ele>
        <time>2014-12-07T08:36:53Z</time>
      </trkpt>
      <trkpt lat="47.49092" lon="6.76115">
        <ele>325.62921199998</ele>
        <time>2014-12-07T08:36:54Z</time>
      </trkpt>
      <trkpt lat="47.49093" lon="6.7611">
        <ele>325.75600399997</ele>
        <time>2014-12-07T08:36:55Z</time>
      </trkpt>
      <trkpt lat="47.49094" lon="6.76105">
        <ele>325.84876160003</ele>
        <time>2014-12-07T08:36:56Z</time>
      </trkpt>
      <trkpt lat="47.49095" lon="6.76101">
        <ele>325.90993279997</ele>
        <time>2014-12-07T08:36:57Z</time>
      </trkpt>
      <trkpt lat="47.49096" lon="6.76098">
        <ele>325.97312000003</ele>
        <time>2014-12-07T08:36:58Z</time>
      </trkpt>
      <trkpt lat="47.49097" lon="6.76094">
        <ele>326.00200640003</ele>
        <time>2014-12-07T08:36:59Z</time>
      </trkpt>
      <trkpt lat="47.49104" lon="6.76071">
        <ele>326.04319615997</ele>
        <time>2014-12-07T08:37:07Z</time>
      </trkpt>
      <trkpt lat="47.49106" lon="6.76067">
        <ele>326.09728639996</ele>
        <time>2014-12-07T08:37:11Z</time>
      </trkpt>
      <trkpt lat="47.49106" lon="6.76065">
        <ele>326.10614912004</ele>
        <time>2014-12-07T08:37:12Z</time>
      </trkpt>
      <trkpt lat="47.49107" lon="6.76062">
        <ele>326.11411712</ele>
        <time>2014-12-07T08:37:13Z</time>
      </trkpt>
      <trkpt lat="47.49109" lon="6.76058">
        <ele>326.11911680002</ele>
        <time>2014-12-07T08:37:14Z</time>
      </trkpt>
      <trkpt lat="47.4911" lon="6.76054">
        <ele>326.15073728001</ele>
        <time>2014-12-07T08:37:15Z</time>
      </trkpt>
      <trkpt lat="47.49111" lon="6.7605">
        <ele>326.20890943997</ele>
        <time>2014-12-07T08:37:16Z</time>
      </trkpt>
      <trkpt lat="47.49112" lon="6.76045">
        <ele>326.24237504</ele>
        <time>2014-12-07T08:37:17Z</time>
      </trkpt>
      <trkpt lat="47.49113" lon="6.7604">
        <ele>326.30971903999</ele>
        <time>2014-12-07T08:37:18Z</time>
      </trkpt>
      <trkpt lat="47.49114" lon="6.76035">
        <ele>326.38950272004</ele>
        <time>2014-12-07T08:37:19Z</time>
      </trkpt>
      <trkpt lat="47.49115" lon="6.7603">
        <ele>326.44390400004</ele>
        <time>2014-12-07T08:37:20Z</time>
      </trkpt>
      <trkpt lat="47.49116" lon="6.76025">
        <ele>326.46810751996</ele>
        <time>2014-12-07T08:37:21Z</time>
      </trkpt>
      <trkpt lat="47.49118" lon="6.76019">
        <ele>326.47779200002</ele>
        <time>2014-12-07T08:37:22Z</time>
      </trkpt>
      <trkpt lat="47.49119" lon="6.76014">
        <ele>326.49567104006</ele>
        <time>2014-12-07T08:37:23Z</time>
      </trkpt>
      <trkpt lat="47.4912" lon="6.76009">
        <ele>326.52264320005</ele>
        <time>2014-12-07T08:37:24Z</time>
      </trkpt>
      <trkpt lat="47.49121" lon="6.76004">
        <ele>326.5022144</ele>
        <time>2014-12-07T08:37:25Z</time>
      </trkpt>
      <trkpt lat="47.49122" lon="6.75999">
        <ele>326.50304191999</ele>
        <time>2014-12-07T08:37:26Z</time>
      </trkpt>
      <trkpt lat="47.49124" lon="6.75995">
        <ele>326.52307999995</ele>
        <time>2014-12-07T08:37:27Z</time>
      </trkpt>
      <trkpt lat="47.49125" lon="6.75992">
        <ele>326.42515519995</ele>
        <time>2014-12-07T08:37:28Z</time>
      </trkpt>
      <trkpt lat="47.49127" lon="6.75988">
        <ele>326.33174144003</ele>
        <time>2014-12-07T08:37:29Z</time>
      </trkpt>
      <trkpt lat="47.49128" lon="6.75985">
        <ele>326.26452943995</ele>
        <time>2014-12-07T08:37:30Z</time>
      </trkpt>
      <trkpt lat="47.4913" lon="6.75981">
        <ele>326.21927936002</ele>
        <time>2014-12-07T08:37:31Z</time>
      </trkpt>
      <trkpt lat="47.49131" lon="6.75978">
        <ele>326.19405391998</ele>
        <time>2014-12-07T08:37:32Z</time>
      </trkpt>
      <trkpt lat="47.49132" lon="6.75974">
        <ele>326.24546960005</ele>
        <time>2014-12-07T08:37:33Z</time>
      </trkpt>
      <trkpt lat="47.49133" lon="6.75969">
        <ele>326.33935615995</ele>
        <time>2014-12-07T08:37:34Z</time>
      </trkpt>
      <trkpt lat="47.49134" lon="6.75964">
        <ele>326.39888768002</ele>
        <time>2014-12-07T08:37:35Z</time>
      </trkpt>
      <trkpt lat="47.49134" lon="6.75958">
        <ele>326.69470112003</ele>
        <time>2014-12-07T08:37:36Z</time>
      </trkpt>
      <trkpt lat="47.49134" lon="6.75951">
        <ele>327.03904351999</ele>
        <time>2014-12-07T08:37:37Z</time>
      </trkpt>
      <trkpt lat="47.49135" lon="6.75943">
        <ele>327.38114144</ele>
        <time>2014-12-07T08:37:38Z</time>
      </trkpt>
      <trkpt lat="47.49135" lon="6.75936">
        <ele>327.72259136001</ele>
        <time>2014-12-07T08:37:39Z</time>
      </trkpt>
      <trkpt lat="47.49135" lon="6.75929">
        <ele>327.98572063998</ele>
        <time>2014-12-07T08:37:40Z</time>
      </trkpt>
      <trkpt lat="47.49136" lon="6.75922">
        <ele>328.18364671996</ele>
        <time>2014-12-07T08:37:41Z</time>
      </trkpt>
      <trkpt lat="47.49137" lon="6.75916">
        <ele>328.35415679994</ele>
        <time>2014-12-07T08:37:42Z</time>
      </trkpt>
      <trkpt lat="47.49138" lon="6.75911">
        <ele>328.46281920001</ele>
        <time>2014-12-07T08:37:43Z</time>
      </trkpt>
      <trkpt lat="47.49139" lon="6.75906">
        <ele>328.55995199995</ele>
        <time>2014-12-07T08:37:44Z</time>
      </trkpt>
      <trkpt lat="47.49141" lon="6.759">
        <ele>328.5560928</ele>
        <time>2014-12-07T08:37:45Z</time>
      </trkpt>
      <trkpt lat="47.49142" lon="6.75895">
        <ele>328.51360703995</ele>
        <time>2014-12-07T08:37:46Z</time>
      </trkpt>
      <trkpt lat="47.49144" lon="6.7589">
        <ele>328.46645952005</ele>
        <time>2014-12-07T08:37:47Z</time>
      </trkpt>
      <trkpt lat="47.49145" lon="6.75884">
        <ele>328.48852799999</ele>
        <time>2014-12-07T08:37:48Z</time>
      </trkpt>
      <trkpt lat="47.49147" lon="6.75878">
        <ele>328.42119744</ele>
        <time>2014-12-07T08:37:49Z</time>
      </trkpt>
      <trkpt lat="47.49148" lon="6.75873">
        <ele>328.35859007995</ele>
        <time>2014-12-07T08:37:50Z</time>
      </trkpt>
      <trkpt lat="47.4915" lon="6.75867">
        <ele>328.25567999996</ele>
        <time>2014-12-07T08:37:51Z</time>
      </trkpt>
      <trkpt lat="47.49152" lon="6.75862">
        <ele>328.11322560007</ele>
        <time>2014-12-07T08:37:52Z</time>
      </trkpt>
      <trkpt lat="47.49154" lon="6.75856">
        <ele>327.94545983993</ele>
        <time>2014-12-07T08:37:53Z</time>
      </trkpt>
      <trkpt lat="47.49156" lon="6.7585">
        <ele>327.80358335999</ele>
        <time>2014-12-07T08:37:54Z</time>
      </trkpt>
      <trkpt lat="47.49158" lon="6.75844">
        <ele>327.65793600006</ele>
        <time>2014-12-07T08:37:55Z</time>
      </trkpt>
      <trkpt lat="47.49159" lon="6.75838">
        <ele>327.49582271996</ele>
        <time>2014-12-07T08:37:56Z</time>
      </trkpt>
      <trkpt lat="47.49161" lon="6.75832">
        <ele>327.40191359997</ele>
        <time>2014-12-07T08:37:57Z</time>
      </trkpt>
      <trkpt lat="47.49163" lon="6.75827">
        <ele>327.59061312003</ele>
        <time>2014-12-07T08:37:58Z</time>
      </trkpt>
      <trkpt lat="47.49165" lon="6.75821">
        <ele>327.70422143995</ele>
        <time>2014-12-07T08:37:59Z</time>
      </trkpt>
      <trkpt lat="47.49172" lon="6.75804">
        <ele>328.36134783998</ele>
        <time>2014-12-07T08:38:03Z</time>
      </trkpt>
      <trkpt lat="47.49174" lon="6.75799">
        <ele>328.40671216004</ele>
        <time>2014-12-07T08:38:04Z</time>
      </trkpt>
      <trkpt lat="47.49176" lon="6.75795">
        <ele>328.46041599994</ele>
        <time>2014-12-07T08:38:05Z</time>
      </trkpt>
      <trkpt lat="47.49179" lon="6.75791">
        <ele>328.54045839999</ele>
        <time>2014-12-07T08:38:06Z</time>
      </trkpt>
      <trkpt lat="47.4918" lon="6.75786">
        <ele>328.67857407996</ele>
        <time>2014-12-07T08:38:07Z</time>
      </trkpt>
      <trkpt lat="47.49182" lon="6.75781">
        <ele>328.85736448001</ele>
        <time>2014-12-07T08:38:08Z</time>
      </trkpt>
      <trkpt lat="47.49184" lon="6.75776">
        <ele>329.06070495999</ele>
        <time>2014-12-07T08:38:09Z</time>
      </trkpt>
      <trkpt lat="47.49186" lon="6.7577">
        <ele>329.35676079998</ele>
        <time>2014-12-07T08:38:10Z</time>
      </trkpt>
      <trkpt lat="47.49187" lon="6.75765">
        <ele>329.59912527994</ele>
        <time>2014-12-07T08:38:11Z</time>
      </trkpt>
      <trkpt lat="47.49189" lon="6.75759">
        <ele>329.82507903994</ele>
        <time>2014-12-07T08:38:12Z</time>
      </trkpt>
      <trkpt lat="47.49191" lon="6.75754">
        <ele>329.99512960005</ele>
        <time>2014-12-07T08:38:13Z</time>
      </trkpt>
      <trkpt lat="47.49193" lon="6.75749">
        <ele>330.17276512006</ele>
        <time>2014-12-07T08:38:14Z</time>
      </trkpt>
      <trkpt lat="47.49195" lon="6.75744">
        <ele>330.28371664004</ele>
        <time>2014-12-07T08:38:15Z</time>
      </trkpt>
      <trkpt lat="47.49197" lon="6.7574">
        <ele>330.40726144</ele>
        <time>2014-12-07T08:38:16Z</time>
      </trkpt>
      <trkpt lat="47.49199" lon="6.75736">
        <ele>330.48855040001</ele>
        <time>2014-12-07T08:38:17Z</time>
      </trkpt>
      <trkpt lat="47.492" lon="6.75731">
        <ele>330.61163775997</ele>
        <time>2014-12-07T08:38:18Z</time>
      </trkpt>
      <trkpt lat="47.49201" lon="6.75727">
        <ele>330.85057312006</ele>
        <time>2014-12-07T08:38:19Z</time>
      </trkpt>
      <trkpt lat="47.49202" lon="6.75722">
        <ele>331.18940991993</ele>
        <time>2014-12-07T08:38:20Z</time>
      </trkpt>
      <trkpt lat="47.49203" lon="6.75717">
        <ele>331.618096</ele>
        <time>2014-12-07T08:38:21Z</time>
      </trkpt>
      <trkpt lat="47.49204" lon="6.75712">
        <ele>331.98863104004</ele>
        <time>2014-12-07T08:38:22Z</time>
      </trkpt>
      <trkpt lat="47.49205" lon="6.75707">
        <ele>332.27911263996</ele>
        <time>2014-12-07T08:38:23Z</time>
      </trkpt>
      <trkpt lat="47.49206" lon="6.75702">
        <ele>332.50405744006</ele>
        <time>2014-12-07T08:38:24Z</time>
      </trkpt>
      <trkpt lat="47.49207" lon="6.75697">
        <ele>332.70144639999</ele>
        <time>2014-12-07T08:38:25Z</time>
      </trkpt>
      <trkpt lat="47.49209" lon="6.75691">
        <ele>332.87243775993</ele>
        <time>2014-12-07T08:38:26Z</time>
      </trkpt>
      <trkpt lat="47.4921" lon="6.75686">
        <ele>332.97964672006</ele>
        <time>2014-12-07T08:38:27Z</time>
      </trkpt>
      <trkpt lat="47.49212" lon="6.7568">
        <ele>333.0936352</ele>
        <time>2014-12-07T08:38:28Z</time>
      </trkpt>
      <trkpt lat="47.49214" lon="6.75674">
        <ele>333.22205439994</ele>
        <time>2014-12-07T08:38:29Z</time>
      </trkpt>
      <trkpt lat="47.49216" lon="6.75668">
        <ele>333.16878207996</ele>
        <time>2014-12-07T08:38:30Z</time>
      </trkpt>
      <trkpt lat="47.49217" lon="6.75663">
        <ele>333.20013664004</ele>
        <time>2014-12-07T08:38:31Z</time>
      </trkpt>
      <trkpt lat="47.49219" lon="6.75658">
        <ele>333.3956560001</ele>
        <time>2014-12-07T08:38:32Z</time>
      </trkpt>
      <trkpt lat="47.4922" lon="6.75652">
        <ele>333.61795743994</ele>
        <time>2014-12-07T08:38:33Z</time>
      </trkpt>
      <trkpt lat="47.49221" lon="6.75646">
        <ele>333.85972624007</ele>
        <time>2014-12-07T08:38:34Z</time>
      </trkpt>
      <trkpt lat="47.49223" lon="6.75641">
        <ele>334.06832800006</ele>
        <time>2014-12-07T08:38:35Z</time>
      </trkpt>
      <trkpt lat="47.49224" lon="6.75635">
        <ele>334.31935215991</ele>
        <time>2014-12-07T08:38:36Z</time>
      </trkpt>
      <trkpt lat="47.49225" lon="6.7563">
        <ele>334.50835695991</ele>
        <time>2014-12-07T08:38:37Z</time>
      </trkpt>
      <trkpt lat="47.49226" lon="6.75625">
        <ele>334.68814144004</ele>
        <time>2014-12-07T08:38:38Z</time>
      </trkpt>
      <trkpt lat="47.49228" lon="6.7562">
        <ele>334.82939535996</ele>
        <time>2014-12-07T08:38:39Z</time>
      </trkpt>
      <trkpt lat="47.49229" lon="6.75615">
        <ele>335.01469408001</ele>
        <time>2014-12-07T08:38:40Z</time>
      </trkpt>
      <trkpt lat="47.4923" lon="6.75611">
        <ele>335.19372544006</ele>
        <time>2014-12-07T08:38:41Z</time>
      </trkpt>
      <trkpt lat="47.49231" lon="6.75606">
        <ele>335.37752607992</ele>
        <time>2014-12-07T08:38:42Z</time>
      </trkpt>
      <trkpt lat="47.49232" lon="6.75602">
        <ele>335.59800352003</ele>
        <time>2014-12-07T08:38:43Z</time>
      </trkpt>
      <trkpt lat="47.49233" lon="6.75597">
        <ele>335.82912352001</ele>
        <time>2014-12-07T08:38:44Z</time>
      </trkpt>
      <trkpt lat="47.49234" lon="6.75592">
        <ele>336.16772031998</ele>
        <time>2014-12-07T08:38:45Z</time>
      </trkpt>
      <trkpt lat="47.49235" lon="6.75587">
        <ele>336.49448896002</ele>
        <time>2014-12-07T08:38:46Z</time>
      </trkpt>
      <trkpt lat="47.49236" lon="6.75582">
        <ele>336.80208960006</ele>
        <time>2014-12-07T08:38:47Z</time>
      </trkpt>
      <trkpt lat="47.49237" lon="6.75577">
        <ele>336.88813632004</ele>
        <time>2014-12-07T08:38:48Z</time>
      </trkpt>
      <trkpt lat="47.49239" lon="6.75572">
        <ele>336.88549920003</ele>
        <time>2014-12-07T08:38:49Z</time>
      </trkpt>
      <trkpt lat="47.4924" lon="6.75566">
        <ele>336.93687167996</ele>
        <time>2014-12-07T08:38:50Z</time>
      </trkpt>
      <trkpt lat="47.49241" lon="6.75561">
        <ele>337.06898975994</ele>
        <time>2014-12-07T08:38:51Z</time>
      </trkpt>
      <trkpt lat="47.49242" lon="6.75554">
        <ele>337.26998112005</ele>
        <time>2014-12-07T08:38:52Z</time>
      </trkpt>
      <trkpt lat="47.49243" lon="6.75547">
        <ele>337.58139360002</ele>
        <time>2014-12-07T08:38:53Z</time>
      </trkpt>
      <trkpt lat="47.49244" lon="6.7554">
        <ele>337.85682816006</ele>
        <time>2014-12-07T08:38:54Z</time>
      </trkpt>
      <trkpt lat="47.49244" lon="6.75533">
        <ele>338.27334719994</ele>
        <time>2014-12-07T08:38:55Z</time>
      </trkpt>
      <trkpt lat="47.49245" lon="6.75526">
        <ele>338.6326871999</ele>
        <time>2014-12-07T08:38:56Z</time>
      </trkpt>
      <trkpt lat="47.49245" lon="6.75519">
        <ele>339.03842303991</ele>
        <time>2014-12-07T08:38:57Z</time>
      </trkpt>
      <trkpt lat="47.49245" lon="6.75512">
        <ele>339.4525056</ele>
        <time>2014-12-07T08:38:58Z</time>
      </trkpt>
      <trkpt lat="47.49245" lon="6.75505">
        <ele>339.88448927994</ele>
        <time>2014-12-07T08:38:59Z</time>
      </trkpt>
      <trkpt lat="47.49246" lon="6.7549">
        <ele>340.82707200008</ele>
        <time>2014-12-07T08:39:02Z</time>
      </trkpt>
      <trkpt lat="47.49246" lon="6.75486">
        <ele>340.99070399997</ele>
        <time>2014-12-07T08:39:03Z</time>
      </trkpt>
      <trkpt lat="47.49247" lon="6.75482">
        <ele>341.05431935999</ele>
        <time>2014-12-07T08:39:04Z</time>
      </trkpt>
      <trkpt lat="47.49248" lon="6.75476">
        <ele>341.12102879997</ele>
        <time>2014-12-07T08:39:06Z</time>
      </trkpt>
      <trkpt lat="47.49248" lon="6.75473">
        <ele>341.17733856006</ele>
        <time>2014-12-07T08:39:07Z</time>
      </trkpt>
      <trkpt lat="47.49249" lon="6.75466">
        <ele>341.24454144004</ele>
        <time>2014-12-07T08:39:09Z</time>
      </trkpt>
      <trkpt lat="47.4925" lon="6.75463">
        <ele>341.29998816</ele>
        <time>2014-12-07T08:39:10Z</time>
      </trkpt>
      <trkpt lat="47.4925" lon="6.7546">
        <ele>341.45876639993</ele>
        <time>2014-12-07T08:39:11Z</time>
      </trkpt>
      <trkpt lat="47.4925" lon="6.75455">
        <ele>341.64968735997</ele>
        <time>2014-12-07T08:39:12Z</time>
      </trkpt>
      <trkpt lat="47.49251" lon="6.7545">
        <ele>341.85332543999</ele>
        <time>2014-12-07T08:39:13Z</time>
      </trkpt>
      <trkpt lat="47.49251" lon="6.75445">
        <ele>342.12992783999</ele>
        <time>2014-12-07T08:39:14Z</time>
      </trkpt>
      <trkpt lat="47.49252" lon="6.7544">
        <ele>342.39106800004</ele>
        <time>2014-12-07T08:39:15Z</time>
      </trkpt>
      <trkpt lat="47.49252" lon="6.75434">
        <ele>342.63095040001</ele>
        <time>2014-12-07T08:39:16Z</time>
      </trkpt>
      <trkpt lat="47.49253" lon="6.75429">
        <ele>342.82563264003</ele>
        <time>2014-12-07T08:39:17Z</time>
      </trkpt>
      <trkpt lat="47.49253" lon="6.75425">
        <ele>342.97156896002</ele>
        <time>2014-12-07T08:39:18Z</time>
      </trkpt>
      <trkpt lat="47.49254" lon="6.75421">
        <ele>343.06298111996</ele>
        <time>2014-12-07T08:39:19Z</time>
      </trkpt>
      <trkpt lat="47.49255" lon="6.75418">
        <ele>343.09825871999</ele>
        <time>2014-12-07T08:39:20Z</time>
      </trkpt>
      <trkpt lat="47.49257" lon="6.75413">
        <ele>343.04833599999</ele>
        <time>2014-12-07T08:39:22Z</time>
      </trkpt>
      <trkpt lat="47.49258" lon="6.75411">
        <ele>342.97446400006</ele>
        <time>2014-12-07T08:39:23Z</time>
      </trkpt>
      <trkpt lat="47.4926" lon="6.75406">
        <ele>342.85068639999</ele>
        <time>2014-12-07T08:39:25Z</time>
      </trkpt>
      <trkpt lat="47.49261" lon="6.75403">
        <ele>342.82717840006</ele>
        <time>2014-12-07T08:39:26Z</time>
      </trkpt>
      <trkpt lat="47.49262" lon="6.75399">
        <ele>342.78569440005</ele>
        <time>2014-12-07T08:39:27Z</time>
      </trkpt>
      <trkpt lat="47.49263" lon="6.75395">
        <ele>342.76333119999</ele>
        <time>2014-12-07T08:39:28Z</time>
      </trkpt>
      <trkpt lat="47.49264" lon="6.75392">
        <ele>342.73171839994</ele>
        <time>2014-12-07T08:39:29Z</time>
      </trkpt>
      <trkpt lat="47.49265" lon="6.75388">
        <ele>342.65943519997</ele>
        <time>2014-12-07T08:39:30Z</time>
      </trkpt>
      <trkpt lat="47.49267" lon="6.75384">
        <ele>342.60591999996</ele>
        <time>2014-12-07T08:39:31Z</time>
      </trkpt>
      <trkpt lat="47.49268" lon="6.7538">
        <ele>342.57862000003</ele>
        <time>2014-12-07T08:39:32Z</time>
      </trkpt>
      <trkpt lat="47.49268" lon="6.75374">
        <ele>342.65787760005</ele>
        <time>2014-12-07T08:39:33Z</time>
      </trkpt>
      <trkpt lat="47.49269" lon="6.75369">
        <ele>342.77748399997</ele>
        <time>2014-12-07T08:39:34Z</time>
      </trkpt>
      <trkpt lat="47.49269" lon="6.75363">
        <ele>342.88127199994</ele>
        <time>2014-12-07T08:39:35Z</time>
      </trkpt>
      <trkpt lat="47.4927" lon="6.75356">
        <ele>342.96815920001</ele>
        <time>2014-12-07T08:39:36Z</time>
      </trkpt>
      <trkpt lat="47.4927" lon="6.7535">
        <ele>343.03839999993</ele>
        <time>2014-12-07T08:39:37Z</time>
      </trkpt>
      <trkpt lat="47.49271" lon="6.75344">
        <ele>343.06506880006</ele>
        <time>2014-12-07T08:39:38Z</time>
      </trkpt>
      <trkpt lat="47.49272" lon="6.75339">
        <ele>343.12933600002</ele>
        <time>2014-12-07T08:39:39Z</time>
      </trkpt>
      <trkpt lat="47.49272" lon="6.75334">
        <ele>343.20500799993</ele>
        <time>2014-12-07T08:39:40Z</time>
      </trkpt>
      <trkpt lat="47.49272" lon="6.75329">
        <ele>343.22300991994</ele>
        <time>2014-12-07T08:39:41Z</time>
      </trkpt>
      <trkpt lat="47.49273" lon="6.75325">
        <ele>343.24552000005</ele>
        <time>2014-12-07T08:39:42Z</time>
      </trkpt>
      <trkpt lat="47.49273" lon="6.75321">
        <ele>343.24838944006</ele>
        <time>2014-12-07T08:39:43Z</time>
      </trkpt>
      <trkpt lat="47.49273" lon="6.75316">
        <ele>343.24857088007</ele>
        <time>2014-12-07T08:39:44Z</time>
      </trkpt>
      <trkpt lat="47.49273" lon="6.75312">
        <ele>343.28863551997</ele>
        <time>2014-12-07T08:39:45Z</time>
      </trkpt>
      <trkpt lat="47.49273" lon="6.75309">
        <ele>343.36669504007</ele>
        <time>2014-12-07T08:39:46Z</time>
      </trkpt>
      <trkpt lat="47.49273" lon="6.75302">
        <ele>343.612948</ele>
        <time>2014-12-07T08:39:48Z</time>
      </trkpt>
      <trkpt lat="47.49272" lon="6.753">
        <ele>343.76118400003</ele>
        <time>2014-12-07T08:39:49Z</time>
      </trkpt>
      <trkpt lat="47.49271" lon="6.75296">
        <ele>343.93763008001</ele>
        <time>2014-12-07T08:39:50Z</time>
      </trkpt>
      <trkpt lat="47.49271" lon="6.75293">
        <ele>344.09549008005</ele>
        <time>2014-12-07T08:39:51Z</time>
      </trkpt>
      <trkpt lat="47.49271" lon="6.75289">
        <ele>344.19145071994</ele>
        <time>2014-12-07T08:39:52Z</time>
      </trkpt>
      <trkpt lat="47.49271" lon="6.75285">
        <ele>344.28869919998</ele>
        <time>2014-12-07T08:39:53Z</time>
      </trkpt>
      <trkpt lat="47.49271" lon="6.75282">
        <ele>344.32166848004</ele>
        <time>2014-12-07T08:39:54Z</time>
      </trkpt>
      <trkpt lat="47.49271" lon="6.75278">
        <ele>344.31463024005</ele>
        <time>2014-12-07T08:39:55Z</time>
      </trkpt>
      <trkpt lat="47.49271" lon="6.75274">
        <ele>344.28866703996</ele>
        <time>2014-12-07T08:39:56Z</time>
      </trkpt>
      <trkpt lat="47.49272" lon="6.7527">
        <ele>344.24850208007</ele>
        <time>2014-12-07T08:39:57Z</time>
      </trkpt>
      <trkpt lat="47.49272" lon="6.75266">
        <ele>344.23564959999</ele>
        <time>2014-12-07T08:39:58Z</time>
      </trkpt>
      <trkpt lat="47.49273" lon="6.75261">
        <ele>344.16318592006</ele>
        <time>2014-12-07T08:39:59Z</time>
      </trkpt>
      <trkpt lat="47.49272" lon="6.75236">
        <ele>345.30880000004</ele>
        <time>2014-12-07T08:40:07Z</time>
      </trkpt>
      <trkpt lat="47.49272" lon="6.75232">
        <ele>345.63039999998</ele>
        <time>2014-12-07T08:40:09Z</time>
      </trkpt>
      <trkpt lat="47.49271" lon="6.75229">
        <ele>345.93879999996</ele>
        <time>2014-12-07T08:40:10Z</time>
      </trkpt>
      <trkpt lat="47.49271" lon="6.75225">
        <ele>346.26040000005</ele>
        <time>2014-12-07T08:40:11Z</time>
      </trkpt>
      <trkpt lat="47.4927" lon="6.7522">
        <ele>346.66719999997</ele>
        <time>2014-12-07T08:40:12Z</time>
      </trkpt>
      <trkpt lat="47.49269" lon="6.75215">
        <ele>347.22159999999</ele>
        <time>2014-12-07T08:40:13Z</time>
      </trkpt>
      <trkpt lat="47.49268" lon="6.75209">
        <ele>347.83239999995</ele>
        <time>2014-12-07T08:40:14Z</time>
      </trkpt>
      <trkpt lat="47.49266" lon="6.75202">
        <ele>348.52240000004</ele>
        <time>2014-12-07T08:40:15Z</time>
      </trkpt>
      <trkpt lat="47.49266" lon="6.75196">
        <ele>349.08400000002</ele>
        <time>2014-12-07T08:40:16Z</time>
      </trkpt>
      <trkpt lat="47.49265" lon="6.7519">
        <ele>349.52920000001</ele>
        <time>2014-12-07T08:40:17Z</time>
      </trkpt>
      <trkpt lat="47.49265" lon="6.75183">
        <ele>349.94800000005</ele>
        <time>2014-12-07T08:40:18Z</time>
      </trkpt>
      <trkpt lat="47.49265" lon="6.75177">
        <ele>350.31759999996</ele>
        <time>2014-12-07T08:40:19Z</time>
      </trkpt>
      <trkpt lat="47.49265" lon="6.75171">
        <ele>350.64880000006</ele>
        <time>2014-12-07T08:40:20Z</time>
      </trkpt>
      <trkpt lat="47.49265" lon="6.75165">
        <ele>350.95895487996</ele>
        <time>2014-12-07T08:40:21Z</time>
      </trkpt>
      <trkpt lat="47.49266" lon="6.75159">
        <ele>351.19850752007</ele>
        <time>2014-12-07T08:40:22Z</time>
      </trkpt>
      <trkpt lat="47.49266" lon="6.75154">
        <ele>351.34291648004</ele>
        <time>2014-12-07T08:40:23Z</time>
      </trkpt>
      <trkpt lat="47.49267" lon="6.75149">
        <ele>351.46184319996</ele>
        <time>2014-12-07T08:40:24Z</time>
      </trkpt>
      <trkpt lat="47.49269" lon="6.75143">
        <ele>351.26536959993</ele>
        <time>2014-12-07T08:40:25Z</time>
      </trkpt>
      <trkpt lat="47.49272" lon="6.75138">
        <ele>350.91758272008</ele>
        <time>2014-12-07T08:40:26Z</time>
      </trkpt>
      <trkpt lat="47.49275" lon="6.75133">
        <ele>350.43563200004</ele>
        <time>2014-12-07T08:40:27Z</time>
      </trkpt>
      <trkpt lat="47.49279" lon="6.75127">
        <ele>349.81108671996</ele>
        <time>2014-12-07T08:40:28Z</time>
      </trkpt>
      <trkpt lat="47.49282" lon="6.75123">
        <ele>349.23080895997</ele>
        <time>2014-12-07T08:40:29Z</time>
      </trkpt>
      <trkpt lat="47.49286" lon="6.75118">
        <ele>348.63645759998</ele>
        <time>2014-12-07T08:40:30Z</time>
      </trkpt>
      <trkpt lat="47.49289" lon="6.75114">
        <ele>348.06776319998</ele>
        <time>2014-12-07T08:40:31Z</time>
      </trkpt>
      <trkpt lat="47.49292" lon="6.7511">
        <ele>347.49767103993</ele>
        <time>2014-12-07T08:40:32Z</time>
      </trkpt>
      <trkpt lat="47.49295" lon="6.75107">
        <ele>346.94878719992</ele>
        <time>2014-12-07T08:40:33Z</time>
      </trkpt>
      <trkpt lat="47.49297" lon="6.75104">
        <ele>346.43403135996</ele>
        <time>2014-12-07T08:40:34Z</time>
      </trkpt>
      <trkpt lat="47.493" lon="6.751">
        <ele>345.97696000005</ele>
        <time>2014-12-07T08:40:35Z</time>
      </trkpt>
      <trkpt lat="47.49302" lon="6.75096">
        <ele>345.54588352008</ele>
        <time>2014-12-07T08:40:36Z</time>
      </trkpt>
      <trkpt lat="47.49304" lon="6.75091">
        <ele>345.17624319999</ele>
        <time>2014-12-07T08:40:37Z</time>
      </trkpt>
      <trkpt lat="47.49306" lon="6.75086">
        <ele>344.77221183995</ele>
        <time>2014-12-07T08:40:38Z</time>
      </trkpt>
      <trkpt lat="47.49308" lon="6.75081">
        <ele>344.47643135997</ele>
        <time>2014-12-07T08:40:39Z</time>
      </trkpt>
      <trkpt lat="47.49309" lon="6.75075">
        <ele>344.52755999995</ele>
        <time>2014-12-07T08:40:40Z</time>
      </trkpt>
      <trkpt lat="47.4931" lon="6.75069">
        <ele>344.64185279999</ele>
        <time>2014-12-07T08:40:41Z</time>
      </trkpt>
      <trkpt lat="47.49311" lon="6.75063">
        <ele>344.77692959996</ele>
        <time>2014-12-07T08:40:42Z</time>
      </trkpt>
      <trkpt lat="47.49312" lon="6.75058">
        <ele>344.96509439993</ele>
        <time>2014-12-07T08:40:43Z</time>
      </trkpt>
      <trkpt lat="47.49312" lon="6.75053">
        <ele>345.09513551995</ele>
        <time>2014-12-07T08:40:44Z</time>
      </trkpt>
      <trkpt lat="47.49313" lon="6.75048">
        <ele>345.24690000002</ele>
        <time>2014-12-07T08:40:45Z</time>
      </trkpt>
      <trkpt lat="47.49313" lon="6.75044">
        <ele>345.41992127997</ele>
        <time>2014-12-07T08:40:46Z</time>
      </trkpt>
      <trkpt lat="47.49313" lon="6.75039">
        <ele>345.63361919993</ele>
        <time>2014-12-07T08:40:48Z</time>
      </trkpt>
      <trkpt lat="47.49314" lon="6.75035">
        <ele>345.76567439994</ele>
        <time>2014-12-07T08:40:49Z</time>
      </trkpt>
      <trkpt lat="47.49314" lon="6.75032">
        <ele>345.88088447996</ele>
        <time>2014-12-07T08:40:50Z</time>
      </trkpt>
      <trkpt lat="47.49314" lon="6.75028">
        <ele>346.03223040008</ele>
        <time>2014-12-07T08:40:51Z</time>
      </trkpt>
      <trkpt lat="47.49315" lon="6.75024">
        <ele>346.09782143993</ele>
        <time>2014-12-07T08:40:52Z</time>
      </trkpt>
      <trkpt lat="47.49315" lon="6.75021">
        <ele>346.19544</ele>
        <time>2014-12-07T08:40:53Z</time>
      </trkpt>
      <trkpt lat="47.49316" lon="6.75015">
        <ele>346.38855936002</ele>
        <time>2014-12-07T08:40:55Z</time>
      </trkpt>
      <trkpt lat="47.49316" lon="6.75013">
        <ele>346.46538000004</ele>
        <time>2014-12-07T08:40:56Z</time>
      </trkpt>
      <trkpt lat="47.49317" lon="6.75007">
        <ele>346.63590335994</ele>
        <time>2014-12-07T08:40:58Z</time>
      </trkpt>
      <trkpt lat="47.49317" lon="6.75003">
        <ele>346.74804575996</ele>
        <time>2014-12-07T08:40:59Z</time>
      </trkpt>
      <trkpt lat="47.49317" lon="6.74997">
        <ele>347.16761856007</ele>
        <time>2014-12-07T08:41:02Z</time>
      </trkpt>
      <trkpt lat="47.49317" lon="6.74994">
        <ele>347.40918047995</ele>
        <time>2014-12-07T08:41:03Z</time>
      </trkpt>
      <trkpt lat="47.49316" lon="6.7499">
        <ele>347.71252799993</ele>
        <time>2014-12-07T08:41:04Z</time>
      </trkpt>
      <trkpt lat="47.49316" lon="6.74986">
        <ele>348.04119359992</ele>
        <time>2014-12-07T08:41:05Z</time>
      </trkpt>
      <trkpt lat="47.49316" lon="6.74982">
        <ele>348.38272128008</ele>
        <time>2014-12-07T08:41:06Z</time>
      </trkpt>
      <trkpt lat="47.49315" lon="6.74976">
        <ele>348.93951744005</ele>
        <time>2014-12-07T08:41:07Z</time>
      </trkpt>
      <trkpt lat="47.49314" lon="6.74971">
        <ele>349.46701440008</ele>
        <time>2014-12-07T08:41:08Z</time>
      </trkpt>
      <trkpt lat="47.49313" lon="6.74966">
        <ele>350.00202239993</ele>
        <time>2014-12-07T08:41:09Z</time>
      </trkpt>
      <trkpt lat="47.49313" lon="6.7496">
        <ele>350.47022976008</ele>
        <time>2014-12-07T08:41:10Z</time>
      </trkpt>
      <trkpt lat="47.49312" lon="6.74956">
        <ele>350.85792287995</ele>
        <time>2014-12-07T08:41:11Z</time>
      </trkpt>
      <trkpt lat="47.49313" lon="6.74952">
        <ele>350.98140480003</ele>
        <time>2014-12-07T08:41:15Z</time>
      </trkpt>
      <trkpt lat="47.49313" lon="6.7495">
        <ele>350.95266816006</ele>
        <time>2014-12-07T08:41:16Z</time>
      </trkpt>
      <trkpt lat="47.49314" lon="6.74944">
        <ele>351.07549631998</ele>
        <time>2014-12-07T08:41:18Z</time>
      </trkpt>
      <trkpt lat="47.49315" lon="6.74941">
        <ele>351.22650719992</ele>
        <time>2014-12-07T08:41:19Z</time>
      </trkpt>
      <trkpt lat="47.49315" lon="6.74934">
        <ele>351.51555216006</ele>
        <time>2014-12-07T08:41:21Z</time>
      </trkpt>
      <trkpt lat="47.49315" lon="6.74931">
        <ele>351.67221792001</ele>
        <time>2014-12-07T08:41:22Z</time>
      </trkpt>
      <trkpt lat="47.49315" lon="6.74927">
        <ele>351.92261759995</ele>
        <time>2014-12-07T08:41:23Z</time>
      </trkpt>
      <trkpt lat="47.49315" lon="6.74923">
        <ele>352.210752</ele>
        <time>2014-12-07T08:41:24Z</time>
      </trkpt>
      <trkpt lat="47.49315" lon="6.7492">
        <ele>352.51172927999</ele>
        <time>2014-12-07T08:41:25Z</time>
      </trkpt>
      <trkpt lat="47.49314" lon="6.74916">
        <ele>352.77658111998</ele>
        <time>2014-12-07T08:41:26Z</time>
      </trkpt>
      <trkpt lat="47.49314" lon="6.74911">
        <ele>352.98529280008</ele>
        <time>2014-12-07T08:41:28Z</time>
      </trkpt>
      <trkpt lat="47.49314" lon="6.74908">
        <ele>353.06580032002</ele>
        <time>2014-12-07T08:41:29Z</time>
      </trkpt>
      <trkpt lat="47.49314" lon="6.74905">
        <ele>353.12902544002</ele>
        <time>2014-12-07T08:41:30Z</time>
      </trkpt>
      <trkpt lat="47.49314" lon="6.74902">
        <ele>353.20448768002</ele>
        <time>2014-12-07T08:41:31Z</time>
      </trkpt>
      <trkpt lat="47.49314" lon="6.74898">
        <ele>353.28606848002</ele>
        <time>2014-12-07T08:41:32Z</time>
      </trkpt>
      <trkpt lat="47.49314" lon="6.74893">
        <ele>353.34959360008</ele>
        <time>2014-12-07T08:41:33Z</time>
      </trkpt>
      <trkpt lat="47.49314" lon="6.74889">
        <ele>353.40258415996</ele>
        <time>2014-12-07T08:41:34Z</time>
      </trkpt>
      <trkpt lat="47.49314" lon="6.74886">
        <ele>353.47569583996</ele>
        <time>2014-12-07T08:41:35Z</time>
      </trkpt>
      <trkpt lat="47.49314" lon="6.74882">
        <ele>353.55490015996</ele>
        <time>2014-12-07T08:41:36Z</time>
      </trkpt>
      <trkpt lat="47.49314" lon="6.74878">
        <ele>353.57833279991</ele>
        <time>2014-12-07T08:41:37Z</time>
      </trkpt>
      <trkpt lat="47.49314" lon="6.74874">
        <ele>353.62410751997</ele>
        <time>2014-12-07T08:41:38Z</time>
      </trkpt>
      <trkpt lat="47.49315" lon="6.74871">
        <ele>353.63837119992</ele>
        <time>2014-12-07T08:41:39Z</time>
      </trkpt>
      <trkpt lat="47.49315" lon="6.74864">
        <ele>353.71606784006</ele>
        <time>2014-12-07T08:41:41Z</time>
      </trkpt>
      <trkpt lat="47.49315" lon="6.74861">
        <ele>353.72888</ele>
        <time>2014-12-07T08:41:42Z</time>
      </trkpt>
      <trkpt lat="47.49315" lon="6.74858">
        <ele>353.71533200001</ele>
        <time>2014-12-07T08:41:43Z</time>
      </trkpt>
      <trkpt lat="47.49316" lon="6.74854">
        <ele>353.64310495997</ele>
        <time>2014-12-07T08:41:44Z</time>
      </trkpt>
      <trkpt lat="47.49316" lon="6.7485">
        <ele>353.55874304</ele>
        <time>2014-12-07T08:41:45Z</time>
      </trkpt>
      <trkpt lat="47.49317" lon="6.74845">
        <ele>353.45528528009</ele>
        <time>2014-12-07T08:41:46Z</time>
      </trkpt>
      <trkpt lat="47.49318" lon="6.74841">
        <ele>353.39648960005</ele>
        <time>2014-12-07T08:41:47Z</time>
      </trkpt>
      <trkpt lat="47.49318" lon="6.74836">
        <ele>353.39315408006</ele>
        <time>2014-12-07T08:41:48Z</time>
      </trkpt>
      <trkpt lat="47.49318" lon="6.74831">
        <ele>353.53626879993</ele>
        <time>2014-12-07T08:41:49Z</time>
      </trkpt>
      <trkpt lat="47.49318" lon="6.74827">
        <ele>353.84108799993</ele>
        <time>2014-12-07T08:41:50Z</time>
      </trkpt>
      <trkpt lat="47.49318" lon="6.74822">
        <ele>354.15212799993</ele>
        <time>2014-12-07T08:41:51Z</time>
      </trkpt>
      <trkpt lat="47.49318" lon="6.74816">
        <ele>354.35942848002</ele>
        <time>2014-12-07T08:41:52Z</time>
      </trkpt>
      <trkpt lat="47.49319" lon="6.74812">
        <ele>354.48306400004</ele>
        <time>2014-12-07T08:41:53Z</time>
      </trkpt>
      <trkpt lat="47.4932" lon="6.74807">
        <ele>354.6040576</ele>
        <time>2014-12-07T08:41:54Z</time>
      </trkpt>
      <trkpt lat="47.4932" lon="6.74804">
        <ele>354.65805040003</ele>
        <time>2014-12-07T08:41:55Z</time>
      </trkpt>
      <trkpt lat="47.49321" lon="6.748">
        <ele>354.67431232005</ele>
        <time>2014-12-07T08:41:56Z</time>
      </trkpt>
      <trkpt lat="47.49322" lon="6.74797">
        <ele>354.6452646401</ele>
        <time>2014-12-07T08:41:57Z</time>
      </trkpt>
      <trkpt lat="47.49323" lon="6.74793">
        <ele>354.58445199993</ele>
        <time>2014-12-07T08:41:58Z</time>
      </trkpt>
      <trkpt lat="47.49325" lon="6.74788">
        <ele>354.31058848002</ele>
        <time>2014-12-07T08:41:59Z</time>
      </trkpt>
      <trkpt lat="47.49326" lon="6.74771">
        <ele>355.01828031993</ele>
        <time>2014-12-07T08:42:07Z</time>
      </trkpt>
      <trkpt lat="47.49325" lon="6.74765">
        <ele>355.6468547201</ele>
        <time>2014-12-07T08:42:10Z</time>
      </trkpt>
      <trkpt lat="47.49325" lon="6.74763">
        <ele>355.88409999995</ele>
        <time>2014-12-07T08:42:11Z</time>
      </trkpt>
      <trkpt lat="47.49325" lon="6.74757">
        <ele>356.25173199995</ele>
        <time>2014-12-07T08:42:13Z</time>
      </trkpt>
      <trkpt lat="47.49325" lon="6.74754">
        <ele>356.40559840002</ele>
        <time>2014-12-07T08:42:14Z</time>
      </trkpt>
      <trkpt lat="47.49325" lon="6.74747">
        <ele>356.74776447996</ele>
        <time>2014-12-07T08:42:16Z</time>
      </trkpt>
      <trkpt lat="47.49325" lon="6.74744">
        <ele>356.9245599999</ele>
        <time>2014-12-07T08:42:17Z</time>
      </trkpt>
      <trkpt lat="47.49325" lon="6.7474">
        <ele>357.12264448005</ele>
        <time>2014-12-07T08:42:18Z</time>
      </trkpt>
      <trkpt lat="47.49324" lon="6.74736">
        <ele>357.70933696001</ele>
        <time>2014-12-07T08:42:19Z</time>
      </trkpt>
      <trkpt lat="47.49323" lon="6.74731">
        <ele>358.3507417601</ele>
        <time>2014-12-07T08:42:20Z</time>
      </trkpt>
      <trkpt lat="47.49322" lon="6.74725">
        <ele>358.99439488006</ele>
        <time>2014-12-07T08:42:21Z</time>
      </trkpt>
      <trkpt lat="47.49322" lon="6.7472">
        <ele>359.58032320002</ele>
        <time>2014-12-07T08:42:22Z</time>
      </trkpt>
      <trkpt lat="47.49321" lon="6.74716">
        <ele>360.02888512</ele>
        <time>2014-12-07T08:42:23Z</time>
      </trkpt>
      <trkpt lat="47.49321" lon="6.74713">
        <ele>360.36881343998</ele>
        <time>2014-12-07T08:42:24Z</time>
      </trkpt>
      <trkpt lat="47.4932" lon="6.74709">
        <ele>360.65880064004</ele>
        <time>2014-12-07T08:42:25Z</time>
      </trkpt>
      <trkpt lat="47.4932" lon="6.74704">
        <ele>361.05479680004</ele>
        <time>2014-12-07T08:42:27Z</time>
      </trkpt>
      <trkpt lat="47.49321" lon="6.74701">
        <ele>361.15339072005</ele>
        <time>2014-12-07T08:42:28Z</time>
      </trkpt>
      <trkpt lat="47.49322" lon="6.74696">
        <ele>361.16863360004</ele>
        <time>2014-12-07T08:42:30Z</time>
      </trkpt>
      <trkpt lat="47.49323" lon="6.74694">
        <ele>361.14171999993</ele>
        <time>2014-12-07T08:42:31Z</time>
      </trkpt>
      <trkpt lat="47.49324" lon="6.74688">
        <ele>361.16019999992</ele>
        <time>2014-12-07T08:42:33Z</time>
      </trkpt>
      <trkpt lat="47.49325" lon="6.74684">
        <ele>361.1709462401</ele>
        <time>2014-12-07T08:42:34Z</time>
      </trkpt>
      <trkpt lat="47.49326" lon="6.74681">
        <ele>361.05028479995</ele>
        <time>2014-12-07T08:42:35Z</time>
      </trkpt>
      <trkpt lat="47.49327" lon="6.74678">
        <ele>360.94565439993</ele>
        <time>2014-12-07T08:42:36Z</time>
      </trkpt>
      <trkpt lat="47.49329" lon="6.74673">
        <ele>360.78275872008</ele>
        <time>2014-12-07T08:42:38Z</time>
      </trkpt>
      <trkpt lat="47.49329" lon="6.7467">
        <ele>360.82102912003</ele>
        <time>2014-12-07T08:42:39Z</time>
      </trkpt>
      <trkpt lat="47.49329" lon="6.74665">
        <ele>361.08631744003</ele>
        <time>2014-12-07T08:42:41Z</time>
      </trkpt>
      <trkpt lat="47.49329" lon="6.74663">
        <ele>361.11532959996</ele>
        <time>2014-12-07T08:42:42Z</time>
      </trkpt>
      <trkpt lat="47.49329" lon="6.74659">
        <ele>361.28391519994</ele>
        <time>2014-12-07T08:42:44Z</time>
      </trkpt>
      <trkpt lat="47.49328" lon="6.74656">
        <ele>361.36931967992</ele>
        <time>2014-12-07T08:42:45Z</time>
      </trkpt>
      <trkpt lat="47.49328" lon="6.74652">
        <ele>361.37209023992</ele>
        <time>2014-12-07T08:42:46Z</time>
      </trkpt>
      <trkpt lat="47.49329" lon="6.74648">
        <ele>361.34727039999</ele>
        <time>2014-12-07T08:42:47Z</time>
      </trkpt>
      <trkpt lat="47.49329" lon="6.74643">
        <ele>361.29465711994</ele>
        <time>2014-12-07T08:42:48Z</time>
      </trkpt>
      <trkpt lat="47.49329" lon="6.74638">
        <ele>361.21363839995</ele>
        <time>2014-12-07T08:42:49Z</time>
      </trkpt>
      <trkpt lat="47.49329" lon="6.74634">
        <ele>361.10404576003</ele>
        <time>2014-12-07T08:42:50Z</time>
      </trkpt>
      <trkpt lat="47.4933" lon="6.7463">
        <ele>360.8815696</ele>
        <time>2014-12-07T08:42:51Z</time>
      </trkpt>
      <trkpt lat="47.49331" lon="6.74625">
        <ele>360.65799999997</ele>
        <time>2014-12-07T08:42:52Z</time>
      </trkpt>
      <trkpt lat="47.49332" lon="6.74621">
        <ele>360.43334943994</ele>
        <time>2014-12-07T08:42:53Z</time>
      </trkpt>
      <trkpt lat="47.49333" lon="6.74616">
        <ele>360.23604400004</ele>
        <time>2014-12-07T08:42:54Z</time>
      </trkpt>
      <trkpt lat="47.49333" lon="6.74613">
        <ele>360.06620992006</ele>
        <time>2014-12-07T08:42:55Z</time>
      </trkpt>
      <trkpt lat="47.49334" lon="6.74609">
        <ele>359.91805792007</ele>
        <time>2014-12-07T08:42:56Z</time>
      </trkpt>
      <trkpt lat="47.49334" lon="6.74606">
        <ele>359.80726720004</ele>
        <time>2014-12-07T08:42:57Z</time>
      </trkpt>
      <trkpt lat="47.49335" lon="6.74602">
        <ele>359.71959039994</ele>
        <time>2014-12-07T08:42:58Z</time>
      </trkpt>
      <trkpt lat="47.49335" lon="6.74598">
        <ele>359.72090367994</ele>
        <time>2014-12-07T08:42:59Z</time>
      </trkpt>
      <trkpt lat="47.49334" lon="6.74591">
        <ele>359.94181120001</ele>
        <time>2014-12-07T08:43:02Z</time>
      </trkpt>
      <trkpt lat="47.49333" lon="6.74586">
        <ele>360.09585279999</ele>
        <time>2014-12-07T08:43:04Z</time>
      </trkpt>
      <trkpt lat="47.49333" lon="6.74584">
        <ele>360.09596319999</ele>
        <time>2014-12-07T08:43:05Z</time>
      </trkpt>
      <trkpt lat="47.49333" lon="6.74578">
        <ele>360.14957200001</ele>
        <time>2014-12-07T08:43:09Z</time>
      </trkpt>
      <trkpt lat="47.49334" lon="6.74575">
        <ele>360.11728832007</ele>
        <time>2014-12-07T08:43:10Z</time>
      </trkpt>
      <trkpt lat="47.49334" lon="6.74572">
        <ele>360.12397759993</ele>
        <time>2014-12-07T08:43:11Z</time>
      </trkpt>
      <trkpt lat="47.49334" lon="6.74568">
        <ele>360.13977343999</ele>
        <time>2014-12-07T08:43:12Z</time>
      </trkpt>
      <trkpt lat="47.49335" lon="6.74564">
        <ele>360.15698624005</ele>
        <time>2014-12-07T08:43:13Z</time>
      </trkpt>
      <trkpt lat="47.49336" lon="6.74559">
        <ele>360.12880159998</ele>
        <time>2014-12-07T08:43:14Z</time>
      </trkpt>
      <trkpt lat="47.49336" lon="6.74555">
        <ele>360.116264</ele>
        <time>2014-12-07T08:43:15Z</time>
      </trkpt>
      <trkpt lat="47.49337" lon="6.7455">
        <ele>360.07329775997</ele>
        <time>2014-12-07T08:43:16Z</time>
      </trkpt>
      <trkpt lat="47.49338" lon="6.74546">
        <ele>360.0162032</ele>
        <time>2014-12-07T08:43:17Z</time>
      </trkpt>
      <trkpt lat="47.49339" lon="6.74541">
        <ele>359.96946175998</ele>
        <time>2014-12-07T08:43:18Z</time>
      </trkpt>
      <trkpt lat="47.4934" lon="6.74537">
        <ele>359.87315072006</ele>
        <time>2014-12-07T08:43:19Z</time>
      </trkpt>
      <trkpt lat="47.49341" lon="6.74534">
        <ele>359.75523488004</ele>
        <time>2014-12-07T08:43:20Z</time>
      </trkpt>
      <trkpt lat="47.49341" lon="6.7453">
        <ele>359.78407951996</ele>
        <time>2014-12-07T08:43:21Z</time>
      </trkpt>
      <trkpt lat="47.49341" lon="6.74526">
        <ele>359.84713759997</ele>
        <time>2014-12-07T08:43:22Z</time>
      </trkpt>
      <trkpt lat="47.49341" lon="6.74522">
        <ele>359.95707679997</ele>
        <time>2014-12-07T08:43:23Z</time>
      </trkpt>
      <trkpt lat="47.49341" lon="6.74518">
        <ele>360.19287152004</ele>
        <time>2014-12-07T08:43:24Z</time>
      </trkpt>
      <trkpt lat="47.49339" lon="6.74512">
        <ele>360.73932511998</ele>
        <time>2014-12-07T08:43:26Z</time>
      </trkpt>
      <trkpt lat="47.49338" lon="6.7451">
        <ele>361.00489999999</ele>
        <time>2014-12-07T08:43:27Z</time>
      </trkpt>
      <trkpt lat="47.49337" lon="6.74505">
        <ele>361.30569680005</ele>
        <time>2014-12-07T08:43:29Z</time>
      </trkpt>
      <trkpt lat="47.49336" lon="6.74503">
        <ele>361.37709056001</ele>
        <time>2014-12-07T08:43:30Z</time>
      </trkpt>
      <trkpt lat="47.49337" lon="6.74497">
        <ele>361.45250816006</ele>
        <time>2014-12-07T08:43:33Z</time>
      </trkpt>
      <trkpt lat="47.49337" lon="6.74495">
        <ele>361.42457983999</ele>
        <time>2014-12-07T08:43:34Z</time>
      </trkpt>
      <trkpt lat="47.49338" lon="6.74489">
        <ele>361.41809648005</ele>
        <time>2014-12-07T08:43:37Z</time>
      </trkpt>
      <trkpt lat="47.49338" lon="6.74488">
        <ele>361.39772000006</ele>
        <time>2014-12-07T08:43:38Z</time>
      </trkpt>
      <trkpt lat="47.49335" lon="6.74483">
        <ele>362.05113200002</ele>
        <time>2014-12-07T08:43:44Z</time>
      </trkpt>
      <trkpt lat="47.49335" lon="6.74482">
        <ele>362.16827840005</ele>
        <time>2014-12-07T08:43:45Z</time>
      </trkpt>
      <trkpt lat="47.49333" lon="6.74475">
        <ele>362.65314688006</ele>
        <time>2014-12-07T08:43:49Z</time>
      </trkpt>
      <trkpt lat="47.49333" lon="6.74473">
        <ele>362.79343744005</ele>
        <time>2014-12-07T08:43:50Z</time>
      </trkpt>
      <trkpt lat="47.49332" lon="6.74467">
        <ele>363.05022207997</ele>
        <time>2014-12-07T08:43:52Z</time>
      </trkpt>
      <trkpt lat="47.49333" lon="6.74463">
        <ele>363.10436800003</ele>
        <time>2014-12-07T08:43:53Z</time>
      </trkpt>
      <trkpt lat="47.49333" lon="6.74459">
        <ele>363.13205632005</ele>
        <time>2014-12-07T08:43:54Z</time>
      </trkpt>
      <trkpt lat="47.49333" lon="6.74454">
        <ele>363.17248864006</ele>
        <time>2014-12-07T08:43:55Z</time>
      </trkpt>
      <trkpt lat="47.49333" lon="6.74449">
        <ele>363.21292832006</ele>
        <time>2014-12-07T08:43:56Z</time>
      </trkpt>
      <trkpt lat="47.49334" lon="6.74444">
        <ele>363.26674544006</ele>
        <time>2014-12-07T08:43:57Z</time>
      </trkpt>
      <trkpt lat="47.49334" lon="6.7444">
        <ele>363.36926432007</ele>
        <time>2014-12-07T08:43:58Z</time>
      </trkpt>
      <trkpt lat="47.49334" lon="6.74436">
        <ele>363.46939904007</ele>
        <time>2014-12-07T08:43:59Z</time>
      </trkpt>
      <trkpt lat="47.49333" lon="6.74414">
        <ele>364.06711296006</ele>
        <time>2014-12-07T08:44:07Z</time>
      </trkpt>
      <trkpt lat="47.49334" lon="6.7441">
        <ele>364.12311551997</ele>
        <time>2014-12-07T08:44:15Z</time>
      </trkpt>
      <trkpt lat="47.49334" lon="6.74408">
        <ele>364.28952959996</ele>
        <time>2014-12-07T08:44:16Z</time>
      </trkpt>
      <trkpt lat="47.49333" lon="6.74405">
        <ele>364.44262624001</ele>
        <time>2014-12-07T08:44:17Z</time>
      </trkpt>
      <trkpt lat="47.49333" lon="6.744">
        <ele>364.61535712</ele>
        <time>2014-12-07T08:44:18Z</time>
      </trkpt>
      <trkpt lat="47.49334" lon="6.74394">
        <ele>364.58394623993</ele>
        <time>2014-12-07T08:44:19Z</time>
      </trkpt>
      <trkpt lat="47.49336" lon="6.74388">
        <ele>364.44809663998</ele>
        <time>2014-12-07T08:44:20Z</time>
      </trkpt>
      <trkpt lat="47.49338" lon="6.74383">
        <ele>364.21436928005</ele>
        <time>2014-12-07T08:44:21Z</time>
      </trkpt>
      <trkpt lat="47.4934" lon="6.74378">
        <ele>363.90530688007</ele>
        <time>2014-12-07T08:44:22Z</time>
      </trkpt>
      <trkpt lat="47.49341" lon="6.74373">
        <ele>363.69274751996</ele>
        <time>2014-12-07T08:44:23Z</time>
      </trkpt>
      <trkpt lat="47.49342" lon="6.74368">
        <ele>363.67341312004</ele>
        <time>2014-12-07T08:44:24Z</time>
      </trkpt>
      <trkpt lat="47.49342" lon="6.74363">
        <ele>363.73035647994</ele>
        <time>2014-12-07T08:44:25Z</time>
      </trkpt>
      <trkpt lat="47.49342" lon="6.74358">
        <ele>363.85986432</ele>
        <time>2014-12-07T08:44:26Z</time>
      </trkpt>
      <trkpt lat="47.49342" lon="6.74353">
        <ele>364.03928447994</ele>
        <time>2014-12-07T08:44:27Z</time>
      </trkpt>
      <trkpt lat="47.49342" lon="6.74349">
        <ele>364.20071040006</ele>
        <time>2014-12-07T08:44:28Z</time>
      </trkpt>
      <trkpt lat="47.49344" lon="6.74344">
        <ele>363.84868992007</ele>
        <time>2014-12-07T08:44:30Z</time>
      </trkpt>
      <trkpt lat="47.49344" lon="6.74341">
        <ele>363.91805759996</ele>
        <time>2014-12-07T08:44:31Z</time>
      </trkpt>
      <trkpt lat="47.49345" lon="6.74336">
        <ele>363.98497919997</ele>
        <time>2014-12-07T08:44:33Z</time>
      </trkpt>
      <trkpt lat="47.49345" lon="6.74333">
        <ele>364.02079871991</ele>
        <time>2014-12-07T08:44:34Z</time>
      </trkpt>
      <trkpt lat="47.49345" lon="6.74328">
        <ele>364.00477055994</ele>
        <time>2014-12-07T08:44:36Z</time>
      </trkpt>
      <trkpt lat="47.49346" lon="6.74325">
        <ele>363.96428928002</ele>
        <time>2014-12-07T08:44:37Z</time>
      </trkpt>
      <trkpt lat="47.49346" lon="6.7432">
        <ele>363.91865855992</ele>
        <time>2014-12-07T08:44:39Z</time>
      </trkpt>
      <trkpt lat="47.49347" lon="6.74318">
        <ele>363.88633536</ele>
        <time>2014-12-07T08:44:40Z</time>
      </trkpt>
      <trkpt lat="47.49347" lon="6.74313">
        <ele>363.86481024003</ele>
        <time>2014-12-07T08:44:42Z</time>
      </trkpt>
      <trkpt lat="47.49348" lon="6.7431">
        <ele>363.89019071997</ele>
        <time>2014-12-07T08:44:43Z</time>
      </trkpt>
      <trkpt lat="47.49347" lon="6.74305">
        <ele>364.13289600008</ele>
        <time>2014-12-07T08:44:45Z</time>
      </trkpt>
      <trkpt lat="47.49347" lon="6.74303">
        <ele>364.23110400001</ele>
        <time>2014-12-07T08:44:46Z</time>
      </trkpt>
      <trkpt lat="47.49348" lon="6.74297">
        <ele>364.2770880001</ele>
        <time>2014-12-07T08:44:48Z</time>
      </trkpt>
      <trkpt lat="47.49348" lon="6.74294">
        <ele>364.22548800005</ele>
        <time>2014-12-07T08:44:49Z</time>
      </trkpt>
      <trkpt lat="47.49349" lon="6.7429">
        <ele>364.12236287995</ele>
        <time>2014-12-07T08:44:50Z</time>
      </trkpt>
      <trkpt lat="47.49348" lon="6.74286">
        <ele>364.44039360005</ele>
        <time>2014-12-07T08:44:51Z</time>
      </trkpt>
      <trkpt lat="47.49348" lon="6.74282">
        <ele>364.45700352007</ele>
        <time>2014-12-07T08:44:52Z</time>
      </trkpt>
      <trkpt lat="47.49349" lon="6.74278">
        <ele>364.26254975997</ele>
        <time>2014-12-07T08:44:53Z</time>
      </trkpt>
      <trkpt lat="47.49351" lon="6.74275">
        <ele>363.91229568004</ele>
        <time>2014-12-07T08:44:54Z</time>
      </trkpt>
      <trkpt lat="47.49353" lon="6.74272">
        <ele>363.39347520007</ele>
        <time>2014-12-07T08:44:55Z</time>
      </trkpt>
      <trkpt lat="47.49355" lon="6.74268">
        <ele>362.89765248002</ele>
        <time>2014-12-07T08:44:56Z</time>
      </trkpt>
      <trkpt lat="47.49357" lon="6.74265">
        <ele>362.40860351996</ele>
        <time>2014-12-07T08:44:57Z</time>
      </trkpt>
      <trkpt lat="47.49358" lon="6.74261">
        <ele>361.97042687997</ele>
        <time>2014-12-07T08:44:58Z</time>
      </trkpt>
      <trkpt lat="47.4936" lon="6.74258">
        <ele>361.67694720003</ele>
        <time>2014-12-07T08:44:59Z</time>
      </trkpt>
      <trkpt lat="47.49365" lon="6.74225">
        <ele>360.71042159991</ele>
        <time>2014-12-07T08:45:07Z</time>
      </trkpt>
      <trkpt lat="47.49366" lon="6.74219">
        <ele>360.5682816001</ele>
        <time>2014-12-07T08:45:09Z</time>
      </trkpt>
      <trkpt lat="47.49366" lon="6.74215">
        <ele>360.61404671995</ele>
        <time>2014-12-07T08:45:10Z</time>
      </trkpt>
      <trkpt lat="47.49366" lon="6.74211">
        <ele>360.68952575995</ele>
        <time>2014-12-07T08:45:11Z</time>
      </trkpt>
      <trkpt lat="47.49366" lon="6.74205">
        <ele>360.67053120005</ele>
        <time>2014-12-07T08:45:12Z</time>
      </trkpt>
      <trkpt lat="47.49367" lon="6.74198">
        <ele>360.48807359995</ele>
        <time>2014-12-07T08:45:13Z</time>
      </trkpt>
      <trkpt lat="47.49368" lon="6.74191">
        <ele>360.27532175993</ele>
        <time>2014-12-07T08:45:14Z</time>
      </trkpt>
      <trkpt lat="47.49369" lon="6.74183">
        <ele>359.99970624007</ele>
        <time>2014-12-07T08:45:15Z</time>
      </trkpt>
      <trkpt lat="47.49371" lon="6.74176">
        <ele>359.71942079998</ele>
        <time>2014-12-07T08:45:16Z</time>
      </trkpt>
      <trkpt lat="47.49372" lon="6.74169">
        <ele>359.39478383998</ele>
        <time>2014-12-07T08:45:17Z</time>
      </trkpt>
      <trkpt lat="47.49373" lon="6.74163">
        <ele>358.94060255989</ele>
        <time>2014-12-07T08:45:18Z</time>
      </trkpt>
      <trkpt lat="47.49375" lon="6.74156">
        <ele>358.40929536003</ele>
        <time>2014-12-07T08:45:19Z</time>
      </trkpt>
      <trkpt lat="47.49376" lon="6.7415">
        <ele>357.8363971201</ele>
        <time>2014-12-07T08:45:20Z</time>
      </trkpt>
      <trkpt lat="47.49378" lon="6.74145">
        <ele>357.32284608009</ele>
        <time>2014-12-07T08:45:21Z</time>
      </trkpt>
      <trkpt lat="47.49379" lon="6.7414">
        <ele>356.85841824001</ele>
        <time>2014-12-07T08:45:22Z</time>
      </trkpt>
      <trkpt lat="47.4938" lon="6.74135">
        <ele>356.38703904001</ele>
        <time>2014-12-07T08:45:23Z</time>
      </trkpt>
      <trkpt lat="47.49382" lon="6.74131">
        <ele>355.92920304</ele>
        <time>2014-12-07T08:45:24Z</time>
      </trkpt>
      <trkpt lat="47.49384" lon="6.74125">
        <ele>355.26383520009</ele>
        <time>2014-12-07T08:45:25Z</time>
      </trkpt>
      <trkpt lat="47.49386" lon="6.74117">
        <ele>354.56531039993</ele>
        <time>2014-12-07T08:45:26Z</time>
      </trkpt>
      <trkpt lat="47.49389" lon="6.74108">
        <ele>353.84356607991</ele>
        <time>2014-12-07T08:45:27Z</time>
      </trkpt>
      <trkpt lat="47.49391" lon="6.741">
        <ele>353.11353216002</ele>
        <time>2014-12-07T08:45:28Z</time>
      </trkpt>
      <trkpt lat="47.49394" lon="6.74092">
        <ele>352.43036159995</ele>
        <time>2014-12-07T08:45:29Z</time>
      </trkpt>
      <trkpt lat="47.49397" lon="6.74085">
        <ele>351.81122111999</ele>
        <time>2014-12-07T08:45:30Z</time>
      </trkpt>
      <trkpt lat="47.494" lon="6.74078">
        <ele>351.13224959994</ele>
        <time>2014-12-07T08:45:31Z</time>
      </trkpt>
      <trkpt lat="47.49401" lon="6.74073">
        <ele>350.91685343992</ele>
        <time>2014-12-07T08:45:32Z</time>
      </trkpt>
      <trkpt lat="47.49402" lon="6.74067">
        <ele>350.77881120006</ele>
        <time>2014-12-07T08:45:33Z</time>
      </trkpt>
      <trkpt lat="47.49402" lon="6.74063">
        <ele>350.71200000002</ele>
        <time>2014-12-07T08:45:34Z</time>
      </trkpt>
      <trkpt lat="47.49402" lon="6.74058">
        <ele>350.69389200003</ele>
        <time>2014-12-07T08:45:35Z</time>
      </trkpt>
      <trkpt lat="47.49403" lon="6.74053">
        <ele>350.63602176</ele>
        <time>2014-12-07T08:45:36Z</time>
      </trkpt>
      <trkpt lat="47.49404" lon="6.74048">
        <ele>350.52403199997</ele>
        <time>2014-12-07T08:45:37Z</time>
      </trkpt>
      <trkpt lat="47.49405" lon="6.74042">
        <ele>350.4039144</ele>
        <time>2014-12-07T08:45:38Z</time>
      </trkpt>
      <trkpt lat="47.49405" lon="6.74037">
        <ele>350.33468159993</ele>
        <time>2014-12-07T08:45:39Z</time>
      </trkpt>
      <trkpt lat="47.49406" lon="6.74031">
        <ele>350.32821119999</ele>
        <time>2014-12-07T08:45:40Z</time>
      </trkpt>
      <trkpt lat="47.49406" lon="6.74025">
        <ele>350.36382143995</ele>
        <time>2014-12-07T08:45:41Z</time>
      </trkpt>
      <trkpt lat="47.49406" lon="6.74019">
        <ele>350.43111792</ele>
        <time>2014-12-07T08:45:42Z</time>
      </trkpt>
      <trkpt lat="47.49406" lon="6.74011">
        <ele>350.44597631997</ele>
        <time>2014-12-07T08:45:43Z</time>
      </trkpt>
      <trkpt lat="47.49407" lon="6.74004">
        <ele>350.47122575995</ele>
        <time>2014-12-07T08:45:44Z</time>
      </trkpt>
      <trkpt lat="47.49407" lon="6.73996">
        <ele>350.34480000003</ele>
        <time>2014-12-07T08:45:45Z</time>
      </trkpt>
      <trkpt lat="47.49407" lon="6.73989">
        <ele>350.0472</ele>
        <time>2014-12-07T08:45:46Z</time>
      </trkpt>
      <trkpt lat="47.49408" lon="6.73981">
        <ele>349.716</ele>
        <time>2014-12-07T08:45:47Z</time>
      </trkpt>
      <trkpt lat="47.49408" lon="6.73973">
        <ele>349.35600000002</ele>
        <time>2014-12-07T08:45:48Z</time>
      </trkpt>
      <trkpt lat="47.49409" lon="6.73966">
        <ele>349.05360000003</ele>
        <time>2014-12-07T08:45:49Z</time>
      </trkpt>
      <trkpt lat="47.49409" lon="6.73959">
        <ele>348.79440000003</ele>
        <time>2014-12-07T08:45:50Z</time>
      </trkpt>
      <trkpt lat="47.49408" lon="6.73952">
        <ele>348.56879999999</ele>
        <time>2014-12-07T08:45:51Z</time>
      </trkpt>
      <trkpt lat="47.49408" lon="6.73945">
        <ele>348.33599999995</ele>
        <time>2014-12-07T08:45:52Z</time>
      </trkpt>
      <trkpt lat="47.49408" lon="6.73939">
        <ele>348.11400000002</ele>
        <time>2014-12-07T08:45:53Z</time>
      </trkpt>
      <trkpt lat="47.49408" lon="6.73932">
        <ele>347.88360000002</ele>
        <time>2014-12-07T08:45:54Z</time>
      </trkpt>
      <trkpt lat="47.49408" lon="6.73926">
        <ele>347.64839999995</ele>
        <time>2014-12-07T08:45:55Z</time>
      </trkpt>
      <trkpt lat="47.49409" lon="6.73921">
        <ele>347.41920000003</ele>
        <time>2014-12-07T08:45:56Z</time>
      </trkpt>
      <trkpt lat="47.49409" lon="6.73916">
        <ele>347.12836016001</ele>
        <time>2014-12-07T08:45:57Z</time>
      </trkpt>
      <trkpt lat="47.49411" lon="6.73911">
        <ele>346.80353503997</ele>
        <time>2014-12-07T08:45:58Z</time>
      </trkpt>
      <trkpt lat="47.49412" lon="6.73907">
        <ele>346.44096128004</ele>
        <time>2014-12-07T08:45:59Z</time>
      </trkpt>
      <trkpt lat="47.49415" lon="6.73897">
        <ele>345.73941248</ele>
        <time>2014-12-07T08:46:02Z</time>
      </trkpt>
      <trkpt lat="47.49416" lon="6.73892">
        <ele>345.46612447999</ele>
        <time>2014-12-07T08:46:04Z</time>
      </trkpt>
      <trkpt lat="47.49417" lon="6.73888">
        <ele>345.33834319997</ele>
        <time>2014-12-07T08:46:05Z</time>
      </trkpt>
      <trkpt lat="47.49417" lon="6.73883">
        <ele>345.21557599997</ele>
        <time>2014-12-07T08:46:06Z</time>
      </trkpt>
      <trkpt lat="47.49416" lon="6.73878">
        <ele>345.09708800003</ele>
        <time>2014-12-07T08:46:07Z</time>
      </trkpt>
      <trkpt lat="47.49416" lon="6.73872">
        <ele>345.02885119999</ele>
        <time>2014-12-07T08:46:08Z</time>
      </trkpt>
      <trkpt lat="47.49416" lon="6.73868">
        <ele>344.97597440005</ele>
        <time>2014-12-07T08:46:09Z</time>
      </trkpt>
      <trkpt lat="47.49415" lon="6.73862">
        <ele>344.8698464</ele>
        <time>2014-12-07T08:46:11Z</time>
      </trkpt>
      <trkpt lat="47.49415" lon="6.73858">
        <ele>344.80409743997</ele>
        <time>2014-12-07T08:46:12Z</time>
      </trkpt>
      <trkpt lat="47.49416" lon="6.73853">
        <ele>344.60597983998</ele>
        <time>2014-12-07T08:46:14Z</time>
      </trkpt>
      <trkpt lat="47.49416" lon="6.73852">
        <ele>344.52608959999</ele>
        <time>2014-12-07T08:46:15Z</time>
      </trkpt>
      <trkpt lat="47.49417" lon="6.73846">
        <ele>344.31957344</ele>
        <time>2014-12-07T08:46:18Z</time>
      </trkpt>
      <trkpt lat="47.49417" lon="6.73845">
        <ele>344.288336</ele>
        <time>2014-12-07T08:46:19Z</time>
      </trkpt>
      <trkpt lat="47.49414" lon="6.7384">
        <ele>344.54189696003</ele>
        <time>2014-12-07T08:46:27Z</time>
      </trkpt>
      <trkpt lat="47.49414" lon="6.73839">
        <ele>344.50644224003</ele>
        <time>2014-12-07T08:46:28Z</time>
      </trkpt>
      <trkpt lat="47.49413" lon="6.73833">
        <ele>344.49093663998</ele>
        <time>2014-12-07T08:46:32Z</time>
      </trkpt>
      <trkpt lat="47.49412" lon="6.73832">
        <ele>344.55285760003</ele>
        <time>2014-12-07T08:46:33Z</time>
      </trkpt>
      <trkpt lat="47.49414" lon="6.73827">
        <ele>344.43967647997</ele>
        <time>2014-12-07T08:47:45Z</time>
      </trkpt>
      <trkpt lat="47.49414" lon="6.73825">
        <ele>344.4788176</ele>
        <time>2014-12-07T08:47:46Z</time>
      </trkpt>
      <trkpt lat="47.49414" lon="6.73821">
        <ele>344.52766720003</ele>
        <time>2014-12-07T08:47:51Z</time>
      </trkpt>
      <trkpt lat="47.49413" lon="6.73819">
        <ele>344.58794272003</ele>
        <time>2014-12-07T08:47:52Z</time>
      </trkpt>
      <trkpt lat="47.49414" lon="6.73813">
        <ele>344.54722240004</ele>
        <time>2014-12-07T08:47:56Z</time>
      </trkpt>
      <trkpt lat="47.49415" lon="6.73812">
        <ele>344.49064191997</ele>
        <time>2014-12-07T08:47:57Z</time>
      </trkpt>
      <trkpt lat="47.49417" lon="6.73808">
        <ele>344.21464143995</ele>
        <time>2014-12-07T08:47:59Z</time>
      </trkpt>
      <trkpt lat="47.49418" lon="6.73805">
        <ele>344.17537696003</ele>
        <time>2014-12-07T08:48:02Z</time>
      </trkpt>
      <trkpt lat="47.49422" lon="6.73805">
        <ele>343.58124831998</ele>
        <time>2014-12-07T08:48:14Z</time>
      </trkpt>
      <trkpt lat="47.49422" lon="6.73805">
        <ele>343.53127456003</ele>
        <time>2014-12-07T08:48:15Z</time>
      </trkpt>
      <trkpt lat="47.49425" lon="6.738">
        <ele>343.13773407999</ele>
        <time>2014-12-07T08:48:18Z</time>
      </trkpt>
      <trkpt lat="47.49427" lon="6.73797">
        <ele>342.95335023999</ele>
        <time>2014-12-07T08:48:19Z</time>
      </trkpt>
      <trkpt lat="47.49429" lon="6.73792">
        <ele>342.71114079996</ele>
        <time>2014-12-07T08:48:21Z</time>
      </trkpt>
      <trkpt lat="47.49429" lon="6.73789">
        <ele>342.60668128005</ele>
        <time>2014-12-07T08:48:22Z</time>
      </trkpt>
      <trkpt lat="47.49432" lon="6.73784">
        <ele>342.28610847996</ele>
        <time>2014-12-07T08:48:24Z</time>
      </trkpt>
      <trkpt lat="47.49433" lon="6.73782">
        <ele>342.11570319999</ele>
        <time>2014-12-07T08:48:25Z</time>
      </trkpt>
      <trkpt lat="47.49435" lon="6.73776">
        <ele>341.74964991998</ele>
        <time>2014-12-07T08:48:27Z</time>
      </trkpt>
      <trkpt lat="47.49437" lon="6.73774">
        <ele>341.52388288002</ele>
        <time>2014-12-07T08:48:28Z</time>
      </trkpt>
      <trkpt lat="47.49438" lon="6.73771">
        <ele>341.31038848001</ele>
        <time>2014-12-07T08:48:29Z</time>
      </trkpt>
      <trkpt lat="47.4944" lon="6.73768">
        <ele>341.07748480005</ele>
        <time>2014-12-07T08:48:30Z</time>
      </trkpt>
      <trkpt lat="47.49441" lon="6.73765">
        <ele>340.82494048002</ele>
        <time>2014-12-07T08:48:31Z</time>
      </trkpt>
      <trkpt lat="47.49444" lon="6.73762">
        <ele>340.48710399995</ele>
        <time>2014-12-07T08:48:32Z</time>
      </trkpt>
      <trkpt lat="47.49446" lon="6.73759">
        <ele>340.06142223998</ele>
        <time>2014-12-07T08:48:33Z</time>
      </trkpt>
      <trkpt lat="47.49449" lon="6.73754">
        <ele>339.59326911997</ele>
        <time>2014-12-07T08:48:34Z</time>
      </trkpt>
      <trkpt lat="47.49452" lon="6.7375">
        <ele>339.08634112005</ele>
        <time>2014-12-07T08:48:35Z</time>
      </trkpt>
      <trkpt lat="47.49455" lon="6.73744">
        <ele>338.60123392002</ele>
        <time>2014-12-07T08:48:36Z</time>
      </trkpt>
      <trkpt lat="47.49458" lon="6.73739">
        <ele>338.15963775998</ele>
        <time>2014-12-07T08:48:37Z</time>
      </trkpt>
      <trkpt lat="47.49461" lon="6.73732">
        <ele>337.68156736003</ele>
        <time>2014-12-07T08:48:38Z</time>
      </trkpt>
      <trkpt lat="47.49464" lon="6.73726">
        <ele>337.22481663998</ele>
        <time>2014-12-07T08:48:39Z</time>
      </trkpt>
      <trkpt lat="47.49467" lon="6.7372">
        <ele>336.84773727997</ele>
        <time>2014-12-07T08:48:40Z</time>
      </trkpt>
      <trkpt lat="47.49469" lon="6.73714">
        <ele>336.45806079995</ele>
        <time>2014-12-07T08:48:41Z</time>
      </trkpt>
      <trkpt lat="47.49472" lon="6.73708">
        <ele>336.07951936002</ele>
        <time>2014-12-07T08:48:42Z</time>
      </trkpt>
      <trkpt lat="47.49475" lon="6.73702">
        <ele>335.63798079997</ele>
        <time>2014-12-07T08:48:43Z</time>
      </trkpt>
      <trkpt lat="47.49477" lon="6.73695">
        <ele>335.22567039995</ele>
        <time>2014-12-07T08:48:44Z</time>
      </trkpt>
      <trkpt lat="47.4948" lon="6.73689">
        <ele>334.76761504003</ele>
        <time>2014-12-07T08:48:45Z</time>
      </trkpt>
      <trkpt lat="47.49482" lon="6.73682">
        <ele>334.29945087998</ele>
        <time>2014-12-07T08:48:46Z</time>
      </trkpt>
      <trkpt lat="47.49485" lon="6.73676">
        <ele>333.84011200001</ele>
        <time>2014-12-07T08:48:47Z</time>
      </trkpt>
      <trkpt lat="47.49488" lon="6.73669">
        <ele>333.39051999999</ele>
        <time>2014-12-07T08:48:48Z</time>
      </trkpt>
      <trkpt lat="47.4949" lon="6.73663">
        <ele>333.04740880006</ele>
        <time>2014-12-07T08:48:49Z</time>
      </trkpt>
      <trkpt lat="47.49494" lon="6.73652">
        <ele>332.71362400003</ele>
        <time>2014-12-07T08:48:50Z</time>
      </trkpt>
      <trkpt lat="47.49496" lon="6.73645">
        <ele>332.54631039997</ele>
        <time>2014-12-07T08:48:51Z</time>
      </trkpt>
      <trkpt lat="47.49498" lon="6.7364">
        <ele>332.30908479999</ele>
        <time>2014-12-07T08:48:52Z</time>
      </trkpt>
      <trkpt lat="47.49501" lon="6.73636">
        <ele>332.07920704</ele>
        <time>2014-12-07T08:48:53Z</time>
      </trkpt>
      <trkpt lat="47.49504" lon="6.73632">
        <ele>332.178112</ele>
        <time>2014-12-07T08:48:54Z</time>
      </trkpt>
      <trkpt lat="47.49506" lon="6.73628">
        <ele>332.27363584</ele>
        <time>2014-12-07T08:48:54Z</time>
      </trkpt>
      <trkpt lat="47.49508" lon="6.73624">
        <ele>332.32644544</ele>
        <time>2014-12-07T08:48:56Z</time>
      </trkpt>
      <trkpt lat="47.49511" lon="6.7362">
        <ele>332.37598912</ele>
        <time>2014-12-07T08:48:57Z</time>
      </trkpt>
      <trkpt lat="47.49514" lon="6.73616">
        <ele>332.4182176</ele>
        <time>2014-12-07T08:48:58Z</time>
      </trkpt>
      <trkpt lat="47.49517" lon="6.73611">
        <ele>332.4484288</ele>
        <time>2014-12-07T08:48:59Z</time>
      </trkpt>
      <trkpt lat="47.49525" lon="6.73601">
        <ele>332.39899647999</ele>
        <time>2014-12-07T08:49:02Z</time>
      </trkpt>
      <trkpt lat="47.49529" lon="6.73598">
        <ele>332.34075136001</ele>
        <time>2014-12-07T08:49:03Z</time>
      </trkpt>
      <trkpt lat="47.49532" lon="6.73594">
        <ele>332.2748512</ele>
        <time>2014-12-07T08:49:04Z</time>
      </trkpt>
      <trkpt lat="47.49535" lon="6.73591">
        <ele>332.20647999999</ele>
        <time>2014-12-07T08:49:05Z</time>
      </trkpt>
      <trkpt lat="47.49539" lon="6.73587">
        <ele>332.09854720001</ele>
        <time>2014-12-07T08:49:06Z</time>
      </trkpt>
      <trkpt lat="47.49541" lon="6.73584">
        <ele>332.00823808</ele>
        <time>2014-12-07T08:49:07Z</time>
      </trkpt>
      <trkpt lat="47.49544" lon="6.7358">
        <ele>332.03430016001</ele>
        <time>2014-12-07T08:49:08Z</time>
      </trkpt>
      <trkpt lat="47.49548" lon="6.73578">
        <ele>331.99477792</ele>
        <time>2014-12-07T08:49:09Z</time>
      </trkpt>
      <trkpt lat="47.49551" lon="6.73575">
        <ele>331.97783919999</ele>
        <time>2014-12-07T08:49:10Z</time>
      </trkpt>
      <trkpt lat="47.49555" lon="6.73571">
        <ele>331.95692608002</ele>
        <time>2014-12-07T08:49:11Z</time>
      </trkpt>
      <trkpt lat="47.49558" lon="6.73568">
        <ele>331.93580800002</ele>
        <time>2014-12-07T08:49:12Z</time>
      </trkpt>
      <trkpt lat="47.49561" lon="6.73565">
        <ele>331.91486320001</ele>
        <time>2014-12-07T08:49:13Z</time>
      </trkpt>
      <trkpt lat="47.49565" lon="6.73561">
        <ele>331.87952991999</ele>
        <time>2014-12-07T08:49:14Z</time>
      </trkpt>
      <trkpt lat="47.49568" lon="6.73558">
        <ele>331.8328576</ele>
        <time>2014-12-07T08:49:15Z</time>
      </trkpt>
      <trkpt lat="47.49572" lon="6.73554">
        <ele>331.75967103999</ele>
        <time>2014-12-07T08:49:16Z</time>
      </trkpt>
      <trkpt lat="47.49575" lon="6.73551">
        <ele>331.67195775998</ele>
        <time>2014-12-07T08:49:17Z</time>
      </trkpt>
      <trkpt lat="47.49579" lon="6.73548">
        <ele>331.57272352</ele>
        <time>2014-12-07T08:49:18Z</time>
      </trkpt>
      <trkpt lat="47.49582" lon="6.73545">
        <ele>331.47985984002</ele>
        <time>2014-12-07T08:49:19Z</time>
      </trkpt>
      <trkpt lat="47.49585" lon="6.73542">
        <ele>331.49171872</ele>
        <time>2014-12-07T08:49:20Z</time>
      </trkpt>
      <trkpt lat="47.49588" lon="6.73539">
        <ele>331.60247104</ele>
        <time>2014-12-07T08:49:21Z</time>
      </trkpt>
      <trkpt lat="47.49592" lon="6.73535">
        <ele>331.71031936</ele>
        <time>2014-12-07T08:49:22Z</time>
      </trkpt>
      <trkpt lat="47.49595" lon="6.73532">
        <ele>331.81198048</ele>
        <time>2014-12-07T08:49:23Z</time>
      </trkpt>
      <trkpt lat="47.49598" lon="6.73529">
        <ele>331.90420288</ele>
        <time>2014-12-07T08:49:24Z</time>
      </trkpt>
      <trkpt lat="47.49602" lon="6.73526">
        <ele>331.99387648</ele>
        <time>2014-12-07T08:49:25Z</time>
      </trkpt>
      <trkpt lat="47.49605" lon="6.73522">
        <ele>332.07802528</ele>
        <time>2014-12-07T08:49:26Z</time>
      </trkpt>
      <trkpt lat="47.49608" lon="6.73519">
        <ele>332.15852128</ele>
        <time>2014-12-07T08:49:27Z</time>
      </trkpt>
      <trkpt lat="47.49611" lon="6.73515">
        <ele>332.23986976</ele>
        <time>2014-12-07T08:49:28Z</time>
      </trkpt>
      <trkpt lat="47.49614" lon="6.73512">
        <ele>332.3087008</ele>
        <time>2014-12-07T08:49:29Z</time>
      </trkpt>
      <trkpt lat="47.49617" lon="6.73508">
        <ele>332.3829376</ele>
        <time>2014-12-07T08:49:30Z</time>
      </trkpt>
      <trkpt lat="47.4962" lon="6.73505">
        <ele>332.4444496</ele>
        <time>2014-12-07T08:49:31Z</time>
      </trkpt>
      <trkpt lat="47.49623" lon="6.73501">
        <ele>332.5018816</ele>
        <time>2014-12-07T08:49:32Z</time>
      </trkpt>
      <trkpt lat="47.49626" lon="6.73497">
        <ele>332.59284832</ele>
        <time>2014-12-07T08:49:33Z</time>
      </trkpt>
      <trkpt lat="47.49629" lon="6.73493">
        <ele>332.69175808</ele>
        <time>2014-12-07T08:49:34Z</time>
      </trkpt>
      <trkpt lat="47.49632" lon="6.73489">
        <ele>332.78907136</ele>
        <time>2014-12-07T08:49:35Z</time>
      </trkpt>
      <trkpt lat="47.49634" lon="6.73485">
        <ele>332.87822751999</ele>
        <time>2014-12-07T08:49:36Z</time>
      </trkpt>
      <trkpt lat="47.49637" lon="6.73481">
        <ele>332.9645728</ele>
        <time>2014-12-07T08:49:37Z</time>
      </trkpt>
      <trkpt lat="47.4964" lon="6.73477">
        <ele>333.0484048</ele>
        <time>2014-12-07T08:49:38Z</time>
      </trkpt>
      <trkpt lat="47.49642" lon="6.73473">
        <ele>333.13467231999</ele>
        <time>2014-12-07T08:49:39Z</time>
      </trkpt>
      <trkpt lat="47.49644" lon="6.73469">
        <ele>333.21607936001</ele>
        <time>2014-12-07T08:49:40Z</time>
      </trkpt>
      <trkpt lat="47.49647" lon="6.73465">
        <ele>333.2912944</ele>
        <time>2014-12-07T08:49:41Z</time>
      </trkpt>
      <trkpt lat="47.4965" lon="6.7346">
        <ele>333.34984192</ele>
        <time>2014-12-07T08:49:42Z</time>
      </trkpt>
      <trkpt lat="47.49652" lon="6.73457">
        <ele>333.39112192</ele>
        <time>2014-12-07T08:49:43Z</time>
      </trkpt>
      <trkpt lat="47.49655" lon="6.73453">
        <ele>333.42098656</ele>
        <time>2014-12-07T08:49:44Z</time>
      </trkpt>
      <trkpt lat="47.49658" lon="6.73449">
        <ele>333.44467072001</ele>
        <time>2014-12-07T08:49:45Z</time>
      </trkpt>
      <trkpt lat="47.49661" lon="6.73446">
        <ele>333.4621744</ele>
        <time>2014-12-07T08:49:46Z</time>
      </trkpt>
      <trkpt lat="47.49664" lon="6.73442">
        <ele>333.4734976</ele>
        <time>2014-12-07T08:49:47Z</time>
      </trkpt>
      <trkpt lat="47.49667" lon="6.73438">
        <ele>333.48424032</ele>
        <time>2014-12-07T08:49:48Z</time>
      </trkpt>
      <trkpt lat="47.4967" lon="6.73434">
        <ele>333.55511232</ele>
        <time>2014-12-07T08:49:49Z</time>
      </trkpt>
      <trkpt lat="47.49673" lon="6.73431">
        <ele>333.62124</ele>
        <time>2014-12-07T08:49:50Z</time>
      </trkpt>
      <trkpt lat="47.49675" lon="6.73427">
        <ele>333.68236896</ele>
        <time>2014-12-07T08:49:51Z</time>
      </trkpt>
      <trkpt lat="47.49678" lon="6.73423">
        <ele>333.7347072</ele>
        <time>2014-12-07T08:49:52Z</time>
      </trkpt>
      <trkpt lat="47.49681" lon="6.73419">
        <ele>333.78216576</ele>
        <time>2014-12-07T08:49:53Z</time>
      </trkpt>
      <trkpt lat="47.49683" lon="6.73415">
        <ele>333.83259136</ele>
        <time>2014-12-07T08:49:54Z</time>
      </trkpt>
      <trkpt lat="47.49686" lon="6.73412">
        <ele>333.8949664</ele>
        <time>2014-12-07T08:49:55Z</time>
      </trkpt>
      <trkpt lat="47.49689" lon="6.73408">
        <ele>333.93884991999</ele>
        <time>2014-12-07T08:49:56Z</time>
      </trkpt>
      <trkpt lat="47.49692" lon="6.73404">
        <ele>333.9748864</ele>
        <time>2014-12-07T08:49:57Z</time>
      </trkpt>
      <trkpt lat="47.49694" lon="6.734">
        <ele>333.99923776001</ele>
        <time>2014-12-07T08:49:58Z</time>
      </trkpt>
      <trkpt lat="47.49697" lon="6.73397">
        <ele>334.01486272001</ele>
        <time>2014-12-07T08:49:59Z</time>
      </trkpt>
      <trkpt lat="47.49704" lon="6.73385">
        <ele>334.0052416</ele>
        <time>2014-12-07T08:50:02Z</time>
      </trkpt>
      <trkpt lat="47.49707" lon="6.73382">
        <ele>333.97209664</ele>
        <time>2014-12-07T08:50:03Z</time>
      </trkpt>
      <trkpt lat="47.4971" lon="6.73378">
        <ele>333.92396992</ele>
        <time>2014-12-07T08:50:04Z</time>
      </trkpt>
      <trkpt lat="47.49713" lon="6.73374">
        <ele>333.86440000001</ele>
        <time>2014-12-07T08:50:05Z</time>
      </trkpt>
      <trkpt lat="47.49715" lon="6.73369">
        <ele>333.79472704001</ele>
        <time>2014-12-07T08:50:06Z</time>
      </trkpt>
      <trkpt lat="47.49718" lon="6.73365">
        <ele>333.71632</ele>
        <time>2014-12-07T08:50:07Z</time>
      </trkpt>
      <trkpt lat="47.49721" lon="6.73361">
        <ele>333.62405055999</ele>
        <time>2014-12-07T08:50:08Z</time>
      </trkpt>
      <trkpt lat="47.49723" lon="6.73357">
        <ele>333.52337727999</ele>
        <time>2014-12-07T08:50:09Z</time>
      </trkpt>
      <trkpt lat="47.49726" lon="6.73352">
        <ele>333.40522240001</ele>
        <time>2014-12-07T08:50:10Z</time>
      </trkpt>
      <trkpt lat="47.49729" lon="6.73348">
        <ele>333.27400384</ele>
        <time>2014-12-07T08:50:11Z</time>
      </trkpt>
      <trkpt lat="47.49732" lon="6.73344">
        <ele>333.1242016</ele>
        <time>2014-12-07T08:50:12Z</time>
      </trkpt>
      <trkpt lat="47.49734" lon="6.7334">
        <ele>332.96141632</ele>
        <time>2014-12-07T08:50:13Z</time>
      </trkpt>
      <trkpt lat="47.49737" lon="6.73336">
        <ele>332.78618559999</ele>
        <time>2014-12-07T08:50:14Z</time>
      </trkpt>
      <trkpt lat="47.4974" lon="6.73332">
        <ele>332.67641247999</ele>
        <time>2014-12-07T08:50:15Z</time>
      </trkpt>
      <trkpt lat="47.49743" lon="6.73328">
        <ele>332.72935552</ele>
        <time>2014-12-07T08:50:16Z</time>
      </trkpt>
      <trkpt lat="47.49746" lon="6.73324">
        <ele>332.79455296</ele>
        <time>2014-12-07T08:50:17Z</time>
      </trkpt>
      <trkpt lat="47.49748" lon="6.7332">
        <ele>332.88324352001</ele>
        <time>2014-12-07T08:50:18Z</time>
      </trkpt>
      <trkpt lat="47.49751" lon="6.73316">
        <ele>333.01758496</ele>
        <time>2014-12-07T08:50:19Z</time>
      </trkpt>
      <trkpt lat="47.49754" lon="6.73312">
        <ele>333.2525968</ele>
        <time>2014-12-07T08:50:20Z</time>
      </trkpt>
      <trkpt lat="47.49756" lon="6.73308">
        <ele>333.4747648</ele>
        <time>2014-12-07T08:50:21Z</time>
      </trkpt>
      <trkpt lat="47.49759" lon="6.73304">
        <ele>333.6856576</ele>
        <time>2014-12-07T08:50:22Z</time>
      </trkpt>
      <trkpt lat="47.49762" lon="6.733">
        <ele>333.8952688</ele>
        <time>2014-12-07T08:50:23Z</time>
      </trkpt>
      <trkpt lat="47.49764" lon="6.73296">
        <ele>334.1141872</ele>
        <time>2014-12-07T08:50:24Z</time>
      </trkpt>
      <trkpt lat="47.49767" lon="6.73291">
        <ele>334.32292864</ele>
        <time>2014-12-07T08:50:25Z</time>
      </trkpt>
      <trkpt lat="47.49769" lon="6.73287">
        <ele>334.53200896</ele>
        <time>2014-12-07T08:50:26Z</time>
      </trkpt>
      <trkpt lat="47.49772" lon="6.73282">
        <ele>334.75233664</ele>
        <time>2014-12-07T08:50:27Z</time>
      </trkpt>
      <trkpt lat="47.49774" lon="6.73277">
        <ele>334.97515648</ele>
        <time>2014-12-07T08:50:28Z</time>
      </trkpt>
      <trkpt lat="47.49777" lon="6.73272">
        <ele>335.18569216</ele>
        <time>2014-12-07T08:50:29Z</time>
      </trkpt>
      <trkpt lat="47.49779" lon="6.73268">
        <ele>335.398264</ele>
        <time>2014-12-07T08:50:30Z</time>
      </trkpt>
      <trkpt lat="47.49781" lon="6.73263">
        <ele>335.60638144</ele>
        <time>2014-12-07T08:50:31Z</time>
      </trkpt>
      <trkpt lat="47.49783" lon="6.73258">
        <ele>335.81768704</ele>
        <time>2014-12-07T08:50:32Z</time>
      </trkpt>
      <trkpt lat="47.49785" lon="6.73253">
        <ele>336.02555776</ele>
        <time>2014-12-07T08:50:33Z</time>
      </trkpt>
      <trkpt lat="47.49787" lon="6.73248">
        <ele>336.1648</ele>
        <time>2014-12-07T08:50:34Z</time>
      </trkpt>
      <trkpt lat="47.49789" lon="6.73243">
        <ele>336.24159999999</ele>
        <time>2014-12-07T08:50:35Z</time>
      </trkpt>
      <trkpt lat="47.49791" lon="6.73238">
        <ele>336.31839999999</ele>
        <time>2014-12-07T08:50:36Z</time>
      </trkpt>
      <trkpt lat="47.49793" lon="6.73233">
        <ele>336.3904</ele>
        <time>2014-12-07T08:50:37Z</time>
      </trkpt>
      <trkpt lat="47.49794" lon="6.73228">
        <ele>336.47200000001</ele>
        <time>2014-12-07T08:50:38Z</time>
      </trkpt>
      <trkpt lat="47.49796" lon="6.73222">
        <ele>336.5536</ele>
        <time>2014-12-07T08:50:39Z</time>
      </trkpt>
      <trkpt lat="47.49798" lon="6.73217">
        <ele>336.6376</ele>
        <time>2014-12-07T08:50:40Z</time>
      </trkpt>
      <trkpt lat="47.498" lon="6.73212">
        <ele>336.7264</ele>
        <time>2014-12-07T08:50:41Z</time>
      </trkpt>
      <trkpt lat="47.49802" lon="6.73206">
        <ele>336.81039999999</ele>
        <time>2014-12-07T08:50:42Z</time>
      </trkpt>
      <trkpt lat="47.49803" lon="6.73202">
        <ele>336.89199999999</ele>
        <time>2014-12-07T08:50:43Z</time>
      </trkpt>
      <trkpt lat="47.49804" lon="6.73197">
        <ele>336.97599999999</ele>
        <time>2014-12-07T08:50:44Z</time>
      </trkpt>
      <trkpt lat="47.49806" lon="6.73192">
        <ele>337.06719999999</ele>
        <time>2014-12-07T08:50:45Z</time>
      </trkpt>
      <trkpt lat="47.49807" lon="6.73186">
        <ele>337.16559999999</ele>
        <time>2014-12-07T08:50:46Z</time>
      </trkpt>
      <trkpt lat="47.49809" lon="6.7318">
        <ele>337.2664</ele>
        <time>2014-12-07T08:50:47Z</time>
      </trkpt>
      <trkpt lat="47.4981" lon="6.73175">
        <ele>337.3672</ele>
        <time>2014-12-07T08:50:48Z</time>
      </trkpt>
      <trkpt lat="47.49811" lon="6.73169">
        <ele>337.4752</ele>
        <time>2014-12-07T08:50:49Z</time>
      </trkpt>
      <trkpt lat="47.49812" lon="6.73164">
        <ele>337.60025728001</ele>
        <time>2014-12-07T08:50:50Z</time>
      </trkpt>
      <trkpt lat="47.49814" lon="6.73159">
        <ele>337.74439359999</ele>
        <time>2014-12-07T08:50:51Z</time>
      </trkpt>
      <trkpt lat="47.49815" lon="6.73153">
        <ele>337.88257599999</ele>
        <time>2014-12-07T08:50:52Z</time>
      </trkpt>
      <trkpt lat="47.49817" lon="6.73149">
        <ele>338.0106064</ele>
        <time>2014-12-07T08:50:53Z</time>
      </trkpt>
      <trkpt lat="47.49818" lon="6.73144">
        <ele>338.14071040001</ele>
        <time>2014-12-07T08:50:54Z</time>
      </trkpt>
      <trkpt lat="47.4982" lon="6.73139">
        <ele>338.27968959999</ele>
        <time>2014-12-07T08:50:55Z</time>
      </trkpt>
      <trkpt lat="47.49821" lon="6.73134">
        <ele>338.43152128</ele>
        <time>2014-12-07T08:50:56Z</time>
      </trkpt>
      <trkpt lat="47.49822" lon="6.73128">
        <ele>338.58714879999</ele>
        <time>2014-12-07T08:50:57Z</time>
      </trkpt>
      <trkpt lat="47.49823" lon="6.73123">
        <ele>338.75511808</ele>
        <time>2014-12-07T08:50:58Z</time>
      </trkpt>
      <trkpt lat="47.49824" lon="6.73118">
        <ele>338.9294632</ele>
        <time>2014-12-07T08:50:59Z</time>
      </trkpt>
      <trkpt lat="47.49833" lon="6.73084">
        <ele>339.97764784</ele>
        <time>2014-12-07T08:51:07Z</time>
      </trkpt>
      <trkpt lat="47.49834" lon="6.7308">
        <ele>340.10194304</ele>
        <time>2014-12-07T08:51:08Z</time>
      </trkpt>
      <trkpt lat="47.49836" lon="6.73075">
        <ele>340.22602112</ele>
        <time>2014-12-07T08:51:09Z</time>
      </trkpt>
      <trkpt lat="47.49837" lon="6.73071">
        <ele>340.34444287999</ele>
        <time>2014-12-07T08:51:10Z</time>
      </trkpt>
      <trkpt lat="47.49839" lon="6.73066">
        <ele>340.46024672001</ele>
        <time>2014-12-07T08:51:11Z</time>
      </trkpt>
      <trkpt lat="47.49841" lon="6.73061">
        <ele>340.57102112001</ele>
        <time>2014-12-07T08:51:12Z</time>
      </trkpt>
      <trkpt lat="47.49843" lon="6.73056">
        <ele>340.68267296001</ele>
        <time>2014-12-07T08:51:13Z</time>
      </trkpt>
      <trkpt lat="47.49845" lon="6.7305">
        <ele>340.79494400001</ele>
        <time>2014-12-07T08:51:14Z</time>
      </trkpt>
      <trkpt lat="47.49847" lon="6.73045">
        <ele>340.89849151999</ele>
        <time>2014-12-07T08:51:15Z</time>
      </trkpt>
      <trkpt lat="47.49849" lon="6.7304">
        <ele>340.99359104</ele>
        <time>2014-12-07T08:51:16Z</time>
      </trkpt>
      <trkpt lat="47.4985" lon="6.73036">
        <ele>341.07418112001</ele>
        <time>2014-12-07T08:51:17Z</time>
      </trkpt>
      <trkpt lat="47.49852" lon="6.73031">
        <ele>341.15380832001</ele>
        <time>2014-12-07T08:51:18Z</time>
      </trkpt>
      <trkpt lat="47.49854" lon="6.73026">
        <ele>341.22675200001</ele>
        <time>2014-12-07T08:51:19Z</time>
      </trkpt>
      <trkpt lat="47.49856" lon="6.73021">
        <ele>341.30814079999</ele>
        <time>2014-12-07T08:51:20Z</time>
      </trkpt>
      <trkpt lat="47.49857" lon="6.73016">
        <ele>341.38971007998</ele>
        <time>2014-12-07T08:51:21Z</time>
      </trkpt>
      <trkpt lat="47.49859" lon="6.73012">
        <ele>341.43677695999</ele>
        <time>2014-12-07T08:51:22Z</time>
      </trkpt>
      <trkpt lat="47.49861" lon="6.73008">
        <ele>341.47622720001</ele>
        <time>2014-12-07T08:51:23Z</time>
      </trkpt>
      <trkpt lat="47.49862" lon="6.73003">
        <ele>341.51086208</ele>
        <time>2014-12-07T08:51:24Z</time>
      </trkpt>
      <trkpt lat="47.49865" lon="6.72999">
        <ele>341.53999999998</ele>
        <time>2014-12-07T08:51:25Z</time>
      </trkpt>
      <trkpt lat="47.49866" lon="6.72993">
        <ele>341.5832</ele>
        <time>2014-12-07T08:51:26Z</time>
      </trkpt>
      <trkpt lat="47.49868" lon="6.72988">
        <ele>341.62400000001</ele>
        <time>2014-12-07T08:51:27Z</time>
      </trkpt>
      <trkpt lat="47.4987" lon="6.72983">
        <ele>341.66720000001</ele>
        <time>2014-12-07T08:51:28Z</time>
      </trkpt>
      <trkpt lat="47.49872" lon="6.72978">
        <ele>341.70560000001</ele>
        <time>2014-12-07T08:51:29Z</time>
      </trkpt>
      <trkpt lat="47.49873" lon="6.72973">
        <ele>341.7416</ele>
        <time>2014-12-07T08:51:30Z</time>
      </trkpt>
      <trkpt lat="47.49875" lon="6.72968">
        <ele>341.7872</ele>
        <time>2014-12-07T08:51:31Z</time>
      </trkpt>
      <trkpt lat="47.49876" lon="6.72964">
        <ele>341.82560000001</ele>
        <time>2014-12-07T08:51:32Z</time>
      </trkpt>
      <trkpt lat="47.49878" lon="6.72959">
        <ele>341.8544</ele>
        <time>2014-12-07T08:51:33Z</time>
      </trkpt>
      <trkpt lat="47.49879" lon="6.72955">
        <ele>341.86640000002</ele>
        <time>2014-12-07T08:51:34Z</time>
      </trkpt>
      <trkpt lat="47.49881" lon="6.72951">
        <ele>341.86879999998</ele>
        <time>2014-12-07T08:51:35Z</time>
      </trkpt>
      <trkpt lat="47.49883" lon="6.72948">
        <ele>341.85679999999</ele>
        <time>2014-12-07T08:51:36Z</time>
      </trkpt>
      <trkpt lat="47.49885" lon="6.72945">
        <ele>341.83520000001</ele>
        <time>2014-12-07T08:51:37Z</time>
      </trkpt>
      <trkpt lat="47.49888" lon="6.72943">
        <ele>341.75599999999</ele>
        <time>2014-12-07T08:51:38Z</time>
      </trkpt>
      <trkpt lat="47.49891" lon="6.72942">
        <ele>341.63840000001</ele>
        <time>2014-12-07T08:51:39Z</time>
      </trkpt>
      <trkpt lat="47.49894" lon="6.72942">
        <ele>341.47520000002</ele>
        <time>2014-12-07T08:51:40Z</time>
      </trkpt>
      <trkpt lat="47.49898" lon="6.72942">
        <ele>341.26639999999</ele>
        <time>2014-12-07T08:51:41Z</time>
      </trkpt>
      <trkpt lat="47.49902" lon="6.72943">
        <ele>341.05039999999</ele>
        <time>2014-12-07T08:51:42Z</time>
      </trkpt>
      <trkpt lat="47.49906" lon="6.72944">
        <ele>340.84160000001</ele>
        <time>2014-12-07T08:51:43Z</time>
      </trkpt>
      <trkpt lat="47.4991" lon="6.72945">
        <ele>340.66639999999</ele>
        <time>2014-12-07T08:51:44Z</time>
      </trkpt>
      <trkpt lat="47.49913" lon="6.72944">
        <ele>340.52240000001</ele>
        <time>2014-12-07T08:51:45Z</time>
      </trkpt>
      <trkpt lat="47.49919" lon="6.72927">
        <ele>340.6936792</ele>
        <time>2014-12-07T08:51:46Z</time>
      </trkpt>
      <trkpt lat="47.49922" lon="6.7292">
        <ele>340.72932976</ele>
        <time>2014-12-07T08:51:47Z</time>
      </trkpt>
      <trkpt lat="47.49924" lon="6.72918">
        <ele>340.7164072</ele>
        <time>2014-12-07T08:51:48Z</time>
      </trkpt>
      <trkpt lat="47.49926" lon="6.72913">
        <ele>340.75559999999</ele>
        <time>2014-12-07T08:51:49Z</time>
      </trkpt>
      <trkpt lat="47.49929" lon="6.72908">
        <ele>340.776</ele>
        <time>2014-12-07T08:51:50Z</time>
      </trkpt>
      <trkpt lat="47.49931" lon="6.72904">
        <ele>340.78560000001</ele>
        <time>2014-12-07T08:51:51Z</time>
      </trkpt>
      <trkpt lat="47.49934" lon="6.72898">
        <ele>340.83359999999</ele>
        <time>2014-12-07T08:51:52Z</time>
      </trkpt>
      <trkpt lat="47.49935" lon="6.72892">
        <ele>340.92720000001</ele>
        <time>2014-12-07T08:51:53Z</time>
      </trkpt>
      <trkpt lat="47.49937" lon="6.72884">
        <ele>341.04239999999</ele>
        <time>2014-12-07T08:51:54Z</time>
      </trkpt>
      <trkpt lat="47.49938" lon="6.72876">
        <ele>341.19479999999</ele>
        <time>2014-12-07T08:51:55Z</time>
      </trkpt>
      <trkpt lat="47.49938" lon="6.72869">
        <ele>341.3844</ele>
        <time>2014-12-07T08:51:56Z</time>
      </trkpt>
      <trkpt lat="47.49938" lon="6.72862">
        <ele>341.5488</ele>
        <time>2014-12-07T08:51:57Z</time>
      </trkpt>
      <trkpt lat="47.49937" lon="6.72857">
        <ele>341.68799999999</ele>
        <time>2014-12-07T08:51:58Z</time>
      </trkpt>
      <trkpt lat="47.49937" lon="6.72852">
        <ele>341.83440000001</ele>
        <time>2014-12-07T08:51:59Z</time>
      </trkpt>
      <trkpt lat="47.49937" lon="6.72846">
        <ele>341.97360000001</ele>
        <time>2014-12-07T08:52:00Z</time>
      </trkpt>
      <trkpt lat="47.49929" lon="6.72812">
        <ele>342.4029504</ele>
        <time>2014-12-07T08:52:08Z</time>
      </trkpt>
      <trkpt lat="47.4993" lon="6.72804">
        <ele>342.33338783999</ele>
        <time>2014-12-07T08:52:09Z</time>
      </trkpt>
      <trkpt lat="47.4993" lon="6.72797">
        <ele>342.29248895999</ele>
        <time>2014-12-07T08:52:10Z</time>
      </trkpt>
      <trkpt lat="47.4993" lon="6.72791">
        <ele>342.25860576</ele>
        <time>2014-12-07T08:52:11Z</time>
      </trkpt>
      <trkpt lat="47.4993" lon="6.72784">
        <ele>342.21821280001</ele>
        <time>2014-12-07T08:52:12Z</time>
      </trkpt>
      <trkpt lat="47.49929" lon="6.72777">
        <ele>342.18096624</ele>
        <time>2014-12-07T08:52:13Z</time>
      </trkpt>
      <trkpt lat="47.49928" lon="6.7277">
        <ele>342.13723776</ele>
        <time>2014-12-07T08:52:14Z</time>
      </trkpt>
      <trkpt lat="47.49927" lon="6.72763">
        <ele>342.0994752</ele>
        <time>2014-12-07T08:52:15Z</time>
      </trkpt>
      <trkpt lat="47.49926" lon="6.72757">
        <ele>342.05309616</ele>
        <time>2014-12-07T08:52:16Z</time>
      </trkpt>
      <trkpt lat="47.49925" lon="6.72751">
        <ele>342.00581952</ele>
        <time>2014-12-07T08:52:17Z</time>
      </trkpt>
      <trkpt lat="47.49924" lon="6.72744">
        <ele>342.08235072</ele>
        <time>2014-12-07T08:52:18Z</time>
      </trkpt>
      <trkpt lat="47.49924" lon="6.72738">
        <ele>342.16970976</ele>
        <time>2014-12-07T08:52:19Z</time>
      </trkpt>
      <trkpt lat="47.49923" lon="6.72732">
        <ele>342.24401664</ele>
        <time>2014-12-07T08:52:20Z</time>
      </trkpt>
      <trkpt lat="47.49922" lon="6.72726">
        <ele>342.3235104</ele>
        <time>2014-12-07T08:52:21Z</time>
      </trkpt>
      <trkpt lat="47.49922" lon="6.72721">
        <ele>342.39457152</ele>
        <time>2014-12-07T08:52:22Z</time>
      </trkpt>
      <trkpt lat="47.49921" lon="6.72714">
        <ele>342.47603808</ele>
        <time>2014-12-07T08:52:23Z</time>
      </trkpt>
      <trkpt lat="47.49921" lon="6.72708">
        <ele>342.55737792</ele>
        <time>2014-12-07T08:52:24Z</time>
      </trkpt>
      <trkpt lat="47.49921" lon="6.72703">
        <ele>342.630648</ele>
        <time>2014-12-07T08:52:25Z</time>
      </trkpt>
      <trkpt lat="47.49921" lon="6.72697">
        <ele>342.7103088</ele>
        <time>2014-12-07T08:52:26Z</time>
      </trkpt>
      <trkpt lat="47.49921" lon="6.72691">
        <ele>342.78864192</ele>
        <time>2014-12-07T08:52:27Z</time>
      </trkpt>
      <trkpt lat="47.49921" lon="6.72685">
        <ele>342.86752512</ele>
        <time>2014-12-07T08:52:28Z</time>
      </trkpt>
      <trkpt lat="47.49921" lon="6.72679">
        <ele>342.94611456</ele>
        <time>2014-12-07T08:52:29Z</time>
      </trkpt>
      <trkpt lat="47.49922" lon="6.72674">
        <ele>343.02620448</ele>
        <time>2014-12-07T08:52:30Z</time>
      </trkpt>
      <trkpt lat="47.49922" lon="6.72668">
        <ele>343.1045376</ele>
        <time>2014-12-07T08:52:31Z</time>
      </trkpt>
      <trkpt lat="47.49923" lon="6.72663">
        <ele>343.22320000001</ele>
        <time>2014-12-07T08:52:32Z</time>
      </trkpt>
      <trkpt lat="47.49923" lon="6.72658">
        <ele>343.3624</ele>
        <time>2014-12-07T08:52:33Z</time>
      </trkpt>
      <trkpt lat="47.49923" lon="6.72652">
        <ele>343.50399999999</ele>
        <time>2014-12-07T08:52:34Z</time>
      </trkpt>
      <trkpt lat="47.49924" lon="6.72647">
        <ele>343.6552</ele>
        <time>2014-12-07T08:52:35Z</time>
      </trkpt>
      <trkpt lat="47.49924" lon="6.72641">
        <ele>343.80399999999</ele>
        <time>2014-12-07T08:52:36Z</time>
      </trkpt>
      <trkpt lat="47.49925" lon="6.72635">
        <ele>343.95520000001</ele>
        <time>2014-12-07T08:52:37Z</time>
      </trkpt>
      <trkpt lat="47.49926" lon="6.7263">
        <ele>344.10399999999</ele>
        <time>2014-12-07T08:52:38Z</time>
      </trkpt>
      <trkpt lat="47.49926" lon="6.72624">
        <ele>344.25519999999</ele>
        <time>2014-12-07T08:52:39Z</time>
      </trkpt>
      <trkpt lat="47.49927" lon="6.72618">
        <ele>344.404</ele>
        <time>2014-12-07T08:52:40Z</time>
      </trkpt>
      <trkpt lat="47.49927" lon="6.72613">
        <ele>344.5384</ele>
        <time>2014-12-07T08:52:41Z</time>
      </trkpt>
      <trkpt lat="47.49927" lon="6.72607">
        <ele>344.6728</ele>
        <time>2014-12-07T08:52:42Z</time>
      </trkpt>
      <trkpt lat="47.49927" lon="6.72601">
        <ele>344.812</ele>
        <time>2014-12-07T08:52:43Z</time>
      </trkpt>
      <trkpt lat="47.49927" lon="6.72596">
        <ele>344.94880000001</ele>
        <time>2014-12-07T08:52:44Z</time>
      </trkpt>
      <trkpt lat="47.49927" lon="6.7259">
        <ele>345.0832</ele>
        <time>2014-12-07T08:52:45Z</time>
      </trkpt>
      <trkpt lat="47.49927" lon="6.72584">
        <ele>345.2128</ele>
        <time>2014-12-07T08:52:46Z</time>
      </trkpt>
      <trkpt lat="47.49926" lon="6.72579">
        <ele>345.27952639999</ele>
        <time>2014-12-07T08:52:47Z</time>
      </trkpt>
      <trkpt lat="47.49926" lon="6.72574">
        <ele>345.33223808</ele>
        <time>2014-12-07T08:52:48Z</time>
      </trkpt>
      <trkpt lat="47.49926" lon="6.72568">
        <ele>345.38201168</ele>
        <time>2014-12-07T08:52:49Z</time>
      </trkpt>
      <trkpt lat="47.49926" lon="6.72563">
        <ele>345.43331456001</ele>
        <time>2014-12-07T08:52:50Z</time>
      </trkpt>
      <trkpt lat="47.49925" lon="6.72557">
        <ele>345.48723536001</ele>
        <time>2014-12-07T08:52:51Z</time>
      </trkpt>
      <trkpt lat="47.49925" lon="6.72552">
        <ele>345.54164000001</ele>
        <time>2014-12-07T08:52:52Z</time>
      </trkpt>
      <trkpt lat="47.49925" lon="6.72546">
        <ele>345.59761279999</ele>
        <time>2014-12-07T08:52:53Z</time>
      </trkpt>
      <trkpt lat="47.49924" lon="6.7254">
        <ele>345.65516672</ele>
        <time>2014-12-07T08:52:54Z</time>
      </trkpt>
      <trkpt lat="47.49924" lon="6.72535">
        <ele>345.71103584</ele>
        <time>2014-12-07T08:52:55Z</time>
      </trkpt>
      <trkpt lat="47.49924" lon="6.72529">
        <ele>345.7673888</ele>
        <time>2014-12-07T08:52:56Z</time>
      </trkpt>
      <trkpt lat="47.49924" lon="6.72523">
        <ele>345.8242256</ele>
        <time>2014-12-07T08:52:57Z</time>
      </trkpt>
      <trkpt lat="47.49923" lon="6.72518">
        <ele>345.88410703999</ele>
        <time>2014-12-07T08:52:58Z</time>
      </trkpt>
      <trkpt lat="47.49923" lon="6.72512">
        <ele>345.942944</ele>
        <time>2014-12-07T08:52:59Z</time>
      </trkpt>
      <trkpt lat="47.49922" lon="6.72496">
        <ele>346.1262416</ele>
        <time>2014-12-07T08:53:02Z</time>
      </trkpt>
      <trkpt lat="47.49922" lon="6.7249">
        <ele>346.196384</ele>
        <time>2014-12-07T08:53:03Z</time>
      </trkpt>
      <trkpt lat="47.49921" lon="6.72485">
        <ele>346.25664512</ele>
        <time>2014-12-07T08:53:04Z</time>
      </trkpt>
      <trkpt lat="47.49921" lon="6.7248">
        <ele>346.31558048</ele>
        <time>2014-12-07T08:53:05Z</time>
      </trkpt>
      <trkpt lat="47.4992" lon="6.72475">
        <ele>346.37367392</ele>
        <time>2014-12-07T08:53:06Z</time>
      </trkpt>
      <trkpt lat="47.4992" lon="6.7247">
        <ele>346.43528</ele>
        <time>2014-12-07T08:53:07Z</time>
      </trkpt>
      <trkpt lat="47.4992" lon="6.72464">
        <ele>346.49856224001</ele>
        <time>2014-12-07T08:53:08Z</time>
      </trkpt>
      <trkpt lat="47.4992" lon="6.72459">
        <ele>346.56183679999</ele>
        <time>2014-12-07T08:53:09Z</time>
      </trkpt>
      <trkpt lat="47.4992" lon="6.72454">
        <ele>346.62734527999</ele>
        <time>2014-12-07T08:53:10Z</time>
      </trkpt>
      <trkpt lat="47.4992" lon="6.72449">
        <ele>346.687616</ele>
        <time>2014-12-07T08:53:11Z</time>
      </trkpt>
      <trkpt lat="47.49919" lon="6.72444">
        <ele>346.75016192001</ele>
        <time>2014-12-07T08:53:12Z</time>
      </trkpt>
      <trkpt lat="47.49919" lon="6.72439">
        <ele>346.81624159999</ele>
        <time>2014-12-07T08:53:13Z</time>
      </trkpt>
      <trkpt lat="47.49919" lon="6.72433">
        <ele>346.89209984001</ele>
        <time>2014-12-07T08:53:14Z</time>
      </trkpt>
      <trkpt lat="47.4992" lon="6.72427">
        <ele>346.97158591999</ele>
        <time>2014-12-07T08:53:15Z</time>
      </trkpt>
      <trkpt lat="47.4992" lon="6.72421">
        <ele>347.05172864</ele>
        <time>2014-12-07T08:53:16Z</time>
      </trkpt>
      <trkpt lat="47.4992" lon="6.72416">
        <ele>347.14008959999</ele>
        <time>2014-12-07T08:53:17Z</time>
      </trkpt>
      <trkpt lat="47.4992" lon="6.7241">
        <ele>347.34259200001</ele>
        <time>2014-12-07T08:53:18Z</time>
      </trkpt>
      <trkpt lat="47.4992" lon="6.72405">
        <ele>347.55203424</ele>
        <time>2014-12-07T08:53:19Z</time>
      </trkpt>
      <trkpt lat="47.4992" lon="6.72399">
        <ele>347.7686184</ele>
        <time>2014-12-07T08:53:20Z</time>
      </trkpt>
      <trkpt lat="47.4992" lon="6.72392">
        <ele>348.00234672001</ele>
        <time>2014-12-07T08:53:21Z</time>
      </trkpt>
      <trkpt lat="47.4992" lon="6.72385">
        <ele>348.24319104</ele>
        <time>2014-12-07T08:53:22Z</time>
      </trkpt>
      <trkpt lat="47.49921" lon="6.72379">
        <ele>348.4762656</ele>
        <time>2014-12-07T08:53:23Z</time>
      </trkpt>
      <trkpt lat="47.49921" lon="6.72371">
        <ele>348.77091024001</ele>
        <time>2014-12-07T08:53:24Z</time>
      </trkpt>
      <trkpt lat="47.49921" lon="6.72365">
        <ele>348.99871584001</ele>
        <time>2014-12-07T08:53:25Z</time>
      </trkpt>
      <trkpt lat="47.49922" lon="6.72359">
        <ele>349.209864</ele>
        <time>2014-12-07T08:53:26Z</time>
      </trkpt>
      <trkpt lat="47.49922" lon="6.72354">
        <ele>349.38908159999</ele>
        <time>2014-12-07T08:53:27Z</time>
      </trkpt>
      <trkpt lat="47.49922" lon="6.72349">
        <ele>349.56020256</ele>
        <time>2014-12-07T08:53:28Z</time>
      </trkpt>
      <trkpt lat="47.49922" lon="6.72343">
        <ele>349.80052848</ele>
        <time>2014-12-07T08:53:29Z</time>
      </trkpt>
      <trkpt lat="47.49923" lon="6.72338">
        <ele>349.99841999999</ele>
        <time>2014-12-07T08:53:30Z</time>
      </trkpt>
      <trkpt lat="47.49923" lon="6.72332">
        <ele>350.1632</ele>
        <time>2014-12-07T08:53:31Z</time>
      </trkpt>
      <trkpt lat="47.49923" lon="6.72327">
        <ele>350.228</ele>
        <time>2014-12-07T08:53:32Z</time>
      </trkpt>
      <trkpt lat="47.49923" lon="6.72322">
        <ele>350.29159999999</ele>
        <time>2014-12-07T08:53:33Z</time>
      </trkpt>
      <trkpt lat="47.49923" lon="6.72316">
        <ele>350.36719999999</ele>
        <time>2014-12-07T08:53:34Z</time>
      </trkpt>
      <trkpt lat="47.49923" lon="6.7231">
        <ele>350.43559999999</ele>
        <time>2014-12-07T08:53:35Z</time>
      </trkpt>
      <trkpt lat="47.49923" lon="6.72305">
        <ele>350.5052</ele>
        <time>2014-12-07T08:53:36Z</time>
      </trkpt>
      <trkpt lat="47.49923" lon="6.72299">
        <ele>350.5748</ele>
        <time>2014-12-07T08:53:37Z</time>
      </trkpt>
      <trkpt lat="47.49923" lon="6.72293">
        <ele>350.6432</ele>
        <time>2014-12-07T08:53:38Z</time>
      </trkpt>
      <trkpt lat="47.49923" lon="6.72287">
        <ele>350.71039999999</ele>
        <time>2014-12-07T08:53:39Z</time>
      </trkpt>
      <trkpt lat="47.49923" lon="6.72282">
        <ele>350.7764</ele>
        <time>2014-12-07T08:53:40Z</time>
      </trkpt>
      <trkpt lat="47.49923" lon="6.72276">
        <ele>350.8436</ele>
        <time>2014-12-07T08:53:41Z</time>
      </trkpt>
      <trkpt lat="47.49923" lon="6.7227">
        <ele>350.91079999999</ele>
        <time>2014-12-07T08:53:42Z</time>
      </trkpt>
      <trkpt lat="47.49923" lon="6.72264">
        <ele>350.97800000001</ele>
        <time>2014-12-07T08:53:43Z</time>
      </trkpt>
      <trkpt lat="47.49922" lon="6.72258">
        <ele>351.044</ele>
        <time>2014-12-07T08:53:44Z</time>
      </trkpt>
      <trkpt lat="47.49922" lon="6.72252">
        <ele>351.11120000001</ele>
        <time>2014-12-07T08:53:45Z</time>
      </trkpt>
      <trkpt lat="47.49922" lon="6.72246">
        <ele>351.26164592</ele>
        <time>2014-12-07T08:53:46Z</time>
      </trkpt>
      <trkpt lat="47.49922" lon="6.7224">
        <ele>351.46496</ele>
        <time>2014-12-07T08:53:47Z</time>
      </trkpt>
      <trkpt lat="47.49922" lon="6.72234">
        <ele>351.66880111999</ele>
        <time>2014-12-07T08:53:48Z</time>
      </trkpt>
      <trkpt lat="47.49922" lon="6.72228">
        <ele>351.8649632</ele>
        <time>2014-12-07T08:53:49Z</time>
      </trkpt>
      <trkpt lat="47.49922" lon="6.72222">
        <ele>352.0553624</ele>
        <time>2014-12-07T08:53:50Z</time>
      </trkpt>
      <trkpt lat="47.49921" lon="6.72217">
        <ele>352.24334672</ele>
        <time>2014-12-07T08:53:51Z</time>
      </trkpt>
      <trkpt lat="47.49921" lon="6.72211">
        <ele>352.43106176</ele>
        <time>2014-12-07T08:53:52Z</time>
      </trkpt>
      <trkpt lat="47.49922" lon="6.72206">
        <ele>352.62265664</ele>
        <time>2014-12-07T08:53:53Z</time>
      </trkpt>
      <trkpt lat="47.49922" lon="6.722">
        <ele>352.81664096</ele>
        <time>2014-12-07T08:53:54Z</time>
      </trkpt>
      <trkpt lat="47.49923" lon="6.72194">
        <ele>353.01147248</ele>
        <time>2014-12-07T08:53:55Z</time>
      </trkpt>
      <trkpt lat="47.49924" lon="6.72189">
        <ele>353.19289472</ele>
        <time>2014-12-07T08:53:56Z</time>
      </trkpt>
      <trkpt lat="47.49925" lon="6.72183">
        <ele>353.3700104</ele>
        <time>2014-12-07T08:53:57Z</time>
      </trkpt>
      <trkpt lat="47.49926" lon="6.72178">
        <ele>353.543876</ele>
        <time>2014-12-07T08:53:58Z</time>
      </trkpt>
      <trkpt lat="47.49927" lon="6.72172">
        <ele>353.71193552</ele>
        <time>2014-12-07T08:53:59Z</time>
      </trkpt>
      <trkpt lat="47.49928" lon="6.72166">
        <ele>353.87823552</ele>
        <time>2014-12-07T08:54:00Z</time>
      </trkpt>
      <trkpt lat="47.49939" lon="6.72122">
        <ele>354.76078080001</ele>
        <time>2014-12-07T08:54:08Z</time>
      </trkpt>
      <trkpt lat="47.4994" lon="6.72117">
        <ele>354.83011391999</ele>
        <time>2014-12-07T08:54:09Z</time>
      </trkpt>
      <trkpt lat="47.49941" lon="6.72112">
        <ele>354.90328128</ele>
        <time>2014-12-07T08:54:10Z</time>
      </trkpt>
      <trkpt lat="47.49942" lon="6.72107">
        <ele>354.97471679999</ele>
        <time>2014-12-07T08:54:11Z</time>
      </trkpt>
      <trkpt lat="47.49943" lon="6.72101">
        <ele>355.05196800002</ele>
        <time>2014-12-07T08:54:12Z</time>
      </trkpt>
      <trkpt lat="47.49944" lon="6.72096">
        <ele>355.12211328001</ele>
        <time>2014-12-07T08:54:13Z</time>
      </trkpt>
      <trkpt lat="47.49944" lon="6.7209">
        <ele>355.20049344002</ele>
        <time>2014-12-07T08:54:14Z</time>
      </trkpt>
      <trkpt lat="47.49945" lon="6.72085">
        <ele>355.27902528001</ele>
        <time>2014-12-07T08:54:15Z</time>
      </trkpt>
      <trkpt lat="47.49945" lon="6.72079">
        <ele>355.39824255998</ele>
        <time>2014-12-07T08:54:16Z</time>
      </trkpt>
      <trkpt lat="47.49946" lon="6.72074">
        <ele>355.54401280001</ele>
        <time>2014-12-07T08:54:17Z</time>
      </trkpt>
      <trkpt lat="47.49946" lon="6.72068">
        <ele>355.68432640002</ele>
        <time>2014-12-07T08:54:18Z</time>
      </trkpt>
      <trkpt lat="47.49946" lon="6.72063">
        <ele>355.82805807999</ele>
        <time>2014-12-07T08:54:19Z</time>
      </trkpt>
      <trkpt lat="47.49946" lon="6.72058">
        <ele>355.97474799999</ele>
        <time>2014-12-07T08:54:20Z</time>
      </trkpt>
      <trkpt lat="47.49946" lon="6.72052">
        <ele>356.13254416</ele>
        <time>2014-12-07T08:54:21Z</time>
      </trkpt>
      <trkpt lat="47.49946" lon="6.72047">
        <ele>356.28441040001</ele>
        <time>2014-12-07T08:54:22Z</time>
      </trkpt>
      <trkpt lat="47.49945" lon="6.72042">
        <ele>356.44161327999</ele>
        <time>2014-12-07T08:54:23Z</time>
      </trkpt>
      <trkpt lat="47.49945" lon="6.72037">
        <ele>356.58475264001</ele>
        <time>2014-12-07T08:54:24Z</time>
      </trkpt>
      <trkpt lat="47.49945" lon="6.72032">
        <ele>356.73020799998</ele>
        <time>2014-12-07T08:54:25Z</time>
      </trkpt>
      <trkpt lat="47.49945" lon="6.72028">
        <ele>356.88338799998</ele>
        <time>2014-12-07T08:54:26Z</time>
      </trkpt>
      <trkpt lat="47.49944" lon="6.72023">
        <ele>357.03567424</ele>
        <time>2014-12-07T08:54:27Z</time>
      </trkpt>
      <trkpt lat="47.49944" lon="6.72018">
        <ele>357.19527040001</ele>
        <time>2014-12-07T08:54:28Z</time>
      </trkpt>
      <trkpt lat="47.49943" lon="6.72013">
        <ele>357.35139183998</ele>
        <time>2014-12-07T08:54:29Z</time>
      </trkpt>
      <trkpt lat="47.49943" lon="6.72009">
        <ele>357.5046904</ele>
        <time>2014-12-07T08:54:30Z</time>
      </trkpt>
      <trkpt lat="47.49943" lon="6.72004">
        <ele>357.65743599999</ele>
        <time>2014-12-07T08:54:31Z</time>
      </trkpt>
      <trkpt lat="47.49942" lon="6.71999">
        <ele>357.7927552</ele>
        <time>2014-12-07T08:54:32Z</time>
      </trkpt>
      <trkpt lat="47.49942" lon="6.71994">
        <ele>357.8530576</ele>
        <time>2014-12-07T08:54:33Z</time>
      </trkpt>
      <trkpt lat="47.49941" lon="6.71989">
        <ele>357.90741951999</ele>
        <time>2014-12-07T08:54:34Z</time>
      </trkpt>
      <trkpt lat="47.49941" lon="6.71983">
        <ele>357.96630976</ele>
        <time>2014-12-07T08:54:35Z</time>
      </trkpt>
      <trkpt lat="47.4994" lon="6.71978">
        <ele>358.02164896</ele>
        <time>2014-12-07T08:54:36Z</time>
      </trkpt>
      <trkpt lat="47.4994" lon="6.71974">
        <ele>358.06952703999</ele>
        <time>2014-12-07T08:54:37Z</time>
      </trkpt>
      <trkpt lat="47.49939" lon="6.71969">
        <ele>358.1195776</ele>
        <time>2014-12-07T08:54:38Z</time>
      </trkpt>
      <trkpt lat="47.49939" lon="6.71964">
        <ele>358.16452863999</ele>
        <time>2014-12-07T08:54:39Z</time>
      </trkpt>
      <trkpt lat="47.49938" lon="6.7196">
        <ele>358.207168</ele>
        <time>2014-12-07T08:54:40Z</time>
      </trkpt>
      <trkpt lat="47.49938" lon="6.71956">
        <ele>358.24817919999</ele>
        <time>2014-12-07T08:54:41Z</time>
      </trkpt>
      <trkpt lat="47.49938" lon="6.71951">
        <ele>358.29061120001</ele>
        <time>2014-12-07T08:54:42Z</time>
      </trkpt>
      <trkpt lat="47.49937" lon="6.71946">
        <ele>358.33136896</ele>
        <time>2014-12-07T08:54:43Z</time>
      </trkpt>
      <trkpt lat="47.49937" lon="6.71942">
        <ele>358.37164672001</ele>
        <time>2014-12-07T08:54:44Z</time>
      </trkpt>
      <trkpt lat="47.49936" lon="6.71937">
        <ele>358.41625024001</ele>
        <time>2014-12-07T08:54:45Z</time>
      </trkpt>
      <trkpt lat="47.49936" lon="6.71933">
        <ele>358.45300096</ele>
        <time>2014-12-07T08:54:46Z</time>
      </trkpt>
      <trkpt lat="47.49935" lon="6.71929">
        <ele>358.4892976</ele>
        <time>2014-12-07T08:54:47Z</time>
      </trkpt>
      <trkpt lat="47.49935" lon="6.71924">
        <ele>358.52231583999</ele>
        <time>2014-12-07T08:54:48Z</time>
      </trkpt>
      <trkpt lat="47.49934" lon="6.7192">
        <ele>358.56037983999</ele>
        <time>2014-12-07T08:54:49Z</time>
      </trkpt>
      <trkpt lat="47.49934" lon="6.71915">
        <ele>358.61</ele>
        <time>2014-12-07T08:54:50Z</time>
      </trkpt>
      <trkpt lat="47.49933" lon="6.7191">
        <ele>358.6844</ele>
        <time>2014-12-07T08:54:51Z</time>
      </trkpt>
      <trkpt lat="47.49932" lon="6.71906">
        <ele>358.75880000001</ele>
        <time>2014-12-07T08:54:52Z</time>
      </trkpt>
      <trkpt lat="47.49932" lon="6.71901">
        <ele>358.82840000001</ele>
        <time>2014-12-07T08:54:53Z</time>
      </trkpt>
      <trkpt lat="47.49931" lon="6.71896">
        <ele>358.898</ele>
        <time>2014-12-07T08:54:54Z</time>
      </trkpt>
      <trkpt lat="47.49931" lon="6.71892">
        <ele>358.964</ele>
        <time>2014-12-07T08:54:55Z</time>
      </trkpt>
      <trkpt lat="47.4993" lon="6.71888">
        <ele>359.0276</ele>
        <time>2014-12-07T08:54:56Z</time>
      </trkpt>
      <trkpt lat="47.49929" lon="6.71884">
        <ele>359.0936</ele>
        <time>2014-12-07T08:54:57Z</time>
      </trkpt>
      <trkpt lat="47.49929" lon="6.71879">
        <ele>359.16079999999</ele>
        <time>2014-12-07T08:54:58Z</time>
      </trkpt>
      <trkpt lat="47.49928" lon="6.71875">
        <ele>359.2292</ele>
        <time>2014-12-07T08:54:59Z</time>
      </trkpt>
      <trkpt lat="47.49927" lon="6.71861">
        <ele>359.4356</ele>
        <time>2014-12-07T08:55:02Z</time>
      </trkpt>
      <trkpt lat="47.49926" lon="6.71856">
        <ele>359.5016</ele>
        <time>2014-12-07T08:55:03Z</time>
      </trkpt>
      <trkpt lat="47.49926" lon="6.71852">
        <ele>359.56520000001</ele>
        <time>2014-12-07T08:55:04Z</time>
      </trkpt>
      <trkpt lat="47.49925" lon="6.71847">
        <ele>359.63479999999</ele>
        <time>2014-12-07T08:55:05Z</time>
      </trkpt>
      <trkpt lat="47.49925" lon="6.71842">
        <ele>359.702</ele>
        <time>2014-12-07T08:55:06Z</time>
      </trkpt>
      <trkpt lat="47.49924" lon="6.71837">
        <ele>359.7752</ele>
        <time>2014-12-07T08:55:07Z</time>
      </trkpt>
      <trkpt lat="47.49924" lon="6.71832">
        <ele>359.8369184</ele>
        <time>2014-12-07T08:55:08Z</time>
      </trkpt>
      <trkpt lat="47.49923" lon="6.71828">
        <ele>359.85545648</ele>
        <time>2014-12-07T08:55:09Z</time>
      </trkpt>
      <trkpt lat="47.49922" lon="6.71823">
        <ele>359.87559295999</ele>
        <time>2014-12-07T08:55:10Z</time>
      </trkpt>
      <trkpt lat="47.49922" lon="6.71818">
        <ele>359.89242176001</ele>
        <time>2014-12-07T08:55:11Z</time>
      </trkpt>
      <trkpt lat="47.49921" lon="6.71814">
        <ele>359.9038208</ele>
        <time>2014-12-07T08:55:12Z</time>
      </trkpt>
      <trkpt lat="47.49921" lon="6.7181">
        <ele>359.91280688</ele>
        <time>2014-12-07T08:55:13Z</time>
      </trkpt>
      <trkpt lat="47.4992" lon="6.71805">
        <ele>359.92547072</ele>
        <time>2014-12-07T08:55:14Z</time>
      </trkpt>
      <trkpt lat="47.4992" lon="6.71801">
        <ele>359.93368448</ele>
        <time>2014-12-07T08:55:15Z</time>
      </trkpt>
      <trkpt lat="47.4992" lon="6.71796">
        <ele>359.94359456</ele>
        <time>2014-12-07T08:55:16Z</time>
      </trkpt>
      <trkpt lat="47.49919" lon="6.71791">
        <ele>359.95289072</ele>
        <time>2014-12-07T08:55:17Z</time>
      </trkpt>
      <trkpt lat="47.49919" lon="6.71786">
        <ele>359.96165456</ele>
        <time>2014-12-07T08:55:18Z</time>
      </trkpt>
      <trkpt lat="47.49918" lon="6.71781">
        <ele>359.97313232</ele>
        <time>2014-12-07T08:55:19Z</time>
      </trkpt>
      <trkpt lat="47.49918" lon="6.71776">
        <ele>359.98533248</ele>
        <time>2014-12-07T08:55:20Z</time>
      </trkpt>
      <trkpt lat="47.49917" lon="6.71771">
        <ele>359.9950064</ele>
        <time>2014-12-07T08:55:21Z</time>
      </trkpt>
      <trkpt lat="47.49916" lon="6.71766">
        <ele>360.01800192</ele>
        <time>2014-12-07T08:55:22Z</time>
      </trkpt>
      <trkpt lat="47.49916" lon="6.71761">
        <ele>360.05288160001</ele>
        <time>2014-12-07T08:55:23Z</time>
      </trkpt>
      <trkpt lat="47.49915" lon="6.71755">
        <ele>360.09631392</ele>
        <time>2014-12-07T08:55:24Z</time>
      </trkpt>
      <trkpt lat="47.49915" lon="6.7175">
        <ele>360.14137344</ele>
        <time>2014-12-07T08:55:25Z</time>
      </trkpt>
      <trkpt lat="47.49914" lon="6.71746">
        <ele>360.23196288001</ele>
        <time>2014-12-07T08:55:26Z</time>
      </trkpt>
      <trkpt lat="47.49914" lon="6.71741">
        <ele>360.33526272</ele>
        <time>2014-12-07T08:55:27Z</time>
      </trkpt>
      <trkpt lat="47.49913" lon="6.71736">
        <ele>360.43939199999</ele>
        <time>2014-12-07T08:55:28Z</time>
      </trkpt>
      <trkpt lat="47.49912" lon="6.71731">
        <ele>360.55055856002</ele>
        <time>2014-12-07T08:55:29Z</time>
      </trkpt>
      <trkpt lat="47.49912" lon="6.71727">
        <ele>360.64759871998</ele>
        <time>2014-12-07T08:55:30Z</time>
      </trkpt>
      <trkpt lat="47.49911" lon="6.71722">
        <ele>360.74659295999</ele>
        <time>2014-12-07T08:55:31Z</time>
      </trkpt>
      <trkpt lat="47.49911" lon="6.71717">
        <ele>360.84116928002</ele>
        <time>2014-12-07T08:55:32Z</time>
      </trkpt>
      <trkpt lat="47.4991" lon="6.71712">
        <ele>360.94278143998</ele>
        <time>2014-12-07T08:55:33Z</time>
      </trkpt>
      <trkpt lat="47.4991" lon="6.71707">
        <ele>361.04380175999</ele>
        <time>2014-12-07T08:55:34Z</time>
      </trkpt>
      <trkpt lat="47.49909" lon="6.71702">
        <ele>361.15340015998</ele>
        <time>2014-12-07T08:55:35Z</time>
      </trkpt>
      <trkpt lat="47.49909" lon="6.71698">
        <ele>361.26119855998</ele>
        <time>2014-12-07T08:55:36Z</time>
      </trkpt>
      <trkpt lat="47.49908" lon="6.71693">
        <ele>361.36177247999</ele>
        <time>2014-12-07T08:55:37Z</time>
      </trkpt>
      <trkpt lat="47.49908" lon="6.71689">
        <ele>361.45902144</ele>
        <time>2014-12-07T08:55:38Z</time>
      </trkpt>
      <trkpt lat="47.49907" lon="6.71684">
        <ele>361.55275103998</ele>
        <time>2014-12-07T08:55:39Z</time>
      </trkpt>
      <trkpt lat="47.49907" lon="6.71679">
        <ele>361.63325855999</ele>
        <time>2014-12-07T08:55:40Z</time>
      </trkpt>
      <trkpt lat="47.49907" lon="6.71675">
        <ele>361.71270192001</ele>
        <time>2014-12-07T08:55:41Z</time>
      </trkpt>
      <trkpt lat="47.49907" lon="6.7167">
        <ele>361.79375952003</ele>
        <time>2014-12-07T08:55:42Z</time>
      </trkpt>
      <trkpt lat="47.49906" lon="6.71665">
        <ele>361.89559999998</ele>
        <time>2014-12-07T08:55:43Z</time>
      </trkpt>
      <trkpt lat="47.49906" lon="6.7166">
        <ele>362.00839999997</ele>
        <time>2014-12-07T08:55:44Z</time>
      </trkpt>
      <trkpt lat="47.49905" lon="6.71654">
        <ele>362.14399999998</ele>
        <time>2014-12-07T08:55:45Z</time>
      </trkpt>
      <trkpt lat="47.49904" lon="6.71648">
        <ele>362.31079999999</ele>
        <time>2014-12-07T08:55:46Z</time>
      </trkpt>
      <trkpt lat="47.49903" lon="6.71642">
        <ele>362.46439999998</ele>
        <time>2014-12-07T08:55:47Z</time>
      </trkpt>
      <trkpt lat="47.49902" lon="6.71635">
        <ele>362.61920000003</ele>
        <time>2014-12-07T08:55:48Z</time>
      </trkpt>
      <trkpt lat="47.49901" lon="6.71629">
        <ele>362.78239999999</ele>
        <time>2014-12-07T08:55:49Z</time>
      </trkpt>
      <trkpt lat="47.499" lon="6.71622">
        <ele>362.93719999998</ele>
        <time>2014-12-07T08:55:50Z</time>
      </trkpt>
      <trkpt lat="47.49899" lon="6.71615">
        <ele>363.09080000003</ele>
        <time>2014-12-07T08:55:51Z</time>
      </trkpt>
      <trkpt lat="47.49898" lon="6.71609">
        <ele>363.25159999999</ele>
        <time>2014-12-07T08:55:52Z</time>
      </trkpt>
      <trkpt lat="47.49897" lon="6.71603">
        <ele>363.38600000003</ele>
        <time>2014-12-07T08:55:53Z</time>
      </trkpt>
      <trkpt lat="47.49897" lon="6.71596">
        <ele>363.51200000002</ele>
        <time>2014-12-07T08:55:54Z</time>
      </trkpt>
      <trkpt lat="47.49896" lon="6.7159">
        <ele>363.62359999999</ele>
        <time>2014-12-07T08:55:55Z</time>
      </trkpt>
      <trkpt lat="47.49896" lon="6.71583">
        <ele>363.72797439999</ele>
        <time>2014-12-07T08:55:56Z</time>
      </trkpt>
      <trkpt lat="47.49896" lon="6.71576">
        <ele>363.77376639998</ele>
        <time>2014-12-07T08:55:57Z</time>
      </trkpt>
      <trkpt lat="47.49896" lon="6.7157">
        <ele>363.82249599998</ele>
        <time>2014-12-07T08:55:58Z</time>
      </trkpt>
      <trkpt lat="47.49895" lon="6.71563">
        <ele>363.8639464</ele>
        <time>2014-12-07T08:55:59Z</time>
      </trkpt>
      <trkpt lat="47.49896" lon="6.71555">
        <ele>363.81673600003</ele>
        <time>2014-12-07T08:56:00Z</time>
      </trkpt>
      <trkpt lat="47.49897" lon="6.71507">
        <ele>363.76110880004</ele>
        <time>2014-12-07T08:56:08Z</time>
      </trkpt>
      <trkpt lat="47.49898" lon="6.71501">
        <ele>363.64320879996</ele>
        <time>2014-12-07T08:56:09Z</time>
      </trkpt>
      <trkpt lat="47.49899" lon="6.71496">
        <ele>363.74850304004</ele>
        <time>2014-12-07T08:56:10Z</time>
      </trkpt>
      <trkpt lat="47.49899" lon="6.71491">
        <ele>363.91177312005</ele>
        <time>2014-12-07T08:56:11Z</time>
      </trkpt>
      <trkpt lat="47.49899" lon="6.71486">
        <ele>364.15764160001</ele>
        <time>2014-12-07T08:56:12Z</time>
      </trkpt>
      <trkpt lat="47.49899" lon="6.71481">
        <ele>364.33162239998</ele>
        <time>2014-12-07T08:56:13Z</time>
      </trkpt>
      <trkpt lat="47.499" lon="6.71476">
        <ele>364.42815999997</ele>
        <time>2014-12-07T08:56:14Z</time>
      </trkpt>
      <trkpt lat="47.49901" lon="6.71471">
        <ele>364.54482592002</ele>
        <time>2014-12-07T08:56:15Z</time>
      </trkpt>
      <trkpt lat="47.49901" lon="6.71466">
        <ele>364.71246783996</ele>
        <time>2014-12-07T08:56:16Z</time>
      </trkpt>
      <trkpt lat="47.49902" lon="6.71461">
        <ele>364.8681952</ele>
        <time>2014-12-07T08:56:17Z</time>
      </trkpt>
      <trkpt lat="47.49902" lon="6.71456">
        <ele>365.05566592001</ele>
        <time>2014-12-07T08:56:18Z</time>
      </trkpt>
      <trkpt lat="47.49902" lon="6.71451">
        <ele>365.23965472001</ele>
        <time>2014-12-07T08:56:19Z</time>
      </trkpt>
      <trkpt lat="47.49903" lon="6.71446">
        <ele>365.40728799996</ele>
        <time>2014-12-07T08:56:20Z</time>
      </trkpt>
      <trkpt lat="47.49903" lon="6.71441">
        <ele>365.60587840002</ele>
        <time>2014-12-07T08:56:21Z</time>
      </trkpt>
      <trkpt lat="47.49903" lon="6.71436">
        <ele>365.78368960003</ele>
        <time>2014-12-07T08:56:22Z</time>
      </trkpt>
      <trkpt lat="47.49903" lon="6.71431">
        <ele>365.9835904</ele>
        <time>2014-12-07T08:56:23Z</time>
      </trkpt>
      <trkpt lat="47.49903" lon="6.71426">
        <ele>366.19291455998</ele>
        <time>2014-12-07T08:56:24Z</time>
      </trkpt>
      <trkpt lat="47.49904" lon="6.71421">
        <ele>366.38631519999</ele>
        <time>2014-12-07T08:56:25Z</time>
      </trkpt>
      <trkpt lat="47.49904" lon="6.71415">
        <ele>366.55506399996</ele>
        <time>2014-12-07T08:56:26Z</time>
      </trkpt>
      <trkpt lat="47.49904" lon="6.7141">
        <ele>366.60558784002</ele>
        <time>2014-12-07T08:56:27Z</time>
      </trkpt>
      <trkpt lat="47.49904" lon="6.71404">
        <ele>366.65717872</ele>
        <time>2014-12-07T08:56:28Z</time>
      </trkpt>
      <trkpt lat="47.49905" lon="6.71399">
        <ele>366.6975664</ele>
        <time>2014-12-07T08:56:29Z</time>
      </trkpt>
      <trkpt lat="47.49905" lon="6.71393">
        <ele>366.74981247998</ele>
        <time>2014-12-07T08:56:30Z</time>
      </trkpt>
      <trkpt lat="47.49905" lon="6.71387">
        <ele>366.80173600004</ele>
        <time>2014-12-07T08:56:31Z</time>
      </trkpt>
      <trkpt lat="47.49905" lon="6.71382">
        <ele>366.86720703998</ele>
        <time>2014-12-07T08:56:32Z</time>
      </trkpt>
      <trkpt lat="47.49905" lon="6.71376">
        <ele>366.93387904001</ele>
        <time>2014-12-07T08:56:33Z</time>
      </trkpt>
      <trkpt lat="47.49905" lon="6.7137">
        <ele>367.01032576001</ele>
        <time>2014-12-07T08:56:34Z</time>
      </trkpt>
      <trkpt lat="47.49905" lon="6.71365">
        <ele>367.12365232001</ele>
        <time>2014-12-07T08:56:35Z</time>
      </trkpt>
      <trkpt lat="47.49905" lon="6.71359">
        <ele>367.22188192003</ele>
        <time>2014-12-07T08:56:36Z</time>
      </trkpt>
      <trkpt lat="47.49904" lon="6.71354">
        <ele>367.33056448003</ele>
        <time>2014-12-07T08:56:37Z</time>
      </trkpt>
      <trkpt lat="47.49904" lon="6.71349">
        <ele>367.44383056002</ele>
        <time>2014-12-07T08:56:38Z</time>
      </trkpt>
      <trkpt lat="47.49904" lon="6.71343">
        <ele>367.52254528002</ele>
        <time>2014-12-07T08:56:39Z</time>
      </trkpt>
      <trkpt lat="47.49904" lon="6.71337">
        <ele>367.64483584002</ele>
        <time>2014-12-07T08:56:40Z</time>
      </trkpt>
      <trkpt lat="47.49904" lon="6.71331">
        <ele>367.74901007998</ele>
        <time>2014-12-07T08:56:41Z</time>
      </trkpt>
      <trkpt lat="47.49903" lon="6.71326">
        <ele>367.89430559998</ele>
        <time>2014-12-07T08:56:42Z</time>
      </trkpt>
      <trkpt lat="47.49903" lon="6.7132">
        <ele>368.02366848</ele>
        <time>2014-12-07T08:56:43Z</time>
      </trkpt>
      <trkpt lat="47.49903" lon="6.71314">
        <ele>368.16261024</ele>
        <time>2014-12-07T08:56:44Z</time>
      </trkpt>
      <trkpt lat="47.49903" lon="6.71309">
        <ele>368.29293119999</ele>
        <time>2014-12-07T08:56:45Z</time>
      </trkpt>
      <trkpt lat="47.49902" lon="6.71304">
        <ele>368.42368367999</ele>
        <time>2014-12-07T08:56:46Z</time>
      </trkpt>
      <trkpt lat="47.49902" lon="6.71298">
        <ele>368.56475328004</ele>
        <time>2014-12-07T08:56:47Z</time>
      </trkpt>
      <trkpt lat="47.49902" lon="6.71293">
        <ele>368.7022464</ele>
        <time>2014-12-07T08:56:48Z</time>
      </trkpt>
      <trkpt lat="47.49901" lon="6.71288">
        <ele>368.83966991997</ele>
        <time>2014-12-07T08:56:49Z</time>
      </trkpt>
      <trkpt lat="47.49901" lon="6.71283">
        <ele>368.96425343996</ele>
        <time>2014-12-07T08:56:50Z</time>
      </trkpt>
      <trkpt lat="47.49901" lon="6.71277">
        <ele>369.08746320003</ele>
        <time>2014-12-07T08:56:51Z</time>
      </trkpt>
      <trkpt lat="47.499" lon="6.71272">
        <ele>369.21098784003</ele>
        <time>2014-12-07T08:56:52Z</time>
      </trkpt>
      <trkpt lat="47.499" lon="6.71267">
        <ele>369.32279999998</ele>
        <time>2014-12-07T08:56:53Z</time>
      </trkpt>
      <trkpt lat="47.499" lon="6.71261">
        <ele>369.44209151997</ele>
        <time>2014-12-07T08:56:54Z</time>
      </trkpt>
      <trkpt lat="47.49899" lon="6.71256">
        <ele>369.56000927997</ele>
        <time>2014-12-07T08:56:55Z</time>
      </trkpt>
      <trkpt lat="47.49899" lon="6.71251">
        <ele>369.68454240001</ele>
        <time>2014-12-07T08:56:56Z</time>
      </trkpt>
      <trkpt lat="47.49899" lon="6.71245">
        <ele>369.70099776</ele>
        <time>2014-12-07T08:56:57Z</time>
      </trkpt>
      <trkpt lat="47.49898" lon="6.7124">
        <ele>369.700992</ele>
        <time>2014-12-07T08:56:58Z</time>
      </trkpt>
      <trkpt lat="47.49898" lon="6.71235">
        <ele>369.68279807998</ele>
        <time>2014-12-07T08:56:59Z</time>
      </trkpt>
      <trkpt lat="47.49898" lon="6.7123">
        <ele>369.68286719997</ele>
        <time>2014-12-07T08:57:00Z</time>
      </trkpt>
      <trkpt lat="47.49896" lon="6.71192">
        <ele>369.66136512002</ele>
        <time>2014-12-07T08:57:08Z</time>
      </trkpt>
      <trkpt lat="47.49895" lon="6.71187">
        <ele>369.65512512002</ele>
        <time>2014-12-07T08:57:09Z</time>
      </trkpt>
      <trkpt lat="47.49895" lon="6.71182">
        <ele>369.64617504001</ele>
        <time>2014-12-07T08:57:10Z</time>
      </trkpt>
      <trkpt lat="47.49895" lon="6.71176">
        <ele>369.64127903999</ele>
        <time>2014-12-07T08:57:11Z</time>
      </trkpt>
      <trkpt lat="47.49894" lon="6.71171">
        <ele>369.64971359998</ele>
        <time>2014-12-07T08:57:12Z</time>
      </trkpt>
      <trkpt lat="47.49894" lon="6.71165">
        <ele>369.66895728001</ele>
        <time>2014-12-07T08:57:13Z</time>
      </trkpt>
      <trkpt lat="47.49893" lon="6.71159">
        <ele>369.75310655998</ele>
        <time>2014-12-07T08:57:14Z</time>
      </trkpt>
      <trkpt lat="47.49893" lon="6.71154">
        <ele>369.8311488</ele>
        <time>2014-12-07T08:57:15Z</time>
      </trkpt>
      <trkpt lat="47.49892" lon="6.71147">
        <ele>369.91107455998</ele>
        <time>2014-12-07T08:57:16Z</time>
      </trkpt>
      <trkpt lat="47.49892" lon="6.71141">
        <ele>369.98430911998</ele>
        <time>2014-12-07T08:57:17Z</time>
      </trkpt>
      <trkpt lat="47.49892" lon="6.71135">
        <ele>370.05784991998</ele>
        <time>2014-12-07T08:57:18Z</time>
      </trkpt>
      <trkpt lat="47.49892" lon="6.71129">
        <ele>370.12917120002</ele>
        <time>2014-12-07T08:57:19Z</time>
      </trkpt>
      <trkpt lat="47.49891" lon="6.71123">
        <ele>370.18683168001</ele>
        <time>2014-12-07T08:57:20Z</time>
      </trkpt>
      <trkpt lat="47.49891" lon="6.71117">
        <ele>370.25727456</ele>
        <time>2014-12-07T08:57:21Z</time>
      </trkpt>
      <trkpt lat="47.49891" lon="6.71111">
        <ele>370.3271904</ele>
        <time>2014-12-07T08:57:22Z</time>
      </trkpt>
      <trkpt lat="47.49891" lon="6.71104">
        <ele>370.3982256</ele>
        <time>2014-12-07T08:57:23Z</time>
      </trkpt>
      <trkpt lat="47.4989" lon="6.71098">
        <ele>370.47656112002</ele>
        <time>2014-12-07T08:57:24Z</time>
      </trkpt>
      <trkpt lat="47.4989" lon="6.71091">
        <ele>370.55414784</ele>
        <time>2014-12-07T08:57:25Z</time>
      </trkpt>
      <trkpt lat="47.49889" lon="6.71085">
        <ele>370.63179167999</ele>
        <time>2014-12-07T08:57:26Z</time>
      </trkpt>
      <trkpt lat="47.49889" lon="6.71078">
        <ele>370.74286976</ele>
        <time>2014-12-07T08:57:27Z</time>
      </trkpt>
      <trkpt lat="47.49889" lon="6.71071">
        <ele>370.86742016</ele>
        <time>2014-12-07T08:57:28Z</time>
      </trkpt>
      <trkpt lat="47.49889" lon="6.71064">
        <ele>370.96834879998</ele>
        <time>2014-12-07T08:57:29Z</time>
      </trkpt>
      <trkpt lat="47.49889" lon="6.71057">
        <ele>371.08101632001</ele>
        <time>2014-12-07T08:57:30Z</time>
      </trkpt>
      <trkpt lat="47.49889" lon="6.71051">
        <ele>371.18983808001</ele>
        <time>2014-12-07T08:57:31Z</time>
      </trkpt>
      <trkpt lat="47.49889" lon="6.71044">
        <ele>371.29705952001</ele>
        <time>2014-12-07T08:57:32Z</time>
      </trkpt>
      <trkpt lat="47.49889" lon="6.71037">
        <ele>371.3981504</ele>
        <time>2014-12-07T08:57:33Z</time>
      </trkpt>
      <trkpt lat="47.49889" lon="6.7103">
        <ele>371.49842431999</ele>
        <time>2014-12-07T08:57:34Z</time>
      </trkpt>
      <trkpt lat="47.4989" lon="6.71023">
        <ele>371.59093376</ele>
        <time>2014-12-07T08:57:35Z</time>
      </trkpt>
      <trkpt lat="47.4989" lon="6.71017">
        <ele>371.68990783999</ele>
        <time>2014-12-07T08:57:36Z</time>
      </trkpt>
      <trkpt lat="47.4989" lon="6.7101">
        <ele>371.79454688001</ele>
        <time>2014-12-07T08:57:37Z</time>
      </trkpt>
      <trkpt lat="47.49891" lon="6.71003">
        <ele>371.88727232001</ele>
        <time>2014-12-07T08:57:38Z</time>
      </trkpt>
      <trkpt lat="47.49891" lon="6.70996">
        <ele>371.99760992</ele>
        <time>2014-12-07T08:57:39Z</time>
      </trkpt>
      <trkpt lat="47.49892" lon="6.70989">
        <ele>372.11509088</ele>
        <time>2014-12-07T08:57:40Z</time>
      </trkpt>
      <trkpt lat="47.49892" lon="6.70983">
        <ele>372.23504864</ele>
        <time>2014-12-07T08:57:41Z</time>
      </trkpt>
      <trkpt lat="47.49893" lon="6.70976">
        <ele>372.35066048</ele>
        <time>2014-12-07T08:57:42Z</time>
      </trkpt>
      <trkpt lat="47.49893" lon="6.7097">
        <ele>372.46865264</ele>
        <time>2014-12-07T08:57:43Z</time>
      </trkpt>
      <trkpt lat="47.49894" lon="6.70964">
        <ele>372.58616959999</ele>
        <time>2014-12-07T08:57:44Z</time>
      </trkpt>
      <trkpt lat="47.49894" lon="6.70958">
        <ele>372.68806687999</ele>
        <time>2014-12-07T08:57:45Z</time>
      </trkpt>
      <trkpt lat="47.49895" lon="6.70952">
        <ele>372.78679904</ele>
        <time>2014-12-07T08:57:46Z</time>
      </trkpt>
      <trkpt lat="47.49895" lon="6.70947">
        <ele>372.89708</ele>
        <time>2014-12-07T08:57:47Z</time>
      </trkpt>
      <trkpt lat="47.49895" lon="6.70941">
        <ele>372.99739184</ele>
        <time>2014-12-07T08:57:48Z</time>
      </trkpt>
      <trkpt lat="47.49896" lon="6.70936">
        <ele>373.10653952</ele>
        <time>2014-12-07T08:57:49Z</time>
      </trkpt>
      <trkpt lat="47.49896" lon="6.7093">
        <ele>373.21456543999</ele>
        <time>2014-12-07T08:57:50Z</time>
      </trkpt>
      <trkpt lat="47.49896" lon="6.70925">
        <ele>373.31154944</ele>
        <time>2014-12-07T08:57:51Z</time>
      </trkpt>
      <trkpt lat="47.49897" lon="6.7092">
        <ele>373.4115704</ele>
        <time>2014-12-07T08:57:52Z</time>
      </trkpt>
      <trkpt lat="47.49897" lon="6.70915">
        <ele>373.50754063999</ele>
        <time>2014-12-07T08:57:53Z</time>
      </trkpt>
      <trkpt lat="47.49897" lon="6.7091">
        <ele>373.60390400001</ele>
        <time>2014-12-07T08:57:54Z</time>
      </trkpt>
      <trkpt lat="47.49898" lon="6.70905">
        <ele>373.70120912001</ele>
        <time>2014-12-07T08:57:55Z</time>
      </trkpt>
      <trkpt lat="47.49898" lon="6.709">
        <ele>373.79464208</ele>
        <time>2014-12-07T08:57:56Z</time>
      </trkpt>
      <trkpt lat="47.49898" lon="6.70896">
        <ele>373.88858624</ele>
        <time>2014-12-07T08:57:57Z</time>
      </trkpt>
      <trkpt lat="47.49899" lon="6.70891">
        <ele>373.97876480001</ele>
        <time>2014-12-07T08:57:58Z</time>
      </trkpt>
      <trkpt lat="47.49899" lon="6.70886">
        <ele>374.07162176</ele>
        <time>2014-12-07T08:57:59Z</time>
      </trkpt>
      <trkpt lat="47.499" lon="6.70878">
        <ele>374.25150799999</ele>
        <time>2014-12-07T08:58:00Z</time>
      </trkpt>
      <trkpt lat="47.49901" lon="6.70858">
        <ele>374.65136288</ele>
        <time>2014-12-07T08:58:05Z</time>
      </trkpt>
      <trkpt lat="47.49901" lon="6.70853">
        <ele>374.75533232</ele>
        <time>2014-12-07T08:58:06Z</time>
      </trkpt>
      <trkpt lat="47.49901" lon="6.70848">
        <ele>374.85831824</ele>
        <time>2014-12-07T08:58:07Z</time>
      </trkpt>
      <trkpt lat="47.49902" lon="6.70843">
        <ele>374.96490848</ele>
        <time>2014-12-07T08:58:08Z</time>
      </trkpt>
      <trkpt lat="47.49902" lon="6.70838">
        <ele>375.07789664</ele>
        <time>2014-12-07T08:58:09Z</time>
      </trkpt>
      <trkpt lat="47.49903" lon="6.70832">
        <ele>375.1788</ele>
        <time>2014-12-07T08:58:10Z</time>
      </trkpt>
      <trkpt lat="47.49903" lon="6.70827">
        <ele>375.2364</ele>
        <time>2014-12-07T08:58:11Z</time>
      </trkpt>
      <trkpt lat="47.49904" lon="6.70822">
        <ele>375.294</ele>
        <time>2014-12-07T08:58:12Z</time>
      </trkpt>
      <trkpt lat="47.49905" lon="6.70816">
        <ele>375.3492</ele>
        <time>2014-12-07T08:58:13Z</time>
      </trkpt>
      <trkpt lat="47.49905" lon="6.70811">
        <ele>375.4056</ele>
        <time>2014-12-07T08:58:14Z</time>
      </trkpt>
      <trkpt lat="47.49906" lon="6.70806">
        <ele>375.4608</ele>
        <time>2014-12-07T08:58:15Z</time>
      </trkpt>
      <trkpt lat="47.49906" lon="6.70801">
        <ele>375.5172</ele>
        <time>2014-12-07T08:58:16Z</time>
      </trkpt>
      <trkpt lat="47.49906" lon="6.70796">
        <ele>375.5748</ele>
        <time>2014-12-07T08:58:17Z</time>
      </trkpt>
      <trkpt lat="47.49906" lon="6.70791">
        <ele>375.6372</ele>
        <time>2014-12-07T08:58:18Z</time>
      </trkpt>
      <trkpt lat="47.49907" lon="6.70785">
        <ele>375.6996</ele>
        <time>2014-12-07T08:58:19Z</time>
      </trkpt>
      <trkpt lat="47.49907" lon="6.7078">
        <ele>375.7668</ele>
        <time>2014-12-07T08:58:20Z</time>
      </trkpt>
      <trkpt lat="47.49907" lon="6.70774">
        <ele>375.8352</ele>
        <time>2014-12-07T08:58:21Z</time>
      </trkpt>
      <trkpt lat="47.49907" lon="6.70768">
        <ele>375.906</ele>
        <time>2014-12-07T08:58:22Z</time>
      </trkpt>
      <trkpt lat="47.49906" lon="6.70762">
        <ele>375.9768</ele>
        <time>2014-12-07T08:58:23Z</time>
      </trkpt>
      <trkpt lat="47.49906" lon="6.70757">
        <ele>376.0464</ele>
        <time>2014-12-07T08:58:24Z</time>
      </trkpt>
      <trkpt lat="47.49906" lon="6.70751">
        <ele>376.1172</ele>
        <time>2014-12-07T08:58:25Z</time>
      </trkpt>
      <trkpt lat="47.49905" lon="6.70746">
        <ele>376.12968912</ele>
        <time>2014-12-07T08:58:26Z</time>
      </trkpt>
      <trkpt lat="47.49905" lon="6.70741">
        <ele>376.1251032</ele>
        <time>2014-12-07T08:58:27Z</time>
      </trkpt>
      <trkpt lat="47.49905" lon="6.70735">
        <ele>376.1200704</ele>
        <time>2014-12-07T08:58:28Z</time>
      </trkpt>
      <trkpt lat="47.49904" lon="6.7073">
        <ele>376.11424608</ele>
        <time>2014-12-07T08:58:29Z</time>
      </trkpt>
      <trkpt lat="47.49904" lon="6.70724">
        <ele>376.10678304</ele>
        <time>2014-12-07T08:58:30Z</time>
      </trkpt>
      <trkpt lat="47.49904" lon="6.70719">
        <ele>376.0986552</ele>
        <time>2014-12-07T08:58:31Z</time>
      </trkpt>
      <trkpt lat="47.49903" lon="6.70713">
        <ele>376.09023744</ele>
        <time>2014-12-07T08:58:32Z</time>
      </trkpt>
      <trkpt lat="47.49903" lon="6.70708">
        <ele>376.08114624</ele>
        <time>2014-12-07T08:58:33Z</time>
      </trkpt>
      <trkpt lat="47.49903" lon="6.70702">
        <ele>376.07177376</ele>
        <time>2014-12-07T08:58:34Z</time>
      </trkpt>
      <trkpt lat="47.49902" lon="6.70697">
        <ele>376.06190592</ele>
        <time>2014-12-07T08:58:35Z</time>
      </trkpt>
      <trkpt lat="47.49902" lon="6.70692">
        <ele>376.05194112</ele>
        <time>2014-12-07T08:58:36Z</time>
      </trkpt>
      <trkpt lat="47.49902" lon="6.70686">
        <ele>376.0412544</ele>
        <time>2014-12-07T08:58:37Z</time>
      </trkpt>
      <trkpt lat="47.49902" lon="6.70681">
        <ele>376.03047072</ele>
        <time>2014-12-07T08:58:38Z</time>
      </trkpt>
      <trkpt lat="47.49902" lon="6.70675">
        <ele>376.01873088</ele>
        <time>2014-12-07T08:58:39Z</time>
      </trkpt>
      <trkpt lat="47.49901" lon="6.7067">
        <ele>376.00649088</ele>
        <time>2014-12-07T08:58:40Z</time>
      </trkpt>
      <trkpt lat="47.49901" lon="6.70664">
        <ele>375.9805984</ele>
        <time>2014-12-07T08:58:41Z</time>
      </trkpt>
      <trkpt lat="47.49901" lon="6.70658">
        <ele>375.93746176</ele>
        <time>2014-12-07T08:58:42Z</time>
      </trkpt>
      <trkpt lat="47.499" lon="6.70651">
        <ele>375.89131264</ele>
        <time>2014-12-07T08:58:43Z</time>
      </trkpt>
      <trkpt lat="47.499" lon="6.70645">
        <ele>375.84350464</ele>
        <time>2014-12-07T08:58:44Z</time>
      </trkpt>
      <trkpt lat="47.499" lon="6.70638">
        <ele>375.79403776</ele>
        <time>2014-12-07T08:58:45Z</time>
      </trkpt>
      <trkpt lat="47.499" lon="6.70632">
        <ele>375.7443952</ele>
        <time>2014-12-07T08:58:46Z</time>
      </trkpt>
      <trkpt lat="47.49899" lon="6.70626">
        <ele>375.69138879999</ele>
        <time>2014-12-07T08:58:47Z</time>
      </trkpt>
      <trkpt lat="47.49899" lon="6.7062">
        <ele>375.63980799999</ele>
        <time>2014-12-07T08:58:48Z</time>
      </trkpt>
      <trkpt lat="47.49899" lon="6.70614">
        <ele>375.5889472</ele>
        <time>2014-12-07T08:58:49Z</time>
      </trkpt>
      <trkpt lat="47.49898" lon="6.70608">
        <ele>375.53372176001</ele>
        <time>2014-12-07T08:58:50Z</time>
      </trkpt>
      <trkpt lat="47.49898" lon="6.70602">
        <ele>375.47330224</ele>
        <time>2014-12-07T08:58:51Z</time>
      </trkpt>
      <trkpt lat="47.49898" lon="6.70595">
        <ele>375.41216704</ele>
        <time>2014-12-07T08:58:52Z</time>
      </trkpt>
      <trkpt lat="47.49897" lon="6.70589">
        <ele>375.3502096</ele>
        <time>2014-12-07T08:58:53Z</time>
      </trkpt>
      <trkpt lat="47.49897" lon="6.70583">
        <ele>375.29245568001</ele>
        <time>2014-12-07T08:58:54Z</time>
      </trkpt>
      <trkpt lat="47.49897" lon="6.70576">
        <ele>375.23175680001</ele>
        <time>2014-12-07T08:58:55Z</time>
      </trkpt>
      <trkpt lat="47.49897" lon="6.7057">
        <ele>375.16949503999</ele>
        <time>2014-12-07T08:58:56Z</time>
      </trkpt>
      <trkpt lat="47.49897" lon="6.70563">
        <ele>375.10980943999</ele>
        <time>2014-12-07T08:58:57Z</time>
      </trkpt>
      <trkpt lat="47.49898" lon="6.70556">
        <ele>375.06385279999</ele>
        <time>2014-12-07T08:58:58Z</time>
      </trkpt>
      <trkpt lat="47.49898" lon="6.7055">
        <ele>375.0067184</ele>
        <time>2014-12-07T08:58:59Z</time>
      </trkpt>
      <trkpt lat="47.49898" lon="6.7053">
        <ele>374.82101023999</ele>
        <time>2014-12-07T08:59:02Z</time>
      </trkpt>
      <trkpt lat="47.49898" lon="6.70524">
        <ele>374.76080384</ele>
        <time>2014-12-07T08:59:03Z</time>
      </trkpt>
      <trkpt lat="47.49898" lon="6.70517">
        <ele>374.71216640001</ele>
        <time>2014-12-07T08:59:04Z</time>
      </trkpt>
      <trkpt lat="47.49899" lon="6.70511">
        <ele>374.67260192001</ele>
        <time>2014-12-07T08:59:05Z</time>
      </trkpt>
      <trkpt lat="47.49899" lon="6.70506">
        <ele>374.63616943999</ele>
        <time>2014-12-07T08:59:06Z</time>
      </trkpt>
      <trkpt lat="47.499" lon="6.70501">
        <ele>374.59853408001</ele>
        <time>2014-12-07T08:59:07Z</time>
      </trkpt>
      <trkpt lat="47.49897" lon="6.70499">
        <ele>374.52850688</ele>
        <time>2014-12-07T08:59:08Z</time>
      </trkpt>
      <trkpt lat="47.49893" lon="6.705">
        <ele>374.42686207999</ele>
        <time>2014-12-07T08:59:10Z</time>
      </trkpt>
      <trkpt lat="47.49891" lon="6.705">
        <ele>374.38002752</ele>
        <time>2014-12-07T08:59:11Z</time>
      </trkpt>
      <trkpt lat="47.49889" lon="6.70501">
        <ele>374.34158336</ele>
        <time>2014-12-07T08:59:12Z</time>
      </trkpt>
      <trkpt lat="47.49887" lon="6.70504">
        <ele>374.31000223999</ele>
        <time>2014-12-07T08:59:13Z</time>
      </trkpt>
      <trkpt lat="47.49884" lon="6.70507">
        <ele>374.27486912</ele>
        <time>2014-12-07T08:59:14Z</time>
      </trkpt>
      <trkpt lat="47.49882" lon="6.7051">
        <ele>374.23763407999</ele>
        <time>2014-12-07T08:59:15Z</time>
      </trkpt>
      <trkpt lat="47.49879" lon="6.70515">
        <ele>374.1965696</ele>
        <time>2014-12-07T08:59:16Z</time>
      </trkpt>
      <trkpt lat="47.49876" lon="6.70519">
        <ele>374.15019008</ele>
        <time>2014-12-07T08:59:17Z</time>
      </trkpt>
      <trkpt lat="47.49874" lon="6.70523">
        <ele>374.09703200001</ele>
        <time>2014-12-07T08:59:18Z</time>
      </trkpt>
      <trkpt lat="47.49871" lon="6.70527">
        <ele>374.0370392</ele>
        <time>2014-12-07T08:59:19Z</time>
      </trkpt>
      <trkpt lat="47.49868" lon="6.70531">
        <ele>373.97252</ele>
        <time>2014-12-07T08:59:20Z</time>
      </trkpt>
      <trkpt lat="47.49864" lon="6.70535">
        <ele>373.89793424</ele>
        <time>2014-12-07T08:59:21Z</time>
      </trkpt>
      <trkpt lat="47.49861" lon="6.70539">
        <ele>373.8262472</ele>
        <time>2014-12-07T08:59:22Z</time>
      </trkpt>
      <trkpt lat="47.49858" lon="6.70542">
        <ele>373.75464704</ele>
        <time>2014-12-07T08:59:23Z</time>
      </trkpt>
      <trkpt lat="47.49856" lon="6.70547">
        <ele>373.68656719999</ele>
        <time>2014-12-07T08:59:24Z</time>
      </trkpt>
      <trkpt lat="47.49853" lon="6.70551">
        <ele>373.61558240001</ele>
        <time>2014-12-07T08:59:25Z</time>
      </trkpt>
      <trkpt lat="47.4985" lon="6.70555">
        <ele>373.53495055999</ele>
        <time>2014-12-07T08:59:26Z</time>
      </trkpt>
      <trkpt lat="47.49847" lon="6.70559">
        <ele>373.45406191999</ele>
        <time>2014-12-07T08:59:27Z</time>
      </trkpt>
      <trkpt lat="47.49845" lon="6.70563">
        <ele>373.36962559999</ele>
        <time>2014-12-07T08:59:28Z</time>
      </trkpt>
      <trkpt lat="47.49842" lon="6.70567">
        <ele>373.27851392</ele>
        <time>2014-12-07T08:59:29Z</time>
      </trkpt>
      <trkpt lat="47.49839" lon="6.70571">
        <ele>373.18732735999</ele>
        <time>2014-12-07T08:59:30Z</time>
      </trkpt>
      <trkpt lat="47.49836" lon="6.70575">
        <ele>373.09283839999</ele>
        <time>2014-12-07T08:59:31Z</time>
      </trkpt>
      <trkpt lat="47.49833" lon="6.70579">
        <ele>372.99946624</ele>
        <time>2014-12-07T08:59:32Z</time>
      </trkpt>
      <trkpt lat="47.4983" lon="6.70582">
        <ele>372.99738112</ele>
        <time>2014-12-07T08:59:33Z</time>
      </trkpt>
      <trkpt lat="47.49828" lon="6.70586">
        <ele>373.09083648</ele>
        <time>2014-12-07T08:59:34Z</time>
      </trkpt>
      <trkpt lat="47.49825" lon="6.70589">
        <ele>373.22585472</ele>
        <time>2014-12-07T08:59:35Z</time>
      </trkpt>
      <trkpt lat="47.49822" lon="6.70593">
        <ele>373.36015056</ele>
        <time>2014-12-07T08:59:36Z</time>
      </trkpt>
      <trkpt lat="47.49819" lon="6.70596">
        <ele>373.48994208</ele>
        <time>2014-12-07T08:59:37Z</time>
      </trkpt>
      <trkpt lat="47.49816" lon="6.706">
        <ele>373.622352</ele>
        <time>2014-12-07T08:59:38Z</time>
      </trkpt>
      <trkpt lat="47.49813" lon="6.70602">
        <ele>373.74195264</ele>
        <time>2014-12-07T08:59:39Z</time>
      </trkpt>
      <trkpt lat="47.4981" lon="6.70605">
        <ele>373.86004224</ele>
        <time>2014-12-07T08:59:40Z</time>
      </trkpt>
      <trkpt lat="47.49807" lon="6.70608">
        <ele>373.97252064</ele>
        <time>2014-12-07T08:59:41Z</time>
      </trkpt>
      <trkpt lat="47.49804" lon="6.7061">
        <ele>374.08393056</ele>
        <time>2014-12-07T08:59:42Z</time>
      </trkpt>
      <trkpt lat="47.49801" lon="6.70613">
        <ele>374.19757248</ele>
        <time>2014-12-07T08:59:43Z</time>
      </trkpt>
      <trkpt lat="47.49798" lon="6.70615">
        <ele>374.3175552</ele>
        <time>2014-12-07T08:59:44Z</time>
      </trkpt>
      <trkpt lat="47.49795" lon="6.70618">
        <ele>374.43155232</ele>
        <time>2014-12-07T08:59:45Z</time>
      </trkpt>
      <trkpt lat="47.49792" lon="6.7062">
        <ele>374.55189024</ele>
        <time>2014-12-07T08:59:46Z</time>
      </trkpt>
      <trkpt lat="47.49789" lon="6.70623">
        <ele>374.67021744</ele>
        <time>2014-12-07T08:59:47Z</time>
      </trkpt>
      <trkpt lat="47.49786" lon="6.70625">
        <ele>374.79068736</ele>
        <time>2014-12-07T08:59:48Z</time>
      </trkpt>
      <trkpt lat="47.49782" lon="6.70628">
        <ele>374.913936</ele>
        <time>2014-12-07T08:59:49Z</time>
      </trkpt>
      <trkpt lat="47.49779" lon="6.7063">
        <ele>375.02996976</ele>
        <time>2014-12-07T08:59:50Z</time>
      </trkpt>
      <trkpt lat="47.49776" lon="6.70632">
        <ele>375.14284704</ele>
        <time>2014-12-07T08:59:51Z</time>
      </trkpt>
      <trkpt lat="47.49773" lon="6.70634">
        <ele>375.25681056</ele>
        <time>2014-12-07T08:59:52Z</time>
      </trkpt>
      <trkpt lat="47.49771" lon="6.70636">
        <ele>375.3710112</ele>
        <time>2014-12-07T08:59:53Z</time>
      </trkpt>
      <trkpt lat="47.49768" lon="6.70638">
        <ele>375.4913856</ele>
        <time>2014-12-07T08:59:54Z</time>
      </trkpt>
      <trkpt lat="47.49765" lon="6.7064">
        <ele>375.61264896</ele>
        <time>2014-12-07T08:59:55Z</time>
      </trkpt>
      <trkpt lat="47.49763" lon="6.70643">
        <ele>375.72924</ele>
        <time>2014-12-07T08:59:56Z</time>
      </trkpt>
      <trkpt lat="47.49761" lon="6.70645">
        <ele>375.85569216</ele>
        <time>2014-12-07T08:59:57Z</time>
      </trkpt>
      <trkpt lat="47.49758" lon="6.70647">
        <ele>375.9789888</ele>
        <time>2014-12-07T08:59:58Z</time>
      </trkpt>
      <trkpt lat="47.49756" lon="6.70649">
        <ele>376.0999776</ele>
        <time>2014-12-07T08:59:59Z</time>
      </trkpt>
      <trkpt lat="47.49738" lon="6.70663">
        <ele>378.89555088001</ele>
        <time>2014-12-07T09:00:07Z</time>
      </trkpt>
      <trkpt lat="47.49736" lon="6.70664">
        <ele>379.35089471996</ele>
        <time>2014-12-07T09:00:08Z</time>
      </trkpt>
      <trkpt lat="47.49734" lon="6.70666">
        <ele>379.82691839998</ele>
        <time>2014-12-07T09:00:09Z</time>
      </trkpt>
      <trkpt lat="47.49732" lon="6.70667">
        <ele>380.36226079999</ele>
        <time>2014-12-07T09:00:10Z</time>
      </trkpt>
      <trkpt lat="47.49729" lon="6.70669">
        <ele>380.90326879996</ele>
        <time>2014-12-07T09:00:11Z</time>
      </trkpt>
      <trkpt lat="47.49726" lon="6.70671">
        <ele>381.42970111998</ele>
        <time>2014-12-07T09:00:12Z</time>
      </trkpt>
      <trkpt lat="47.49724" lon="6.70672">
        <ele>381.95013439999</ele>
        <time>2014-12-07T09:00:13Z</time>
      </trkpt>
      <trkpt lat="47.49722" lon="6.70673">
        <ele>382.43700991997</ele>
        <time>2014-12-07T09:00:14Z</time>
      </trkpt>
      <trkpt lat="47.49719" lon="6.70675">
        <ele>382.91681503995</ele>
        <time>2014-12-07T09:00:15Z</time>
      </trkpt>
      <trkpt lat="47.49717" lon="6.70676">
        <ele>383.37056767997</ele>
        <time>2014-12-07T09:00:16Z</time>
      </trkpt>
      <trkpt lat="47.49715" lon="6.70677">
        <ele>383.84977087995</ele>
        <time>2014-12-07T09:00:17Z</time>
      </trkpt>
      <trkpt lat="47.49713" lon="6.70678">
        <ele>384.31267903997</ele>
        <time>2014-12-07T09:00:18Z</time>
      </trkpt>
      <trkpt lat="47.4971" lon="6.70679">
        <ele>384.7829888</ele>
        <time>2014-12-07T09:00:19Z</time>
      </trkpt>
      <trkpt lat="47.49708" lon="6.7068">
        <ele>385.26334399998</ele>
        <time>2014-12-07T09:00:20Z</time>
      </trkpt>
      <trkpt lat="47.49706" lon="6.70681">
        <ele>385.72156208</ele>
        <time>2014-12-07T09:00:21Z</time>
      </trkpt>
      <trkpt lat="47.49704" lon="6.70682">
        <ele>386.19454015997</ele>
        <time>2014-12-07T09:00:22Z</time>
      </trkpt>
      <trkpt lat="47.49701" lon="6.70683">
        <ele>386.65612352</ele>
        <time>2014-12-07T09:00:23Z</time>
      </trkpt>
      <trkpt lat="47.49697" lon="6.70685">
        <ele>387.53284735997</ele>
        <time>2014-12-07T09:00:25Z</time>
      </trkpt>
      <trkpt lat="47.49696" lon="6.70686">
        <ele>387.9552296</ele>
        <time>2014-12-07T09:00:26Z</time>
      </trkpt>
      <trkpt lat="47.49692" lon="6.70688">
        <ele>388.78588928003</ele>
        <time>2014-12-07T09:00:28Z</time>
      </trkpt>
      <trkpt lat="47.4969" lon="6.7069">
        <ele>389.18205056003</ele>
        <time>2014-12-07T09:00:29Z</time>
      </trkpt>
      <trkpt lat="47.49687" lon="6.70693">
        <ele>389.93444192003</ele>
        <time>2014-12-07T09:00:31Z</time>
      </trkpt>
      <trkpt lat="47.49687" lon="6.70695">
        <ele>390.24626960001</ele>
        <time>2014-12-07T09:00:32Z</time>
      </trkpt>
      <trkpt lat="47.49685" lon="6.707">
        <ele>390.80326015997</ele>
        <time>2014-12-07T09:00:34Z</time>
      </trkpt>
      <trkpt lat="47.49685" lon="6.70703">
        <ele>391.06096256</ele>
        <time>2014-12-07T09:00:35Z</time>
      </trkpt>
      <trkpt lat="47.49684" lon="6.70707">
        <ele>391.45538431998</ele>
        <time>2014-12-07T09:00:37Z</time>
      </trkpt>
      <trkpt lat="47.49684" lon="6.7071">
        <ele>391.62341359993</ele>
        <time>2014-12-07T09:00:38Z</time>
      </trkpt>
      <trkpt lat="47.49684" lon="6.70715">
        <ele>391.90486015994</ele>
        <time>2014-12-07T09:00:40Z</time>
      </trkpt>
      <trkpt lat="47.49685" lon="6.70718">
        <ele>392.05837999999</ele>
        <time>2014-12-07T09:00:41Z</time>
      </trkpt>
      <trkpt lat="47.49685" lon="6.70722">
        <ele>392.31220736</ele>
        <time>2014-12-07T09:00:43Z</time>
      </trkpt>
      <trkpt lat="47.49685" lon="6.70725">
        <ele>392.42518399996</ele>
        <time>2014-12-07T09:00:44Z</time>
      </trkpt>
      <trkpt lat="47.49686" lon="6.7073">
        <ele>392.60845567998</ele>
        <time>2014-12-07T09:00:46Z</time>
      </trkpt>
      <trkpt lat="47.49686" lon="6.70732">
        <ele>392.69278927999</ele>
        <time>2014-12-07T09:00:47Z</time>
      </trkpt>
      <trkpt lat="47.49686" lon="6.70737">
        <ele>393.00294080004</ele>
        <time>2014-12-07T09:00:49Z</time>
      </trkpt>
      <trkpt lat="47.49686" lon="6.7074">
        <ele>393.20868799999</ele>
        <time>2014-12-07T09:00:50Z</time>
      </trkpt>
      <trkpt lat="47.49686" lon="6.70745">
        <ele>393.57628976003</ele>
        <time>2014-12-07T09:00:52Z</time>
      </trkpt>
      <trkpt lat="47.49686" lon="6.70747">
        <ele>393.68000287999</ele>
        <time>2014-12-07T09:00:53Z</time>
      </trkpt>
      <trkpt lat="47.49687" lon="6.70753">
        <ele>393.91192063996</ele>
        <time>2014-12-07T09:00:56Z</time>
      </trkpt>
      <trkpt lat="47.49687" lon="6.70755">
        <ele>394.01303168007</ele>
        <time>2014-12-07T09:00:57Z</time>
      </trkpt>
      <trkpt lat="47.49686" lon="6.70759">
        <ele>394.44281408</ele>
        <time>2014-12-07T09:00:59Z</time>
      </trkpt>
      <trkpt lat="47.49685" lon="6.70765">
        <ele>395.06000960007</ele>
        <time>2014-12-07T09:01:02Z</time>
      </trkpt>
      <trkpt lat="47.49682" lon="6.70769">
        <ele>396.12370880001</ele>
        <time>2014-12-07T09:01:05Z</time>
      </trkpt>
      <trkpt lat="47.49681" lon="6.70771">
        <ele>396.47953280002</ele>
        <time>2014-12-07T09:01:06Z</time>
      </trkpt>
      <trkpt lat="47.49677" lon="6.70771">
        <ele>397.29242431995</ele>
        <time>2014-12-07T09:01:09Z</time>
      </trkpt>
      <trkpt lat="47.49676" lon="6.7077">
        <ele>397.50312512007</ele>
        <time>2014-12-07T09:01:10Z</time>
      </trkpt>
      <trkpt lat="47.49674" lon="6.70767">
        <ele>397.90910719997</ele>
        <time>2014-12-07T09:01:12Z</time>
      </trkpt>
      <trkpt lat="47.49672" lon="6.70766">
        <ele>398.07989119998</ele>
        <time>2014-12-07T09:01:13Z</time>
      </trkpt>
      <trkpt lat="47.49669" lon="6.70762">
        <ele>398.37397952004</ele>
        <time>2014-12-07T09:01:15Z</time>
      </trkpt>
      <trkpt lat="47.49668" lon="6.7076">
        <ele>398.48887423994</ele>
        <time>2014-12-07T09:01:16Z</time>
      </trkpt>
      <trkpt lat="47.49665" lon="6.70756">
        <ele>398.98377616</ele>
        <time>2014-12-07T09:01:18Z</time>
      </trkpt>
      <trkpt lat="47.49664" lon="6.70754">
        <ele>399.26147968001</ele>
        <time>2014-12-07T09:01:19Z</time>
      </trkpt>
      <trkpt lat="47.49661" lon="6.7075">
        <ele>399.77696895994</ele>
        <time>2014-12-07T09:01:21Z</time>
      </trkpt>
      <trkpt lat="47.4966" lon="6.70748">
        <ele>399.98932960002</ele>
        <time>2014-12-07T09:01:22Z</time>
      </trkpt>
      <trkpt lat="47.49657" lon="6.70742">
        <ele>400.23787936006</ele>
        <time>2014-12-07T09:01:24Z</time>
      </trkpt>
      <trkpt lat="47.49656" lon="6.7074">
        <ele>400.39802320001</ele>
        <time>2014-12-07T09:01:25Z</time>
      </trkpt>
      <trkpt lat="47.49654" lon="6.70734">
        <ele>400.67812096004</ele>
        <time>2014-12-07T09:01:27Z</time>
      </trkpt>
      <trkpt lat="47.49653" lon="6.70732">
        <ele>400.82790975993</ele>
        <time>2014-12-07T09:01:28Z</time>
      </trkpt>
      <trkpt lat="47.49651" lon="6.70728">
        <ele>401.1479440001</ele>
        <time>2014-12-07T09:01:31Z</time>
      </trkpt>
      <trkpt lat="47.4965" lon="6.70726">
        <ele>401.26626591992</ele>
        <time>2014-12-07T09:01:32Z</time>
      </trkpt>
      <trkpt lat="47.49647" lon="6.70721">
        <ele>401.76693904007</ele>
        <time>2014-12-07T09:01:35Z</time>
      </trkpt>
      <trkpt lat="47.49646" lon="6.7072">
        <ele>401.95029183995</ele>
        <time>2014-12-07T09:01:36Z</time>
      </trkpt>
      <trkpt lat="47.49643" lon="6.70716">
        <ele>402.52792720003</ele>
        <time>2014-12-07T09:01:39Z</time>
      </trkpt>
      <trkpt lat="47.49642" lon="6.70715">
        <ele>402.78443968004</ele>
        <time>2014-12-07T09:01:40Z</time>
      </trkpt>
      <trkpt lat="47.49638" lon="6.70712">
        <ele>403.55889664003</ele>
        <time>2014-12-07T09:01:43Z</time>
      </trkpt>
      <trkpt lat="47.49637" lon="6.7071">
        <ele>403.87200160003</ele>
        <time>2014-12-07T09:01:44Z</time>
      </trkpt>
      <trkpt lat="47.49634" lon="6.70708">
        <ele>404.48258031991</ele>
        <time>2014-12-07T09:01:46Z</time>
      </trkpt>
      <trkpt lat="47.49633" lon="6.70707">
        <ele>404.79417183992</ele>
        <time>2014-12-07T09:01:47Z</time>
      </trkpt>
      <trkpt lat="47.4963" lon="6.70704">
        <ele>405.32004735994</ele>
        <time>2014-12-07T09:01:49Z</time>
      </trkpt>
      <trkpt lat="47.49629" lon="6.70703">
        <ele>405.60078496002</ele>
        <time>2014-12-07T09:01:50Z</time>
      </trkpt>
      <trkpt lat="47.49626" lon="6.70699">
        <ele>406.25672128007</ele>
        <time>2014-12-07T09:01:53Z</time>
      </trkpt>
      <trkpt lat="47.49625" lon="6.70697">
        <ele>406.44788223996</ele>
        <time>2014-12-07T09:01:54Z</time>
      </trkpt>
      <trkpt lat="47.49622" lon="6.70695">
        <ele>406.99861599998</ele>
        <time>2014-12-07T09:01:56Z</time>
      </trkpt>
      <trkpt lat="47.49621" lon="6.70693">
        <ele>407.25259840007</ele>
        <time>2014-12-07T09:01:57Z</time>
      </trkpt>
      <trkpt lat="47.49619" lon="6.7069">
        <ele>407.51777151998</ele>
        <time>2014-12-07T09:01:59Z</time>
      </trkpt>
      <trkpt lat="47.49618" lon="6.70687">
        <ele>407.75468032004</ele>
        <time>2014-12-07T09:02:02Z</time>
      </trkpt>
      <trkpt lat="47.49616" lon="6.70683">
        <ele>407.92413424004</ele>
        <time>2014-12-07T09:02:04Z</time>
      </trkpt>
      <trkpt lat="47.49615" lon="6.7068">
        <ele>407.99997375992</ele>
        <time>2014-12-07T09:02:05Z</time>
      </trkpt>
      <trkpt lat="47.49613" lon="6.70675">
        <ele>408.1253972799</ele>
        <time>2014-12-07T09:02:07Z</time>
      </trkpt>
      <trkpt lat="47.49612" lon="6.70672">
        <ele>408.29837919991</ele>
        <time>2014-12-07T09:02:08Z</time>
      </trkpt>
      <trkpt lat="47.4961" lon="6.70669">
        <ele>408.48299200004</ele>
        <time>2014-12-07T09:02:09Z</time>
      </trkpt>
      <trkpt lat="47.49608" lon="6.70666">
        <ele>408.71103488003</ele>
        <time>2014-12-07T09:02:10Z</time>
      </trkpt>
      <trkpt lat="47.49606" lon="6.70662">
        <ele>408.99011072001</ele>
        <time>2014-12-07T09:02:11Z</time>
      </trkpt>
      <trkpt lat="47.49604" lon="6.70659">
        <ele>409.31463487992</ele>
        <time>2014-12-07T09:02:12Z</time>
      </trkpt>
      <trkpt lat="47.49602" lon="6.70656">
        <ele>409.5993641599</ele>
        <time>2014-12-07T09:02:13Z</time>
      </trkpt>
      <trkpt lat="47.496" lon="6.70653">
        <ele>409.87241311995</ele>
        <time>2014-12-07T09:02:14Z</time>
      </trkpt>
      <trkpt lat="47.49599" lon="6.70651">
        <ele>410.14345280008</ele>
        <time>2014-12-07T09:02:15Z</time>
      </trkpt>
      <trkpt lat="47.49597" lon="6.70649">
        <ele>410.39369503993</ele>
        <time>2014-12-07T09:02:16Z</time>
      </trkpt>
      <trkpt lat="47.49594" lon="6.70644">
        <ele>410.74875584002</ele>
        <time>2014-12-07T09:02:18Z</time>
      </trkpt>
      <trkpt lat="47.49593" lon="6.70642">
        <ele>410.93916752009</ele>
        <time>2014-12-07T09:02:19Z</time>
      </trkpt>
      <trkpt lat="47.49591" lon="6.70639">
        <ele>411.23267360006</ele>
        <time>2014-12-07T09:02:21Z</time>
      </trkpt>
      <trkpt lat="47.49589" lon="6.70636">
        <ele>411.33559040001</ele>
        <time>2014-12-07T09:02:22Z</time>
      </trkpt>
      <trkpt lat="47.49588" lon="6.70631">
        <ele>411.35924000005</ele>
        <time>2014-12-07T09:02:24Z</time>
      </trkpt>
      <trkpt lat="47.49586" lon="6.70628">
        <ele>411.38365184007</ele>
        <time>2014-12-07T09:02:25Z</time>
      </trkpt>
      <trkpt lat="47.49583" lon="6.70623">
        <ele>411.74122399994</ele>
        <time>2014-12-07T09:02:27Z</time>
      </trkpt>
      <trkpt lat="47.49582" lon="6.7062">
        <ele>411.77050528005</ele>
        <time>2014-12-07T09:02:28Z</time>
      </trkpt>
      <trkpt lat="47.4958" lon="6.70617">
        <ele>411.80401407996</ele>
        <time>2014-12-07T09:02:29Z</time>
      </trkpt>
      <trkpt lat="47.49579" lon="6.70615">
        <ele>411.82170880005</ele>
        <time>2014-12-07T09:02:30Z</time>
      </trkpt>
      <trkpt lat="47.49576" lon="6.7061">
        <ele>411.99446559995</ele>
        <time>2014-12-07T09:02:32Z</time>
      </trkpt>
      <trkpt lat="47.49574" lon="6.70608">
        <ele>412.12151391999</ele>
        <time>2014-12-07T09:02:33Z</time>
      </trkpt>
      <trkpt lat="47.49571" lon="6.70605">
        <ele>412.40809984004</ele>
        <time>2014-12-07T09:02:35Z</time>
      </trkpt>
      <trkpt lat="47.4957" lon="6.70604">
        <ele>412.51144575996</ele>
        <time>2014-12-07T09:02:36Z</time>
      </trkpt>
      <trkpt lat="47.49567" lon="6.706">
        <ele>412.66627743997</ele>
        <time>2014-12-07T09:02:38Z</time>
      </trkpt>
      <trkpt lat="47.49566" lon="6.70599">
        <ele>412.73614911994</ele>
        <time>2014-12-07T09:02:39Z</time>
      </trkpt>
      <trkpt lat="47.49563" lon="6.70596">
        <ele>412.98190239995</ele>
        <time>2014-12-07T09:02:41Z</time>
      </trkpt>
      <trkpt lat="47.49561" lon="6.70594">
        <ele>413.18575743994</ele>
        <time>2014-12-07T09:02:42Z</time>
      </trkpt>
      <trkpt lat="47.49558" lon="6.70592">
        <ele>413.68075744005</ele>
        <time>2014-12-07T09:02:44Z</time>
      </trkpt>
      <trkpt lat="47.49556" lon="6.70591">
        <ele>413.86059039996</ele>
        <time>2014-12-07T09:02:45Z</time>
      </trkpt>
      <trkpt lat="47.49553" lon="6.70588">
        <ele>414.33527199999</ele>
        <time>2014-12-07T09:02:47Z</time>
      </trkpt>
      <trkpt lat="47.49551" lon="6.70587">
        <ele>414.60045951994</ele>
        <time>2014-12-07T09:02:48Z</time>
      </trkpt>
      <trkpt lat="47.49547" lon="6.70586">
        <ele>415.1804656</ele>
        <time>2014-12-07T09:02:50Z</time>
      </trkpt>
      <trkpt lat="47.49545" lon="6.70585">
        <ele>415.43995359995</ele>
        <time>2014-12-07T09:02:51Z</time>
      </trkpt>
      <trkpt lat="47.49542" lon="6.70582">
        <ele>415.83660159994</ele>
        <time>2014-12-07T09:02:53Z</time>
      </trkpt>
      <trkpt lat="47.4954" lon="6.70581">
        <ele>416.08841535998</ele>
        <time>2014-12-07T09:02:54Z</time>
      </trkpt>
      <trkpt lat="47.49538" lon="6.7058">
        <ele>416.37289984001</ele>
        <time>2014-12-07T09:02:55Z</time>
      </trkpt>
      <trkpt lat="47.49536" lon="6.70578">
        <ele>416.60463615994</ele>
        <time>2014-12-07T09:02:56Z</time>
      </trkpt>
      <trkpt lat="47.49534" lon="6.70576">
        <ele>416.85284800005</ele>
        <time>2014-12-07T09:02:57Z</time>
      </trkpt>
      <trkpt lat="47.49531" lon="6.70573">
        <ele>417.05832447999</ele>
        <time>2014-12-07T09:02:58Z</time>
      </trkpt>
      <trkpt lat="47.49529" lon="6.70571">
        <ele>417.28039936001</ele>
        <time>2014-12-07T09:02:59Z</time>
      </trkpt>
      <trkpt lat="47.49525" lon="6.70566">
        <ele>417.64180480004</ele>
        <time>2014-12-07T09:03:02Z</time>
      </trkpt>
      <trkpt lat="47.49523" lon="6.70562">
        <ele>417.74832640002</ele>
        <time>2014-12-07T09:03:04Z</time>
      </trkpt>
      <trkpt lat="47.49522" lon="6.7056">
        <ele>417.80758527997</ele>
        <time>2014-12-07T09:03:05Z</time>
      </trkpt>
      <trkpt lat="47.49518" lon="6.70556">
        <ele>418.20125055996</ele>
        <time>2014-12-07T09:03:07Z</time>
      </trkpt>
      <trkpt lat="47.49517" lon="6.70554">
        <ele>418.42392255996</ele>
        <time>2014-12-07T09:03:08Z</time>
      </trkpt>
      <trkpt lat="47.49513" lon="6.70552">
        <ele>418.93952512004</ele>
        <time>2014-12-07T09:03:10Z</time>
      </trkpt>
      <trkpt lat="47.49512" lon="6.7055">
        <ele>419.20264960004</ele>
        <time>2014-12-07T09:03:11Z</time>
      </trkpt>
      <trkpt lat="47.49508" lon="6.70548">
        <ele>419.71887999997</ele>
        <time>2014-12-07T09:03:13Z</time>
      </trkpt>
      <trkpt lat="47.49506" lon="6.70546">
        <ele>419.93043712002</ele>
        <time>2014-12-07T09:03:14Z</time>
      </trkpt>
      <trkpt lat="47.49503" lon="6.70543">
        <ele>420.54429568</ele>
        <time>2014-12-07T09:03:16Z</time>
      </trkpt>
      <trkpt lat="47.49501" lon="6.70542">
        <ele>420.86584576003</ele>
        <time>2014-12-07T09:03:17Z</time>
      </trkpt>
      <trkpt lat="47.49497" lon="6.7054">
        <ele>421.22254912001</ele>
        <time>2014-12-07T09:03:19Z</time>
      </trkpt>
      <trkpt lat="47.49496" lon="6.70539">
        <ele>421.32782080001</ele>
        <time>2014-12-07T09:03:20Z</time>
      </trkpt>
      <trkpt lat="47.49493" lon="6.70538">
        <ele>421.59639040002</ele>
        <time>2014-12-07T09:03:22Z</time>
      </trkpt>
      <trkpt lat="47.49492" lon="6.70537">
        <ele>421.73512383995</ele>
        <time>2014-12-07T09:03:23Z</time>
      </trkpt>
      <trkpt lat="47.49488" lon="6.70535">
        <ele>422.02652655998</ele>
        <time>2014-12-07T09:03:25Z</time>
      </trkpt>
      <trkpt lat="47.49487" lon="6.70534">
        <ele>422.18492080004</ele>
        <time>2014-12-07T09:03:26Z</time>
      </trkpt>
      <trkpt lat="47.49483" lon="6.70532">
        <ele>422.46038080002</ele>
        <time>2014-12-07T09:03:28Z</time>
      </trkpt>
      <trkpt lat="47.49481" lon="6.7053">
        <ele>422.58007984002</ele>
        <time>2014-12-07T09:03:29Z</time>
      </trkpt>
      <trkpt lat="47.49478" lon="6.70528">
        <ele>422.84312896004</ele>
        <time>2014-12-07T09:03:31Z</time>
      </trkpt>
      <trkpt lat="47.49476" lon="6.70527">
        <ele>423.01273264004</ele>
        <time>2014-12-07T09:03:32Z</time>
      </trkpt>
      <trkpt lat="47.49473" lon="6.70526">
        <ele>423.38019568003</ele>
        <time>2014-12-07T09:03:34Z</time>
      </trkpt>
      <trkpt lat="47.49471" lon="6.70525">
        <ele>423.55000191999</ele>
        <time>2014-12-07T09:03:35Z</time>
      </trkpt>
      <trkpt lat="47.49468" lon="6.70524">
        <ele>423.83404912003</ele>
        <time>2014-12-07T09:03:37Z</time>
      </trkpt>
      <trkpt lat="47.49466" lon="6.70523">
        <ele>424.01852319999</ele>
        <time>2014-12-07T09:03:38Z</time>
      </trkpt>
      <trkpt lat="47.49462" lon="6.70522">
        <ele>424.42722688</ele>
        <time>2014-12-07T09:03:40Z</time>
      </trkpt>
      <trkpt lat="47.4946" lon="6.70521">
        <ele>424.63270911996</ele>
        <time>2014-12-07T09:03:41Z</time>
      </trkpt>
      <trkpt lat="47.49457" lon="6.70521">
        <ele>425.05165263999</ele>
        <time>2014-12-07T09:03:43Z</time>
      </trkpt>
      <trkpt lat="47.49455" lon="6.70521">
        <ele>425.28378351996</ele>
        <time>2014-12-07T09:03:44Z</time>
      </trkpt>
      <trkpt lat="47.49452" lon="6.7052">
        <ele>425.7283264</ele>
        <time>2014-12-07T09:03:46Z</time>
      </trkpt>
      <trkpt lat="47.49449" lon="6.7052">
        <ele>425.95405791996</ele>
        <time>2014-12-07T09:03:47Z</time>
      </trkpt>
      <trkpt lat="47.49445" lon="6.70518">
        <ele>426.342556</ele>
        <time>2014-12-07T09:03:49Z</time>
      </trkpt>
      <trkpt lat="47.49443" lon="6.70516">
        <ele>426.55743039998</ele>
        <time>2014-12-07T09:03:50Z</time>
      </trkpt>
      <trkpt lat="47.49441" lon="6.70515">
        <ele>426.74113792</ele>
        <time>2014-12-07T09:03:51Z</time>
      </trkpt>
      <trkpt lat="47.49439" lon="6.70513">
        <ele>426.93179823996</ele>
        <time>2014-12-07T09:03:52Z</time>
      </trkpt>
      <trkpt lat="47.49435" lon="6.70511">
        <ele>427.28312608003</ele>
        <time>2014-12-07T09:03:54Z</time>
      </trkpt>
      <trkpt lat="47.49432" lon="6.70509">
        <ele>427.50227008001</ele>
        <time>2014-12-07T09:03:55Z</time>
      </trkpt>
      <trkpt lat="47.49428" lon="6.70507">
        <ele>427.88919616</ele>
        <time>2014-12-07T09:03:57Z</time>
      </trkpt>
      <trkpt lat="47.49426" lon="6.70506">
        <ele>428.10203007998</ele>
        <time>2014-12-07T09:03:58Z</time>
      </trkpt>
      <trkpt lat="47.49424" lon="6.70506">
        <ele>428.31532479997</ele>
        <time>2014-12-07T09:03:59Z</time>
      </trkpt>
      <trkpt lat="47.4942" lon="6.70505">
        <ele>428.81194047998</ele>
        <time>2014-12-07T09:04:02Z</time>
      </trkpt>
      <trkpt lat="47.49416" lon="6.70503">
        <ele>429.19720000003</ele>
        <time>2014-12-07T09:04:05Z</time>
      </trkpt>
      <trkpt lat="47.49415" lon="6.70501">
        <ele>429.28479999997</ele>
        <time>2014-12-07T09:04:06Z</time>
      </trkpt>
      <trkpt lat="47.49413" lon="6.70499">
        <ele>429.44377168002</ele>
        <time>2014-12-07T09:04:08Z</time>
      </trkpt>
      <trkpt lat="47.49411" lon="6.70498">
        <ele>429.59369007997</ele>
        <time>2014-12-07T09:04:09Z</time>
      </trkpt>
      <trkpt lat="47.49407" lon="6.70496">
        <ele>430.02185919998</ele>
        <time>2014-12-07T09:04:11Z</time>
      </trkpt>
      <trkpt lat="47.49405" lon="6.70495">
        <ele>430.23724</ele>
        <time>2014-12-07T09:04:12Z</time>
      </trkpt>
      <trkpt lat="47.49402" lon="6.70495">
        <ele>430.51526320005</ele>
        <time>2014-12-07T09:04:13Z</time>
      </trkpt>
      <trkpt lat="47.494" lon="6.70494">
        <ele>430.80782944</ele>
        <time>2014-12-07T09:04:14Z</time>
      </trkpt>
      <trkpt lat="47.49396" lon="6.70493">
        <ele>431.24626336004</ele>
        <time>2014-12-07T09:04:16Z</time>
      </trkpt>
      <trkpt lat="47.49394" lon="6.70493">
        <ele>431.40328815998</ele>
        <time>2014-12-07T09:04:17Z</time>
      </trkpt>
      <trkpt lat="47.49391" lon="6.70491">
        <ele>431.73287680003</ele>
        <time>2014-12-07T09:04:20Z</time>
      </trkpt>
      <trkpt lat="47.49389" lon="6.70491">
        <ele>431.88549184004</ele>
        <time>2014-12-07T09:04:21Z</time>
      </trkpt>
      <trkpt lat="47.49386" lon="6.7049">
        <ele>432.28064416</ele>
        <time>2014-12-07T09:04:23Z</time>
      </trkpt>
      <trkpt lat="47.49385" lon="6.7049">
        <ele>432.49500639999</ele>
        <time>2014-12-07T09:04:24Z</time>
      </trkpt>
      <trkpt lat="47.49381" lon="6.7049">
        <ele>432.98055616001</ele>
        <time>2014-12-07T09:04:26Z</time>
      </trkpt>
      <trkpt lat="47.49379" lon="6.70491">
        <ele>433.30178799997</ele>
        <time>2014-12-07T09:04:27Z</time>
      </trkpt>
      <trkpt lat="47.49376" lon="6.70491">
        <ele>433.61002432005</ele>
        <time>2014-12-07T09:04:28Z</time>
      </trkpt>
      <trkpt lat="47.49374" lon="6.70491">
        <ele>433.93395856003</ele>
        <time>2014-12-07T09:04:29Z</time>
      </trkpt>
      <trkpt lat="47.4937" lon="6.70491">
        <ele>434.43591184005</ele>
        <time>2014-12-07T09:04:31Z</time>
      </trkpt>
      <trkpt lat="47.49368" lon="6.70491">
        <ele>434.69740624004</ele>
        <time>2014-12-07T09:04:32Z</time>
      </trkpt>
      <trkpt lat="47.49366" lon="6.70491">
        <ele>434.99812480002</ele>
        <time>2014-12-07T09:04:33Z</time>
      </trkpt>
      <trkpt lat="47.49364" lon="6.70491">
        <ele>435.32499280003</ele>
        <time>2014-12-07T09:04:34Z</time>
      </trkpt>
      <trkpt lat="47.49361" lon="6.70491">
        <ele>435.64385920004</ele>
        <time>2014-12-07T09:04:35Z</time>
      </trkpt>
      <trkpt lat="47.49359" lon="6.70491">
        <ele>435.96565408</ele>
        <time>2014-12-07T09:04:36Z</time>
      </trkpt>
      <trkpt lat="47.49356" lon="6.70491">
        <ele>436.27944736004</ele>
        <time>2014-12-07T09:04:37Z</time>
      </trkpt>
      <trkpt lat="47.49354" lon="6.70491">
        <ele>436.59820863996</ele>
        <time>2014-12-07T09:04:38Z</time>
      </trkpt>
      <trkpt lat="47.49351" lon="6.70491">
        <ele>436.91196736</ele>
        <time>2014-12-07T09:04:39Z</time>
      </trkpt>
      <trkpt lat="47.49349" lon="6.70491">
        <ele>437.20447839998</ele>
        <time>2014-12-07T09:04:40Z</time>
      </trkpt>
      <trkpt lat="47.49347" lon="6.70491">
        <ele>437.50513071997</ele>
        <time>2014-12-07T09:04:41Z</time>
      </trkpt>
      <trkpt lat="47.49344" lon="6.70491">
        <ele>437.81061280001</ele>
        <time>2014-12-07T09:04:42Z</time>
      </trkpt>
      <trkpt lat="47.4934" lon="6.70491">
        <ele>438.39277984002</ele>
        <time>2014-12-07T09:04:44Z</time>
      </trkpt>
      <trkpt lat="47.49339" lon="6.70492">
        <ele>438.60913696002</ele>
        <time>2014-12-07T09:04:45Z</time>
      </trkpt>
      <trkpt lat="47.49334" lon="6.70493">
        <ele>439.29376047996</ele>
        <time>2014-12-07T09:04:48Z</time>
      </trkpt>
      <trkpt lat="47.49333" lon="6.70493">
        <ele>439.4828</ele>
        <time>2014-12-07T09:04:49Z</time>
      </trkpt>
      <trkpt lat="47.4933" lon="6.70494">
        <ele>439.74679999998</ele>
        <time>2014-12-07T09:04:51Z</time>
      </trkpt>
      <trkpt lat="47.49328" lon="6.70494">
        <ele>439.86920000003</ele>
        <time>2014-12-07T09:04:52Z</time>
      </trkpt>
      <trkpt lat="47.49324" lon="6.70494">
        <ele>440.09720000002</ele>
        <time>2014-12-07T09:04:54Z</time>
      </trkpt>
      <trkpt lat="47.49322" lon="6.70494">
        <ele>440.25800000002</ele>
        <time>2014-12-07T09:04:55Z</time>
      </trkpt>
      <trkpt lat="47.49318" lon="6.70495">
        <ele>440.6684</ele>
        <time>2014-12-07T09:04:57Z</time>
      </trkpt>
      <trkpt lat="47.49316" lon="6.70496">
        <ele>440.88199999998</ele>
        <time>2014-12-07T09:04:58Z</time>
      </trkpt>
      <trkpt lat="47.49315" lon="6.70497">
        <ele>441.11240000002</ele>
        <time>2014-12-07T09:04:59Z</time>
      </trkpt>
      <trkpt lat="47.49302" lon="6.705">
        <ele>442.23439999999</ele>
        <time>2014-12-07T09:05:07Z</time>
      </trkpt>
      <trkpt lat="47.49299" lon="6.70497">
        <ele>442.25000000001</ele>
        <time>2014-12-07T09:05:11Z</time>
      </trkpt>
      <trkpt lat="47.49297" lon="6.70496">
        <ele>442.29559999998</ele>
        <time>2014-12-07T09:05:12Z</time>
      </trkpt>
      <trkpt lat="47.49293" lon="6.70494">
        <ele>442.3724</ele>
        <time>2014-12-07T09:05:14Z</time>
      </trkpt>
      <trkpt lat="47.49291" lon="6.70493">
        <ele>442.42520000002</ele>
        <time>2014-12-07T09:05:15Z</time>
      </trkpt>
      <trkpt lat="47.49289" lon="6.70491">
        <ele>442.4672</ele>
        <time>2014-12-07T09:05:16Z</time>
      </trkpt>
      <trkpt lat="47.49287" lon="6.7049">
        <ele>442.50920000002</ele>
        <time>2014-12-07T09:05:17Z</time>
      </trkpt>
      <trkpt lat="47.49285" lon="6.70489">
        <ele>442.56679999998</ele>
        <time>2014-12-07T09:05:18Z</time>
      </trkpt>
      <trkpt lat="47.49282" lon="6.70488">
        <ele>442.61720000001</ele>
        <time>2014-12-07T09:05:19Z</time>
      </trkpt>
      <trkpt lat="47.4928" lon="6.70486">
        <ele>442.67480000001</ele>
        <time>2014-12-07T09:05:20Z</time>
      </trkpt>
      <trkpt lat="47.49278" lon="6.70485">
        <ele>442.73960000001</ele>
        <time>2014-12-07T09:05:21Z</time>
      </trkpt>
      <trkpt lat="47.49276" lon="6.70484">
        <ele>442.8212</ele>
        <time>2014-12-07T09:05:22Z</time>
      </trkpt>
      <trkpt lat="47.49274" lon="6.70483">
        <ele>442.89679999997</ele>
        <time>2014-12-07T09:05:23Z</time>
      </trkpt>
      <trkpt lat="47.49271" lon="6.70482">
        <ele>442.98680000002</ele>
        <time>2014-12-07T09:05:24Z</time>
      </trkpt>
      <trkpt lat="47.49269" lon="6.70482">
        <ele>443.10079999999</ele>
        <time>2014-12-07T09:05:25Z</time>
      </trkpt>
      <trkpt lat="47.49264" lon="6.7048">
        <ele>443.31559999999</ele>
        <time>2014-12-07T09:05:27Z</time>
      </trkpt>
      <trkpt lat="47.49262" lon="6.7048">
        <ele>443.4404</ele>
        <time>2014-12-07T09:05:28Z</time>
      </trkpt>
      <trkpt lat="47.4926" lon="6.7048">
        <ele>443.58200000001</ele>
        <time>2014-12-07T09:05:29Z</time>
      </trkpt>
      <trkpt lat="47.49258" lon="6.7048">
        <ele>443.73799999998</ele>
        <time>2014-12-07T09:05:30Z</time>
      </trkpt>
      <trkpt lat="47.49255" lon="6.70479">
        <ele>443.89160000002</ele>
        <time>2014-12-07T09:05:31Z</time>
      </trkpt>
      <trkpt lat="47.49252" lon="6.70479">
        <ele>444.06800000002</ele>
        <time>2014-12-07T09:05:32Z</time>
      </trkpt>
      <trkpt lat="47.4925" lon="6.70478">
        <ele>444.20014975998</ele>
        <time>2014-12-07T09:05:33Z</time>
      </trkpt>
      <trkpt lat="47.49247" lon="6.70478">
        <ele>444.30726080001</ele>
        <time>2014-12-07T09:05:34Z</time>
      </trkpt>
      <trkpt lat="47.49243" lon="6.70477">
        <ele>444.50016607998</ele>
        <time>2014-12-07T09:05:36Z</time>
      </trkpt>
      <trkpt lat="47.49241" lon="6.70477">
        <ele>444.57783679999</ele>
        <time>2014-12-07T09:05:37Z</time>
      </trkpt>
      <trkpt lat="47.49238" lon="6.70477">
        <ele>444.75700688002</ele>
        <time>2014-12-07T09:05:39Z</time>
      </trkpt>
      <trkpt lat="47.49236" lon="6.70477">
        <ele>444.87130880001</ele>
        <time>2014-12-07T09:05:40Z</time>
      </trkpt>
      <trkpt lat="47.49233" lon="6.70477">
        <ele>445.097168</ele>
        <time>2014-12-07T09:05:42Z</time>
      </trkpt>
      <trkpt lat="47.4923" lon="6.70477">
        <ele>445.22620544002</ele>
        <time>2014-12-07T09:05:43Z</time>
      </trkpt>
      <trkpt lat="47.49226" lon="6.70477">
        <ele>445.43528960001</ele>
        <time>2014-12-07T09:05:45Z</time>
      </trkpt>
      <trkpt lat="47.49224" lon="6.70477">
        <ele>445.54817792001</ele>
        <time>2014-12-07T09:05:46Z</time>
      </trkpt>
      <trkpt lat="47.4922" lon="6.70476">
        <ele>445.73252287999</ele>
        <time>2014-12-07T09:05:48Z</time>
      </trkpt>
      <trkpt lat="47.49217" lon="6.70475">
        <ele>445.84260608002</ele>
        <time>2014-12-07T09:05:49Z</time>
      </trkpt>
      <trkpt lat="47.49215" lon="6.70475">
        <ele>445.96876495998</ele>
        <time>2014-12-07T09:05:50Z</time>
      </trkpt>
      <trkpt lat="47.49212" lon="6.70475">
        <ele>446.1183128</ele>
        <time>2014-12-07T09:05:51Z</time>
      </trkpt>
      <trkpt lat="47.49209" lon="6.70474">
        <ele>446.26368416</ele>
        <time>2014-12-07T09:05:52Z</time>
      </trkpt>
      <trkpt lat="47.49206" lon="6.70474">
        <ele>446.41514144001</ele>
        <time>2014-12-07T09:05:53Z</time>
      </trkpt>
      <trkpt lat="47.49203" lon="6.70474">
        <ele>446.57485904001</ele>
        <time>2014-12-07T09:05:54Z</time>
      </trkpt>
      <trkpt lat="47.492" lon="6.70474">
        <ele>446.73513535999</ele>
        <time>2014-12-07T09:05:55Z</time>
      </trkpt>
      <trkpt lat="47.49198" lon="6.70474">
        <ele>446.88333055998</ele>
        <time>2014-12-07T09:05:56Z</time>
      </trkpt>
      <trkpt lat="47.49195" lon="6.70473">
        <ele>447.01381952</ele>
        <time>2014-12-07T09:05:57Z</time>
      </trkpt>
      <trkpt lat="47.49191" lon="6.70473">
        <ele>447.21680384</ele>
        <time>2014-12-07T09:05:59Z</time>
      </trkpt>
      <trkpt lat="47.4919" lon="6.70472">
        <ele>447.3011672</ele>
        <time>2014-12-07T09:06:00Z</time>
      </trkpt>
      <trkpt lat="47.4918" lon="6.70474">
        <ele>447.98537264001</ele>
        <time>2014-12-07T09:06:08Z</time>
      </trkpt>
      <trkpt lat="47.49177" lon="6.70476">
        <ele>448.24427792</ele>
        <time>2014-12-07T09:06:11Z</time>
      </trkpt>
      <trkpt lat="47.49175" lon="6.70476">
        <ele>448.37060096001</ele>
        <time>2014-12-07T09:06:12Z</time>
      </trkpt>
      <trkpt lat="47.49171" lon="6.70476">
        <ele>448.61670271998</ele>
        <time>2014-12-07T09:06:14Z</time>
      </trkpt>
      <trkpt lat="47.49169" lon="6.70477">
        <ele>448.77026720002</ele>
        <time>2014-12-07T09:06:15Z</time>
      </trkpt>
      <trkpt lat="47.49164" lon="6.70477">
        <ele>448.96520879999</ele>
        <time>2014-12-07T09:06:17Z</time>
      </trkpt>
      <trkpt lat="47.49163" lon="6.70476">
        <ele>448.99187183999</ele>
        <time>2014-12-07T09:06:18Z</time>
      </trkpt>
      <trkpt lat="47.49159" lon="6.70476">
        <ele>449.170224</ele>
        <time>2014-12-07T09:06:23Z</time>
      </trkpt>
      <trkpt lat="47.49157" lon="6.70476">
        <ele>449.25199104001</ele>
        <time>2014-12-07T09:06:24Z</time>
      </trkpt>
      <trkpt lat="47.49153" lon="6.70477">
        <ele>449.4023712</ele>
        <time>2014-12-07T09:06:26Z</time>
      </trkpt>
      <trkpt lat="47.49152" lon="6.70476">
        <ele>449.4345792</ele>
        <time>2014-12-07T09:06:27Z</time>
      </trkpt>
      <trkpt lat="47.49148" lon="6.70475">
        <ele>449.50974912</ele>
        <time>2014-12-07T09:06:29Z</time>
      </trkpt>
      <trkpt lat="47.49147" lon="6.70474">
        <ele>449.55458016</ele>
        <time>2014-12-07T09:06:30Z</time>
      </trkpt>
      <trkpt lat="47.49145" lon="6.70474">
        <ele>449.6419536</ele>
        <time>2014-12-07T09:06:31Z</time>
      </trkpt>
      <trkpt lat="47.49142" lon="6.70474">
        <ele>449.74616255999</ele>
        <time>2014-12-07T09:06:32Z</time>
      </trkpt>
      <trkpt lat="47.4914" lon="6.70475">
        <ele>449.85464496</ele>
        <time>2014-12-07T09:06:33Z</time>
      </trkpt>
      <trkpt lat="47.49137" lon="6.70475">
        <ele>449.96291999999</ele>
        <time>2014-12-07T09:06:34Z</time>
      </trkpt>
      <trkpt lat="47.49135" lon="6.70475">
        <ele>450.06626111999</ele>
        <time>2014-12-07T09:06:35Z</time>
      </trkpt>
      <trkpt lat="47.49132" lon="6.70475">
        <ele>450.18209472001</ele>
        <time>2014-12-07T09:06:36Z</time>
      </trkpt>
      <trkpt lat="47.49128" lon="6.70476">
        <ele>450.37275216001</ele>
        <time>2014-12-07T09:06:38Z</time>
      </trkpt>
      <trkpt lat="47.49126" lon="6.70476">
        <ele>450.45675840001</ele>
        <time>2014-12-07T09:06:39Z</time>
      </trkpt>
      <trkpt lat="47.49122" lon="6.70476">
        <ele>450.59853120001</ele>
        <time>2014-12-07T09:06:41Z</time>
      </trkpt>
      <trkpt lat="47.4912" lon="6.70476">
        <ele>450.68533440001</ele>
        <time>2014-12-07T09:06:42Z</time>
      </trkpt>
      <trkpt lat="47.49118" lon="6.70476">
        <ele>450.7800288</ele>
        <time>2014-12-07T09:06:43Z</time>
      </trkpt>
      <trkpt lat="47.49115" lon="6.70476">
        <ele>450.88690416001</ele>
        <time>2014-12-07T09:06:44Z</time>
      </trkpt>
      <trkpt lat="47.49111" lon="6.70477">
        <ele>451.07665151999</ele>
        <time>2014-12-07T09:06:46Z</time>
      </trkpt>
      <trkpt lat="47.4911" lon="6.70478">
        <ele>451.17527039998</ele>
        <time>2014-12-07T09:06:47Z</time>
      </trkpt>
      <trkpt lat="47.49106" lon="6.70478">
        <ele>451.30449167999</ele>
        <time>2014-12-07T09:06:50Z</time>
      </trkpt>
      <trkpt lat="47.49105" lon="6.70477">
        <ele>451.33199232001</ele>
        <time>2014-12-07T09:06:51Z</time>
      </trkpt>
      <trkpt lat="47.49101" lon="6.70475">
        <ele>451.42778592001</ele>
        <time>2014-12-07T09:06:54Z</time>
      </trkpt>
      <trkpt lat="47.49099" lon="6.70475">
        <ele>451.46047200001</ele>
        <time>2014-12-07T09:06:55Z</time>
      </trkpt>
      <trkpt lat="47.49096" lon="6.70472">
        <ele>451.48961088001</ele>
        <time>2014-12-07T09:06:58Z</time>
      </trkpt>
      <trkpt lat="47.49095" lon="6.70471">
        <ele>451.51112879998</ele>
        <time>2014-12-07T09:06:59Z</time>
      </trkpt>
      <trkpt lat="47.49091" lon="6.70471">
        <ele>451.65294047999</ele>
        <time>2014-12-07T09:07:05Z</time>
      </trkpt>
      <trkpt lat="47.4909" lon="6.70471">
        <ele>451.71128784001</ele>
        <time>2014-12-07T09:07:06Z</time>
      </trkpt>
      <trkpt lat="47.49086" lon="6.70473">
        <ele>451.93254720001</ele>
        <time>2014-12-07T09:07:10Z</time>
      </trkpt>
      <trkpt lat="47.49085" lon="6.70473">
        <ele>451.96151999999</ele>
        <time>2014-12-07T09:07:11Z</time>
      </trkpt>
      <trkpt lat="47.49085" lon="6.70479">
        <ele>452.18566272001</ele>
        <time>2014-12-07T09:07:32Z</time>
      </trkpt>
      <trkpt lat="47.49085" lon="6.7048">
        <ele>452.18875872</ele>
        <time>2014-12-07T09:07:33Z</time>
      </trkpt>
      <trkpt lat="47.49085" lon="6.70481">
        <ele>452.26280832</ele>
        <time>2014-12-07T09:10:52Z</time>
      </trkpt>
      <trkpt lat="47.49079" lon="6.70477">
        <ele>451.77398399997</ele>
        <time>2014-12-07T09:10:53Z</time>
      </trkpt>
      <trkpt lat="47.49073" lon="6.70472">
        <ele>451.13746079999</ele>
        <time>2014-12-07T09:10:54Z</time>
      </trkpt>
      <trkpt lat="47.4907" lon="6.70469">
        <ele>450.77013120002</ele>
        <time>2014-12-07T09:10:59Z</time>
      </trkpt>
      <trkpt lat="47.49069" lon="6.70472">
        <ele>450.75348479999</ele>
        <time>2014-12-07T09:11:07Z</time>
      </trkpt>
      <trkpt lat="47.49073" lon="6.70478">
        <ele>451.30348992001</ele>
        <time>2014-12-07T09:11:07Z</time>
      </trkpt>
      <trkpt lat="47.49074" lon="6.70479">
        <ele>451.3873728</ele>
        <time>2014-12-07T09:11:08Z</time>
      </trkpt>
      <trkpt lat="47.49067" lon="6.70466">
        <ele>450.48961920001</ele>
        <time>2014-12-07T09:11:08Z</time>
      </trkpt>
      <trkpt lat="47.49069" lon="6.70472">
        <ele>450.75580319999</ele>
        <time>2014-12-07T09:11:11Z</time>
      </trkpt>
      <trkpt lat="47.49068" lon="6.7047">
        <ele>450.63532992001</ele>
        <time>2014-12-07T09:14:19Z</time>
      </trkpt>
      <trkpt lat="47.49066" lon="6.70466">
        <ele>450.37966656001</ele>
        <time>2014-12-07T09:14:20Z</time>
      </trkpt>
      <trkpt lat="47.49065" lon="6.70463">
        <ele>450.22620000001</ele>
        <time>2014-12-07T09:14:21Z</time>
      </trkpt>
      <trkpt lat="47.49063" lon="6.70457">
        <ele>450.01142400002</ele>
        <time>2014-12-07T09:14:22Z</time>
      </trkpt>
      <trkpt lat="47.49061" lon="6.70451">
        <ele>449.79235968</ele>
        <time>2014-12-07T09:14:23Z</time>
      </trkpt>
      <trkpt lat="47.4906" lon="6.70445">
        <ele>449.610384</ele>
        <time>2014-12-07T09:14:24Z</time>
      </trkpt>
      <trkpt lat="47.49058" lon="6.7044">
        <ele>449.42994048002</ele>
        <time>2014-12-07T09:14:25Z</time>
      </trkpt>
      <trkpt lat="47.49056" lon="6.70435">
        <ele>449.24799360001</ele>
        <time>2014-12-07T09:14:26Z</time>
      </trkpt>
      <trkpt lat="47.49054" lon="6.70431">
        <ele>449.07635135999</ele>
        <time>2014-12-07T09:14:27Z</time>
      </trkpt>
      <trkpt lat="47.49051" lon="6.70425">
        <ele>448.88746368002</ele>
        <time>2014-12-07T09:14:28Z</time>
      </trkpt>
      <trkpt lat="47.49047" lon="6.70419">
        <ele>448.71415680001</ele>
        <time>2014-12-07T09:14:29Z</time>
      </trkpt>
      <trkpt lat="47.49044" lon="6.70412">
        <ele>448.58040000001</ele>
        <time>2014-12-07T09:14:30Z</time>
      </trkpt>
      <trkpt lat="47.49041" lon="6.70406">
        <ele>448.46519999999</ele>
        <time>2014-12-07T09:14:31Z</time>
      </trkpt>
      <trkpt lat="47.49038" lon="6.70401">
        <ele>448.35720000001</ele>
        <time>2014-12-07T09:14:32Z</time>
      </trkpt>
      <trkpt lat="47.49035" lon="6.70396">
        <ele>448.25640000001</ele>
        <time>2014-12-07T09:14:33Z</time>
      </trkpt>
      <trkpt lat="47.49032" lon="6.70391">
        <ele>448.1592</ele>
        <time>2014-12-07T09:14:34Z</time>
      </trkpt>
      <trkpt lat="47.4903" lon="6.70386">
        <ele>448.06200000001</ele>
        <time>2014-12-07T09:14:35Z</time>
      </trkpt>
      <trkpt lat="47.49027" lon="6.70381">
        <ele>447.95759999999</ele>
        <time>2014-12-07T09:14:36Z</time>
      </trkpt>
      <trkpt lat="47.49023" lon="6.70374">
        <ele>447.8424</ele>
        <time>2014-12-07T09:14:37Z</time>
      </trkpt>
      <trkpt lat="47.4902" lon="6.70368">
        <ele>447.7308</ele>
        <time>2014-12-07T09:14:38Z</time>
      </trkpt>
      <trkpt lat="47.49018" lon="6.70361">
        <ele>447.64439999999</ele>
        <time>2014-12-07T09:14:39Z</time>
      </trkpt>
      <trkpt lat="47.49016" lon="6.70354">
        <ele>447.57600000001</ele>
        <time>2014-12-07T09:14:40Z</time>
      </trkpt>
      <trkpt lat="47.49014" lon="6.70348">
        <ele>447.5184</ele>
        <time>2014-12-07T09:14:41Z</time>
      </trkpt>
      <trkpt lat="47.49013" lon="6.70343">
        <ele>447.47159999999</ele>
        <time>2014-12-07T09:14:42Z</time>
      </trkpt>
      <trkpt lat="47.49012" lon="6.70338">
        <ele>447.41400000001</ele>
        <time>2014-12-07T09:14:43Z</time>
      </trkpt>
      <trkpt lat="47.4901" lon="6.70334">
        <ele>447.37079999999</ele>
        <time>2014-12-07T09:14:44Z</time>
      </trkpt>
      <trkpt lat="47.49009" lon="6.7033">
        <ele>447.27273088</ele>
        <time>2014-12-07T09:14:45Z</time>
      </trkpt>
      <trkpt lat="47.49009" lon="6.70326">
        <ele>447.18954303999</ele>
        <time>2014-12-07T09:14:46Z</time>
      </trkpt>
      <trkpt lat="47.49008" lon="6.70321">
        <ele>447.05840896001</ele>
        <time>2014-12-07T09:14:48Z</time>
      </trkpt>
      <trkpt lat="47.49008" lon="6.70317">
        <ele>446.99065215999</ele>
        <time>2014-12-07T09:14:49Z</time>
      </trkpt>
      <trkpt lat="47.49007" lon="6.70311">
        <ele>446.82756736</ele>
        <time>2014-12-07T09:14:51Z</time>
      </trkpt>
      <trkpt lat="47.49007" lon="6.70308">
        <ele>446.72291008002</ele>
        <time>2014-12-07T09:14:52Z</time>
      </trkpt>
      <trkpt lat="47.49006" lon="6.70304">
        <ele>446.59014016002</ele>
        <time>2014-12-07T09:14:53Z</time>
      </trkpt>
      <trkpt lat="47.49004" lon="6.703">
        <ele>446.44073343999</ele>
        <time>2014-12-07T09:14:54Z</time>
      </trkpt>
      <trkpt lat="47.49003" lon="6.70296">
        <ele>446.30833024001</ele>
        <time>2014-12-07T09:14:55Z</time>
      </trkpt>
      <trkpt lat="47.49003" lon="6.70293">
        <ele>446.19192639999</ele>
        <time>2014-12-07T09:14:56Z</time>
      </trkpt>
      <trkpt lat="47.49003" lon="6.70289">
        <ele>446.09660800002</ele>
        <time>2014-12-07T09:14:57Z</time>
      </trkpt>
      <trkpt lat="47.49002" lon="6.70286">
        <ele>446.00545408002</ele>
        <time>2014-12-07T09:14:58Z</time>
      </trkpt>
      <trkpt lat="47.49001" lon="6.70281">
        <ele>445.82376832002</ele>
        <time>2014-12-07T09:15:00Z</time>
      </trkpt>
      <trkpt lat="47.48991" lon="6.70256">
        <ele>443.59662400003</ele>
        <time>2014-12-07T09:15:08Z</time>
      </trkpt>
      <trkpt lat="47.4899" lon="6.70251">
        <ele>443.26435840003</ele>
        <time>2014-12-07T09:15:10Z</time>
      </trkpt>
      <trkpt lat="47.48989" lon="6.70249">
        <ele>443.10614943997</ele>
        <time>2014-12-07T09:15:11Z</time>
      </trkpt>
      <trkpt lat="47.48991" lon="6.70243">
        <ele>443.27423679995</ele>
        <time>2014-12-07T09:15:19Z</time>
      </trkpt>
      <trkpt lat="47.4899" lon="6.7024">
        <ele>443.10249375997</ele>
        <time>2014-12-07T09:15:20Z</time>
      </trkpt>
      <trkpt lat="47.48989" lon="6.70234">
        <ele>442.67162367998</ele>
        <time>2014-12-07T09:15:22Z</time>
      </trkpt>
      <trkpt lat="47.48988" lon="6.70231">
        <ele>442.45659136</ele>
        <time>2014-12-07T09:15:23Z</time>
      </trkpt>
      <trkpt lat="47.48986" lon="6.70226">
        <ele>442.06434112004</ele>
        <time>2014-12-07T09:15:25Z</time>
      </trkpt>
      <trkpt lat="47.48985" lon="6.70224">
        <ele>441.84956608003</ele>
        <time>2014-12-07T09:15:26Z</time>
      </trkpt>
      <trkpt lat="47.48982" lon="6.70219">
        <ele>441.40483647998</ele>
        <time>2014-12-07T09:15:28Z</time>
      </trkpt>
      <trkpt lat="47.48981" lon="6.70217">
        <ele>441.17370976004</ele>
        <time>2014-12-07T09:15:29Z</time>
      </trkpt>
      <trkpt lat="47.4898" lon="6.70214">
        <ele>440.96608000003</ele>
        <time>2014-12-07T09:15:30Z</time>
      </trkpt>
      <trkpt lat="47.48979" lon="6.7021">
        <ele>440.74796992002</ele>
        <time>2014-12-07T09:15:31Z</time>
      </trkpt>
      <trkpt lat="47.48978" lon="6.70206">
        <ele>440.52699136002</ele>
        <time>2014-12-07T09:15:32Z</time>
      </trkpt>
      <trkpt lat="47.48977" lon="6.70201">
        <ele>440.31740415997</ele>
        <time>2014-12-07T09:15:33Z</time>
      </trkpt>
      <trkpt lat="47.48976" lon="6.70195">
        <ele>440.08783455997</ele>
        <time>2014-12-07T09:15:34Z</time>
      </trkpt>
      <trkpt lat="47.48975" lon="6.70188">
        <ele>439.84858719999</ele>
        <time>2014-12-07T09:15:35Z</time>
      </trkpt>
      <trkpt lat="47.48973" lon="6.7018">
        <ele>439.62387327998</ele>
        <time>2014-12-07T09:15:36Z</time>
      </trkpt>
      <trkpt lat="47.48972" lon="6.70172">
        <ele>439.41521920002</ele>
        <time>2014-12-07T09:15:37Z</time>
      </trkpt>
      <trkpt lat="47.48971" lon="6.70164">
        <ele>438.97923008002</ele>
        <time>2014-12-07T09:15:38Z</time>
      </trkpt>
      <trkpt lat="47.4897" lon="6.70157">
        <ele>438.09622399999</ele>
        <time>2014-12-07T09:15:39Z</time>
      </trkpt>
      <trkpt lat="47.48969" lon="6.7015">
        <ele>437.30587712003</ele>
        <time>2014-12-07T09:15:40Z</time>
      </trkpt>
      <trkpt lat="47.48967" lon="6.70143">
        <ele>436.50703232003</ele>
        <time>2014-12-07T09:15:41Z</time>
      </trkpt>
      <trkpt lat="47.48966" lon="6.70136">
        <ele>435.66314816001</ele>
        <time>2014-12-07T09:15:42Z</time>
      </trkpt>
      <trkpt lat="47.48962" lon="6.70119">
        <ele>433.69885951998</ele>
        <time>2014-12-07T09:15:43Z</time>
      </trkpt>
      <trkpt lat="47.4896" lon="6.70111">
        <ele>432.71763967999</ele>
        <time>2014-12-07T09:15:44Z</time>
      </trkpt>
      <trkpt lat="47.48958" lon="6.70103">
        <ele>431.81945600001</ele>
        <time>2014-12-07T09:15:45Z</time>
      </trkpt>
      <trkpt lat="47.48955" lon="6.70095">
        <ele>430.89301184001</ele>
        <time>2014-12-07T09:15:46Z</time>
      </trkpt>
      <trkpt lat="47.48952" lon="6.70086">
        <ele>429.96570752002</ele>
        <time>2014-12-07T09:15:47Z</time>
      </trkpt>
      <trkpt lat="47.4895" lon="6.70079">
        <ele>429.31839999999</ele>
        <time>2014-12-07T09:15:48Z</time>
      </trkpt>
      <trkpt lat="47.48948" lon="6.70072">
        <ele>428.85760000001</ele>
        <time>2014-12-07T09:15:49Z</time>
      </trkpt>
      <trkpt lat="47.48945" lon="6.70068">
        <ele>428.45680000001</ele>
        <time>2014-12-07T09:15:50Z</time>
      </trkpt>
      <trkpt lat="47.48941" lon="6.70064">
        <ele>428.008</ele>
        <time>2014-12-07T09:15:51Z</time>
      </trkpt>
      <trkpt lat="47.48938" lon="6.70059">
        <ele>427.53640000001</ele>
        <time>2014-12-07T09:15:52Z</time>
      </trkpt>
      <trkpt lat="47.48934" lon="6.70054">
        <ele>427.08999999999</ele>
        <time>2014-12-07T09:15:53Z</time>
      </trkpt>
      <trkpt lat="47.48929" lon="6.70048">
        <ele>426.48280000001</ele>
        <time>2014-12-07T09:15:54Z</time>
      </trkpt>
      <trkpt lat="47.48924" lon="6.70042">
        <ele>425.88640000001</ele>
        <time>2014-12-07T09:15:55Z</time>
      </trkpt>
      <trkpt lat="47.48921" lon="6.70033">
        <ele>425.18799999999</ele>
        <time>2014-12-07T09:15:56Z</time>
      </trkpt>
      <trkpt lat="47.48915" lon="6.70022">
        <ele>424.2940224</ele>
        <time>2014-12-07T09:15:57Z</time>
      </trkpt>
      <trkpt lat="47.4891" lon="6.70012">
        <ele>423.656304</ele>
        <time>2014-12-07T09:15:58Z</time>
      </trkpt>
      <trkpt lat="47.48905" lon="6.70003">
        <ele>423.14501856</ele>
        <time>2014-12-07T09:15:59Z</time>
      </trkpt>
      <trkpt lat="47.48894" lon="6.69985">
        <ele>422.19128064</ele>
        <time>2014-12-07T09:16:02Z</time>
      </trkpt>
      <trkpt lat="47.48888" lon="6.6998">
        <ele>421.8473424</ele>
        <time>2014-12-07T09:16:03Z</time>
      </trkpt>
      <trkpt lat="47.48884" lon="6.69971">
        <ele>421.35487008</ele>
        <time>2014-12-07T09:16:04Z</time>
      </trkpt>
      <trkpt lat="47.48879" lon="6.69959">
        <ele>420.59430144</ele>
        <time>2014-12-07T09:16:05Z</time>
      </trkpt>
      <trkpt lat="47.48873" lon="6.69949">
        <ele>419.90898144</ele>
        <time>2014-12-07T09:16:06Z</time>
      </trkpt>
      <trkpt lat="47.48868" lon="6.6994">
        <ele>419.26738176</ele>
        <time>2014-12-07T09:16:07Z</time>
      </trkpt>
      <trkpt lat="47.48864" lon="6.69929">
        <ele>418.51489824001</ele>
        <time>2014-12-07T09:16:08Z</time>
      </trkpt>
      <trkpt lat="47.4886" lon="6.69919">
        <ele>417.80527104001</ele>
        <time>2014-12-07T09:16:09Z</time>
      </trkpt>
      <trkpt lat="47.48856" lon="6.6991">
        <ele>416.84575999999</ele>
        <time>2014-12-07T09:16:10Z</time>
      </trkpt>
      <trkpt lat="47.48853" lon="6.69901">
        <ele>415.79018768</ele>
        <time>2014-12-07T09:16:11Z</time>
      </trkpt>
      <trkpt lat="47.4885" lon="6.69893">
        <ele>414.92427056001</ele>
        <time>2014-12-07T09:16:12Z</time>
      </trkpt>
      <trkpt lat="47.48846" lon="6.69888">
        <ele>414.2355992</ele>
        <time>2014-12-07T09:16:13Z</time>
      </trkpt>
      <trkpt lat="47.48841" lon="6.69881">
        <ele>413.35291327999</ele>
        <time>2014-12-07T09:16:14Z</time>
      </trkpt>
      <trkpt lat="47.48837" lon="6.69875">
        <ele>412.57001696</ele>
        <time>2014-12-07T09:16:15Z</time>
      </trkpt>
      <trkpt lat="47.48833" lon="6.69869">
        <ele>411.75165920001</ele>
        <time>2014-12-07T09:16:16Z</time>
      </trkpt>
      <trkpt lat="47.48828" lon="6.69861">
        <ele>410.64391136001</ele>
        <time>2014-12-07T09:16:17Z</time>
      </trkpt>
      <trkpt lat="47.48825" lon="6.69853">
        <ele>409.67319488</ele>
        <time>2014-12-07T09:16:18Z</time>
      </trkpt>
      <trkpt lat="47.48821" lon="6.69846">
        <ele>408.74511392001</ele>
        <time>2014-12-07T09:16:19Z</time>
      </trkpt>
      <trkpt lat="47.4882" lon="6.69841">
        <ele>408.14386976</ele>
        <time>2014-12-07T09:16:20Z</time>
      </trkpt>
      <trkpt lat="47.48816" lon="6.69836">
        <ele>407.4058784</ele>
        <time>2014-12-07T09:16:21Z</time>
      </trkpt>
      <trkpt lat="47.48812" lon="6.6983">
        <ele>406.7066752</ele>
        <time>2014-12-07T09:16:22Z</time>
      </trkpt>
      <trkpt lat="47.48808" lon="6.69822">
        <ele>406.02279520001</ele>
        <time>2014-12-07T09:16:23Z</time>
      </trkpt>
      <trkpt lat="47.48806" lon="6.69817">
        <ele>405.5912512</ele>
        <time>2014-12-07T09:16:24Z</time>
      </trkpt>
      <trkpt lat="47.48802" lon="6.69811">
        <ele>405.09999328001</ele>
        <time>2014-12-07T09:16:25Z</time>
      </trkpt>
      <trkpt lat="47.48798" lon="6.69807">
        <ele>404.649592</ele>
        <time>2014-12-07T09:16:26Z</time>
      </trkpt>
      <trkpt lat="47.48794" lon="6.69804">
        <ele>404.32015360001</ele>
        <time>2014-12-07T09:16:27Z</time>
      </trkpt>
      <trkpt lat="47.48791" lon="6.69801">
        <ele>403.99871296</ele>
        <time>2014-12-07T09:16:28Z</time>
      </trkpt>
      <trkpt lat="47.48786" lon="6.69797">
        <ele>403.62856864001</ele>
        <time>2014-12-07T09:16:29Z</time>
      </trkpt>
      <trkpt lat="47.48777" lon="6.69791">
        <ele>402.94275712</ele>
        <time>2014-12-07T09:16:30Z</time>
      </trkpt>
      <trkpt lat="47.48771" lon="6.69782">
        <ele>402.26307135999</ele>
        <time>2014-12-07T09:16:31Z</time>
      </trkpt>
      <trkpt lat="47.48765" lon="6.69772">
        <ele>401.4969568</ele>
        <time>2014-12-07T09:16:32Z</time>
      </trkpt>
      <trkpt lat="47.48757" lon="6.69764">
        <ele>400.85601376001</ele>
        <time>2014-12-07T09:16:33Z</time>
      </trkpt>
      <trkpt lat="47.48753" lon="6.69755">
        <ele>400.31886399999</ele>
        <time>2014-12-07T09:16:34Z</time>
      </trkpt>
      <trkpt lat="47.48747" lon="6.69747">
        <ele>399.70806591999</ele>
        <time>2014-12-07T09:16:35Z</time>
      </trkpt>
      <trkpt lat="47.48739" lon="6.69742">
        <ele>399.04209039999</ele>
        <time>2014-12-07T09:16:36Z</time>
      </trkpt>
      <trkpt lat="47.48733" lon="6.69729">
        <ele>398.0108272</ele>
        <time>2014-12-07T09:16:37Z</time>
      </trkpt>
      <trkpt lat="47.48727" lon="6.69717">
        <ele>397.13411776</ele>
        <time>2014-12-07T09:16:38Z</time>
      </trkpt>
      <trkpt lat="47.48722" lon="6.69707">
        <ele>396.4253224</ele>
        <time>2014-12-07T09:16:39Z</time>
      </trkpt>
      <trkpt lat="47.48718" lon="6.69695">
        <ele>395.653792</ele>
        <time>2014-12-07T09:16:40Z</time>
      </trkpt>
      <trkpt lat="47.48711" lon="6.69683">
        <ele>394.89600208</ele>
        <time>2014-12-07T09:16:41Z</time>
      </trkpt>
      <trkpt lat="47.48707" lon="6.69674">
        <ele>394.4008336</ele>
        <time>2014-12-07T09:16:42Z</time>
      </trkpt>
      <trkpt lat="47.48701" lon="6.69665">
        <ele>393.8641928</ele>
        <time>2014-12-07T09:16:43Z</time>
      </trkpt>
      <trkpt lat="47.48696" lon="6.69658">
        <ele>393.3171704</ele>
        <time>2014-12-07T09:16:44Z</time>
      </trkpt>
      <trkpt lat="47.48692" lon="6.69649">
        <ele>392.67893312</ele>
        <time>2014-12-07T09:16:45Z</time>
      </trkpt>
      <trkpt lat="47.48686" lon="6.6964">
        <ele>392.02033568</ele>
        <time>2014-12-07T09:16:46Z</time>
      </trkpt>
      <trkpt lat="47.4868" lon="6.69633">
        <ele>391.54236512</ele>
        <time>2014-12-07T09:16:47Z</time>
      </trkpt>
      <trkpt lat="47.48673" lon="6.69624">
        <ele>390.88118096</ele>
        <time>2014-12-07T09:16:48Z</time>
      </trkpt>
      <trkpt lat="47.48669" lon="6.69614">
        <ele>390.16442624</ele>
        <time>2014-12-07T09:16:49Z</time>
      </trkpt>
      <trkpt lat="47.48662" lon="6.69605">
        <ele>389.47916623999</ele>
        <time>2014-12-07T09:16:50Z</time>
      </trkpt>
      <trkpt lat="47.48654" lon="6.69597">
        <ele>388.76996096</ele>
        <time>2014-12-07T09:16:51Z</time>
      </trkpt>
      <trkpt lat="47.48647" lon="6.69593">
        <ele>388.36042544</ele>
        <time>2014-12-07T09:16:52Z</time>
      </trkpt>
      <trkpt lat="47.4864" lon="6.69586">
        <ele>387.82834496</ele>
        <time>2014-12-07T09:16:53Z</time>
      </trkpt>
      <trkpt lat="47.48636" lon="6.69576">
        <ele>387.09182336</ele>
        <time>2014-12-07T09:16:54Z</time>
      </trkpt>
      <trkpt lat="47.48633" lon="6.69568">
        <ele>386.4536384</ele>
        <time>2014-12-07T09:16:55Z</time>
      </trkpt>
      <trkpt lat="47.48627" lon="6.6956">
        <ele>385.81395584</ele>
        <time>2014-12-07T09:16:56Z</time>
      </trkpt>
      <trkpt lat="47.48626" lon="6.69554">
        <ele>385.3843232</ele>
        <time>2014-12-07T09:16:57Z</time>
      </trkpt>
      <trkpt lat="47.4862" lon="6.69544">
        <ele>384.65745536</ele>
        <time>2014-12-07T09:16:58Z</time>
      </trkpt>
      <trkpt lat="47.48615" lon="6.69538">
        <ele>384.21914624</ele>
        <time>2014-12-07T09:16:59Z</time>
      </trkpt>
      <trkpt lat="47.48606" lon="6.69524">
        <ele>383.29702016</ele>
        <time>2014-12-07T09:17:03Z</time>
      </trkpt>
      <trkpt lat="47.48604" lon="6.69518">
        <ele>382.91344832</ele>
        <time>2014-12-07T09:17:04Z</time>
      </trkpt>
      <trkpt lat="47.486" lon="6.6951">
        <ele>382.46834336</ele>
        <time>2014-12-07T09:17:05Z</time>
      </trkpt>
      <trkpt lat="47.48595" lon="6.69503">
        <ele>382.05419456</ele>
        <time>2014-12-07T09:17:06Z</time>
      </trkpt>
      <trkpt lat="47.48592" lon="6.69497">
        <ele>381.75838304</ele>
        <time>2014-12-07T09:17:07Z</time>
      </trkpt>
      <trkpt lat="47.48589" lon="6.69492">
        <ele>381.52070912001</ele>
        <time>2014-12-07T09:17:08Z</time>
      </trkpt>
      <trkpt lat="47.48586" lon="6.69487">
        <ele>381.3128096</ele>
        <time>2014-12-07T09:17:09Z</time>
      </trkpt>
      <trkpt lat="47.48582" lon="6.69482">
        <ele>381.10644608</ele>
        <time>2014-12-07T09:17:10Z</time>
      </trkpt>
      <trkpt lat="47.48579" lon="6.69477">
        <ele>380.83360064</ele>
        <time>2014-12-07T09:17:11Z</time>
      </trkpt>
      <trkpt lat="47.48577" lon="6.69473">
        <ele>380.55917311999</ele>
        <time>2014-12-07T09:17:12Z</time>
      </trkpt>
      <trkpt lat="47.48574" lon="6.6947">
        <ele>380.36035952</ele>
        <time>2014-12-07T09:17:12Z</time>
      </trkpt>
      <trkpt lat="47.4856" lon="6.69449">
        <ele>379.14830672</ele>
        <time>2014-12-07T09:17:14Z</time>
      </trkpt>
      <trkpt lat="47.48553" lon="6.6944">
        <ele>378.6368504</ele>
        <time>2014-12-07T09:17:15Z</time>
      </trkpt>
      <trkpt lat="47.48547" lon="6.69429">
        <ele>378.0717752</ele>
        <time>2014-12-07T09:17:16Z</time>
      </trkpt>
      <trkpt lat="47.4854" lon="6.69421">
        <ele>377.64551264001</ele>
        <time>2014-12-07T09:17:17Z</time>
      </trkpt>
      <trkpt lat="47.48535" lon="6.69413">
        <ele>377.1896</ele>
        <time>2014-12-07T09:17:18Z</time>
      </trkpt>
      <trkpt lat="47.48529" lon="6.69405">
        <ele>376.5008</ele>
        <time>2014-12-07T09:17:19Z</time>
      </trkpt>
      <trkpt lat="47.48524" lon="6.69397">
        <ele>375.8696</ele>
        <time>2014-12-07T09:17:20Z</time>
      </trkpt>
      <trkpt lat="47.48518" lon="6.6939">
        <ele>375.254</ele>
        <time>2014-12-07T09:17:21Z</time>
      </trkpt>
      <trkpt lat="47.48509" lon="6.69383">
        <ele>374.6504</ele>
        <time>2014-12-07T09:17:22Z</time>
      </trkpt>
      <trkpt lat="47.485" lon="6.69372">
        <ele>373.75338752</ele>
        <time>2014-12-07T09:17:23Z</time>
      </trkpt>
      <trkpt lat="47.4849" lon="6.69361">
        <ele>372.99924896</ele>
        <time>2014-12-07T09:17:24Z</time>
      </trkpt>
      <trkpt lat="47.48481" lon="6.69353">
        <ele>372.449192</ele>
        <time>2014-12-07T09:17:25Z</time>
      </trkpt>
      <trkpt lat="47.48478" lon="6.69344">
        <ele>371.90789504</ele>
        <time>2014-12-07T09:17:26Z</time>
      </trkpt>
      <trkpt lat="47.48472" lon="6.69333">
        <ele>371.3202536</ele>
        <time>2014-12-07T09:17:27Z</time>
      </trkpt>
      <trkpt lat="47.48469" lon="6.69326">
        <ele>371.031116</ele>
        <time>2014-12-07T09:17:28Z</time>
      </trkpt>
      <trkpt lat="47.48467" lon="6.69322">
        <ele>370.864148</ele>
        <time>2014-12-07T09:17:29Z</time>
      </trkpt>
      <trkpt lat="47.48461" lon="6.69318">
        <ele>370.7834576</ele>
        <time>2014-12-07T09:17:30Z</time>
      </trkpt>
      <trkpt lat="47.48456" lon="6.69313">
        <ele>370.6934</ele>
        <time>2014-12-07T09:17:31Z</time>
      </trkpt>
      <trkpt lat="47.48452" lon="6.69305">
        <ele>370.5044576</ele>
        <time>2014-12-07T09:17:32Z</time>
      </trkpt>
      <trkpt lat="47.48448" lon="6.69298">
        <ele>370.43185999999</ele>
        <time>2014-12-07T09:17:33Z</time>
      </trkpt>
      <trkpt lat="47.48439" lon="6.69289">
        <ele>370.49398879999</ele>
        <time>2014-12-07T09:17:34Z</time>
      </trkpt>
      <trkpt lat="47.48437" lon="6.69271">
        <ele>370.11476479998</ele>
        <time>2014-12-07T09:17:35Z</time>
      </trkpt>
      <trkpt lat="47.48432" lon="6.69265">
        <ele>370.21776800001</ele>
        <time>2014-12-07T09:17:36Z</time>
      </trkpt>
      <trkpt lat="47.48428" lon="6.69258">
        <ele>370.33152080001</ele>
        <time>2014-12-07T09:17:37Z</time>
      </trkpt>
      <trkpt lat="47.48426" lon="6.69255">
        <ele>370.4384192</ele>
        <time>2014-12-07T09:17:38Z</time>
      </trkpt>
      <trkpt lat="47.48423" lon="6.69252">
        <ele>370.6020896</ele>
        <time>2014-12-07T09:17:39Z</time>
      </trkpt>
      <trkpt lat="47.4842" lon="6.69249">
        <ele>370.77920000002</ele>
        <time>2014-12-07T09:17:40Z</time>
      </trkpt>
      <trkpt lat="47.48417" lon="6.69247">
        <ele>371.01320000001</ele>
        <time>2014-12-07T09:17:41Z</time>
      </trkpt>
      <trkpt lat="47.48414" lon="6.69245">
        <ele>370.91555711999</ele>
        <time>2014-12-07T09:17:42Z</time>
      </trkpt>
      <trkpt lat="47.4841" lon="6.69243">
        <ele>370.75358399999</ele>
        <time>2014-12-07T09:17:43Z</time>
      </trkpt>
      <trkpt lat="47.48406" lon="6.69241">
        <ele>370.58026752001</ele>
        <time>2014-12-07T09:17:44Z</time>
      </trkpt>
      <trkpt lat="47.48402" lon="6.69239">
        <ele>370.39255296002</ele>
        <time>2014-12-07T09:17:45Z</time>
      </trkpt>
      <trkpt lat="47.48398" lon="6.69237">
        <ele>370.19845631999</ele>
        <time>2014-12-07T09:17:46Z</time>
      </trkpt>
      <trkpt lat="47.48394" lon="6.69235">
        <ele>369.99243839998</ele>
        <time>2014-12-07T09:17:47Z</time>
      </trkpt>
      <trkpt lat="47.48389" lon="6.69233">
        <ele>369.76128768</ele>
        <time>2014-12-07T09:17:48Z</time>
      </trkpt>
      <trkpt lat="47.48385" lon="6.69231">
        <ele>369.50935200001</ele>
        <time>2014-12-07T09:17:49Z</time>
      </trkpt>
      <trkpt lat="47.4838" lon="6.69228">
        <ele>369.25007807999</ele>
        <time>2014-12-07T09:17:50Z</time>
      </trkpt>
      <trkpt lat="47.48375" lon="6.69225">
        <ele>368.97795455998</ele>
        <time>2014-12-07T09:17:51Z</time>
      </trkpt>
      <trkpt lat="47.4837" lon="6.69223">
        <ele>368.71480800001</ele>
        <time>2014-12-07T09:17:52Z</time>
      </trkpt>
      <trkpt lat="47.48365" lon="6.6922">
        <ele>368.45680896001</ele>
        <time>2014-12-07T09:17:53Z</time>
      </trkpt>
      <trkpt lat="47.48361" lon="6.69219">
        <ele>368.22087551999</ele>
        <time>2014-12-07T09:17:54Z</time>
      </trkpt>
      <trkpt lat="47.48357" lon="6.69219">
        <ele>367.99958783998</ele>
        <time>2014-12-07T09:17:55Z</time>
      </trkpt>
      <trkpt lat="47.48353" lon="6.6922">
        <ele>367.76775935998</ele>
        <time>2014-12-07T09:17:56Z</time>
      </trkpt>
      <trkpt lat="47.48349" lon="6.69223">
        <ele>367.54608000002</ele>
        <time>2014-12-07T09:17:57Z</time>
      </trkpt>
      <trkpt lat="47.48345" lon="6.69225">
        <ele>367.33005791999</ele>
        <time>2014-12-07T09:17:58Z</time>
      </trkpt>
      <trkpt lat="47.4834" lon="6.69228">
        <ele>367.10910719999</ele>
        <time>2014-12-07T09:17:59Z</time>
      </trkpt>
      <trkpt lat="47.48329" lon="6.69236">
        <ele>366.2096</ele>
        <time>2014-12-07T09:18:03Z</time>
      </trkpt>
      <trkpt lat="47.48325" lon="6.69236">
        <ele>365.77519999997</ele>
        <time>2014-12-07T09:18:04Z</time>
      </trkpt>
      <trkpt lat="47.48321" lon="6.69235">
        <ele>365.22799999999</ele>
        <time>2014-12-07T09:18:05Z</time>
      </trkpt>
      <trkpt lat="47.48317" lon="6.69233">
        <ele>364.69519999998</ele>
        <time>2014-12-07T09:18:06Z</time>
      </trkpt>
      <trkpt lat="47.48314" lon="6.69231">
        <ele>364.15879999996</ele>
        <time>2014-12-07T09:18:07Z</time>
      </trkpt>
      <trkpt lat="47.4831" lon="6.69229">
        <ele>363.64039999998</ele>
        <time>2014-12-07T09:18:08Z</time>
      </trkpt>
      <trkpt lat="47.48305" lon="6.69223">
        <ele>362.92640000002</ele>
        <time>2014-12-07T09:18:09Z</time>
      </trkpt>
      <trkpt lat="47.48303" lon="6.6922">
        <ele>362.57359999997</ele>
        <time>2014-12-07T09:18:10Z</time>
      </trkpt>
      <trkpt lat="47.48301" lon="6.69219">
        <ele>362.38520000003</ele>
        <time>2014-12-07T09:18:11Z</time>
      </trkpt>
      <trkpt lat="47.48297" lon="6.69217">
        <ele>361.83199999996</ele>
        <time>2014-12-07T09:18:17Z</time>
      </trkpt>
      <trkpt lat="47.48297" lon="6.69217">
        <ele>361.78159999999</ele>
        <time>2014-12-07T09:18:18Z</time>
      </trkpt>
      <trkpt lat="47.48292" lon="6.69218">
        <ele>361.21759999996</ele>
        <time>2014-12-07T09:18:37Z</time>
      </trkpt>
      <trkpt lat="47.48292" lon="6.69219">
        <ele>361.17919999997</ele>
        <time>2014-12-07T09:18:38Z</time>
      </trkpt>
      <trkpt lat="47.48288" lon="6.6922">
        <ele>360.63799999996</ele>
        <time>2014-12-07T09:18:52Z</time>
      </trkpt>
      <trkpt lat="47.48287" lon="6.6922">
        <ele>360.54680000001</ele>
        <time>2014-12-07T09:18:53Z</time>
      </trkpt>
      <trkpt lat="47.48284" lon="6.6922">
        <ele>360.14240000001</ele>
        <time>2014-12-07T09:18:55Z</time>
      </trkpt>
      <trkpt lat="47.48282" lon="6.6922">
        <ele>359.79800000003</ele>
        <time>2014-12-07T09:18:56Z</time>
      </trkpt>
      <trkpt lat="47.48279" lon="6.6922">
        <ele>359.46680000002</ele>
        <time>2014-12-07T09:18:57Z</time>
      </trkpt>
      <trkpt lat="47.48276" lon="6.6922">
        <ele>359.09480000001</ele>
        <time>2014-12-07T09:18:58Z</time>
      </trkpt>
      <trkpt lat="47.48274" lon="6.69219">
        <ele>358.7612</ele>
        <time>2014-12-07T09:18:59Z</time>
      </trkpt>
      <trkpt lat="47.48268" lon="6.69218">
        <ele>358.03999999999</ele>
        <time>2014-12-07T09:19:02Z</time>
      </trkpt>
      <trkpt lat="47.48267" lon="6.69215">
        <ele>357.76880000002</ele>
        <time>2014-12-07T09:19:03Z</time>
      </trkpt>
      <trkpt lat="47.48265" lon="6.69211">
        <ele>357.46280000003</ele>
        <time>2014-12-07T09:19:04Z</time>
      </trkpt>
      <trkpt lat="47.48263" lon="6.69207">
        <ele>357.14840000004</ele>
        <time>2014-12-07T09:19:05Z</time>
      </trkpt>
      <trkpt lat="47.4826" lon="6.69202">
        <ele>356.774</ele>
        <time>2014-12-07T09:19:06Z</time>
      </trkpt>
      <trkpt lat="47.48258" lon="6.69198">
        <ele>356.40559999996</ele>
        <time>2014-12-07T09:19:07Z</time>
      </trkpt>
      <trkpt lat="47.48256" lon="6.69194">
        <ele>356.05759999997</ele>
        <time>2014-12-07T09:19:08Z</time>
      </trkpt>
      <trkpt lat="47.48253" lon="6.69191">
        <ele>355.68439999996</ele>
        <time>2014-12-07T09:19:09Z</time>
      </trkpt>
      <trkpt lat="47.48251" lon="6.69187">
        <ele>355.31360000004</ele>
        <time>2014-12-07T09:19:10Z</time>
      </trkpt>
      <trkpt lat="47.48248" lon="6.69184">
        <ele>355.11475903999</ele>
        <time>2014-12-07T09:19:11Z</time>
      </trkpt>
      <trkpt lat="47.48246" lon="6.6918">
        <ele>354.94919648001</ele>
        <time>2014-12-07T09:19:12Z</time>
      </trkpt>
      <trkpt lat="47.48243" lon="6.69176">
        <ele>354.78249872</ele>
        <time>2014-12-07T09:19:13Z</time>
      </trkpt>
      <trkpt lat="47.48241" lon="6.69172">
        <ele>354.62021119999</ele>
        <time>2014-12-07T09:19:14Z</time>
      </trkpt>
      <trkpt lat="47.48238" lon="6.69168">
        <ele>354.45318511999</ele>
        <time>2014-12-07T09:19:15Z</time>
      </trkpt>
      <trkpt lat="47.48236" lon="6.69164">
        <ele>354.35304383999</ele>
        <time>2014-12-07T09:19:16Z</time>
      </trkpt>
      <trkpt lat="47.48233" lon="6.6916">
        <ele>354.29299151999</ele>
        <time>2014-12-07T09:19:17Z</time>
      </trkpt>
      <trkpt lat="47.48231" lon="6.69156">
        <ele>354.2479128</ele>
        <time>2014-12-07T09:19:18Z</time>
      </trkpt>
      <trkpt lat="47.48229" lon="6.69151">
        <ele>354.21360288001</ele>
        <time>2014-12-07T09:19:19Z</time>
      </trkpt>
      <trkpt lat="47.48226" lon="6.69146">
        <ele>354.17642879999</ele>
        <time>2014-12-07T09:19:20Z</time>
      </trkpt>
      <trkpt lat="47.48224" lon="6.69141">
        <ele>354.14092608001</ele>
        <time>2014-12-07T09:19:21Z</time>
      </trkpt>
      <trkpt lat="47.48222" lon="6.69137">
        <ele>354.11136239998</ele>
        <time>2014-12-07T09:19:22Z</time>
      </trkpt>
      <trkpt lat="47.4822" lon="6.69132">
        <ele>354.10261679999</ele>
        <time>2014-12-07T09:19:23Z</time>
      </trkpt>
      <trkpt lat="47.48217" lon="6.69127">
        <ele>354.09073344</ele>
        <time>2014-12-07T09:19:24Z</time>
      </trkpt>
      <trkpt lat="47.48215" lon="6.69123">
        <ele>354.07412352</ele>
        <time>2014-12-07T09:19:25Z</time>
      </trkpt>
      <trkpt lat="47.48213" lon="6.69118">
        <ele>354.04742208</ele>
        <time>2014-12-07T09:19:26Z</time>
      </trkpt>
      <trkpt lat="47.4821" lon="6.69113">
        <ele>354.01795008</ele>
        <time>2014-12-07T09:19:27Z</time>
      </trkpt>
      <trkpt lat="47.48207" lon="6.6911">
        <ele>353.98644287999</ele>
        <time>2014-12-07T09:19:28Z</time>
      </trkpt>
      <trkpt lat="47.48209" lon="6.6911">
        <ele>354.06346560001</ele>
        <time>2014-12-07T09:20:09Z</time>
      </trkpt>
      <trkpt lat="47.48213" lon="6.69111">
        <ele>354.16338000001</ele>
        <time>2014-12-07T09:20:10Z</time>
      </trkpt>
      <trkpt lat="47.48209" lon="6.69108">
        <ele>354.08990111999</ele>
        <time>2014-12-07T09:21:08Z</time>
      </trkpt>
      <trkpt lat="47.48209" lon="6.69106">
        <ele>354.10426656001</ele>
        <time>2014-12-07T09:21:09Z</time>
      </trkpt>
      <trkpt lat="47.48208" lon="6.69101">
        <ele>354.1537344</ele>
        <time>2014-12-07T09:21:12Z</time>
      </trkpt>
      <trkpt lat="47.48208" lon="6.69099">
        <ele>354.18430800001</ele>
        <time>2014-12-07T09:21:13Z</time>
      </trkpt>
      <trkpt lat="47.48208" lon="6.69094">
        <ele>354.28617312</ele>
        <time>2014-12-07T09:21:15Z</time>
      </trkpt>
      <trkpt lat="47.48208" lon="6.69091">
        <ele>354.35153904</ele>
        <time>2014-12-07T09:21:16Z</time>
      </trkpt>
      <trkpt lat="47.48209" lon="6.69086">
        <ele>354.48710784</ele>
        <time>2014-12-07T09:21:18Z</time>
      </trkpt>
      <trkpt lat="47.4821" lon="6.69083">
        <ele>354.57098880001</ele>
        <time>2014-12-07T09:21:19Z</time>
      </trkpt>
      <trkpt lat="47.48213" lon="6.69078">
        <ele>354.66778944001</ele>
        <time>2014-12-07T09:21:21Z</time>
      </trkpt>
      <trkpt lat="47.48214" lon="6.69075">
        <ele>354.72477312001</ele>
        <time>2014-12-07T09:21:22Z</time>
      </trkpt>
      <trkpt lat="47.48217" lon="6.69071">
        <ele>354.84353279999</ele>
        <time>2014-12-07T09:21:24Z</time>
      </trkpt>
      <trkpt lat="47.48218" lon="6.69069">
        <ele>354.89706624001</ele>
        <time>2014-12-07T09:21:25Z</time>
      </trkpt>
      <trkpt lat="47.48221" lon="6.69065">
        <ele>355.00636799999</ele>
        <time>2014-12-07T09:21:27Z</time>
      </trkpt>
      <trkpt lat="47.48222" lon="6.69063">
        <ele>355.07502816001</ele>
        <time>2014-12-07T09:21:28Z</time>
      </trkpt>
      <trkpt lat="47.48225" lon="6.6906">
        <ele>355.22579328</ele>
        <time>2014-12-07T09:21:30Z</time>
      </trkpt>
      <trkpt lat="47.48227" lon="6.69058">
        <ele>355.31252159999</ele>
        <time>2014-12-07T09:21:31Z</time>
      </trkpt>
      <trkpt lat="47.48229" lon="6.69056">
        <ele>355.41606336</ele>
        <time>2014-12-07T09:21:32Z</time>
      </trkpt>
      <trkpt lat="47.48231" lon="6.69054">
        <ele>355.51521120001</ele>
        <time>2014-12-07T09:21:33Z</time>
      </trkpt>
      <trkpt lat="47.48233" lon="6.69051">
        <ele>355.63272767999</ele>
        <time>2014-12-07T09:21:34Z</time>
      </trkpt>
      <trkpt lat="47.48236" lon="6.69048">
        <ele>355.75601279999</ele>
        <time>2014-12-07T09:21:35Z</time>
      </trkpt>
      <trkpt lat="47.48238" lon="6.69045">
        <ele>355.87754688001</ele>
        <time>2014-12-07T09:21:36Z</time>
      </trkpt>
      <trkpt lat="47.4824" lon="6.69042">
        <ele>355.99031519998</ele>
        <time>2014-12-07T09:21:37Z</time>
      </trkpt>
      <trkpt lat="47.48242" lon="6.69039">
        <ele>356.12338175999</ele>
        <time>2014-12-07T09:21:38Z</time>
      </trkpt>
      <trkpt lat="47.48244" lon="6.69037">
        <ele>356.26404479998</ele>
        <time>2014-12-07T09:21:39Z</time>
      </trkpt>
      <trkpt lat="47.48246" lon="6.69034">
        <ele>356.40230015999</ele>
        <time>2014-12-07T09:21:40Z</time>
      </trkpt>
      <trkpt lat="47.48248" lon="6.69031">
        <ele>356.54397696</ele>
        <time>2014-12-07T09:21:41Z</time>
      </trkpt>
      <trkpt lat="47.48251" lon="6.69029">
        <ele>356.65877568</ele>
        <time>2014-12-07T09:21:42Z</time>
      </trkpt>
      <trkpt lat="47.48253" lon="6.69027">
        <ele>356.70006528</ele>
        <time>2014-12-07T09:21:43Z</time>
      </trkpt>
      <trkpt lat="47.48255" lon="6.69025">
        <ele>356.72736384</ele>
        <time>2014-12-07T09:21:44Z</time>
      </trkpt>
      <trkpt lat="47.48257" lon="6.69023">
        <ele>356.74281792</ele>
        <time>2014-12-07T09:21:45Z</time>
      </trkpt>
      <trkpt lat="47.4826" lon="6.69021">
        <ele>356.74961472</ele>
        <time>2014-12-07T09:21:46Z</time>
      </trkpt>
      <trkpt lat="47.48262" lon="6.6902">
        <ele>356.74835328</ele>
        <time>2014-12-07T09:21:47Z</time>
      </trkpt>
      <trkpt lat="47.48266" lon="6.69018">
        <ele>356.7324288</ele>
        <time>2014-12-07T09:21:49Z</time>
      </trkpt>
      <trkpt lat="47.48268" lon="6.69018">
        <ele>356.723616</ele>
        <time>2014-12-07T09:21:50Z</time>
      </trkpt>
      <trkpt lat="47.48271" lon="6.69018">
        <ele>356.71525056</ele>
        <time>2014-12-07T09:21:52Z</time>
      </trkpt>
      <trkpt lat="47.48273" lon="6.69018">
        <ele>356.71152384</ele>
        <time>2014-12-07T09:21:53Z</time>
      </trkpt>
      <trkpt lat="47.48276" lon="6.69018">
        <ele>356.70030144</ele>
        <time>2014-12-07T09:21:54Z</time>
      </trkpt>
      <trkpt lat="47.4828" lon="6.69018">
        <ele>356.68483776</ele>
        <time>2014-12-07T09:21:55Z</time>
      </trkpt>
      <trkpt lat="47.48283" lon="6.69018">
        <ele>356.6684832</ele>
        <time>2014-12-07T09:21:56Z</time>
      </trkpt>
      <trkpt lat="47.48286" lon="6.69017">
        <ele>356.6458656</ele>
        <time>2014-12-07T09:21:57Z</time>
      </trkpt>
      <trkpt lat="47.48289" lon="6.69017">
        <ele>356.62138944</ele>
        <time>2014-12-07T09:21:58Z</time>
      </trkpt>
      <trkpt lat="47.48292" lon="6.69017">
        <ele>356.5959744</ele>
        <time>2014-12-07T09:21:59Z</time>
      </trkpt>
      <trkpt lat="47.483" lon="6.69016">
        <ele>356.5273728</ele>
        <time>2014-12-07T09:22:02Z</time>
      </trkpt>
      <trkpt lat="47.48304" lon="6.69016">
        <ele>356.4840672</ele>
        <time>2014-12-07T09:22:03Z</time>
      </trkpt>
      <trkpt lat="47.48307" lon="6.69015">
        <ele>356.42692224</ele>
        <time>2014-12-07T09:22:04Z</time>
      </trkpt>
      <trkpt lat="47.4831" lon="6.69014">
        <ele>356.353968</ele>
        <time>2014-12-07T09:22:05Z</time>
      </trkpt>
      <trkpt lat="47.48313" lon="6.69013">
        <ele>356.275488</ele>
        <time>2014-12-07T09:22:06Z</time>
      </trkpt>
      <trkpt lat="47.48316" lon="6.69012">
        <ele>356.19818496</ele>
        <time>2014-12-07T09:22:07Z</time>
      </trkpt>
      <trkpt lat="47.48319" lon="6.69012">
        <ele>356.1471072</ele>
        <time>2014-12-07T09:22:08Z</time>
      </trkpt>
      <trkpt lat="47.48322" lon="6.69012">
        <ele>356.09601408</ele>
        <time>2014-12-07T09:22:09Z</time>
      </trkpt>
      <trkpt lat="47.48325" lon="6.69011">
        <ele>356.05033344</ele>
        <time>2014-12-07T09:22:10Z</time>
      </trkpt>
      <trkpt lat="47.48328" lon="6.69011">
        <ele>356.013264</ele>
        <time>2014-12-07T09:22:11Z</time>
      </trkpt>
      <trkpt lat="47.4833" lon="6.69011">
        <ele>355.97335296</ele>
        <time>2014-12-07T09:22:12Z</time>
      </trkpt>
      <trkpt lat="47.48333" lon="6.69012">
        <ele>355.9663584</ele>
        <time>2014-12-07T09:22:13Z</time>
      </trkpt>
      <trkpt lat="47.48336" lon="6.69012">
        <ele>356.18680000002</ele>
        <time>2014-12-07T09:22:14Z</time>
      </trkpt>
      <trkpt lat="47.4834" lon="6.69011">
        <ele>356.4088</ele>
        <time>2014-12-07T09:22:15Z</time>
      </trkpt>
      <trkpt lat="47.48343" lon="6.69011">
        <ele>356.62240000003</ele>
        <time>2014-12-07T09:22:16Z</time>
      </trkpt>
      <trkpt lat="47.48346" lon="6.69011">
        <ele>356.8276</ele>
        <time>2014-12-07T09:22:17Z</time>
      </trkpt>
      <trkpt lat="47.48349" lon="6.69011">
        <ele>357.03400000001</ele>
        <time>2014-12-07T09:22:18Z</time>
      </trkpt>
      <trkpt lat="47.48352" lon="6.6901">
        <ele>357.20919999999</ele>
        <time>2014-12-07T09:22:19Z</time>
      </trkpt>
      <trkpt lat="47.48355" lon="6.69009">
        <ele>357.32800000001</ele>
        <time>2014-12-07T09:22:20Z</time>
      </trkpt>
      <trkpt lat="47.48357" lon="6.69008">
        <ele>357.3976</ele>
        <time>2014-12-07T09:22:21Z</time>
      </trkpt>
      <trkpt lat="47.4836" lon="6.69006">
        <ele>357.418</ele>
        <time>2014-12-07T09:22:22Z</time>
      </trkpt>
      <trkpt lat="47.48362" lon="6.69004">
        <ele>357.41320000001</ele>
        <time>2014-12-07T09:22:23Z</time>
      </trkpt>
      <trkpt lat="47.48365" lon="6.69001">
        <ele>357.3688</ele>
        <time>2014-12-07T09:22:24Z</time>
      </trkpt>
      <trkpt lat="47.48367" lon="6.68999">
        <ele>357.27850624001</ele>
        <time>2014-12-07T09:22:25Z</time>
      </trkpt>
      <trkpt lat="47.48369" lon="6.68996">
        <ele>357.16497855999</ele>
        <time>2014-12-07T09:22:26Z</time>
      </trkpt>
      <trkpt lat="47.48371" lon="6.68993">
        <ele>357.01261983998</ele>
        <time>2014-12-07T09:22:27Z</time>
      </trkpt>
      <trkpt lat="47.48373" lon="6.6899">
        <ele>356.86094559999</ele>
        <time>2014-12-07T09:22:28Z</time>
      </trkpt>
      <trkpt lat="47.48375" lon="6.68986">
        <ele>356.65998784002</ele>
        <time>2014-12-07T09:22:29Z</time>
      </trkpt>
      <trkpt lat="47.48377" lon="6.68982">
        <ele>356.42268927998</ele>
        <time>2014-12-07T09:22:30Z</time>
      </trkpt>
      <trkpt lat="47.4838" lon="6.68978">
        <ele>356.17058943999</ele>
        <time>2014-12-07T09:22:31Z</time>
      </trkpt>
      <trkpt lat="47.48382" lon="6.68974">
        <ele>355.90993791998</ele>
        <time>2014-12-07T09:22:32Z</time>
      </trkpt>
      <trkpt lat="47.48384" lon="6.68969">
        <ele>355.60426240001</ele>
        <time>2014-12-07T09:22:33Z</time>
      </trkpt>
      <trkpt lat="47.48387" lon="6.68964">
        <ele>355.29866752</ele>
        <time>2014-12-07T09:22:34Z</time>
      </trkpt>
      <trkpt lat="47.48389" lon="6.6896">
        <ele>354.97067103999</ele>
        <time>2014-12-07T09:22:35Z</time>
      </trkpt>
      <trkpt lat="47.48391" lon="6.68955">
        <ele>354.66840063999</ele>
        <time>2014-12-07T09:22:36Z</time>
      </trkpt>
      <trkpt lat="47.48394" lon="6.68951">
        <ele>354.37557759998</ele>
        <time>2014-12-07T09:22:37Z</time>
      </trkpt>
      <trkpt lat="47.48397" lon="6.68947">
        <ele>354.0920464</ele>
        <time>2014-12-07T09:22:38Z</time>
      </trkpt>
      <trkpt lat="47.484" lon="6.68942">
        <ele>353.80259007999</ele>
        <time>2014-12-07T09:22:39Z</time>
      </trkpt>
      <trkpt lat="47.48403" lon="6.68938">
        <ele>353.50079488</ele>
        <time>2014-12-07T09:22:40Z</time>
      </trkpt>
      <trkpt lat="47.48405" lon="6.68933">
        <ele>353.1702016</ele>
        <time>2014-12-07T09:22:41Z</time>
      </trkpt>
      <trkpt lat="47.48408" lon="6.68928">
        <ele>352.82163328</ele>
        <time>2014-12-07T09:22:42Z</time>
      </trkpt>
      <trkpt lat="47.48411" lon="6.68924">
        <ele>352.45548544</ele>
        <time>2014-12-07T09:22:43Z</time>
      </trkpt>
      <trkpt lat="47.48413" lon="6.68919">
        <ele>352.05602848</ele>
        <time>2014-12-07T09:22:44Z</time>
      </trkpt>
      <trkpt lat="47.48416" lon="6.68914">
        <ele>351.87759999999</ele>
        <time>2014-12-07T09:22:45Z</time>
      </trkpt>
      <trkpt lat="47.48418" lon="6.68908">
        <ele>351.7844</ele>
        <time>2014-12-07T09:22:46Z</time>
      </trkpt>
      <trkpt lat="47.48421" lon="6.68902">
        <ele>351.584</ele>
        <time>2014-12-07T09:22:47Z</time>
      </trkpt>
      <trkpt lat="47.48423" lon="6.68896">
        <ele>351.4328</ele>
        <time>2014-12-07T09:22:48Z</time>
      </trkpt>
      <trkpt lat="47.48426" lon="6.68891">
        <ele>351.2684</ele>
        <time>2014-12-07T09:22:49Z</time>
      </trkpt>
      <trkpt lat="47.48429" lon="6.68885">
        <ele>351.1004</ele>
        <time>2014-12-07T09:22:50Z</time>
      </trkpt>
      <trkpt lat="47.48431" lon="6.68879">
        <ele>350.9264</ele>
        <time>2014-12-07T09:22:51Z</time>
      </trkpt>
      <trkpt lat="47.48434" lon="6.68873">
        <ele>350.7488</ele>
        <time>2014-12-07T09:22:52Z</time>
      </trkpt>
      <trkpt lat="47.48437" lon="6.68868">
        <ele>350.576</ele>
        <time>2014-12-07T09:22:53Z</time>
      </trkpt>
      <trkpt lat="47.4844" lon="6.68862">
        <ele>350.3996</ele>
        <time>2014-12-07T09:22:53Z</time>
      </trkpt>
      <trkpt lat="47.48442" lon="6.68855">
        <ele>350.2256</ele>
        <time>2014-12-07T09:22:55Z</time>
      </trkpt>
      <trkpt lat="47.48444" lon="6.68848">
        <ele>350.0276</ele>
        <time>2014-12-07T09:22:56Z</time>
      </trkpt>
      <trkpt lat="47.48446" lon="6.68843">
        <ele>349.8716</ele>
        <time>2014-12-07T09:22:57Z</time>
      </trkpt>
      <trkpt lat="47.48447" lon="6.68833">
        <ele>349.6124</ele>
        <time>2014-12-07T09:22:58Z</time>
      </trkpt>
      <trkpt lat="47.48447" lon="6.68826">
        <ele>349.1624</ele>
        <time>2014-12-07T09:22:59Z</time>
      </trkpt>
      <trkpt lat="47.48449" lon="6.68808">
        <ele>348.0896</ele>
        <time>2014-12-07T09:23:02Z</time>
      </trkpt>
      <trkpt lat="47.48451" lon="6.68806">
        <ele>347.9228</ele>
        <time>2014-12-07T09:23:03Z</time>
      </trkpt>
      <trkpt lat="47.48454" lon="6.68799">
        <ele>347.522</ele>
        <time>2014-12-07T09:23:04Z</time>
      </trkpt>
      <trkpt lat="47.48454" lon="6.68795">
        <ele>347.2652</ele>
        <time>2014-12-07T09:23:05Z</time>
      </trkpt>
      <trkpt lat="47.48455" lon="6.68789">
        <ele>346.8968</ele>
        <time>2014-12-07T09:23:06Z</time>
      </trkpt>
      <trkpt lat="47.4846" lon="6.68785">
        <ele>346.574</ele>
        <time>2014-12-07T09:23:07Z</time>
      </trkpt>
      <trkpt lat="47.48463" lon="6.6878">
        <ele>346.2728</ele>
        <time>2014-12-07T09:23:08Z</time>
      </trkpt>
      <trkpt lat="47.48466" lon="6.68776">
        <ele>345.9632</ele>
        <time>2014-12-07T09:23:09Z</time>
      </trkpt>
      <trkpt lat="47.4847" lon="6.68773">
        <ele>345.71360000001</ele>
        <time>2014-12-07T09:23:10Z</time>
      </trkpt>
      <trkpt lat="47.48472" lon="6.68771">
        <ele>345.5672</ele>
        <time>2014-12-07T09:23:11Z</time>
      </trkpt>
      <trkpt lat="47.48474" lon="6.68768">
        <ele>345.3872</ele>
        <time>2014-12-07T09:23:12Z</time>
      </trkpt>
      <trkpt lat="47.48477" lon="6.68765">
        <ele>345.2012</ele>
        <time>2014-12-07T09:23:13Z</time>
      </trkpt>
      <trkpt lat="47.48479" lon="6.68763">
        <ele>345.0092</ele>
        <time>2014-12-07T09:23:14Z</time>
      </trkpt>
      <trkpt lat="47.48482" lon="6.6876">
        <ele>344.7956</ele>
        <time>2014-12-07T09:23:15Z</time>
      </trkpt>
      <trkpt lat="47.48484" lon="6.68756">
        <ele>344.5772</ele>
        <time>2014-12-07T09:23:16Z</time>
      </trkpt>
      <trkpt lat="47.48486" lon="6.68753">
        <ele>344.3528</ele>
        <time>2014-12-07T09:23:17Z</time>
      </trkpt>
      <trkpt lat="47.48488" lon="6.68749">
        <ele>344.08382912</ele>
        <time>2014-12-07T09:23:18Z</time>
      </trkpt>
      <trkpt lat="47.4849" lon="6.68745">
        <ele>343.750544</ele>
        <time>2014-12-07T09:23:19Z</time>
      </trkpt>
      <trkpt lat="47.48492" lon="6.6874">
        <ele>343.37699264</ele>
        <time>2014-12-07T09:23:20Z</time>
      </trkpt>
      <trkpt lat="47.48494" lon="6.68735">
        <ele>342.97371872</ele>
        <time>2014-12-07T09:23:21Z</time>
      </trkpt>
      <trkpt lat="47.48495" lon="6.6873">
        <ele>342.59014688</ele>
        <time>2014-12-07T09:23:22Z</time>
      </trkpt>
      <trkpt lat="47.48496" lon="6.68725">
        <ele>342.1964792</ele>
        <time>2014-12-07T09:23:23Z</time>
      </trkpt>
      <trkpt lat="47.48497" lon="6.68719">
        <ele>341.81536928</ele>
        <time>2014-12-07T09:23:24Z</time>
      </trkpt>
      <trkpt lat="47.48497" lon="6.68714">
        <ele>341.45535872</ele>
        <time>2014-12-07T09:23:25Z</time>
      </trkpt>
      <trkpt lat="47.48498" lon="6.6871">
        <ele>341.11615904</ele>
        <time>2014-12-07T09:23:26Z</time>
      </trkpt>
      <trkpt lat="47.48501" lon="6.68705">
        <ele>340.80555871999</ele>
        <time>2014-12-07T09:23:27Z</time>
      </trkpt>
      <trkpt lat="47.48505" lon="6.68701">
        <ele>340.616912</ele>
        <time>2014-12-07T09:23:28Z</time>
      </trkpt>
      <trkpt lat="47.4851" lon="6.68696">
        <ele>340.48047295999</ele>
        <time>2014-12-07T09:23:29Z</time>
      </trkpt>
      <trkpt lat="47.48516" lon="6.68693">
        <ele>340.46910656</ele>
        <time>2014-12-07T09:23:30Z</time>
      </trkpt>
      <trkpt lat="47.48522" lon="6.6869">
        <ele>340.54724479999</ele>
        <time>2014-12-07T09:23:31Z</time>
      </trkpt>
      <trkpt lat="47.48527" lon="6.68689">
        <ele>340.69806176001</ele>
        <time>2014-12-07T09:23:32Z</time>
      </trkpt>
      <trkpt lat="47.48532" lon="6.68688">
        <ele>340.88803904</ele>
        <time>2014-12-07T09:23:33Z</time>
      </trkpt>
      <trkpt lat="47.48537" lon="6.68688">
        <ele>341.04513920001</ele>
        <time>2014-12-07T09:23:34Z</time>
      </trkpt>
      <trkpt lat="47.4854" lon="6.68687">
        <ele>341.15858624</ele>
        <time>2014-12-07T09:23:35Z</time>
      </trkpt>
      <trkpt lat="47.48543" lon="6.68685">
        <ele>341.23558688</ele>
        <time>2014-12-07T09:23:36Z</time>
      </trkpt>
      <trkpt lat="47.48547" lon="6.68682">
        <ele>341.2982048</ele>
        <time>2014-12-07T09:23:38Z</time>
      </trkpt>
      <trkpt lat="47.48548" lon="6.68681">
        <ele>341.30230400001</ele>
        <time>2014-12-07T09:23:39Z</time>
      </trkpt>
      <trkpt lat="47.48551" lon="6.68676">
        <ele>341.31034880001</ele>
        <time>2014-12-07T09:23:42Z</time>
      </trkpt>
      <trkpt lat="47.48552" lon="6.68674">
        <ele>341.32119104002</ele>
        <time>2014-12-07T09:23:43Z</time>
      </trkpt>
      <trkpt lat="47.48554" lon="6.68671">
        <ele>341.32782656001</ele>
        <time>2014-12-07T09:23:44Z</time>
      </trkpt>
      <trkpt lat="47.48555" lon="6.68668">
        <ele>341.31498559998</ele>
        <time>2014-12-07T09:23:45Z</time>
      </trkpt>
      <trkpt lat="47.48556" lon="6.68662">
        <ele>341.54626144001</ele>
        <time>2014-12-07T09:23:47Z</time>
      </trkpt>
      <trkpt lat="47.48557" lon="6.6866">
        <ele>341.69529855999</ele>
        <time>2014-12-07T09:23:48Z</time>
      </trkpt>
      <trkpt lat="47.48559" lon="6.68655">
        <ele>341.98546431999</ele>
        <time>2014-12-07T09:23:50Z</time>
      </trkpt>
      <trkpt lat="47.4856" lon="6.68653">
        <ele>342.11679040002</ele>
        <time>2014-12-07T09:23:51Z</time>
      </trkpt>
      <trkpt lat="47.48562" lon="6.68648">
        <ele>342.47824623998</ele>
        <time>2014-12-07T09:23:54Z</time>
      </trkpt>
      <trkpt lat="47.48563" lon="6.68646">
        <ele>342.59954751999</ele>
        <time>2014-12-07T09:23:55Z</time>
      </trkpt>
      <trkpt lat="47.48566" lon="6.68643">
        <ele>342.84819616</ele>
        <time>2014-12-07T09:23:57Z</time>
      </trkpt>
      <trkpt lat="47.48567" lon="6.68642">
        <ele>342.98880256</ele>
        <time>2014-12-07T09:23:58Z</time>
      </trkpt>
      <trkpt lat="47.4857" lon="6.68639">
        <ele>343.26428800001</ele>
        <time>2014-12-07T09:24:00Z</time>
      </trkpt>
      <trkpt lat="47.48571" lon="6.68638">
        <ele>343.36738000001</ele>
        <time>2014-12-07T09:24:01Z</time>
      </trkpt>
      <trkpt lat="47.48574" lon="6.68635">
        <ele>343.65230560001</ele>
        <time>2014-12-07T09:24:04Z</time>
      </trkpt>
      <trkpt lat="47.48575" lon="6.68633">
        <ele>343.75047808</ele>
        <time>2014-12-07T09:24:05Z</time>
      </trkpt>
      <trkpt lat="47.48577" lon="6.68628">
        <ele>344.03074287999</ele>
        <time>2014-12-07T09:24:07Z</time>
      </trkpt>
      <trkpt lat="47.48578" lon="6.68625">
        <ele>344.20292176</ele>
        <time>2014-12-07T09:24:08Z</time>
      </trkpt>
      <trkpt lat="47.48579" lon="6.68622">
        <ele>344.37080176001</ele>
        <time>2014-12-07T09:24:09Z</time>
      </trkpt>
      <trkpt lat="47.48579" lon="6.68619">
        <ele>344.51466880002</ele>
        <time>2014-12-07T09:24:10Z</time>
      </trkpt>
      <trkpt lat="47.4858" lon="6.68614">
        <ele>344.7185824</ele>
        <time>2014-12-07T09:24:12Z</time>
      </trkpt>
      <trkpt lat="47.4858" lon="6.68612">
        <ele>344.7916576</ele>
        <time>2014-12-07T09:24:13Z</time>
      </trkpt>
      <trkpt lat="47.48579" lon="6.68606">
        <ele>344.97139167999</ele>
        <time>2014-12-07T09:24:16Z</time>
      </trkpt>
      <trkpt lat="47.48579" lon="6.68605">
        <ele>345.02334208002</ele>
        <time>2014-12-07T09:24:17Z</time>
      </trkpt>
      <trkpt lat="47.48578" lon="6.68599">
        <ele>345.16564288002</ele>
        <time>2014-12-07T09:24:20Z</time>
      </trkpt>
      <trkpt lat="47.48578" lon="6.68597">
        <ele>345.24650080001</ele>
        <time>2014-12-07T09:24:21Z</time>
      </trkpt>
      <trkpt lat="47.48578" lon="6.68592">
        <ele>345.41063679999</ele>
        <time>2014-12-07T09:24:23Z</time>
      </trkpt>
      <trkpt lat="47.48578" lon="6.6859">
        <ele>345.47682975999</ele>
        <time>2014-12-07T09:24:24Z</time>
      </trkpt>
      <trkpt lat="47.48578" lon="6.68585">
        <ele>345.65859999998</ele>
        <time>2014-12-07T09:24:26Z</time>
      </trkpt>
      <trkpt lat="47.48578" lon="6.68582">
        <ele>345.7884248</ele>
        <time>2014-12-07T09:24:27Z</time>
      </trkpt>
      <trkpt lat="47.48579" lon="6.68576">
        <ele>346.09521920002</ele>
        <time>2014-12-07T09:24:29Z</time>
      </trkpt>
      <trkpt lat="47.4858" lon="6.68572">
        <ele>346.2673688</ele>
        <time>2014-12-07T09:24:30Z</time>
      </trkpt>
      <trkpt lat="47.48581" lon="6.68569">
        <ele>346.44318800001</ele>
        <time>2014-12-07T09:24:31Z</time>
      </trkpt>
      <trkpt lat="47.48582" lon="6.68565">
        <ele>346.5847808</ele>
        <time>2014-12-07T09:24:32Z</time>
      </trkpt>
      <trkpt lat="47.48583" lon="6.6856">
        <ele>346.83791359999</ele>
        <time>2014-12-07T09:24:34Z</time>
      </trkpt>
      <trkpt lat="47.48583" lon="6.68557">
        <ele>346.96708479999</ele>
        <time>2014-12-07T09:24:35Z</time>
      </trkpt>
      <trkpt lat="47.48584" lon="6.6855">
        <ele>347.2096</ele>
        <time>2014-12-07T09:24:37Z</time>
      </trkpt>
      <trkpt lat="47.48584" lon="6.68547">
        <ele>347.3197312</ele>
        <time>2014-12-07T09:24:38Z</time>
      </trkpt>
      <trkpt lat="47.48584" lon="6.68542">
        <ele>347.50920832</ele>
        <time>2014-12-07T09:24:40Z</time>
      </trkpt>
      <trkpt lat="47.48584" lon="6.6854">
        <ele>347.57470816</ele>
        <time>2014-12-07T09:24:41Z</time>
      </trkpt>
      <trkpt lat="47.48584" lon="6.68534">
        <ele>347.77992928</ele>
        <time>2014-12-07T09:24:45Z</time>
      </trkpt>
      <trkpt lat="47.48584" lon="6.68532">
        <ele>347.84168704</ele>
        <time>2014-12-07T09:24:46Z</time>
      </trkpt>
      <trkpt lat="47.48586" lon="6.68526">
        <ele>348.0660736</ele>
        <time>2014-12-07T09:24:56Z</time>
      </trkpt>
      <trkpt lat="47.48586" lon="6.68526">
        <ele>348.0837616</ele>
        <time>2014-12-07T09:24:57Z</time>
      </trkpt>
      <trkpt lat="47.48586" lon="6.68524">
        <ele>348.14176288</ele>
        <time>2014-12-07T09:24:59Z</time>
      </trkpt>
      <trkpt lat="47.48589" lon="6.6851">
        <ele>348.64915264</ele>
        <time>2014-12-07T09:25:07Z</time>
      </trkpt>
      <trkpt lat="47.48591" lon="6.68506">
        <ele>348.7862032</ele>
        <time>2014-12-07T09:25:11Z</time>
      </trkpt>
      <trkpt lat="47.48591" lon="6.68504">
        <ele>348.85831552</ele>
        <time>2014-12-07T09:25:12Z</time>
      </trkpt>
      <trkpt lat="47.48593" lon="6.68499">
        <ele>348.9634624</ele>
        <time>2014-12-07T09:25:14Z</time>
      </trkpt>
      <trkpt lat="47.48594" lon="6.68496">
        <ele>348.86146048</ele>
        <time>2014-12-07T09:25:15Z</time>
      </trkpt>
      <trkpt lat="47.48595" lon="6.68493">
        <ele>348.75825088</ele>
        <time>2014-12-07T09:25:16Z</time>
      </trkpt>
      <trkpt lat="47.48596" lon="6.68489">
        <ele>348.6408928</ele>
        <time>2014-12-07T09:25:17Z</time>
      </trkpt>
      <trkpt lat="47.48597" lon="6.68485">
        <ele>348.5062144</ele>
        <time>2014-12-07T09:25:18Z</time>
      </trkpt>
      <trkpt lat="47.48598" lon="6.68477">
        <ele>348.25711552</ele>
        <time>2014-12-07T09:25:19Z</time>
      </trkpt>
      <trkpt lat="47.48599" lon="6.68472">
        <ele>348.10878976</ele>
        <time>2014-12-07T09:25:20Z</time>
      </trkpt>
      <trkpt lat="47.48599" lon="6.68469">
        <ele>348.01937152</ele>
        <time>2014-12-07T09:25:21Z</time>
      </trkpt>
      <trkpt lat="47.48601" lon="6.68464">
        <ele>347.87165824</ele>
        <time>2014-12-07T09:25:24Z</time>
      </trkpt>
      <trkpt lat="47.48601" lon="6.68462">
        <ele>347.83678912</ele>
        <time>2014-12-07T09:25:25Z</time>
      </trkpt>
      <trkpt lat="47.48602" lon="6.68458">
        <ele>347.71444096</ele>
        <time>2014-12-07T09:25:28Z</time>
      </trkpt>
      <trkpt lat="47.48602" lon="6.68456">
        <ele>347.64896512</ele>
        <time>2014-12-07T09:25:29Z</time>
      </trkpt>
      <trkpt lat="47.48603" lon="6.68449">
        <ele>347.46791296</ele>
        <time>2014-12-07T09:25:31Z</time>
      </trkpt>
      <trkpt lat="47.48604" lon="6.68445">
        <ele>347.350528</ele>
        <time>2014-12-07T09:25:32Z</time>
      </trkpt>
      <trkpt lat="47.48606" lon="6.68441">
        <ele>347.24594176</ele>
        <time>2014-12-07T09:25:33Z</time>
      </trkpt>
      <trkpt lat="47.48607" lon="6.68435">
        <ele>347.110528</ele>
        <time>2014-12-07T09:25:34Z</time>
      </trkpt>
      <trkpt lat="47.48609" lon="6.6843">
        <ele>346.9851664</ele>
        <time>2014-12-07T09:25:35Z</time>
      </trkpt>
      <trkpt lat="47.48611" lon="6.68424">
        <ele>346.86799936</ele>
        <time>2014-12-07T09:25:36Z</time>
      </trkpt>
      <trkpt lat="47.48612" lon="6.68419">
        <ele>346.76206719999</ele>
        <time>2014-12-07T09:25:37Z</time>
      </trkpt>
      <trkpt lat="47.48614" lon="6.68413">
        <ele>346.69509712</ele>
        <time>2014-12-07T09:25:38Z</time>
      </trkpt>
      <trkpt lat="47.48616" lon="6.68407">
        <ele>346.67634879999</ele>
        <time>2014-12-07T09:25:39Z</time>
      </trkpt>
      <trkpt lat="47.48618" lon="6.68401">
        <ele>346.67801200001</ele>
        <time>2014-12-07T09:25:40Z</time>
      </trkpt>
      <trkpt lat="47.48619" lon="6.68395">
        <ele>346.68655167999</ele>
        <time>2014-12-07T09:25:41Z</time>
      </trkpt>
      <trkpt lat="47.48621" lon="6.6839">
        <ele>346.70578816001</ele>
        <time>2014-12-07T09:25:42Z</time>
      </trkpt>
      <trkpt lat="47.48623" lon="6.68385">
        <ele>346.73225344001</ele>
        <time>2014-12-07T09:25:43Z</time>
      </trkpt>
      <trkpt lat="47.48624" lon="6.68381">
        <ele>346.7592256</ele>
        <time>2014-12-07T09:25:44Z</time>
      </trkpt>
      <trkpt lat="47.48626" lon="6.68376">
        <ele>346.78699264</ele>
        <time>2014-12-07T09:25:45Z</time>
      </trkpt>
      <trkpt lat="47.48627" lon="6.68371">
        <ele>346.82169664</ele>
        <time>2014-12-07T09:25:46Z</time>
      </trkpt>
      <trkpt lat="47.48628" lon="6.68366">
        <ele>346.84926016</ele>
        <time>2014-12-07T09:25:47Z</time>
      </trkpt>
      <trkpt lat="47.48629" lon="6.68362">
        <ele>346.87716304002</ele>
        <time>2014-12-07T09:25:48Z</time>
      </trkpt>
      <trkpt lat="47.4863" lon="6.68358">
        <ele>346.90003407999</ele>
        <time>2014-12-07T09:25:49Z</time>
      </trkpt>
      <trkpt lat="47.48631" lon="6.68354">
        <ele>346.93587568</ele>
        <time>2014-12-07T09:25:50Z</time>
      </trkpt>
      <trkpt lat="47.48632" lon="6.6835">
        <ele>346.9704928</ele>
        <time>2014-12-07T09:25:51Z</time>
      </trkpt>
      <trkpt lat="47.48633" lon="6.68347">
        <ele>347.00858223999</ele>
        <time>2014-12-07T09:25:52Z</time>
      </trkpt>
      <trkpt lat="47.48634" lon="6.68343">
        <ele>347.05548016001</ele>
        <time>2014-12-07T09:25:53Z</time>
      </trkpt>
      <trkpt lat="47.48635" lon="6.6834">
        <ele>347.10583263998</ele>
        <time>2014-12-07T09:25:54Z</time>
      </trkpt>
      <trkpt lat="47.48638" lon="6.68336">
        <ele>347.26906624001</ele>
        <time>2014-12-07T09:25:56Z</time>
      </trkpt>
      <trkpt lat="47.4864" lon="6.68335">
        <ele>347.36969200001</ele>
        <time>2014-12-07T09:25:57Z</time>
      </trkpt>
      <trkpt lat="47.48643" lon="6.68335">
        <ele>347.59501455999</ele>
        <time>2014-12-07T09:25:59Z</time>
      </trkpt>
      <trkpt lat="47.48648" lon="6.68338">
        <ele>347.86782831999</ele>
        <time>2014-12-07T09:26:02Z</time>
      </trkpt>
      <trkpt lat="47.48652" lon="6.68341">
        <ele>348.04986639998</ele>
        <time>2014-12-07T09:26:04Z</time>
      </trkpt>
      <trkpt lat="47.48653" lon="6.68343">
        <ele>348.12107200001</ele>
        <time>2014-12-07T09:26:05Z</time>
      </trkpt>
      <trkpt lat="47.48654" lon="6.68346">
        <ele>348.17633343999</ele>
        <time>2014-12-07T09:26:06Z</time>
      </trkpt>
      <trkpt lat="47.48656" lon="6.68349">
        <ele>348.21972880001</ele>
        <time>2014-12-07T09:26:07Z</time>
      </trkpt>
      <trkpt lat="47.48658" lon="6.68354">
        <ele>348.28652224</ele>
        <time>2014-12-07T09:26:09Z</time>
      </trkpt>
      <trkpt lat="47.48659" lon="6.68357">
        <ele>348.32528895999</ele>
        <time>2014-12-07T09:26:10Z</time>
      </trkpt>
      <trkpt lat="47.48661" lon="6.68362">
        <ele>348.40336527999</ele>
        <time>2014-12-07T09:26:12Z</time>
      </trkpt>
      <trkpt lat="47.48663" lon="6.68364">
        <ele>348.45278896</ele>
        <time>2014-12-07T09:26:13Z</time>
      </trkpt>
      <trkpt lat="47.48665" lon="6.68367">
        <ele>348.49751200001</ele>
        <time>2014-12-07T09:26:14Z</time>
      </trkpt>
      <trkpt lat="47.48666" lon="6.6837">
        <ele>348.53732703999</ele>
        <time>2014-12-07T09:26:15Z</time>
      </trkpt>
      <trkpt lat="47.48669" lon="6.68375">
        <ele>348.61053919999</ele>
        <time>2014-12-07T09:26:17Z</time>
      </trkpt>
      <trkpt lat="47.4867" lon="6.68377">
        <ele>348.6451448</ele>
        <time>2014-12-07T09:26:18Z</time>
      </trkpt>
      <trkpt lat="47.48672" lon="6.6838">
        <ele>348.69776384001</ele>
        <time>2014-12-07T09:26:20Z</time>
      </trkpt>
      <trkpt lat="47.48673" lon="6.68382">
        <ele>348.73700528001</ele>
        <time>2014-12-07T09:26:21Z</time>
      </trkpt>
      <trkpt lat="47.48677" lon="6.68382">
        <ele>348.93440479999</ele>
        <time>2014-12-07T09:26:23Z</time>
      </trkpt>
      <trkpt lat="47.48679" lon="6.68381">
        <ele>349.06328336</ele>
        <time>2014-12-07T09:26:24Z</time>
      </trkpt>
      <trkpt lat="47.48683" lon="6.68379">
        <ele>349.30608128</ele>
        <time>2014-12-07T09:26:26Z</time>
      </trkpt>
      <trkpt lat="47.48685" lon="6.68377">
        <ele>349.42949360001</ele>
        <time>2014-12-07T09:26:27Z</time>
      </trkpt>
      <trkpt lat="47.48688" lon="6.68374">
        <ele>349.6700864</ele>
        <time>2014-12-07T09:26:29Z</time>
      </trkpt>
      <trkpt lat="47.4869" lon="6.68372">
        <ele>349.79672671998</ele>
        <time>2014-12-07T09:26:30Z</time>
      </trkpt>
      <trkpt lat="47.48693" lon="6.68369">
        <ele>350.03014159999</ele>
        <time>2014-12-07T09:26:32Z</time>
      </trkpt>
      <trkpt lat="47.48695" lon="6.68367">
        <ele>350.12946319999</ele>
        <time>2014-12-07T09:26:33Z</time>
      </trkpt>
      <trkpt lat="47.48698" lon="6.68364">
        <ele>350.38805695999</ele>
        <time>2014-12-07T09:26:36Z</time>
      </trkpt>
      <trkpt lat="47.48699" lon="6.68363">
        <ele>350.46426031999</ele>
        <time>2014-12-07T09:26:37Z</time>
      </trkpt>
      <trkpt lat="47.48702" lon="6.6836">
        <ele>350.68678399999</ele>
        <time>2014-12-07T09:26:40Z</time>
      </trkpt>
      <trkpt lat="47.48703" lon="6.68359">
        <ele>350.75633071998</ele>
        <time>2014-12-07T09:26:41Z</time>
      </trkpt>
      <trkpt lat="47.48706" lon="6.68355">
        <ele>350.98726112</ele>
        <time>2014-12-07T09:26:44Z</time>
      </trkpt>
      <trkpt lat="47.48708" lon="6.68354">
        <ele>351.07869199998</ele>
        <time>2014-12-07T09:26:45Z</time>
      </trkpt>
      <trkpt lat="47.48711" lon="6.68351">
        <ele>351.32739584</ele>
        <time>2014-12-07T09:26:48Z</time>
      </trkpt>
      <trkpt lat="47.48712" lon="6.6835">
        <ele>351.39370112</ele>
        <time>2014-12-07T09:26:49Z</time>
      </trkpt>
      <trkpt lat="47.48714" lon="6.68346">
        <ele>351.63248384</ele>
        <time>2014-12-07T09:26:54Z</time>
      </trkpt>
      <trkpt lat="47.48715" lon="6.68345">
        <ele>351.69439568</ele>
        <time>2014-12-07T09:26:55Z</time>
      </trkpt>
      <trkpt lat="47.48719" lon="6.68344">
        <ele>351.95502895999</ele>
        <time>2014-12-07T09:26:59Z</time>
      </trkpt>
      <trkpt lat="47.4873" lon="6.6834">
        <ele>352.671008</ele>
        <time>2014-12-07T09:27:07Z</time>
      </trkpt>
      <trkpt lat="47.48733" lon="6.68341">
        <ele>352.82968255998</ele>
        <time>2014-12-07T09:27:10Z</time>
      </trkpt>
      <trkpt lat="47.48735" lon="6.68342">
        <ele>352.89157568001</ele>
        <time>2014-12-07T09:27:11Z</time>
      </trkpt>
      <trkpt lat="47.48739" lon="6.68342">
        <ele>353.13705151999</ele>
        <time>2014-12-07T09:27:14Z</time>
      </trkpt>
      <trkpt lat="47.4874" lon="6.68342">
        <ele>353.22164239999</ele>
        <time>2014-12-07T09:27:15Z</time>
      </trkpt>
      <trkpt lat="47.48743" lon="6.68342">
        <ele>353.38914752002</ele>
        <time>2014-12-07T09:27:17Z</time>
      </trkpt>
      <trkpt lat="47.48745" lon="6.68343">
        <ele>353.49134335999</ele>
        <time>2014-12-07T09:27:18Z</time>
      </trkpt>
      <trkpt lat="47.48747" lon="6.68343">
        <ele>353.62034431999</ele>
        <time>2014-12-07T09:27:19Z</time>
      </trkpt>
      <trkpt lat="47.4875" lon="6.68343">
        <ele>353.75760463999</ele>
        <time>2014-12-07T09:27:20Z</time>
      </trkpt>
      <trkpt lat="47.48752" lon="6.68343">
        <ele>353.7805952</ele>
        <time>2014-12-07T09:27:21Z</time>
      </trkpt>
      <trkpt lat="47.48754" lon="6.68343">
        <ele>353.78934272</ele>
        <time>2014-12-07T09:27:22Z</time>
      </trkpt>
      <trkpt lat="47.48757" lon="6.68342">
        <ele>353.80651616</ele>
        <time>2014-12-07T09:27:23Z</time>
      </trkpt>
      <trkpt lat="47.48759" lon="6.68342">
        <ele>353.82326528</ele>
        <time>2014-12-07T09:27:24Z</time>
      </trkpt>
      <trkpt lat="47.48762" lon="6.68341">
        <ele>353.8393232</ele>
        <time>2014-12-07T09:27:25Z</time>
      </trkpt>
      <trkpt lat="47.48764" lon="6.68341">
        <ele>353.85112064</ele>
        <time>2014-12-07T09:27:26Z</time>
      </trkpt>
      <trkpt lat="47.48767" lon="6.6834">
        <ele>353.86418432</ele>
        <time>2014-12-07T09:27:27Z</time>
      </trkpt>
      <trkpt lat="47.48769" lon="6.6834">
        <ele>353.88443264</ele>
        <time>2014-12-07T09:27:28Z</time>
      </trkpt>
      <trkpt lat="47.48772" lon="6.68339">
        <ele>353.90504864</ele>
        <time>2014-12-07T09:27:29Z</time>
      </trkpt>
      <trkpt lat="47.48775" lon="6.68338">
        <ele>353.92613696</ele>
        <time>2014-12-07T09:27:30Z</time>
      </trkpt>
      <trkpt lat="47.48777" lon="6.68337">
        <ele>353.9488976</ele>
        <time>2014-12-07T09:27:31Z</time>
      </trkpt>
      <trkpt lat="47.4878" lon="6.68335">
        <ele>353.97116672</ele>
        <time>2014-12-07T09:27:32Z</time>
      </trkpt>
      <trkpt lat="47.48784" lon="6.68332">
        <ele>354.0496</ele>
        <time>2014-12-07T09:27:34Z</time>
      </trkpt>
      <trkpt lat="47.48785" lon="6.68331">
        <ele>354.136</ele>
        <time>2014-12-07T09:27:35Z</time>
      </trkpt>
      <trkpt lat="47.48789" lon="6.68328">
        <ele>354.2704</ele>
        <time>2014-12-07T09:27:37Z</time>
      </trkpt>
      <trkpt lat="47.48791" lon="6.68327">
        <ele>354.3136</ele>
        <time>2014-12-07T09:27:38Z</time>
      </trkpt>
      <trkpt lat="47.48795" lon="6.68326">
        <ele>354.3472</ele>
        <time>2014-12-07T09:27:40Z</time>
      </trkpt>
      <trkpt lat="47.48797" lon="6.68325">
        <ele>354.3808</ele>
        <time>2014-12-07T09:27:41Z</time>
      </trkpt>
      <trkpt lat="47.48799" lon="6.68324">
        <ele>354.448</ele>
        <time>2014-12-07T09:27:42Z</time>
      </trkpt>
      <trkpt lat="47.48801" lon="6.68322">
        <ele>354.5344</ele>
        <time>2014-12-07T09:27:43Z</time>
      </trkpt>
      <trkpt lat="47.48803" lon="6.6832">
        <ele>354.6256</ele>
        <time>2014-12-07T09:27:44Z</time>
      </trkpt>
      <trkpt lat="47.48805" lon="6.68319">
        <ele>354.7024</ele>
        <time>2014-12-07T09:27:45Z</time>
      </trkpt>
      <trkpt lat="47.48809" lon="6.68316">
        <ele>354.8368</ele>
        <time>2014-12-07T09:27:47Z</time>
      </trkpt>
      <trkpt lat="47.48811" lon="6.68315">
        <ele>354.904</ele>
        <time>2014-12-07T09:27:48Z</time>
      </trkpt>
      <trkpt lat="47.48814" lon="6.68311">
        <ele>355.0816</ele>
        <time>2014-12-07T09:27:50Z</time>
      </trkpt>
      <trkpt lat="47.48815" lon="6.68309">
        <ele>355.1824</ele>
        <time>2014-12-07T09:27:51Z</time>
      </trkpt>
      <trkpt lat="47.48817" lon="6.68306">
        <ele>355.3024</ele>
        <time>2014-12-07T09:27:52Z</time>
      </trkpt>
      <trkpt lat="47.48818" lon="6.68304">
        <ele>355.4272</ele>
        <time>2014-12-07T09:27:53Z</time>
      </trkpt>
      <trkpt lat="47.4882" lon="6.68301">
        <ele>355.5616</ele>
        <time>2014-12-07T09:27:54Z</time>
      </trkpt>
      <trkpt lat="47.48821" lon="6.68298">
        <ele>355.7008</ele>
        <time>2014-12-07T09:27:55Z</time>
      </trkpt>
      <trkpt lat="47.48822" lon="6.68295">
        <ele>355.8448</ele>
        <time>2014-12-07T09:27:56Z</time>
      </trkpt>
      <trkpt lat="47.48823" lon="6.68292">
        <ele>355.9888</ele>
        <time>2014-12-07T09:27:57Z</time>
      </trkpt>
      <trkpt lat="47.48825" lon="6.68289">
        <ele>356.128</ele>
        <time>2014-12-07T09:27:58Z</time>
      </trkpt>
      <trkpt lat="47.48826" lon="6.68286">
        <ele>356.2768</ele>
        <time>2014-12-07T09:27:59Z</time>
      </trkpt>
      <trkpt lat="47.48833" lon="6.68261">
        <ele>357.4576</ele>
        <time>2014-12-07T09:28:06Z</time>
      </trkpt>
      <trkpt lat="47.48835" lon="6.68258">
        <ele>357.60653696</ele>
        <time>2014-12-07T09:28:08Z</time>
      </trkpt>
      <trkpt lat="47.48836" lon="6.68255">
        <ele>357.7271168</ele>
        <time>2014-12-07T09:28:09Z</time>
      </trkpt>
      <trkpt lat="47.48838" lon="6.6825">
        <ele>357.9416</ele>
        <time>2014-12-07T09:28:11Z</time>
      </trkpt>
      <trkpt lat="47.48839" lon="6.68248">
        <ele>358.03738016</ele>
        <time>2014-12-07T09:28:12Z</time>
      </trkpt>
      <trkpt lat="47.48841" lon="6.68243">
        <ele>358.2257408</ele>
        <time>2014-12-07T09:28:14Z</time>
      </trkpt>
      <trkpt lat="47.48843" lon="6.68241">
        <ele>358.316384</ele>
        <time>2014-12-07T09:28:15Z</time>
      </trkpt>
      <trkpt lat="47.48846" lon="6.68236">
        <ele>358.46200064</ele>
        <time>2014-12-07T09:28:17Z</time>
      </trkpt>
      <trkpt lat="47.48847" lon="6.68234">
        <ele>358.52009984</ele>
        <time>2014-12-07T09:28:18Z</time>
      </trkpt>
      <trkpt lat="47.4885" lon="6.6823">
        <ele>358.64672</ele>
        <time>2014-12-07T09:28:20Z</time>
      </trkpt>
      <trkpt lat="47.48851" lon="6.68228">
        <ele>358.72777280001</ele>
        <time>2014-12-07T09:28:21Z</time>
      </trkpt>
      <trkpt lat="47.48853" lon="6.68223">
        <ele>358.89800192</ele>
        <time>2014-12-07T09:28:23Z</time>
      </trkpt>
      <trkpt lat="47.48853" lon="6.68221">
        <ele>358.98344576</ele>
        <time>2014-12-07T09:28:24Z</time>
      </trkpt>
      <trkpt lat="47.48854" lon="6.68216">
        <ele>359.1774272</ele>
        <time>2014-12-07T09:28:26Z</time>
      </trkpt>
      <trkpt lat="47.48854" lon="6.68214">
        <ele>359.26545343999</ele>
        <time>2014-12-07T09:28:27Z</time>
      </trkpt>
      <trkpt lat="47.48855" lon="6.6821">
        <ele>359.4360128</ele>
        <time>2014-12-07T09:28:29Z</time>
      </trkpt>
      <trkpt lat="47.48855" lon="6.68207">
        <ele>359.52003007999</ele>
        <time>2014-12-07T09:28:30Z</time>
      </trkpt>
      <trkpt lat="47.48857" lon="6.68202">
        <ele>359.69589248</ele>
        <time>2014-12-07T09:28:32Z</time>
      </trkpt>
      <trkpt lat="47.48859" lon="6.68199">
        <ele>359.76961088001</ele>
        <time>2014-12-07T09:28:33Z</time>
      </trkpt>
      <trkpt lat="47.4886" lon="6.68196">
        <ele>359.84243743999</ele>
        <time>2014-12-07T09:28:34Z</time>
      </trkpt>
      <trkpt lat="47.48862" lon="6.68194">
        <ele>359.9128448</ele>
        <time>2014-12-07T09:28:35Z</time>
      </trkpt>
      <trkpt lat="47.48863" lon="6.68191">
        <ele>359.98083296001</ele>
        <time>2014-12-07T09:28:36Z</time>
      </trkpt>
      <trkpt lat="47.48865" lon="6.68188">
        <ele>360.04548800001</ele>
        <time>2014-12-07T09:28:37Z</time>
      </trkpt>
      <trkpt lat="47.48868" lon="6.68183">
        <ele>360.142904</ele>
        <time>2014-12-07T09:28:39Z</time>
      </trkpt>
      <trkpt lat="47.48869" lon="6.68181">
        <ele>360.18015872</ele>
        <time>2014-12-07T09:28:40Z</time>
      </trkpt>
      <trkpt lat="47.48871" lon="6.68178">
        <ele>360.22577023999</ele>
        <time>2014-12-07T09:28:41Z</time>
      </trkpt>
      <trkpt lat="47.48873" lon="6.68175">
        <ele>360.26931199999</ele>
        <time>2014-12-07T09:28:42Z</time>
      </trkpt>
      <trkpt lat="47.48874" lon="6.68172">
        <ele>360.3315776</ele>
        <time>2014-12-07T09:28:43Z</time>
      </trkpt>
      <trkpt lat="47.48875" lon="6.68169">
        <ele>360.40540159999</ele>
        <time>2014-12-07T09:28:44Z</time>
      </trkpt>
      <trkpt lat="47.48877" lon="6.68166">
        <ele>360.47860032001</ele>
        <time>2014-12-07T09:28:45Z</time>
      </trkpt>
      <trkpt lat="47.48878" lon="6.68163">
        <ele>360.56885999999</ele>
        <time>2014-12-07T09:28:46Z</time>
      </trkpt>
      <trkpt lat="47.48879" lon="6.6816">
        <ele>360.6491688</ele>
        <time>2014-12-07T09:28:47Z</time>
      </trkpt>
      <trkpt lat="47.4888" lon="6.68157">
        <ele>360.72019344001</ele>
        <time>2014-12-07T09:28:48Z</time>
      </trkpt>
      <trkpt lat="47.48883" lon="6.68152">
        <ele>360.84271103999</ele>
        <time>2014-12-07T09:28:50Z</time>
      </trkpt>
      <trkpt lat="47.48884" lon="6.68149">
        <ele>360.90259248001</ele>
        <time>2014-12-07T09:28:51Z</time>
      </trkpt>
      <trkpt lat="47.48886" lon="6.68144">
        <ele>361.03626239999</ele>
        <time>2014-12-07T09:28:53Z</time>
      </trkpt>
      <trkpt lat="47.48887" lon="6.68141">
        <ele>361.10185535999</ele>
        <time>2014-12-07T09:28:54Z</time>
      </trkpt>
      <trkpt lat="47.48889" lon="6.68137">
        <ele>361.17419520001</ele>
        <time>2014-12-07T09:28:55Z</time>
      </trkpt>
      <trkpt lat="47.48891" lon="6.68134">
        <ele>361.24476671999</ele>
        <time>2014-12-07T09:28:56Z</time>
      </trkpt>
      <trkpt lat="47.48893" lon="6.6813">
        <ele>361.32154799999</ele>
        <time>2014-12-07T09:28:57Z</time>
      </trkpt>
      <trkpt lat="47.48894" lon="6.68126">
        <ele>361.39625712</ele>
        <time>2014-12-07T09:28:58Z</time>
      </trkpt>
      <trkpt lat="47.48896" lon="6.68122">
        <ele>361.47713280001</ele>
        <time>2014-12-07T09:28:59Z</time>
      </trkpt>
      <trkpt lat="47.48901" lon="6.68111">
        <ele>361.68267743999</ele>
        <time>2014-12-07T09:29:02Z</time>
      </trkpt>
      <trkpt lat="47.48903" lon="6.68107">
        <ele>361.75559712</ele>
        <time>2014-12-07T09:29:03Z</time>
      </trkpt>
      <trkpt lat="47.48905" lon="6.68103">
        <ele>361.83325343999</ele>
        <time>2014-12-07T09:29:04Z</time>
      </trkpt>
      <trkpt lat="47.48907" lon="6.68099">
        <ele>361.91146944</ele>
        <time>2014-12-07T09:29:05Z</time>
      </trkpt>
      <trkpt lat="47.48909" lon="6.68094">
        <ele>361.98429408</ele>
        <time>2014-12-07T09:29:06Z</time>
      </trkpt>
      <trkpt lat="47.48911" lon="6.68089">
        <ele>362.06233776</ele>
        <time>2014-12-07T09:29:07Z</time>
      </trkpt>
      <trkpt lat="47.48914" lon="6.68084">
        <ele>362.13498720001</ele>
        <time>2014-12-07T09:29:08Z</time>
      </trkpt>
      <trkpt lat="47.48916" lon="6.68079">
        <ele>362.13436560001</ele>
        <time>2014-12-07T09:29:09Z</time>
      </trkpt>
      <trkpt lat="47.4892" lon="6.68072">
        <ele>362.06684351999</ele>
        <time>2014-12-07T09:29:10Z</time>
      </trkpt>
      <trkpt lat="47.48922" lon="6.68067">
        <ele>362.03645183998</ele>
        <time>2014-12-07T09:29:10Z</time>
      </trkpt>
      <trkpt lat="47.48925" lon="6.68061">
        <ele>361.99799232001</ele>
        <time>2014-12-07T09:29:12Z</time>
      </trkpt>
      <trkpt lat="47.48927" lon="6.68055">
        <ele>361.95104448002</ele>
        <time>2014-12-07T09:29:13Z</time>
      </trkpt>
      <trkpt lat="47.4893" lon="6.68048">
        <ele>361.94334720001</ele>
        <time>2014-12-07T09:29:14Z</time>
      </trkpt>
      <trkpt lat="47.48932" lon="6.68042">
        <ele>361.89143040001</ele>
        <time>2014-12-07T09:29:15Z</time>
      </trkpt>
      <trkpt lat="47.48934" lon="6.68037">
        <ele>361.82793024</ele>
        <time>2014-12-07T09:29:16Z</time>
      </trkpt>
      <trkpt lat="47.48937" lon="6.68032">
        <ele>361.7560992</ele>
        <time>2014-12-07T09:29:17Z</time>
      </trkpt>
      <trkpt lat="47.48939" lon="6.68027">
        <ele>361.68954720001</ele>
        <time>2014-12-07T09:29:18Z</time>
      </trkpt>
      <trkpt lat="47.4894" lon="6.68023">
        <ele>361.64774399997</ele>
        <time>2014-12-07T09:29:19Z</time>
      </trkpt>
      <trkpt lat="47.48941" lon="6.68019">
        <ele>361.61851392002</ele>
        <time>2014-12-07T09:29:20Z</time>
      </trkpt>
      <trkpt lat="47.48942" lon="6.68016">
        <ele>361.5729792</ele>
        <time>2014-12-07T09:29:21Z</time>
      </trkpt>
      <trkpt lat="47.48944" lon="6.68013">
        <ele>361.50236160002</ele>
        <time>2014-12-07T09:29:22Z</time>
      </trkpt>
      <trkpt lat="47.48945" lon="6.6801">
        <ele>361.43229695998</ele>
        <time>2014-12-07T09:29:23Z</time>
      </trkpt>
      <trkpt lat="47.48947" lon="6.68006">
        <ele>361.37170176</ele>
        <time>2014-12-07T09:29:24Z</time>
      </trkpt>
      <trkpt lat="47.48948" lon="6.68003">
        <ele>361.29664224</ele>
        <time>2014-12-07T09:29:25Z</time>
      </trkpt>
      <trkpt lat="47.4895" lon="6.68">
        <ele>361.22282159998</ele>
        <time>2014-12-07T09:29:26Z</time>
      </trkpt>
      <trkpt lat="47.48952" lon="6.67996">
        <ele>361.25833680001</ele>
        <time>2014-12-07T09:29:27Z</time>
      </trkpt>
      <trkpt lat="47.48953" lon="6.67992">
        <ele>361.28337120001</ele>
        <time>2014-12-07T09:29:28Z</time>
      </trkpt>
      <trkpt lat="47.48955" lon="6.67988">
        <ele>361.30391999999</ele>
        <time>2014-12-07T09:29:29Z</time>
      </trkpt>
      <trkpt lat="47.48957" lon="6.67985">
        <ele>361.30211039999</ele>
        <time>2014-12-07T09:29:30Z</time>
      </trkpt>
      <trkpt lat="47.48958" lon="6.67981">
        <ele>361.27890239999</ele>
        <time>2014-12-07T09:29:31Z</time>
      </trkpt>
      <trkpt lat="47.4896" lon="6.67978">
        <ele>361.24169760002</ele>
        <time>2014-12-07T09:29:32Z</time>
      </trkpt>
      <trkpt lat="47.48962" lon="6.67974">
        <ele>361.18208640001</ele>
        <time>2014-12-07T09:29:33Z</time>
      </trkpt>
      <trkpt lat="47.48965" lon="6.67969">
        <ele>361.0963776</ele>
        <time>2014-12-07T09:29:34Z</time>
      </trkpt>
      <trkpt lat="47.48969" lon="6.67961">
        <ele>360.8908416</ele>
        <time>2014-12-07T09:29:35Z</time>
      </trkpt>
      <trkpt lat="47.48973" lon="6.67954">
        <ele>360.72818880001</ele>
        <time>2014-12-07T09:29:36Z</time>
      </trkpt>
      <trkpt lat="47.48976" lon="6.67948">
        <ele>360.49050239996</ele>
        <time>2014-12-07T09:29:37Z</time>
      </trkpt>
      <trkpt lat="47.48979" lon="6.67943">
        <ele>360.26963760001</ele>
        <time>2014-12-07T09:29:38Z</time>
      </trkpt>
      <trkpt lat="47.48983" lon="6.67937">
        <ele>359.9268384</ele>
        <time>2014-12-07T09:29:39Z</time>
      </trkpt>
      <trkpt lat="47.48988" lon="6.67931">
        <ele>359.49191039997</ele>
        <time>2014-12-07T09:29:40Z</time>
      </trkpt>
      <trkpt lat="47.48992" lon="6.67925">
        <ele>359.07843599995</ele>
        <time>2014-12-07T09:29:41Z</time>
      </trkpt>
      <trkpt lat="47.48995" lon="6.67919">
        <ele>358.6439808</ele>
        <time>2014-12-07T09:29:42Z</time>
      </trkpt>
      <trkpt lat="47.48999" lon="6.67914">
        <ele>358.41342160001</ele>
        <time>2014-12-07T09:29:43Z</time>
      </trkpt>
      <trkpt lat="47.49002" lon="6.67909">
        <ele>358.36564960001</ele>
        <time>2014-12-07T09:29:44Z</time>
      </trkpt>
      <trkpt lat="47.49005" lon="6.67903">
        <ele>358.35584895999</ele>
        <time>2014-12-07T09:29:45Z</time>
      </trkpt>
      <trkpt lat="47.49008" lon="6.67898">
        <ele>358.34005120002</ele>
        <time>2014-12-07T09:29:46Z</time>
      </trkpt>
      <trkpt lat="47.49011" lon="6.67893">
        <ele>358.29758080001</ele>
        <time>2014-12-07T09:29:47Z</time>
      </trkpt>
      <trkpt lat="47.49014" lon="6.67888">
        <ele>358.25696559997</ele>
        <time>2014-12-07T09:29:48Z</time>
      </trkpt>
      <trkpt lat="47.49016" lon="6.67883">
        <ele>358.21838656003</ele>
        <time>2014-12-07T09:29:49Z</time>
      </trkpt>
      <trkpt lat="47.49019" lon="6.67879">
        <ele>358.14834880002</ele>
        <time>2014-12-07T09:29:50Z</time>
      </trkpt>
      <trkpt lat="47.49022" lon="6.67874">
        <ele>358.05418240002</ele>
        <time>2014-12-07T09:29:51Z</time>
      </trkpt>
      <trkpt lat="47.49025" lon="6.67869">
        <ele>357.97343680002</ele>
        <time>2014-12-07T09:29:51Z</time>
      </trkpt>
      <trkpt lat="47.49028" lon="6.67864">
        <ele>357.83549247995</ele>
        <time>2014-12-07T09:29:53Z</time>
      </trkpt>
      <trkpt lat="47.49031" lon="6.67859">
        <ele>357.69767967995</ele>
        <time>2014-12-07T09:29:54Z</time>
      </trkpt>
      <trkpt lat="47.49034" lon="6.67853">
        <ele>357.56640784002</ele>
        <time>2014-12-07T09:29:55Z</time>
      </trkpt>
      <trkpt lat="47.49037" lon="6.67847">
        <ele>357.50001087998</ele>
        <time>2014-12-07T09:29:56Z</time>
      </trkpt>
      <trkpt lat="47.49041" lon="6.67841">
        <ele>357.2488672</ele>
        <time>2014-12-07T09:29:57Z</time>
      </trkpt>
      <trkpt lat="47.49044" lon="6.67835">
        <ele>357.11020048</ele>
        <time>2014-12-07T09:29:58Z</time>
      </trkpt>
      <trkpt lat="47.49046" lon="6.67828">
        <ele>357.06467488002</ele>
        <time>2014-12-07T09:29:59Z</time>
      </trkpt>
      <trkpt lat="47.49054" lon="6.67813">
        <ele>356.79400671999</ele>
        <time>2014-12-07T09:30:02Z</time>
      </trkpt>
      <trkpt lat="47.49058" lon="6.67806">
        <ele>356.60644480002</ele>
        <time>2014-12-07T09:30:03Z</time>
      </trkpt>
      <trkpt lat="47.4906" lon="6.67802">
        <ele>356.54180224004</ele>
        <time>2014-12-07T09:30:04Z</time>
      </trkpt>
      <trkpt lat="47.49064" lon="6.67796">
        <ele>356.42016640004</ele>
        <time>2014-12-07T09:30:05Z</time>
      </trkpt>
      <trkpt lat="47.49066" lon="6.6779">
        <ele>356.48579199996</ele>
        <time>2014-12-07T09:30:06Z</time>
      </trkpt>
      <trkpt lat="47.49069" lon="6.67785">
        <ele>356.42264319996</ele>
        <time>2014-12-07T09:30:06Z</time>
      </trkpt>
      <trkpt lat="47.49073" lon="6.67779">
        <ele>356.32795504001</ele>
        <time>2014-12-07T09:30:08Z</time>
      </trkpt>
      <trkpt lat="47.49076" lon="6.67773">
        <ele>356.21728768002</ele>
        <time>2014-12-07T09:30:09Z</time>
      </trkpt>
      <trkpt lat="47.4908" lon="6.67767">
        <ele>356.186368</ele>
        <time>2014-12-07T09:30:10Z</time>
      </trkpt>
      <trkpt lat="47.49083" lon="6.67762">
        <ele>356.17616559997</ele>
        <time>2014-12-07T09:30:11Z</time>
      </trkpt>
      <trkpt lat="47.49086" lon="6.67757">
        <ele>356.40720000001</ele>
        <time>2014-12-07T09:30:12Z</time>
      </trkpt>
      <trkpt lat="47.49089" lon="6.67753">
        <ele>356.6016</ele>
        <time>2014-12-07T09:30:13Z</time>
      </trkpt>
      <trkpt lat="47.49092" lon="6.67748">
        <ele>356.80825728</ele>
        <time>2014-12-07T09:30:14Z</time>
      </trkpt>
      <trkpt lat="47.49094" lon="6.67744">
        <ele>356.97047040001</ele>
        <time>2014-12-07T09:30:15Z</time>
      </trkpt>
      <trkpt lat="47.49096" lon="6.6774">
        <ele>357.15820608001</ele>
        <time>2014-12-07T09:30:16Z</time>
      </trkpt>
      <trkpt lat="47.49097" lon="6.67735">
        <ele>357.370848</ele>
        <time>2014-12-07T09:30:17Z</time>
      </trkpt>
      <trkpt lat="47.49098" lon="6.6773">
        <ele>357.61999104001</ele>
        <time>2014-12-07T09:30:18Z</time>
      </trkpt>
      <trkpt lat="47.49099" lon="6.67725">
        <ele>357.87529728</ele>
        <time>2014-12-07T09:30:19Z</time>
      </trkpt>
      <trkpt lat="47.49101" lon="6.67719">
        <ele>358.17112079999</ele>
        <time>2014-12-07T09:30:20Z</time>
      </trkpt>
      <trkpt lat="47.49101" lon="6.67713">
        <ele>358.47838079999</ele>
        <time>2014-12-07T09:30:21Z</time>
      </trkpt>
      <trkpt lat="47.49101" lon="6.67708">
        <ele>358.79324399999</ele>
        <time>2014-12-07T09:30:22Z</time>
      </trkpt>
      <trkpt lat="47.49102" lon="6.67702">
        <ele>359.08895520001</ele>
        <time>2014-12-07T09:30:23Z</time>
      </trkpt>
      <trkpt lat="47.49102" lon="6.67697">
        <ele>359.38872575999</ele>
        <time>2014-12-07T09:30:24Z</time>
      </trkpt>
      <trkpt lat="47.49102" lon="6.67692">
        <ele>359.67243456002</ele>
        <time>2014-12-07T09:30:25Z</time>
      </trkpt>
      <trkpt lat="47.49102" lon="6.67687">
        <ele>359.95133807999</ele>
        <time>2014-12-07T09:30:26Z</time>
      </trkpt>
      <trkpt lat="47.49103" lon="6.67681">
        <ele>360.242388</ele>
        <time>2014-12-07T09:30:27Z</time>
      </trkpt>
      <trkpt lat="47.49103" lon="6.67676">
        <ele>360.54787103999</ele>
        <time>2014-12-07T09:30:28Z</time>
      </trkpt>
      <trkpt lat="47.49103" lon="6.6767">
        <ele>360.87300288001</ele>
        <time>2014-12-07T09:30:29Z</time>
      </trkpt>
      <trkpt lat="47.49102" lon="6.67665">
        <ele>361.11674879999</ele>
        <time>2014-12-07T09:30:30Z</time>
      </trkpt>
      <trkpt lat="47.49102" lon="6.67659">
        <ele>361.19784959999</ele>
        <time>2014-12-07T09:30:30Z</time>
      </trkpt>
      <trkpt lat="47.49102" lon="6.67654">
        <ele>361.2881712</ele>
        <time>2014-12-07T09:30:32Z</time>
      </trkpt>
      <trkpt lat="47.49102" lon="6.67648">
        <ele>361.36005119999</ele>
        <time>2014-12-07T09:30:33Z</time>
      </trkpt>
      <trkpt lat="47.49103" lon="6.67643">
        <ele>361.423344</ele>
        <time>2014-12-07T09:30:34Z</time>
      </trkpt>
      <trkpt lat="47.49103" lon="6.67637">
        <ele>361.48438511999</ele>
        <time>2014-12-07T09:30:35Z</time>
      </trkpt>
      <trkpt lat="47.49104" lon="6.67631">
        <ele>361.54623263999</ele>
        <time>2014-12-07T09:30:36Z</time>
      </trkpt>
      <trkpt lat="47.49104" lon="6.67626">
        <ele>361.61852160001</ele>
        <time>2014-12-07T09:30:37Z</time>
      </trkpt>
      <trkpt lat="47.49104" lon="6.67621">
        <ele>361.70766239999</ele>
        <time>2014-12-07T09:30:38Z</time>
      </trkpt>
      <trkpt lat="47.49103" lon="6.67615">
        <ele>361.81123584001</ele>
        <time>2014-12-07T09:30:39Z</time>
      </trkpt>
      <trkpt lat="47.49102" lon="6.6761">
        <ele>361.92436800001</ele>
        <time>2014-12-07T09:30:40Z</time>
      </trkpt>
      <trkpt lat="47.49101" lon="6.67605">
        <ele>362.04006143999</ele>
        <time>2014-12-07T09:30:41Z</time>
      </trkpt>
      <trkpt lat="47.491" lon="6.676">
        <ele>362.15664863999</ele>
        <time>2014-12-07T09:30:42Z</time>
      </trkpt>
      <trkpt lat="47.49099" lon="6.67595">
        <ele>362.26642944001</ele>
        <time>2014-12-07T09:30:43Z</time>
      </trkpt>
      <trkpt lat="47.49099" lon="6.6759">
        <ele>362.36511359999</ele>
        <time>2014-12-07T09:30:44Z</time>
      </trkpt>
      <trkpt lat="47.49098" lon="6.67585">
        <ele>362.45431968001</ele>
        <time>2014-12-07T09:30:45Z</time>
      </trkpt>
      <trkpt lat="47.49097" lon="6.67581">
        <ele>362.42931904</ele>
        <time>2014-12-07T09:30:46Z</time>
      </trkpt>
      <trkpt lat="47.49097" lon="6.67577">
        <ele>362.30513632</ele>
        <time>2014-12-07T09:30:47Z</time>
      </trkpt>
      <trkpt lat="47.49097" lon="6.67573">
        <ele>362.154064</ele>
        <time>2014-12-07T09:30:48Z</time>
      </trkpt>
      <trkpt lat="47.49098" lon="6.67567">
        <ele>361.96561792001</ele>
        <time>2014-12-07T09:30:49Z</time>
      </trkpt>
      <trkpt lat="47.49099" lon="6.67562">
        <ele>361.76355712</ele>
        <time>2014-12-07T09:30:50Z</time>
      </trkpt>
      <trkpt lat="47.49099" lon="6.67556">
        <ele>361.55993152</ele>
        <time>2014-12-07T09:30:51Z</time>
      </trkpt>
      <trkpt lat="47.49099" lon="6.67549">
        <ele>361.35597568</ele>
        <time>2014-12-07T09:30:52Z</time>
      </trkpt>
      <trkpt lat="47.49099" lon="6.67543">
        <ele>361.16139712</ele>
        <time>2014-12-07T09:30:53Z</time>
      </trkpt>
      <trkpt lat="47.49098" lon="6.67536">
        <ele>360.97335327999</ele>
        <time>2014-12-07T09:30:54Z</time>
      </trkpt>
      <trkpt lat="47.49095" lon="6.67528">
        <ele>360.78849664</ele>
        <time>2014-12-07T09:30:55Z</time>
      </trkpt>
      <trkpt lat="47.49091" lon="6.67523">
        <ele>360.664624</ele>
        <time>2014-12-07T09:30:56Z</time>
      </trkpt>
      <trkpt lat="47.49088" lon="6.67517">
        <ele>360.52443616</ele>
        <time>2014-12-07T09:30:57Z</time>
      </trkpt>
      <trkpt lat="47.49084" lon="6.67513">
        <ele>360.45549472</ele>
        <time>2014-12-07T09:30:58Z</time>
      </trkpt>
      <trkpt lat="47.4908" lon="6.67509">
        <ele>360.41878080001</ele>
        <time>2014-12-07T09:30:59Z</time>
      </trkpt>
      <trkpt lat="47.49071" lon="6.675">
        <ele>360.43009536001</ele>
        <time>2014-12-07T09:31:02Z</time>
      </trkpt>
      <trkpt lat="47.49068" lon="6.67493">
        <ele>360.16781952</ele>
        <time>2014-12-07T09:31:03Z</time>
      </trkpt>
      <trkpt lat="47.49065" lon="6.67488">
        <ele>359.98635648</ele>
        <time>2014-12-07T09:31:04Z</time>
      </trkpt>
      <trkpt lat="47.49062" lon="6.67481">
        <ele>359.70003840001</ele>
        <time>2014-12-07T09:31:05Z</time>
      </trkpt>
      <trkpt lat="47.49062" lon="6.6747">
        <ele>359.1328512</ele>
        <time>2014-12-07T09:31:06Z</time>
      </trkpt>
      <trkpt lat="47.49061" lon="6.6746">
        <ele>358.63350239999</ele>
        <time>2014-12-07T09:31:07Z</time>
      </trkpt>
      <trkpt lat="47.49061" lon="6.67451">
        <ele>358.12920288</ele>
        <time>2014-12-07T09:31:08Z</time>
      </trkpt>
      <trkpt lat="47.49062" lon="6.67441">
        <ele>357.58751232</ele>
        <time>2014-12-07T09:31:09Z</time>
      </trkpt>
      <trkpt lat="47.49064" lon="6.67432">
        <ele>357.0723264</ele>
        <time>2014-12-07T09:31:10Z</time>
      </trkpt>
      <trkpt lat="47.49065" lon="6.67424">
        <ele>356.58128640001</ele>
        <time>2014-12-07T09:31:11Z</time>
      </trkpt>
      <trkpt lat="47.49067" lon="6.67416">
        <ele>356.17750144</ele>
        <time>2014-12-07T09:31:12Z</time>
      </trkpt>
      <trkpt lat="47.49068" lon="6.67408">
        <ele>356.00128528</ele>
        <time>2014-12-07T09:31:13Z</time>
      </trkpt>
      <trkpt lat="47.49069" lon="6.674">
        <ele>355.80427792</ele>
        <time>2014-12-07T09:31:14Z</time>
      </trkpt>
      <trkpt lat="47.49071" lon="6.67393">
        <ele>355.6319512</ele>
        <time>2014-12-07T09:31:15Z</time>
      </trkpt>
      <trkpt lat="47.49072" lon="6.67386">
        <ele>355.44900448</ele>
        <time>2014-12-07T09:31:16Z</time>
      </trkpt>
      <trkpt lat="47.49073" lon="6.6738">
        <ele>355.31048464</ele>
        <time>2014-12-07T09:31:17Z</time>
      </trkpt>
      <trkpt lat="47.49074" lon="6.67374">
        <ele>355.1526016</ele>
        <time>2014-12-07T09:31:18Z</time>
      </trkpt>
      <trkpt lat="47.49075" lon="6.67367">
        <ele>354.95957008</ele>
        <time>2014-12-07T09:31:19Z</time>
      </trkpt>
      <trkpt lat="47.49077" lon="6.6736">
        <ele>354.77058304</ele>
        <time>2014-12-07T09:31:20Z</time>
      </trkpt>
      <trkpt lat="47.49079" lon="6.67354">
        <ele>354.58453408</ele>
        <time>2014-12-07T09:31:21Z</time>
      </trkpt>
      <trkpt lat="47.4908" lon="6.67347">
        <ele>354.39262720001</ele>
        <time>2014-12-07T09:31:22Z</time>
      </trkpt>
      <trkpt lat="47.49082" lon="6.6734">
        <ele>354.20713792</ele>
        <time>2014-12-07T09:31:23Z</time>
      </trkpt>
      <trkpt lat="47.49083" lon="6.67334">
        <ele>354.04070271999</ele>
        <time>2014-12-07T09:31:24Z</time>
      </trkpt>
      <trkpt lat="47.49084" lon="6.67329">
        <ele>354.1172</ele>
        <time>2014-12-07T09:31:25Z</time>
      </trkpt>
      <trkpt lat="47.49085" lon="6.67324">
        <ele>354.2816</ele>
        <time>2014-12-07T09:31:26Z</time>
      </trkpt>
      <trkpt lat="47.49086" lon="6.67318">
        <ele>354.44720000001</ele>
        <time>2014-12-07T09:31:27Z</time>
      </trkpt>
      <trkpt lat="47.49086" lon="6.67314">
        <ele>354.58279999999</ele>
        <time>2014-12-07T09:31:28Z</time>
      </trkpt>
      <trkpt lat="47.49087" lon="6.67308">
        <ele>354.73760000001</ele>
        <time>2014-12-07T09:31:29Z</time>
      </trkpt>
      <trkpt lat="47.49088" lon="6.67304">
        <ele>354.87439999999</ele>
        <time>2014-12-07T09:31:30Z</time>
      </trkpt>
      <trkpt lat="47.49089" lon="6.67299">
        <ele>355.01599999999</ele>
        <time>2014-12-07T09:31:31Z</time>
      </trkpt>
      <trkpt lat="47.4909" lon="6.67295">
        <ele>355.15879999999</ele>
        <time>2014-12-07T09:31:32Z</time>
      </trkpt>
      <trkpt lat="47.49091" lon="6.6729">
        <ele>355.30640000001</ele>
        <time>2014-12-07T09:31:33Z</time>
      </trkpt>
      <trkpt lat="47.49092" lon="6.67285">
        <ele>355.45759999999</ele>
        <time>2014-12-07T09:31:34Z</time>
      </trkpt>
      <trkpt lat="47.49093" lon="6.6728">
        <ele>355.61</ele>
        <time>2014-12-07T09:31:35Z</time>
      </trkpt>
      <trkpt lat="47.49094" lon="6.67275">
        <ele>355.7672</ele>
        <time>2014-12-07T09:31:36Z</time>
      </trkpt>
      <trkpt lat="47.49095" lon="6.67271">
        <ele>355.92920000001</ele>
        <time>2014-12-07T09:31:37Z</time>
      </trkpt>
      <trkpt lat="47.49096" lon="6.67266">
        <ele>356.09359999999</ele>
        <time>2014-12-07T09:31:38Z</time>
      </trkpt>
      <trkpt lat="47.49098" lon="6.67261">
        <ele>356.26280000001</ele>
        <time>2014-12-07T09:31:39Z</time>
      </trkpt>
      <trkpt lat="47.49099" lon="6.67256">
        <ele>356.4296</ele>
        <time>2014-12-07T09:31:40Z</time>
      </trkpt>
      <trkpt lat="47.49101" lon="6.67251">
        <ele>356.60119999999</ele>
        <time>2014-12-07T09:31:41Z</time>
      </trkpt>
      <trkpt lat="47.49102" lon="6.67246">
        <ele>356.88458911999</ele>
        <time>2014-12-07T09:31:42Z</time>
      </trkpt>
      <trkpt lat="47.49104" lon="6.67241">
        <ele>357.20751872001</ele>
        <time>2014-12-07T09:31:43Z</time>
      </trkpt>
      <trkpt lat="47.49105" lon="6.67236">
        <ele>357.51755264001</ele>
        <time>2014-12-07T09:31:44Z</time>
      </trkpt>
      <trkpt lat="47.49107" lon="6.67232">
        <ele>357.81297536001</ele>
        <time>2014-12-07T09:31:45Z</time>
      </trkpt>
      <trkpt lat="47.49108" lon="6.67227">
        <ele>358.09637792</ele>
        <time>2014-12-07T09:31:46Z</time>
      </trkpt>
      <trkpt lat="47.49109" lon="6.67223">
        <ele>358.36827007999</ele>
        <time>2014-12-07T09:31:47Z</time>
      </trkpt>
      <trkpt lat="47.4911" lon="6.67218">
        <ele>358.6369184</ele>
        <time>2014-12-07T09:31:48Z</time>
      </trkpt>
      <trkpt lat="47.49111" lon="6.67214">
        <ele>358.88741312</ele>
        <time>2014-12-07T09:31:49Z</time>
      </trkpt>
      <trkpt lat="47.49111" lon="6.67209">
        <ele>359.12860544001</ele>
        <time>2014-12-07T09:31:50Z</time>
      </trkpt>
      <trkpt lat="47.49112" lon="6.67205">
        <ele>359.355872</ele>
        <time>2014-12-07T09:31:51Z</time>
      </trkpt>
      <trkpt lat="47.49112" lon="6.67201">
        <ele>359.56526719999</ele>
        <time>2014-12-07T09:31:52Z</time>
      </trkpt>
      <trkpt lat="47.49112" lon="6.67197">
        <ele>359.77960640001</ele>
        <time>2014-12-07T09:31:53Z</time>
      </trkpt>
      <trkpt lat="47.49112" lon="6.67193">
        <ele>359.99566207999</ele>
        <time>2014-12-07T09:31:54Z</time>
      </trkpt>
      <trkpt lat="47.49112" lon="6.67189">
        <ele>360.21457664</ele>
        <time>2014-12-07T09:31:55Z</time>
      </trkpt>
      <trkpt lat="47.49112" lon="6.67184">
        <ele>360.44187008</ele>
        <time>2014-12-07T09:31:56Z</time>
      </trkpt>
      <trkpt lat="47.49112" lon="6.6718">
        <ele>360.66916352</ele>
        <time>2014-12-07T09:31:57Z</time>
      </trkpt>
      <trkpt lat="47.49112" lon="6.67175">
        <ele>360.89355392</ele>
        <time>2014-12-07T09:31:58Z</time>
      </trkpt>
      <trkpt lat="47.49112" lon="6.67171">
        <ele>361.1171264</ele>
        <time>2014-12-07T09:31:59Z</time>
      </trkpt>
      <trkpt lat="47.49111" lon="6.67167">
        <ele>361.33386848</ele>
        <time>2014-12-07T09:32:00Z</time>
      </trkpt>
      <trkpt lat="47.4911" lon="6.67154">
        <ele>362.07059904</ele>
        <time>2014-12-07T09:32:03Z</time>
      </trkpt>
      <trkpt lat="47.4911" lon="6.67151">
        <ele>362.29322976</ele>
        <time>2014-12-07T09:32:04Z</time>
      </trkpt>
      <trkpt lat="47.4911" lon="6.67148">
        <ele>362.479944</ele>
        <time>2014-12-07T09:32:05Z</time>
      </trkpt>
      <trkpt lat="47.4911" lon="6.67142">
        <ele>362.81801808</ele>
        <time>2014-12-07T09:32:07Z</time>
      </trkpt>
      <trkpt lat="47.4911" lon="6.67139">
        <ele>363.00536448</ele>
        <time>2014-12-07T09:32:08Z</time>
      </trkpt>
      <trkpt lat="47.4911" lon="6.67135">
        <ele>363.22246656</ele>
        <time>2014-12-07T09:32:09Z</time>
      </trkpt>
      <trkpt lat="47.49111" lon="6.67131">
        <ele>363.45098688</ele>
        <time>2014-12-07T09:32:10Z</time>
      </trkpt>
      <trkpt lat="47.4911" lon="6.67127">
        <ele>363.69286272</ele>
        <time>2014-12-07T09:32:11Z</time>
      </trkpt>
      <trkpt lat="47.4911" lon="6.67124">
        <ele>363.92203008</ele>
        <time>2014-12-07T09:32:12Z</time>
      </trkpt>
      <trkpt lat="47.4911" lon="6.6712">
        <ele>364.15202208</ele>
        <time>2014-12-07T09:32:13Z</time>
      </trkpt>
      <trkpt lat="47.4911" lon="6.67116">
        <ele>364.3833312</ele>
        <time>2014-12-07T09:32:14Z</time>
      </trkpt>
      <trkpt lat="47.4911" lon="6.67112">
        <ele>364.60319232</ele>
        <time>2014-12-07T09:32:15Z</time>
      </trkpt>
      <trkpt lat="47.4911" lon="6.67109">
        <ele>364.83710592</ele>
        <time>2014-12-07T09:32:16Z</time>
      </trkpt>
      <trkpt lat="47.49109" lon="6.67105">
        <ele>365.07053184001</ele>
        <time>2014-12-07T09:32:17Z</time>
      </trkpt>
      <trkpt lat="47.49109" lon="6.67101">
        <ele>365.30016432</ele>
        <time>2014-12-07T09:32:18Z</time>
      </trkpt>
      <trkpt lat="47.49109" lon="6.67097">
        <ele>365.5271712</ele>
        <time>2014-12-07T09:32:19Z</time>
      </trkpt>
      <trkpt lat="47.49109" lon="6.67094">
        <ele>365.74230672</ele>
        <time>2014-12-07T09:32:20Z</time>
      </trkpt>
      <trkpt lat="47.49109" lon="6.6709">
        <ele>365.9535552</ele>
        <time>2014-12-07T09:32:21Z</time>
      </trkpt>
      <trkpt lat="47.49109" lon="6.67087">
        <ele>366.16833791999</ele>
        <time>2014-12-07T09:32:22Z</time>
      </trkpt>
      <trkpt lat="47.4911" lon="6.6708">
        <ele>366.5654296</ele>
        <time>2014-12-07T09:32:24Z</time>
      </trkpt>
      <trkpt lat="47.4911" lon="6.67077">
        <ele>366.7694872</ele>
        <time>2014-12-07T09:32:25Z</time>
      </trkpt>
      <trkpt lat="47.4911" lon="6.6707">
        <ele>367.1967328</ele>
        <time>2014-12-07T09:32:27Z</time>
      </trkpt>
      <trkpt lat="47.49109" lon="6.67067">
        <ele>367.40295808001</ele>
        <time>2014-12-07T09:32:28Z</time>
      </trkpt>
      <trkpt lat="47.49109" lon="6.67061">
        <ele>367.81706752001</ele>
        <time>2014-12-07T09:32:30Z</time>
      </trkpt>
      <trkpt lat="47.49108" lon="6.67058">
        <ele>368.01620416</ele>
        <time>2014-12-07T09:32:31Z</time>
      </trkpt>
      <trkpt lat="47.49107" lon="6.67052">
        <ele>368.43391743999</ele>
        <time>2014-12-07T09:32:33Z</time>
      </trkpt>
      <trkpt lat="47.49107" lon="6.67049">
        <ele>368.64197055999</ele>
        <time>2014-12-07T09:32:34Z</time>
      </trkpt>
      <trkpt lat="47.49106" lon="6.67045">
        <ele>368.86399312</ele>
        <time>2014-12-07T09:32:35Z</time>
      </trkpt>
      <trkpt lat="47.49105" lon="6.67042">
        <ele>369.08535039999</ele>
        <time>2014-12-07T09:32:36Z</time>
      </trkpt>
      <trkpt lat="47.49104" lon="6.67039">
        <ele>369.30149632</ele>
        <time>2014-12-07T09:32:37Z</time>
      </trkpt>
      <trkpt lat="47.49104" lon="6.67036">
        <ele>369.51061312</ele>
        <time>2014-12-07T09:32:38Z</time>
      </trkpt>
      <trkpt lat="47.49102" lon="6.6703">
        <ele>369.92206143999</ele>
        <time>2014-12-07T09:32:40Z</time>
      </trkpt>
      <trkpt lat="47.49101" lon="6.67026">
        <ele>370.13525824</ele>
        <time>2014-12-07T09:32:41Z</time>
      </trkpt>
      <trkpt lat="47.491" lon="6.67023">
        <ele>370.35242944</ele>
        <time>2014-12-07T09:32:42Z</time>
      </trkpt>
      <trkpt lat="47.491" lon="6.6702">
        <ele>370.57665472</ele>
        <time>2014-12-07T09:32:43Z</time>
      </trkpt>
      <trkpt lat="47.49099" lon="6.67016">
        <ele>370.79387392</ele>
        <time>2014-12-07T09:32:44Z</time>
      </trkpt>
      <trkpt lat="47.49098" lon="6.67013">
        <ele>371.016544</ele>
        <time>2014-12-07T09:32:45Z</time>
      </trkpt>
      <trkpt lat="47.49097" lon="6.6701">
        <ele>371.23223104</ele>
        <time>2014-12-07T09:32:46Z</time>
      </trkpt>
      <trkpt lat="47.49097" lon="6.67007">
        <ele>371.43219136</ele>
        <time>2014-12-07T09:32:47Z</time>
      </trkpt>
      <trkpt lat="47.49096" lon="6.67003">
        <ele>371.6377984</ele>
        <time>2014-12-07T09:32:48Z</time>
      </trkpt>
      <trkpt lat="47.49096" lon="6.67">
        <ele>371.8478248</ele>
        <time>2014-12-07T09:32:49Z</time>
      </trkpt>
      <trkpt lat="47.49095" lon="6.66997">
        <ele>372.052</ele>
        <time>2014-12-07T09:32:50Z</time>
      </trkpt>
      <trkpt lat="47.49095" lon="6.66993">
        <ele>372.262</ele>
        <time>2014-12-07T09:32:51Z</time>
      </trkpt>
      <trkpt lat="47.49094" lon="6.66987">
        <ele>372.664</ele>
        <time>2014-12-07T09:32:53Z</time>
      </trkpt>
      <trkpt lat="47.49093" lon="6.66984">
        <ele>372.86079999999</ele>
        <time>2014-12-07T09:32:54Z</time>
      </trkpt>
      <trkpt lat="47.49092" lon="6.66977">
        <ele>373.2496</ele>
        <time>2014-12-07T09:32:56Z</time>
      </trkpt>
      <trkpt lat="47.49092" lon="6.66975">
        <ele>373.4284</ele>
        <time>2014-12-07T09:32:57Z</time>
      </trkpt>
      <trkpt lat="47.49091" lon="6.66969">
        <ele>373.7764</ele>
        <time>2014-12-07T09:32:59Z</time>
      </trkpt>
      <trkpt lat="47.49089" lon="6.66961">
        <ele>374.2624</ele>
        <time>2014-12-07T09:33:02Z</time>
      </trkpt>
      <trkpt lat="47.49088" lon="6.66957">
        <ele>374.5432</ele>
        <time>2014-12-07T09:33:04Z</time>
      </trkpt>
      <trkpt lat="47.49088" lon="6.66954">
        <ele>374.6824</ele>
        <time>2014-12-07T09:33:05Z</time>
      </trkpt>
      <trkpt lat="47.49086" lon="6.66951">
        <ele>374.9332</ele>
        <time>2014-12-07T09:33:07Z</time>
      </trkpt>
      <trkpt lat="47.49084" lon="6.66949">
        <ele>375.05319999999</ele>
        <time>2014-12-07T09:33:08Z</time>
      </trkpt>
      <trkpt lat="47.49081" lon="6.66945">
        <ele>375.370064</ele>
        <time>2014-12-07T09:33:10Z</time>
      </trkpt>
      <trkpt lat="47.49079" lon="6.66943">
        <ele>375.55685744001</ele>
        <time>2014-12-07T09:33:11Z</time>
      </trkpt>
      <trkpt lat="47.49078" lon="6.66941">
        <ele>375.72636416001</ele>
        <time>2014-12-07T09:33:12Z</time>
      </trkpt>
      <trkpt lat="47.49075" lon="6.66939">
        <ele>375.93476</ele>
        <time>2014-12-07T09:33:13Z</time>
      </trkpt>
      <trkpt lat="47.49073" lon="6.66937">
        <ele>376.11094783999</ele>
        <time>2014-12-07T09:33:14Z</time>
      </trkpt>
      <trkpt lat="47.49071" lon="6.66935">
        <ele>376.26860192001</ele>
        <time>2014-12-07T09:33:15Z</time>
      </trkpt>
      <trkpt lat="47.49068" lon="6.66932">
        <ele>376.56635071999</ele>
        <time>2014-12-07T09:33:17Z</time>
      </trkpt>
      <trkpt lat="47.49066" lon="6.6693">
        <ele>376.71217616001</ele>
        <time>2014-12-07T09:33:18Z</time>
      </trkpt>
      <trkpt lat="47.49064" lon="6.66927">
        <ele>376.97025200001</ele>
        <time>2014-12-07T09:33:20Z</time>
      </trkpt>
      <trkpt lat="47.49062" lon="6.66925">
        <ele>377.10088544</ele>
        <time>2014-12-07T09:33:21Z</time>
      </trkpt>
      <trkpt lat="47.4906" lon="6.66921">
        <ele>377.34148352</ele>
        <time>2014-12-07T09:33:23Z</time>
      </trkpt>
      <trkpt lat="47.49058" lon="6.6692">
        <ele>377.46396319999</ele>
        <time>2014-12-07T09:33:24Z</time>
      </trkpt>
      <trkpt lat="47.49055" lon="6.66916">
        <ele>377.725696</ele>
        <time>2014-12-07T09:33:26Z</time>
      </trkpt>
      <trkpt lat="47.49054" lon="6.66914">
        <ele>377.910304</ele>
        <time>2014-12-07T09:33:27Z</time>
      </trkpt>
      <trkpt lat="47.49051" lon="6.6691">
        <ele>378.26464</ele>
        <time>2014-12-07T09:33:29Z</time>
      </trkpt>
      <trkpt lat="47.4905" lon="6.66908">
        <ele>378.43287999999</ele>
        <time>2014-12-07T09:33:30Z</time>
      </trkpt>
      <trkpt lat="47.49047" lon="6.66904">
        <ele>378.763624</ele>
        <time>2014-12-07T09:33:32Z</time>
      </trkpt>
      <trkpt lat="47.49046" lon="6.66902">
        <ele>378.913792</ele>
        <time>2014-12-07T09:33:33Z</time>
      </trkpt>
      <trkpt lat="47.49043" lon="6.66898">
        <ele>379.215808</ele>
        <time>2014-12-07T09:33:35Z</time>
      </trkpt>
      <trkpt lat="47.49042" lon="6.66896">
        <ele>379.3693936</ele>
        <time>2014-12-07T09:33:36Z</time>
      </trkpt>
      <trkpt lat="47.49039" lon="6.66892">
        <ele>379.6568464</ele>
        <time>2014-12-07T09:33:38Z</time>
      </trkpt>
      <trkpt lat="47.49038" lon="6.6689">
        <ele>379.7848816</ele>
        <time>2014-12-07T09:33:39Z</time>
      </trkpt>
      <trkpt lat="47.49036" lon="6.66886">
        <ele>380.066308</ele>
        <time>2014-12-07T09:33:41Z</time>
      </trkpt>
      <trkpt lat="47.49035" lon="6.66883">
        <ele>380.2020376</ele>
        <time>2014-12-07T09:33:42Z</time>
      </trkpt>
      <trkpt lat="47.49035" lon="6.66877">
        <ele>380.586232</ele>
        <time>2014-12-07T09:33:45Z</time>
      </trkpt>
      <trkpt lat="47.49036" lon="6.66875">
        <ele>380.7018592</ele>
        <time>2014-12-07T09:33:46Z</time>
      </trkpt>
      <trkpt lat="47.4904" lon="6.66874">
        <ele>380.807884</ele>
        <time>2014-12-07T09:33:49Z</time>
      </trkpt>
      <trkpt lat="47.4904" lon="6.66875">
        <ele>380.7619264</ele>
        <time>2014-12-07T09:33:50Z</time>
      </trkpt>
      <trkpt lat="47.49044" lon="6.66872">
        <ele>380.9391808</ele>
        <time>2014-12-07T09:33:57Z</time>
      </trkpt>
      <trkpt lat="47.49045" lon="6.66872">
        <ele>380.9863888</ele>
        <time>2014-12-07T09:33:58Z</time>
      </trkpt>
      <trkpt lat="47.49048" lon="6.66867">
        <ele>381.3231088</ele>
        <time>2014-12-07T09:37:38Z</time>
      </trkpt>
      <trkpt lat="47.49049" lon="6.66867">
        <ele>381.365416</ele>
        <time>2014-12-07T09:37:39Z</time>
      </trkpt>
      <trkpt lat="47.49053" lon="6.66866">
        <ele>381.4792</ele>
        <time>2014-12-07T09:37:41Z</time>
      </trkpt>
      <trkpt lat="47.49055" lon="6.66865">
        <ele>381.594448</ele>
        <time>2014-12-07T09:37:42Z</time>
      </trkpt>
      <trkpt lat="47.49058" lon="6.66863">
        <ele>381.7981504</ele>
        <time>2014-12-07T09:37:44Z</time>
      </trkpt>
      <trkpt lat="47.4906" lon="6.66862">
        <ele>381.9149176</ele>
        <time>2014-12-07T09:37:45Z</time>
      </trkpt>
      <trkpt lat="47.49062" lon="6.66861">
        <ele>382.02841120001</ele>
        <time>2014-12-07T09:37:46Z</time>
      </trkpt>
      <trkpt lat="47.49065" lon="6.6686">
        <ele>382.148332</ele>
        <time>2014-12-07T09:37:47Z</time>
      </trkpt>
      <trkpt lat="47.49067" lon="6.66859">
        <ele>382.29017199999</ele>
        <time>2014-12-07T09:37:48Z</time>
      </trkpt>
      <trkpt lat="47.49069" lon="6.66857">
        <ele>382.4409856</ele>
        <time>2014-12-07T09:37:49Z</time>
      </trkpt>
      <trkpt lat="47.49072" lon="6.66856">
        <ele>382.608616</ele>
        <time>2014-12-07T09:37:50Z</time>
      </trkpt>
      <trkpt lat="47.49074" lon="6.66854">
        <ele>382.7837344</ele>
        <time>2014-12-07T09:37:51Z</time>
      </trkpt>
      <trkpt lat="47.49078" lon="6.66852">
        <ele>383.11311999999</ele>
        <time>2014-12-07T09:37:53Z</time>
      </trkpt>
      <trkpt lat="47.49079" lon="6.6685">
        <ele>383.2776496</ele>
        <time>2014-12-07T09:37:54Z</time>
      </trkpt>
      <trkpt lat="47.49083" lon="6.66848">
        <ele>383.60968239999</ele>
        <time>2014-12-07T09:37:56Z</time>
      </trkpt>
      <trkpt lat="47.49085" lon="6.66846">
        <ele>383.75685696</ele>
        <time>2014-12-07T09:37:57Z</time>
      </trkpt>
      <trkpt lat="47.49088" lon="6.66844">
        <ele>384.0699648</ele>
        <time>2014-12-07T09:37:59Z</time>
      </trkpt>
      <trkpt lat="47.49093" lon="6.66839">
        <ele>384.57806592</ele>
        <time>2014-12-07T09:38:02Z</time>
      </trkpt>
      <trkpt lat="47.49096" lon="6.66836">
        <ele>384.91956192</ele>
        <time>2014-12-07T09:38:04Z</time>
      </trkpt>
      <trkpt lat="47.49098" lon="6.66834">
        <ele>385.109184</ele>
        <time>2014-12-07T09:38:05Z</time>
      </trkpt>
      <trkpt lat="47.49101" lon="6.6683">
        <ele>385.47846272</ele>
        <time>2014-12-07T09:38:07Z</time>
      </trkpt>
      <trkpt lat="47.49103" lon="6.66828">
        <ele>385.6783424</ele>
        <time>2014-12-07T09:38:08Z</time>
      </trkpt>
      <trkpt lat="47.49106" lon="6.66824">
        <ele>386.08363136</ele>
        <time>2014-12-07T09:38:10Z</time>
      </trkpt>
      <trkpt lat="47.49108" lon="6.66823">
        <ele>386.276912</ele>
        <time>2014-12-07T09:38:11Z</time>
      </trkpt>
      <trkpt lat="47.49111" lon="6.66819">
        <ele>386.6696912</ele>
        <time>2014-12-07T09:38:13Z</time>
      </trkpt>
      <trkpt lat="47.49112" lon="6.66817">
        <ele>386.86929920001</ele>
        <time>2014-12-07T09:38:13Z</time>
      </trkpt>
      <trkpt lat="47.49115" lon="6.66813">
        <ele>387.31248512</ele>
        <time>2014-12-07T09:38:16Z</time>
      </trkpt>
      <trkpt lat="47.49117" lon="6.66811">
        <ele>387.50788736</ele>
        <time>2014-12-07T09:38:17Z</time>
      </trkpt>
      <trkpt lat="47.4912" lon="6.66808">
        <ele>387.86557952</ele>
        <time>2014-12-07T09:38:19Z</time>
      </trkpt>
      <trkpt lat="47.49121" lon="6.66806">
        <ele>388.0634816</ele>
        <time>2014-12-07T09:38:20Z</time>
      </trkpt>
      <trkpt lat="47.49124" lon="6.66802">
        <ele>388.47202688</ele>
        <time>2014-12-07T09:38:22Z</time>
      </trkpt>
      <trkpt lat="47.49126" lon="6.66801">
        <ele>388.6756016</ele>
        <time>2014-12-07T09:38:23Z</time>
      </trkpt>
      <trkpt lat="47.4913" lon="6.66797">
        <ele>389.10106687999</ele>
        <time>2014-12-07T09:38:25Z</time>
      </trkpt>
      <trkpt lat="47.49131" lon="6.66795">
        <ele>389.28602624</ele>
        <time>2014-12-07T09:38:26Z</time>
      </trkpt>
      <trkpt lat="47.49135" lon="6.66794">
        <ele>389.52957824</ele>
        <time>2014-12-07T09:38:28Z</time>
      </trkpt>
      <trkpt lat="47.49136" lon="6.66793">
        <ele>389.60437856</ele>
        <time>2014-12-07T09:38:29Z</time>
      </trkpt>
      <trkpt lat="47.49139" lon="6.66792">
        <ele>389.78980352001</ele>
        <time>2014-12-07T09:38:31Z</time>
      </trkpt>
      <trkpt lat="47.49141" lon="6.66792">
        <ele>389.9079824</ele>
        <time>2014-12-07T09:38:32Z</time>
      </trkpt>
      <trkpt lat="47.49145" lon="6.6679">
        <ele>390.20048</ele>
        <time>2014-12-07T09:38:34Z</time>
      </trkpt>
      <trkpt lat="47.49147" lon="6.66789">
        <ele>390.2987312</ele>
        <time>2014-12-07T09:38:35Z</time>
      </trkpt>
      <trkpt lat="47.4915" lon="6.66788">
        <ele>390.52723136001</ele>
        <time>2014-12-07T09:38:38Z</time>
      </trkpt>
      <trkpt lat="47.49152" lon="6.66787">
        <ele>390.66596383999</ele>
        <time>2014-12-07T09:38:39Z</time>
      </trkpt>
      <trkpt lat="47.49154" lon="6.66786">
        <ele>390.82377728001</ele>
        <time>2014-12-07T09:38:40Z</time>
      </trkpt>
      <trkpt lat="47.49157" lon="6.66785">
        <ele>390.98268992001</ele>
        <time>2014-12-07T09:38:41Z</time>
      </trkpt>
      <trkpt lat="47.49159" lon="6.66784">
        <ele>391.1375552</ele>
        <time>2014-12-07T09:38:42Z</time>
      </trkpt>
      <trkpt lat="47.49162" lon="6.66783">
        <ele>391.30697984</ele>
        <time>2014-12-07T09:38:43Z</time>
      </trkpt>
      <trkpt lat="47.49165" lon="6.66782">
        <ele>391.488608</ele>
        <time>2014-12-07T09:38:44Z</time>
      </trkpt>
      <trkpt lat="47.49168" lon="6.66781">
        <ele>391.62530816</ele>
        <time>2014-12-07T09:38:45Z</time>
      </trkpt>
      <trkpt lat="47.4917" lon="6.6678">
        <ele>391.72259936</ele>
        <time>2014-12-07T09:38:46Z</time>
      </trkpt>
      <trkpt lat="47.49173" lon="6.66779">
        <ele>391.832756</ele>
        <time>2014-12-07T09:38:47Z</time>
      </trkpt>
      <trkpt lat="47.49175" lon="6.66778">
        <ele>391.94401279999</ele>
        <time>2014-12-07T09:38:48Z</time>
      </trkpt>
      <trkpt lat="47.49177" lon="6.66777">
        <ele>392.05516016</ele>
        <time>2014-12-07T09:38:49Z</time>
      </trkpt>
      <trkpt lat="47.49179" lon="6.66776">
        <ele>392.1447008</ele>
        <time>2014-12-07T09:38:50Z</time>
      </trkpt>
      <trkpt lat="47.49182" lon="6.66775">
        <ele>392.25689648</ele>
        <time>2014-12-07T09:38:51Z</time>
      </trkpt>
      <trkpt lat="47.49184" lon="6.66774">
        <ele>392.35948976</ele>
        <time>2014-12-07T09:38:52Z</time>
      </trkpt>
      <trkpt lat="47.49186" lon="6.66773">
        <ele>392.4741248</ele>
        <time>2014-12-07T09:38:53Z</time>
      </trkpt>
      <trkpt lat="47.4919" lon="6.66771">
        <ele>392.6608352</ele>
        <time>2014-12-07T09:38:55Z</time>
      </trkpt>
      <trkpt lat="47.49193" lon="6.6677">
        <ele>392.776772</ele>
        <time>2014-12-07T09:38:56Z</time>
      </trkpt>
      <trkpt lat="47.49195" lon="6.66769">
        <ele>392.89370816</ele>
        <time>2014-12-07T09:38:57Z</time>
      </trkpt>
      <trkpt lat="47.49197" lon="6.66768">
        <ele>393.00010592</ele>
        <time>2014-12-07T09:38:58Z</time>
      </trkpt>
      <trkpt lat="47.49199" lon="6.66767">
        <ele>393.1299104</ele>
        <time>2014-12-07T09:38:59Z</time>
      </trkpt>
      <trkpt lat="47.49205" lon="6.66763">
        <ele>393.512888</ele>
        <time>2014-12-07T09:39:02Z</time>
      </trkpt>
      <trkpt lat="47.49209" lon="6.66761">
        <ele>393.76854080001</ele>
        <time>2014-12-07T09:39:04Z</time>
      </trkpt>
      <trkpt lat="47.4921" lon="6.6676">
        <ele>393.89145296</ele>
        <time>2014-12-07T09:39:05Z</time>
      </trkpt>
      <trkpt lat="47.49212" lon="6.66758">
        <ele>394.03760192</ele>
        <time>2014-12-07T09:39:06Z</time>
      </trkpt>
      <trkpt lat="47.49215" lon="6.66757">
        <ele>394.21856576</ele>
        <time>2014-12-07T09:39:07Z</time>
      </trkpt>
      <trkpt lat="47.49217" lon="6.66755">
        <ele>394.4007104</ele>
        <time>2014-12-07T09:39:08Z</time>
      </trkpt>
      <trkpt lat="47.49219" lon="6.66754">
        <ele>394.5377408</ele>
        <time>2014-12-07T09:39:09Z</time>
      </trkpt>
      <trkpt lat="47.49222" lon="6.66753">
        <ele>394.6639016</ele>
        <time>2014-12-07T09:39:10Z</time>
      </trkpt>
      <trkpt lat="47.49224" lon="6.66752">
        <ele>394.75592288</ele>
        <time>2014-12-07T09:39:11Z</time>
      </trkpt>
      <trkpt lat="47.49228" lon="6.6675">
        <ele>394.98831824</ele>
        <time>2014-12-07T09:39:13Z</time>
      </trkpt>
      <trkpt lat="47.4923" lon="6.66749">
        <ele>395.09459504</ele>
        <time>2014-12-07T09:39:14Z</time>
      </trkpt>
      <trkpt lat="47.49234" lon="6.66747">
        <ele>395.30639312</ele>
        <time>2014-12-07T09:39:16Z</time>
      </trkpt>
      <trkpt lat="47.49236" lon="6.66746">
        <ele>395.44501184</ele>
        <time>2014-12-07T09:39:17Z</time>
      </trkpt>
      <trkpt lat="47.4924" lon="6.66744">
        <ele>395.6922656</ele>
        <time>2014-12-07T09:39:19Z</time>
      </trkpt>
      <trkpt lat="47.49242" lon="6.66743">
        <ele>395.79024896</ele>
        <time>2014-12-07T09:39:20Z</time>
      </trkpt>
      <trkpt lat="47.49244" lon="6.66742">
        <ele>395.88887024</ele>
        <time>2014-12-07T09:39:21Z</time>
      </trkpt>
      <trkpt lat="47.49246" lon="6.66741">
        <ele>396.00965024</ele>
        <time>2014-12-07T09:39:22Z</time>
      </trkpt>
      <trkpt lat="47.49248" lon="6.66739">
        <ele>396.15282656</ele>
        <time>2014-12-07T09:39:23Z</time>
      </trkpt>
      <trkpt lat="47.4925" lon="6.66738">
        <ele>396.31812704</ele>
        <time>2014-12-07T09:39:24Z</time>
      </trkpt>
      <trkpt lat="47.49254" lon="6.66735">
        <ele>396.67251392</ele>
        <time>2014-12-07T09:39:26Z</time>
      </trkpt>
      <trkpt lat="47.49256" lon="6.66733">
        <ele>396.84028832</ele>
        <time>2014-12-07T09:39:27Z</time>
      </trkpt>
      <trkpt lat="47.49258" lon="6.66732">
        <ele>397.00919168001</ele>
        <time>2014-12-07T09:39:28Z</time>
      </trkpt>
      <trkpt lat="47.49261" lon="6.66731">
        <ele>397.135484</ele>
        <time>2014-12-07T09:39:29Z</time>
      </trkpt>
      <trkpt lat="47.49263" lon="6.66729">
        <ele>397.26276992</ele>
        <time>2014-12-07T09:39:30Z</time>
      </trkpt>
      <trkpt lat="47.49265" lon="6.66728">
        <ele>397.38007808</ele>
        <time>2014-12-07T09:39:31Z</time>
      </trkpt>
      <trkpt lat="47.49268" lon="6.66728">
        <ele>397.47597056</ele>
        <time>2014-12-07T09:39:32Z</time>
      </trkpt>
      <trkpt lat="47.4927" lon="6.66727">
        <ele>397.56066272</ele>
        <time>2014-12-07T09:39:33Z</time>
      </trkpt>
      <trkpt lat="47.49274" lon="6.66725">
        <ele>397.75331888</ele>
        <time>2014-12-07T09:39:35Z</time>
      </trkpt>
      <trkpt lat="47.49276" lon="6.66724">
        <ele>397.86138368</ele>
        <time>2014-12-07T09:39:36Z</time>
      </trkpt>
      <trkpt lat="47.49279" lon="6.66723">
        <ele>398.01598496</ele>
        <time>2014-12-07T09:39:37Z</time>
      </trkpt>
      <trkpt lat="47.49281" lon="6.66722">
        <ele>398.15942912</ele>
        <time>2014-12-07T09:39:38Z</time>
      </trkpt>
      <trkpt lat="47.49283" lon="6.66721">
        <ele>398.29277888</ele>
        <time>2014-12-07T09:39:39Z</time>
      </trkpt>
      <trkpt lat="47.49285" lon="6.6672">
        <ele>398.42685728</ele>
        <time>2014-12-07T09:39:40Z</time>
      </trkpt>
      <trkpt lat="47.49289" lon="6.66718">
        <ele>398.5902656</ele>
        <time>2014-12-07T09:39:42Z</time>
      </trkpt>
      <trkpt lat="47.49291" lon="6.66718">
        <ele>398.6430848</ele>
        <time>2014-12-07T09:39:43Z</time>
      </trkpt>
      <trkpt lat="47.49295" lon="6.66717">
        <ele>398.75305472</ele>
        <time>2014-12-07T09:39:45Z</time>
      </trkpt>
      <trkpt lat="47.49297" lon="6.66717">
        <ele>398.8466576</ele>
        <time>2014-12-07T09:39:46Z</time>
      </trkpt>
      <trkpt lat="47.493" lon="6.66716">
        <ele>398.96436608</ele>
        <time>2014-12-07T09:39:47Z</time>
      </trkpt>
      <trkpt lat="47.49303" lon="6.66715">
        <ele>399.03756704</ele>
        <time>2014-12-07T09:39:48Z</time>
      </trkpt>
      <trkpt lat="47.49306" lon="6.66714">
        <ele>399.13341632</ele>
        <time>2014-12-07T09:39:49Z</time>
      </trkpt>
      <trkpt lat="47.49309" lon="6.66714">
        <ele>399.2536808</ele>
        <time>2014-12-07T09:39:50Z</time>
      </trkpt>
      <trkpt lat="47.49312" lon="6.66713">
        <ele>399.36302576</ele>
        <time>2014-12-07T09:39:51Z</time>
      </trkpt>
      <trkpt lat="47.49315" lon="6.66711">
        <ele>399.53120768</ele>
        <time>2014-12-07T09:39:52Z</time>
      </trkpt>
      <trkpt lat="47.49318" lon="6.6671">
        <ele>399.73408064</ele>
        <time>2014-12-07T09:39:53Z</time>
      </trkpt>
      <trkpt lat="47.4932" lon="6.66708">
        <ele>399.97238048</ele>
        <time>2014-12-07T09:39:54Z</time>
      </trkpt>
      <trkpt lat="47.49323" lon="6.66705">
        <ele>400.306112</ele>
        <time>2014-12-07T09:39:55Z</time>
      </trkpt>
      <trkpt lat="47.49325" lon="6.66702">
        <ele>400.7010176</ele>
        <time>2014-12-07T09:39:56Z</time>
      </trkpt>
      <trkpt lat="47.49327" lon="6.66699">
        <ele>401.10921440001</ele>
        <time>2014-12-07T09:39:57Z</time>
      </trkpt>
      <trkpt lat="47.49329" lon="6.66696">
        <ele>401.46783776</ele>
        <time>2014-12-07T09:39:58Z</time>
      </trkpt>
      <trkpt lat="47.4933" lon="6.66693">
        <ele>401.78955392</ele>
        <time>2014-12-07T09:39:59Z</time>
      </trkpt>
      <trkpt lat="47.49334" lon="6.66687">
        <ele>402.59988480001</ele>
        <time>2014-12-07T09:40:02Z</time>
      </trkpt>
      <trkpt lat="47.49336" lon="6.66682">
        <ele>402.94232303998</ele>
        <time>2014-12-07T09:40:04Z</time>
      </trkpt>
      <trkpt lat="47.49338" lon="6.66679">
        <ele>403.18433664002</ele>
        <time>2014-12-07T09:40:06Z</time>
      </trkpt>
      <trkpt lat="47.49339" lon="6.66676">
        <ele>403.47813311997</ele>
        <time>2014-12-07T09:40:07Z</time>
      </trkpt>
      <trkpt lat="47.49339" lon="6.66672">
        <ele>403.81742591998</ele>
        <time>2014-12-07T09:40:08Z</time>
      </trkpt>
      <trkpt lat="47.4934" lon="6.66666">
        <ele>404.51491136003</ele>
        <time>2014-12-07T09:40:10Z</time>
      </trkpt>
      <trkpt lat="47.4934" lon="6.66663">
        <ele>404.73361856003</ele>
        <time>2014-12-07T09:40:11Z</time>
      </trkpt>
      <trkpt lat="47.49339" lon="6.66658">
        <ele>405.11666816</ele>
        <time>2014-12-07T09:40:13Z</time>
      </trkpt>
      <trkpt lat="47.49339" lon="6.66656">
        <ele>405.26139296002</ele>
        <time>2014-12-07T09:40:14Z</time>
      </trkpt>
      <trkpt lat="47.49342" lon="6.66652">
        <ele>405.37261280001</ele>
        <time>2014-12-07T09:40:16Z</time>
      </trkpt>
      <trkpt lat="47.49343" lon="6.66651">
        <ele>405.35816960001</ele>
        <time>2014-12-07T09:40:17Z</time>
      </trkpt>
      <trkpt lat="47.49347" lon="6.66648">
        <ele>405.27118016</ele>
        <time>2014-12-07T09:40:19Z</time>
      </trkpt>
      <trkpt lat="47.49348" lon="6.66646">
        <ele>405.29964800002</ele>
        <time>2014-12-07T09:40:20Z</time>
      </trkpt>
      <trkpt lat="47.4935" lon="6.66641">
        <ele>405.56461759998</ele>
        <time>2014-12-07T09:40:22Z</time>
      </trkpt>
      <trkpt lat="47.4935" lon="6.66638">
        <ele>405.74768000002</ele>
        <time>2014-12-07T09:40:23Z</time>
      </trkpt>
      <trkpt lat="47.49351" lon="6.66633">
        <ele>406.07965472003</ele>
        <time>2014-12-07T09:40:25Z</time>
      </trkpt>
      <trkpt lat="47.49351" lon="6.66631">
        <ele>406.21329535999</ele>
        <time>2014-12-07T09:40:26Z</time>
      </trkpt>
      <trkpt lat="47.4935" lon="6.66626">
        <ele>406.64085296</ele>
        <time>2014-12-07T09:40:28Z</time>
      </trkpt>
      <trkpt lat="47.4935" lon="6.66623">
        <ele>406.91738719998</ele>
        <time>2014-12-07T09:40:29Z</time>
      </trkpt>
      <trkpt lat="47.49349" lon="6.66619">
        <ele>407.20039519999</ele>
        <time>2014-12-07T09:40:30Z</time>
      </trkpt>
      <trkpt lat="47.4935" lon="6.66616">
        <ele>407.44511599998</ele>
        <time>2014-12-07T09:40:31Z</time>
      </trkpt>
      <trkpt lat="47.4935" lon="6.66609">
        <ele>407.87552000002</ele>
        <time>2014-12-07T09:40:33Z</time>
      </trkpt>
      <trkpt lat="47.4935" lon="6.66606">
        <ele>408.11360000002</ele>
        <time>2014-12-07T09:40:34Z</time>
      </trkpt>
      <trkpt lat="47.4935" lon="6.66601">
        <ele>408.52280000002</ele>
        <time>2014-12-07T09:40:36Z</time>
      </trkpt>
      <trkpt lat="47.4935" lon="6.66598">
        <ele>408.66426367999</ele>
        <time>2014-12-07T09:40:37Z</time>
      </trkpt>
      <trkpt lat="47.49351" lon="6.66593">
        <ele>408.98527231998</ele>
        <time>2014-12-07T09:40:39Z</time>
      </trkpt>
      <trkpt lat="47.49351" lon="6.6659">
        <ele>409.22343007998</ele>
        <time>2014-12-07T09:40:40Z</time>
      </trkpt>
      <trkpt lat="47.49349" lon="6.66585">
        <ele>409.70448128001</ele>
        <time>2014-12-07T09:40:42Z</time>
      </trkpt>
      <trkpt lat="47.49349" lon="6.66583">
        <ele>409.92046400002</ele>
        <time>2014-12-07T09:40:43Z</time>
      </trkpt>
      <trkpt lat="47.49347" lon="6.66578">
        <ele>410.27977760001</ele>
        <time>2014-12-07T09:40:45Z</time>
      </trkpt>
      <trkpt lat="47.49347" lon="6.66576">
        <ele>410.4592736</ele>
        <time>2014-12-07T09:40:46Z</time>
      </trkpt>
      <trkpt lat="47.49346" lon="6.66571">
        <ele>410.81204479999</ele>
        <time>2014-12-07T09:40:48Z</time>
      </trkpt>
      <trkpt lat="47.49345" lon="6.66569">
        <ele>410.99146640001</ele>
        <time>2014-12-07T09:40:49Z</time>
      </trkpt>
      <trkpt lat="47.49344" lon="6.66563">
        <ele>411.38177600001</ele>
        <time>2014-12-07T09:40:51Z</time>
      </trkpt>
      <trkpt lat="47.49343" lon="6.66561">
        <ele>411.57558800002</ele>
        <time>2014-12-07T09:40:52Z</time>
      </trkpt>
      <trkpt lat="47.49342" lon="6.66555">
        <ele>411.93321200001</ele>
        <time>2014-12-07T09:40:54Z</time>
      </trkpt>
      <trkpt lat="47.49341" lon="6.66553">
        <ele>412.09321999999</ele>
        <time>2014-12-07T09:40:55Z</time>
      </trkpt>
      <trkpt lat="47.49341" lon="6.66548">
        <ele>412.35582079999</ele>
        <time>2014-12-07T09:40:57Z</time>
      </trkpt>
      <trkpt lat="47.49341" lon="6.66546">
        <ele>412.4531552</ele>
        <time>2014-12-07T09:40:58Z</time>
      </trkpt>
      <trkpt lat="47.49342" lon="6.66544">
        <ele>412.522544</ele>
        <time>2014-12-07T09:40:59Z</time>
      </trkpt>
      <trkpt lat="47.49344" lon="6.66539">
        <ele>412.69892719999</ele>
        <time>2014-12-07T09:41:02Z</time>
      </trkpt>
      <trkpt lat="47.49347" lon="6.66536">
        <ele>412.75399519999</ele>
        <time>2014-12-07T09:41:04Z</time>
      </trkpt>
      <trkpt lat="47.49349" lon="6.66534">
        <ele>412.7795864</ele>
        <time>2014-12-07T09:41:05Z</time>
      </trkpt>
      <trkpt lat="47.49351" lon="6.66532">
        <ele>412.8161672</ele>
        <time>2014-12-07T09:41:06Z</time>
      </trkpt>
      <trkpt lat="47.49354" lon="6.6653">
        <ele>412.88239999999</ele>
        <time>2014-12-07T09:41:07Z</time>
      </trkpt>
      <trkpt lat="47.49356" lon="6.66528">
        <ele>412.95271040001</ele>
        <time>2014-12-07T09:41:08Z</time>
      </trkpt>
      <trkpt lat="47.49358" lon="6.66526">
        <ele>413.00345599999</ele>
        <time>2014-12-07T09:41:09Z</time>
      </trkpt>
      <trkpt lat="47.4936" lon="6.66525">
        <ele>413.03282240001</ele>
        <time>2014-12-07T09:41:10Z</time>
      </trkpt>
      <trkpt lat="47.49362" lon="6.66524">
        <ele>413.01842479999</ele>
        <time>2014-12-07T09:41:11Z</time>
      </trkpt>
      <trkpt lat="47.49364" lon="6.66523">
        <ele>412.98924320001</ele>
        <time>2014-12-07T09:41:12Z</time>
      </trkpt>
      <trkpt lat="47.49366" lon="6.66523">
        <ele>412.97315839999</ele>
        <time>2014-12-07T09:41:13Z</time>
      </trkpt>
      <trkpt lat="47.49371" lon="6.66521">
        <ele>413.01394400001</ele>
        <time>2014-12-07T09:41:15Z</time>
      </trkpt>
      <trkpt lat="47.49373" lon="6.66519">
        <ele>413.0491232</ele>
        <time>2014-12-07T09:41:16Z</time>
      </trkpt>
      <trkpt lat="47.49377" lon="6.66517">
        <ele>413.1510464</ele>
        <time>2014-12-07T09:41:18Z</time>
      </trkpt>
      <trkpt lat="47.49378" lon="6.66515">
        <ele>413.2467224</ele>
        <time>2014-12-07T09:41:19Z</time>
      </trkpt>
      <trkpt lat="47.4938" lon="6.66513">
        <ele>413.3792</ele>
        <time>2014-12-07T09:41:20Z</time>
      </trkpt>
      <trkpt lat="47.49382" lon="6.66511">
        <ele>413.5333832</ele>
        <time>2014-12-07T09:41:21Z</time>
      </trkpt>
      <trkpt lat="47.49384" lon="6.66509">
        <ele>413.68116799999</ele>
        <time>2014-12-07T09:41:22Z</time>
      </trkpt>
      <trkpt lat="47.49386" lon="6.66507">
        <ele>413.814524</ele>
        <time>2014-12-07T09:41:23Z</time>
      </trkpt>
      <trkpt lat="47.49388" lon="6.66505">
        <ele>413.952404</ele>
        <time>2014-12-07T09:41:24Z</time>
      </trkpt>
      <trkpt lat="47.4939" lon="6.66503">
        <ele>414.08912</ele>
        <time>2014-12-07T09:41:25Z</time>
      </trkpt>
      <trkpt lat="47.49393" lon="6.66499">
        <ele>414.31533392</ele>
        <time>2014-12-07T09:41:27Z</time>
      </trkpt>
      <trkpt lat="47.49394" lon="6.66498">
        <ele>414.3874784</ele>
        <time>2014-12-07T09:41:28Z</time>
      </trkpt>
      <trkpt lat="47.49396" lon="6.66494">
        <ele>414.56091776</ele>
        <time>2014-12-07T09:41:31Z</time>
      </trkpt>
      <trkpt lat="47.49398" lon="6.66493">
        <ele>414.60667135999</ele>
        <time>2014-12-07T09:41:32Z</time>
      </trkpt>
      <trkpt lat="47.494" lon="6.6649">
        <ele>414.7566392</ele>
        <time>2014-12-07T09:41:34Z</time>
      </trkpt>
      <trkpt lat="47.49401" lon="6.66488">
        <ele>414.8567</ele>
        <time>2014-12-07T09:41:35Z</time>
      </trkpt>
      <trkpt lat="47.49399" lon="6.66482">
        <ele>415.16468384</ele>
        <time>2014-12-07T09:41:39Z</time>
      </trkpt>
      <trkpt lat="47.49398" lon="6.66481">
        <ele>415.20443984</ele>
        <time>2014-12-07T09:41:40Z</time>
      </trkpt>
      <trkpt lat="47.49394" lon="6.66481">
        <ele>415.23673472</ele>
        <time>2014-12-07T09:41:45Z</time>
      </trkpt>
      <trkpt lat="47.49393" lon="6.66481">
        <ele>415.2539168</ele>
        <time>2014-12-07T09:41:46Z</time>
      </trkpt>
      <trkpt lat="47.49393" lon="6.66474">
        <ele>415.5831536</ele>
        <time>2014-12-07T09:41:50Z</time>
      </trkpt>
      <trkpt lat="47.49393" lon="6.66472">
        <ele>415.69755776</ele>
        <time>2014-12-07T09:41:51Z</time>
      </trkpt>
      <trkpt lat="47.49391" lon="6.66466">
        <ele>415.99028672</ele>
        <time>2014-12-07T09:41:54Z</time>
      </trkpt>
      <trkpt lat="47.4939" lon="6.66464">
        <ele>416.07156608</ele>
        <time>2014-12-07T09:41:55Z</time>
      </trkpt>
      <trkpt lat="47.49389" lon="6.66458">
        <ele>416.36024864</ele>
        <time>2014-12-07T09:41:58Z</time>
      </trkpt>
      <trkpt lat="47.49389" lon="6.66455">
        <ele>416.49821648</ele>
        <time>2014-12-07T09:41:59Z</time>
      </trkpt>
      <trkpt lat="47.49388" lon="6.66446">
        <ele>416.90686496</ele>
        <time>2014-12-07T09:42:02Z</time>
      </trkpt>
      <trkpt lat="47.49386" lon="6.66441">
        <ele>417.12572624</ele>
        <time>2014-12-07T09:42:04Z</time>
      </trkpt>
      <trkpt lat="47.49385" lon="6.66438">
        <ele>417.237944</ele>
        <time>2014-12-07T09:42:05Z</time>
      </trkpt>
      <trkpt lat="47.49384" lon="6.66435">
        <ele>417.35297839999</ele>
        <time>2014-12-07T09:42:06Z</time>
      </trkpt>
      <trkpt lat="47.49382" lon="6.66432">
        <ele>417.47690864</ele>
        <time>2014-12-07T09:42:07Z</time>
      </trkpt>
      <trkpt lat="47.49381" lon="6.66429">
        <ele>417.5935712</ele>
        <time>2014-12-07T09:42:07Z</time>
      </trkpt>
      <trkpt lat="47.49379" lon="6.66425">
        <ele>417.74291935999</ele>
        <time>2014-12-07T09:42:09Z</time>
      </trkpt>
      <trkpt lat="47.49377" lon="6.66421">
        <ele>417.85169695999</ele>
        <time>2014-12-07T09:42:10Z</time>
      </trkpt>
      <trkpt lat="47.49376" lon="6.66417">
        <ele>417.98340991999</ele>
        <time>2014-12-07T09:42:11Z</time>
      </trkpt>
      <trkpt lat="47.49374" lon="6.66414">
        <ele>418.02460480001</ele>
        <time>2014-12-07T09:42:12Z</time>
      </trkpt>
      <trkpt lat="47.49373" lon="6.66411">
        <ele>418.04700640001</ele>
        <time>2014-12-07T09:42:13Z</time>
      </trkpt>
      <trkpt lat="47.49371" lon="6.66407">
        <ele>418.06482832</ele>
        <time>2014-12-07T09:42:14Z</time>
      </trkpt>
      <trkpt lat="47.4937" lon="6.66404">
        <ele>418.07927248</ele>
        <time>2014-12-07T09:42:15Z</time>
      </trkpt>
      <trkpt lat="47.49369" lon="6.664">
        <ele>418.0911232</ele>
        <time>2014-12-07T09:42:16Z</time>
      </trkpt>
      <trkpt lat="47.49367" lon="6.66397">
        <ele>418.10671552</ele>
        <time>2014-12-07T09:42:17Z</time>
      </trkpt>
      <trkpt lat="47.49366" lon="6.66393">
        <ele>418.11233919999</ele>
        <time>2014-12-07T09:42:18Z</time>
      </trkpt>
      <trkpt lat="47.49365" lon="6.6639">
        <ele>418.11715695999</ele>
        <time>2014-12-07T09:42:19Z</time>
      </trkpt>
      <trkpt lat="47.49364" lon="6.66387">
        <ele>418.12534240001</ele>
        <time>2014-12-07T09:42:20Z</time>
      </trkpt>
      <trkpt lat="47.49363" lon="6.66384">
        <ele>418.12557952</ele>
        <time>2014-12-07T09:42:21Z</time>
      </trkpt>
      <trkpt lat="47.49362" lon="6.6638">
        <ele>418.12125952001</ele>
        <time>2014-12-07T09:42:22Z</time>
      </trkpt>
      <trkpt lat="47.49361" lon="6.66377">
        <ele>418.11752800001</ele>
        <time>2014-12-07T09:42:23Z</time>
      </trkpt>
      <trkpt lat="47.4936" lon="6.66374">
        <ele>418.115956</ele>
        <time>2014-12-07T09:42:24Z</time>
      </trkpt>
      <trkpt lat="47.49358" lon="6.6637">
        <ele>418.10802687999</ele>
        <time>2014-12-07T09:42:25Z</time>
      </trkpt>
      <trkpt lat="47.49357" lon="6.66366">
        <ele>418.09313152</ele>
        <time>2014-12-07T09:42:26Z</time>
      </trkpt>
      <trkpt lat="47.49356" lon="6.66363">
        <ele>418.06965999999</ele>
        <time>2014-12-07T09:42:27Z</time>
      </trkpt>
      <trkpt lat="47.49355" lon="6.66359">
        <ele>418.04203264001</ele>
        <time>2014-12-07T09:42:28Z</time>
      </trkpt>
      <trkpt lat="47.49353" lon="6.66355">
        <ele>418.00852432</ele>
        <time>2014-12-07T09:42:29Z</time>
      </trkpt>
      <trkpt lat="47.49352" lon="6.66352">
        <ele>417.98230431999</ele>
        <time>2014-12-07T09:42:30Z</time>
      </trkpt>
      <trkpt lat="47.49351" lon="6.66348">
        <ele>417.9473008</ele>
        <time>2014-12-07T09:42:31Z</time>
      </trkpt>
      <trkpt lat="47.4935" lon="6.66345">
        <ele>417.8975296</ele>
        <time>2014-12-07T09:42:32Z</time>
      </trkpt>
      <trkpt lat="47.49348" lon="6.66341">
        <ele>417.84972351999</ele>
        <time>2014-12-07T09:42:33Z</time>
      </trkpt>
      <trkpt lat="47.49347" lon="6.66337">
        <ele>417.79251039999</ele>
        <time>2014-12-07T09:42:34Z</time>
      </trkpt>
      <trkpt lat="47.49345" lon="6.66333">
        <ele>417.72279584001</ele>
        <time>2014-12-07T09:42:35Z</time>
      </trkpt>
      <trkpt lat="47.49344" lon="6.66329">
        <ele>417.69920479999</ele>
        <time>2014-12-07T09:42:36Z</time>
      </trkpt>
      <trkpt lat="47.49342" lon="6.66325">
        <ele>417.67976096001</ele>
        <time>2014-12-07T09:42:37Z</time>
      </trkpt>
      <trkpt lat="47.4934" lon="6.66321">
        <ele>417.66545791999</ele>
        <time>2014-12-07T09:42:38Z</time>
      </trkpt>
      <trkpt lat="47.49338" lon="6.66316">
        <ele>417.66817280001</ele>
        <time>2014-12-07T09:42:39Z</time>
      </trkpt>
      <trkpt lat="47.49336" lon="6.66312">
        <ele>417.67333951999</ele>
        <time>2014-12-07T09:42:40Z</time>
      </trkpt>
      <trkpt lat="47.49335" lon="6.66307">
        <ele>417.69078559999</ele>
        <time>2014-12-07T09:42:41Z</time>
      </trkpt>
      <trkpt lat="47.49333" lon="6.66303">
        <ele>417.71906544001</ele>
        <time>2014-12-07T09:42:42Z</time>
      </trkpt>
      <trkpt lat="47.49331" lon="6.66298">
        <ele>417.76585104</ele>
        <time>2014-12-07T09:42:43Z</time>
      </trkpt>
      <trkpt lat="47.4933" lon="6.66294">
        <ele>417.80627759999</ele>
        <time>2014-12-07T09:42:44Z</time>
      </trkpt>
      <trkpt lat="47.49328" lon="6.66289">
        <ele>417.83385599999</ele>
        <time>2014-12-07T09:42:45Z</time>
      </trkpt>
      <trkpt lat="47.49326" lon="6.66284">
        <ele>417.86353536002</ele>
        <time>2014-12-07T09:42:46Z</time>
      </trkpt>
      <trkpt lat="47.49325" lon="6.6628">
        <ele>417.89347439999</ele>
        <time>2014-12-07T09:42:47Z</time>
      </trkpt>
      <trkpt lat="47.49323" lon="6.66274">
        <ele>417.92507616001</ele>
        <time>2014-12-07T09:42:48Z</time>
      </trkpt>
      <trkpt lat="47.49322" lon="6.66269">
        <ele>417.96411791999</ele>
        <time>2014-12-07T09:42:49Z</time>
      </trkpt>
      <trkpt lat="47.49321" lon="6.66263">
        <ele>417.99538607999</ele>
        <time>2014-12-07T09:42:50Z</time>
      </trkpt>
      <trkpt lat="47.49319" lon="6.66258">
        <ele>418.02734592002</ele>
        <time>2014-12-07T09:42:51Z</time>
      </trkpt>
      <trkpt lat="47.49318" lon="6.66252">
        <ele>418.0511616</ele>
        <time>2014-12-07T09:42:52Z</time>
      </trkpt>
      <trkpt lat="47.49317" lon="6.66246">
        <ele>417.97931904001</ele>
        <time>2014-12-07T09:42:53Z</time>
      </trkpt>
      <trkpt lat="47.49316" lon="6.66241">
        <ele>417.86574671999</ele>
        <time>2014-12-07T09:42:54Z</time>
      </trkpt>
      <trkpt lat="47.49315" lon="6.66235">
        <ele>417.74989823999</ele>
        <time>2014-12-07T09:42:55Z</time>
      </trkpt>
      <trkpt lat="47.49314" lon="6.6623">
        <ele>417.64241856001</ele>
        <time>2014-12-07T09:42:56Z</time>
      </trkpt>
      <trkpt lat="47.49313" lon="6.66225">
        <ele>417.53447424001</ele>
        <time>2014-12-07T09:42:57Z</time>
      </trkpt>
      <trkpt lat="47.49312" lon="6.6622">
        <ele>417.4254528</ele>
        <time>2014-12-07T09:42:58Z</time>
      </trkpt>
      <trkpt lat="47.49311" lon="6.66215">
        <ele>417.3371904</ele>
        <time>2014-12-07T09:42:59Z</time>
      </trkpt>
      <trkpt lat="47.4931" lon="6.6621">
        <ele>417.26351424</ele>
        <time>2014-12-07T09:43:00Z</time>
      </trkpt>
      <trkpt lat="47.49309" lon="6.66197">
        <ele>417.09750192</ele>
        <time>2014-12-07T09:43:03Z</time>
      </trkpt>
      <trkpt lat="47.49312" lon="6.66196">
        <ele>417.26147328001</ele>
        <time>2014-12-07T09:43:07Z</time>
      </trkpt>
      <trkpt lat="47.49314" lon="6.66196">
        <ele>417.33097248001</ele>
        <time>2014-12-07T09:43:08Z</time>
      </trkpt>
      <trkpt lat="47.49317" lon="6.66193">
        <ele>417.4671696</ele>
        <time>2014-12-07T09:43:10Z</time>
      </trkpt>
      <trkpt lat="47.49319" lon="6.6619">
        <ele>417.53473536001</ele>
        <time>2014-12-07T09:43:11Z</time>
      </trkpt>
      <trkpt lat="47.49321" lon="6.66186">
        <ele>417.59346816001</ele>
        <time>2014-12-07T09:43:12Z</time>
      </trkpt>
      <trkpt lat="47.49323" lon="6.66182">
        <ele>417.65596416</ele>
        <time>2014-12-07T09:43:13Z</time>
      </trkpt>
      <trkpt lat="47.49325" lon="6.66178">
        <ele>417.70320767998</ele>
        <time>2014-12-07T09:43:14Z</time>
      </trkpt>
      <trkpt lat="47.49327" lon="6.66174">
        <ele>417.75438047999</ele>
        <time>2014-12-07T09:43:15Z</time>
      </trkpt>
      <trkpt lat="47.49328" lon="6.6617">
        <ele>417.80421888001</ele>
        <time>2014-12-07T09:43:16Z</time>
      </trkpt>
      <trkpt lat="47.4933" lon="6.66167">
        <ele>417.84979824001</ele>
        <time>2014-12-07T09:43:17Z</time>
      </trkpt>
      <trkpt lat="47.49332" lon="6.66164">
        <ele>417.88658432</ele>
        <time>2014-12-07T09:43:18Z</time>
      </trkpt>
      <trkpt lat="47.49333" lon="6.66161">
        <ele>417.9181376</ele>
        <time>2014-12-07T09:43:19Z</time>
      </trkpt>
      <trkpt lat="47.49334" lon="6.66158">
        <ele>417.93428416</ele>
        <time>2014-12-07T09:43:20Z</time>
      </trkpt>
      <trkpt lat="47.49336" lon="6.66155">
        <ele>417.94218496</ele>
        <time>2014-12-07T09:43:21Z</time>
      </trkpt>
      <trkpt lat="47.49337" lon="6.66152">
        <ele>417.95213679999</ele>
        <time>2014-12-07T09:43:22Z</time>
      </trkpt>
      <trkpt lat="47.49339" lon="6.66148">
        <ele>417.95527072</ele>
        <time>2014-12-07T09:43:23Z</time>
      </trkpt>
      <trkpt lat="47.4934" lon="6.66145">
        <ele>417.95850111999</ele>
        <time>2014-12-07T09:43:24Z</time>
      </trkpt>
      <trkpt lat="47.49341" lon="6.66142">
        <ele>417.95863648001</ele>
        <time>2014-12-07T09:43:25Z</time>
      </trkpt>
      <trkpt lat="47.49342" lon="6.66139">
        <ele>417.95960895999</ele>
        <time>2014-12-07T09:43:26Z</time>
      </trkpt>
      <trkpt lat="47.49344" lon="6.66136">
        <ele>417.96346864</ele>
        <time>2014-12-07T09:43:27Z</time>
      </trkpt>
      <trkpt lat="47.49346" lon="6.66131">
        <ele>417.96538144</ele>
        <time>2014-12-07T09:43:29Z</time>
      </trkpt>
      <trkpt lat="47.49347" lon="6.66129">
        <ele>417.96307840001</ele>
        <time>2014-12-07T09:43:30Z</time>
      </trkpt>
      <trkpt lat="47.49348" lon="6.66126">
        <ele>417.95589856</ele>
        <time>2014-12-07T09:43:31Z</time>
      </trkpt>
      <trkpt lat="47.4935" lon="6.66122">
        <ele>417.94488160001</ele>
        <time>2014-12-07T09:43:32Z</time>
      </trkpt>
      <trkpt lat="47.49351" lon="6.66118">
        <ele>417.9311008</ele>
        <time>2014-12-07T09:43:33Z</time>
      </trkpt>
      <trkpt lat="47.49352" lon="6.66114">
        <ele>417.90990304001</ele>
        <time>2014-12-07T09:43:34Z</time>
      </trkpt>
      <trkpt lat="47.49354" lon="6.6611">
        <ele>417.8829304</ele>
        <time>2014-12-07T09:43:35Z</time>
      </trkpt>
      <trkpt lat="47.49355" lon="6.66106">
        <ele>417.85059279999</ele>
        <time>2014-12-07T09:43:36Z</time>
      </trkpt>
      <trkpt lat="47.49356" lon="6.66102">
        <ele>417.8186224</ele>
        <time>2014-12-07T09:43:37Z</time>
      </trkpt>
      <trkpt lat="47.49356" lon="6.66099">
        <ele>417.7859776</ele>
        <time>2014-12-07T09:43:38Z</time>
      </trkpt>
      <trkpt lat="47.49358" lon="6.66095">
        <ele>417.757504</ele>
        <time>2014-12-07T09:43:39Z</time>
      </trkpt>
      <trkpt lat="47.49359" lon="6.66091">
        <ele>417.72847120001</ele>
        <time>2014-12-07T09:43:40Z</time>
      </trkpt>
      <trkpt lat="47.4936" lon="6.66088">
        <ele>417.6968536</ele>
        <time>2014-12-07T09:43:41Z</time>
      </trkpt>
      <trkpt lat="47.49361" lon="6.66084">
        <ele>417.66738160001</ele>
        <time>2014-12-07T09:43:42Z</time>
      </trkpt>
      <trkpt lat="47.49362" lon="6.66081">
        <ele>417.62193280001</ele>
        <time>2014-12-07T09:43:43Z</time>
      </trkpt>
      <trkpt lat="47.49363" lon="6.66076">
        <ele>417.56824384</ele>
        <time>2014-12-07T09:43:44Z</time>
      </trkpt>
      <trkpt lat="47.49364" lon="6.66072">
        <ele>417.51344464</ele>
        <time>2014-12-07T09:43:45Z</time>
      </trkpt>
      <trkpt lat="47.49365" lon="6.66068">
        <ele>417.45871312</ele>
        <time>2014-12-07T09:43:46Z</time>
      </trkpt>
      <trkpt lat="47.49366" lon="6.66064">
        <ele>417.401296</ele>
        <time>2014-12-07T09:43:47Z</time>
      </trkpt>
      <trkpt lat="47.49367" lon="6.66059">
        <ele>417.34305087999</ele>
        <time>2014-12-07T09:43:48Z</time>
      </trkpt>
      <trkpt lat="47.49368" lon="6.66055">
        <ele>417.28592032001</ele>
        <time>2014-12-07T09:43:49Z</time>
      </trkpt>
      <trkpt lat="47.49369" lon="6.6605">
        <ele>417.21946431999</ele>
        <time>2014-12-07T09:43:50Z</time>
      </trkpt>
      <trkpt lat="47.4937" lon="6.66045">
        <ele>417.15327760001</ele>
        <time>2014-12-07T09:43:51Z</time>
      </trkpt>
      <trkpt lat="47.49371" lon="6.6604">
        <ele>417.0913792</ele>
        <time>2014-12-07T09:43:52Z</time>
      </trkpt>
      <trkpt lat="47.49372" lon="6.66036">
        <ele>417.03089200001</ele>
        <time>2014-12-07T09:43:53Z</time>
      </trkpt>
      <trkpt lat="47.49372" lon="6.66031">
        <ele>416.97416896</ele>
        <time>2014-12-07T09:43:54Z</time>
      </trkpt>
      <trkpt lat="47.49373" lon="6.66026">
        <ele>416.91681376</ele>
        <time>2014-12-07T09:43:55Z</time>
      </trkpt>
      <trkpt lat="47.49374" lon="6.66021">
        <ele>416.85886527999</ele>
        <time>2014-12-07T09:43:56Z</time>
      </trkpt>
      <trkpt lat="47.49375" lon="6.66016">
        <ele>416.79833344</ele>
        <time>2014-12-07T09:43:57Z</time>
      </trkpt>
      <trkpt lat="47.49376" lon="6.66011">
        <ele>416.74299424</ele>
        <time>2014-12-07T09:43:57Z</time>
      </trkpt>
      <trkpt lat="47.49377" lon="6.66006">
        <ele>416.67470656001</ele>
        <time>2014-12-07T09:43:59Z</time>
      </trkpt>
      <trkpt lat="47.49378" lon="6.66001">
        <ele>416.61319120001</ele>
        <time>2014-12-07T09:44:00Z</time>
      </trkpt>
      <trkpt lat="47.49384" lon="6.65959">
        <ele>416.02599808</ele>
        <time>2014-12-07T09:44:08Z</time>
      </trkpt>
      <trkpt lat="47.49385" lon="6.65954">
        <ele>415.9452616</ele>
        <time>2014-12-07T09:44:09Z</time>
      </trkpt>
      <trkpt lat="47.49385" lon="6.65949">
        <ele>415.86661600001</ele>
        <time>2014-12-07T09:44:10Z</time>
      </trkpt>
      <trkpt lat="47.49385" lon="6.65944">
        <ele>415.78643392</ele>
        <time>2014-12-07T09:44:11Z</time>
      </trkpt>
      <trkpt lat="47.49386" lon="6.6594">
        <ele>415.70493568</ele>
        <time>2014-12-07T09:44:12Z</time>
      </trkpt>
      <trkpt lat="47.49386" lon="6.65935">
        <ele>415.62233296</ele>
        <time>2014-12-07T09:44:13Z</time>
      </trkpt>
      <trkpt lat="47.49386" lon="6.65931">
        <ele>415.54339072001</ele>
        <time>2014-12-07T09:44:14Z</time>
      </trkpt>
      <trkpt lat="47.49386" lon="6.65927">
        <ele>415.46616351999</ele>
        <time>2014-12-07T09:44:15Z</time>
      </trkpt>
      <trkpt lat="47.49386" lon="6.65922">
        <ele>415.38424768</ele>
        <time>2014-12-07T09:44:16Z</time>
      </trkpt>
      <trkpt lat="47.49387" lon="6.65918">
        <ele>415.2963112</ele>
        <time>2014-12-07T09:44:17Z</time>
      </trkpt>
      <trkpt lat="47.49387" lon="6.65913">
        <ele>415.2966224</ele>
        <time>2014-12-07T09:44:18Z</time>
      </trkpt>
      <trkpt lat="47.49387" lon="6.65908">
        <ele>415.32274879999</ele>
        <time>2014-12-07T09:44:19Z</time>
      </trkpt>
      <trkpt lat="47.49387" lon="6.65903">
        <ele>415.3485872</ele>
        <time>2014-12-07T09:44:20Z</time>
      </trkpt>
      <trkpt lat="47.49387" lon="6.65898">
        <ele>415.36944944</ele>
        <time>2014-12-07T09:44:21Z</time>
      </trkpt>
      <trkpt lat="47.49387" lon="6.65893">
        <ele>415.3882496</ele>
        <time>2014-12-07T09:44:22Z</time>
      </trkpt>
      <trkpt lat="47.49387" lon="6.65888">
        <ele>415.40719087999</ele>
        <time>2014-12-07T09:44:23Z</time>
      </trkpt>
      <trkpt lat="47.49387" lon="6.65883">
        <ele>415.42435232</ele>
        <time>2014-12-07T09:44:24Z</time>
      </trkpt>
      <trkpt lat="47.49387" lon="6.65879">
        <ele>415.44506528</ele>
        <time>2014-12-07T09:44:25Z</time>
      </trkpt>
      <trkpt lat="47.49387" lon="6.65874">
        <ele>415.46577824</ele>
        <time>2014-12-07T09:44:26Z</time>
      </trkpt>
      <trkpt lat="47.49387" lon="6.65869">
        <ele>415.4882048</ele>
        <time>2014-12-07T09:44:27Z</time>
      </trkpt>
      <trkpt lat="47.49387" lon="6.65864">
        <ele>415.51177903999</ele>
        <time>2014-12-07T09:44:28Z</time>
      </trkpt>
      <trkpt lat="47.49387" lon="6.65859">
        <ele>415.53363967999</ele>
        <time>2014-12-07T09:44:29Z</time>
      </trkpt>
      <trkpt lat="47.49387" lon="6.65854">
        <ele>415.5548672</ele>
        <time>2014-12-07T09:44:30Z</time>
      </trkpt>
      <trkpt lat="47.49387" lon="6.65848">
        <ele>415.57624736</ele>
        <time>2014-12-07T09:44:31Z</time>
      </trkpt>
      <trkpt lat="47.49387" lon="6.65843">
        <ele>415.59954944</ele>
        <time>2014-12-07T09:44:32Z</time>
      </trkpt>
      <trkpt lat="47.49387" lon="6.65837">
        <ele>415.62328304</ele>
        <time>2014-12-07T09:44:33Z</time>
      </trkpt>
      <trkpt lat="47.49387" lon="6.65832">
        <ele>415.5988</ele>
        <time>2014-12-07T09:44:34Z</time>
      </trkpt>
      <trkpt lat="47.49387" lon="6.65825">
        <ele>415.4572</ele>
        <time>2014-12-07T09:44:35Z</time>
      </trkpt>
      <trkpt lat="47.49388" lon="6.65819">
        <ele>415.3132</ele>
        <time>2014-12-07T09:44:36Z</time>
      </trkpt>
      <trkpt lat="47.49389" lon="6.65813">
        <ele>415.1728</ele>
        <time>2014-12-07T09:44:37Z</time>
      </trkpt>
      <trkpt lat="47.49389" lon="6.65807">
        <ele>415.036</ele>
        <time>2014-12-07T09:44:38Z</time>
      </trkpt>
      <trkpt lat="47.4939" lon="6.65801">
        <ele>414.9004</ele>
        <time>2014-12-07T09:44:39Z</time>
      </trkpt>
      <trkpt lat="47.49391" lon="6.65795">
        <ele>414.766</ele>
        <time>2014-12-07T09:44:40Z</time>
      </trkpt>
      <trkpt lat="47.49393" lon="6.65788">
        <ele>414.6328</ele>
        <time>2014-12-07T09:44:41Z</time>
      </trkpt>
      <trkpt lat="47.49394" lon="6.65782">
        <ele>414.502</ele>
        <time>2014-12-07T09:44:42Z</time>
      </trkpt>
      <trkpt lat="47.49396" lon="6.65776">
        <ele>414.3676</ele>
        <time>2014-12-07T09:44:43Z</time>
      </trkpt>
      <trkpt lat="47.49397" lon="6.6577">
        <ele>414.2356</ele>
        <time>2014-12-07T09:44:44Z</time>
      </trkpt>
      <trkpt lat="47.49398" lon="6.65764">
        <ele>414.106</ele>
        <time>2014-12-07T09:44:45Z</time>
      </trkpt>
      <trkpt lat="47.494" lon="6.65757">
        <ele>413.974</ele>
        <time>2014-12-07T09:44:46Z</time>
      </trkpt>
      <trkpt lat="47.49401" lon="6.65751">
        <ele>413.8456</ele>
        <time>2014-12-07T09:44:47Z</time>
      </trkpt>
      <trkpt lat="47.49402" lon="6.65745">
        <ele>413.78191648</ele>
        <time>2014-12-07T09:44:48Z</time>
      </trkpt>
      <trkpt lat="47.49404" lon="6.6574">
        <ele>413.7369184</ele>
        <time>2014-12-07T09:44:49Z</time>
      </trkpt>
      <trkpt lat="47.49405" lon="6.65734">
        <ele>413.68689664</ele>
        <time>2014-12-07T09:44:50Z</time>
      </trkpt>
      <trkpt lat="47.49406" lon="6.65728">
        <ele>413.63409664</ele>
        <time>2014-12-07T09:44:51Z</time>
      </trkpt>
      <trkpt lat="47.49407" lon="6.65721">
        <ele>413.5745632</ele>
        <time>2014-12-07T09:44:52Z</time>
      </trkpt>
      <trkpt lat="47.49408" lon="6.65715">
        <ele>413.514064</ele>
        <time>2014-12-07T09:44:53Z</time>
      </trkpt>
      <trkpt lat="47.49409" lon="6.65708">
        <ele>413.4517216</ele>
        <time>2014-12-07T09:44:54Z</time>
      </trkpt>
      <trkpt lat="47.4941" lon="6.65702">
        <ele>413.38914304</ele>
        <time>2014-12-07T09:44:55Z</time>
      </trkpt>
      <trkpt lat="47.49411" lon="6.65696">
        <ele>413.32429072</ele>
        <time>2014-12-07T09:44:56Z</time>
      </trkpt>
      <trkpt lat="47.49412" lon="6.65689">
        <ele>413.25817792</ele>
        <time>2014-12-07T09:44:57Z</time>
      </trkpt>
      <trkpt lat="47.49413" lon="6.65683">
        <ele>413.19177568</ele>
        <time>2014-12-07T09:44:58Z</time>
      </trkpt>
      <trkpt lat="47.49415" lon="6.65676">
        <ele>413.11404352</ele>
        <time>2014-12-07T09:44:59Z</time>
      </trkpt>
      <trkpt lat="47.49417" lon="6.6566">
        <ele>412.92436943999</ele>
        <time>2014-12-07T09:45:02Z</time>
      </trkpt>
      <trkpt lat="47.49417" lon="6.65652">
        <ele>412.84489344</ele>
        <time>2014-12-07T09:45:03Z</time>
      </trkpt>
      <trkpt lat="47.49418" lon="6.65646">
        <ele>412.76798208001</ele>
        <time>2014-12-07T09:45:04Z</time>
      </trkpt>
      <trkpt lat="47.4942" lon="6.65639">
        <ele>412.72843439999</ele>
        <time>2014-12-07T09:45:05Z</time>
      </trkpt>
      <trkpt lat="47.4942" lon="6.65633">
        <ele>412.66624704001</ele>
        <time>2014-12-07T09:45:05Z</time>
      </trkpt>
      <trkpt lat="47.49422" lon="6.65626">
        <ele>412.6138752</ele>
        <time>2014-12-07T09:45:07Z</time>
      </trkpt>
      <trkpt lat="47.49423" lon="6.6562">
        <ele>412.5481464</ele>
        <time>2014-12-07T09:45:08Z</time>
      </trkpt>
      <trkpt lat="47.49425" lon="6.65614">
        <ele>412.49461248</ele>
        <time>2014-12-07T09:45:09Z</time>
      </trkpt>
      <trkpt lat="47.49426" lon="6.65608">
        <ele>412.4424864</ele>
        <time>2014-12-07T09:45:10Z</time>
      </trkpt>
      <trkpt lat="47.49427" lon="6.65602">
        <ele>412.37674752</ele>
        <time>2014-12-07T09:45:11Z</time>
      </trkpt>
      <trkpt lat="47.49428" lon="6.65597">
        <ele>412.31542944</ele>
        <time>2014-12-07T09:45:12Z</time>
      </trkpt>
      <trkpt lat="47.49429" lon="6.65591">
        <ele>412.24549632</ele>
        <time>2014-12-07T09:45:13Z</time>
      </trkpt>
      <trkpt lat="47.4943" lon="6.65584">
        <ele>412.16946096</ele>
        <time>2014-12-07T09:45:14Z</time>
      </trkpt>
      <trkpt lat="47.49431" lon="6.65578">
        <ele>412.038</ele>
        <time>2014-12-07T09:45:15Z</time>
      </trkpt>
      <trkpt lat="47.49432" lon="6.65573">
        <ele>411.924</ele>
        <time>2014-12-07T09:45:16Z</time>
      </trkpt>
      <trkpt lat="47.49433" lon="6.65567">
        <ele>411.7944</ele>
        <time>2014-12-07T09:45:17Z</time>
      </trkpt>
      <trkpt lat="47.49433" lon="6.65562">
        <ele>411.6792</ele>
        <time>2014-12-07T09:45:18Z</time>
      </trkpt>
      <trkpt lat="47.49434" lon="6.65556">
        <ele>411.5556</ele>
        <time>2014-12-07T09:45:19Z</time>
      </trkpt>
      <trkpt lat="47.49435" lon="6.6555">
        <ele>411.4284</ele>
        <time>2014-12-07T09:45:20Z</time>
      </trkpt>
      <trkpt lat="47.49436" lon="6.65545">
        <ele>411.3024</ele>
        <time>2014-12-07T09:45:21Z</time>
      </trkpt>
      <trkpt lat="47.49437" lon="6.6554">
        <ele>411.1956</ele>
        <time>2014-12-07T09:45:22Z</time>
      </trkpt>
      <trkpt lat="47.49439" lon="6.65535">
        <ele>411.09</ele>
        <time>2014-12-07T09:45:23Z</time>
      </trkpt>
      <trkpt lat="47.4944" lon="6.6553">
        <ele>410.9856</ele>
        <time>2014-12-07T09:45:24Z</time>
      </trkpt>
      <trkpt lat="47.49441" lon="6.65524">
        <ele>410.8692</ele>
        <time>2014-12-07T09:45:25Z</time>
      </trkpt>
      <trkpt lat="47.49442" lon="6.65518">
        <ele>410.7288</ele>
        <time>2014-12-07T09:45:26Z</time>
      </trkpt>
      <trkpt lat="47.49443" lon="6.65512">
        <ele>410.5884</ele>
        <time>2014-12-07T09:45:27Z</time>
      </trkpt>
      <trkpt lat="47.49443" lon="6.65505">
        <ele>410.4456</ele>
        <time>2014-12-07T09:45:28Z</time>
      </trkpt>
      <trkpt lat="47.49444" lon="6.65499">
        <ele>410.3091504</ele>
        <time>2014-12-07T09:45:29Z</time>
      </trkpt>
      <trkpt lat="47.49445" lon="6.65493">
        <ele>410.19726576</ele>
        <time>2014-12-07T09:45:30Z</time>
      </trkpt>
      <trkpt lat="47.49445" lon="6.65486">
        <ele>410.07467136</ele>
        <time>2014-12-07T09:45:31Z</time>
      </trkpt>
      <trkpt lat="47.49445" lon="6.65477">
        <ele>409.8864336</ele>
        <time>2014-12-07T09:45:32Z</time>
      </trkpt>
      <trkpt lat="47.49445" lon="6.6547">
        <ele>409.75362048</ele>
        <time>2014-12-07T09:45:33Z</time>
      </trkpt>
      <trkpt lat="47.49445" lon="6.65464">
        <ele>409.6263168</ele>
        <time>2014-12-07T09:45:34Z</time>
      </trkpt>
      <trkpt lat="47.49445" lon="6.65458">
        <ele>409.49395296</ele>
        <time>2014-12-07T09:45:35Z</time>
      </trkpt>
      <trkpt lat="47.49444" lon="6.65451">
        <ele>409.35458495999</ele>
        <time>2014-12-07T09:45:36Z</time>
      </trkpt>
      <trkpt lat="47.49444" lon="6.65445">
        <ele>409.2124488</ele>
        <time>2014-12-07T09:45:37Z</time>
      </trkpt>
      <trkpt lat="47.49443" lon="6.65436">
        <ele>409.03520448</ele>
        <time>2014-12-07T09:45:38Z</time>
      </trkpt>
      <trkpt lat="47.49443" lon="6.6543">
        <ele>408.90089136</ele>
        <time>2014-12-07T09:45:39Z</time>
      </trkpt>
      <trkpt lat="47.49442" lon="6.65424">
        <ele>408.7516752</ele>
        <time>2014-12-07T09:45:40Z</time>
      </trkpt>
      <trkpt lat="47.49441" lon="6.65416">
        <ele>408.57759999999</ele>
        <time>2014-12-07T09:45:41Z</time>
      </trkpt>
      <trkpt lat="47.4944" lon="6.65409">
        <ele>408.38800000001</ele>
        <time>2014-12-07T09:45:42Z</time>
      </trkpt>
      <trkpt lat="47.4944" lon="6.65401">
        <ele>408.1792</ele>
        <time>2014-12-07T09:45:43Z</time>
      </trkpt>
      <trkpt lat="47.49439" lon="6.65394">
        <ele>407.98480000001</ele>
        <time>2014-12-07T09:45:44Z</time>
      </trkpt>
      <trkpt lat="47.49438" lon="6.65387">
        <ele>407.79519999999</ele>
        <time>2014-12-07T09:45:45Z</time>
      </trkpt>
      <trkpt lat="47.49438" lon="6.65379">
        <ele>407.6152</ele>
        <time>2014-12-07T09:45:46Z</time>
      </trkpt>
      <trkpt lat="47.49438" lon="6.65372">
        <ele>407.4376</ele>
        <time>2014-12-07T09:45:47Z</time>
      </trkpt>
      <trkpt lat="47.49438" lon="6.65364">
        <ele>407.2576</ele>
        <time>2014-12-07T09:45:48Z</time>
      </trkpt>
      <trkpt lat="47.49438" lon="6.65357">
        <ele>407.08719999999</ele>
        <time>2014-12-07T09:45:49Z</time>
      </trkpt>
      <trkpt lat="47.49439" lon="6.65349">
        <ele>406.9072</ele>
        <time>2014-12-07T09:45:50Z</time>
      </trkpt>
      <trkpt lat="47.49439" lon="6.65341">
        <ele>406.71760000001</ele>
        <time>2014-12-07T09:45:51Z</time>
      </trkpt>
      <trkpt lat="47.49441" lon="6.65332">
        <ele>406.5128</ele>
        <time>2014-12-07T09:45:52Z</time>
      </trkpt>
      <trkpt lat="47.49442" lon="6.65325">
        <ele>406.18640000001</ele>
        <time>2014-12-07T09:45:53Z</time>
      </trkpt>
      <trkpt lat="47.49444" lon="6.65317">
        <ele>405.86239999999</ele>
        <time>2014-12-07T09:45:54Z</time>
      </trkpt>
      <trkpt lat="47.49446" lon="6.65309">
        <ele>405.53599999999</ele>
        <time>2014-12-07T09:45:55Z</time>
      </trkpt>
      <trkpt lat="47.49448" lon="6.65302">
        <ele>405.236</ele>
        <time>2014-12-07T09:45:56Z</time>
      </trkpt>
      <trkpt lat="47.49451" lon="6.65295">
        <ele>404.99360000001</ele>
        <time>2014-12-07T09:45:57Z</time>
      </trkpt>
      <trkpt lat="47.49454" lon="6.6529">
        <ele>404.8112</ele>
        <time>2014-12-07T09:45:58Z</time>
      </trkpt>
      <trkpt lat="47.49456" lon="6.65284">
        <ele>404.5712</ele>
        <time>2014-12-07T09:45:59Z</time>
      </trkpt>
      <trkpt lat="47.49462" lon="6.65271">
        <ele>404.0936</ele>
        <time>2014-12-07T09:46:02Z</time>
      </trkpt>
      <trkpt lat="47.49465" lon="6.65266">
        <ele>403.91840000001</ele>
        <time>2014-12-07T09:46:03Z</time>
      </trkpt>
      <trkpt lat="47.49467" lon="6.65261">
        <ele>403.7096</ele>
        <time>2014-12-07T09:46:04Z</time>
      </trkpt>
      <trkpt lat="47.49469" lon="6.65256">
        <ele>403.544</ele>
        <time>2014-12-07T09:46:05Z</time>
      </trkpt>
      <trkpt lat="47.49471" lon="6.65251">
        <ele>403.34960000001</ele>
        <time>2014-12-07T09:46:06Z</time>
      </trkpt>
      <trkpt lat="47.49474" lon="6.65246">
        <ele>403.204736</ele>
        <time>2014-12-07T09:46:07Z</time>
      </trkpt>
      <trkpt lat="47.49476" lon="6.65241">
        <ele>403.05482624001</ele>
        <time>2014-12-07T09:46:08Z</time>
      </trkpt>
      <trkpt lat="47.49478" lon="6.65236">
        <ele>402.92368544</ele>
        <time>2014-12-07T09:46:09Z</time>
      </trkpt>
      <trkpt lat="47.4948" lon="6.65232">
        <ele>402.79538720001</ele>
        <time>2014-12-07T09:46:10Z</time>
      </trkpt>
      <trkpt lat="47.49482" lon="6.65227">
        <ele>402.67266559999</ele>
        <time>2014-12-07T09:46:11Z</time>
      </trkpt>
      <trkpt lat="47.49484" lon="6.65222">
        <ele>402.55394912</ele>
        <time>2014-12-07T09:46:12Z</time>
      </trkpt>
      <trkpt lat="47.49486" lon="6.65218">
        <ele>402.431348</ele>
        <time>2014-12-07T09:46:13Z</time>
      </trkpt>
      <trkpt lat="47.49488" lon="6.65213">
        <ele>402.3189968</ele>
        <time>2014-12-07T09:46:14Z</time>
      </trkpt>
      <trkpt lat="47.4949" lon="6.65208">
        <ele>402.19275104</ele>
        <time>2014-12-07T09:46:15Z</time>
      </trkpt>
      <trkpt lat="47.49492" lon="6.65203">
        <ele>402.06071168001</ele>
        <time>2014-12-07T09:46:16Z</time>
      </trkpt>
      <trkpt lat="47.49493" lon="6.65198">
        <ele>401.92072688001</ele>
        <time>2014-12-07T09:46:17Z</time>
      </trkpt>
      <trkpt lat="47.49496" lon="6.65191">
        <ele>401.7569888</ele>
        <time>2014-12-07T09:46:18Z</time>
      </trkpt>
      <trkpt lat="47.49498" lon="6.65185">
        <ele>401.62111616001</ele>
        <time>2014-12-07T09:46:19Z</time>
      </trkpt>
      <trkpt lat="47.49501" lon="6.6518">
        <ele>401.52320000001</ele>
        <time>2014-12-07T09:46:20Z</time>
      </trkpt>
      <trkpt lat="47.49504" lon="6.65174">
        <ele>401.4044</ele>
        <time>2014-12-07T09:46:21Z</time>
      </trkpt>
      <trkpt lat="47.49506" lon="6.65169">
        <ele>401.30720000001</ele>
        <time>2014-12-07T09:46:22Z</time>
      </trkpt>
      <trkpt lat="47.49509" lon="6.65164">
        <ele>401.2788</ele>
        <time>2014-12-07T09:46:23Z</time>
      </trkpt>
      <trkpt lat="47.49511" lon="6.65159">
        <ele>401.30279999999</ele>
        <time>2014-12-07T09:46:24Z</time>
      </trkpt>
      <trkpt lat="47.49513" lon="6.65154">
        <ele>401.31120000001</ele>
        <time>2014-12-07T09:46:25Z</time>
      </trkpt>
      <trkpt lat="47.49515" lon="6.6515">
        <ele>401.32440000001</ele>
        <time>2014-12-07T09:46:26Z</time>
      </trkpt>
      <trkpt lat="47.49517" lon="6.65146">
        <ele>401.3448</ele>
        <time>2014-12-07T09:46:27Z</time>
      </trkpt>
      <trkpt lat="47.49518" lon="6.65143">
        <ele>401.3664</ele>
        <time>2014-12-07T09:46:28Z</time>
      </trkpt>
      <trkpt lat="47.4952" lon="6.65139">
        <ele>401.38919999999</ele>
        <time>2014-12-07T09:46:29Z</time>
      </trkpt>
      <trkpt lat="47.49522" lon="6.65136">
        <ele>401.40480000001</ele>
        <time>2014-12-07T09:46:30Z</time>
      </trkpt>
      <trkpt lat="47.49523" lon="6.65133">
        <ele>401.41559999999</ele>
        <time>2014-12-07T09:46:31Z</time>
      </trkpt>
      <trkpt lat="47.49524" lon="6.6513">
        <ele>401.42159999999</ele>
        <time>2014-12-07T09:46:32Z</time>
      </trkpt>
      <trkpt lat="47.49526" lon="6.65125">
        <ele>401.43599999999</ele>
        <time>2014-12-07T09:46:34Z</time>
      </trkpt>
      <trkpt lat="47.49527" lon="6.65123">
        <ele>401.4336</ele>
        <time>2014-12-07T09:46:35Z</time>
      </trkpt>
      <trkpt lat="47.49529" lon="6.65118">
        <ele>401.44200000001</ele>
        <time>2014-12-07T09:46:37Z</time>
      </trkpt>
      <trkpt lat="47.4953" lon="6.65115">
        <ele>401.45159999999</ele>
        <time>2014-12-07T09:46:38Z</time>
      </trkpt>
      <trkpt lat="47.49531" lon="6.65112">
        <ele>401.46480000001</ele>
        <time>2014-12-07T09:46:39Z</time>
      </trkpt>
      <trkpt lat="47.49533" lon="6.65108">
        <ele>401.47440000001</ele>
        <time>2014-12-07T09:46:40Z</time>
      </trkpt>
      <trkpt lat="47.49534" lon="6.65105">
        <ele>401.4864</ele>
        <time>2014-12-07T09:46:41Z</time>
      </trkpt>
      <trkpt lat="47.49536" lon="6.65101">
        <ele>401.50079999999</ele>
        <time>2014-12-07T09:46:42Z</time>
      </trkpt>
      <trkpt lat="47.49538" lon="6.65098">
        <ele>401.52720000001</ele>
        <time>2014-12-07T09:46:43Z</time>
      </trkpt>
      <trkpt lat="47.49539" lon="6.65095">
        <ele>401.55479999999</ele>
        <time>2014-12-07T09:46:44Z</time>
      </trkpt>
      <trkpt lat="47.49541" lon="6.65091">
        <ele>401.58239999999</ele>
        <time>2014-12-07T09:46:45Z</time>
      </trkpt>
      <trkpt lat="47.49543" lon="6.65087">
        <ele>401.60400000001</ele>
        <time>2014-12-07T09:46:46Z</time>
      </trkpt>
      <trkpt lat="47.49546" lon="6.65082">
        <ele>401.6244</ele>
        <time>2014-12-07T09:46:47Z</time>
      </trkpt>
      <trkpt lat="47.49548" lon="6.65077">
        <ele>401.6412</ele>
        <time>2014-12-07T09:46:48Z</time>
      </trkpt>
      <trkpt lat="47.4955" lon="6.65071">
        <ele>401.6568</ele>
        <time>2014-12-07T09:46:49Z</time>
      </trkpt>
      <trkpt lat="47.49552" lon="6.65066">
        <ele>401.6688</ele>
        <time>2014-12-07T09:46:50Z</time>
      </trkpt>
      <trkpt lat="47.49555" lon="6.65058">
        <ele>401.65920000001</ele>
        <time>2014-12-07T09:46:51Z</time>
      </trkpt>
      <trkpt lat="47.49557" lon="6.65051">
        <ele>401.65079999999</ele>
        <time>2014-12-07T09:46:52Z</time>
      </trkpt>
      <trkpt lat="47.49558" lon="6.65045">
        <ele>401.6172</ele>
        <time>2014-12-07T09:46:53Z</time>
      </trkpt>
      <trkpt lat="47.49558" lon="6.6504">
        <ele>401.5584</ele>
        <time>2014-12-07T09:46:54Z</time>
      </trkpt>
      <trkpt lat="47.49559" lon="6.65034">
        <ele>401.5308</ele>
        <time>2014-12-07T09:46:55Z</time>
      </trkpt>
      <trkpt lat="47.49561" lon="6.65028">
        <ele>401.52120000001</ele>
        <time>2014-12-07T09:46:56Z</time>
      </trkpt>
      <trkpt lat="47.49562" lon="6.65023">
        <ele>401.5104</ele>
        <time>2014-12-07T09:46:57Z</time>
      </trkpt>
      <trkpt lat="47.49564" lon="6.65018">
        <ele>401.51159999999</ele>
        <time>2014-12-07T09:46:58Z</time>
      </trkpt>
      <trkpt lat="47.49566" lon="6.65012">
        <ele>401.5152</ele>
        <time>2014-12-07T09:46:59Z</time>
      </trkpt>
      <trkpt lat="47.4957" lon="6.64997">
        <ele>401.49990624001</ele>
        <time>2014-12-07T09:47:02Z</time>
      </trkpt>
      <trkpt lat="47.49572" lon="6.64992">
        <ele>401.51846927999</ele>
        <time>2014-12-07T09:47:03Z</time>
      </trkpt>
      <trkpt lat="47.49574" lon="6.64987">
        <ele>401.53550304</ele>
        <time>2014-12-07T09:47:04Z</time>
      </trkpt>
      <trkpt lat="47.49576" lon="6.64982">
        <ele>401.54563632001</ele>
        <time>2014-12-07T09:47:05Z</time>
      </trkpt>
      <trkpt lat="47.49578" lon="6.64978">
        <ele>401.54224800001</ele>
        <time>2014-12-07T09:47:06Z</time>
      </trkpt>
      <trkpt lat="47.49579" lon="6.64972">
        <ele>401.53528704</ele>
        <time>2014-12-07T09:47:07Z</time>
      </trkpt>
      <trkpt lat="47.49581" lon="6.64967">
        <ele>401.54007072001</ele>
        <time>2014-12-07T09:47:08Z</time>
      </trkpt>
      <trkpt lat="47.49583" lon="6.64962">
        <ele>401.53633536</ele>
        <time>2014-12-07T09:47:09Z</time>
      </trkpt>
      <trkpt lat="47.49585" lon="6.64956">
        <ele>401.4756</ele>
        <time>2014-12-07T09:47:10Z</time>
      </trkpt>
      <trkpt lat="47.49587" lon="6.64951">
        <ele>401.4084</ele>
        <time>2014-12-07T09:47:11Z</time>
      </trkpt>
      <trkpt lat="47.49589" lon="6.64945">
        <ele>401.34</ele>
        <time>2014-12-07T09:47:12Z</time>
      </trkpt>
      <trkpt lat="47.49591" lon="6.64939">
        <ele>401.2728</ele>
        <time>2014-12-07T09:47:13Z</time>
      </trkpt>
      <trkpt lat="47.49593" lon="6.64934">
        <ele>401.2056</ele>
        <time>2014-12-07T09:47:14Z</time>
      </trkpt>
      <trkpt lat="47.49596" lon="6.64928">
        <ele>401.13</ele>
        <time>2014-12-07T09:47:15Z</time>
      </trkpt>
      <trkpt lat="47.49597" lon="6.64922">
        <ele>401.0664</ele>
        <time>2014-12-07T09:47:16Z</time>
      </trkpt>
      <trkpt lat="47.49599" lon="6.64916">
        <ele>401</ele>
        <time>2014-12-07T09:47:17Z</time>
      </trkpt>
      <trkpt lat="47.49601" lon="6.6491">
        <ele>401</ele>
        <time>2014-12-07T09:47:18Z</time>
      </trkpt>
      <trkpt lat="47.49603" lon="6.64904">
        <ele>401</ele>
        <time>2014-12-07T09:47:19Z</time>
      </trkpt>
      <trkpt lat="47.49604" lon="6.64898">
        <ele>401</ele>
        <time>2014-12-07T09:47:20Z</time>
      </trkpt>
      <trkpt lat="47.49606" lon="6.64892">
        <ele>401</ele>
        <time>2014-12-07T09:47:21Z</time>
      </trkpt>
      <trkpt lat="47.49608" lon="6.64884">
        <ele>401</ele>
        <time>2014-12-07T09:47:22Z</time>
      </trkpt>
      <trkpt lat="47.4961" lon="6.64877">
        <ele>401</ele>
        <time>2014-12-07T09:47:23Z</time>
      </trkpt>
      <trkpt lat="47.49612" lon="6.64869">
        <ele>401</ele>
        <time>2014-12-07T09:47:24Z</time>
      </trkpt>
      <trkpt lat="47.49614" lon="6.64861">
        <ele>401</ele>
        <time>2014-12-07T09:47:25Z</time>
      </trkpt>
      <trkpt lat="47.49616" lon="6.64853">
        <ele>401</ele>
        <time>2014-12-07T09:47:26Z</time>
      </trkpt>
      <trkpt lat="47.49618" lon="6.64845">
        <ele>401</ele>
        <time>2014-12-07T09:47:27Z</time>
      </trkpt>
      <trkpt lat="47.49621" lon="6.64836">
        <ele>401</ele>
        <time>2014-12-07T09:47:28Z</time>
      </trkpt>
      <trkpt lat="47.49624" lon="6.64829">
        <ele>400.8888</ele>
        <time>2014-12-07T09:47:29Z</time>
      </trkpt>
      <trkpt lat="47.49626" lon="6.64821">
        <ele>400.7016</ele>
        <time>2014-12-07T09:47:30Z</time>
      </trkpt>
      <trkpt lat="47.49629" lon="6.64813">
        <ele>400.5096</ele>
        <time>2014-12-07T09:47:31Z</time>
      </trkpt>
      <trkpt lat="47.49631" lon="6.64805">
        <ele>400.308</ele>
        <time>2014-12-07T09:47:32Z</time>
      </trkpt>
      <trkpt lat="47.49634" lon="6.64796">
        <ele>400.092</ele>
        <time>2014-12-07T09:47:33Z</time>
      </trkpt>
      <trkpt lat="47.49637" lon="6.64788">
        <ele>399.9144</ele>
        <time>2014-12-07T09:47:34Z</time>
      </trkpt>
      <trkpt lat="47.4964" lon="6.64781">
        <ele>399.7344</ele>
        <time>2014-12-07T09:47:35Z</time>
      </trkpt>
      <trkpt lat="47.49643" lon="6.64772">
        <ele>399.528</ele>
        <time>2014-12-07T09:47:36Z</time>
      </trkpt>
      <trkpt lat="47.49645" lon="6.64764">
        <ele>399.3408</ele>
        <time>2014-12-07T09:47:37Z</time>
      </trkpt>
      <trkpt lat="47.49648" lon="6.64756">
        <ele>399.1392</ele>
        <time>2014-12-07T09:47:38Z</time>
      </trkpt>
      <trkpt lat="47.49651" lon="6.64747">
        <ele>398.9688</ele>
        <time>2014-12-07T09:47:39Z</time>
      </trkpt>
      <trkpt lat="47.49654" lon="6.64739">
        <ele>398.8644</ele>
        <time>2014-12-07T09:47:40Z</time>
      </trkpt>
      <trkpt lat="47.49657" lon="6.64731">
        <ele>398.7696</ele>
        <time>2014-12-07T09:47:41Z</time>
      </trkpt>
      <trkpt lat="47.4966" lon="6.64722">
        <ele>398.664</ele>
        <time>2014-12-07T09:47:42Z</time>
      </trkpt>
      <trkpt lat="47.49663" lon="6.64715">
        <ele>398.5752</ele>
        <time>2014-12-07T09:47:43Z</time>
      </trkpt>
      <trkpt lat="47.49667" lon="6.64706">
        <ele>398.47659072</ele>
        <time>2014-12-07T09:47:44Z</time>
      </trkpt>
      <trkpt lat="47.4967" lon="6.64698">
        <ele>398.35154064</ele>
        <time>2014-12-07T09:47:45Z</time>
      </trkpt>
      <trkpt lat="47.49673" lon="6.6469">
        <ele>398.22484608</ele>
        <time>2014-12-07T09:47:46Z</time>
      </trkpt>
      <trkpt lat="47.49677" lon="6.64682">
        <ele>398.0857536</ele>
        <time>2014-12-07T09:47:47Z</time>
      </trkpt>
      <trkpt lat="47.4968" lon="6.64674">
        <ele>397.9398912</ele>
        <time>2014-12-07T09:47:48Z</time>
      </trkpt>
      <trkpt lat="47.49684" lon="6.64666">
        <ele>397.7935312</ele>
        <time>2014-12-07T09:47:49Z</time>
      </trkpt>
      <trkpt lat="47.49687" lon="6.64658">
        <ele>397.68134656</ele>
        <time>2014-12-07T09:47:50Z</time>
      </trkpt>
      <trkpt lat="47.4969" lon="6.64651">
        <ele>397.5822544</ele>
        <time>2014-12-07T09:47:51Z</time>
      </trkpt>
      <trkpt lat="47.49693" lon="6.64643">
        <ele>397.48816768</ele>
        <time>2014-12-07T09:47:52Z</time>
      </trkpt>
      <trkpt lat="47.49696" lon="6.64635">
        <ele>397.40395264</ele>
        <time>2014-12-07T09:47:53Z</time>
      </trkpt>
      <trkpt lat="47.49699" lon="6.64627">
        <ele>397.3253152</ele>
        <time>2014-12-07T09:47:54Z</time>
      </trkpt>
      <trkpt lat="47.49702" lon="6.6462">
        <ele>397.25171968</ele>
        <time>2014-12-07T09:47:55Z</time>
      </trkpt>
      <trkpt lat="47.49705" lon="6.64612">
        <ele>397.18569376</ele>
        <time>2014-12-07T09:47:56Z</time>
      </trkpt>
      <trkpt lat="47.49708" lon="6.64604">
        <ele>397.12801792</ele>
        <time>2014-12-07T09:47:57Z</time>
      </trkpt>
      <trkpt lat="47.49711" lon="6.64596">
        <ele>397.0743232</ele>
        <time>2014-12-07T09:47:58Z</time>
      </trkpt>
      <trkpt lat="47.49713" lon="6.64589">
        <ele>397.0280608</ele>
        <time>2014-12-07T09:47:59Z</time>
      </trkpt>
      <trkpt lat="47.49716" lon="6.64581">
        <ele>396.98274864</ele>
        <time>2014-12-07T09:48:00Z</time>
      </trkpt>
      <trkpt lat="47.49736" lon="6.64526">
        <ele>396.42610992</ele>
        <time>2014-12-07T09:48:08Z</time>
      </trkpt>
      <trkpt lat="47.49739" lon="6.64519">
        <ele>396.32760192</ele>
        <time>2014-12-07T09:48:09Z</time>
      </trkpt>
      <trkpt lat="47.49741" lon="6.64513">
        <ele>396.24388896</ele>
        <time>2014-12-07T09:48:10Z</time>
      </trkpt>
      <trkpt lat="47.49744" lon="6.64506">
        <ele>396.13658736</ele>
        <time>2014-12-07T09:48:11Z</time>
      </trkpt>
      <trkpt lat="47.49747" lon="6.64499">
        <ele>395.9783232</ele>
        <time>2014-12-07T09:48:12Z</time>
      </trkpt>
      <trkpt lat="47.4975" lon="6.64492">
        <ele>395.71702752</ele>
        <time>2014-12-07T09:48:13Z</time>
      </trkpt>
      <trkpt lat="47.49754" lon="6.64486">
        <ele>395.40976128001</ele>
        <time>2014-12-07T09:48:14Z</time>
      </trkpt>
      <trkpt lat="47.49756" lon="6.64479">
        <ele>395.10827328</ele>
        <time>2014-12-07T09:48:15Z</time>
      </trkpt>
      <trkpt lat="47.49758" lon="6.64471">
        <ele>394.79295743999</ele>
        <time>2014-12-07T09:48:16Z</time>
      </trkpt>
      <trkpt lat="47.49761" lon="6.64464">
        <ele>394.50324096</ele>
        <time>2014-12-07T09:48:17Z</time>
      </trkpt>
      <trkpt lat="47.49765" lon="6.64459">
        <ele>394.2480432</ele>
        <time>2014-12-07T09:48:18Z</time>
      </trkpt>
      <trkpt lat="47.49768" lon="6.64453">
        <ele>393.99944016</ele>
        <time>2014-12-07T09:48:19Z</time>
      </trkpt>
      <trkpt lat="47.49771" lon="6.64446">
        <ele>393.70222272</ele>
        <time>2014-12-07T09:48:20Z</time>
      </trkpt>
      <trkpt lat="47.49774" lon="6.64439">
        <ele>393.42948096</ele>
        <time>2014-12-07T09:48:21Z</time>
      </trkpt>
      <trkpt lat="47.49777" lon="6.64433">
        <ele>393.18834432</ele>
        <time>2014-12-07T09:48:22Z</time>
      </trkpt>
      <trkpt lat="47.49781" lon="6.64426">
        <ele>392.9191824</ele>
        <time>2014-12-07T09:48:23Z</time>
      </trkpt>
      <trkpt lat="47.49784" lon="6.6442">
        <ele>392.694432</ele>
        <time>2014-12-07T09:48:24Z</time>
      </trkpt>
      <trkpt lat="47.49788" lon="6.64414">
        <ele>392.50433792</ele>
        <time>2014-12-07T09:48:25Z</time>
      </trkpt>
      <trkpt lat="47.49792" lon="6.6441">
        <ele>392.3800376</ele>
        <time>2014-12-07T09:48:26Z</time>
      </trkpt>
      <trkpt lat="47.49796" lon="6.64405">
        <ele>392.24212256</ele>
        <time>2014-12-07T09:48:27Z</time>
      </trkpt>
      <trkpt lat="47.498" lon="6.644">
        <ele>392.11544432</ele>
        <time>2014-12-07T09:48:28Z</time>
      </trkpt>
      <trkpt lat="47.49805" lon="6.64395">
        <ele>391.98926912</ele>
        <time>2014-12-07T09:48:29Z</time>
      </trkpt>
      <trkpt lat="47.4981" lon="6.64389">
        <ele>391.85978816</ele>
        <time>2014-12-07T09:48:30Z</time>
      </trkpt>
      <trkpt lat="47.49813" lon="6.64382">
        <ele>391.72728656</ele>
        <time>2014-12-07T09:48:31Z</time>
      </trkpt>
      <trkpt lat="47.49815" lon="6.64373">
        <ele>391.574528</ele>
        <time>2014-12-07T09:48:32Z</time>
      </trkpt>
      <trkpt lat="47.49818" lon="6.64364">
        <ele>391.43232416</ele>
        <time>2014-12-07T09:48:33Z</time>
      </trkpt>
      <trkpt lat="47.49819" lon="6.64356">
        <ele>391.3181312</ele>
        <time>2014-12-07T09:48:34Z</time>
      </trkpt>
      <trkpt lat="47.4982" lon="6.64348">
        <ele>391.20907712</ele>
        <time>2014-12-07T09:48:35Z</time>
      </trkpt>
      <trkpt lat="47.49821" lon="6.6434">
        <ele>391.09008416</ele>
        <time>2014-12-07T09:48:36Z</time>
      </trkpt>
      <trkpt lat="47.49822" lon="6.64332">
        <ele>391.0253504</ele>
        <time>2014-12-07T09:48:37Z</time>
      </trkpt>
      <trkpt lat="47.49823" lon="6.64325">
        <ele>391.19647904</ele>
        <time>2014-12-07T09:48:38Z</time>
      </trkpt>
      <trkpt lat="47.49823" lon="6.64317">
        <ele>391.37718272</ele>
        <time>2014-12-07T09:48:39Z</time>
      </trkpt>
      <trkpt lat="47.49823" lon="6.64309">
        <ele>391.55560976</ele>
        <time>2014-12-07T09:48:40Z</time>
      </trkpt>
      <trkpt lat="47.49824" lon="6.64301">
        <ele>391.7347328</ele>
        <time>2014-12-07T09:48:41Z</time>
      </trkpt>
      <trkpt lat="47.49824" lon="6.64292">
        <ele>391.947776</ele>
        <time>2014-12-07T09:48:42Z</time>
      </trkpt>
      <trkpt lat="47.49824" lon="6.64284">
        <ele>392.12592224</ele>
        <time>2014-12-07T09:48:43Z</time>
      </trkpt>
      <trkpt lat="47.49825" lon="6.64276">
        <ele>392.31321008</ele>
        <time>2014-12-07T09:48:44Z</time>
      </trkpt>
      <trkpt lat="47.49826" lon="6.64268">
        <ele>392.49493424</ele>
        <time>2014-12-07T09:48:45Z</time>
      </trkpt>
      <trkpt lat="47.49827" lon="6.64261">
        <ele>392.66390432</ele>
        <time>2014-12-07T09:48:46Z</time>
      </trkpt>
      <trkpt lat="47.49828" lon="6.64254">
        <ele>392.8407488</ele>
        <time>2014-12-07T09:48:47Z</time>
      </trkpt>
      <trkpt lat="47.49829" lon="6.64247">
        <ele>393.2105696</ele>
        <time>2014-12-07T09:48:48Z</time>
      </trkpt>
      <trkpt lat="47.4983" lon="6.64241">
        <ele>393.8335808</ele>
        <time>2014-12-07T09:48:49Z</time>
      </trkpt>
      <trkpt lat="47.49831" lon="6.64234">
        <ele>394.49124608</ele>
        <time>2014-12-07T09:48:50Z</time>
      </trkpt>
      <trkpt lat="47.49832" lon="6.6423">
        <ele>394.90078784</ele>
        <time>2014-12-07T09:48:51Z</time>
      </trkpt>
      <trkpt lat="47.49833" lon="6.64222">
        <ele>395.65584800001</ele>
        <time>2014-12-07T09:48:52Z</time>
      </trkpt>
      <trkpt lat="47.49833" lon="6.64216">
        <ele>396.29188064</ele>
        <time>2014-12-07T09:48:53Z</time>
      </trkpt>
      <trkpt lat="47.49834" lon="6.64208">
        <ele>397.03512832</ele>
        <time>2014-12-07T09:48:54Z</time>
      </trkpt>
      <trkpt lat="47.49835" lon="6.64202">
        <ele>397.6757296</ele>
        <time>2014-12-07T09:48:55Z</time>
      </trkpt>
      <trkpt lat="47.49836" lon="6.64196">
        <ele>398.2160512</ele>
        <time>2014-12-07T09:48:56Z</time>
      </trkpt>
      <trkpt lat="47.49837" lon="6.6419">
        <ele>398.785312</ele>
        <time>2014-12-07T09:48:57Z</time>
      </trkpt>
      <trkpt lat="47.49838" lon="6.64184">
        <ele>399.34732</ele>
        <time>2014-12-07T09:48:58Z</time>
      </trkpt>
      <trkpt lat="47.49838" lon="6.64179">
        <ele>399.8332864</ele>
        <time>2014-12-07T09:48:59Z</time>
      </trkpt>
      <trkpt lat="47.49839" lon="6.64167">
        <ele>400.95909472</ele>
        <time>2014-12-07T09:49:02Z</time>
      </trkpt>
      <trkpt lat="47.4984" lon="6.6416">
        <ele>401.95701696</ele>
        <time>2014-12-07T09:49:03Z</time>
      </trkpt>
      <trkpt lat="47.49839" lon="6.64156">
        <ele>402.65904384001</ele>
        <time>2014-12-07T09:49:04Z</time>
      </trkpt>
      <trkpt lat="47.49839" lon="6.6415">
        <ele>403.51186128</ele>
        <time>2014-12-07T09:49:05Z</time>
      </trkpt>
      <trkpt lat="47.49838" lon="6.64144">
        <ele>404.39008416</ele>
        <time>2014-12-07T09:49:06Z</time>
      </trkpt>
      <trkpt lat="47.49838" lon="6.64139">
        <ele>405.12061775999</ele>
        <time>2014-12-07T09:49:07Z</time>
      </trkpt>
      <trkpt lat="47.49837" lon="6.64134">
        <ele>405.78695232001</ele>
        <time>2014-12-07T09:49:08Z</time>
      </trkpt>
      <trkpt lat="47.49837" lon="6.64131">
        <ele>406.323444</ele>
        <time>2014-12-07T09:49:09Z</time>
      </trkpt>
      <trkpt lat="47.49836" lon="6.64126">
        <ele>406.89446016</ele>
        <time>2014-12-07T09:49:10Z</time>
      </trkpt>
      <trkpt lat="47.49835" lon="6.64119">
        <ele>407.920056</ele>
        <time>2014-12-07T09:49:11Z</time>
      </trkpt>
      <trkpt lat="47.49834" lon="6.64113">
        <ele>408.75143279998</ele>
        <time>2014-12-07T09:49:12Z</time>
      </trkpt>
      <trkpt lat="47.49832" lon="6.64111">
        <ele>408.94137888</ele>
        <time>2014-12-07T09:49:13Z</time>
      </trkpt>
      <trkpt lat="47.49831" lon="6.64107">
        <ele>409.58984064001</ele>
        <time>2014-12-07T09:49:14Z</time>
      </trkpt>
      <trkpt lat="47.4983" lon="6.64104">
        <ele>410.04962639999</ele>
        <time>2014-12-07T09:49:15Z</time>
      </trkpt>
      <trkpt lat="47.49829" lon="6.64098">
        <ele>410.878944</ele>
        <time>2014-12-07T09:49:17Z</time>
      </trkpt>
      <trkpt lat="47.49829" lon="6.64095">
        <ele>411.24255120001</ele>
        <time>2014-12-07T09:49:18Z</time>
      </trkpt>
      <trkpt lat="47.49827" lon="6.6409">
        <ele>411.97047119999</ele>
        <time>2014-12-07T09:49:21Z</time>
      </trkpt>
      <trkpt lat="47.49826" lon="6.64087">
        <ele>412.26759504</ele>
        <time>2014-12-07T09:49:22Z</time>
      </trkpt>
      <trkpt lat="47.49825" lon="6.64082">
        <ele>412.91368</ele>
        <time>2014-12-07T09:49:24Z</time>
      </trkpt>
      <trkpt lat="47.49824" lon="6.64079">
        <ele>413.11608639999</ele>
        <time>2014-12-07T09:49:25Z</time>
      </trkpt>
      <trkpt lat="47.49822" lon="6.64072">
        <ele>413.48494336</ele>
        <time>2014-12-07T09:49:27Z</time>
      </trkpt>
      <trkpt lat="47.49821" lon="6.6407">
        <ele>413.6592592</ele>
        <time>2014-12-07T09:49:28Z</time>
      </trkpt>
      <trkpt lat="47.4982" lon="6.64064">
        <ele>414.01345503999</ele>
        <time>2014-12-07T09:49:30Z</time>
      </trkpt>
      <trkpt lat="47.4982" lon="6.64061">
        <ele>414.17800768</ele>
        <time>2014-12-07T09:49:31Z</time>
      </trkpt>
      <trkpt lat="47.4982" lon="6.64056">
        <ele>414.52304512001</ele>
        <time>2014-12-07T09:49:33Z</time>
      </trkpt>
      <trkpt lat="47.4982" lon="6.64054">
        <ele>414.69359872</ele>
        <time>2014-12-07T09:49:34Z</time>
      </trkpt>
      <trkpt lat="47.49819" lon="6.64047">
        <ele>415.11876352</ele>
        <time>2014-12-07T09:49:36Z</time>
      </trkpt>
      <trkpt lat="47.49819" lon="6.64044">
        <ele>415.34628352001</ele>
        <time>2014-12-07T09:49:37Z</time>
      </trkpt>
      <trkpt lat="47.49819" lon="6.6404">
        <ele>415.61120896001</ele>
        <time>2014-12-07T09:49:38Z</time>
      </trkpt>
      <trkpt lat="47.49819" lon="6.64036">
        <ele>415.88595135999</ele>
        <time>2014-12-07T09:49:39Z</time>
      </trkpt>
      <trkpt lat="47.49819" lon="6.64032">
        <ele>416.14978623999</ele>
        <time>2014-12-07T09:49:40Z</time>
      </trkpt>
      <trkpt lat="47.49819" lon="6.64028">
        <ele>416.41037824</ele>
        <time>2014-12-07T09:49:41Z</time>
      </trkpt>
      <trkpt lat="47.49819" lon="6.64022">
        <ele>416.84228031999</ele>
        <time>2014-12-07T09:49:43Z</time>
      </trkpt>
      <trkpt lat="47.4982" lon="6.6402">
        <ele>417.00784288001</ele>
        <time>2014-12-07T09:49:44Z</time>
      </trkpt>
      <trkpt lat="47.49822" lon="6.64016">
        <ele>417.37866112</ele>
        <time>2014-12-07T09:49:46Z</time>
      </trkpt>
      <trkpt lat="47.49823" lon="6.64013">
        <ele>417.61056255998</ele>
        <time>2014-12-07T09:49:47Z</time>
      </trkpt>
      <trkpt lat="47.49826" lon="6.64008">
        <ele>418.07948224</ele>
        <time>2014-12-07T09:49:49Z</time>
      </trkpt>
      <trkpt lat="47.49827" lon="6.64006">
        <ele>418.25850976001</ele>
        <time>2014-12-07T09:49:50Z</time>
      </trkpt>
      <trkpt lat="47.4983" lon="6.64004">
        <ele>418.57256320002</ele>
        <time>2014-12-07T09:49:52Z</time>
      </trkpt>
      <trkpt lat="47.49831" lon="6.64002">
        <ele>418.72394559998</ele>
        <time>2014-12-07T09:49:53Z</time>
      </trkpt>
      <trkpt lat="47.49834" lon="6.63999">
        <ele>419.13760000003</ele>
        <time>2014-12-07T09:49:55Z</time>
      </trkpt>
      <trkpt lat="47.49836" lon="6.63998">
        <ele>419.3512</ele>
        <time>2014-12-07T09:49:56Z</time>
      </trkpt>
      <trkpt lat="47.49839" lon="6.63995">
        <ele>419.73999999998</ele>
        <time>2014-12-07T09:49:58Z</time>
      </trkpt>
      <trkpt lat="47.49841" lon="6.63994">
        <ele>419.8972</ele>
        <time>2014-12-07T09:49:59Z</time>
      </trkpt>
      <trkpt lat="47.49842" lon="6.63993">
        <ele>420.06039999998</ele>
        <time>2014-12-07T09:50:00Z</time>
      </trkpt>
      <trkpt lat="47.49845" lon="6.63989">
        <ele>420.53200000002</ele>
        <time>2014-12-07T09:50:03Z</time>
      </trkpt>
      <trkpt lat="47.49849" lon="6.63987">
        <ele>420.93880000001</ele>
        <time>2014-12-07T09:50:06Z</time>
      </trkpt>
      <trkpt lat="47.4985" lon="6.63987">
        <ele>421.0588</ele>
        <time>2014-12-07T09:50:07Z</time>
      </trkpt>
      <trkpt lat="47.49854" lon="6.63986">
        <ele>421.42719999999</ele>
        <time>2014-12-07T09:50:10Z</time>
      </trkpt>
      <trkpt lat="47.49855" lon="6.63985">
        <ele>421.56520000001</ele>
        <time>2014-12-07T09:50:11Z</time>
      </trkpt>
      <trkpt lat="47.49858" lon="6.63983">
        <ele>421.88559999999</ele>
        <time>2014-12-07T09:50:13Z</time>
      </trkpt>
      <trkpt lat="47.4986" lon="6.63983">
        <ele>422.05360000001</ele>
        <time>2014-12-07T09:50:14Z</time>
      </trkpt>
      <trkpt lat="47.49863" lon="6.63983">
        <ele>422.3392</ele>
        <time>2014-12-07T09:50:16Z</time>
      </trkpt>
      <trkpt lat="47.49865" lon="6.63983">
        <ele>422.4772</ele>
        <time>2014-12-07T09:50:17Z</time>
      </trkpt>
      <trkpt lat="47.49869" lon="6.63982">
        <ele>422.81800000001</ele>
        <time>2014-12-07T09:50:19Z</time>
      </trkpt>
      <trkpt lat="47.4987" lon="6.63981">
        <ele>422.99920000001</ele>
        <time>2014-12-07T09:50:20Z</time>
      </trkpt>
      <trkpt lat="47.49873" lon="6.63979">
        <ele>423.34719999997</ele>
        <time>2014-12-07T09:50:22Z</time>
      </trkpt>
      <trkpt lat="47.49874" lon="6.63979">
        <ele>423.46839999998</ele>
        <time>2014-12-07T09:50:23Z</time>
      </trkpt>
      <trkpt lat="47.49878" lon="6.63977">
        <ele>423.80920000002</ele>
        <time>2014-12-07T09:50:26Z</time>
      </trkpt>
      <trkpt lat="47.49879" lon="6.63976">
        <ele>423.96520000002</ele>
        <time>2014-12-07T09:50:27Z</time>
      </trkpt>
      <trkpt lat="47.49882" lon="6.63974">
        <ele>424.35040000002</ele>
        <time>2014-12-07T09:50:29Z</time>
      </trkpt>
      <trkpt lat="47.49884" lon="6.63972">
        <ele>424.57000000002</ele>
        <time>2014-12-07T09:50:30Z</time>
      </trkpt>
      <trkpt lat="47.49887" lon="6.63969">
        <ele>424.99239999999</ele>
        <time>2014-12-07T09:50:32Z</time>
      </trkpt>
      <trkpt lat="47.49889" lon="6.63967">
        <ele>425.19880000001</ele>
        <time>2014-12-07T09:50:33Z</time>
      </trkpt>
      <trkpt lat="47.49892" lon="6.63964">
        <ele>425.63680000001</ele>
        <time>2014-12-07T09:50:35Z</time>
      </trkpt>
      <trkpt lat="47.49893" lon="6.63962">
        <ele>425.82879999999</ele>
        <time>2014-12-07T09:50:36Z</time>
      </trkpt>
      <trkpt lat="47.49895" lon="6.63957">
        <ele>426.26799999998</ele>
        <time>2014-12-07T09:50:38Z</time>
      </trkpt>
      <trkpt lat="47.49897" lon="6.63955">
        <ele>426.49599999998</ele>
        <time>2014-12-07T09:50:39Z</time>
      </trkpt>
      <trkpt lat="47.49899" lon="6.63951">
        <ele>426.90640000003</ele>
        <time>2014-12-07T09:50:41Z</time>
      </trkpt>
      <trkpt lat="47.49901" lon="6.63949">
        <ele>427.08999999997</ele>
        <time>2014-12-07T09:50:42Z</time>
      </trkpt>
      <trkpt lat="47.49902" lon="6.63945">
        <ele>427.43919999997</ele>
        <time>2014-12-07T09:50:44Z</time>
      </trkpt>
      <trkpt lat="47.49903" lon="6.63942">
        <ele>427.6384</ele>
        <time>2014-12-07T09:50:45Z</time>
      </trkpt>
      <trkpt lat="47.49906" lon="6.63938">
        <ele>428.06319999998</ele>
        <time>2014-12-07T09:50:47Z</time>
      </trkpt>
      <trkpt lat="47.49907" lon="6.63936">
        <ele>428.26719999998</ele>
        <time>2014-12-07T09:50:48Z</time>
      </trkpt>
      <trkpt lat="47.4991" lon="6.63932">
        <ele>428.68120000001</ele>
        <time>2014-12-07T09:50:50Z</time>
      </trkpt>
      <trkpt lat="47.49911" lon="6.6393">
        <ele>428.88279999999</ele>
        <time>2014-12-07T09:50:51Z</time>
      </trkpt>
      <trkpt lat="47.49913" lon="6.63927">
        <ele>429.23200000002</ele>
        <time>2014-12-07T09:50:53Z</time>
      </trkpt>
      <trkpt lat="47.49914" lon="6.63925">
        <ele>429.38319999999</ele>
        <time>2014-12-07T09:50:54Z</time>
      </trkpt>
      <trkpt lat="47.49917" lon="6.63921">
        <ele>429.83643216</ele>
        <time>2014-12-07T09:50:57Z</time>
      </trkpt>
      <trkpt lat="47.49919" lon="6.63919">
        <ele>429.98968319998</ele>
        <time>2014-12-07T09:50:58Z</time>
      </trkpt>
      <trkpt lat="47.4992" lon="6.63918">
        <ele>430.13389823999</ele>
        <time>2014-12-07T09:50:59Z</time>
      </trkpt>
      <trkpt lat="47.49925" lon="6.63914">
        <ele>430.57314751999</ele>
        <time>2014-12-07T09:51:02Z</time>
      </trkpt>
      <trkpt lat="47.49928" lon="6.63911">
        <ele>430.86883999999</ele>
        <time>2014-12-07T09:51:04Z</time>
      </trkpt>
      <trkpt lat="47.49929" lon="6.6391">
        <ele>431.01981247999</ele>
        <time>2014-12-07T09:51:05Z</time>
      </trkpt>
      <trkpt lat="47.49933" lon="6.63908">
        <ele>431.36280607999</ele>
        <time>2014-12-07T09:51:07Z</time>
      </trkpt>
      <trkpt lat="47.49936" lon="6.63907">
        <ele>431.53758464</ele>
        <time>2014-12-07T09:51:08Z</time>
      </trkpt>
      <trkpt lat="47.49938" lon="6.63906">
        <ele>431.68774495998</ele>
        <time>2014-12-07T09:51:09Z</time>
      </trkpt>
      <trkpt lat="47.4994" lon="6.63906">
        <ele>431.82833791999</ele>
        <time>2014-12-07T09:51:10Z</time>
      </trkpt>
      <trkpt lat="47.49944" lon="6.63904">
        <ele>432.13040528</ele>
        <time>2014-12-07T09:51:12Z</time>
      </trkpt>
      <trkpt lat="47.49946" lon="6.63903">
        <ele>432.28073120001</ele>
        <time>2014-12-07T09:51:13Z</time>
      </trkpt>
      <trkpt lat="47.4995" lon="6.63901">
        <ele>432.60659887999</ele>
        <time>2014-12-07T09:51:15Z</time>
      </trkpt>
      <trkpt lat="47.49952" lon="6.639">
        <ele>432.78730879998</ele>
        <time>2014-12-07T09:51:16Z</time>
      </trkpt>
      <trkpt lat="47.49954" lon="6.63899">
        <ele>432.97373696</ele>
        <time>2014-12-07T09:51:17Z</time>
      </trkpt>
      <trkpt lat="47.49957" lon="6.63898">
        <ele>433.15427839998</ele>
        <time>2014-12-07T09:51:18Z</time>
      </trkpt>
      <trkpt lat="47.49959" lon="6.63897">
        <ele>433.28666480002</ele>
        <time>2014-12-07T09:51:18Z</time>
      </trkpt>
      <trkpt lat="47.49961" lon="6.63896">
        <ele>433.49020735999</ele>
        <time>2014-12-07T09:51:20Z</time>
      </trkpt>
      <trkpt lat="47.49965" lon="6.63895">
        <ele>433.79600432</ele>
        <time>2014-12-07T09:51:22Z</time>
      </trkpt>
      <trkpt lat="47.49967" lon="6.63894">
        <ele>433.96239632001</ele>
        <time>2014-12-07T09:51:23Z</time>
      </trkpt>
      <trkpt lat="47.49969" lon="6.63893">
        <ele>434.11739647999</ele>
        <time>2014-12-07T09:51:24Z</time>
      </trkpt>
      <trkpt lat="47.49972" lon="6.63892">
        <ele>434.30185184001</ele>
        <time>2014-12-07T09:51:25Z</time>
      </trkpt>
      <trkpt lat="47.49974" lon="6.63892">
        <ele>434.46295040001</ele>
        <time>2014-12-07T09:51:26Z</time>
      </trkpt>
      <trkpt lat="47.49976" lon="6.63891">
        <ele>434.62966352001</ele>
        <time>2014-12-07T09:51:27Z</time>
      </trkpt>
      <trkpt lat="47.49979" lon="6.6389">
        <ele>434.78305664</ele>
        <time>2014-12-07T09:51:28Z</time>
      </trkpt>
      <trkpt lat="47.49981" lon="6.6389">
        <ele>434.94717631999</ele>
        <time>2014-12-07T09:51:29Z</time>
      </trkpt>
      <trkpt lat="47.49985" lon="6.63888">
        <ele>435.28914175999</ele>
        <time>2014-12-07T09:51:31Z</time>
      </trkpt>
      <trkpt lat="47.49986" lon="6.63886">
        <ele>435.47412992001</ele>
        <time>2014-12-07T09:51:32Z</time>
      </trkpt>
      <trkpt lat="47.4999" lon="6.63883">
        <ele>435.87435199998</ele>
        <time>2014-12-07T09:51:34Z</time>
      </trkpt>
      <trkpt lat="47.49992" lon="6.63882">
        <ele>436.04730176</ele>
        <time>2014-12-07T09:51:35Z</time>
      </trkpt>
      <trkpt lat="47.49995" lon="6.6388">
        <ele>436.34508799999</ele>
        <time>2014-12-07T09:51:37Z</time>
      </trkpt>
      <trkpt lat="47.49997" lon="6.63879">
        <ele>436.49641760002</ele>
        <time>2014-12-07T09:51:38Z</time>
      </trkpt>
      <trkpt lat="47.5" lon="6.63877">
        <ele>436.8902648</ele>
        <time>2014-12-07T09:51:40Z</time>
      </trkpt>
      <trkpt lat="47.50002" lon="6.63875">
        <ele>436.9862</ele>
        <time>2014-12-07T09:51:41Z</time>
      </trkpt>
      <trkpt lat="47.50006" lon="6.63872">
        <ele>437.18516624</ele>
        <time>2014-12-07T09:51:43Z</time>
      </trkpt>
      <trkpt lat="47.50008" lon="6.6387">
        <ele>437.295416</ele>
        <time>2014-12-07T09:51:44Z</time>
      </trkpt>
      <trkpt lat="47.50011" lon="6.63867">
        <ele>437.5043696</ele>
        <time>2014-12-07T09:51:46Z</time>
      </trkpt>
      <trkpt lat="47.50013" lon="6.63865">
        <ele>437.60372096</ele>
        <time>2014-12-07T09:51:47Z</time>
      </trkpt>
      <trkpt lat="47.50016" lon="6.63862">
        <ele>437.78600768</ele>
        <time>2014-12-07T09:51:49Z</time>
      </trkpt>
      <trkpt lat="47.50018" lon="6.63861">
        <ele>437.87518016</ele>
        <time>2014-12-07T09:51:50Z</time>
      </trkpt>
      <trkpt lat="47.50022" lon="6.63858">
        <ele>438.02873072</ele>
        <time>2014-12-07T09:51:52Z</time>
      </trkpt>
      <trkpt lat="47.50025" lon="6.63857">
        <ele>438.0923432</ele>
        <time>2014-12-07T09:51:53Z</time>
      </trkpt>
      <trkpt lat="47.50027" lon="6.63856">
        <ele>438.14156432</ele>
        <time>2014-12-07T09:51:54Z</time>
      </trkpt>
      <trkpt lat="47.50029" lon="6.63855">
        <ele>438.1756976</ele>
        <time>2014-12-07T09:51:55Z</time>
      </trkpt>
      <trkpt lat="47.50031" lon="6.63854">
        <ele>438.20613824</ele>
        <time>2014-12-07T09:51:55Z</time>
      </trkpt>
      <trkpt lat="47.50034" lon="6.63854">
        <ele>438.18774704</ele>
        <time>2014-12-07T09:51:57Z</time>
      </trkpt>
      <trkpt lat="47.50036" lon="6.63854">
        <ele>438.1853312</ele>
        <time>2014-12-07T09:51:58Z</time>
      </trkpt>
      <trkpt lat="47.50039" lon="6.63854">
        <ele>438.17515136</ele>
        <time>2014-12-07T09:51:59Z</time>
      </trkpt>
      <trkpt lat="47.50046" lon="6.63853">
        <ele>438.14083424</ele>
        <time>2014-12-07T09:52:02Z</time>
      </trkpt>
      <trkpt lat="47.50049" lon="6.63854">
        <ele>438.09943424</ele>
        <time>2014-12-07T09:52:03Z</time>
      </trkpt>
      <trkpt lat="47.50051" lon="6.63854">
        <ele>438.051776</ele>
        <time>2014-12-07T09:52:04Z</time>
      </trkpt>
      <trkpt lat="47.50053" lon="6.63855">
        <ele>437.9979632</ele>
        <time>2014-12-07T09:52:05Z</time>
      </trkpt>
      <trkpt lat="47.50056" lon="6.63855">
        <ele>437.93258816</ele>
        <time>2014-12-07T09:52:06Z</time>
      </trkpt>
      <trkpt lat="47.50058" lon="6.63855">
        <ele>437.89773632</ele>
        <time>2014-12-07T09:52:07Z</time>
      </trkpt>
      <trkpt lat="47.50061" lon="6.63855">
        <ele>437.89465808</ele>
        <time>2014-12-07T09:52:08Z</time>
      </trkpt>
      <trkpt lat="47.50063" lon="6.63855">
        <ele>437.89854608</ele>
        <time>2014-12-07T09:52:09Z</time>
      </trkpt>
      <trkpt lat="47.50065" lon="6.63854">
        <ele>437.91111296</ele>
        <time>2014-12-07T09:52:10Z</time>
      </trkpt>
      <trkpt lat="47.50069" lon="6.63854">
        <ele>437.87962976</ele>
        <time>2014-12-07T09:52:12Z</time>
      </trkpt>
      <trkpt lat="47.50071" lon="6.63854">
        <ele>437.86253888</ele>
        <time>2014-12-07T09:52:13Z</time>
      </trkpt>
      <trkpt lat="47.50074" lon="6.63855">
        <ele>437.8162376</ele>
        <time>2014-12-07T09:52:15Z</time>
      </trkpt>
      <trkpt lat="47.50075" lon="6.63855">
        <ele>437.78968304</ele>
        <time>2014-12-07T09:52:16Z</time>
      </trkpt>
      <trkpt lat="47.50077" lon="6.63855">
        <ele>437.73443168</ele>
        <time>2014-12-07T09:52:17Z</time>
      </trkpt>
      <trkpt lat="47.5008" lon="6.63856">
        <ele>437.650976</ele>
        <time>2014-12-07T09:52:18Z</time>
      </trkpt>
      <trkpt lat="47.50083" lon="6.63858">
        <ele>437.54853632</ele>
        <time>2014-12-07T09:52:19Z</time>
      </trkpt>
      <trkpt lat="47.50086" lon="6.63859">
        <ele>437.52280000001</ele>
        <time>2014-12-07T09:52:20Z</time>
      </trkpt>
      <trkpt lat="47.50089" lon="6.6386">
        <ele>437.52399999999</ele>
        <time>2014-12-07T09:52:21Z</time>
      </trkpt>
      <trkpt lat="47.50092" lon="6.63861">
        <ele>437.536</ele>
        <time>2014-12-07T09:52:22Z</time>
      </trkpt>
      <trkpt lat="47.50095" lon="6.63862">
        <ele>437.54800000001</ele>
        <time>2014-12-07T09:52:23Z</time>
      </trkpt>
      <trkpt lat="47.50098" lon="6.63863">
        <ele>437.55999999999</ele>
        <time>2014-12-07T09:52:24Z</time>
      </trkpt>
      <trkpt lat="47.501" lon="6.63864">
        <ele>437.56360000001</ele>
        <time>2014-12-07T09:52:25Z</time>
      </trkpt>
      <trkpt lat="47.50103" lon="6.63865">
        <ele>437.5732</ele>
        <time>2014-12-07T09:52:26Z</time>
      </trkpt>
      <trkpt lat="47.50106" lon="6.63866">
        <ele>437.58279999999</ele>
        <time>2014-12-07T09:52:27Z</time>
      </trkpt>
      <trkpt lat="47.50109" lon="6.63867">
        <ele>437.6068</ele>
        <time>2014-12-07T09:52:28Z</time>
      </trkpt>
      <trkpt lat="47.50112" lon="6.63868">
        <ele>437.64039999999</ele>
        <time>2014-12-07T09:52:29Z</time>
      </trkpt>
      <trkpt lat="47.50115" lon="6.63868">
        <ele>437.6764</ele>
        <time>2014-12-07T09:52:30Z</time>
      </trkpt>
      <trkpt lat="47.50118" lon="6.63869">
        <ele>437.7208</ele>
        <time>2014-12-07T09:52:31Z</time>
      </trkpt>
      <trkpt lat="47.50121" lon="6.63869">
        <ele>437.7544</ele>
        <time>2014-12-07T09:52:32Z</time>
      </trkpt>
      <trkpt lat="47.50124" lon="6.6387">
        <ele>437.78080000001</ele>
        <time>2014-12-07T09:52:33Z</time>
      </trkpt>
      <trkpt lat="47.50126" lon="6.63871">
        <ele>437.79279999999</ele>
        <time>2014-12-07T09:52:34Z</time>
      </trkpt>
      <trkpt lat="47.50129" lon="6.63871">
        <ele>437.8024</ele>
        <time>2014-12-07T09:52:35Z</time>
      </trkpt>
      <trkpt lat="47.50131" lon="6.63872">
        <ele>437.81440000001</ele>
        <time>2014-12-07T09:52:36Z</time>
      </trkpt>
      <trkpt lat="47.50134" lon="6.63873">
        <ele>437.82399999999</ele>
        <time>2014-12-07T09:52:37Z</time>
      </trkpt>
      <trkpt lat="47.50136" lon="6.63874">
        <ele>437.8348</ele>
        <time>2014-12-07T09:52:38Z</time>
      </trkpt>
      <trkpt lat="47.5014" lon="6.63875">
        <ele>437.8396</ele>
        <time>2014-12-07T09:52:40Z</time>
      </trkpt>
      <trkpt lat="47.50142" lon="6.63876">
        <ele>437.8396</ele>
        <time>2014-12-07T09:52:41Z</time>
      </trkpt>
      <trkpt lat="47.50146" lon="6.63878">
        <ele>437.83959999999</ele>
        <time>2014-12-07T09:52:43Z</time>
      </trkpt>
      <trkpt lat="47.50148" lon="6.63879">
        <ele>437.83</ele>
        <time>2014-12-07T09:52:44Z</time>
      </trkpt>
      <trkpt lat="47.5015" lon="6.6388">
        <ele>437.8012</ele>
        <time>2014-12-07T09:52:46Z</time>
      </trkpt>
      <trkpt lat="47.50152" lon="6.63881">
        <ele>437.76040000001</ele>
        <time>2014-12-07T09:52:47Z</time>
      </trkpt>
      <trkpt lat="47.50155" lon="6.63884">
        <ele>437.66559999999</ele>
        <time>2014-12-07T09:52:49Z</time>
      </trkpt>
      <trkpt lat="47.50157" lon="6.63886">
        <ele>437.602</ele>
        <time>2014-12-07T09:52:50Z</time>
      </trkpt>
      <trkpt lat="47.5016" lon="6.63889">
        <ele>437.4964</ele>
        <time>2014-12-07T09:52:52Z</time>
      </trkpt>
      <trkpt lat="47.50161" lon="6.6389">
        <ele>437.4568</ele>
        <time>2014-12-07T09:52:53Z</time>
      </trkpt>
      <trkpt lat="47.50165" lon="6.63893">
        <ele>437.39800000001</ele>
        <time>2014-12-07T09:52:55Z</time>
      </trkpt>
      <trkpt lat="47.50166" lon="6.63894">
        <ele>437.3632</ele>
        <time>2014-12-07T09:52:56Z</time>
      </trkpt>
      <trkpt lat="47.5017" lon="6.63897">
        <ele>437.67609984003</ele>
        <time>2014-12-07T09:52:58Z</time>
      </trkpt>
      <trkpt lat="47.50172" lon="6.63898">
        <ele>437.97380927998</ele>
        <time>2014-12-07T09:52:59Z</time>
      </trkpt>
      <trkpt lat="47.50178" lon="6.63901">
        <ele>438.70155456001</ele>
        <time>2014-12-07T09:53:02Z</time>
      </trkpt>
      <trkpt lat="47.50181" lon="6.63902">
        <ele>439.00454399998</ele>
        <time>2014-12-07T09:53:03Z</time>
      </trkpt>
      <trkpt lat="47.50184" lon="6.63903">
        <ele>439.31388096003</ele>
        <time>2014-12-07T09:53:04Z</time>
      </trkpt>
      <trkpt lat="47.50186" lon="6.63905">
        <ele>439.58174400001</ele>
        <time>2014-12-07T09:53:05Z</time>
      </trkpt>
      <trkpt lat="47.50188" lon="6.63905">
        <ele>439.84667136003</ele>
        <time>2014-12-07T09:53:06Z</time>
      </trkpt>
      <trkpt lat="47.50191" lon="6.63906">
        <ele>440.15455392004</ele>
        <time>2014-12-07T09:53:07Z</time>
      </trkpt>
      <trkpt lat="47.50193" lon="6.63907">
        <ele>440.42387807996</ele>
        <time>2014-12-07T09:53:08Z</time>
      </trkpt>
      <trkpt lat="47.50195" lon="6.63908">
        <ele>440.62467839999</ele>
        <time>2014-12-07T09:53:08Z</time>
      </trkpt>
      <trkpt lat="47.50197" lon="6.63908">
        <ele>440.99476991995</ele>
        <time>2014-12-07T09:53:10Z</time>
      </trkpt>
      <trkpt lat="47.50202" lon="6.63907">
        <ele>441.73635072003</ele>
        <time>2014-12-07T09:53:12Z</time>
      </trkpt>
      <trkpt lat="47.50204" lon="6.63905">
        <ele>442.10657759999</ele>
        <time>2014-12-07T09:53:13Z</time>
      </trkpt>
      <trkpt lat="47.50206" lon="6.63901">
        <ele>442.84744991999</ele>
        <time>2014-12-07T09:53:15Z</time>
      </trkpt>
      <trkpt lat="47.50207" lon="6.63898">
        <ele>443.18964480004</ele>
        <time>2014-12-07T09:53:16Z</time>
      </trkpt>
      <trkpt lat="47.50208" lon="6.63893">
        <ele>443.72776895999</ele>
        <time>2014-12-07T09:53:18Z</time>
      </trkpt>
      <trkpt lat="47.50209" lon="6.6389">
        <ele>443.94677376005</ele>
        <time>2014-12-07T09:53:19Z</time>
      </trkpt>
      <trkpt lat="47.5021" lon="6.63886">
        <ele>444.40318463995</ele>
        <time>2014-12-07T09:53:21Z</time>
      </trkpt>
      <trkpt lat="47.50211" lon="6.63884">
        <ele>444.73847327996</ele>
        <time>2014-12-07T09:53:22Z</time>
      </trkpt>
      <trkpt lat="47.50213" lon="6.63879">
        <ele>445.39632575998</ele>
        <time>2014-12-07T09:53:24Z</time>
      </trkpt>
      <trkpt lat="47.50213" lon="6.63877">
        <ele>445.63613567997</ele>
        <time>2014-12-07T09:53:25Z</time>
      </trkpt>
      <trkpt lat="47.50215" lon="6.63871">
        <ele>446.31163583997</ele>
        <time>2014-12-07T09:53:29Z</time>
      </trkpt>
      <trkpt lat="47.50215" lon="6.63869">
        <ele>446.46035808005</ele>
        <time>2014-12-07T09:53:30Z</time>
      </trkpt>
      <trkpt lat="47.50215" lon="6.63864">
        <ele>446.90827104</ele>
        <time>2014-12-07T09:53:33Z</time>
      </trkpt>
      <trkpt lat="47.50215" lon="6.63862">
        <ele>447.07966463996</ele>
        <time>2014-12-07T09:53:34Z</time>
      </trkpt>
      <trkpt lat="47.50216" lon="6.63857">
        <ele>447.52044959995</ele>
        <time>2014-12-07T09:53:36Z</time>
      </trkpt>
      <trkpt lat="47.50216" lon="6.63854">
        <ele>447.80769120002</ele>
        <time>2014-12-07T09:53:37Z</time>
      </trkpt>
      <trkpt lat="47.50217" lon="6.63847">
        <ele>448.44684191995</ele>
        <time>2014-12-07T09:53:39Z</time>
      </trkpt>
      <trkpt lat="47.50218" lon="6.63844">
        <ele>448.75876800002</ele>
        <time>2014-12-07T09:53:40Z</time>
      </trkpt>
      <trkpt lat="47.50218" lon="6.63841">
        <ele>449.10464160001</ele>
        <time>2014-12-07T09:53:41Z</time>
      </trkpt>
      <trkpt lat="47.50218" lon="6.63837">
        <ele>449.40158975999</ele>
        <time>2014-12-07T09:53:42Z</time>
      </trkpt>
      <trkpt lat="47.50218" lon="6.63831">
        <ele>449.80159487999</ele>
        <time>2014-12-07T09:53:44Z</time>
      </trkpt>
      <trkpt lat="47.50218" lon="6.63829">
        <ele>449.93338752004</ele>
        <time>2014-12-07T09:53:45Z</time>
      </trkpt>
      <trkpt lat="47.50218" lon="6.63823">
        <ele>450.17583167997</ele>
        <time>2014-12-07T09:53:47Z</time>
      </trkpt>
      <trkpt lat="47.50218" lon="6.63821">
        <ele>450.30325056005</ele>
        <time>2014-12-07T09:53:48Z</time>
      </trkpt>
      <trkpt lat="47.50217" lon="6.63815">
        <ele>450.55811135994</ele>
        <time>2014-12-07T09:53:50Z</time>
      </trkpt>
      <trkpt lat="47.50217" lon="6.63813">
        <ele>450.66445247995</ele>
        <time>2014-12-07T09:53:51Z</time>
      </trkpt>
      <trkpt lat="47.50217" lon="6.63807">
        <ele>450.95877119999</ele>
        <time>2014-12-07T09:53:53Z</time>
      </trkpt>
      <trkpt lat="47.50217" lon="6.63805">
        <ele>451.11403199999</ele>
        <time>2014-12-07T09:53:54Z</time>
      </trkpt>
      <trkpt lat="47.50217" lon="6.63799">
        <ele>451.39723296003</ele>
        <time>2014-12-07T09:53:56Z</time>
      </trkpt>
      <trkpt lat="47.50217" lon="6.63797">
        <ele>451.46501184004</ele>
        <time>2014-12-07T09:53:57Z</time>
      </trkpt>
      <trkpt lat="47.50217" lon="6.63793">
        <ele>451.68560639997</ele>
        <time>2014-12-07T09:53:59Z</time>
      </trkpt>
      <trkpt lat="47.50217" lon="6.63788">
        <ele>452.03940096</ele>
        <time>2014-12-07T09:54:02Z</time>
      </trkpt>
      <trkpt lat="47.50217" lon="6.63782">
        <ele>452.40020351995</ele>
        <time>2014-12-07T09:54:05Z</time>
      </trkpt>
      <trkpt lat="47.50217" lon="6.6378">
        <ele>452.53042944002</ele>
        <time>2014-12-07T09:54:06Z</time>
      </trkpt>
      <trkpt lat="47.50217" lon="6.63776">
        <ele>452.76651360003</ele>
        <time>2014-12-07T09:54:08Z</time>
      </trkpt>
      <trkpt lat="47.50217" lon="6.63773">
        <ele>452.91830783996</ele>
        <time>2014-12-07T09:54:09Z</time>
      </trkpt>
      <trkpt lat="47.50217" lon="6.63767">
        <ele>453.2545584</ele>
        <time>2014-12-07T09:54:11Z</time>
      </trkpt>
      <trkpt lat="47.50217" lon="6.63763">
        <ele>453.46514303996</ele>
        <time>2014-12-07T09:54:12Z</time>
      </trkpt>
      <trkpt lat="47.50217" lon="6.6376">
        <ele>453.70171199999</ele>
        <time>2014-12-07T09:54:13Z</time>
      </trkpt>
      <trkpt lat="47.50217" lon="6.63756">
        <ele>453.95243615999</ele>
        <time>2014-12-07T09:54:14Z</time>
      </trkpt>
      <trkpt lat="47.50218" lon="6.63752">
        <ele>454.20253823998</ele>
        <time>2014-12-07T09:54:15Z</time>
      </trkpt>
      <trkpt lat="47.50218" lon="6.63749">
        <ele>454.45171535997</ele>
        <time>2014-12-07T09:54:16Z</time>
      </trkpt>
      <trkpt lat="47.50218" lon="6.63743">
        <ele>454.88498544</ele>
        <time>2014-12-07T09:54:18Z</time>
      </trkpt>
      <trkpt lat="47.50218" lon="6.63741">
        <ele>455.03222400004</ele>
        <time>2014-12-07T09:54:19Z</time>
      </trkpt>
      <trkpt lat="47.50218" lon="6.63736">
        <ele>455.31975744001</ele>
        <time>2014-12-07T09:54:21Z</time>
      </trkpt>
      <trkpt lat="47.50218" lon="6.63733">
        <ele>455.51511072001</ele>
        <time>2014-12-07T09:54:22Z</time>
      </trkpt>
      <trkpt lat="47.50218" lon="6.63727">
        <ele>455.89108752005</ele>
        <time>2014-12-07T09:54:24Z</time>
      </trkpt>
      <trkpt lat="47.50218" lon="6.63724">
        <ele>456.07162751998</ele>
        <time>2014-12-07T09:54:25Z</time>
      </trkpt>
      <trkpt lat="47.50218" lon="6.63718">
        <ele>456.49443600001</ele>
        <time>2014-12-07T09:54:27Z</time>
      </trkpt>
      <trkpt lat="47.50217" lon="6.63715">
        <ele>456.68003759998</ele>
        <time>2014-12-07T09:54:28Z</time>
      </trkpt>
      <trkpt lat="47.50217" lon="6.63708">
        <ele>457.00724016</ele>
        <time>2014-12-07T09:54:30Z</time>
      </trkpt>
      <trkpt lat="47.50216" lon="6.63705">
        <ele>457.14196512005</ele>
        <time>2014-12-07T09:54:31Z</time>
      </trkpt>
      <trkpt lat="47.50216" lon="6.637">
        <ele>457.41883391999</ele>
        <time>2014-12-07T09:54:33Z</time>
      </trkpt>
      <trkpt lat="47.50215" lon="6.63697">
        <ele>457.52404319997</ele>
        <time>2014-12-07T09:54:34Z</time>
      </trkpt>
      <trkpt lat="47.50215" lon="6.63692">
        <ele>457.78757039998</ele>
        <time>2014-12-07T09:54:36Z</time>
      </trkpt>
      <trkpt lat="47.50214" lon="6.63689">
        <ele>457.93092527995</ele>
        <time>2014-12-07T09:54:37Z</time>
      </trkpt>
      <trkpt lat="47.50214" lon="6.63685">
        <ele>458.15508288003</ele>
        <time>2014-12-07T09:54:39Z</time>
      </trkpt>
      <trkpt lat="47.50214" lon="6.63682">
        <ele>458.28664127996</ele>
        <time>2014-12-07T09:54:40Z</time>
      </trkpt>
      <trkpt lat="47.50214" lon="6.63678">
        <ele>458.58503232</ele>
        <time>2014-12-07T09:54:42Z</time>
      </trkpt>
      <trkpt lat="47.50213" lon="6.63675">
        <ele>458.74766591997</ele>
        <time>2014-12-07T09:54:43Z</time>
      </trkpt>
      <trkpt lat="47.50213" lon="6.63669">
        <ele>459.11913120001</ele>
        <time>2014-12-07T09:54:45Z</time>
      </trkpt>
      <trkpt lat="47.50214" lon="6.63666">
        <ele>459.33085280004</ele>
        <time>2014-12-07T09:54:46Z</time>
      </trkpt>
      <trkpt lat="47.50214" lon="6.63661">
        <ele>459.70089440003</ele>
        <time>2014-12-07T09:54:48Z</time>
      </trkpt>
      <trkpt lat="47.50215" lon="6.63658">
        <ele>459.93292639998</ele>
        <time>2014-12-07T09:54:49Z</time>
      </trkpt>
      <trkpt lat="47.50215" lon="6.63655">
        <ele>460.18532000001</ele>
        <time>2014-12-07T09:54:50Z</time>
      </trkpt>
      <trkpt lat="47.50215" lon="6.63651">
        <ele>460.43775583996</ele>
        <time>2014-12-07T09:54:51Z</time>
      </trkpt>
      <trkpt lat="47.50215" lon="6.63645">
        <ele>460.69918543997</ele>
        <time>2014-12-07T09:54:53Z</time>
      </trkpt>
      <trkpt lat="47.50215" lon="6.63643">
        <ele>460.77073568001</ele>
        <time>2014-12-07T09:54:54Z</time>
      </trkpt>
      <trkpt lat="47.50215" lon="6.63636">
        <ele>461.08545679998</ele>
        <time>2014-12-07T09:54:56Z</time>
      </trkpt>
      <trkpt lat="47.50215" lon="6.63633">
        <ele>461.29176800005</ele>
        <time>2014-12-07T09:54:57Z</time>
      </trkpt>
      <trkpt lat="47.50215" lon="6.63629">
        <ele>461.50772479997</ele>
        <time>2014-12-07T09:54:58Z</time>
      </trkpt>
      <trkpt lat="47.50215" lon="6.63626">
        <ele>461.70756800001</ele>
        <time>2014-12-07T09:54:59Z</time>
      </trkpt>
      <trkpt lat="47.50215" lon="6.63623">
        <ele>461.83049792004</ele>
        <time>2014-12-07T09:55:00Z</time>
      </trkpt>
      <trkpt lat="47.50214" lon="6.63616">
        <ele>462.11688704002</ele>
        <time>2014-12-07T09:55:03Z</time>
      </trkpt>
      <trkpt lat="47.50215" lon="6.63613">
        <ele>462.30703279998</ele>
        <time>2014-12-07T09:55:04Z</time>
      </trkpt>
      <trkpt lat="47.50215" lon="6.6361">
        <ele>462.54256639997</ele>
        <time>2014-12-07T09:55:05Z</time>
      </trkpt>
      <trkpt lat="47.50215" lon="6.63605">
        <ele>462.80430175997</ele>
        <time>2014-12-07T09:55:06Z</time>
      </trkpt>
      <trkpt lat="47.50215" lon="6.63601">
        <ele>463.0669232</ele>
        <time>2014-12-07T09:55:07Z</time>
      </trkpt>
      <trkpt lat="47.50215" lon="6.63597">
        <ele>463.25371136004</ele>
        <time>2014-12-07T09:55:08Z</time>
      </trkpt>
      <trkpt lat="47.50215" lon="6.63594">
        <ele>463.38105343997</ele>
        <time>2014-12-07T09:55:09Z</time>
      </trkpt>
      <trkpt lat="47.50214" lon="6.6359">
        <ele>463.47448543999</ele>
        <time>2014-12-07T09:55:10Z</time>
      </trkpt>
      <trkpt lat="47.50214" lon="6.63587">
        <ele>463.5631808</ele>
        <time>2014-12-07T09:55:11Z</time>
      </trkpt>
      <trkpt lat="47.50213" lon="6.63584">
        <ele>463.65244640001</ele>
        <time>2014-12-07T09:55:12Z</time>
      </trkpt>
      <trkpt lat="47.50212" lon="6.6358">
        <ele>463.71903488003</ele>
        <time>2014-12-07T09:55:13Z</time>
      </trkpt>
      <trkpt lat="47.50212" lon="6.63577">
        <ele>463.79135552001</ele>
        <time>2014-12-07T09:55:14Z</time>
      </trkpt>
      <trkpt lat="47.50211" lon="6.63573">
        <ele>463.85288624002</ele>
        <time>2014-12-07T09:55:15Z</time>
      </trkpt>
      <trkpt lat="47.50211" lon="6.6357">
        <ele>463.94723887996</ele>
        <time>2014-12-07T09:55:16Z</time>
      </trkpt>
      <trkpt lat="47.50211" lon="6.63566">
        <ele>464.04735967997</ele>
        <time>2014-12-07T09:55:17Z</time>
      </trkpt>
      <trkpt lat="47.5021" lon="6.6356">
        <ele>464.19190687995</ele>
        <time>2014-12-07T09:55:19Z</time>
      </trkpt>
      <trkpt lat="47.50209" lon="6.63557">
        <ele>464.25521407999</ele>
        <time>2014-12-07T09:55:20Z</time>
      </trkpt>
      <trkpt lat="47.50209" lon="6.63551">
        <ele>464.42512304004</ele>
        <time>2014-12-07T09:55:22Z</time>
      </trkpt>
      <trkpt lat="47.50208" lon="6.63547">
        <ele>464.48931008002</ele>
        <time>2014-12-07T09:55:23Z</time>
      </trkpt>
      <trkpt lat="47.50208" lon="6.63544">
        <ele>464.54643584004</ele>
        <time>2014-12-07T09:55:24Z</time>
      </trkpt>
      <trkpt lat="47.50207" lon="6.63541">
        <ele>464.60961056001</ele>
        <time>2014-12-07T09:55:25Z</time>
      </trkpt>
      <trkpt lat="47.50207" lon="6.63535">
        <ele>464.82198271998</ele>
        <time>2014-12-07T09:55:27Z</time>
      </trkpt>
      <trkpt lat="47.50207" lon="6.63533">
        <ele>464.93164304001</ele>
        <time>2014-12-07T09:55:28Z</time>
      </trkpt>
      <trkpt lat="47.50205" lon="6.63527">
        <ele>464.78567648</ele>
        <time>2014-12-07T09:55:39Z</time>
      </trkpt>
      <trkpt lat="47.50204" lon="6.63528">
        <ele>464.67788480001</ele>
        <time>2014-12-07T09:55:40Z</time>
      </trkpt>
      <trkpt lat="47.50202" lon="6.63522">
        <ele>464.62334719999</ele>
        <time>2014-12-07T09:55:51Z</time>
      </trkpt>
      <trkpt lat="47.50203" lon="6.63521">
        <ele>464.77565312004</ele>
        <time>2014-12-07T09:55:52Z</time>
      </trkpt>
      <trkpt lat="47.50206" lon="6.63518">
        <ele>465.41538752</ele>
        <time>2014-12-07T09:55:56Z</time>
      </trkpt>
      <trkpt lat="47.50207" lon="6.63518">
        <ele>465.54363680005</ele>
        <time>2014-12-07T09:55:57Z</time>
      </trkpt>
      <trkpt lat="47.50204" lon="6.63514">
        <ele>465.25001840005</ele>
        <time>2014-12-07T09:58:07Z</time>
      </trkpt>
      <trkpt lat="47.50204" lon="6.63513">
        <ele>465.23160704002</ele>
        <time>2014-12-07T09:58:08Z</time>
      </trkpt>
      <trkpt lat="47.50206" lon="6.63508">
        <ele>465.78004543997</ele>
        <time>2014-12-07T09:58:51Z</time>
      </trkpt>
      <trkpt lat="47.50207" lon="6.63508">
        <ele>465.91821056002</ele>
        <time>2014-12-07T09:58:52Z</time>
      </trkpt>
      <trkpt lat="47.5021" lon="6.63513">
        <ele>466.14646639996</ele>
        <time>2014-12-07T09:59:45Z</time>
      </trkpt>
      <trkpt lat="47.5021" lon="6.63514">
        <ele>466.13088415999</ele>
        <time>2014-12-07T09:59:46Z</time>
      </trkpt>
      <trkpt lat="47.50209" lon="6.6351">
        <ele>466.15769840005</ele>
        <time>2014-12-07T10:02:48Z</time>
      </trkpt>
      <trkpt lat="47.50208" lon="6.63508">
        <ele>466.11367424003</ele>
        <time>2014-12-07T10:02:49Z</time>
      </trkpt>
      <trkpt lat="47.50207" lon="6.63504">
        <ele>466.05957680003</ele>
        <time>2014-12-07T10:02:51Z</time>
      </trkpt>
      <trkpt lat="47.50206" lon="6.63502">
        <ele>465.99145279998</ele>
        <time>2014-12-07T10:02:52Z</time>
      </trkpt>
      <trkpt lat="47.50203" lon="6.63498">
        <ele>465.77525119997</ele>
        <time>2014-12-07T10:02:54Z</time>
      </trkpt>
      <trkpt lat="47.50202" lon="6.63496">
        <ele>465.6365504</ele>
        <time>2014-12-07T10:02:55Z</time>
      </trkpt>
      <trkpt lat="47.50199" lon="6.63493">
        <ele>465.42830719999</ele>
        <time>2014-12-07T10:02:57Z</time>
      </trkpt>
      <trkpt lat="47.50198" lon="6.63491">
        <ele>465.39834751997</ele>
        <time>2014-12-07T10:02:58Z</time>
      </trkpt>
      <trkpt lat="47.50197" lon="6.63489">
        <ele>465.38081407996</ele>
        <time>2014-12-07T10:02:59Z</time>
      </trkpt>
      <trkpt lat="47.50196" lon="6.63484">
        <ele>465.37873280004</ele>
        <time>2014-12-07T10:03:02Z</time>
      </trkpt>
      <trkpt lat="47.50194" lon="6.6348">
        <ele>465.38670848003</ele>
        <time>2014-12-07T10:03:04Z</time>
      </trkpt>
      <trkpt lat="47.50193" lon="6.63477">
        <ele>465.43234303995</ele>
        <time>2014-12-07T10:03:05Z</time>
      </trkpt>
      <trkpt lat="47.50192" lon="6.63474">
        <ele>465.47018048004</ele>
        <time>2014-12-07T10:03:06Z</time>
      </trkpt>
      <trkpt lat="47.50191" lon="6.6347">
        <ele>465.49390400004</ele>
        <time>2014-12-07T10:03:07Z</time>
      </trkpt>
      <trkpt lat="47.50189" lon="6.63466">
        <ele>465.52965248003</ele>
        <time>2014-12-07T10:03:08Z</time>
      </trkpt>
      <trkpt lat="47.50188" lon="6.63462">
        <ele>465.55228543997</ele>
        <time>2014-12-07T10:03:09Z</time>
      </trkpt>
      <trkpt lat="47.50186" lon="6.63459">
        <ele>465.55506559998</ele>
        <time>2014-12-07T10:03:10Z</time>
      </trkpt>
      <trkpt lat="47.50184" lon="6.63455">
        <ele>465.53992832001</ele>
        <time>2014-12-07T10:03:11Z</time>
      </trkpt>
      <trkpt lat="47.50182" lon="6.63452">
        <ele>465.49428607999</ele>
        <time>2014-12-07T10:03:12Z</time>
      </trkpt>
      <trkpt lat="47.5018" lon="6.63449">
        <ele>465.4430144</ele>
        <time>2014-12-07T10:03:13Z</time>
      </trkpt>
      <trkpt lat="47.50179" lon="6.63445">
        <ele>465.41750144003</ele>
        <time>2014-12-07T10:03:14Z</time>
      </trkpt>
      <trkpt lat="47.50177" lon="6.63442">
        <ele>465.42296960001</ele>
        <time>2014-12-07T10:03:15Z</time>
      </trkpt>
      <trkpt lat="47.50176" lon="6.63439">
        <ele>465.47840384001</ele>
        <time>2014-12-07T10:03:16Z</time>
      </trkpt>
      <trkpt lat="47.50174" lon="6.63435">
        <ele>465.57660032003</ele>
        <time>2014-12-07T10:03:17Z</time>
      </trkpt>
      <trkpt lat="47.50173" lon="6.63432">
        <ele>465.64277120003</ele>
        <time>2014-12-07T10:03:18Z</time>
      </trkpt>
      <trkpt lat="47.50172" lon="6.63429">
        <ele>465.71899711999</ele>
        <time>2014-12-07T10:03:19Z</time>
      </trkpt>
      <trkpt lat="47.50169" lon="6.63424">
        <ele>465.74679680001</ele>
        <time>2014-12-07T10:03:21Z</time>
      </trkpt>
      <trkpt lat="47.50167" lon="6.63421">
        <ele>465.72430976003</ele>
        <time>2014-12-07T10:03:22Z</time>
      </trkpt>
      <trkpt lat="47.50165" lon="6.63418">
        <ele>465.85549392</ele>
        <time>2014-12-07T10:03:23Z</time>
      </trkpt>
      <trkpt lat="47.50163" lon="6.63415">
        <ele>465.9363712</ele>
        <time>2014-12-07T10:03:24Z</time>
      </trkpt>
      <trkpt lat="47.50161" lon="6.63411">
        <ele>465.94436416</ele>
        <time>2014-12-07T10:03:25Z</time>
      </trkpt>
      <trkpt lat="47.50159" lon="6.63407">
        <ele>465.95688448</ele>
        <time>2014-12-07T10:03:26Z</time>
      </trkpt>
      <trkpt lat="47.50157" lon="6.63403">
        <ele>465.97459744</ele>
        <time>2014-12-07T10:03:27Z</time>
      </trkpt>
      <trkpt lat="47.50155" lon="6.63399">
        <ele>465.99397888</ele>
        <time>2014-12-07T10:03:28Z</time>
      </trkpt>
      <trkpt lat="47.50153" lon="6.63395">
        <ele>466.0124992</ele>
        <time>2014-12-07T10:03:29Z</time>
      </trkpt>
      <trkpt lat="47.5015" lon="6.63391">
        <ele>466.03619584</ele>
        <time>2014-12-07T10:03:30Z</time>
      </trkpt>
      <trkpt lat="47.50147" lon="6.63386">
        <ele>466.07248864</ele>
        <time>2014-12-07T10:03:31Z</time>
      </trkpt>
      <trkpt lat="47.50144" lon="6.63381">
        <ele>466.12142464</ele>
        <time>2014-12-07T10:03:32Z</time>
      </trkpt>
      <trkpt lat="47.50141" lon="6.63376">
        <ele>466.18158208</ele>
        <time>2014-12-07T10:03:33Z</time>
      </trkpt>
      <trkpt lat="47.50139" lon="6.63371">
        <ele>466.2464704</ele>
        <time>2014-12-07T10:03:34Z</time>
      </trkpt>
      <trkpt lat="47.50136" lon="6.63366">
        <ele>466.31816128</ele>
        <time>2014-12-07T10:03:35Z</time>
      </trkpt>
      <trkpt lat="47.50135" lon="6.63362">
        <ele>466.390432</ele>
        <time>2014-12-07T10:03:36Z</time>
      </trkpt>
      <trkpt lat="47.50133" lon="6.63358">
        <ele>466.46128</ele>
        <time>2014-12-07T10:03:37Z</time>
      </trkpt>
      <trkpt lat="47.5013" lon="6.63354">
        <ele>466.53720064</ele>
        <time>2014-12-07T10:03:38Z</time>
      </trkpt>
      <trkpt lat="47.50128" lon="6.6335">
        <ele>466.61575936</ele>
        <time>2014-12-07T10:03:39Z</time>
      </trkpt>
      <trkpt lat="47.50126" lon="6.63346">
        <ele>466.70533696</ele>
        <time>2014-12-07T10:03:40Z</time>
      </trkpt>
      <trkpt lat="47.50124" lon="6.63341">
        <ele>466.80604672</ele>
        <time>2014-12-07T10:03:41Z</time>
      </trkpt>
      <trkpt lat="47.50122" lon="6.63337">
        <ele>466.9092544</ele>
        <time>2014-12-07T10:03:42Z</time>
      </trkpt>
      <trkpt lat="47.50121" lon="6.63333">
        <ele>466.95764</ele>
        <time>2014-12-07T10:03:43Z</time>
      </trkpt>
      <trkpt lat="47.50119" lon="6.63328">
        <ele>466.7312456</ele>
        <time>2014-12-07T10:03:44Z</time>
      </trkpt>
      <trkpt lat="47.50117" lon="6.63324">
        <ele>466.5325664</ele>
        <time>2014-12-07T10:03:45Z</time>
      </trkpt>
      <trkpt lat="47.50114" lon="6.63319">
        <ele>466.3431032</ele>
        <time>2014-12-07T10:03:46Z</time>
      </trkpt>
      <trkpt lat="47.50111" lon="6.63315">
        <ele>466.17759920001</ele>
        <time>2014-12-07T10:03:47Z</time>
      </trkpt>
      <trkpt lat="47.50108" lon="6.6331">
        <ele>466.0356992</ele>
        <time>2014-12-07T10:03:48Z</time>
      </trkpt>
      <trkpt lat="47.50106" lon="6.63306">
        <ele>465.9218048</ele>
        <time>2014-12-07T10:03:49Z</time>
      </trkpt>
      <trkpt lat="47.50103" lon="6.63303">
        <ele>465.84194239999</ele>
        <time>2014-12-07T10:03:50Z</time>
      </trkpt>
      <trkpt lat="47.50101" lon="6.633">
        <ele>465.77488639999</ele>
        <time>2014-12-07T10:03:51Z</time>
      </trkpt>
      <trkpt lat="47.50099" lon="6.63298">
        <ele>465.7325936</ele>
        <time>2014-12-07T10:03:52Z</time>
      </trkpt>
      <trkpt lat="47.50097" lon="6.63294">
        <ele>465.6847328</ele>
        <time>2014-12-07T10:03:53Z</time>
      </trkpt>
      <trkpt lat="47.50094" lon="6.6329">
        <ele>465.6428528</ele>
        <time>2014-12-07T10:03:54Z</time>
      </trkpt>
      <trkpt lat="47.5009" lon="6.63286">
        <ele>465.61153280001</ele>
        <time>2014-12-07T10:03:55Z</time>
      </trkpt>
      <trkpt lat="47.50087" lon="6.6328">
        <ele>465.576536</ele>
        <time>2014-12-07T10:03:56Z</time>
      </trkpt>
      <trkpt lat="47.50084" lon="6.63274">
        <ele>465.56579839999</ele>
        <time>2014-12-07T10:03:57Z</time>
      </trkpt>
      <trkpt lat="47.50081" lon="6.63269">
        <ele>465.67598239999</ele>
        <time>2014-12-07T10:03:58Z</time>
      </trkpt>
      <trkpt lat="47.50078" lon="6.63264">
        <ele>465.80664127997</ele>
        <time>2014-12-07T10:03:59Z</time>
      </trkpt>
      <trkpt lat="47.50073" lon="6.63255">
        <ele>466.05742015999</ele>
        <time>2014-12-07T10:04:02Z</time>
      </trkpt>
      <trkpt lat="47.50071" lon="6.63252">
        <ele>466.21733600002</ele>
        <time>2014-12-07T10:04:03Z</time>
      </trkpt>
      <trkpt lat="47.50068" lon="6.63248">
        <ele>466.23856784</ele>
        <time>2014-12-07T10:04:04Z</time>
      </trkpt>
      <trkpt lat="47.50065" lon="6.63244">
        <ele>466.11246463997</ele>
        <time>2014-12-07T10:04:05Z</time>
      </trkpt>
      <trkpt lat="47.50062" lon="6.6324">
        <ele>465.97418239997</ele>
        <time>2014-12-07T10:04:06Z</time>
      </trkpt>
      <trkpt lat="47.50058" lon="6.63237">
        <ele>465.82207039997</ele>
        <time>2014-12-07T10:04:07Z</time>
      </trkpt>
      <trkpt lat="47.50056" lon="6.63233">
        <ele>465.64564015999</ele>
        <time>2014-12-07T10:04:08Z</time>
      </trkpt>
      <trkpt lat="47.50054" lon="6.63229">
        <ele>465.4689272</ele>
        <time>2014-12-07T10:04:08Z</time>
      </trkpt>
      <trkpt lat="47.50051" lon="6.63225">
        <ele>465.29325440003</ele>
        <time>2014-12-07T10:04:10Z</time>
      </trkpt>
      <trkpt lat="47.50048" lon="6.63222">
        <ele>465.1344512</ele>
        <time>2014-12-07T10:04:11Z</time>
      </trkpt>
      <trkpt lat="47.50046" lon="6.63219">
        <ele>464.99047039999</ele>
        <time>2014-12-07T10:04:12Z</time>
      </trkpt>
      <trkpt lat="47.50044" lon="6.63217">
        <ele>464.98004480003</ele>
        <time>2014-12-07T10:04:13Z</time>
      </trkpt>
      <trkpt lat="47.50041" lon="6.63215">
        <ele>465.08252864001</ele>
        <time>2014-12-07T10:04:14Z</time>
      </trkpt>
      <trkpt lat="47.50039" lon="6.63215">
        <ele>465.26432287996</ele>
        <time>2014-12-07T10:04:15Z</time>
      </trkpt>
      <trkpt lat="47.50036" lon="6.63215">
        <ele>465.52596799999</ele>
        <time>2014-12-07T10:04:16Z</time>
      </trkpt>
      <trkpt lat="47.50033" lon="6.63214">
        <ele>465.78769088003</ele>
        <time>2014-12-07T10:04:17Z</time>
      </trkpt>
      <trkpt lat="47.50031" lon="6.63214">
        <ele>465.98428928004</ele>
        <time>2014-12-07T10:04:18Z</time>
      </trkpt>
      <trkpt lat="47.50027" lon="6.63212">
        <ele>466.19684479997</ele>
        <time>2014-12-07T10:04:20Z</time>
      </trkpt>
      <trkpt lat="47.50025" lon="6.63211">
        <ele>466.20196880004</ele>
        <time>2014-12-07T10:04:21Z</time>
      </trkpt>
      <trkpt lat="47.50021" lon="6.63207">
        <ele>466.17842432002</ele>
        <time>2014-12-07T10:04:23Z</time>
      </trkpt>
      <trkpt lat="47.50019" lon="6.63205">
        <ele>466.20230527999</ele>
        <time>2014-12-07T10:04:24Z</time>
      </trkpt>
      <trkpt lat="47.50016" lon="6.63203">
        <ele>466.25991631999</ele>
        <time>2014-12-07T10:04:25Z</time>
      </trkpt>
      <trkpt lat="47.50014" lon="6.63202">
        <ele>466.3408208</ele>
        <time>2014-12-07T10:04:26Z</time>
      </trkpt>
      <trkpt lat="47.50011" lon="6.632">
        <ele>466.44288320001</ele>
        <time>2014-12-07T10:04:27Z</time>
      </trkpt>
      <trkpt lat="47.50008" lon="6.63198">
        <ele>466.49285887999</ele>
        <time>2014-12-07T10:04:28Z</time>
      </trkpt>
      <trkpt lat="47.50006" lon="6.63196">
        <ele>466.51218175999</ele>
        <time>2014-12-07T10:04:29Z</time>
      </trkpt>
      <trkpt lat="47.50004" lon="6.63193">
        <ele>466.52267360004</ele>
        <time>2014-12-07T10:04:30Z</time>
      </trkpt>
      <trkpt lat="47.5" lon="6.6319">
        <ele>466.54744447999</ele>
        <time>2014-12-07T10:04:32Z</time>
      </trkpt>
      <trkpt lat="47.49998" lon="6.63189">
        <ele>466.49590976002</ele>
        <time>2014-12-07T10:04:33Z</time>
      </trkpt>
      <trkpt lat="47.49995" lon="6.63188">
        <ele>466.58898944001</ele>
        <time>2014-12-07T10:04:35Z</time>
      </trkpt>
      <trkpt lat="47.49992" lon="6.63188">
        <ele>466.74744896</ele>
        <time>2014-12-07T10:04:36Z</time>
      </trkpt>
      <trkpt lat="47.49988" lon="6.63189">
        <ele>467.11401728001</ele>
        <time>2014-12-07T10:04:38Z</time>
      </trkpt>
      <trkpt lat="47.49987" lon="6.6319">
        <ele>467.24695424002</ele>
        <time>2014-12-07T10:04:39Z</time>
      </trkpt>
      <trkpt lat="47.49984" lon="6.63186">
        <ele>467.08386368002</ele>
        <time>2014-12-07T10:04:43Z</time>
      </trkpt>
      <trkpt lat="47.49983" lon="6.63185">
        <ele>467.07600511999</ele>
        <time>2014-12-07T10:04:44Z</time>
      </trkpt>
      <trkpt lat="47.4998" lon="6.63183">
        <ele>467.02162687997</ele>
        <time>2014-12-07T10:04:47Z</time>
      </trkpt>
      <trkpt lat="47.49979" lon="6.63182">
        <ele>467.01736256</ele>
        <time>2014-12-07T10:04:48Z</time>
      </trkpt>
      <trkpt lat="47.49976" lon="6.63181">
        <ele>467.10941696</ele>
        <time>2014-12-07T10:04:51Z</time>
      </trkpt>
      <trkpt lat="47.49974" lon="6.6318">
        <ele>467.04642559999</ele>
        <time>2014-12-07T10:04:52Z</time>
      </trkpt>
      <trkpt lat="47.4997" lon="6.63177">
        <ele>467.05697984001</ele>
        <time>2014-12-07T10:05:12Z</time>
      </trkpt>
      <trkpt lat="47.4997" lon="6.63175">
        <ele>466.90668416</ele>
        <time>2014-12-07T10:05:13Z</time>
      </trkpt>
      <trkpt lat="47.49968" lon="6.63171">
        <ele>466.67722112001</ele>
        <time>2014-12-07T10:05:15Z</time>
      </trkpt>
      <trkpt lat="47.49967" lon="6.63169">
        <ele>466.58000384001</ele>
        <time>2014-12-07T10:05:16Z</time>
      </trkpt>
      <trkpt lat="47.49964" lon="6.63165">
        <ele>466.34999999997</ele>
        <time>2014-12-07T10:05:18Z</time>
      </trkpt>
      <trkpt lat="47.49963" lon="6.63163">
        <ele>466.09079999999</ele>
        <time>2014-12-07T10:05:19Z</time>
      </trkpt>
      <trkpt lat="47.49961" lon="6.6316">
        <ele>465.81600000001</ele>
        <time>2014-12-07T10:05:20Z</time>
      </trkpt>
      <trkpt lat="47.4996" lon="6.63158">
        <ele>465.564</ele>
        <time>2014-12-07T10:05:21Z</time>
      </trkpt>
      <trkpt lat="47.49957" lon="6.63153">
        <ele>465.02520000003</ele>
        <time>2014-12-07T10:05:23Z</time>
      </trkpt>
      <trkpt lat="47.49956" lon="6.63151">
        <ele>464.79960000001</ele>
        <time>2014-12-07T10:05:24Z</time>
      </trkpt>
      <trkpt lat="47.49954" lon="6.63146">
        <ele>464.01959999998</ele>
        <time>2014-12-07T10:05:28Z</time>
      </trkpt>
      <trkpt lat="47.49954" lon="6.63145">
        <ele>463.9296</ele>
        <time>2014-12-07T10:05:29Z</time>
      </trkpt>
      <trkpt lat="47.49953" lon="6.63139">
        <ele>463.05720000001</ele>
        <time>2014-12-07T10:05:35Z</time>
      </trkpt>
      <trkpt lat="47.49952" lon="6.63138">
        <ele>462.99359999998</ele>
        <time>2014-12-07T10:05:36Z</time>
      </trkpt>
      <trkpt lat="47.49948" lon="6.63137">
        <ele>463.07759999998</ele>
        <time>2014-12-07T10:05:41Z</time>
      </trkpt>
      <trkpt lat="47.49946" lon="6.63136">
        <ele>463.08240000001</ele>
        <time>2014-12-07T10:05:42Z</time>
      </trkpt>
      <trkpt lat="47.49944" lon="6.63135">
        <ele>463.16159999998</ele>
        <time>2014-12-07T10:05:43Z</time>
      </trkpt>
      <trkpt lat="47.49942" lon="6.63135">
        <ele>463.28040000003</ele>
        <time>2014-12-07T10:05:44Z</time>
      </trkpt>
      <trkpt lat="47.49938" lon="6.63135">
        <ele>463.58639999998</ele>
        <time>2014-12-07T10:05:46Z</time>
      </trkpt>
      <trkpt lat="47.49937" lon="6.63136">
        <ele>463.71120000001</ele>
        <time>2014-12-07T10:05:47Z</time>
      </trkpt>
      <trkpt lat="47.49932" lon="6.63134">
        <ele>463.84080000003</ele>
        <time>2014-12-07T10:05:49Z</time>
      </trkpt>
      <trkpt lat="47.4993" lon="6.63133">
        <ele>463.84919999997</ele>
        <time>2014-12-07T10:05:50Z</time>
      </trkpt>
      <trkpt lat="47.49926" lon="6.63132">
        <ele>463.8204</ele>
        <time>2014-12-07T10:05:52Z</time>
      </trkpt>
      <trkpt lat="47.49925" lon="6.63131">
        <ele>463.8228</ele>
        <time>2014-12-07T10:05:53Z</time>
      </trkpt>
      <trkpt lat="47.49922" lon="6.63132">
        <ele>464.21280000001</ele>
        <time>2014-12-07T10:05:59Z</time>
      </trkpt>
      <trkpt lat="47.49919" lon="6.63133">
        <ele>464.58960000002</ele>
        <time>2014-12-07T10:06:02Z</time>
      </trkpt>
      <trkpt lat="47.49915" lon="6.63134">
        <ele>464.892584</ele>
        <time>2014-12-07T10:06:08Z</time>
      </trkpt>
      <trkpt lat="47.49914" lon="6.63133">
        <ele>464.86566751999</ele>
        <time>2014-12-07T10:06:09Z</time>
      </trkpt>
      <trkpt lat="47.49911" lon="6.63132">
        <ele>464.68622816001</ele>
        <time>2014-12-07T10:06:12Z</time>
      </trkpt>
      <trkpt lat="47.49908" lon="6.6313">
        <ele>464.50607455999</ele>
        <time>2014-12-07T10:06:13Z</time>
      </trkpt>
      <trkpt lat="47.49906" lon="6.63128">
        <ele>464.32181504</ele>
        <time>2014-12-07T10:06:14Z</time>
      </trkpt>
      <trkpt lat="47.49903" lon="6.63127">
        <ele>464.14329488001</ele>
        <time>2014-12-07T10:06:15Z</time>
      </trkpt>
      <trkpt lat="47.49899" lon="6.63125">
        <ele>463.96256191999</ele>
        <time>2014-12-07T10:06:17Z</time>
      </trkpt>
      <trkpt lat="47.49898" lon="6.63124">
        <ele>463.96257536001</ele>
        <time>2014-12-07T10:06:18Z</time>
      </trkpt>
      <trkpt lat="47.49894" lon="6.63124">
        <ele>464.02731104</ele>
        <time>2014-12-07T10:06:20Z</time>
      </trkpt>
      <trkpt lat="47.49892" lon="6.63124">
        <ele>464.05699904</ele>
        <time>2014-12-07T10:06:21Z</time>
      </trkpt>
      <trkpt lat="47.49889" lon="6.63123">
        <ele>464.10257984</ele>
        <time>2014-12-07T10:06:23Z</time>
      </trkpt>
      <trkpt lat="47.49887" lon="6.63123">
        <ele>464.11581056</ele>
        <time>2014-12-07T10:06:24Z</time>
      </trkpt>
      <trkpt lat="47.49884" lon="6.63123">
        <ele>464.18400704001</ele>
        <time>2014-12-07T10:06:25Z</time>
      </trkpt>
      <trkpt lat="47.49882" lon="6.63123">
        <ele>464.26480304001</ele>
        <time>2014-12-07T10:06:26Z</time>
      </trkpt>
      <trkpt lat="47.49878" lon="6.63123">
        <ele>464.44196</ele>
        <time>2014-12-07T10:06:28Z</time>
      </trkpt>
      <trkpt lat="47.49875" lon="6.63122">
        <ele>464.44381375999</ele>
        <time>2014-12-07T10:06:29Z</time>
      </trkpt>
      <trkpt lat="47.49871" lon="6.63121">
        <ele>464.37514399999</ele>
        <time>2014-12-07T10:06:31Z</time>
      </trkpt>
      <trkpt lat="47.49869" lon="6.6312">
        <ele>464.36512544</ele>
        <time>2014-12-07T10:06:32Z</time>
      </trkpt>
      <trkpt lat="47.49866" lon="6.63119">
        <ele>464.40451951999</ele>
        <time>2014-12-07T10:06:34Z</time>
      </trkpt>
      <trkpt lat="47.49864" lon="6.63119">
        <ele>464.47235648</ele>
        <time>2014-12-07T10:06:35Z</time>
      </trkpt>
      <trkpt lat="47.4986" lon="6.63119">
        <ele>464.64270752</ele>
        <time>2014-12-07T10:06:37Z</time>
      </trkpt>
      <trkpt lat="47.49857" lon="6.6312">
        <ele>464.75820032001</ele>
        <time>2014-12-07T10:06:38Z</time>
      </trkpt>
      <trkpt lat="47.49855" lon="6.6312">
        <ele>464.91937327999</ele>
        <time>2014-12-07T10:06:39Z</time>
      </trkpt>
      <trkpt lat="47.49852" lon="6.63121">
        <ele>465.06424112001</ele>
        <time>2014-12-07T10:06:40Z</time>
      </trkpt>
      <trkpt lat="47.49848" lon="6.63122">
        <ele>465.3062528</ele>
        <time>2014-12-07T10:06:42Z</time>
      </trkpt>
      <trkpt lat="47.49846" lon="6.63122">
        <ele>465.38458207999</ele>
        <time>2014-12-07T10:06:43Z</time>
      </trkpt>
      <trkpt lat="47.49843" lon="6.63123">
        <ele>465.56152112</ele>
        <time>2014-12-07T10:06:45Z</time>
      </trkpt>
      <trkpt lat="47.49842" lon="6.63124">
        <ele>465.64935872</ele>
        <time>2014-12-07T10:06:46Z</time>
      </trkpt>
      <trkpt lat="47.49839" lon="6.63124">
        <ele>465.73050367999</ele>
        <time>2014-12-07T10:06:47Z</time>
      </trkpt>
      <trkpt lat="47.49836" lon="6.63124">
        <ele>465.81038144</ele>
        <time>2014-12-07T10:06:48Z</time>
      </trkpt>
      <trkpt lat="47.49834" lon="6.63123">
        <ele>465.86914303999</ele>
        <time>2014-12-07T10:06:49Z</time>
      </trkpt>
      <trkpt lat="47.49831" lon="6.63123">
        <ele>465.71041792001</ele>
        <time>2014-12-07T10:06:50Z</time>
      </trkpt>
      <trkpt lat="47.49827" lon="6.63123">
        <ele>465.50846656</ele>
        <time>2014-12-07T10:06:52Z</time>
      </trkpt>
      <trkpt lat="47.49825" lon="6.63123">
        <ele>465.44999392001</ele>
        <time>2014-12-07T10:06:53Z</time>
      </trkpt>
      <trkpt lat="47.49823" lon="6.63123">
        <ele>465.28580224001</ele>
        <time>2014-12-07T10:06:55Z</time>
      </trkpt>
      <trkpt lat="47.49821" lon="6.63122">
        <ele>465.15697407999</ele>
        <time>2014-12-07T10:06:56Z</time>
      </trkpt>
      <trkpt lat="47.49817" lon="6.63121">
        <ele>464.89085919999</ele>
        <time>2014-12-07T10:06:58Z</time>
      </trkpt>
      <trkpt lat="47.49815" lon="6.6312">
        <ele>464.74860352</ele>
        <time>2014-12-07T10:06:59Z</time>
      </trkpt>
      <trkpt lat="47.49809" lon="6.63119">
        <ele>464.41547776001</ele>
        <time>2014-12-07T10:07:02Z</time>
      </trkpt>
      <trkpt lat="47.49805" lon="6.63119">
        <ele>464.213704</ele>
        <time>2014-12-07T10:07:04Z</time>
      </trkpt>
      <trkpt lat="47.49802" lon="6.6312">
        <ele>464.09540319999</ele>
        <time>2014-12-07T10:07:05Z</time>
      </trkpt>
      <trkpt lat="47.49799" lon="6.6312">
        <ele>463.96533135999</ele>
        <time>2014-12-07T10:07:06Z</time>
      </trkpt>
      <trkpt lat="47.49796" lon="6.63121">
        <ele>463.84012672001</ele>
        <time>2014-12-07T10:07:07Z</time>
      </trkpt>
      <trkpt lat="47.49792" lon="6.63123">
        <ele>463.71373168</ele>
        <time>2014-12-07T10:07:08Z</time>
      </trkpt>
      <trkpt lat="47.49789" lon="6.63124">
        <ele>463.57610992</ele>
        <time>2014-12-07T10:07:09Z</time>
      </trkpt>
      <trkpt lat="47.49786" lon="6.63125">
        <ele>463.41937840001</ele>
        <time>2014-12-07T10:07:10Z</time>
      </trkpt>
      <trkpt lat="47.49782" lon="6.63126">
        <ele>463.23220864</ele>
        <time>2014-12-07T10:07:11Z</time>
      </trkpt>
      <trkpt lat="47.49778" lon="6.63127">
        <ele>463.02836992001</ele>
        <time>2014-12-07T10:07:12Z</time>
      </trkpt>
      <trkpt lat="47.49774" lon="6.63129">
        <ele>462.84565407999</ele>
        <time>2014-12-07T10:07:13Z</time>
      </trkpt>
      <trkpt lat="47.49771" lon="6.63129">
        <ele>462.66758896</ele>
        <time>2014-12-07T10:07:14Z</time>
      </trkpt>
      <trkpt lat="47.49768" lon="6.63129">
        <ele>462.47508543999</ele>
        <time>2014-12-07T10:07:15Z</time>
      </trkpt>
      <trkpt lat="47.49765" lon="6.63129">
        <ele>462.29267919999</ele>
        <time>2014-12-07T10:07:16Z</time>
      </trkpt>
      <trkpt lat="47.49761" lon="6.63128">
        <ele>462.09729088</ele>
        <time>2014-12-07T10:07:17Z</time>
      </trkpt>
      <trkpt lat="47.49758" lon="6.63127">
        <ele>461.90859472</ele>
        <time>2014-12-07T10:07:18Z</time>
      </trkpt>
      <trkpt lat="47.49754" lon="6.63125">
        <ele>461.7144064</ele>
        <time>2014-12-07T10:07:19Z</time>
      </trkpt>
      <trkpt lat="47.4975" lon="6.63124">
        <ele>461.53667584</ele>
        <time>2014-12-07T10:07:20Z</time>
      </trkpt>
      <trkpt lat="47.49746" lon="6.63122">
        <ele>461.64859839999</ele>
        <time>2014-12-07T10:07:21Z</time>
      </trkpt>
      <trkpt lat="47.49742" lon="6.63121">
        <ele>461.78998960001</ele>
        <time>2014-12-07T10:07:22Z</time>
      </trkpt>
      <trkpt lat="47.49738" lon="6.63119">
        <ele>461.95232559999</ele>
        <time>2014-12-07T10:07:23Z</time>
      </trkpt>
      <trkpt lat="47.49733" lon="6.63117">
        <ele>462.12367936</ele>
        <time>2014-12-07T10:07:24Z</time>
      </trkpt>
      <trkpt lat="47.49728" lon="6.63114">
        <ele>462.31447552001</ele>
        <time>2014-12-07T10:07:25Z</time>
      </trkpt>
      <trkpt lat="47.49722" lon="6.63112">
        <ele>462.54045951999</ele>
        <time>2014-12-07T10:07:26Z</time>
      </trkpt>
      <trkpt lat="47.49716" lon="6.63109">
        <ele>462.77895952</ele>
        <time>2014-12-07T10:07:27Z</time>
      </trkpt>
      <trkpt lat="47.4971" lon="6.63106">
        <ele>463.04604592</ele>
        <time>2014-12-07T10:07:28Z</time>
      </trkpt>
      <trkpt lat="47.49703" lon="6.63103">
        <ele>463.31294559999</ele>
        <time>2014-12-07T10:07:29Z</time>
      </trkpt>
      <trkpt lat="47.49697" lon="6.63101">
        <ele>463.58104240001</ele>
        <time>2014-12-07T10:07:30Z</time>
      </trkpt>
      <trkpt lat="47.49691" lon="6.63098">
        <ele>463.82534272</ele>
        <time>2014-12-07T10:07:31Z</time>
      </trkpt>
      <trkpt lat="47.49685" lon="6.63096">
        <ele>464.06644528001</ele>
        <time>2014-12-07T10:07:32Z</time>
      </trkpt>
      <trkpt lat="47.49679" lon="6.63094">
        <ele>464.31525904001</ele>
        <time>2014-12-07T10:07:33Z</time>
      </trkpt>
      <trkpt lat="47.49673" lon="6.63091">
        <ele>464.58458032001</ele>
        <time>2014-12-07T10:07:34Z</time>
      </trkpt>
      <trkpt lat="47.49667" lon="6.63089">
        <ele>464.85001984001</ele>
        <time>2014-12-07T10:07:35Z</time>
      </trkpt>
      <trkpt lat="47.49662" lon="6.63086">
        <ele>464.93745792</ele>
        <time>2014-12-07T10:07:36Z</time>
      </trkpt>
      <trkpt lat="47.49656" lon="6.63084">
        <ele>464.98083072</ele>
        <time>2014-12-07T10:07:37Z</time>
      </trkpt>
      <trkpt lat="47.49651" lon="6.63083">
        <ele>464.93436768</ele>
        <time>2014-12-07T10:07:38Z</time>
      </trkpt>
      <trkpt lat="47.49645" lon="6.63082">
        <ele>464.8001664</ele>
        <time>2014-12-07T10:07:39Z</time>
      </trkpt>
      <trkpt lat="47.4964" lon="6.63081">
        <ele>464.65385280001</ele>
        <time>2014-12-07T10:07:40Z</time>
      </trkpt>
      <trkpt lat="47.49635" lon="6.63079">
        <ele>464.4081648</ele>
        <time>2014-12-07T10:07:41Z</time>
      </trkpt>
      <trkpt lat="47.49629" lon="6.63077">
        <ele>464.13944832</ele>
        <time>2014-12-07T10:07:42Z</time>
      </trkpt>
      <trkpt lat="47.49623" lon="6.63075">
        <ele>463.81961664</ele>
        <time>2014-12-07T10:07:43Z</time>
      </trkpt>
      <trkpt lat="47.49617" lon="6.63072">
        <ele>463.33777151999</ele>
        <time>2014-12-07T10:07:44Z</time>
      </trkpt>
      <trkpt lat="47.49611" lon="6.63069">
        <ele>462.96454272</ele>
        <time>2014-12-07T10:07:45Z</time>
      </trkpt>
      <trkpt lat="47.49606" lon="6.63066">
        <ele>462.62803392</ele>
        <time>2014-12-07T10:07:46Z</time>
      </trkpt>
      <trkpt lat="47.49601" lon="6.63064">
        <ele>462.2976384</ele>
        <time>2014-12-07T10:07:47Z</time>
      </trkpt>
      <trkpt lat="47.49595" lon="6.63061">
        <ele>461.9788896</ele>
        <time>2014-12-07T10:07:48Z</time>
      </trkpt>
      <trkpt lat="47.49589" lon="6.63058">
        <ele>461.6049552</ele>
        <time>2014-12-07T10:07:49Z</time>
      </trkpt>
      <trkpt lat="47.49582" lon="6.63054">
        <ele>461.14747200001</ele>
        <time>2014-12-07T10:07:50Z</time>
      </trkpt>
      <trkpt lat="47.49575" lon="6.63051">
        <ele>460.64115840001</ele>
        <time>2014-12-07T10:07:51Z</time>
      </trkpt>
      <trkpt lat="47.49569" lon="6.63048">
        <ele>460.20576479999</ele>
        <time>2014-12-07T10:07:52Z</time>
      </trkpt>
      <trkpt lat="47.49562" lon="6.63045">
        <ele>459.7741584</ele>
        <time>2014-12-07T10:07:53Z</time>
      </trkpt>
      <trkpt lat="47.49556" lon="6.63042">
        <ele>459.3840408</ele>
        <time>2014-12-07T10:07:54Z</time>
      </trkpt>
      <trkpt lat="47.4955" lon="6.63039">
        <ele>459.0028032</ele>
        <time>2014-12-07T10:07:55Z</time>
      </trkpt>
      <trkpt lat="47.49545" lon="6.63036">
        <ele>458.6784</ele>
        <time>2014-12-07T10:07:56Z</time>
      </trkpt>
      <trkpt lat="47.49522" lon="6.63049">
        <ele>459.775032</ele>
        <time>2014-12-07T10:07:57Z</time>
      </trkpt>
      <trkpt lat="47.4952" lon="6.63055">
        <ele>460.22422799999</ele>
        <time>2014-12-07T10:07:59Z</time>
      </trkpt>
      <trkpt lat="47.49517" lon="6.63055">
        <ele>460.17698399999</ele>
        <time>2014-12-07T10:08:02Z</time>
      </trkpt>
      <trkpt lat="47.49514" lon="6.63052">
        <ele>459.91726799999</ele>
        <time>2014-12-07T10:08:04Z</time>
      </trkpt>
      <trkpt lat="47.49512" lon="6.63051">
        <ele>459.80169839999</ele>
        <time>2014-12-07T10:08:05Z</time>
      </trkpt>
      <trkpt lat="47.4951" lon="6.63046">
        <ele>459.39864</ele>
        <time>2014-12-07T10:08:09Z</time>
      </trkpt>
      <trkpt lat="47.49509" lon="6.63046">
        <ele>459.35221199999</ele>
        <time>2014-12-07T10:08:10Z</time>
      </trkpt>
      <trkpt lat="47.49505" lon="6.63042">
        <ele>459.0834816</ele>
        <time>2014-12-07T10:08:28Z</time>
      </trkpt>
      <trkpt lat="47.49505" lon="6.63042">
        <ele>459.0834816</ele>
        <time>2014-12-07T10:08:29Z</time>
      </trkpt>
      <trkpt lat="47.49502" lon="6.63039">
        <ele>458.8022592</ele>
        <time>2014-12-07T10:09:06Z</time>
      </trkpt>
      <trkpt lat="47.49502" lon="6.63037">
        <ele>458.675268</ele>
        <time>2014-12-07T10:09:07Z</time>
      </trkpt>
      <trkpt lat="47.495" lon="6.63033">
        <ele>458.37172704001</ele>
        <time>2014-12-07T10:09:09Z</time>
      </trkpt>
      <trkpt lat="47.49499" lon="6.63031">
        <ele>458.19804960001</ele>
        <time>2014-12-07T10:09:10Z</time>
      </trkpt>
      <trkpt lat="47.49497" lon="6.63028">
        <ele>457.84210175999</ele>
        <time>2014-12-07T10:09:12Z</time>
      </trkpt>
      <trkpt lat="47.49496" lon="6.63026">
        <ele>457.64712480001</ele>
        <time>2014-12-07T10:09:13Z</time>
      </trkpt>
      <trkpt lat="47.49494" lon="6.63022">
        <ele>457.27536384001</ele>
        <time>2014-12-07T10:09:15Z</time>
      </trkpt>
      <trkpt lat="47.49492" lon="6.6302">
        <ele>457.08913824001</ele>
        <time>2014-12-07T10:09:16Z</time>
      </trkpt>
      <trkpt lat="47.4949" lon="6.63017">
        <ele>456.7859304</ele>
        <time>2014-12-07T10:09:18Z</time>
      </trkpt>
      <trkpt lat="47.49488" lon="6.63016">
        <ele>456.67630608001</ele>
        <time>2014-12-07T10:09:19Z</time>
      </trkpt>
      <trkpt lat="47.49484" lon="6.63015">
        <ele>456.45901487999</ele>
        <time>2014-12-07T10:09:21Z</time>
      </trkpt>
      <trkpt lat="47.49481" lon="6.63015">
        <ele>456.31170911999</ele>
        <time>2014-12-07T10:09:22Z</time>
      </trkpt>
      <trkpt lat="47.49478" lon="6.63013">
        <ele>456.11475456</ele>
        <time>2014-12-07T10:09:23Z</time>
      </trkpt>
      <trkpt lat="47.49474" lon="6.63012">
        <ele>455.8919304</ele>
        <time>2014-12-07T10:09:24Z</time>
      </trkpt>
      <trkpt lat="47.49469" lon="6.63009">
        <ele>455.64166848</ele>
        <time>2014-12-07T10:09:25Z</time>
      </trkpt>
      <trkpt lat="47.49465" lon="6.63007">
        <ele>455.39987328</ele>
        <time>2014-12-07T10:09:26Z</time>
      </trkpt>
      <trkpt lat="47.4946" lon="6.63004">
        <ele>455.16038399999</ele>
        <time>2014-12-07T10:09:27Z</time>
      </trkpt>
      <trkpt lat="47.49455" lon="6.63">
        <ele>454.92821568</ele>
        <time>2014-12-07T10:09:28Z</time>
      </trkpt>
      <trkpt lat="47.49449" lon="6.62997">
        <ele>454.39038336001</ele>
        <time>2014-12-07T10:09:29Z</time>
      </trkpt>
      <trkpt lat="47.49436" lon="6.62991">
        <ele>453.30744576001</ele>
        <time>2014-12-07T10:09:30Z</time>
      </trkpt>
      <trkpt lat="47.4943" lon="6.62989">
        <ele>453.01139904</ele>
        <time>2014-12-07T10:09:31Z</time>
      </trkpt>
      <trkpt lat="47.49422" lon="6.62989">
        <ele>452.86249344</ele>
        <time>2014-12-07T10:09:32Z</time>
      </trkpt>
      <trkpt lat="47.49415" lon="6.62984">
        <ele>452.20931840001</ele>
        <time>2014-12-07T10:09:33Z</time>
      </trkpt>
      <trkpt lat="47.49407" lon="6.62981">
        <ele>451.55328319999</ele>
        <time>2014-12-07T10:09:34Z</time>
      </trkpt>
      <trkpt lat="47.494" lon="6.62979">
        <ele>451.09780735999</ele>
        <time>2014-12-07T10:09:35Z</time>
      </trkpt>
      <trkpt lat="47.49394" lon="6.62977">
        <ele>450.66703039999</ele>
        <time>2014-12-07T10:09:36Z</time>
      </trkpt>
      <trkpt lat="47.49387" lon="6.62973">
        <ele>450.14346943999</ele>
        <time>2014-12-07T10:09:37Z</time>
      </trkpt>
      <trkpt lat="47.4938" lon="6.62969">
        <ele>449.53502336001</ele>
        <time>2014-12-07T10:09:38Z</time>
      </trkpt>
      <trkpt lat="47.49374" lon="6.62966">
        <ele>449.09889920001</ele>
        <time>2014-12-07T10:09:39Z</time>
      </trkpt>
      <trkpt lat="47.49367" lon="6.62962">
        <ele>448.60973696</ele>
        <time>2014-12-07T10:09:40Z</time>
      </trkpt>
      <trkpt lat="47.4936" lon="6.62962">
        <ele>448.37089280001</ele>
        <time>2014-12-07T10:09:41Z</time>
      </trkpt>
      <trkpt lat="47.49354" lon="6.62959">
        <ele>448.0031648</ele>
        <time>2014-12-07T10:09:42Z</time>
      </trkpt>
      <trkpt lat="47.49347" lon="6.62955">
        <ele>447.5721824</ele>
        <time>2014-12-07T10:09:43Z</time>
      </trkpt>
      <trkpt lat="47.49339" lon="6.6295">
        <ele>447.09108224</ele>
        <time>2014-12-07T10:09:44Z</time>
      </trkpt>
      <trkpt lat="47.49333" lon="6.62944">
        <ele>446.65161664001</ele>
        <time>2014-12-07T10:09:45Z</time>
      </trkpt>
      <trkpt lat="47.49326" lon="6.62942">
        <ele>446.18425696001</ele>
        <time>2014-12-07T10:09:46Z</time>
      </trkpt>
      <trkpt lat="47.49319" lon="6.6294">
        <ele>445.76191552001</ele>
        <time>2014-12-07T10:09:47Z</time>
      </trkpt>
      <trkpt lat="47.49312" lon="6.62938">
        <ele>445.39594816001</ele>
        <time>2014-12-07T10:09:48Z</time>
      </trkpt>
      <trkpt lat="47.49306" lon="6.62936">
        <ele>445.05149439999</ele>
        <time>2014-12-07T10:09:49Z</time>
      </trkpt>
      <trkpt lat="47.49299" lon="6.62932">
        <ele>444.66080512001</ele>
        <time>2014-12-07T10:09:50Z</time>
      </trkpt>
      <trkpt lat="47.49292" lon="6.62929">
        <ele>444.29847808</ele>
        <time>2014-12-07T10:09:51Z</time>
      </trkpt>
      <trkpt lat="47.49285" lon="6.62927">
        <ele>444.0323584</ele>
        <time>2014-12-07T10:09:52Z</time>
      </trkpt>
      <trkpt lat="47.49279" lon="6.62922">
        <ele>443.75475711999</ele>
        <time>2014-12-07T10:09:53Z</time>
      </trkpt>
      <trkpt lat="47.49272" lon="6.62917">
        <ele>443.51621919999</ele>
        <time>2014-12-07T10:09:54Z</time>
      </trkpt>
      <trkpt lat="47.49264" lon="6.62914">
        <ele>443.05622016</ele>
        <time>2014-12-07T10:09:55Z</time>
      </trkpt>
      <trkpt lat="47.49255" lon="6.62909">
        <ele>442.44996575999</ele>
        <time>2014-12-07T10:09:56Z</time>
      </trkpt>
      <trkpt lat="47.49245" lon="6.62906">
        <ele>441.64580736</ele>
        <time>2014-12-07T10:09:57Z</time>
      </trkpt>
      <trkpt lat="47.49237" lon="6.62902">
        <ele>440.50967039999</ele>
        <time>2014-12-07T10:09:58Z</time>
      </trkpt>
      <trkpt lat="47.49225" lon="6.62897">
        <ele>439.06877279998</ele>
        <time>2014-12-07T10:09:59Z</time>
      </trkpt>
      <trkpt lat="47.49196" lon="6.62888">
        <ele>436.08362783999</ele>
        <time>2014-12-07T10:10:02Z</time>
      </trkpt>
      <trkpt lat="47.49186" lon="6.62887">
        <ele>435.24667680002</ele>
        <time>2014-12-07T10:10:03Z</time>
      </trkpt>
      <trkpt lat="47.49177" lon="6.62884">
        <ele>434.43653760002</ele>
        <time>2014-12-07T10:10:04Z</time>
      </trkpt>
      <trkpt lat="47.49172" lon="6.62885">
        <ele>434.08101888</ele>
        <time>2014-12-07T10:10:05Z</time>
      </trkpt>
      <trkpt lat="47.49169" lon="6.62884">
        <ele>433.77433823999</ele>
        <time>2014-12-07T10:10:06Z</time>
      </trkpt>
      <trkpt lat="47.49167" lon="6.62884">
        <ele>433.65054720001</ele>
        <time>2014-12-07T10:10:07Z</time>
      </trkpt>
      <trkpt lat="47.49164" lon="6.62883">
        <ele>433.46902816002</ele>
        <time>2014-12-07T10:10:08Z</time>
      </trkpt>
      <trkpt lat="47.49162" lon="6.62881">
        <ele>433.33154272001</ele>
        <time>2014-12-07T10:10:09Z</time>
      </trkpt>
      <trkpt lat="47.49159" lon="6.62879">
        <ele>433.14624255999</ele>
        <time>2014-12-07T10:10:11Z</time>
      </trkpt>
      <trkpt lat="47.49155" lon="6.62878">
        <ele>432.96667648</ele>
        <time>2014-12-07T10:10:12Z</time>
      </trkpt>
      <trkpt lat="47.49151" lon="6.62879">
        <ele>432.75780351999</ele>
        <time>2014-12-07T10:10:13Z</time>
      </trkpt>
      <trkpt lat="47.49148" lon="6.6288">
        <ele>432.5906128</ele>
        <time>2014-12-07T10:10:15Z</time>
      </trkpt>
      <trkpt lat="47.49146" lon="6.6288">
        <ele>432.46363551998</ele>
        <time>2014-12-07T10:10:16Z</time>
      </trkpt>
      <trkpt lat="47.49141" lon="6.6288">
        <ele>432.2273968</ele>
        <time>2014-12-07T10:10:17Z</time>
      </trkpt>
      <trkpt lat="47.49138" lon="6.62879">
        <ele>432.05875455999</ele>
        <time>2014-12-07T10:10:17Z</time>
      </trkpt>
      <trkpt lat="47.49133" lon="6.62878">
        <ele>431.81235423999</ele>
        <time>2014-12-07T10:10:19Z</time>
      </trkpt>
      <trkpt lat="47.49129" lon="6.62878">
        <ele>431.65365951999</ele>
        <time>2014-12-07T10:10:19Z</time>
      </trkpt>
      <trkpt lat="47.49125" lon="6.62877">
        <ele>431.439352</ele>
        <time>2014-12-07T10:10:21Z</time>
      </trkpt>
      <trkpt lat="47.4912" lon="6.62876">
        <ele>431.26036959999</ele>
        <time>2014-12-07T10:10:22Z</time>
      </trkpt>
      <trkpt lat="47.49116" lon="6.62875">
        <ele>431.09340160001</ele>
        <time>2014-12-07T10:10:23Z</time>
      </trkpt>
      <trkpt lat="47.49112" lon="6.62873">
        <ele>430.93237120001</ele>
        <time>2014-12-07T10:10:24Z</time>
      </trkpt>
      <trkpt lat="47.49108" lon="6.62872">
        <ele>430.79164576</ele>
        <time>2014-12-07T10:10:25Z</time>
      </trkpt>
      <trkpt lat="47.49104" lon="6.62871">
        <ele>430.65589888002</ele>
        <time>2014-12-07T10:10:26Z</time>
      </trkpt>
      <trkpt lat="47.491" lon="6.6287">
        <ele>430.50593344001</ele>
        <time>2014-12-07T10:10:27Z</time>
      </trkpt>
      <trkpt lat="47.49095" lon="6.62869">
        <ele>430.35746655999</ele>
        <time>2014-12-07T10:10:28Z</time>
      </trkpt>
      <trkpt lat="47.49092" lon="6.62869">
        <ele>430.21495840001</ele>
        <time>2014-12-07T10:10:28Z</time>
      </trkpt>
      <trkpt lat="47.49086" lon="6.62868">
        <ele>430.03871391999</ele>
        <time>2014-12-07T10:10:30Z</time>
      </trkpt>
      <trkpt lat="47.49079" lon="6.62866">
        <ele>429.94536191999</ele>
        <time>2014-12-07T10:10:31Z</time>
      </trkpt>
      <trkpt lat="47.49075" lon="6.62865">
        <ele>429.86348352</ele>
        <time>2014-12-07T10:10:32Z</time>
      </trkpt>
      <trkpt lat="47.49072" lon="6.62865">
        <ele>429.76210368</ele>
        <time>2014-12-07T10:10:33Z</time>
      </trkpt>
      <trkpt lat="47.49068" lon="6.62865">
        <ele>429.66801023999</ele>
        <time>2014-12-07T10:10:34Z</time>
      </trkpt>
      <trkpt lat="47.49066" lon="6.62865">
        <ele>429.58509888</ele>
        <time>2014-12-07T10:10:35Z</time>
      </trkpt>
      <trkpt lat="47.49064" lon="6.62865">
        <ele>429.52356287999</ele>
        <time>2014-12-07T10:10:36Z</time>
      </trkpt>
      <trkpt lat="47.49061" lon="6.62865">
        <ele>429.447264</ele>
        <time>2014-12-07T10:10:37Z</time>
      </trkpt>
      <trkpt lat="47.4906" lon="6.62859">
        <ele>429.70427136</ele>
        <time>2014-12-07T10:12:32Z</time>
      </trkpt>
      <trkpt lat="47.49059" lon="6.62858">
        <ele>429.70473024001</ele>
        <time>2014-12-07T10:12:33Z</time>
      </trkpt>
      <trkpt lat="47.49055" lon="6.62854">
        <ele>429.719808</ele>
        <time>2014-12-07T10:12:35Z</time>
      </trkpt>
      <trkpt lat="47.49054" lon="6.62853">
        <ele>429.73631615999</ele>
        <time>2014-12-07T10:12:36Z</time>
      </trkpt>
      <trkpt lat="47.4905" lon="6.62849">
        <ele>429.76818432001</ele>
        <time>2014-12-07T10:12:42Z</time>
      </trkpt>
      <trkpt lat="47.4905" lon="6.62849">
        <ele>429.76061184001</ele>
        <time>2014-12-07T10:12:43Z</time>
      </trkpt>
      <trkpt lat="47.49049" lon="6.62855">
        <ele>429.47427071999</ele>
        <time>2014-12-07T10:12:50Z</time>
      </trkpt>
      <trkpt lat="47.49049" lon="6.62858">
        <ele>429.35110272</ele>
        <time>2014-12-07T10:12:51Z</time>
      </trkpt>
      <trkpt lat="47.4905" lon="6.62863">
        <ele>429.20280576</ele>
        <time>2014-12-07T10:12:52Z</time>
      </trkpt>
      <trkpt lat="47.4905" lon="6.62867">
        <ele>429.03374016</ele>
        <time>2014-12-07T10:12:53Z</time>
      </trkpt>
      <trkpt lat="47.49051" lon="6.62872">
        <ele>428.85381888001</ele>
        <time>2014-12-07T10:12:54Z</time>
      </trkpt>
      <trkpt lat="47.49051" lon="6.62877">
        <ele>428.66472192</ele>
        <time>2014-12-07T10:12:55Z</time>
      </trkpt>
      <trkpt lat="47.49052" lon="6.62882">
        <ele>428.4672096</ele>
        <time>2014-12-07T10:12:56Z</time>
      </trkpt>
      <trkpt lat="47.49052" lon="6.62887">
        <ele>428.24297472</ele>
        <time>2014-12-07T10:12:57Z</time>
      </trkpt>
      <trkpt lat="47.49053" lon="6.62893">
        <ele>428.00495808</ele>
        <time>2014-12-07T10:12:58Z</time>
      </trkpt>
      <trkpt lat="47.49054" lon="6.629">
        <ele>427.73328576</ele>
        <time>2014-12-07T10:12:59Z</time>
      </trkpt>
      <trkpt lat="47.49055" lon="6.62907">
        <ele>427.43764032</ele>
        <time>2014-12-07T10:13:00Z</time>
      </trkpt>
      <trkpt lat="47.49058" lon="6.62924">
        <ele>426.80594752</ele>
        <time>2014-12-07T10:13:03Z</time>
      </trkpt>
      <trkpt lat="47.49059" lon="6.6293">
        <ele>426.6474016</ele>
        <time>2014-12-07T10:13:04Z</time>
      </trkpt>
      <trkpt lat="47.4906" lon="6.62935">
        <ele>426.490192</ele>
        <time>2014-12-07T10:13:05Z</time>
      </trkpt>
      <trkpt lat="47.49058" lon="6.62955">
        <ele>425.93850208</ele>
        <time>2014-12-07T10:13:06Z</time>
      </trkpt>
      <trkpt lat="47.49058" lon="6.62964">
        <ele>425.68164352</ele>
        <time>2014-12-07T10:13:07Z</time>
      </trkpt>
      <trkpt lat="47.49058" lon="6.62973">
        <ele>425.4507904</ele>
        <time>2014-12-07T10:13:08Z</time>
      </trkpt>
      <trkpt lat="47.49056" lon="6.62981">
        <ele>425.2111648</ele>
        <time>2014-12-07T10:13:09Z</time>
      </trkpt>
      <trkpt lat="47.49056" lon="6.62988">
        <ele>425.01691648</ele>
        <time>2014-12-07T10:13:10Z</time>
      </trkpt>
      <trkpt lat="47.49056" lon="6.62992">
        <ele>424.88928544</ele>
        <time>2014-12-07T10:13:11Z</time>
      </trkpt>
      <trkpt lat="47.49056" lon="6.62997">
        <ele>424.76370304</ele>
        <time>2014-12-07T10:13:12Z</time>
      </trkpt>
      <trkpt lat="47.49056" lon="6.63001">
        <ele>424.6684048</ele>
        <time>2014-12-07T10:13:13Z</time>
      </trkpt>
      <trkpt lat="47.49055" lon="6.63006">
        <ele>424.683664</ele>
        <time>2014-12-07T10:13:14Z</time>
      </trkpt>
      <trkpt lat="47.49055" lon="6.63011">
        <ele>424.70679376</ele>
        <time>2014-12-07T10:13:15Z</time>
      </trkpt>
      <trkpt lat="47.49055" lon="6.63016">
        <ele>424.72154656</ele>
        <time>2014-12-07T10:13:16Z</time>
      </trkpt>
      <trkpt lat="47.49054" lon="6.63022">
        <ele>424.74012736</ele>
        <time>2014-12-07T10:13:17Z</time>
      </trkpt>
      <trkpt lat="47.49054" lon="6.63027">
        <ele>424.76492896</ele>
        <time>2014-12-07T10:13:18Z</time>
      </trkpt>
      <trkpt lat="47.49052" lon="6.63034">
        <ele>424.77980416</ele>
        <time>2014-12-07T10:13:19Z</time>
      </trkpt>
      <trkpt lat="47.49051" lon="6.6304">
        <ele>424.80041344</ele>
        <time>2014-12-07T10:13:20Z</time>
      </trkpt>
      <trkpt lat="47.4905" lon="6.63046">
        <ele>424.82272</ele>
        <time>2014-12-07T10:13:21Z</time>
      </trkpt>
      <trkpt lat="47.49049" lon="6.63052">
        <ele>424.84787008</ele>
        <time>2014-12-07T10:13:22Z</time>
      </trkpt>
      <trkpt lat="47.49049" lon="6.63057">
        <ele>424.87204096</ele>
        <time>2014-12-07T10:13:23Z</time>
      </trkpt>
      <trkpt lat="47.4905" lon="6.63062">
        <ele>424.8969856</ele>
        <time>2014-12-07T10:13:24Z</time>
      </trkpt>
      <trkpt lat="47.49051" lon="6.63067">
        <ele>424.92160768</ele>
        <time>2014-12-07T10:13:25Z</time>
      </trkpt>
      <trkpt lat="47.49051" lon="6.63072">
        <ele>424.94880448</ele>
        <time>2014-12-07T10:13:26Z</time>
      </trkpt>
      <trkpt lat="47.49052" lon="6.63079">
        <ele>424.9779136</ele>
        <time>2014-12-07T10:13:27Z</time>
      </trkpt>
      <trkpt lat="47.49052" lon="6.63085">
        <ele>425.07159664</ele>
        <time>2014-12-07T10:13:28Z</time>
      </trkpt>
      <trkpt lat="47.49052" lon="6.63092">
        <ele>425.3306128</ele>
        <time>2014-12-07T10:13:29Z</time>
      </trkpt>
      <trkpt lat="47.49053" lon="6.63097">
        <ele>425.56804576</ele>
        <time>2014-12-07T10:13:30Z</time>
      </trkpt>
      <trkpt lat="47.49054" lon="6.63103">
        <ele>425.8005472</ele>
        <time>2014-12-07T10:13:31Z</time>
      </trkpt>
      <trkpt lat="47.49054" lon="6.63109">
        <ele>426.01596256</ele>
        <time>2014-12-07T10:13:32Z</time>
      </trkpt>
      <trkpt lat="47.49055" lon="6.63114">
        <ele>426.23891392</ele>
        <time>2014-12-07T10:13:33Z</time>
      </trkpt>
      <trkpt lat="47.49055" lon="6.6312">
        <ele>426.4490392</ele>
        <time>2014-12-07T10:13:34Z</time>
      </trkpt>
      <trkpt lat="47.49056" lon="6.63125">
        <ele>426.664</ele>
        <time>2014-12-07T10:13:35Z</time>
      </trkpt>
      <trkpt lat="47.49057" lon="6.63131">
        <ele>426.90333184</ele>
        <time>2014-12-07T10:13:36Z</time>
      </trkpt>
      <trkpt lat="47.49059" lon="6.63138">
        <ele>427.15478848</ele>
        <time>2014-12-07T10:13:37Z</time>
      </trkpt>
      <trkpt lat="47.4906" lon="6.63145">
        <ele>427.42757824</ele>
        <time>2014-12-07T10:13:38Z</time>
      </trkpt>
      <trkpt lat="47.49062" lon="6.63153">
        <ele>427.703476</ele>
        <time>2014-12-07T10:13:39Z</time>
      </trkpt>
      <trkpt lat="47.49063" lon="6.6316">
        <ele>427.9883728</ele>
        <time>2014-12-07T10:13:40Z</time>
      </trkpt>
      <trkpt lat="47.49066" lon="6.63184">
        <ele>427.9556608</ele>
        <time>2014-12-07T10:13:41Z</time>
      </trkpt>
      <trkpt lat="47.49065" lon="6.63195">
        <ele>427.80248896</ele>
        <time>2014-12-07T10:13:42Z</time>
      </trkpt>
      <trkpt lat="47.49064" lon="6.63206">
        <ele>427.6553248</ele>
        <time>2014-12-07T10:13:43Z</time>
      </trkpt>
      <trkpt lat="47.49063" lon="6.63214">
        <ele>427.53384736</ele>
        <time>2014-12-07T10:13:44Z</time>
      </trkpt>
      <trkpt lat="47.49064" lon="6.63218">
        <ele>427.46899456</ele>
        <time>2014-12-07T10:13:45Z</time>
      </trkpt>
      <trkpt lat="47.49065" lon="6.63224">
        <ele>427.3875784</ele>
        <time>2014-12-07T10:13:46Z</time>
      </trkpt>
      <trkpt lat="47.49067" lon="6.63231">
        <ele>427.26587584</ele>
        <time>2014-12-07T10:13:47Z</time>
      </trkpt>
      <trkpt lat="47.49068" lon="6.63238">
        <ele>427.1676544</ele>
        <time>2014-12-07T10:13:48Z</time>
      </trkpt>
      <trkpt lat="47.49068" lon="6.63245">
        <ele>427.07418112</ele>
        <time>2014-12-07T10:13:49Z</time>
      </trkpt>
      <trkpt lat="47.49068" lon="6.63251">
        <ele>426.92882032</ele>
        <time>2014-12-07T10:13:50Z</time>
      </trkpt>
      <trkpt lat="47.49068" lon="6.63255">
        <ele>426.70456384</ele>
        <time>2014-12-07T10:13:51Z</time>
      </trkpt>
      <trkpt lat="47.4907" lon="6.63261">
        <ele>426.3846736</ele>
        <time>2014-12-07T10:13:52Z</time>
      </trkpt>
      <trkpt lat="47.4907" lon="6.63267">
        <ele>426.09218608</ele>
        <time>2014-12-07T10:13:53Z</time>
      </trkpt>
      <trkpt lat="47.49071" lon="6.63273">
        <ele>425.79088192</ele>
        <time>2014-12-07T10:13:54Z</time>
      </trkpt>
      <trkpt lat="47.49072" lon="6.6328">
        <ele>425.41453455999</ele>
        <time>2014-12-07T10:13:55Z</time>
      </trkpt>
      <trkpt lat="47.49073" lon="6.63288">
        <ele>425.008696</ele>
        <time>2014-12-07T10:13:56Z</time>
      </trkpt>
      <trkpt lat="47.49073" lon="6.63297">
        <ele>424.55277184001</ele>
        <time>2014-12-07T10:13:57Z</time>
      </trkpt>
      <trkpt lat="47.49075" lon="6.63306">
        <ele>424.10348559999</ele>
        <time>2014-12-07T10:13:58Z</time>
      </trkpt>
      <trkpt lat="47.49076" lon="6.63315">
        <ele>423.6549016</ele>
        <time>2014-12-07T10:13:59Z</time>
      </trkpt>
      <trkpt lat="47.49077" lon="6.6334">
        <ele>422.45566464</ele>
        <time>2014-12-07T10:14:02Z</time>
      </trkpt>
      <trkpt lat="47.49078" lon="6.63348">
        <ele>422.12810207999</ele>
        <time>2014-12-07T10:14:03Z</time>
      </trkpt>
      <trkpt lat="47.49079" lon="6.63355">
        <ele>421.80987456</ele>
        <time>2014-12-07T10:14:04Z</time>
      </trkpt>
      <trkpt lat="47.49081" lon="6.63363">
        <ele>421.48133184001</ele>
        <time>2014-12-07T10:14:05Z</time>
      </trkpt>
      <trkpt lat="47.49082" lon="6.63372">
        <ele>421.10776848</ele>
        <time>2014-12-07T10:14:06Z</time>
      </trkpt>
      <trkpt lat="47.49091" lon="6.63404">
        <ele>419.90829359999</ele>
        <time>2014-12-07T10:14:07Z</time>
      </trkpt>
      <trkpt lat="47.49092" lon="6.63416">
        <ele>419.43737855999</ele>
        <time>2014-12-07T10:14:08Z</time>
      </trkpt>
      <trkpt lat="47.49094" lon="6.63427">
        <ele>419.0064</ele>
        <time>2014-12-07T10:14:09Z</time>
      </trkpt>
      <trkpt lat="47.49095" lon="6.63435">
        <ele>418.71840000001</ele>
        <time>2014-12-07T10:14:10Z</time>
      </trkpt>
      <trkpt lat="47.49096" lon="6.63439">
        <ele>418.51199999998</ele>
        <time>2014-12-07T10:14:11Z</time>
      </trkpt>
      <trkpt lat="47.49096" lon="6.63444">
        <ele>418.3104</ele>
        <time>2014-12-07T10:14:12Z</time>
      </trkpt>
      <trkpt lat="47.49097" lon="6.63446">
        <ele>418.22399999999</ele>
        <time>2014-12-07T10:14:14Z</time>
      </trkpt>
      <trkpt lat="47.49098" lon="6.6345">
        <ele>418.14719999999</ele>
        <time>2014-12-07T10:14:15Z</time>
      </trkpt>
      <trkpt lat="47.49101" lon="6.63454">
        <ele>418.01759999999</ele>
        <time>2014-12-07T10:14:25Z</time>
      </trkpt>
      <trkpt lat="47.49101" lon="6.63455">
        <ele>417.98399999999</ele>
        <time>2014-12-07T10:14:26Z</time>
      </trkpt>
      <trkpt lat="47.49101" lon="6.63458">
        <ele>417.85920000001</ele>
        <time>2014-12-07T10:14:50Z</time>
      </trkpt>
      <trkpt lat="47.49098" lon="6.63465">
        <ele>417.38399999999</ele>
        <time>2014-12-07T10:14:51Z</time>
      </trkpt>
      <trkpt lat="47.49096" lon="6.63472">
        <ele>416.9184</ele>
        <time>2014-12-07T10:14:52Z</time>
      </trkpt>
      <trkpt lat="47.49093" lon="6.63476">
        <ele>416.61600000002</ele>
        <time>2014-12-07T10:14:53Z</time>
      </trkpt>
      <trkpt lat="47.49091" lon="6.63481">
        <ele>416.30879999999</ele>
        <time>2014-12-07T10:14:54Z</time>
      </trkpt>
      <trkpt lat="47.4909" lon="6.63487">
        <ele>415.91520000001</ele>
        <time>2014-12-07T10:14:55Z</time>
      </trkpt>
      <trkpt lat="47.49086" lon="6.63493">
        <ele>415.45439999999</ele>
        <time>2014-12-07T10:14:56Z</time>
      </trkpt>
      <trkpt lat="47.49082" lon="6.63499">
        <ele>415.0428544</ele>
        <time>2014-12-07T10:14:57Z</time>
      </trkpt>
      <trkpt lat="47.49078" lon="6.63505">
        <ele>415.0624</ele>
        <time>2014-12-07T10:14:58Z</time>
      </trkpt>
      <trkpt lat="47.49074" lon="6.63511">
        <ele>415.1332</ele>
        <time>2014-12-07T10:14:59Z</time>
      </trkpt>
      <trkpt lat="47.49071" lon="6.63517">
        <ele>415.2052</ele>
        <time>2014-12-07T10:15:00Z</time>
      </trkpt>
      <trkpt lat="47.49064" lon="6.63532">
        <ele>415.384</ele>
        <time>2014-12-07T10:15:03Z</time>
      </trkpt>
      <trkpt lat="47.49063" lon="6.63539">
        <ele>415.4668</ele>
        <time>2014-12-07T10:15:04Z</time>
      </trkpt>
      <trkpt lat="47.49063" lon="6.63547">
        <ele>415.558</ele>
        <time>2014-12-07T10:15:05Z</time>
      </trkpt>
      <trkpt lat="47.49062" lon="6.63555">
        <ele>415.6612</ele>
        <time>2014-12-07T10:15:06Z</time>
      </trkpt>
      <trkpt lat="47.49061" lon="6.63561">
        <ele>415.7356</ele>
        <time>2014-12-07T10:15:07Z</time>
      </trkpt>
      <trkpt lat="47.49061" lon="6.63568">
        <ele>415.8148</ele>
        <time>2014-12-07T10:15:08Z</time>
      </trkpt>
      <trkpt lat="47.49061" lon="6.63574">
        <ele>415.8892</ele>
        <time>2014-12-07T10:15:09Z</time>
      </trkpt>
      <trkpt lat="47.49062" lon="6.6358">
        <ele>415.954</ele>
        <time>2014-12-07T10:15:10Z</time>
      </trkpt>
      <trkpt lat="47.49062" lon="6.63585">
        <ele>416.03737856</ele>
        <time>2014-12-07T10:15:11Z</time>
      </trkpt>
      <trkpt lat="47.49062" lon="6.63591">
        <ele>416.14182656</ele>
        <time>2014-12-07T10:15:12Z</time>
      </trkpt>
      <trkpt lat="47.49062" lon="6.63598">
        <ele>416.2588544</ele>
        <time>2014-12-07T10:15:13Z</time>
      </trkpt>
      <trkpt lat="47.49062" lon="6.63604">
        <ele>416.38162688</ele>
        <time>2014-12-07T10:15:14Z</time>
      </trkpt>
      <trkpt lat="47.49062" lon="6.63611">
        <ele>416.50823264</ele>
        <time>2014-12-07T10:15:15Z</time>
      </trkpt>
      <trkpt lat="47.49062" lon="6.63618">
        <ele>416.63422976</ele>
        <time>2014-12-07T10:15:16Z</time>
      </trkpt>
      <trkpt lat="47.49063" lon="6.63626">
        <ele>416.76073088</ele>
        <time>2014-12-07T10:15:17Z</time>
      </trkpt>
      <trkpt lat="47.49064" lon="6.63633">
        <ele>416.87812928</ele>
        <time>2014-12-07T10:15:18Z</time>
      </trkpt>
      <trkpt lat="47.49066" lon="6.63641">
        <ele>416.98988960001</ele>
        <time>2014-12-07T10:15:19Z</time>
      </trkpt>
      <trkpt lat="47.49068" lon="6.6365">
        <ele>417.09355904</ele>
        <time>2014-12-07T10:15:20Z</time>
      </trkpt>
      <trkpt lat="47.4907" lon="6.63658">
        <ele>417.18099487999</ele>
        <time>2014-12-07T10:15:21Z</time>
      </trkpt>
      <trkpt lat="47.49073" lon="6.63667">
        <ele>417.25829695999</ele>
        <time>2014-12-07T10:15:22Z</time>
      </trkpt>
      <trkpt lat="47.49075" lon="6.63676">
        <ele>417.40582784</ele>
        <time>2014-12-07T10:15:23Z</time>
      </trkpt>
      <trkpt lat="47.49076" lon="6.63684">
        <ele>417.56036864001</ele>
        <time>2014-12-07T10:15:24Z</time>
      </trkpt>
      <trkpt lat="47.49077" lon="6.63692">
        <ele>417.71379776</ele>
        <time>2014-12-07T10:15:25Z</time>
      </trkpt>
      <trkpt lat="47.49078" lon="6.63699">
        <ele>417.8513984</ele>
        <time>2014-12-07T10:15:26Z</time>
      </trkpt>
      <trkpt lat="47.49079" lon="6.63705">
        <ele>417.9738848</ele>
        <time>2014-12-07T10:15:27Z</time>
      </trkpt>
      <trkpt lat="47.4908" lon="6.6371">
        <ele>418.08874208</ele>
        <time>2014-12-07T10:15:28Z</time>
      </trkpt>
      <trkpt lat="47.49081" lon="6.63715">
        <ele>418.18523072</ele>
        <time>2014-12-07T10:15:29Z</time>
      </trkpt>
      <trkpt lat="47.49082" lon="6.63719">
        <ele>418.272368</ele>
        <time>2014-12-07T10:15:30Z</time>
      </trkpt>
      <trkpt lat="47.49082" lon="6.63724">
        <ele>418.3718864</ele>
        <time>2014-12-07T10:15:31Z</time>
      </trkpt>
      <trkpt lat="47.49083" lon="6.63728">
        <ele>418.48180736</ele>
        <time>2014-12-07T10:15:32Z</time>
      </trkpt>
      <trkpt lat="47.49084" lon="6.63734">
        <ele>418.56526528</ele>
        <time>2014-12-07T10:15:33Z</time>
      </trkpt>
      <trkpt lat="47.49085" lon="6.6374">
        <ele>418.65744111999</ele>
        <time>2014-12-07T10:15:34Z</time>
      </trkpt>
      <trkpt lat="47.49086" lon="6.63747">
        <ele>418.75611664001</ele>
        <time>2014-12-07T10:15:35Z</time>
      </trkpt>
      <trkpt lat="47.49087" lon="6.63754">
        <ele>418.69104448001</ele>
        <time>2014-12-07T10:15:36Z</time>
      </trkpt>
      <trkpt lat="47.49088" lon="6.63761">
        <ele>418.49948224</ele>
        <time>2014-12-07T10:15:37Z</time>
      </trkpt>
      <trkpt lat="47.49088" lon="6.63768">
        <ele>418.32783616002</ele>
        <time>2014-12-07T10:15:38Z</time>
      </trkpt>
      <trkpt lat="47.49089" lon="6.63775">
        <ele>418.1657344</ele>
        <time>2014-12-07T10:15:39Z</time>
      </trkpt>
      <trkpt lat="47.49089" lon="6.63781">
        <ele>418.00050687999</ele>
        <time>2014-12-07T10:15:40Z</time>
      </trkpt>
      <trkpt lat="47.4909" lon="6.63788">
        <ele>417.85911039999</ele>
        <time>2014-12-07T10:15:41Z</time>
      </trkpt>
      <trkpt lat="47.4909" lon="6.63794">
        <ele>417.73437759999</ele>
        <time>2014-12-07T10:15:42Z</time>
      </trkpt>
      <trkpt lat="47.4909" lon="6.638">
        <ele>417.59418496</ele>
        <time>2014-12-07T10:15:43Z</time>
      </trkpt>
      <trkpt lat="47.4909" lon="6.63807">
        <ele>417.44550976</ele>
        <time>2014-12-07T10:15:44Z</time>
      </trkpt>
      <trkpt lat="47.4909" lon="6.63816">
        <ele>417.26925184</ele>
        <time>2014-12-07T10:15:45Z</time>
      </trkpt>
      <trkpt lat="47.4909" lon="6.6384">
        <ele>416.62968</ele>
        <time>2014-12-07T10:15:46Z</time>
      </trkpt>
      <trkpt lat="47.49089" lon="6.63848">
        <ele>416.29338816</ele>
        <time>2014-12-07T10:15:47Z</time>
      </trkpt>
      <trkpt lat="47.49088" lon="6.63853">
        <ele>416.04363456</ele>
        <time>2014-12-07T10:15:48Z</time>
      </trkpt>
      <trkpt lat="47.49088" lon="6.63858">
        <ele>415.81294848</ele>
        <time>2014-12-07T10:15:49Z</time>
      </trkpt>
      <trkpt lat="47.49089" lon="6.63864">
        <ele>415.54279104</ele>
        <time>2014-12-07T10:15:50Z</time>
      </trkpt>
      <trkpt lat="47.49089" lon="6.63872">
        <ele>415.2150816</ele>
        <time>2014-12-07T10:15:51Z</time>
      </trkpt>
      <trkpt lat="47.49091" lon="6.63879">
        <ele>414.9280608</ele>
        <time>2014-12-07T10:15:52Z</time>
      </trkpt>
      <trkpt lat="47.49093" lon="6.63886">
        <ele>414.63580799999</ele>
        <time>2014-12-07T10:15:53Z</time>
      </trkpt>
      <trkpt lat="47.49092" lon="6.63892">
        <ele>414.38363328</ele>
        <time>2014-12-07T10:15:54Z</time>
      </trkpt>
      <trkpt lat="47.49093" lon="6.63897">
        <ele>414.18427776</ele>
        <time>2014-12-07T10:15:55Z</time>
      </trkpt>
      <trkpt lat="47.49094" lon="6.63901">
        <ele>414.0093984</ele>
        <time>2014-12-07T10:15:56Z</time>
      </trkpt>
      <trkpt lat="47.49094" lon="6.63906">
        <ele>413.82328703999</ele>
        <time>2014-12-07T10:15:57Z</time>
      </trkpt>
      <trkpt lat="47.49095" lon="6.63911">
        <ele>413.65417920001</ele>
        <time>2014-12-07T10:15:58Z</time>
      </trkpt>
      <trkpt lat="47.49095" lon="6.63915">
        <ele>413.5163904</ele>
        <time>2014-12-07T10:15:59Z</time>
      </trkpt>
      <trkpt lat="47.49098" lon="6.63923">
        <ele>413.35692</ele>
        <time>2014-12-07T10:16:02Z</time>
      </trkpt>
      <trkpt lat="47.49096" lon="6.63928">
        <ele>413.164608</ele>
        <time>2014-12-07T10:16:07Z</time>
      </trkpt>
      <trkpt lat="47.49095" lon="6.6393">
        <ele>413.0721024</ele>
        <time>2014-12-07T10:16:08Z</time>
      </trkpt>
      <trkpt lat="47.49093" lon="6.63934">
        <ele>412.8427776</ele>
        <time>2014-12-07T10:16:10Z</time>
      </trkpt>
      <trkpt lat="47.49093" lon="6.63937">
        <ele>412.7540304</ele>
        <time>2014-12-07T10:16:11Z</time>
      </trkpt>
      <trkpt lat="47.49093" lon="6.63942">
        <ele>412.62570959999</ele>
        <time>2014-12-07T10:16:14Z</time>
      </trkpt>
      <trkpt lat="47.49094" lon="6.63944">
        <ele>412.61558400001</ele>
        <time>2014-12-07T10:16:15Z</time>
      </trkpt>
      <trkpt lat="47.49097" lon="6.63947">
        <ele>412.705812</ele>
        <time>2014-12-07T10:16:18Z</time>
      </trkpt>
      <trkpt lat="47.49097" lon="6.63949">
        <ele>412.65208800001</ele>
        <time>2014-12-07T10:16:19Z</time>
      </trkpt>
      <trkpt lat="47.49098" lon="6.63953">
        <ele>412.57775999999</ele>
        <time>2014-12-07T10:16:20Z</time>
      </trkpt>
      <trkpt lat="47.49098" lon="6.63958">
        <ele>412.484112</ele>
        <time>2014-12-07T10:16:21Z</time>
      </trkpt>
      <trkpt lat="47.49099" lon="6.63963">
        <ele>412.40032559998</ele>
        <time>2014-12-07T10:16:22Z</time>
      </trkpt>
      <trkpt lat="47.491" lon="6.63968">
        <ele>412.33639199999</ele>
        <time>2014-12-07T10:16:23Z</time>
      </trkpt>
      <trkpt lat="47.49101" lon="6.63972">
        <ele>412.30046400001</ele>
        <time>2014-12-07T10:16:24Z</time>
      </trkpt>
      <trkpt lat="47.49102" lon="6.63977">
        <ele>412.298436</ele>
        <time>2014-12-07T10:16:25Z</time>
      </trkpt>
      <trkpt lat="47.49103" lon="6.6398">
        <ele>412.31225759998</ele>
        <time>2014-12-07T10:16:26Z</time>
      </trkpt>
      <trkpt lat="47.49104" lon="6.63984">
        <ele>412.33457760002</ele>
        <time>2014-12-07T10:16:27Z</time>
      </trkpt>
      <trkpt lat="47.49105" lon="6.63987">
        <ele>412.35645120003</ele>
        <time>2014-12-07T10:16:28Z</time>
      </trkpt>
      <trkpt lat="47.49106" lon="6.63991">
        <ele>412.36403280002</ele>
        <time>2014-12-07T10:16:29Z</time>
      </trkpt>
      <trkpt lat="47.49107" lon="6.63995">
        <ele>412.38548399998</ele>
        <time>2014-12-07T10:16:30Z</time>
      </trkpt>
      <trkpt lat="47.49108" lon="6.63998">
        <ele>412.41211920001</ele>
        <time>2014-12-07T10:16:31Z</time>
      </trkpt>
      <trkpt lat="47.49109" lon="6.64002">
        <ele>412.51591679997</ele>
        <time>2014-12-07T10:16:32Z</time>
      </trkpt>
      <trkpt lat="47.4911" lon="6.64006">
        <ele>412.68177600003</ele>
        <time>2014-12-07T10:16:33Z</time>
      </trkpt>
      <trkpt lat="47.49111" lon="6.6401">
        <ele>412.84157952001</ele>
        <time>2014-12-07T10:16:34Z</time>
      </trkpt>
      <trkpt lat="47.49112" lon="6.64014">
        <ele>413.00626559998</ele>
        <time>2014-12-07T10:16:35Z</time>
      </trkpt>
      <trkpt lat="47.49113" lon="6.64017">
        <ele>413.18378112002</ele>
        <time>2014-12-07T10:16:36Z</time>
      </trkpt>
      <trkpt lat="47.49114" lon="6.64021">
        <ele>413.34583680003</ele>
        <time>2014-12-07T10:16:37Z</time>
      </trkpt>
      <trkpt lat="47.49115" lon="6.64025">
        <ele>413.49968639998</ele>
        <time>2014-12-07T10:16:38Z</time>
      </trkpt>
      <trkpt lat="47.49116" lon="6.64028">
        <ele>413.63654016002</ele>
        <time>2014-12-07T10:16:39Z</time>
      </trkpt>
      <trkpt lat="47.49117" lon="6.64032">
        <ele>413.79284544001</ele>
        <time>2014-12-07T10:16:40Z</time>
      </trkpt>
      <trkpt lat="47.49119" lon="6.64036">
        <ele>413.93963520001</ele>
        <time>2014-12-07T10:16:41Z</time>
      </trkpt>
      <trkpt lat="47.4912" lon="6.6404">
        <ele>414.08879616</ele>
        <time>2014-12-07T10:16:42Z</time>
      </trkpt>
      <trkpt lat="47.49121" lon="6.64044">
        <ele>414.24537600002</ele>
        <time>2014-12-07T10:16:43Z</time>
      </trkpt>
      <trkpt lat="47.49123" lon="6.64049">
        <ele>414.417216</ele>
        <time>2014-12-07T10:16:44Z</time>
      </trkpt>
      <trkpt lat="47.49124" lon="6.64054">
        <ele>414.58561919998</ele>
        <time>2014-12-07T10:16:45Z</time>
      </trkpt>
      <trkpt lat="47.49125" lon="6.6406">
        <ele>414.74692991999</ele>
        <time>2014-12-07T10:16:46Z</time>
      </trkpt>
      <trkpt lat="47.49127" lon="6.64067">
        <ele>414.90185279999</ele>
        <time>2014-12-07T10:16:47Z</time>
      </trkpt>
      <trkpt lat="47.49128" lon="6.64073">
        <ele>415.04458367999</ele>
        <time>2014-12-07T10:16:48Z</time>
      </trkpt>
      <trkpt lat="47.4913" lon="6.64079">
        <ele>415.17654143999</ele>
        <time>2014-12-07T10:16:49Z</time>
      </trkpt>
      <trkpt lat="47.49131" lon="6.64084">
        <ele>415.28320000001</ele>
        <time>2014-12-07T10:16:50Z</time>
      </trkpt>
      <trkpt lat="47.49132" lon="6.64088">
        <ele>415.3408</ele>
        <time>2014-12-07T10:16:51Z</time>
      </trkpt>
      <trkpt lat="47.49133" lon="6.64093">
        <ele>415.39839999999</ele>
        <time>2014-12-07T10:16:52Z</time>
      </trkpt>
      <trkpt lat="47.49135" lon="6.64097">
        <ele>415.4608</ele>
        <time>2014-12-07T10:16:53Z</time>
      </trkpt>
      <trkpt lat="47.49136" lon="6.64101">
        <ele>415.50880000002</ele>
        <time>2014-12-07T10:16:54Z</time>
      </trkpt>
      <trkpt lat="47.49137" lon="6.64104">
        <ele>415.55200000001</ele>
        <time>2014-12-07T10:16:55Z</time>
      </trkpt>
      <trkpt lat="47.49137" lon="6.64107">
        <ele>415.57600000002</ele>
        <time>2014-12-07T10:16:56Z</time>
      </trkpt>
      <trkpt lat="47.49138" lon="6.64111">
        <ele>415.59999999999</ele>
        <time>2014-12-07T10:16:57Z</time>
      </trkpt>
      <trkpt lat="47.49138" lon="6.64117">
        <ele>415.61920000001</ele>
        <time>2014-12-07T10:16:59Z</time>
      </trkpt>
      <trkpt lat="47.49138" lon="6.64119">
        <ele>415.62879999999</ele>
        <time>2014-12-07T10:17:00Z</time>
      </trkpt>
      <trkpt lat="47.49138" lon="6.64126">
        <ele>415.64319999998</ele>
        <time>2014-12-07T10:17:03Z</time>
      </trkpt>
      <trkpt lat="47.49138" lon="6.64133">
        <ele>415.62879999999</ele>
        <time>2014-12-07T10:17:05Z</time>
      </trkpt>
      <trkpt lat="47.49138" lon="6.64136">
        <ele>415.62879999999</ele>
        <time>2014-12-07T10:17:06Z</time>
      </trkpt>
      <trkpt lat="47.49138" lon="6.6414">
        <ele>415.63360000001</ele>
        <time>2014-12-07T10:17:07Z</time>
      </trkpt>
      <trkpt lat="47.49138" lon="6.64145">
        <ele>415.6384</ele>
        <time>2014-12-07T10:17:08Z</time>
      </trkpt>
      <trkpt lat="47.49138" lon="6.64149">
        <ele>415.6384</ele>
        <time>2014-12-07T10:17:09Z</time>
      </trkpt>
      <trkpt lat="47.49138" lon="6.64154">
        <ele>415.63360000001</ele>
        <time>2014-12-07T10:17:10Z</time>
      </trkpt>
      <trkpt lat="47.49138" lon="6.64157">
        <ele>415.63360000001</ele>
        <time>2014-12-07T10:17:11Z</time>
      </trkpt>
      <trkpt lat="47.49138" lon="6.64161">
        <ele>415.62879999999</ele>
        <time>2014-12-07T10:17:12Z</time>
      </trkpt>
      <trkpt lat="47.49138" lon="6.64164">
        <ele>415.6096</ele>
        <time>2014-12-07T10:17:13Z</time>
      </trkpt>
      <trkpt lat="47.49137" lon="6.64168">
        <ele>415.536</ele>
        <time>2014-12-07T10:17:14Z</time>
      </trkpt>
      <trkpt lat="47.49137" lon="6.64171">
        <ele>415.3536</ele>
        <time>2014-12-07T10:17:15Z</time>
      </trkpt>
      <trkpt lat="47.49136" lon="6.64175">
        <ele>415.15199999999</ele>
        <time>2014-12-07T10:17:16Z</time>
      </trkpt>
      <trkpt lat="47.49136" lon="6.64179">
        <ele>414.94080000001</ele>
        <time>2014-12-07T10:17:17Z</time>
      </trkpt>
      <trkpt lat="47.49136" lon="6.64183">
        <ele>414.72480000001</ele>
        <time>2014-12-07T10:17:18Z</time>
      </trkpt>
      <trkpt lat="47.49136" lon="6.6419">
        <ele>414.43200000001</ele>
        <time>2014-12-07T10:17:20Z</time>
      </trkpt>
      <trkpt lat="47.49137" lon="6.64192">
        <ele>414.36</ele>
        <time>2014-12-07T10:17:21Z</time>
      </trkpt>
      <trkpt lat="47.4914" lon="6.64191">
        <ele>414.54240000002</ele>
        <time>2014-12-07T10:19:44Z</time>
      </trkpt>
      <trkpt lat="47.49141" lon="6.64191">
        <ele>414.6384</ele>
        <time>2014-12-07T10:19:45Z</time>
      </trkpt>
      <trkpt lat="47.49145" lon="6.64187">
        <ele>414.9696</ele>
        <time>2014-12-07T10:19:47Z</time>
      </trkpt>
      <trkpt lat="47.49146" lon="6.64186">
        <ele>415.09920000001</ele>
        <time>2014-12-07T10:19:48Z</time>
      </trkpt>
      <trkpt lat="47.49149" lon="6.64181">
        <ele>415.47359999999</ele>
        <time>2014-12-07T10:19:56Z</time>
      </trkpt>
      <trkpt lat="47.49149" lon="6.64181">
        <ele>415.48320000002</ele>
        <time>2014-12-07T10:19:57Z</time>
      </trkpt>
      <trkpt lat="47.49153" lon="6.64185">
        <ele>415.44480000001</ele>
        <time>2014-12-07T10:20:56Z</time>
      </trkpt>
      <trkpt lat="47.49155" lon="6.64187">
        <ele>415.42080000001</ele>
        <time>2014-12-07T10:20:57Z</time>
      </trkpt>
      <trkpt lat="47.49157" lon="6.6419">
        <ele>415.3968</ele>
        <time>2014-12-07T10:20:58Z</time>
      </trkpt>
      <trkpt lat="47.49159" lon="6.64192">
        <ele>415.38719999999</ele>
        <time>2014-12-07T10:20:59Z</time>
      </trkpt>
      <trkpt lat="47.49161" lon="6.64194">
        <ele>415.41120000001</ele>
        <time>2014-12-07T10:21:00Z</time>
      </trkpt>
      <trkpt lat="47.49165" lon="6.64193">
        <ele>415.66079999999</ele>
        <time>2014-12-07T10:21:03Z</time>
      </trkpt>
      <trkpt lat="47.49169" lon="6.64193">
        <ele>415.7676</ele>
        <time>2014-12-07T10:21:05Z</time>
      </trkpt>
      <trkpt lat="47.49171" lon="6.64194">
        <ele>415.7652</ele>
        <time>2014-12-07T10:21:06Z</time>
      </trkpt>
      <trkpt lat="47.49175" lon="6.64196">
        <ele>415.7148</ele>
        <time>2014-12-07T10:21:08Z</time>
      </trkpt>
      <trkpt lat="47.49177" lon="6.64197">
        <ele>415.668</ele>
        <time>2014-12-07T10:21:09Z</time>
      </trkpt>
      <trkpt lat="47.49181" lon="6.642">
        <ele>415.5972</ele>
        <time>2014-12-07T10:21:11Z</time>
      </trkpt>
      <trkpt lat="47.49183" lon="6.642">
        <ele>415.5756</ele>
        <time>2014-12-07T10:21:12Z</time>
      </trkpt>
      <trkpt lat="47.49186" lon="6.642">
        <ele>415.6416</ele>
        <time>2014-12-07T10:21:14Z</time>
      </trkpt>
      <trkpt lat="47.49188" lon="6.64199">
        <ele>415.7232</ele>
        <time>2014-12-07T10:21:15Z</time>
      </trkpt>
      <trkpt lat="47.49191" lon="6.64196">
        <ele>415.8756</ele>
        <time>2014-12-07T10:21:17Z</time>
      </trkpt>
      <trkpt lat="47.49193" lon="6.64195">
        <ele>415.9452</ele>
        <time>2014-12-07T10:21:18Z</time>
      </trkpt>
      <trkpt lat="47.49196" lon="6.64193">
        <ele>416.094</ele>
        <time>2014-12-07T10:21:20Z</time>
      </trkpt>
      <trkpt lat="47.49197" lon="6.64191">
        <ele>416.178</ele>
        <time>2014-12-07T10:21:21Z</time>
      </trkpt>
      <trkpt lat="47.492" lon="6.64189">
        <ele>416.32679999999</ele>
        <time>2014-12-07T10:21:24Z</time>
      </trkpt>
      <trkpt lat="47.49201" lon="6.64189">
        <ele>416.36160000001</ele>
        <time>2014-12-07T10:21:25Z</time>
      </trkpt>
      <trkpt lat="47.49204" lon="6.64187">
        <ele>416.4576</ele>
        <time>2014-12-07T10:21:28Z</time>
      </trkpt>
      <trkpt lat="47.49206" lon="6.64188">
        <ele>416.4708</ele>
        <time>2014-12-07T10:21:29Z</time>
      </trkpt>
      <trkpt lat="47.49209" lon="6.64188">
        <ele>416.4828</ele>
        <time>2014-12-07T10:21:31Z</time>
      </trkpt>
      <trkpt lat="47.49211" lon="6.64189">
        <ele>416.4708</ele>
        <time>2014-12-07T10:21:32Z</time>
      </trkpt>
      <trkpt lat="47.49215" lon="6.64191">
        <ele>416.42760000001</ele>
        <time>2014-12-07T10:21:34Z</time>
      </trkpt>
      <trkpt lat="47.49217" lon="6.64191">
        <ele>416.4312</ele>
        <time>2014-12-07T10:21:35Z</time>
      </trkpt>
      <trkpt lat="47.49219" lon="6.64191">
        <ele>416.4564</ele>
        <time>2014-12-07T10:21:36Z</time>
      </trkpt>
      <trkpt lat="47.49221" lon="6.64191">
        <ele>416.4912</ele>
        <time>2014-12-07T10:21:37Z</time>
      </trkpt>
      <trkpt lat="47.49224" lon="6.64191">
        <ele>416.50680000001</ele>
        <time>2014-12-07T10:21:38Z</time>
      </trkpt>
      <trkpt lat="47.49226" lon="6.64192">
        <ele>416.5092</ele>
        <time>2014-12-07T10:21:39Z</time>
      </trkpt>
      <trkpt lat="47.49229" lon="6.64192">
        <ele>416.5212</ele>
        <time>2014-12-07T10:21:40Z</time>
      </trkpt>
      <trkpt lat="47.49231" lon="6.64193">
        <ele>416.5368</ele>
        <time>2014-12-07T10:21:41Z</time>
      </trkpt>
      <trkpt lat="47.49234" lon="6.64193">
        <ele>416.5704</ele>
        <time>2014-12-07T10:21:42Z</time>
      </trkpt>
      <trkpt lat="47.49237" lon="6.64192">
        <ele>416.6268</ele>
        <time>2014-12-07T10:21:43Z</time>
      </trkpt>
      <trkpt lat="47.49239" lon="6.64191">
        <ele>416.7036</ele>
        <time>2014-12-07T10:21:44Z</time>
      </trkpt>
      <trkpt lat="47.49241" lon="6.6419">
        <ele>416.7996</ele>
        <time>2014-12-07T10:21:45Z</time>
      </trkpt>
      <trkpt lat="47.49244" lon="6.64186">
        <ele>417.0192</ele>
        <time>2014-12-07T10:21:47Z</time>
      </trkpt>
      <trkpt lat="47.49246" lon="6.64184">
        <ele>417.1284</ele>
        <time>2014-12-07T10:21:48Z</time>
      </trkpt>
      <trkpt lat="47.49249" lon="6.64183">
        <ele>417.2136</ele>
        <time>2014-12-07T10:21:49Z</time>
      </trkpt>
      <trkpt lat="47.49251" lon="6.64182">
        <ele>417.25261056</ele>
        <time>2014-12-07T10:21:50Z</time>
      </trkpt>
      <trkpt lat="47.49253" lon="6.64182">
        <ele>417.2525328</ele>
        <time>2014-12-07T10:21:51Z</time>
      </trkpt>
      <trkpt lat="47.49255" lon="6.64182">
        <ele>417.26692656</ele>
        <time>2014-12-07T10:21:52Z</time>
      </trkpt>
      <trkpt lat="47.49258" lon="6.64181">
        <ele>417.28095312</ele>
        <time>2014-12-07T10:21:53Z</time>
      </trkpt>
      <trkpt lat="47.49261" lon="6.6418">
        <ele>417.31963968</ele>
        <time>2014-12-07T10:21:54Z</time>
      </trkpt>
      <trkpt lat="47.49264" lon="6.64179">
        <ele>417.36331296</ele>
        <time>2014-12-07T10:21:55Z</time>
      </trkpt>
      <trkpt lat="47.49267" lon="6.64179">
        <ele>417.38772288</ele>
        <time>2014-12-07T10:21:56Z</time>
      </trkpt>
      <trkpt lat="47.49271" lon="6.64178">
        <ele>417.4174488</ele>
        <time>2014-12-07T10:21:57Z</time>
      </trkpt>
      <trkpt lat="47.49274" lon="6.64178">
        <ele>417.442248</ele>
        <time>2014-12-07T10:21:58Z</time>
      </trkpt>
      <trkpt lat="47.49278" lon="6.64177">
        <ele>417.45728304</ele>
        <time>2014-12-07T10:21:59Z</time>
      </trkpt>
      <trkpt lat="47.49287" lon="6.64177">
        <ele>417.45946368</ele>
        <time>2014-12-07T10:22:02Z</time>
      </trkpt>
      <trkpt lat="47.4929" lon="6.64177">
        <ele>417.46118592</ele>
        <time>2014-12-07T10:22:03Z</time>
      </trkpt>
      <trkpt lat="47.49292" lon="6.64176">
        <ele>417.48433056</ele>
        <time>2014-12-07T10:22:04Z</time>
      </trkpt>
      <trkpt lat="47.49295" lon="6.64175">
        <ele>417.52408224</ele>
        <time>2014-12-07T10:22:05Z</time>
      </trkpt>
      <trkpt lat="47.49298" lon="6.64174">
        <ele>417.58654656</ele>
        <time>2014-12-07T10:22:06Z</time>
      </trkpt>
      <trkpt lat="47.49301" lon="6.64173">
        <ele>417.66091008</ele>
        <time>2014-12-07T10:22:07Z</time>
      </trkpt>
      <trkpt lat="47.49303" lon="6.64172">
        <ele>417.69741984</ele>
        <time>2014-12-07T10:22:08Z</time>
      </trkpt>
      <trkpt lat="47.49306" lon="6.64172">
        <ele>417.71766624</ele>
        <time>2014-12-07T10:22:09Z</time>
      </trkpt>
      <trkpt lat="47.49309" lon="6.64172">
        <ele>417.68746848</ele>
        <time>2014-12-07T10:22:10Z</time>
      </trkpt>
      <trkpt lat="47.49312" lon="6.64173">
        <ele>417.639912</ele>
        <time>2014-12-07T10:22:11Z</time>
      </trkpt>
      <trkpt lat="47.49314" lon="6.64174">
        <ele>417.5861376</ele>
        <time>2014-12-07T10:22:12Z</time>
      </trkpt>
      <trkpt lat="47.49316" lon="6.64175">
        <ele>417.4977984</ele>
        <time>2014-12-07T10:22:13Z</time>
      </trkpt>
      <trkpt lat="47.49318" lon="6.64177">
        <ele>417.39718704</ele>
        <time>2014-12-07T10:22:14Z</time>
      </trkpt>
      <trkpt lat="47.49321" lon="6.64181">
        <ele>417.1943688</ele>
        <time>2014-12-07T10:22:17Z</time>
      </trkpt>
      <trkpt lat="47.49322" lon="6.6418">
        <ele>417.2159232</ele>
        <time>2014-12-07T10:22:18Z</time>
      </trkpt>
      <trkpt lat="47.49326" lon="6.64181">
        <ele>417.1842096</ele>
        <time>2014-12-07T10:22:22Z</time>
      </trkpt>
      <trkpt lat="47.49327" lon="6.64183">
        <ele>417.05830176</ele>
        <time>2014-12-07T10:22:23Z</time>
      </trkpt>
      <trkpt lat="47.49331" lon="6.64184">
        <ele>416.9538912</ele>
        <time>2014-12-07T10:22:25Z</time>
      </trkpt>
      <trkpt lat="47.49334" lon="6.64183">
        <ele>417.00039999999</ele>
        <time>2014-12-07T10:22:26Z</time>
      </trkpt>
      <trkpt lat="47.49337" lon="6.6418">
        <ele>417.238</ele>
        <time>2014-12-07T10:22:27Z</time>
      </trkpt>
      <trkpt lat="47.49339" lon="6.64175">
        <ele>417.544</ele>
        <time>2014-12-07T10:22:28Z</time>
      </trkpt>
      <trkpt lat="47.49341" lon="6.64171">
        <ele>417.8584</ele>
        <time>2014-12-07T10:22:29Z</time>
      </trkpt>
      <trkpt lat="47.49343" lon="6.64167">
        <ele>418.1176</ele>
        <time>2014-12-07T10:22:30Z</time>
      </trkpt>
      <trkpt lat="47.49345" lon="6.64166">
        <ele>418.18127968</ele>
        <time>2014-12-07T10:22:31Z</time>
      </trkpt>
      <trkpt lat="47.49348" lon="6.64166">
        <ele>418.1977792</ele>
        <time>2014-12-07T10:22:32Z</time>
      </trkpt>
      <trkpt lat="47.49352" lon="6.64165">
        <ele>418.27972096</ele>
        <time>2014-12-07T10:22:34Z</time>
      </trkpt>
      <trkpt lat="47.49353" lon="6.64163">
        <ele>418.36923136</ele>
        <time>2014-12-07T10:22:35Z</time>
      </trkpt>
      <trkpt lat="47.49356" lon="6.6416">
        <ele>418.538944</ele>
        <time>2014-12-07T10:22:37Z</time>
      </trkpt>
      <trkpt lat="47.49359" lon="6.64159">
        <ele>418.59123904</ele>
        <time>2014-12-07T10:22:38Z</time>
      </trkpt>
      <trkpt lat="47.49361" lon="6.6416">
        <ele>418.6065568</ele>
        <time>2014-12-07T10:22:39Z</time>
      </trkpt>
      <trkpt lat="47.49364" lon="6.6416">
        <ele>418.6148224</ele>
        <time>2014-12-07T10:22:40Z</time>
      </trkpt>
      <trkpt lat="47.49366" lon="6.64161">
        <ele>418.61195776</ele>
        <time>2014-12-07T10:22:41Z</time>
      </trkpt>
      <trkpt lat="47.49368" lon="6.64162">
        <ele>418.61422432</ele>
        <time>2014-12-07T10:22:42Z</time>
      </trkpt>
      <trkpt lat="47.49372" lon="6.64163">
        <ele>418.6226008</ele>
        <time>2014-12-07T10:22:44Z</time>
      </trkpt>
      <trkpt lat="47.49373" lon="6.64163">
        <ele>418.63687792</ele>
        <time>2014-12-07T10:22:45Z</time>
      </trkpt>
      <trkpt lat="47.49378" lon="6.64162">
        <ele>418.73742207999</ele>
        <time>2014-12-07T10:22:47Z</time>
      </trkpt>
      <trkpt lat="47.4938" lon="6.6416">
        <ele>418.83754912</ele>
        <time>2014-12-07T10:22:48Z</time>
      </trkpt>
      <trkpt lat="47.49383" lon="6.64159">
        <ele>418.9431376</ele>
        <time>2014-12-07T10:22:49Z</time>
      </trkpt>
      <trkpt lat="47.49385" lon="6.64157">
        <ele>419.04694528</ele>
        <time>2014-12-07T10:22:50Z</time>
      </trkpt>
      <trkpt lat="47.49388" lon="6.64156">
        <ele>419.13169792</ele>
        <time>2014-12-07T10:22:51Z</time>
      </trkpt>
      <trkpt lat="47.4939" lon="6.64155">
        <ele>419.19991935999</ele>
        <time>2014-12-07T10:22:52Z</time>
      </trkpt>
      <trkpt lat="47.49394" lon="6.64153">
        <ele>419.34553984</ele>
        <time>2014-12-07T10:22:54Z</time>
      </trkpt>
      <trkpt lat="47.49396" lon="6.64152">
        <ele>419.4306088</ele>
        <time>2014-12-07T10:22:55Z</time>
      </trkpt>
      <trkpt lat="47.49398" lon="6.6415">
        <ele>419.54046064</ele>
        <time>2014-12-07T10:22:56Z</time>
      </trkpt>
      <trkpt lat="47.494" lon="6.64148">
        <ele>419.65898752</ele>
        <time>2014-12-07T10:22:57Z</time>
      </trkpt>
      <trkpt lat="47.49401" lon="6.64145">
        <ele>419.79542752</ele>
        <time>2014-12-07T10:22:58Z</time>
      </trkpt>
      <trkpt lat="47.49403" lon="6.64143">
        <ele>419.93771775999</ele>
        <time>2014-12-07T10:22:59Z</time>
      </trkpt>
      <trkpt lat="47.49408" lon="6.64136">
        <ele>420.3564016</ele>
        <time>2014-12-07T10:23:02Z</time>
      </trkpt>
      <trkpt lat="47.4941" lon="6.64133">
        <ele>420.49628992</ele>
        <time>2014-12-07T10:23:03Z</time>
      </trkpt>
      <trkpt lat="47.49413" lon="6.64131">
        <ele>420.63150784</ele>
        <time>2014-12-07T10:23:04Z</time>
      </trkpt>
      <trkpt lat="47.49415" lon="6.6413">
        <ele>420.74116432</ele>
        <time>2014-12-07T10:23:05Z</time>
      </trkpt>
      <trkpt lat="47.49418" lon="6.64129">
        <ele>420.85864832001</ele>
        <time>2014-12-07T10:23:06Z</time>
      </trkpt>
      <trkpt lat="47.49421" lon="6.64129">
        <ele>421.04483071999</ele>
        <time>2014-12-07T10:23:08Z</time>
      </trkpt>
      <trkpt lat="47.49423" lon="6.64128">
        <ele>421.14672415999</ele>
        <time>2014-12-07T10:23:09Z</time>
      </trkpt>
      <trkpt lat="47.49427" lon="6.64127">
        <ele>421.41980863999</ele>
        <time>2014-12-07T10:23:11Z</time>
      </trkpt>
      <trkpt lat="47.49429" lon="6.64126">
        <ele>421.57534688</ele>
        <time>2014-12-07T10:23:12Z</time>
      </trkpt>
      <trkpt lat="47.49432" lon="6.64125">
        <ele>421.72990975999</ele>
        <time>2014-12-07T10:23:13Z</time>
      </trkpt>
      <trkpt lat="47.49434" lon="6.64124">
        <ele>421.88314783998</ele>
        <time>2014-12-07T10:23:14Z</time>
      </trkpt>
      <trkpt lat="47.49438" lon="6.64122">
        <ele>422.14227584001</ele>
        <time>2014-12-07T10:23:16Z</time>
      </trkpt>
      <trkpt lat="47.4944" lon="6.64122">
        <ele>422.23441279999</ele>
        <time>2014-12-07T10:23:17Z</time>
      </trkpt>
      <trkpt lat="47.49443" lon="6.64122">
        <ele>422.41552064</ele>
        <time>2014-12-07T10:23:19Z</time>
      </trkpt>
      <trkpt lat="47.49445" lon="6.64121">
        <ele>422.50201087999</ele>
        <time>2014-12-07T10:23:20Z</time>
      </trkpt>
      <trkpt lat="47.49448" lon="6.64119">
        <ele>422.74007072001</ele>
        <time>2014-12-07T10:23:23Z</time>
      </trkpt>
      <trkpt lat="47.49449" lon="6.64119">
        <ele>422.81035136002</ele>
        <time>2014-12-07T10:23:24Z</time>
      </trkpt>
      <trkpt lat="47.49453" lon="6.64116">
        <ele>423.08046655999</ele>
        <time>2014-12-07T10:23:27Z</time>
      </trkpt>
      <trkpt lat="47.49455" lon="6.64116">
        <ele>423.17383615999</ele>
        <time>2014-12-07T10:23:28Z</time>
      </trkpt>
      <trkpt lat="47.49459" lon="6.64113">
        <ele>423.4502096</ele>
        <time>2014-12-07T10:23:31Z</time>
      </trkpt>
      <trkpt lat="47.4946" lon="6.64111">
        <ele>423.57643808</ele>
        <time>2014-12-07T10:23:32Z</time>
      </trkpt>
      <trkpt lat="47.49463" lon="6.64107">
        <ele>423.84862687999</ele>
        <time>2014-12-07T10:23:34Z</time>
      </trkpt>
      <trkpt lat="47.49465" lon="6.64106">
        <ele>423.95218687999</ele>
        <time>2014-12-07T10:23:35Z</time>
      </trkpt>
      <trkpt lat="47.49469" lon="6.64106">
        <ele>424.13383808001</ele>
        <time>2014-12-07T10:23:37Z</time>
      </trkpt>
      <trkpt lat="47.49471" lon="6.64105">
        <ele>424.22417120001</ele>
        <time>2014-12-07T10:23:38Z</time>
      </trkpt>
      <trkpt lat="47.49474" lon="6.64104">
        <ele>424.39854847999</ele>
        <time>2014-12-07T10:23:40Z</time>
      </trkpt>
      <trkpt lat="47.49475" lon="6.64104">
        <ele>424.47508928</ele>
        <time>2014-12-07T10:23:41Z</time>
      </trkpt>
      <trkpt lat="47.49478" lon="6.64103">
        <ele>424.63901599999</ele>
        <time>2014-12-07T10:23:43Z</time>
      </trkpt>
      <trkpt lat="47.4948" lon="6.64102">
        <ele>424.72699039999</ele>
        <time>2014-12-07T10:23:44Z</time>
      </trkpt>
      <trkpt lat="47.49483" lon="6.64101">
        <ele>424.87387232</ele>
        <time>2014-12-07T10:23:46Z</time>
      </trkpt>
      <trkpt lat="47.49484" lon="6.64101">
        <ele>424.93822975999</ele>
        <time>2014-12-07T10:23:47Z</time>
      </trkpt>
      <trkpt lat="47.49488" lon="6.64102">
        <ele>425.06102335999</ele>
        <time>2014-12-07T10:23:50Z</time>
      </trkpt>
      <trkpt lat="47.49489" lon="6.64103">
        <ele>425.09302783999</ele>
        <time>2014-12-07T10:23:51Z</time>
      </trkpt>
      <trkpt lat="47.49493" lon="6.64103">
        <ele>425.23479008</ele>
        <time>2014-12-07T10:23:54Z</time>
      </trkpt>
      <trkpt lat="47.49494" lon="6.64103">
        <ele>425.30236543999</ele>
        <time>2014-12-07T10:23:55Z</time>
      </trkpt>
      <trkpt lat="47.49499" lon="6.64103">
        <ele>425.4679472</ele>
        <time>2014-12-07T10:23:58Z</time>
      </trkpt>
      <trkpt lat="47.495" lon="6.64103">
        <ele>425.51550079999</ele>
        <time>2014-12-07T10:23:59Z</time>
      </trkpt>
      <trkpt lat="47.49501" lon="6.64103">
        <ele>425.50848512</ele>
        <time>2014-12-07T10:24:00Z</time>
      </trkpt>
      <trkpt lat="47.49511" lon="6.64098">
        <ele>425.29955552</ele>
        <time>2014-12-07T10:24:08Z</time>
      </trkpt>
      <trkpt lat="47.49515" lon="6.64097">
        <ele>425.18316799999</ele>
        <time>2014-12-07T10:24:10Z</time>
      </trkpt>
      <trkpt lat="47.49517" lon="6.64098">
        <ele>425.107784</ele>
        <time>2014-12-07T10:24:11Z</time>
      </trkpt>
      <trkpt lat="47.49522" lon="6.64099">
        <ele>424.94030336</ele>
        <time>2014-12-07T10:24:13Z</time>
      </trkpt>
      <trkpt lat="47.49524" lon="6.641">
        <ele>424.85712511999</ele>
        <time>2014-12-07T10:24:14Z</time>
      </trkpt>
      <trkpt lat="47.49528" lon="6.64101">
        <ele>424.71515168001</ele>
        <time>2014-12-07T10:24:16Z</time>
      </trkpt>
      <trkpt lat="47.4953" lon="6.64101">
        <ele>424.65636416</ele>
        <time>2014-12-07T10:24:17Z</time>
      </trkpt>
      <trkpt lat="47.49533" lon="6.64101">
        <ele>424.55570624</ele>
        <time>2014-12-07T10:24:19Z</time>
      </trkpt>
      <trkpt lat="47.49535" lon="6.64102">
        <ele>424.48572799999</ele>
        <time>2014-12-07T10:24:20Z</time>
      </trkpt>
      <trkpt lat="47.49537" lon="6.64103">
        <ele>424.409192</ele>
        <time>2014-12-07T10:24:21Z</time>
      </trkpt>
      <trkpt lat="47.49539" lon="6.64103">
        <ele>424.32770048001</ele>
        <time>2014-12-07T10:24:22Z</time>
      </trkpt>
      <trkpt lat="47.49542" lon="6.64104">
        <ele>424.24560128</ele>
        <time>2014-12-07T10:24:23Z</time>
      </trkpt>
      <trkpt lat="47.49544" lon="6.64105">
        <ele>424.17580736001</ele>
        <time>2014-12-07T10:24:24Z</time>
      </trkpt>
      <trkpt lat="47.49548" lon="6.64106">
        <ele>424.05827840001</ele>
        <time>2014-12-07T10:24:26Z</time>
      </trkpt>
      <trkpt lat="47.4955" lon="6.64107">
        <ele>423.97664</ele>
        <time>2014-12-07T10:24:27Z</time>
      </trkpt>
      <trkpt lat="47.49553" lon="6.64108">
        <ele>423.88053248</ele>
        <time>2014-12-07T10:24:28Z</time>
      </trkpt>
      <trkpt lat="47.49556" lon="6.6411">
        <ele>423.78178016001</ele>
        <time>2014-12-07T10:24:29Z</time>
      </trkpt>
      <trkpt lat="47.49559" lon="6.64112">
        <ele>423.678608</ele>
        <time>2014-12-07T10:24:30Z</time>
      </trkpt>
      <trkpt lat="47.49562" lon="6.64112">
        <ele>423.58173151999</ele>
        <time>2014-12-07T10:24:31Z</time>
      </trkpt>
      <trkpt lat="47.49565" lon="6.64113">
        <ele>423.49444352</ele>
        <time>2014-12-07T10:24:32Z</time>
      </trkpt>
      <trkpt lat="47.49569" lon="6.64113">
        <ele>423.4085456</ele>
        <time>2014-12-07T10:24:33Z</time>
      </trkpt>
      <trkpt lat="47.49572" lon="6.64113">
        <ele>423.32181248</ele>
        <time>2014-12-07T10:24:34Z</time>
      </trkpt>
      <trkpt lat="47.49575" lon="6.64114">
        <ele>423.23504768</ele>
        <time>2014-12-07T10:24:35Z</time>
      </trkpt>
      <trkpt lat="47.49578" lon="6.64114">
        <ele>423.14698688</ele>
        <time>2014-12-07T10:24:36Z</time>
      </trkpt>
      <trkpt lat="47.49581" lon="6.64115">
        <ele>423.0625856</ele>
        <time>2014-12-07T10:24:37Z</time>
      </trkpt>
      <trkpt lat="47.49584" lon="6.64116">
        <ele>422.91201856002</ele>
        <time>2014-12-07T10:24:38Z</time>
      </trkpt>
      <trkpt lat="47.49587" lon="6.64117">
        <ele>422.58884608001</ele>
        <time>2014-12-07T10:24:39Z</time>
      </trkpt>
      <trkpt lat="47.4959" lon="6.64118">
        <ele>422.22688000001</ele>
        <time>2014-12-07T10:24:40Z</time>
      </trkpt>
      <trkpt lat="47.49593" lon="6.64119">
        <ele>421.84896255996</ele>
        <time>2014-12-07T10:24:41Z</time>
      </trkpt>
      <trkpt lat="47.49597" lon="6.6412">
        <ele>421.45716160002</ele>
        <time>2014-12-07T10:24:42Z</time>
      </trkpt>
      <trkpt lat="47.496" lon="6.64121">
        <ele>421.08735232002</ele>
        <time>2014-12-07T10:24:43Z</time>
      </trkpt>
      <trkpt lat="47.49603" lon="6.64122">
        <ele>420.72129279999</ele>
        <time>2014-12-07T10:24:44Z</time>
      </trkpt>
      <trkpt lat="47.49605" lon="6.64123">
        <ele>420.39615232001</ele>
        <time>2014-12-07T10:24:45Z</time>
      </trkpt>
      <trkpt lat="47.49608" lon="6.64125">
        <ele>420.08799999997</ele>
        <time>2014-12-07T10:24:46Z</time>
      </trkpt>
      <trkpt lat="47.4961" lon="6.64127">
        <ele>419.79960831996</ele>
        <time>2014-12-07T10:24:47Z</time>
      </trkpt>
      <trkpt lat="47.49614" lon="6.64128">
        <ele>419.27213824001</ele>
        <time>2014-12-07T10:24:49Z</time>
      </trkpt>
      <trkpt lat="47.49616" lon="6.64128">
        <ele>419.02167039996</ele>
        <time>2014-12-07T10:24:50Z</time>
      </trkpt>
      <trkpt lat="47.4962" lon="6.64126">
        <ele>418.6412512</ele>
        <time>2014-12-07T10:24:52Z</time>
      </trkpt>
      <trkpt lat="47.49621" lon="6.64124">
        <ele>418.52989695997</ele>
        <time>2014-12-07T10:24:53Z</time>
      </trkpt>
      <trkpt lat="47.49623" lon="6.64119">
        <ele>418.33752064004</ele>
        <time>2014-12-07T10:24:55Z</time>
      </trkpt>
      <trkpt lat="47.49624" lon="6.64117">
        <ele>418.26596608003</ele>
        <time>2014-12-07T10:24:56Z</time>
      </trkpt>
      <trkpt lat="47.49627" lon="6.64113">
        <ele>418.06309504002</ele>
        <time>2014-12-07T10:24:58Z</time>
      </trkpt>
      <trkpt lat="47.49628" lon="6.64112">
        <ele>417.95196159999</ele>
        <time>2014-12-07T10:24:59Z</time>
      </trkpt>
      <trkpt lat="47.4963" lon="6.64111">
        <ele>417.84026559996</ele>
        <time>2014-12-07T10:25:00Z</time>
      </trkpt>
      <trkpt lat="47.49636" lon="6.64105">
        <ele>417.33312256001</ele>
        <time>2014-12-07T10:25:08Z</time>
      </trkpt>
      <trkpt lat="47.49638" lon="6.64103">
        <ele>417.11127040003</ele>
        <time>2014-12-07T10:25:17Z</time>
      </trkpt>
      <trkpt lat="47.4964" lon="6.64103">
        <ele>416.88916287999</ele>
        <time>2014-12-07T10:25:18Z</time>
      </trkpt>
      <trkpt lat="47.49643" lon="6.64102">
        <ele>416.61570879996</ele>
        <time>2014-12-07T10:25:20Z</time>
      </trkpt>
      <trkpt lat="47.49646" lon="6.64101">
        <ele>416.40312063998</ele>
        <time>2014-12-07T10:25:21Z</time>
      </trkpt>
      <trkpt lat="47.49648" lon="6.64099">
        <ele>416.19354880002</ele>
        <time>2014-12-07T10:25:22Z</time>
      </trkpt>
      <trkpt lat="47.49651" lon="6.64098">
        <ele>415.97025664004</ele>
        <time>2014-12-07T10:25:23Z</time>
      </trkpt>
      <trkpt lat="47.49654" lon="6.64095">
        <ele>415.73282176002</ele>
        <time>2014-12-07T10:25:25Z</time>
      </trkpt>
      <trkpt lat="47.49655" lon="6.64092">
        <ele>415.79664832</ele>
        <time>2014-12-07T10:25:26Z</time>
      </trkpt>
      <trkpt lat="47.49657" lon="6.64087">
        <ele>415.7740672</ele>
        <time>2014-12-07T10:25:43Z</time>
      </trkpt>
      <trkpt lat="47.49659" lon="6.64086">
        <ele>415.59256575998</ele>
        <time>2014-12-07T10:25:44Z</time>
      </trkpt>
      <trkpt lat="47.49662" lon="6.64086">
        <ele>415.29270784003</ele>
        <time>2014-12-07T10:25:46Z</time>
      </trkpt>
      <trkpt lat="47.49665" lon="6.64086">
        <ele>415.09697920002</ele>
        <time>2014-12-07T10:25:47Z</time>
      </trkpt>
      <trkpt lat="47.49667" lon="6.64085">
        <ele>414.8990112</ele>
        <time>2014-12-07T10:25:48Z</time>
      </trkpt>
      <trkpt lat="47.49669" lon="6.64086">
        <ele>414.76047840001</ele>
        <time>2014-12-07T10:25:49Z</time>
      </trkpt>
      <trkpt lat="47.49672" lon="6.64087">
        <ele>414.5896416</ele>
        <time>2014-12-07T10:25:50Z</time>
      </trkpt>
      <trkpt lat="47.49674" lon="6.64088">
        <ele>414.3841728</ele>
        <time>2014-12-07T10:25:51Z</time>
      </trkpt>
      <trkpt lat="47.49677" lon="6.64089">
        <ele>414.16242719999</ele>
        <time>2014-12-07T10:25:52Z</time>
      </trkpt>
      <trkpt lat="47.4968" lon="6.64091">
        <ele>413.93525759999</ele>
        <time>2014-12-07T10:25:53Z</time>
      </trkpt>
      <trkpt lat="47.49683" lon="6.64092">
        <ele>413.71382880001</ele>
        <time>2014-12-07T10:25:54Z</time>
      </trkpt>
      <trkpt lat="47.49685" lon="6.64094">
        <ele>413.43877920001</ele>
        <time>2014-12-07T10:25:55Z</time>
      </trkpt>
      <trkpt lat="47.49688" lon="6.64096">
        <ele>413.15630400002</ele>
        <time>2014-12-07T10:25:56Z</time>
      </trkpt>
      <trkpt lat="47.49691" lon="6.64098">
        <ele>412.86735840002</ele>
        <time>2014-12-07T10:25:57Z</time>
      </trkpt>
      <trkpt lat="47.49694" lon="6.64099">
        <ele>412.65731999999</ele>
        <time>2014-12-07T10:25:57Z</time>
      </trkpt>
      <trkpt lat="47.49698" lon="6.641">
        <ele>412.30308480001</ele>
        <time>2014-12-07T10:25:59Z</time>
      </trkpt>
      <trkpt lat="47.49729" lon="6.64091">
        <ele>411.36894000001</ele>
        <time>2014-12-07T10:26:08Z</time>
      </trkpt>
      <trkpt lat="47.49731" lon="6.64088">
        <ele>411.43752480001</ele>
        <time>2014-12-07T10:26:09Z</time>
      </trkpt>
      <trkpt lat="47.49734" lon="6.64087">
        <ele>411.48762</ele>
        <time>2014-12-07T10:26:10Z</time>
      </trkpt>
      <trkpt lat="47.49736" lon="6.64085">
        <ele>411.51864</ele>
        <time>2014-12-07T10:26:11Z</time>
      </trkpt>
      <trkpt lat="47.49738" lon="6.64084">
        <ele>411.55462800001</ele>
        <time>2014-12-07T10:26:12Z</time>
      </trkpt>
      <trkpt lat="47.49741" lon="6.64082">
        <ele>411.4957048</ele>
        <time>2014-12-07T10:26:13Z</time>
      </trkpt>
      <trkpt lat="47.49743" lon="6.64081">
        <ele>411.43107568001</ele>
        <time>2014-12-07T10:26:14Z</time>
      </trkpt>
      <trkpt lat="47.49746" lon="6.64079">
        <ele>411.36934432001</ele>
        <time>2014-12-07T10:26:15Z</time>
      </trkpt>
      <trkpt lat="47.49749" lon="6.64078">
        <ele>411.31993600001</ele>
        <time>2014-12-07T10:26:16Z</time>
      </trkpt>
      <trkpt lat="47.49751" lon="6.64077">
        <ele>411.34171936</ele>
        <time>2014-12-07T10:26:17Z</time>
      </trkpt>
      <trkpt lat="47.49753" lon="6.64076">
        <ele>411.43487488001</ele>
        <time>2014-12-07T10:26:18Z</time>
      </trkpt>
      <trkpt lat="47.49756" lon="6.64075">
        <ele>411.55606431999</ele>
        <time>2014-12-07T10:26:20Z</time>
      </trkpt>
      <trkpt lat="47.49758" lon="6.64076">
        <ele>411.58079679999</ele>
        <time>2014-12-07T10:26:21Z</time>
      </trkpt>
      <trkpt lat="47.49762" lon="6.64076">
        <ele>411.66264735999</ele>
        <time>2014-12-07T10:26:23Z</time>
      </trkpt>
      <trkpt lat="47.49764" lon="6.64075">
        <ele>411.74090175999</ele>
        <time>2014-12-07T10:26:24Z</time>
      </trkpt>
      <trkpt lat="47.49766" lon="6.64074">
        <ele>411.89605120001</ele>
        <time>2014-12-07T10:26:25Z</time>
      </trkpt>
      <trkpt lat="47.49769" lon="6.64072">
        <ele>412.0777888</ele>
        <time>2014-12-07T10:26:26Z</time>
      </trkpt>
      <trkpt lat="47.49771" lon="6.64069">
        <ele>412.27088607999</ele>
        <time>2014-12-07T10:26:27Z</time>
      </trkpt>
      <trkpt lat="47.49774" lon="6.64067">
        <ele>412.47002560001</ele>
        <time>2014-12-07T10:26:28Z</time>
      </trkpt>
      <trkpt lat="47.49776" lon="6.64066">
        <ele>412.62519039999</ele>
        <time>2014-12-07T10:26:29Z</time>
      </trkpt>
      <trkpt lat="47.49779" lon="6.64064">
        <ele>412.76534848001</ele>
        <time>2014-12-07T10:26:30Z</time>
      </trkpt>
      <trkpt lat="47.49781" lon="6.64063">
        <ele>412.8901504</ele>
        <time>2014-12-07T10:26:31Z</time>
      </trkpt>
      <trkpt lat="47.49783" lon="6.64062">
        <ele>413.01601311999</ele>
        <time>2014-12-07T10:26:32Z</time>
      </trkpt>
      <trkpt lat="47.49787" lon="6.64059">
        <ele>413.30046976001</ele>
        <time>2014-12-07T10:26:34Z</time>
      </trkpt>
      <trkpt lat="47.49789" lon="6.64058">
        <ele>413.43306976</ele>
        <time>2014-12-07T10:26:35Z</time>
      </trkpt>
      <trkpt lat="47.49793" lon="6.64056">
        <ele>413.70308319999</ele>
        <time>2014-12-07T10:26:37Z</time>
      </trkpt>
      <trkpt lat="47.49795" lon="6.64055">
        <ele>413.82871264</ele>
        <time>2014-12-07T10:26:38Z</time>
      </trkpt>
      <trkpt lat="47.49798" lon="6.64054">
        <ele>413.97720832</ele>
        <time>2014-12-07T10:26:39Z</time>
      </trkpt>
      <trkpt lat="47.498" lon="6.64052">
        <ele>414.14306752</ele>
        <time>2014-12-07T10:26:40Z</time>
      </trkpt>
      <trkpt lat="47.49803" lon="6.64051">
        <ele>414.30155776001</ele>
        <time>2014-12-07T10:26:41Z</time>
      </trkpt>
      <trkpt lat="47.49805" lon="6.6405">
        <ele>414.44864896001</ele>
        <time>2014-12-07T10:26:42Z</time>
      </trkpt>
      <trkpt lat="47.49809" lon="6.6405">
        <ele>414.60549567999</ele>
        <time>2014-12-07T10:26:44Z</time>
      </trkpt>
      <trkpt lat="47.49811" lon="6.6405">
        <ele>414.61987551999</ele>
        <time>2014-12-07T10:26:45Z</time>
      </trkpt>
      <trkpt lat="47.49813" lon="6.64056">
        <ele>414.33019167999</ele>
        <time>2014-12-07T10:26:48Z</time>
      </trkpt>
      <trkpt lat="47.49813" lon="6.64058">
        <ele>414.19703680001</ele>
        <time>2014-12-07T10:26:49Z</time>
      </trkpt>
      <trkpt lat="47.49815" lon="6.64063">
        <ele>413.95599999999</ele>
        <time>2014-12-07T10:26:52Z</time>
      </trkpt>
      <trkpt lat="47.49816" lon="6.64064">
        <ele>413.86470399999</ele>
        <time>2014-12-07T10:26:53Z</time>
      </trkpt>
      <trkpt lat="47.49816" lon="6.64069">
        <ele>413.5243456</ele>
        <time>2014-12-07T10:26:56Z</time>
      </trkpt>
      <trkpt lat="47.49817" lon="6.64071">
        <ele>413.44039935999</ele>
        <time>2014-12-07T10:26:57Z</time>
      </trkpt>
      <trkpt lat="47.49818" lon="6.64076">
        <ele>413.16251776</ele>
        <time>2014-12-07T10:27:00Z</time>
      </trkpt>
      <trkpt lat="47.49825" lon="6.64109">
        <ele>409.20914448</ele>
        <time>2014-12-07T10:27:08Z</time>
      </trkpt>
      <trkpt lat="47.49826" lon="6.64114">
        <ele>408.5073024</ele>
        <time>2014-12-07T10:27:09Z</time>
      </trkpt>
      <trkpt lat="47.49829" lon="6.64129">
        <ele>406.44636576</ele>
        <time>2014-12-07T10:27:10Z</time>
      </trkpt>
      <trkpt lat="47.49831" lon="6.6414">
        <ele>404.85524448</ele>
        <time>2014-12-07T10:27:11Z</time>
      </trkpt>
      <trkpt lat="47.49832" lon="6.6415">
        <ele>403.4771952</ele>
        <time>2014-12-07T10:27:12Z</time>
      </trkpt>
      <trkpt lat="47.49832" lon="6.64161">
        <ele>401.8574208</ele>
        <time>2014-12-07T10:27:13Z</time>
      </trkpt>
      <trkpt lat="47.49833" lon="6.64171">
        <ele>400.61966431999</ele>
        <time>2014-12-07T10:27:14Z</time>
      </trkpt>
      <trkpt lat="47.49831" lon="6.64179">
        <ele>399.88318879999</ele>
        <time>2014-12-07T10:27:15Z</time>
      </trkpt>
      <trkpt lat="47.49832" lon="6.64187">
        <ele>399.03934976</ele>
        <time>2014-12-07T10:27:16Z</time>
      </trkpt>
      <trkpt lat="47.49829" lon="6.64197">
        <ele>398.06198528</ele>
        <time>2014-12-07T10:27:17Z</time>
      </trkpt>
      <trkpt lat="47.49828" lon="6.64206">
        <ele>397.24723712</ele>
        <time>2014-12-07T10:27:18Z</time>
      </trkpt>
      <trkpt lat="47.49826" lon="6.64216">
        <ele>396.22750592</ele>
        <time>2014-12-07T10:27:19Z</time>
      </trkpt>
      <trkpt lat="47.49825" lon="6.64225">
        <ele>395.3773088</ele>
        <time>2014-12-07T10:27:20Z</time>
      </trkpt>
      <trkpt lat="47.49824" lon="6.64235">
        <ele>394.40476928</ele>
        <time>2014-12-07T10:27:21Z</time>
      </trkpt>
      <trkpt lat="47.49823" lon="6.64244">
        <ele>393.50362303999</ele>
        <time>2014-12-07T10:27:22Z</time>
      </trkpt>
      <trkpt lat="47.49823" lon="6.64253">
        <ele>392.80049984</ele>
        <time>2014-12-07T10:27:23Z</time>
      </trkpt>
      <trkpt lat="47.49822" lon="6.64262">
        <ele>392.58867968</ele>
        <time>2014-12-07T10:27:24Z</time>
      </trkpt>
      <trkpt lat="47.49821" lon="6.64272">
        <ele>392.35728368</ele>
        <time>2014-12-07T10:27:25Z</time>
      </trkpt>
      <trkpt lat="47.49821" lon="6.64282">
        <ele>392.13712352</ele>
        <time>2014-12-07T10:27:26Z</time>
      </trkpt>
      <trkpt lat="47.49821" lon="6.64291">
        <ele>391.9319264</ele>
        <time>2014-12-07T10:27:27Z</time>
      </trkpt>
      <trkpt lat="47.4982" lon="6.64301">
        <ele>391.72416608</ele>
        <time>2014-12-07T10:27:28Z</time>
      </trkpt>
      <trkpt lat="47.4982" lon="6.64309">
        <ele>391.53321152</ele>
        <time>2014-12-07T10:27:29Z</time>
      </trkpt>
      <trkpt lat="47.4982" lon="6.64318">
        <ele>391.33547456</ele>
        <time>2014-12-07T10:27:30Z</time>
      </trkpt>
      <trkpt lat="47.49819" lon="6.64327">
        <ele>391.14149216</ele>
        <time>2014-12-07T10:27:31Z</time>
      </trkpt>
      <trkpt lat="47.49819" lon="6.64335">
        <ele>391.0164584</ele>
        <time>2014-12-07T10:27:32Z</time>
      </trkpt>
      <trkpt lat="47.49818" lon="6.64343">
        <ele>391.1309</ele>
        <time>2014-12-07T10:27:33Z</time>
      </trkpt>
      <trkpt lat="47.49817" lon="6.6435">
        <ele>391.24016</ele>
        <time>2014-12-07T10:27:34Z</time>
      </trkpt>
      <trkpt lat="47.49815" lon="6.64357">
        <ele>391.352336</ele>
        <time>2014-12-07T10:27:35Z</time>
      </trkpt>
      <trkpt lat="47.49812" lon="6.64365">
        <ele>391.47080096</ele>
        <time>2014-12-07T10:27:36Z</time>
      </trkpt>
      <trkpt lat="47.4981" lon="6.64371">
        <ele>391.5750992</ele>
        <time>2014-12-07T10:27:37Z</time>
      </trkpt>
      <trkpt lat="47.49806" lon="6.64377">
        <ele>391.69938656</ele>
        <time>2014-12-07T10:27:38Z</time>
      </trkpt>
      <trkpt lat="47.49804" lon="6.64383">
        <ele>391.809368</ele>
        <time>2014-12-07T10:27:39Z</time>
      </trkpt>
      <trkpt lat="47.498" lon="6.64386">
        <ele>391.88144</ele>
        <time>2014-12-07T10:27:40Z</time>
      </trkpt>
      <trkpt lat="47.49795" lon="6.64389">
        <ele>391.97542592</ele>
        <time>2014-12-07T10:27:41Z</time>
      </trkpt>
      <trkpt lat="47.49791" lon="6.64394">
        <ele>392.09863088</ele>
        <time>2014-12-07T10:27:42Z</time>
      </trkpt>
      <trkpt lat="47.49787" lon="6.64399">
        <ele>392.22429152</ele>
        <time>2014-12-07T10:27:43Z</time>
      </trkpt>
      <trkpt lat="47.49783" lon="6.64404">
        <ele>392.36098016</ele>
        <time>2014-12-07T10:27:44Z</time>
      </trkpt>
      <trkpt lat="47.4978" lon="6.64411">
        <ele>392.5153064</ele>
        <time>2014-12-07T10:27:45Z</time>
      </trkpt>
      <trkpt lat="47.49776" lon="6.64416">
        <ele>392.67771344</ele>
        <time>2014-12-07T10:27:46Z</time>
      </trkpt>
      <trkpt lat="47.49773" lon="6.64423">
        <ele>392.9342928</ele>
        <time>2014-12-07T10:27:47Z</time>
      </trkpt>
      <trkpt lat="47.4977" lon="6.6443">
        <ele>393.197424</ele>
        <time>2014-12-07T10:27:48Z</time>
      </trkpt>
      <trkpt lat="47.49768" lon="6.64436">
        <ele>393.443976</ele>
        <time>2014-12-07T10:27:49Z</time>
      </trkpt>
      <trkpt lat="47.49765" lon="6.64443">
        <ele>393.7054512</ele>
        <time>2014-12-07T10:27:50Z</time>
      </trkpt>
      <trkpt lat="47.49762" lon="6.64449">
        <ele>393.97950816</ele>
        <time>2014-12-07T10:27:51Z</time>
      </trkpt>
      <trkpt lat="47.4976" lon="6.64455">
        <ele>394.20659568</ele>
        <time>2014-12-07T10:27:52Z</time>
      </trkpt>
      <trkpt lat="47.49758" lon="6.6446">
        <ele>394.43184768</ele>
        <time>2014-12-07T10:27:53Z</time>
      </trkpt>
      <trkpt lat="47.49755" lon="6.64466">
        <ele>394.67313408</ele>
        <time>2014-12-07T10:27:54Z</time>
      </trkpt>
      <trkpt lat="47.49753" lon="6.64471">
        <ele>394.90959744</ele>
        <time>2014-12-07T10:27:55Z</time>
      </trkpt>
      <trkpt lat="47.49751" lon="6.64476">
        <ele>395.10674928</ele>
        <time>2014-12-07T10:27:56Z</time>
      </trkpt>
      <trkpt lat="47.4975" lon="6.6448">
        <ele>395.28891936</ele>
        <time>2014-12-07T10:27:57Z</time>
      </trkpt>
      <trkpt lat="47.49749" lon="6.64484">
        <ele>395.44891200001</ele>
        <time>2014-12-07T10:27:58Z</time>
      </trkpt>
      <trkpt lat="47.49747" lon="6.64487">
        <ele>395.5776576</ele>
        <time>2014-12-07T10:27:59Z</time>
      </trkpt>
      <trkpt lat="47.49746" lon="6.6449">
        <ele>395.68756896</ele>
        <time>2014-12-07T10:28:00Z</time>
      </trkpt>
      <trkpt lat="47.4974" lon="6.64509">
        <ele>396.21078144</ele>
        <time>2014-12-07T10:28:08Z</time>
      </trkpt>
      <trkpt lat="47.49739" lon="6.64514">
        <ele>396.27774336</ele>
        <time>2014-12-07T10:28:09Z</time>
      </trkpt>
      <trkpt lat="47.49739" lon="6.64516">
        <ele>396.30571392</ele>
        <time>2014-12-07T10:28:11Z</time>
      </trkpt>
      <trkpt lat="47.49736" lon="6.64521">
        <ele>396.37876608</ele>
        <time>2014-12-07T10:28:33Z</time>
      </trkpt>
      <trkpt lat="47.49735" lon="6.64524">
        <ele>396.41629104</ele>
        <time>2014-12-07T10:28:34Z</time>
      </trkpt>
      <trkpt lat="47.49734" lon="6.64528">
        <ele>396.4615488</ele>
        <time>2014-12-07T10:28:35Z</time>
      </trkpt>
      <trkpt lat="47.49733" lon="6.64532">
        <ele>396.51326448</ele>
        <time>2014-12-07T10:28:36Z</time>
      </trkpt>
      <trkpt lat="47.49732" lon="6.64537">
        <ele>396.56863488</ele>
        <time>2014-12-07T10:28:37Z</time>
      </trkpt>
      <trkpt lat="47.4973" lon="6.64542">
        <ele>396.6166728</ele>
        <time>2014-12-07T10:28:37Z</time>
      </trkpt>
      <trkpt lat="47.49728" lon="6.64547">
        <ele>396.68123472</ele>
        <time>2014-12-07T10:28:39Z</time>
      </trkpt>
      <trkpt lat="47.49726" lon="6.64552">
        <ele>396.7357056</ele>
        <time>2014-12-07T10:28:40Z</time>
      </trkpt>
      <trkpt lat="47.49724" lon="6.64557">
        <ele>396.7858944</ele>
        <time>2014-12-07T10:28:41Z</time>
      </trkpt>
      <trkpt lat="47.49722" lon="6.64562">
        <ele>396.8316096</ele>
        <time>2014-12-07T10:28:42Z</time>
      </trkpt>
      <trkpt lat="47.4972" lon="6.64568">
        <ele>396.877944</ele>
        <time>2014-12-07T10:28:43Z</time>
      </trkpt>
      <trkpt lat="47.49718" lon="6.64573">
        <ele>396.92004096</ele>
        <time>2014-12-07T10:28:44Z</time>
      </trkpt>
      <trkpt lat="47.49717" lon="6.64578">
        <ele>396.96085392</ele>
        <time>2014-12-07T10:28:45Z</time>
      </trkpt>
      <trkpt lat="47.49715" lon="6.64583">
        <ele>396.99629568</ele>
        <time>2014-12-07T10:28:46Z</time>
      </trkpt>
      <trkpt lat="47.49713" lon="6.64588">
        <ele>397.02606976</ele>
        <time>2014-12-07T10:28:47Z</time>
      </trkpt>
      <trkpt lat="47.49711" lon="6.64593">
        <ele>397.05611632</ele>
        <time>2014-12-07T10:28:48Z</time>
      </trkpt>
      <trkpt lat="47.49709" lon="6.64599">
        <ele>397.09160992</ele>
        <time>2014-12-07T10:28:49Z</time>
      </trkpt>
      <trkpt lat="47.49707" lon="6.64604">
        <ele>397.129456</ele>
        <time>2014-12-07T10:28:50Z</time>
      </trkpt>
      <trkpt lat="47.49705" lon="6.64609">
        <ele>397.1688232</ele>
        <time>2014-12-07T10:28:50Z</time>
      </trkpt>
      <trkpt lat="47.49702" lon="6.64614">
        <ele>397.21225792</ele>
        <time>2014-12-07T10:28:52Z</time>
      </trkpt>
      <trkpt lat="47.497" lon="6.64619">
        <ele>397.25812192</ele>
        <time>2014-12-07T10:28:53Z</time>
      </trkpt>
      <trkpt lat="47.49699" lon="6.64625">
        <ele>397.3075168</ele>
        <time>2014-12-07T10:28:54Z</time>
      </trkpt>
      <trkpt lat="47.49697" lon="6.6463">
        <ele>397.358848</ele>
        <time>2014-12-07T10:28:55Z</time>
      </trkpt>
      <trkpt lat="47.49695" lon="6.64635">
        <ele>397.41461728</ele>
        <time>2014-12-07T10:28:56Z</time>
      </trkpt>
      <trkpt lat="47.49693" lon="6.64641">
        <ele>397.4716936</ele>
        <time>2014-12-07T10:28:57Z</time>
      </trkpt>
      <trkpt lat="47.49691" lon="6.64646">
        <ele>397.5299584</ele>
        <time>2014-12-07T10:28:57Z</time>
      </trkpt>
      <trkpt lat="47.49689" lon="6.6465">
        <ele>397.5912856</ele>
        <time>2014-12-07T10:28:59Z</time>
      </trkpt>
      <trkpt lat="47.49672" lon="6.64688">
        <ele>398.20954896</ele>
        <time>2014-12-07T10:29:06Z</time>
      </trkpt>
      <trkpt lat="47.49669" lon="6.64694">
        <ele>398.30967648</ele>
        <time>2014-12-07T10:29:08Z</time>
      </trkpt>
      <trkpt lat="47.49667" lon="6.64699">
        <ele>398.38093056</ele>
        <time>2014-12-07T10:29:09Z</time>
      </trkpt>
      <trkpt lat="47.49666" lon="6.64704">
        <ele>398.4468</ele>
        <time>2014-12-07T10:29:10Z</time>
      </trkpt>
      <trkpt lat="47.49664" lon="6.64709">
        <ele>398.502</ele>
        <time>2014-12-07T10:29:11Z</time>
      </trkpt>
      <trkpt lat="47.49662" lon="6.64713">
        <ele>398.55</ele>
        <time>2014-12-07T10:29:12Z</time>
      </trkpt>
      <trkpt lat="47.49661" lon="6.64717">
        <ele>398.5992</ele>
        <time>2014-12-07T10:29:13Z</time>
      </trkpt>
      <trkpt lat="47.49659" lon="6.6472">
        <ele>398.64</ele>
        <time>2014-12-07T10:29:14Z</time>
      </trkpt>
      <trkpt lat="47.49657" lon="6.64724">
        <ele>398.6928</ele>
        <time>2014-12-07T10:29:15Z</time>
      </trkpt>
      <trkpt lat="47.49655" lon="6.64728">
        <ele>398.7396</ele>
        <time>2014-12-07T10:29:16Z</time>
      </trkpt>
      <trkpt lat="47.49653" lon="6.64732">
        <ele>398.7864</ele>
        <time>2014-12-07T10:29:17Z</time>
      </trkpt>
      <trkpt lat="47.4965" lon="6.64736">
        <ele>398.8356</ele>
        <time>2014-12-07T10:29:18Z</time>
      </trkpt>
      <trkpt lat="47.49648" lon="6.64741">
        <ele>398.8896</ele>
        <time>2014-12-07T10:29:19Z</time>
      </trkpt>
      <trkpt lat="47.49646" lon="6.64746">
        <ele>398.952</ele>
        <time>2014-12-07T10:29:20Z</time>
      </trkpt>
      <trkpt lat="47.49645" lon="6.64751">
        <ele>399.0192</ele>
        <time>2014-12-07T10:29:21Z</time>
      </trkpt>
      <trkpt lat="47.49644" lon="6.64756">
        <ele>399.1344</ele>
        <time>2014-12-07T10:29:22Z</time>
      </trkpt>
      <trkpt lat="47.49642" lon="6.6476">
        <ele>399.2472</ele>
        <time>2014-12-07T10:29:23Z</time>
      </trkpt>
      <trkpt lat="47.49641" lon="6.64765">
        <ele>399.3648</ele>
        <time>2014-12-07T10:29:24Z</time>
      </trkpt>
      <trkpt lat="47.49639" lon="6.64771">
        <ele>399.5016</ele>
        <time>2014-12-07T10:29:25Z</time>
      </trkpt>
      <trkpt lat="47.49637" lon="6.64777">
        <ele>399.648</ele>
        <time>2014-12-07T10:29:26Z</time>
      </trkpt>
      <trkpt lat="47.49635" lon="6.64782">
        <ele>399.7704</ele>
        <time>2014-12-07T10:29:27Z</time>
      </trkpt>
      <trkpt lat="47.49634" lon="6.64789">
        <ele>399.924</ele>
        <time>2014-12-07T10:29:28Z</time>
      </trkpt>
      <trkpt lat="47.49633" lon="6.64794">
        <ele>400.0608</ele>
        <time>2014-12-07T10:29:29Z</time>
      </trkpt>
      <trkpt lat="47.49631" lon="6.648">
        <ele>400.1976</ele>
        <time>2014-12-07T10:29:30Z</time>
      </trkpt>
      <trkpt lat="47.49629" lon="6.64806">
        <ele>400.3344</ele>
        <time>2014-12-07T10:29:31Z</time>
      </trkpt>
      <trkpt lat="47.49628" lon="6.64811">
        <ele>400.4712</ele>
        <time>2014-12-07T10:29:32Z</time>
      </trkpt>
      <trkpt lat="47.49626" lon="6.64817">
        <ele>400.596</ele>
        <time>2014-12-07T10:29:33Z</time>
      </trkpt>
      <trkpt lat="47.49625" lon="6.64823">
        <ele>400.752</ele>
        <time>2014-12-07T10:29:34Z</time>
      </trkpt>
      <trkpt lat="47.49624" lon="6.64829">
        <ele>400.9008</ele>
        <time>2014-12-07T10:29:35Z</time>
      </trkpt>
      <trkpt lat="47.49622" lon="6.64835">
        <ele>401</ele>
        <time>2014-12-07T10:29:35Z</time>
      </trkpt>
      <trkpt lat="47.49621" lon="6.64841">
        <ele>401</ele>
        <time>2014-12-07T10:29:37Z</time>
      </trkpt>
      <trkpt lat="47.49619" lon="6.64847">
        <ele>401</ele>
        <time>2014-12-07T10:29:38Z</time>
      </trkpt>
      <trkpt lat="47.49618" lon="6.64852">
        <ele>401</ele>
        <time>2014-12-07T10:29:39Z</time>
      </trkpt>
      <trkpt lat="47.49616" lon="6.64858">
        <ele>401</ele>
        <time>2014-12-07T10:29:40Z</time>
      </trkpt>
      <trkpt lat="47.49615" lon="6.64863">
        <ele>401</ele>
        <time>2014-12-07T10:29:41Z</time>
      </trkpt>
      <trkpt lat="47.49613" lon="6.64869">
        <ele>401</ele>
        <time>2014-12-07T10:29:42Z</time>
      </trkpt>
      <trkpt lat="47.49612" lon="6.64874">
        <ele>401</ele>
        <time>2014-12-07T10:29:43Z</time>
      </trkpt>
      <trkpt lat="47.4961" lon="6.6488">
        <ele>401</ele>
        <time>2014-12-07T10:29:44Z</time>
      </trkpt>
      <trkpt lat="47.49609" lon="6.64885">
        <ele>401</ele>
        <time>2014-12-07T10:29:45Z</time>
      </trkpt>
      <trkpt lat="47.49608" lon="6.64891">
        <ele>401</ele>
        <time>2014-12-07T10:29:46Z</time>
      </trkpt>
      <trkpt lat="47.49606" lon="6.64896">
        <ele>401</ele>
        <time>2014-12-07T10:29:47Z</time>
      </trkpt>
      <trkpt lat="47.49605" lon="6.64901">
        <ele>401</ele>
        <time>2014-12-07T10:29:48Z</time>
      </trkpt>
      <trkpt lat="47.49603" lon="6.64906">
        <ele>401</ele>
        <time>2014-12-07T10:29:49Z</time>
      </trkpt>
      <trkpt lat="47.49602" lon="6.64911">
        <ele>401</ele>
        <time>2014-12-07T10:29:50Z</time>
      </trkpt>
      <trkpt lat="47.496" lon="6.64916">
        <ele>401</ele>
        <time>2014-12-07T10:29:51Z</time>
      </trkpt>
      <trkpt lat="47.49598" lon="6.64921">
        <ele>401.0556</ele>
        <time>2014-12-07T10:29:52Z</time>
      </trkpt>
      <trkpt lat="47.49596" lon="6.64927">
        <ele>401.1204</ele>
        <time>2014-12-07T10:29:53Z</time>
      </trkpt>
      <trkpt lat="47.49595" lon="6.64932">
        <ele>401.184</ele>
        <time>2014-12-07T10:29:54Z</time>
      </trkpt>
      <trkpt lat="47.49593" lon="6.64937">
        <ele>401.2488</ele>
        <time>2014-12-07T10:29:55Z</time>
      </trkpt>
      <trkpt lat="47.49591" lon="6.64943">
        <ele>401.3136</ele>
        <time>2014-12-07T10:29:55Z</time>
      </trkpt>
      <trkpt lat="47.49589" lon="6.64949">
        <ele>401.382</ele>
        <time>2014-12-07T10:29:57Z</time>
      </trkpt>
      <trkpt lat="47.49587" lon="6.64954">
        <ele>401.4492</ele>
        <time>2014-12-07T10:29:58Z</time>
      </trkpt>
      <trkpt lat="47.49585" lon="6.6496">
        <ele>401.5152</ele>
        <time>2014-12-07T10:29:59Z</time>
      </trkpt>
      <trkpt lat="47.49583" lon="6.64965">
        <ele>401.57467392</ele>
        <time>2014-12-07T10:30:00Z</time>
      </trkpt>
      <trkpt lat="47.4957" lon="6.65006">
        <ele>401.61000000001</ele>
        <time>2014-12-07T10:30:08Z</time>
      </trkpt>
      <trkpt lat="47.49569" lon="6.65011">
        <ele>401.6124</ele>
        <time>2014-12-07T10:30:09Z</time>
      </trkpt>
      <trkpt lat="47.49567" lon="6.65016">
        <ele>401.6124</ele>
        <time>2014-12-07T10:30:10Z</time>
      </trkpt>
      <trkpt lat="47.49566" lon="6.6502">
        <ele>401.6076</ele>
        <time>2014-12-07T10:30:11Z</time>
      </trkpt>
      <trkpt lat="47.49564" lon="6.65024">
        <ele>401.61119999999</ele>
        <time>2014-12-07T10:30:12Z</time>
      </trkpt>
      <trkpt lat="47.49563" lon="6.65029">
        <ele>401.61599999999</ele>
        <time>2014-12-07T10:30:13Z</time>
      </trkpt>
      <trkpt lat="47.49562" lon="6.65034">
        <ele>401.6304</ele>
        <time>2014-12-07T10:30:14Z</time>
      </trkpt>
      <trkpt lat="47.4956" lon="6.65039">
        <ele>401.6388</ele>
        <time>2014-12-07T10:30:15Z</time>
      </trkpt>
      <trkpt lat="47.49559" lon="6.65044">
        <ele>401.6616</ele>
        <time>2014-12-07T10:30:16Z</time>
      </trkpt>
      <trkpt lat="47.49558" lon="6.65049">
        <ele>401.67839999999</ele>
        <time>2014-12-07T10:30:17Z</time>
      </trkpt>
      <trkpt lat="47.49556" lon="6.65055">
        <ele>401.68199999999</ele>
        <time>2014-12-07T10:30:18Z</time>
      </trkpt>
      <trkpt lat="47.49555" lon="6.6506">
        <ele>401.68680000001</ele>
        <time>2014-12-07T10:30:18Z</time>
      </trkpt>
      <trkpt lat="47.49553" lon="6.65065">
        <ele>401.6844</ele>
        <time>2014-12-07T10:30:20Z</time>
      </trkpt>
      <trkpt lat="47.49551" lon="6.65071">
        <ele>401.68200000001</ele>
        <time>2014-12-07T10:30:20Z</time>
      </trkpt>
      <trkpt lat="47.49549" lon="6.65076">
        <ele>401.66400000001</ele>
        <time>2014-12-07T10:30:22Z</time>
      </trkpt>
      <trkpt lat="47.49547" lon="6.6508">
        <ele>401.64479999999</ele>
        <time>2014-12-07T10:30:23Z</time>
      </trkpt>
      <trkpt lat="47.49545" lon="6.65085">
        <ele>401.63280000001</ele>
        <time>2014-12-07T10:30:24Z</time>
      </trkpt>
      <trkpt lat="47.49543" lon="6.65089">
        <ele>401.59919999999</ele>
        <time>2014-12-07T10:30:25Z</time>
      </trkpt>
      <trkpt lat="47.4954" lon="6.65093">
        <ele>401.5464</ele>
        <time>2014-12-07T10:30:26Z</time>
      </trkpt>
      <trkpt lat="47.49538" lon="6.65096">
        <ele>401.51159999999</ele>
        <time>2014-12-07T10:30:27Z</time>
      </trkpt>
      <trkpt lat="47.49535" lon="6.651">
        <ele>401.4732</ele>
        <time>2014-12-07T10:30:28Z</time>
      </trkpt>
      <trkpt lat="47.49533" lon="6.65104">
        <ele>401.44440000001</ele>
        <time>2014-12-07T10:30:29Z</time>
      </trkpt>
      <trkpt lat="47.49531" lon="6.65108">
        <ele>401.4216</ele>
        <time>2014-12-07T10:30:30Z</time>
      </trkpt>
      <trkpt lat="47.4953" lon="6.65112">
        <ele>401.40480000001</ele>
        <time>2014-12-07T10:30:31Z</time>
      </trkpt>
      <trkpt lat="47.49528" lon="6.65116">
        <ele>401.394</ele>
        <time>2014-12-07T10:30:32Z</time>
      </trkpt>
      <trkpt lat="47.49526" lon="6.65119">
        <ele>401.37840000001</ele>
        <time>2014-12-07T10:30:33Z</time>
      </trkpt>
      <trkpt lat="47.49525" lon="6.65123">
        <ele>401.35799999999</ele>
        <time>2014-12-07T10:30:33Z</time>
      </trkpt>
      <trkpt lat="47.49523" lon="6.65126">
        <ele>401.33880000001</ele>
        <time>2014-12-07T10:30:35Z</time>
      </trkpt>
      <trkpt lat="47.49521" lon="6.6513">
        <ele>401.31479999999</ele>
        <time>2014-12-07T10:30:35Z</time>
      </trkpt>
      <trkpt lat="47.49519" lon="6.65133">
        <ele>401.2872</ele>
        <time>2014-12-07T10:30:37Z</time>
      </trkpt>
      <trkpt lat="47.49518" lon="6.65136">
        <ele>401.26080000001</ele>
        <time>2014-12-07T10:30:38Z</time>
      </trkpt>
      <trkpt lat="47.49516" lon="6.65139">
        <ele>401.24040000001</ele>
        <time>2014-12-07T10:30:39Z</time>
      </trkpt>
      <trkpt lat="47.49514" lon="6.65143">
        <ele>401.2236</ele>
        <time>2014-12-07T10:30:40Z</time>
      </trkpt>
      <trkpt lat="47.49513" lon="6.65146">
        <ele>401.21279999999</ele>
        <time>2014-12-07T10:30:41Z</time>
      </trkpt>
      <trkpt lat="47.49511" lon="6.6515">
        <ele>401.19479999999</ele>
        <time>2014-12-07T10:30:42Z</time>
      </trkpt>
      <trkpt lat="47.49509" lon="6.65154">
        <ele>401.18280000001</ele>
        <time>2014-12-07T10:30:43Z</time>
      </trkpt>
      <trkpt lat="47.49507" lon="6.65157">
        <ele>401.1468</ele>
        <time>2014-12-07T10:30:44Z</time>
      </trkpt>
      <trkpt lat="47.49505" lon="6.65161">
        <ele>401.1216</ele>
        <time>2014-12-07T10:30:45Z</time>
      </trkpt>
      <trkpt lat="47.49503" lon="6.65165">
        <ele>401.10359999999</ele>
        <time>2014-12-07T10:30:46Z</time>
      </trkpt>
      <trkpt lat="47.49501" lon="6.6517">
        <ele>401.14880000001</ele>
        <time>2014-12-07T10:30:47Z</time>
      </trkpt>
      <trkpt lat="47.49499" lon="6.65174">
        <ele>401.23604480001</ele>
        <time>2014-12-07T10:30:48Z</time>
      </trkpt>
      <trkpt lat="47.49497" lon="6.65178">
        <ele>401.32612304001</ele>
        <time>2014-12-07T10:30:49Z</time>
      </trkpt>
      <trkpt lat="47.49495" lon="6.65183">
        <ele>401.41181311999</ele>
        <time>2014-12-07T10:30:50Z</time>
      </trkpt>
      <trkpt lat="47.49493" lon="6.65187">
        <ele>401.50010384</ele>
        <time>2014-12-07T10:30:51Z</time>
      </trkpt>
      <trkpt lat="47.49491" lon="6.65191">
        <ele>401.59099519999</ele>
        <time>2014-12-07T10:30:52Z</time>
      </trkpt>
      <trkpt lat="47.49489" lon="6.65196">
        <ele>401.68767199999</ele>
        <time>2014-12-07T10:30:53Z</time>
      </trkpt>
      <trkpt lat="47.49487" lon="6.652">
        <ele>401.81577728</ele>
        <time>2014-12-07T10:30:54Z</time>
      </trkpt>
      <trkpt lat="47.49486" lon="6.65205">
        <ele>401.94489536</ele>
        <time>2014-12-07T10:30:55Z</time>
      </trkpt>
      <trkpt lat="47.49484" lon="6.6521">
        <ele>402.07234880001</ele>
        <time>2014-12-07T10:30:56Z</time>
      </trkpt>
      <trkpt lat="47.49482" lon="6.65214">
        <ele>402.19223744</ele>
        <time>2014-12-07T10:30:57Z</time>
      </trkpt>
      <trkpt lat="47.4948" lon="6.65219">
        <ele>402.30487232</ele>
        <time>2014-12-07T10:30:58Z</time>
      </trkpt>
      <trkpt lat="47.49478" lon="6.65223">
        <ele>402.42116816001</ele>
        <time>2014-12-07T10:30:59Z</time>
      </trkpt>
      <trkpt lat="47.49473" lon="6.65234">
        <ele>402.7043984</ele>
        <time>2014-12-07T10:31:01Z</time>
      </trkpt>
      <trkpt lat="47.49472" lon="6.65236">
        <ele>402.7753568</ele>
        <time>2014-12-07T10:31:01Z</time>
      </trkpt>
      <trkpt lat="47.49465" lon="6.65253">
        <ele>403.2848</ele>
        <time>2014-12-07T10:31:06Z</time>
      </trkpt>
      <trkpt lat="47.49464" lon="6.65257">
        <ele>403.4624</ele>
        <time>2014-12-07T10:31:07Z</time>
      </trkpt>
      <trkpt lat="47.49462" lon="6.65262">
        <ele>403.6472</ele>
        <time>2014-12-07T10:31:08Z</time>
      </trkpt>
      <trkpt lat="47.49461" lon="6.65266">
        <ele>403.8296</ele>
        <time>2014-12-07T10:31:09Z</time>
      </trkpt>
      <trkpt lat="47.49459" lon="6.65271">
        <ele>404.0048</ele>
        <time>2014-12-07T10:31:10Z</time>
      </trkpt>
      <trkpt lat="47.49457" lon="6.65275">
        <ele>404.18719999999</ele>
        <time>2014-12-07T10:31:11Z</time>
      </trkpt>
      <trkpt lat="47.49455" lon="6.6528">
        <ele>404.3456</ele>
        <time>2014-12-07T10:31:12Z</time>
      </trkpt>
      <trkpt lat="47.49455" lon="6.65284">
        <ele>404.5472</ele>
        <time>2014-12-07T10:31:13Z</time>
      </trkpt>
      <trkpt lat="47.49453" lon="6.65289">
        <ele>404.73199999999</ele>
        <time>2014-12-07T10:31:14Z</time>
      </trkpt>
      <trkpt lat="47.49452" lon="6.65293">
        <ele>404.90479999999</ele>
        <time>2014-12-07T10:31:15Z</time>
      </trkpt>
      <trkpt lat="47.49451" lon="6.65297">
        <ele>405.08239999999</ele>
        <time>2014-12-07T10:31:16Z</time>
      </trkpt>
      <trkpt lat="47.49449" lon="6.65302">
        <ele>405.2624</ele>
        <time>2014-12-07T10:31:17Z</time>
      </trkpt>
      <trkpt lat="47.49448" lon="6.65306">
        <ele>405.44</ele>
        <time>2014-12-07T10:31:18Z</time>
      </trkpt>
      <trkpt lat="47.49446" lon="6.65311">
        <ele>405.61520000001</ele>
        <time>2014-12-07T10:31:19Z</time>
      </trkpt>
      <trkpt lat="47.49445" lon="6.65315">
        <ele>405.7856</ele>
        <time>2014-12-07T10:31:20Z</time>
      </trkpt>
      <trkpt lat="47.49444" lon="6.65318">
        <ele>405.9344</ele>
        <time>2014-12-07T10:31:21Z</time>
      </trkpt>
      <trkpt lat="47.49443" lon="6.65322">
        <ele>406.09039999999</ele>
        <time>2014-12-07T10:31:22Z</time>
      </trkpt>
      <trkpt lat="47.49442" lon="6.65326">
        <ele>406.2536</ele>
        <time>2014-12-07T10:31:23Z</time>
      </trkpt>
      <trkpt lat="47.49441" lon="6.6533">
        <ele>406.41679999999</ele>
        <time>2014-12-07T10:31:24Z</time>
      </trkpt>
      <trkpt lat="47.4944" lon="6.65334">
        <ele>406.57840000001</ele>
        <time>2014-12-07T10:31:25Z</time>
      </trkpt>
      <trkpt lat="47.4944" lon="6.65338">
        <ele>406.65040000001</ele>
        <time>2014-12-07T10:31:26Z</time>
      </trkpt>
      <trkpt lat="47.4944" lon="6.65344">
        <ele>406.80159999999</ele>
        <time>2014-12-07T10:31:28Z</time>
      </trkpt>
      <trkpt lat="47.4944" lon="6.65347">
        <ele>406.8832</ele>
        <time>2014-12-07T10:31:29Z</time>
      </trkpt>
      <trkpt lat="47.49441" lon="6.6535">
        <ele>406.9768</ele>
        <time>2014-12-07T10:31:30Z</time>
      </trkpt>
      <trkpt lat="47.49441" lon="6.65354">
        <ele>407.0776</ele>
        <time>2014-12-07T10:31:31Z</time>
      </trkpt>
      <trkpt lat="47.49442" lon="6.65358">
        <ele>407.188</ele>
        <time>2014-12-07T10:31:32Z</time>
      </trkpt>
      <trkpt lat="47.49442" lon="6.65362">
        <ele>407.3056</ele>
        <time>2014-12-07T10:31:33Z</time>
      </trkpt>
      <trkpt lat="47.49442" lon="6.65367">
        <ele>407.42560000001</ele>
        <time>2014-12-07T10:31:34Z</time>
      </trkpt>
      <trkpt lat="47.49443" lon="6.65372">
        <ele>407.5456</ele>
        <time>2014-12-07T10:31:35Z</time>
      </trkpt>
      <trkpt lat="47.49443" lon="6.65377">
        <ele>407.6656</ele>
        <time>2014-12-07T10:31:36Z</time>
      </trkpt>
      <trkpt lat="47.49443" lon="6.65382">
        <ele>407.7832</ele>
        <time>2014-12-07T10:31:37Z</time>
      </trkpt>
      <trkpt lat="47.49443" lon="6.65386">
        <ele>407.8864</ele>
        <time>2014-12-07T10:31:38Z</time>
      </trkpt>
      <trkpt lat="47.49442" lon="6.65391">
        <ele>407.9992</ele>
        <time>2014-12-07T10:31:39Z</time>
      </trkpt>
      <trkpt lat="47.49442" lon="6.65396">
        <ele>408.11199999999</ele>
        <time>2014-12-07T10:31:40Z</time>
      </trkpt>
      <trkpt lat="47.49442" lon="6.65401">
        <ele>408.23199999999</ele>
        <time>2014-12-07T10:31:41Z</time>
      </trkpt>
      <trkpt lat="47.49442" lon="6.65406">
        <ele>408.352</ele>
        <time>2014-12-07T10:31:42Z</time>
      </trkpt>
      <trkpt lat="47.49442" lon="6.65411">
        <ele>408.4768</ele>
        <time>2014-12-07T10:31:43Z</time>
      </trkpt>
      <trkpt lat="47.49442" lon="6.65416">
        <ele>408.5992</ele>
        <time>2014-12-07T10:31:44Z</time>
      </trkpt>
      <trkpt lat="47.49443" lon="6.65421">
        <ele>408.713964</ele>
        <time>2014-12-07T10:31:45Z</time>
      </trkpt>
      <trkpt lat="47.49443" lon="6.65426">
        <ele>408.82643135999</ele>
        <time>2014-12-07T10:31:46Z</time>
      </trkpt>
      <trkpt lat="47.49443" lon="6.65432">
        <ele>408.93612480001</ele>
        <time>2014-12-07T10:31:47Z</time>
      </trkpt>
      <trkpt lat="47.49444" lon="6.65436">
        <ele>409.04135040001</ele>
        <time>2014-12-07T10:31:48Z</time>
      </trkpt>
      <trkpt lat="47.49444" lon="6.65441">
        <ele>409.14816192</ele>
        <time>2014-12-07T10:31:49Z</time>
      </trkpt>
      <trkpt lat="47.49444" lon="6.65446">
        <ele>409.25450976</ele>
        <time>2014-12-07T10:31:50Z</time>
      </trkpt>
      <trkpt lat="47.49445" lon="6.65451">
        <ele>409.354392</ele>
        <time>2014-12-07T10:31:51Z</time>
      </trkpt>
      <trkpt lat="47.49445" lon="6.65456">
        <ele>409.45386816</ele>
        <time>2014-12-07T10:31:52Z</time>
      </trkpt>
      <trkpt lat="47.49445" lon="6.65461">
        <ele>409.5549288</ele>
        <time>2014-12-07T10:31:53Z</time>
      </trkpt>
      <trkpt lat="47.49445" lon="6.65465">
        <ele>409.65018624001</ele>
        <time>2014-12-07T10:31:54Z</time>
      </trkpt>
      <trkpt lat="47.49445" lon="6.6547">
        <ele>409.74168576</ele>
        <time>2014-12-07T10:31:55Z</time>
      </trkpt>
      <trkpt lat="47.49445" lon="6.65474">
        <ele>409.82691072</ele>
        <time>2014-12-07T10:31:56Z</time>
      </trkpt>
      <trkpt lat="47.49444" lon="6.65479">
        <ele>409.90666368</ele>
        <time>2014-12-07T10:31:57Z</time>
      </trkpt>
      <trkpt lat="47.49444" lon="6.65483">
        <ele>409.9840224</ele>
        <time>2014-12-07T10:31:58Z</time>
      </trkpt>
      <trkpt lat="47.49443" lon="6.65487">
        <ele>410.06074128</ele>
        <time>2014-12-07T10:31:59Z</time>
      </trkpt>
      <trkpt lat="47.4944" lon="6.65498">
        <ele>410.22799488</ele>
        <time>2014-12-07T10:32:02Z</time>
      </trkpt>
      <trkpt lat="47.49439" lon="6.65501">
        <ele>410.2872</ele>
        <time>2014-12-07T10:32:03Z</time>
      </trkpt>
      <trkpt lat="47.49438" lon="6.65505">
        <ele>410.3664</ele>
        <time>2014-12-07T10:32:04Z</time>
      </trkpt>
      <trkpt lat="47.49438" lon="6.65509">
        <ele>410.4648</ele>
        <time>2014-12-07T10:32:05Z</time>
      </trkpt>
      <trkpt lat="47.49438" lon="6.65513">
        <ele>410.5716</ele>
        <time>2014-12-07T10:32:06Z</time>
      </trkpt>
      <trkpt lat="47.49437" lon="6.65518">
        <ele>410.664</ele>
        <time>2014-12-07T10:32:07Z</time>
      </trkpt>
      <trkpt lat="47.49436" lon="6.65522">
        <ele>410.7528</ele>
        <time>2014-12-07T10:32:08Z</time>
      </trkpt>
      <trkpt lat="47.49436" lon="6.65526">
        <ele>410.8428</ele>
        <time>2014-12-07T10:32:09Z</time>
      </trkpt>
      <trkpt lat="47.49435" lon="6.6553">
        <ele>410.934</ele>
        <time>2014-12-07T10:32:10Z</time>
      </trkpt>
      <trkpt lat="47.49434" lon="6.65534">
        <ele>411.0288</ele>
        <time>2014-12-07T10:32:11Z</time>
      </trkpt>
      <trkpt lat="47.49434" lon="6.65539">
        <ele>411.1296</ele>
        <time>2014-12-07T10:32:12Z</time>
      </trkpt>
      <trkpt lat="47.49433" lon="6.65543">
        <ele>411.2292</ele>
        <time>2014-12-07T10:32:13Z</time>
      </trkpt>
      <trkpt lat="47.49432" lon="6.65548">
        <ele>411.3312</ele>
        <time>2014-12-07T10:32:14Z</time>
      </trkpt>
      <trkpt lat="47.49432" lon="6.65552">
        <ele>411.4344</ele>
        <time>2014-12-07T10:32:15Z</time>
      </trkpt>
      <trkpt lat="47.49432" lon="6.65556">
        <ele>411.5316</ele>
        <time>2014-12-07T10:32:16Z</time>
      </trkpt>
      <trkpt lat="47.49431" lon="6.65561">
        <ele>411.6324</ele>
        <time>2014-12-07T10:32:17Z</time>
      </trkpt>
      <trkpt lat="47.4943" lon="6.65565">
        <ele>411.732</ele>
        <time>2014-12-07T10:32:18Z</time>
      </trkpt>
      <trkpt lat="47.4943" lon="6.6557">
        <ele>411.8292</ele>
        <time>2014-12-07T10:32:19Z</time>
      </trkpt>
      <trkpt lat="47.49429" lon="6.65574">
        <ele>411.9276</ele>
        <time>2014-12-07T10:32:20Z</time>
      </trkpt>
      <trkpt lat="47.49429" lon="6.65578">
        <ele>412.0248</ele>
        <time>2014-12-07T10:32:21Z</time>
      </trkpt>
      <trkpt lat="47.49428" lon="6.65583">
        <ele>412.122</ele>
        <time>2014-12-07T10:32:22Z</time>
      </trkpt>
      <trkpt lat="47.49427" lon="6.65588">
        <ele>412.18659456</ele>
        <time>2014-12-07T10:32:23Z</time>
      </trkpt>
      <trkpt lat="47.49427" lon="6.65593">
        <ele>412.25567712</ele>
        <time>2014-12-07T10:32:24Z</time>
      </trkpt>
      <trkpt lat="47.49428" lon="6.65598">
        <ele>412.33164864</ele>
        <time>2014-12-07T10:32:25Z</time>
      </trkpt>
      <trkpt lat="47.49428" lon="6.65604">
        <ele>412.41065184</ele>
        <time>2014-12-07T10:32:26Z</time>
      </trkpt>
      <trkpt lat="47.49428" lon="6.65609">
        <ele>412.48253807999</ele>
        <time>2014-12-07T10:32:27Z</time>
      </trkpt>
      <trkpt lat="47.49427" lon="6.65615">
        <ele>412.5493224</ele>
        <time>2014-12-07T10:32:28Z</time>
      </trkpt>
      <trkpt lat="47.49427" lon="6.6562">
        <ele>412.61030496001</ele>
        <time>2014-12-07T10:32:29Z</time>
      </trkpt>
      <trkpt lat="47.49426" lon="6.65625">
        <ele>412.66846416</ele>
        <time>2014-12-07T10:32:30Z</time>
      </trkpt>
      <trkpt lat="47.49424" lon="6.6563">
        <ele>412.69840704</ele>
        <time>2014-12-07T10:32:31Z</time>
      </trkpt>
      <trkpt lat="47.49423" lon="6.65635">
        <ele>412.74506544</ele>
        <time>2014-12-07T10:32:31Z</time>
      </trkpt>
      <trkpt lat="47.49422" lon="6.6564">
        <ele>412.77109199999</ele>
        <time>2014-12-07T10:32:33Z</time>
      </trkpt>
      <trkpt lat="47.4942" lon="6.65644">
        <ele>412.80251808</ele>
        <time>2014-12-07T10:32:34Z</time>
      </trkpt>
      <trkpt lat="47.49419" lon="6.65649">
        <ele>412.83773952</ele>
        <time>2014-12-07T10:32:35Z</time>
      </trkpt>
      <trkpt lat="47.49418" lon="6.65654">
        <ele>412.87490303999</ele>
        <time>2014-12-07T10:32:36Z</time>
      </trkpt>
      <trkpt lat="47.49417" lon="6.65658">
        <ele>412.91054976</ele>
        <time>2014-12-07T10:32:36Z</time>
      </trkpt>
      <trkpt lat="47.49416" lon="6.65663">
        <ele>412.95924448</ele>
        <time>2014-12-07T10:32:38Z</time>
      </trkpt>
      <trkpt lat="47.49416" lon="6.65668">
        <ele>413.0205088</ele>
        <time>2014-12-07T10:32:39Z</time>
      </trkpt>
      <trkpt lat="47.49415" lon="6.65674">
        <ele>413.0810368</ele>
        <time>2014-12-07T10:32:40Z</time>
      </trkpt>
      <trkpt lat="47.49414" lon="6.65679">
        <ele>413.14024192</ele>
        <time>2014-12-07T10:32:41Z</time>
      </trkpt>
      <trkpt lat="47.49413" lon="6.65684">
        <ele>413.1976</ele>
        <time>2014-12-07T10:32:42Z</time>
      </trkpt>
      <trkpt lat="47.49411" lon="6.65689">
        <ele>413.25218656</ele>
        <time>2014-12-07T10:32:43Z</time>
      </trkpt>
      <trkpt lat="47.49411" lon="6.65694">
        <ele>413.3070616</ele>
        <time>2014-12-07T10:32:44Z</time>
      </trkpt>
      <trkpt lat="47.4941" lon="6.657">
        <ele>413.36278528</ele>
        <time>2014-12-07T10:32:45Z</time>
      </trkpt>
      <trkpt lat="47.49409" lon="6.65706">
        <ele>413.4225688</ele>
        <time>2014-12-07T10:32:46Z</time>
      </trkpt>
      <trkpt lat="47.49408" lon="6.65711">
        <ele>413.48182576</ele>
        <time>2014-12-07T10:32:47Z</time>
      </trkpt>
      <trkpt lat="47.49408" lon="6.65717">
        <ele>413.5336552</ele>
        <time>2014-12-07T10:32:48Z</time>
      </trkpt>
      <trkpt lat="47.49407" lon="6.65721">
        <ele>413.5774288</ele>
        <time>2014-12-07T10:32:49Z</time>
      </trkpt>
      <trkpt lat="47.49406" lon="6.65726">
        <ele>413.62237648</ele>
        <time>2014-12-07T10:32:49Z</time>
      </trkpt>
      <trkpt lat="47.49405" lon="6.6573">
        <ele>413.6520592</ele>
        <time>2014-12-07T10:32:51Z</time>
      </trkpt>
      <trkpt lat="47.49405" lon="6.65734">
        <ele>413.68689664</ele>
        <time>2014-12-07T10:32:52Z</time>
      </trkpt>
      <trkpt lat="47.49404" lon="6.65738">
        <ele>413.72789248</ele>
        <time>2014-12-07T10:32:53Z</time>
      </trkpt>
      <trkpt lat="47.49403" lon="6.65744">
        <ele>413.76957952</ele>
        <time>2014-12-07T10:32:54Z</time>
      </trkpt>
      <trkpt lat="47.49401" lon="6.65749">
        <ele>413.8069984</ele>
        <time>2014-12-07T10:32:55Z</time>
      </trkpt>
      <trkpt lat="47.494" lon="6.65754">
        <ele>413.8888</ele>
        <time>2014-12-07T10:32:56Z</time>
      </trkpt>
      <trkpt lat="47.49399" lon="6.65758">
        <ele>413.9776</ele>
        <time>2014-12-07T10:32:57Z</time>
      </trkpt>
      <trkpt lat="47.49398" lon="6.65762">
        <ele>414.0568</ele>
        <time>2014-12-07T10:32:58Z</time>
      </trkpt>
      <trkpt lat="47.49397" lon="6.65766">
        <ele>414.1408</ele>
        <time>2014-12-07T10:32:59Z</time>
      </trkpt>
      <trkpt lat="47.49396" lon="6.6577">
        <ele>414.2236</ele>
        <time>2014-12-07T10:32:59Z</time>
      </trkpt>
      <trkpt lat="47.49389" lon="6.65808">
        <ele>415.0552</ele>
        <time>2014-12-07T10:33:08Z</time>
      </trkpt>
      <trkpt lat="47.4939" lon="6.65814">
        <ele>415.2016</ele>
        <time>2014-12-07T10:33:09Z</time>
      </trkpt>
      <trkpt lat="47.4939" lon="6.65815">
        <ele>415.24</ele>
        <time>2014-12-07T10:33:11Z</time>
      </trkpt>
      <trkpt lat="47.49393" lon="6.65818">
        <ele>415.3504</ele>
        <time>2014-12-07T10:33:13Z</time>
      </trkpt>
      <trkpt lat="47.49394" lon="6.6582">
        <ele>415.4128</ele>
        <time>2014-12-07T10:33:14Z</time>
      </trkpt>
      <trkpt lat="47.49396" lon="6.65824">
        <ele>415.54</ele>
        <time>2014-12-07T10:33:16Z</time>
      </trkpt>
      <trkpt lat="47.49396" lon="6.65828">
        <ele>415.6264</ele>
        <time>2014-12-07T10:33:17Z</time>
      </trkpt>
      <trkpt lat="47.49396" lon="6.65832">
        <ele>415.7236</ele>
        <time>2014-12-07T10:33:18Z</time>
      </trkpt>
      <trkpt lat="47.49395" lon="6.65837">
        <ele>415.72919168</ele>
        <time>2014-12-07T10:33:19Z</time>
      </trkpt>
      <trkpt lat="47.49394" lon="6.65843">
        <ele>415.703408</ele>
        <time>2014-12-07T10:33:20Z</time>
      </trkpt>
      <trkpt lat="47.49394" lon="6.65848">
        <ele>415.67655584</ele>
        <time>2014-12-07T10:33:21Z</time>
      </trkpt>
      <trkpt lat="47.49393" lon="6.65853">
        <ele>415.65160448</ele>
        <time>2014-12-07T10:33:22Z</time>
      </trkpt>
      <trkpt lat="47.49393" lon="6.65858">
        <ele>415.62745087999</ele>
        <time>2014-12-07T10:33:23Z</time>
      </trkpt>
      <trkpt lat="47.49392" lon="6.65864">
        <ele>415.60140032</ele>
        <time>2014-12-07T10:33:24Z</time>
      </trkpt>
      <trkpt lat="47.49392" lon="6.65869">
        <ele>415.5783776</ele>
        <time>2014-12-07T10:33:25Z</time>
      </trkpt>
      <trkpt lat="47.49392" lon="6.65874">
        <ele>415.55419520001</ele>
        <time>2014-12-07T10:33:26Z</time>
      </trkpt>
      <trkpt lat="47.49391" lon="6.65879">
        <ele>415.52919103999</ele>
        <time>2014-12-07T10:33:27Z</time>
      </trkpt>
      <trkpt lat="47.49391" lon="6.65885">
        <ele>415.504928</ele>
        <time>2014-12-07T10:33:28Z</time>
      </trkpt>
      <trkpt lat="47.49391" lon="6.65891">
        <ele>415.48402496</ele>
        <time>2014-12-07T10:33:29Z</time>
      </trkpt>
      <trkpt lat="47.49391" lon="6.65896">
        <ele>415.46770207999</ele>
        <time>2014-12-07T10:33:30Z</time>
      </trkpt>
      <trkpt lat="47.49391" lon="6.65902">
        <ele>415.44769087999</ele>
        <time>2014-12-07T10:33:31Z</time>
      </trkpt>
      <trkpt lat="47.49392" lon="6.65907">
        <ele>415.4299448</ele>
        <time>2014-12-07T10:33:32Z</time>
      </trkpt>
      <trkpt lat="47.49391" lon="6.65913">
        <ele>415.40100367999</ele>
        <time>2014-12-07T10:33:33Z</time>
      </trkpt>
      <trkpt lat="47.49391" lon="6.65918">
        <ele>415.41028863999</ele>
        <time>2014-12-07T10:33:34Z</time>
      </trkpt>
      <trkpt lat="47.4939" lon="6.65924">
        <ele>415.51584064</ele>
        <time>2014-12-07T10:33:35Z</time>
      </trkpt>
      <trkpt lat="47.4939" lon="6.65929">
        <ele>415.61153728</ele>
        <time>2014-12-07T10:33:36Z</time>
      </trkpt>
      <trkpt lat="47.49389" lon="6.65935">
        <ele>415.71229696001</ele>
        <time>2014-12-07T10:33:37Z</time>
      </trkpt>
      <trkpt lat="47.49388" lon="6.65941">
        <ele>415.80456064</ele>
        <time>2014-12-07T10:33:38Z</time>
      </trkpt>
      <trkpt lat="47.49388" lon="6.65947">
        <ele>415.89947392</ele>
        <time>2014-12-07T10:33:39Z</time>
      </trkpt>
      <trkpt lat="47.49387" lon="6.65953">
        <ele>415.99207744</ele>
        <time>2014-12-07T10:33:40Z</time>
      </trkpt>
      <trkpt lat="47.49386" lon="6.65959">
        <ele>416.07410560001</ele>
        <time>2014-12-07T10:33:41Z</time>
      </trkpt>
      <trkpt lat="47.49384" lon="6.65965">
        <ele>416.15212623999</ele>
        <time>2014-12-07T10:33:42Z</time>
      </trkpt>
      <trkpt lat="47.49383" lon="6.65971">
        <ele>416.22684640001</ele>
        <time>2014-12-07T10:33:43Z</time>
      </trkpt>
      <trkpt lat="47.49382" lon="6.65977">
        <ele>416.29742368</ele>
        <time>2014-12-07T10:33:44Z</time>
      </trkpt>
      <trkpt lat="47.49381" lon="6.65982">
        <ele>416.37060736</ele>
        <time>2014-12-07T10:33:45Z</time>
      </trkpt>
      <trkpt lat="47.4938" lon="6.65989">
        <ele>416.447548</ele>
        <time>2014-12-07T10:33:46Z</time>
      </trkpt>
      <trkpt lat="47.49379" lon="6.65995">
        <ele>416.53330432</ele>
        <time>2014-12-07T10:33:47Z</time>
      </trkpt>
      <trkpt lat="47.49377" lon="6.66001">
        <ele>416.60046879999</ele>
        <time>2014-12-07T10:33:48Z</time>
      </trkpt>
      <trkpt lat="47.49376" lon="6.66007">
        <ele>416.66277760001</ele>
        <time>2014-12-07T10:33:49Z</time>
      </trkpt>
      <trkpt lat="47.49375" lon="6.66013">
        <ele>416.7237616</ele>
        <time>2014-12-07T10:33:50Z</time>
      </trkpt>
      <trkpt lat="47.49373" lon="6.66018">
        <ele>416.77450432</ele>
        <time>2014-12-07T10:33:51Z</time>
      </trkpt>
      <trkpt lat="47.49372" lon="6.66024">
        <ele>416.8186288</ele>
        <time>2014-12-07T10:33:52Z</time>
      </trkpt>
      <trkpt lat="47.4937" lon="6.66029">
        <ele>416.87187712</ele>
        <time>2014-12-07T10:33:53Z</time>
      </trkpt>
      <trkpt lat="47.49369" lon="6.66034">
        <ele>416.9291488</ele>
        <time>2014-12-07T10:33:54Z</time>
      </trkpt>
      <trkpt lat="47.49368" lon="6.6604">
        <ele>416.996224</ele>
        <time>2014-12-07T10:33:55Z</time>
      </trkpt>
      <trkpt lat="47.49366" lon="6.66046">
        <ele>417.07435407999</ele>
        <time>2014-12-07T10:33:56Z</time>
      </trkpt>
      <trkpt lat="47.49365" lon="6.66052">
        <ele>417.15282400001</ele>
        <time>2014-12-07T10:33:57Z</time>
      </trkpt>
      <trkpt lat="47.49364" lon="6.66058">
        <ele>417.23354032</ele>
        <time>2014-12-07T10:33:58Z</time>
      </trkpt>
      <trkpt lat="47.49362" lon="6.66064">
        <ele>417.31114912001</ele>
        <time>2014-12-07T10:33:59Z</time>
      </trkpt>
      <trkpt lat="47.49361" lon="6.6607">
        <ele>417.39853408</ele>
        <time>2014-12-07T10:34:00Z</time>
      </trkpt>
      <trkpt lat="47.49351" lon="6.66113">
        <ele>417.86687104</ele>
        <time>2014-12-07T10:34:08Z</time>
      </trkpt>
      <trkpt lat="47.4935" lon="6.66118">
        <ele>417.88621600001</ele>
        <time>2014-12-07T10:34:09Z</time>
      </trkpt>
      <trkpt lat="47.49348" lon="6.66122">
        <ele>417.90370335999</ele>
        <time>2014-12-07T10:34:10Z</time>
      </trkpt>
      <trkpt lat="47.49347" lon="6.66126">
        <ele>417.92513967999</ele>
        <time>2014-12-07T10:34:11Z</time>
      </trkpt>
      <trkpt lat="47.49345" lon="6.66131">
        <ele>417.9444256</ele>
        <time>2014-12-07T10:34:12Z</time>
      </trkpt>
      <trkpt lat="47.49344" lon="6.66136">
        <ele>417.95852703999</ele>
        <time>2014-12-07T10:34:13Z</time>
      </trkpt>
      <trkpt lat="47.49342" lon="6.6614">
        <ele>417.95872</ele>
        <time>2014-12-07T10:34:14Z</time>
      </trkpt>
      <trkpt lat="47.4934" lon="6.66144">
        <ele>417.93452032</ele>
        <time>2014-12-07T10:34:15Z</time>
      </trkpt>
      <trkpt lat="47.49337" lon="6.66147">
        <ele>417.89888320001</ele>
        <time>2014-12-07T10:34:16Z</time>
      </trkpt>
      <trkpt lat="47.49335" lon="6.66151">
        <ele>417.86885440001</ele>
        <time>2014-12-07T10:34:17Z</time>
      </trkpt>
      <trkpt lat="47.49333" lon="6.66154">
        <ele>417.83637439999</ele>
        <time>2014-12-07T10:34:18Z</time>
      </trkpt>
      <trkpt lat="47.49331" lon="6.66158">
        <ele>417.79094528</ele>
        <time>2014-12-07T10:34:19Z</time>
      </trkpt>
      <trkpt lat="47.4933" lon="6.66161">
        <ele>417.74487200002</ele>
        <time>2014-12-07T10:34:20Z</time>
      </trkpt>
      <trkpt lat="47.49328" lon="6.66164">
        <ele>417.70283455998</ele>
        <time>2014-12-07T10:34:21Z</time>
      </trkpt>
      <trkpt lat="47.49326" lon="6.66167">
        <ele>417.66935856</ele>
        <time>2014-12-07T10:34:22Z</time>
      </trkpt>
      <trkpt lat="47.49325" lon="6.6617">
        <ele>417.64032000002</ele>
        <time>2014-12-07T10:34:23Z</time>
      </trkpt>
      <trkpt lat="47.49324" lon="6.66174">
        <ele>417.61501919999</ele>
        <time>2014-12-07T10:34:24Z</time>
      </trkpt>
      <trkpt lat="47.49322" lon="6.66179">
        <ele>417.58096512002</ele>
        <time>2014-12-07T10:34:26Z</time>
      </trkpt>
      <trkpt lat="47.49321" lon="6.66181">
        <ele>417.55863359999</ele>
        <time>2014-12-07T10:34:27Z</time>
      </trkpt>
      <trkpt lat="47.49318" lon="6.66185">
        <ele>417.44041151999</ele>
        <time>2014-12-07T10:35:03Z</time>
      </trkpt>
      <trkpt lat="47.49317" lon="6.66188">
        <ele>417.42693119998</ele>
        <time>2014-12-07T10:35:03Z</time>
      </trkpt>
      <trkpt lat="47.49316" lon="6.66193">
        <ele>417.40557263998</ele>
        <time>2014-12-07T10:35:05Z</time>
      </trkpt>
      <trkpt lat="47.49315" lon="6.66196">
        <ele>417.37982448</ele>
        <time>2014-12-07T10:35:06Z</time>
      </trkpt>
      <trkpt lat="47.49314" lon="6.66202">
        <ele>417.39416352</ele>
        <time>2014-12-07T10:35:07Z</time>
      </trkpt>
      <trkpt lat="47.49313" lon="6.66206">
        <ele>417.39419664</ele>
        <time>2014-12-07T10:35:07Z</time>
      </trkpt>
      <trkpt lat="47.49314" lon="6.66212">
        <ele>417.48249888</ele>
        <time>2014-12-07T10:35:09Z</time>
      </trkpt>
      <trkpt lat="47.49316" lon="6.6622">
        <ele>417.69540288001</ele>
        <time>2014-12-07T10:35:10Z</time>
      </trkpt>
      <trkpt lat="47.49318" lon="6.66227">
        <ele>417.85576320001</ele>
        <time>2014-12-07T10:35:11Z</time>
      </trkpt>
      <trkpt lat="47.4932" lon="6.66234">
        <ele>418.01263487999</ele>
        <time>2014-12-07T10:35:12Z</time>
      </trkpt>
      <trkpt lat="47.49321" lon="6.6624">
        <ele>418.17635471998</ele>
        <time>2014-12-07T10:35:13Z</time>
      </trkpt>
      <trkpt lat="47.49323" lon="6.66247">
        <ele>418.33830816</ele>
        <time>2014-12-07T10:35:14Z</time>
      </trkpt>
      <trkpt lat="47.49324" lon="6.66253">
        <ele>418.40186400001</ele>
        <time>2014-12-07T10:35:15Z</time>
      </trkpt>
      <trkpt lat="47.49326" lon="6.66259">
        <ele>418.36977311998</ele>
        <time>2014-12-07T10:35:16Z</time>
      </trkpt>
      <trkpt lat="47.49328" lon="6.66265">
        <ele>418.33203408</ele>
        <time>2014-12-07T10:35:17Z</time>
      </trkpt>
      <trkpt lat="47.49329" lon="6.66271">
        <ele>418.29791327999</ele>
        <time>2014-12-07T10:35:18Z</time>
      </trkpt>
      <trkpt lat="47.49331" lon="6.66277">
        <ele>418.26042240001</ele>
        <time>2014-12-07T10:35:19Z</time>
      </trkpt>
      <trkpt lat="47.49333" lon="6.66282">
        <ele>418.22122559999</ele>
        <time>2014-12-07T10:35:20Z</time>
      </trkpt>
      <trkpt lat="47.49335" lon="6.66288">
        <ele>418.178</ele>
        <time>2014-12-07T10:35:21Z</time>
      </trkpt>
      <trkpt lat="47.49337" lon="6.66293">
        <ele>418.14540799999</ele>
        <time>2014-12-07T10:35:22Z</time>
      </trkpt>
      <trkpt lat="47.49339" lon="6.66298">
        <ele>418.13085056001</ele>
        <time>2014-12-07T10:35:23Z</time>
      </trkpt>
      <trkpt lat="47.49341" lon="6.66303">
        <ele>418.12910336</ele>
        <time>2014-12-07T10:35:24Z</time>
      </trkpt>
      <trkpt lat="47.49343" lon="6.66308">
        <ele>418.13012863999</ele>
        <time>2014-12-07T10:35:25Z</time>
      </trkpt>
      <trkpt lat="47.49345" lon="6.66313">
        <ele>418.13333888</ele>
        <time>2014-12-07T10:35:26Z</time>
      </trkpt>
      <trkpt lat="47.49347" lon="6.66317">
        <ele>418.13112320001</ele>
        <time>2014-12-07T10:35:27Z</time>
      </trkpt>
      <trkpt lat="47.49348" lon="6.66322">
        <ele>418.11401599999</ele>
        <time>2014-12-07T10:35:28Z</time>
      </trkpt>
      <trkpt lat="47.49349" lon="6.66326">
        <ele>418.08675487999</ele>
        <time>2014-12-07T10:35:29Z</time>
      </trkpt>
      <trkpt lat="47.4935" lon="6.66331">
        <ele>418.06642111998</ele>
        <time>2014-12-07T10:35:30Z</time>
      </trkpt>
      <trkpt lat="47.49352" lon="6.66336">
        <ele>418.07732416</ele>
        <time>2014-12-07T10:35:31Z</time>
      </trkpt>
      <trkpt lat="47.49353" lon="6.66341">
        <ele>418.12791808001</ele>
        <time>2014-12-07T10:35:32Z</time>
      </trkpt>
      <trkpt lat="47.49355" lon="6.66346">
        <ele>418.16785072</ele>
        <time>2014-12-07T10:35:32Z</time>
      </trkpt>
      <trkpt lat="47.49357" lon="6.66351">
        <ele>418.21219119998</ele>
        <time>2014-12-07T10:35:34Z</time>
      </trkpt>
      <trkpt lat="47.49358" lon="6.66357">
        <ele>418.24313440002</ele>
        <time>2014-12-07T10:35:35Z</time>
      </trkpt>
      <trkpt lat="47.4936" lon="6.66362">
        <ele>418.26138015999</ele>
        <time>2014-12-07T10:35:36Z</time>
      </trkpt>
      <trkpt lat="47.49362" lon="6.66367">
        <ele>418.28122624001</ele>
        <time>2014-12-07T10:35:37Z</time>
      </trkpt>
      <trkpt lat="47.49363" lon="6.66373">
        <ele>418.29267424</ele>
        <time>2014-12-07T10:35:38Z</time>
      </trkpt>
      <trkpt lat="47.49365" lon="6.66378">
        <ele>418.29028576</ele>
        <time>2014-12-07T10:35:39Z</time>
      </trkpt>
      <trkpt lat="47.49368" lon="6.66385">
        <ele>418.30235919999</ele>
        <time>2014-12-07T10:35:40Z</time>
      </trkpt>
      <trkpt lat="47.49369" lon="6.66391">
        <ele>418.26821344</ele>
        <time>2014-12-07T10:35:41Z</time>
      </trkpt>
      <trkpt lat="47.49371" lon="6.66396">
        <ele>418.25181471999</ele>
        <time>2014-12-07T10:35:42Z</time>
      </trkpt>
      <trkpt lat="47.49373" lon="6.66401">
        <ele>418.21972864</ele>
        <time>2014-12-07T10:35:43Z</time>
      </trkpt>
      <trkpt lat="47.49375" lon="6.66406">
        <ele>418.18627839999</ele>
        <time>2014-12-07T10:35:44Z</time>
      </trkpt>
      <trkpt lat="47.49377" lon="6.66411">
        <ele>418.1469616</ele>
        <time>2014-12-07T10:35:45Z</time>
      </trkpt>
      <trkpt lat="47.49379" lon="6.66416">
        <ele>418.10475472</ele>
        <time>2014-12-07T10:35:46Z</time>
      </trkpt>
      <trkpt lat="47.49381" lon="6.66422">
        <ele>417.91727264</ele>
        <time>2014-12-07T10:35:47Z</time>
      </trkpt>
      <trkpt lat="47.49383" lon="6.66427">
        <ele>417.70541695999</ele>
        <time>2014-12-07T10:35:48Z</time>
      </trkpt>
      <trkpt lat="47.49383" lon="6.66432">
        <ele>417.48654512001</ele>
        <time>2014-12-07T10:35:49Z</time>
      </trkpt>
      <trkpt lat="47.49385" lon="6.66438">
        <ele>417.25015616</ele>
        <time>2014-12-07T10:35:50Z</time>
      </trkpt>
      <trkpt lat="47.49387" lon="6.66444">
        <ele>417.0181736</ele>
        <time>2014-12-07T10:35:51Z</time>
      </trkpt>
      <trkpt lat="47.49388" lon="6.66448">
        <ele>416.8189856</ele>
        <time>2014-12-07T10:35:52Z</time>
      </trkpt>
      <trkpt lat="47.49389" lon="6.66451">
        <ele>416.67880976</ele>
        <time>2014-12-07T10:35:53Z</time>
      </trkpt>
      <trkpt lat="47.4939" lon="6.66457">
        <ele>416.41366976</ele>
        <time>2014-12-07T10:35:58Z</time>
      </trkpt>
      <trkpt lat="47.49391" lon="6.6646">
        <ele>416.2742624</ele>
        <time>2014-12-07T10:35:59Z</time>
      </trkpt>
      <trkpt lat="47.49392" lon="6.66463">
        <ele>416.11797584</ele>
        <time>2014-12-07T10:36:00Z</time>
      </trkpt>
      <trkpt lat="47.49404" lon="6.66486">
        <ele>414.90814064</ele>
        <time>2014-12-07T10:36:08Z</time>
      </trkpt>
      <trkpt lat="47.49408" lon="6.66487">
        <ele>414.82777424</ele>
        <time>2014-12-07T10:36:10Z</time>
      </trkpt>
      <trkpt lat="47.4941" lon="6.66488">
        <ele>414.75194528</ele>
        <time>2014-12-07T10:36:11Z</time>
      </trkpt>
      <trkpt lat="47.49412" lon="6.6649">
        <ele>414.62268992</ele>
        <time>2014-12-07T10:36:12Z</time>
      </trkpt>
      <trkpt lat="47.49414" lon="6.66493">
        <ele>414.43397888</ele>
        <time>2014-12-07T10:36:13Z</time>
      </trkpt>
      <trkpt lat="47.49415" lon="6.66497">
        <ele>414.18382592</ele>
        <time>2014-12-07T10:36:14Z</time>
      </trkpt>
      <trkpt lat="47.49416" lon="6.66503">
        <ele>413.69055680001</ele>
        <time>2014-12-07T10:36:15Z</time>
      </trkpt>
      <trkpt lat="47.49418" lon="6.66507">
        <ele>413.16080000001</ele>
        <time>2014-12-07T10:36:16Z</time>
      </trkpt>
      <trkpt lat="47.49419" lon="6.66512">
        <ele>412.65919999999</ele>
        <time>2014-12-07T10:36:17Z</time>
      </trkpt>
      <trkpt lat="47.49419" lon="6.66516">
        <ele>412.1408</ele>
        <time>2014-12-07T10:36:18Z</time>
      </trkpt>
      <trkpt lat="47.4942" lon="6.6652">
        <ele>411.62839999998</ele>
        <time>2014-12-07T10:36:19Z</time>
      </trkpt>
      <trkpt lat="47.49421" lon="6.66525">
        <ele>411.12680000001</ele>
        <time>2014-12-07T10:36:20Z</time>
      </trkpt>
      <trkpt lat="47.49423" lon="6.66529">
        <ele>410.6312</ele>
        <time>2014-12-07T10:36:21Z</time>
      </trkpt>
      <trkpt lat="47.49424" lon="6.66533">
        <ele>410.15719999999</ele>
        <time>2014-12-07T10:36:22Z</time>
      </trkpt>
      <trkpt lat="47.49425" lon="6.66538">
        <ele>409.5524</ele>
        <time>2014-12-07T10:36:23Z</time>
      </trkpt>
      <trkpt lat="47.49426" lon="6.66544">
        <ele>408.87799999998</ele>
        <time>2014-12-07T10:36:24Z</time>
      </trkpt>
      <trkpt lat="47.49427" lon="6.6655">
        <ele>408.13399999999</ele>
        <time>2014-12-07T10:36:25Z</time>
      </trkpt>
      <trkpt lat="47.49428" lon="6.66557">
        <ele>407.3372</ele>
        <time>2014-12-07T10:36:26Z</time>
      </trkpt>
      <trkpt lat="47.4943" lon="6.66566">
        <ele>406.21160000001</ele>
        <time>2014-12-07T10:36:27Z</time>
      </trkpt>
      <trkpt lat="47.49432" lon="6.66573">
        <ele>405.40280000001</ele>
        <time>2014-12-07T10:36:28Z</time>
      </trkpt>
      <trkpt lat="47.49434" lon="6.66579">
        <ele>404.6024</ele>
        <time>2014-12-07T10:36:29Z</time>
      </trkpt>
      <trkpt lat="47.49435" lon="6.66587">
        <ele>403.8504</ele>
        <time>2014-12-07T10:36:30Z</time>
      </trkpt>
      <trkpt lat="47.49436" lon="6.66592">
        <ele>403.33439999999</ele>
        <time>2014-12-07T10:36:31Z</time>
      </trkpt>
      <trkpt lat="47.49437" lon="6.66597">
        <ele>402.88799999999</ele>
        <time>2014-12-07T10:36:32Z</time>
      </trkpt>
      <trkpt lat="47.49438" lon="6.66602">
        <ele>402.43560000001</ele>
        <time>2014-12-07T10:36:33Z</time>
      </trkpt>
      <trkpt lat="47.49441" lon="6.66607">
        <ele>401.8932</ele>
        <time>2014-12-07T10:36:34Z</time>
      </trkpt>
      <trkpt lat="47.49443" lon="6.66611">
        <ele>401.4384</ele>
        <time>2014-12-07T10:36:35Z</time>
      </trkpt>
      <trkpt lat="47.49445" lon="6.66616">
        <ele>400.94279999999</ele>
        <time>2014-12-07T10:36:36Z</time>
      </trkpt>
      <trkpt lat="47.49447" lon="6.66619">
        <ele>400.56719999998</ele>
        <time>2014-12-07T10:36:37Z</time>
      </trkpt>
      <trkpt lat="47.49448" lon="6.66624">
        <ele>400.10519999999</ele>
        <time>2014-12-07T10:36:38Z</time>
      </trkpt>
      <trkpt lat="47.49451" lon="6.66626">
        <ele>399.72959999999</ele>
        <time>2014-12-07T10:36:39Z</time>
      </trkpt>
      <trkpt lat="47.49454" lon="6.66633">
        <ele>399.02040000001</ele>
        <time>2014-12-07T10:36:40Z</time>
      </trkpt>
      <trkpt lat="47.49457" lon="6.66639">
        <ele>398.38440000001</ele>
        <time>2014-12-07T10:36:41Z</time>
      </trkpt>
      <trkpt lat="47.4946" lon="6.66645">
        <ele>397.75080000001</ele>
        <time>2014-12-07T10:36:42Z</time>
      </trkpt>
      <trkpt lat="47.49462" lon="6.66652">
        <ele>397.07399999999</ele>
        <time>2014-12-07T10:36:43Z</time>
      </trkpt>
      <trkpt lat="47.49462" lon="6.6666">
        <ele>396.39000000001</ele>
        <time>2014-12-07T10:36:44Z</time>
      </trkpt>
      <trkpt lat="47.49463" lon="6.66668">
        <ele>395.62732543999</ele>
        <time>2014-12-07T10:36:45Z</time>
      </trkpt>
      <trkpt lat="47.49464" lon="6.66676">
        <ele>394.91748895999</ele>
        <time>2014-12-07T10:36:46Z</time>
      </trkpt>
      <trkpt lat="47.49465" lon="6.66683">
        <ele>394.19628031998</ele>
        <time>2014-12-07T10:36:47Z</time>
      </trkpt>
      <trkpt lat="47.49466" lon="6.66691">
        <ele>393.3945344</ele>
        <time>2014-12-07T10:36:48Z</time>
      </trkpt>
      <trkpt lat="47.49468" lon="6.667">
        <ele>392.49873919999</ele>
        <time>2014-12-07T10:36:49Z</time>
      </trkpt>
      <trkpt lat="47.49471" lon="6.6671">
        <ele>391.46970559999</ele>
        <time>2014-12-07T10:36:50Z</time>
      </trkpt>
      <trkpt lat="47.49473" lon="6.66717">
        <ele>390.68916223999</ele>
        <time>2014-12-07T10:36:51Z</time>
      </trkpt>
      <trkpt lat="47.49474" lon="6.66726">
        <ele>389.79052063999</ele>
        <time>2014-12-07T10:36:52Z</time>
      </trkpt>
      <trkpt lat="47.49477" lon="6.66734">
        <ele>388.9196408</ele>
        <time>2014-12-07T10:36:53Z</time>
      </trkpt>
      <trkpt lat="47.49478" lon="6.66743">
        <ele>387.96480511998</ele>
        <time>2014-12-07T10:36:54Z</time>
      </trkpt>
      <trkpt lat="47.49481" lon="6.66752">
        <ele>387.01244672</ele>
        <time>2014-12-07T10:36:55Z</time>
      </trkpt>
      <trkpt lat="47.49483" lon="6.66762">
        <ele>386.14500416</ele>
        <time>2014-12-07T10:36:56Z</time>
      </trkpt>
      <trkpt lat="47.49485" lon="6.6677">
        <ele>385.39106336001</ele>
        <time>2014-12-07T10:36:57Z</time>
      </trkpt>
      <trkpt lat="47.49488" lon="6.66776">
        <ele>384.76403456001</ele>
        <time>2014-12-07T10:36:58Z</time>
      </trkpt>
      <trkpt lat="47.4949" lon="6.66782">
        <ele>384.20891840002</ele>
        <time>2014-12-07T10:36:59Z</time>
      </trkpt>
      <trkpt lat="47.49492" lon="6.66788">
        <ele>383.62940672002</ele>
        <time>2014-12-07T10:37:00Z</time>
      </trkpt>
      <trkpt lat="47.49495" lon="6.66794">
        <ele>383.06813311998</ele>
        <time>2014-12-07T10:37:01Z</time>
      </trkpt>
      <trkpt lat="47.49521" lon="6.66848">
        <ele>377.39334399999</ele>
        <time>2014-12-07T10:37:09Z</time>
      </trkpt>
      <trkpt lat="47.49524" lon="6.66855">
        <ele>376.39229248</ele>
        <time>2014-12-07T10:37:10Z</time>
      </trkpt>
      <trkpt lat="47.49528" lon="6.66862">
        <ele>375.51322624</ele>
        <time>2014-12-07T10:37:11Z</time>
      </trkpt>
      <trkpt lat="47.49533" lon="6.66871">
        <ele>374.55685599999</ele>
        <time>2014-12-07T10:37:12Z</time>
      </trkpt>
      <trkpt lat="47.49536" lon="6.66879">
        <ele>373.70388544</ele>
        <time>2014-12-07T10:37:13Z</time>
      </trkpt>
      <trkpt lat="47.49538" lon="6.66886">
        <ele>372.92317792</ele>
        <time>2014-12-07T10:37:14Z</time>
      </trkpt>
      <trkpt lat="47.49541" lon="6.66894">
        <ele>372.2205472</ele>
        <time>2014-12-07T10:37:15Z</time>
      </trkpt>
      <trkpt lat="47.49544" lon="6.66901">
        <ele>371.53573888</ele>
        <time>2014-12-07T10:37:16Z</time>
      </trkpt>
      <trkpt lat="47.49547" lon="6.66908">
        <ele>370.93935520001</ele>
        <time>2014-12-07T10:37:17Z</time>
      </trkpt>
      <trkpt lat="47.49549" lon="6.66915">
        <ele>370.320928</ele>
        <time>2014-12-07T10:37:18Z</time>
      </trkpt>
      <trkpt lat="47.49551" lon="6.66922">
        <ele>369.87329408</ele>
        <time>2014-12-07T10:37:19Z</time>
      </trkpt>
      <trkpt lat="47.49552" lon="6.66928">
        <ele>369.43681568</ele>
        <time>2014-12-07T10:37:20Z</time>
      </trkpt>
      <trkpt lat="47.49552" lon="6.66936">
        <ele>368.95099039999</ele>
        <time>2014-12-07T10:37:21Z</time>
      </trkpt>
      <trkpt lat="47.49553" lon="6.66943">
        <ele>368.43183008001</ele>
        <time>2014-12-07T10:37:22Z</time>
      </trkpt>
      <trkpt lat="47.49553" lon="6.66951">
        <ele>367.90858208</ele>
        <time>2014-12-07T10:37:23Z</time>
      </trkpt>
      <trkpt lat="47.49553" lon="6.6696">
        <ele>367.29021728</ele>
        <time>2014-12-07T10:37:24Z</time>
      </trkpt>
      <trkpt lat="47.49554" lon="6.66969">
        <ele>366.71977472001</ele>
        <time>2014-12-07T10:37:25Z</time>
      </trkpt>
      <trkpt lat="47.49555" lon="6.66977">
        <ele>366.17893952</ele>
        <time>2014-12-07T10:37:26Z</time>
      </trkpt>
      <trkpt lat="47.49556" lon="6.66985">
        <ele>365.66383520002</ele>
        <time>2014-12-07T10:37:27Z</time>
      </trkpt>
      <trkpt lat="47.49557" lon="6.66994">
        <ele>365.13438944</ele>
        <time>2014-12-07T10:37:28Z</time>
      </trkpt>
      <trkpt lat="47.49559" lon="6.67001">
        <ele>364.65725696001</ele>
        <time>2014-12-07T10:37:29Z</time>
      </trkpt>
      <trkpt lat="47.49562" lon="6.67007">
        <ele>364.01043583999</ele>
        <time>2014-12-07T10:37:30Z</time>
      </trkpt>
      <trkpt lat="47.49568" lon="6.67011">
        <ele>363.76303904001</ele>
        <time>2014-12-07T10:37:31Z</time>
      </trkpt>
      <trkpt lat="47.49573" lon="6.67016">
        <ele>363.12900992</ele>
        <time>2014-12-07T10:37:32Z</time>
      </trkpt>
      <trkpt lat="47.49579" lon="6.67022">
        <ele>362.47644416</ele>
        <time>2014-12-07T10:37:33Z</time>
      </trkpt>
      <trkpt lat="47.49585" lon="6.67027">
        <ele>361.79994816</ele>
        <time>2014-12-07T10:37:34Z</time>
      </trkpt>
      <trkpt lat="47.49589" lon="6.6703">
        <ele>361.09914048001</ele>
        <time>2014-12-07T10:37:35Z</time>
      </trkpt>
      <trkpt lat="47.49594" lon="6.67034">
        <ele>360.28310976</ele>
        <time>2014-12-07T10:37:36Z</time>
      </trkpt>
      <trkpt lat="47.496" lon="6.67038">
        <ele>359.43246288001</ele>
        <time>2014-12-07T10:37:37Z</time>
      </trkpt>
      <trkpt lat="47.49606" lon="6.67042">
        <ele>358.55775360001</ele>
        <time>2014-12-07T10:37:38Z</time>
      </trkpt>
      <trkpt lat="47.49613" lon="6.67045">
        <ele>357.72400799999</ele>
        <time>2014-12-07T10:37:39Z</time>
      </trkpt>
      <trkpt lat="47.49619" lon="6.67049">
        <ele>356.84505792002</ele>
        <time>2014-12-07T10:37:40Z</time>
      </trkpt>
      <trkpt lat="47.49623" lon="6.67054">
        <ele>355.85439552</ele>
        <time>2014-12-07T10:37:41Z</time>
      </trkpt>
      <trkpt lat="47.49627" lon="6.67059">
        <ele>354.85300799999</ele>
        <time>2014-12-07T10:37:42Z</time>
      </trkpt>
      <trkpt lat="47.49631" lon="6.67065">
        <ele>353.71228032001</ele>
        <time>2014-12-07T10:37:43Z</time>
      </trkpt>
      <trkpt lat="47.49636" lon="6.67069">
        <ele>352.85401152</ele>
        <time>2014-12-07T10:37:44Z</time>
      </trkpt>
      <trkpt lat="47.49644" lon="6.67071">
        <ele>352.13159664001</ele>
        <time>2014-12-07T10:37:45Z</time>
      </trkpt>
      <trkpt lat="47.49651" lon="6.67075">
        <ele>351.16848864002</ele>
        <time>2014-12-07T10:37:46Z</time>
      </trkpt>
      <trkpt lat="47.49655" lon="6.67077">
        <ele>350.60614848001</ele>
        <time>2014-12-07T10:37:47Z</time>
      </trkpt>
      <trkpt lat="47.49659" lon="6.67079">
        <ele>350.19831599998</ele>
        <time>2014-12-07T10:37:48Z</time>
      </trkpt>
      <trkpt lat="47.49663" lon="6.67081">
        <ele>349.59796128</ele>
        <time>2014-12-07T10:37:49Z</time>
      </trkpt>
      <trkpt lat="47.49668" lon="6.67083">
        <ele>349.10483136</ele>
        <time>2014-12-07T10:37:50Z</time>
      </trkpt>
      <trkpt lat="47.49673" lon="6.67086">
        <ele>349.05687936</ele>
        <time>2014-12-07T10:37:51Z</time>
      </trkpt>
      <trkpt lat="47.49677" lon="6.67088">
        <ele>349.1028048</ele>
        <time>2014-12-07T10:37:52Z</time>
      </trkpt>
      <trkpt lat="47.49681" lon="6.67091">
        <ele>349.1568984</ele>
        <time>2014-12-07T10:37:53Z</time>
      </trkpt>
      <trkpt lat="47.49684" lon="6.67093">
        <ele>349.19887008</ele>
        <time>2014-12-07T10:37:54Z</time>
      </trkpt>
      <trkpt lat="47.49686" lon="6.67095">
        <ele>349.23952032</ele>
        <time>2014-12-07T10:37:55Z</time>
      </trkpt>
      <trkpt lat="47.49689" lon="6.67097">
        <ele>349.27800528</ele>
        <time>2014-12-07T10:37:57Z</time>
      </trkpt>
      <trkpt lat="47.49691" lon="6.67099">
        <ele>349.3220064</ele>
        <time>2014-12-07T10:37:58Z</time>
      </trkpt>
      <trkpt lat="47.49694" lon="6.671">
        <ele>349.3295592</ele>
        <time>2014-12-07T10:38:00Z</time>
      </trkpt>
      <trkpt lat="47.49702" lon="6.67105">
        <ele>349.41827808</ele>
        <time>2014-12-07T10:38:08Z</time>
      </trkpt>
      <trkpt lat="47.49705" lon="6.67107">
        <ele>349.44174336</ele>
        <time>2014-12-07T10:38:11Z</time>
      </trkpt>
      <trkpt lat="47.49706" lon="6.67109">
        <ele>349.46402736</ele>
        <time>2014-12-07T10:38:12Z</time>
      </trkpt>
      <trkpt lat="47.4971" lon="6.67113">
        <ele>349.5254496</ele>
        <time>2014-12-07T10:38:14Z</time>
      </trkpt>
      <trkpt lat="47.49711" lon="6.67115">
        <ele>349.56090432</ele>
        <time>2014-12-07T10:38:15Z</time>
      </trkpt>
      <trkpt lat="47.49713" lon="6.67118">
        <ele>349.5972384</ele>
        <time>2014-12-07T10:38:16Z</time>
      </trkpt>
      <trkpt lat="47.49715" lon="6.67121">
        <ele>349.64067696</ele>
        <time>2014-12-07T10:38:17Z</time>
      </trkpt>
      <trkpt lat="47.49717" lon="6.67125">
        <ele>349.69644096</ele>
        <time>2014-12-07T10:38:18Z</time>
      </trkpt>
      <trkpt lat="47.49719" lon="6.67129">
        <ele>349.75779072</ele>
        <time>2014-12-07T10:38:19Z</time>
      </trkpt>
      <trkpt lat="47.49721" lon="6.67134">
        <ele>349.82737248</ele>
        <time>2014-12-07T10:38:20Z</time>
      </trkpt>
      <trkpt lat="47.49727" lon="6.67152">
        <ele>350.05076832</ele>
        <time>2014-12-07T10:38:21Z</time>
      </trkpt>
      <trkpt lat="47.49729" lon="6.67158">
        <ele>350.1262992</ele>
        <time>2014-12-07T10:38:22Z</time>
      </trkpt>
      <trkpt lat="47.49731" lon="6.67164">
        <ele>350.19343104</ele>
        <time>2014-12-07T10:38:23Z</time>
      </trkpt>
      <trkpt lat="47.49732" lon="6.6717">
        <ele>350.3444</ele>
        <time>2014-12-07T10:38:24Z</time>
      </trkpt>
      <trkpt lat="47.49733" lon="6.67175">
        <ele>350.5112</ele>
        <time>2014-12-07T10:38:25Z</time>
      </trkpt>
      <trkpt lat="47.49734" lon="6.67179">
        <ele>350.642</ele>
        <time>2014-12-07T10:38:26Z</time>
      </trkpt>
      <trkpt lat="47.49736" lon="6.67191">
        <ele>351.0368</ele>
        <time>2014-12-07T10:38:27Z</time>
      </trkpt>
      <trkpt lat="47.49739" lon="6.67195">
        <ele>351.1508</ele>
        <time>2014-12-07T10:38:28Z</time>
      </trkpt>
      <trkpt lat="47.49741" lon="6.67199">
        <ele>351.2648</ele>
        <time>2014-12-07T10:38:29Z</time>
      </trkpt>
      <trkpt lat="47.49743" lon="6.67202">
        <ele>351.3512</ele>
        <time>2014-12-07T10:38:30Z</time>
      </trkpt>
      <trkpt lat="47.49745" lon="6.67206">
        <ele>351.4604</ele>
        <time>2014-12-07T10:38:31Z</time>
      </trkpt>
      <trkpt lat="47.49746" lon="6.67209">
        <ele>351.5684</ele>
        <time>2014-12-07T10:38:32Z</time>
      </trkpt>
      <trkpt lat="47.49747" lon="6.67212">
        <ele>351.6764</ele>
        <time>2014-12-07T10:38:33Z</time>
      </trkpt>
      <trkpt lat="47.49748" lon="6.67216">
        <ele>351.7808</ele>
        <time>2014-12-07T10:38:34Z</time>
      </trkpt>
      <trkpt lat="47.49749" lon="6.67219">
        <ele>351.878</ele>
        <time>2014-12-07T10:38:35Z</time>
      </trkpt>
      <trkpt lat="47.4975" lon="6.67224">
        <ele>352.06040000001</ele>
        <time>2014-12-07T10:38:37Z</time>
      </trkpt>
      <trkpt lat="47.4975" lon="6.67227">
        <ele>352.1552</ele>
        <time>2014-12-07T10:38:38Z</time>
      </trkpt>
      <trkpt lat="47.4975" lon="6.67232">
        <ele>352.3436</ele>
        <time>2014-12-07T10:38:40Z</time>
      </trkpt>
      <trkpt lat="47.49749" lon="6.67234">
        <ele>352.4216</ele>
        <time>2014-12-07T10:38:41Z</time>
      </trkpt>
      <trkpt lat="47.49748" lon="6.67239">
        <ele>352.6244</ele>
        <time>2014-12-07T10:38:44Z</time>
      </trkpt>
      <trkpt lat="47.49747" lon="6.6724">
        <ele>352.682</ele>
        <time>2014-12-07T10:38:45Z</time>
      </trkpt>
      <trkpt lat="47.49746" lon="6.67245">
        <ele>352.8644</ele>
        <time>2014-12-07T10:38:48Z</time>
      </trkpt>
      <trkpt lat="47.49745" lon="6.67247">
        <ele>352.9316</ele>
        <time>2014-12-07T10:38:49Z</time>
      </trkpt>
      <trkpt lat="47.49744" lon="6.67251">
        <ele>353.10523904</ele>
        <time>2014-12-07T10:38:52Z</time>
      </trkpt>
      <trkpt lat="47.49743" lon="6.67253">
        <ele>353.14294016</ele>
        <time>2014-12-07T10:38:53Z</time>
      </trkpt>
      <trkpt lat="47.49741" lon="6.67258">
        <ele>353.2600064</ele>
        <time>2014-12-07T10:38:56Z</time>
      </trkpt>
      <trkpt lat="47.4974" lon="6.6726">
        <ele>353.29684544</ele>
        <time>2014-12-07T10:38:57Z</time>
      </trkpt>
      <trkpt lat="47.49739" lon="6.67265">
        <ele>353.3916896</ele>
        <time>2014-12-07T10:39:00Z</time>
      </trkpt>
      <trkpt lat="47.49735" lon="6.67276">
        <ele>353.58459776</ele>
        <time>2014-12-07T10:39:08Z</time>
      </trkpt>
      <trkpt lat="47.49736" lon="6.67283">
        <ele>353.6841248</ele>
        <time>2014-12-07T10:39:12Z</time>
      </trkpt>
      <trkpt lat="47.49736" lon="6.67285">
        <ele>353.72563712</ele>
        <time>2014-12-07T10:39:13Z</time>
      </trkpt>
      <trkpt lat="47.49736" lon="6.6729">
        <ele>353.81246336</ele>
        <time>2014-12-07T10:39:15Z</time>
      </trkpt>
      <trkpt lat="47.49736" lon="6.67292">
        <ele>353.84542208</ele>
        <time>2014-12-07T10:39:16Z</time>
      </trkpt>
      <trkpt lat="47.49738" lon="6.67297">
        <ele>353.947136</ele>
        <time>2014-12-07T10:39:19Z</time>
      </trkpt>
      <trkpt lat="47.49739" lon="6.67299">
        <ele>353.99063168</ele>
        <time>2014-12-07T10:39:20Z</time>
      </trkpt>
      <trkpt lat="47.49742" lon="6.67304">
        <ele>354.13361024</ele>
        <time>2014-12-07T10:39:23Z</time>
      </trkpt>
      <trkpt lat="47.49742" lon="6.67306">
        <ele>354.1762496</ele>
        <time>2014-12-07T10:39:24Z</time>
      </trkpt>
      <trkpt lat="47.49744" lon="6.67312">
        <ele>354.33014912</ele>
        <time>2014-12-07T10:39:33Z</time>
      </trkpt>
      <trkpt lat="47.49744" lon="6.67313">
        <ele>354.35769728</ele>
        <time>2014-12-07T10:39:34Z</time>
      </trkpt>
      <trkpt lat="47.49747" lon="6.67317">
        <ele>354.52112192001</ele>
        <time>2014-12-07T10:39:44Z</time>
      </trkpt>
      <trkpt lat="47.49747" lon="6.67318">
        <ele>354.55640192</ele>
        <time>2014-12-07T10:39:45Z</time>
      </trkpt>
      <trkpt lat="47.49749" lon="6.67323">
        <ele>354.73266944</ele>
        <time>2014-12-07T10:39:51Z</time>
      </trkpt>
      <trkpt lat="47.49749" lon="6.67324">
        <ele>354.74843839999</ele>
        <time>2014-12-07T10:39:52Z</time>
      </trkpt>
      <trkpt lat="47.49751" lon="6.6733">
        <ele>355.02405440002</ele>
        <time>2014-12-07T10:40:38Z</time>
      </trkpt>
      <trkpt lat="47.49752" lon="6.67331">
        <ele>355.07586176002</ele>
        <time>2014-12-07T10:40:39Z</time>
      </trkpt>
      <trkpt lat="47.4975" lon="6.67335">
        <ele>355.01675487998</ele>
        <time>2014-12-07T10:40:48Z</time>
      </trkpt>
      <trkpt lat="47.49749" lon="6.67336">
        <ele>354.97084672</ele>
        <time>2014-12-07T10:40:49Z</time>
      </trkpt>
      <trkpt lat="47.49746" lon="6.67341">
        <ele>354.85905952</ele>
        <time>2014-12-07T10:40:52Z</time>
      </trkpt>
      <trkpt lat="47.49745" lon="6.67342">
        <ele>354.82846047999</ele>
        <time>2014-12-07T10:40:53Z</time>
      </trkpt>
      <trkpt lat="47.49743" lon="6.67346">
        <ele>354.73523200001</ele>
        <time>2014-12-07T10:40:56Z</time>
      </trkpt>
      <trkpt lat="47.49742" lon="6.67347">
        <ele>354.70742463999</ele>
        <time>2014-12-07T10:40:57Z</time>
      </trkpt>
      <trkpt lat="47.49741" lon="6.67352">
        <ele>354.64393792</ele>
        <time>2014-12-07T10:41:00Z</time>
      </trkpt>
      <trkpt lat="47.49742" lon="6.67356">
        <ele>354.68554239999</ele>
        <time>2014-12-07T10:41:03Z</time>
      </trkpt>
      <trkpt lat="47.49744" lon="6.67361">
        <ele>354.75574624</ele>
        <time>2014-12-07T10:41:06Z</time>
      </trkpt>
      <trkpt lat="47.49744" lon="6.67364">
        <ele>354.77407360001</ele>
        <time>2014-12-07T10:41:07Z</time>
      </trkpt>
      <trkpt lat="47.49745" lon="6.67368">
        <ele>354.80754064</ele>
        <time>2014-12-07T10:41:09Z</time>
      </trkpt>
      <trkpt lat="47.49746" lon="6.6737">
        <ele>354.82668448001</ele>
        <time>2014-12-07T10:41:10Z</time>
      </trkpt>
      <trkpt lat="47.49746" lon="6.67375">
        <ele>354.84465328001</ele>
        <time>2014-12-07T10:41:12Z</time>
      </trkpt>
      <trkpt lat="47.49747" lon="6.67377">
        <ele>354.86059216</ele>
        <time>2014-12-07T10:41:12Z</time>
      </trkpt>
      <trkpt lat="47.49747" lon="6.67382">
        <ele>354.84972399999</ele>
        <time>2014-12-07T10:41:15Z</time>
      </trkpt>
      <trkpt lat="47.49747" lon="6.67384">
        <ele>354.84861519999</ele>
        <time>2014-12-07T10:41:16Z</time>
      </trkpt>
      <trkpt lat="47.49748" lon="6.67388">
        <ele>354.89021200001</ele>
        <time>2014-12-07T10:41:18Z</time>
      </trkpt>
      <trkpt lat="47.49748" lon="6.67391">
        <ele>354.92480560001</ele>
        <time>2014-12-07T10:41:19Z</time>
      </trkpt>
      <trkpt lat="47.4975" lon="6.67395">
        <ele>354.98654896001</ele>
        <time>2014-12-07T10:41:21Z</time>
      </trkpt>
      <trkpt lat="47.4975" lon="6.67397">
        <ele>355.01497215998</ele>
        <time>2014-12-07T10:41:22Z</time>
      </trkpt>
      <trkpt lat="47.49752" lon="6.67403">
        <ele>355.11837183998</ele>
        <time>2014-12-07T10:41:25Z</time>
      </trkpt>
      <trkpt lat="47.49752" lon="6.67405">
        <ele>355.16212768003</ele>
        <time>2014-12-07T10:41:26Z</time>
      </trkpt>
      <trkpt lat="47.49754" lon="6.67409">
        <ele>355.28510560002</ele>
        <time>2014-12-07T10:41:28Z</time>
      </trkpt>
      <trkpt lat="47.49755" lon="6.67411">
        <ele>355.34951680001</ele>
        <time>2014-12-07T10:41:29Z</time>
      </trkpt>
      <trkpt lat="47.49757" lon="6.67415">
        <ele>355.46984080001</ele>
        <time>2014-12-07T10:41:31Z</time>
      </trkpt>
      <trkpt lat="47.49757" lon="6.67416">
        <ele>355.52588032002</ele>
        <time>2014-12-07T10:41:32Z</time>
      </trkpt>
      <trkpt lat="47.4976" lon="6.67421">
        <ele>355.72807904001</ele>
        <time>2014-12-07T10:41:35Z</time>
      </trkpt>
      <trkpt lat="47.49761" lon="6.67423">
        <ele>355.78674752001</ele>
        <time>2014-12-07T10:41:36Z</time>
      </trkpt>
      <trkpt lat="47.49763" lon="6.67427">
        <ele>355.92521984001</ele>
        <time>2014-12-07T10:41:39Z</time>
      </trkpt>
      <trkpt lat="47.49763" lon="6.67429">
        <ele>355.96382432</ele>
        <time>2014-12-07T10:41:40Z</time>
      </trkpt>
      <trkpt lat="47.49765" lon="6.67433">
        <ele>356.03542879999</ele>
        <time>2014-12-07T10:41:42Z</time>
      </trkpt>
      <trkpt lat="47.49765" lon="6.67435">
        <ele>356.06812063999</ele>
        <time>2014-12-07T10:41:43Z</time>
      </trkpt>
      <trkpt lat="47.49767" lon="6.6744">
        <ele>356.15116351999</ele>
        <time>2014-12-07T10:41:46Z</time>
      </trkpt>
      <trkpt lat="47.49767" lon="6.67441">
        <ele>356.16792896001</ele>
        <time>2014-12-07T10:41:47Z</time>
      </trkpt>
      <trkpt lat="47.49768" lon="6.67446">
        <ele>356.169416</ele>
        <time>2014-12-07T10:41:49Z</time>
      </trkpt>
      <trkpt lat="47.49767" lon="6.67448">
        <ele>356.14818944001</ele>
        <time>2014-12-07T10:41:50Z</time>
      </trkpt>
      <trkpt lat="47.49766" lon="6.67454">
        <ele>356.08335680001</ele>
        <time>2014-12-07T10:41:53Z</time>
      </trkpt>
      <trkpt lat="47.49766" lon="6.67456">
        <ele>356.07610688</ele>
        <time>2014-12-07T10:41:54Z</time>
      </trkpt>
      <trkpt lat="47.49766" lon="6.67461">
        <ele>356.0643968</ele>
        <time>2014-12-07T10:41:56Z</time>
      </trkpt>
      <trkpt lat="47.49766" lon="6.67463">
        <ele>356.05727167999</ele>
        <time>2014-12-07T10:41:57Z</time>
      </trkpt>
      <trkpt lat="47.49765" lon="6.6747">
        <ele>356.02638272001</ele>
        <time>2014-12-07T10:42:00Z</time>
      </trkpt>
      <trkpt lat="47.49765" lon="6.67483">
        <ele>356.01502592</ele>
        <time>2014-12-07T10:42:08Z</time>
      </trkpt>
      <trkpt lat="47.49765" lon="6.67487">
        <ele>356.012192</ele>
        <time>2014-12-07T10:42:11Z</time>
      </trkpt>
      <trkpt lat="47.49765" lon="6.67489">
        <ele>356.01109184</ele>
        <time>2014-12-07T10:42:12Z</time>
      </trkpt>
      <trkpt lat="47.49765" lon="6.67494">
        <ele>356.0062784</ele>
        <time>2014-12-07T10:42:14Z</time>
      </trkpt>
      <trkpt lat="47.49765" lon="6.67497">
        <ele>356.0036624</ele>
        <time>2014-12-07T10:42:15Z</time>
      </trkpt>
      <trkpt lat="47.49765" lon="6.67501">
        <ele>355.9781744</ele>
        <time>2014-12-07T10:42:16Z</time>
      </trkpt>
      <trkpt lat="47.49765" lon="6.67503">
        <ele>355.92797552</ele>
        <time>2014-12-07T10:42:18Z</time>
      </trkpt>
      <trkpt lat="47.49766" lon="6.67509">
        <ele>355.814972</ele>
        <time>2014-12-07T10:42:20Z</time>
      </trkpt>
      <trkpt lat="47.49766" lon="6.67511">
        <ele>355.7591744</ele>
        <time>2014-12-07T10:42:21Z</time>
      </trkpt>
      <trkpt lat="47.49767" lon="6.67516">
        <ele>355.65347648</ele>
        <time>2014-12-07T10:42:23Z</time>
      </trkpt>
      <trkpt lat="47.49768" lon="6.67518">
        <ele>355.60932608</ele>
        <time>2014-12-07T10:42:24Z</time>
      </trkpt>
      <trkpt lat="47.49768" lon="6.67524">
        <ele>355.48510832</ele>
        <time>2014-12-07T10:42:27Z</time>
      </trkpt>
      <trkpt lat="47.49769" lon="6.67526">
        <ele>355.43710976</ele>
        <time>2014-12-07T10:42:28Z</time>
      </trkpt>
      <trkpt lat="47.49769" lon="6.67531">
        <ele>355.34639936</ele>
        <time>2014-12-07T10:42:30Z</time>
      </trkpt>
      <trkpt lat="47.4977" lon="6.67533">
        <ele>355.3025648</ele>
        <time>2014-12-07T10:42:31Z</time>
      </trkpt>
      <trkpt lat="47.49771" lon="6.67537">
        <ele>355.22232464</ele>
        <time>2014-12-07T10:42:33Z</time>
      </trkpt>
      <trkpt lat="47.49772" lon="6.67539">
        <ele>355.18169216</ele>
        <time>2014-12-07T10:42:34Z</time>
      </trkpt>
      <trkpt lat="47.49774" lon="6.67544">
        <ele>355.1057096</ele>
        <time>2014-12-07T10:42:36Z</time>
      </trkpt>
      <trkpt lat="47.49775" lon="6.67546">
        <ele>355.0737656</ele>
        <time>2014-12-07T10:42:37Z</time>
      </trkpt>
      <trkpt lat="47.49778" lon="6.67549">
        <ele>355.0135808</ele>
        <time>2014-12-07T10:42:39Z</time>
      </trkpt>
      <trkpt lat="47.49779" lon="6.67551">
        <ele>354.98229008</ele>
        <time>2014-12-07T10:42:40Z</time>
      </trkpt>
      <trkpt lat="47.49781" lon="6.67556">
        <ele>354.9149528</ele>
        <time>2014-12-07T10:42:42Z</time>
      </trkpt>
      <trkpt lat="47.49782" lon="6.67558">
        <ele>354.87887072</ele>
        <time>2014-12-07T10:42:43Z</time>
      </trkpt>
      <trkpt lat="47.49785" lon="6.67562">
        <ele>354.81869312</ele>
        <time>2014-12-07T10:42:45Z</time>
      </trkpt>
      <trkpt lat="47.49787" lon="6.67565">
        <ele>354.7919408</ele>
        <time>2014-12-07T10:42:46Z</time>
      </trkpt>
      <trkpt lat="47.49789" lon="6.67569">
        <ele>354.7334912</ele>
        <time>2014-12-07T10:42:48Z</time>
      </trkpt>
      <trkpt lat="47.4979" lon="6.67571">
        <ele>354.70359488</ele>
        <time>2014-12-07T10:42:49Z</time>
      </trkpt>
      <trkpt lat="47.49793" lon="6.67575">
        <ele>354.66014192</ele>
        <time>2014-12-07T10:42:51Z</time>
      </trkpt>
      <trkpt lat="47.49794" lon="6.67577">
        <ele>354.64254656</ele>
        <time>2014-12-07T10:42:52Z</time>
      </trkpt>
      <trkpt lat="47.49797" lon="6.67581">
        <ele>354.6116648</ele>
        <time>2014-12-07T10:42:54Z</time>
      </trkpt>
      <trkpt lat="47.49798" lon="6.67583">
        <ele>354.587864</ele>
        <time>2014-12-07T10:42:55Z</time>
      </trkpt>
      <trkpt lat="47.49799" lon="6.67587">
        <ele>354.50479999999</ele>
        <time>2014-12-07T10:42:57Z</time>
      </trkpt>
      <trkpt lat="47.498" lon="6.67589">
        <ele>354.458</ele>
        <time>2014-12-07T10:42:58Z</time>
      </trkpt>
      <trkpt lat="47.49802" lon="6.67594">
        <ele>354.3752</ele>
        <time>2014-12-07T10:43:00Z</time>
      </trkpt>
      <trkpt lat="47.49812" lon="6.67618">
        <ele>353.924</ele>
        <time>2014-12-07T10:43:08Z</time>
      </trkpt>
      <trkpt lat="47.49814" lon="6.67624">
        <ele>353.7932</ele>
        <time>2014-12-07T10:43:10Z</time>
      </trkpt>
      <trkpt lat="47.49814" lon="6.67627">
        <ele>353.7308</ele>
        <time>2014-12-07T10:43:11Z</time>
      </trkpt>
      <trkpt lat="47.49815" lon="6.67632">
        <ele>353.6192</ele>
        <time>2014-12-07T10:43:13Z</time>
      </trkpt>
      <trkpt lat="47.49815" lon="6.67634">
        <ele>353.5604</ele>
        <time>2014-12-07T10:43:14Z</time>
      </trkpt>
      <trkpt lat="47.49816" lon="6.6764">
        <ele>353.4308</ele>
        <time>2014-12-07T10:43:16Z</time>
      </trkpt>
      <trkpt lat="47.49817" lon="6.67643">
        <ele>353.3636</ele>
        <time>2014-12-07T10:43:17Z</time>
      </trkpt>
      <trkpt lat="47.49818" lon="6.6765">
        <ele>353.2268</ele>
        <time>2014-12-07T10:43:19Z</time>
      </trkpt>
      <trkpt lat="47.49819" lon="6.67653">
        <ele>353.1548</ele>
        <time>2014-12-07T10:43:20Z</time>
      </trkpt>
      <trkpt lat="47.49821" lon="6.67658">
        <ele>353.0504</ele>
        <time>2014-12-07T10:43:22Z</time>
      </trkpt>
      <trkpt lat="47.49822" lon="6.67661">
        <ele>353.0024</ele>
        <time>2014-12-07T10:43:23Z</time>
      </trkpt>
      <trkpt lat="47.49823" lon="6.67666">
        <ele>352.8968</ele>
        <time>2014-12-07T10:43:25Z</time>
      </trkpt>
      <trkpt lat="47.49824" lon="6.67668">
        <ele>352.9054048</ele>
        <time>2014-12-07T10:43:26Z</time>
      </trkpt>
      <trkpt lat="47.49826" lon="6.67673">
        <ele>352.97307808</ele>
        <time>2014-12-07T10:43:28Z</time>
      </trkpt>
      <trkpt lat="47.49827" lon="6.67675">
        <ele>353.01001696</ele>
        <time>2014-12-07T10:43:29Z</time>
      </trkpt>
      <trkpt lat="47.49829" lon="6.67679">
        <ele>353.08618912</ele>
        <time>2014-12-07T10:43:31Z</time>
      </trkpt>
      <trkpt lat="47.4983" lon="6.67681">
        <ele>353.1215224</ele>
        <time>2014-12-07T10:43:32Z</time>
      </trkpt>
      <trkpt lat="47.49832" lon="6.67685">
        <ele>353.1955072</ele>
        <time>2014-12-07T10:43:34Z</time>
      </trkpt>
      <trkpt lat="47.49832" lon="6.67687">
        <ele>353.22975952</ele>
        <time>2014-12-07T10:43:35Z</time>
      </trkpt>
      <trkpt lat="47.49833" lon="6.67692">
        <ele>353.3136</ele>
        <time>2014-12-07T10:43:38Z</time>
      </trkpt>
      <trkpt lat="47.49833" lon="6.67694">
        <ele>353.3191024</ele>
        <time>2014-12-07T10:43:39Z</time>
      </trkpt>
      <trkpt lat="47.49829" lon="6.67696">
        <ele>353.28770512</ele>
        <time>2014-12-07T10:43:42Z</time>
      </trkpt>
      <trkpt lat="47.49828" lon="6.67697">
        <ele>353.27609152</ele>
        <time>2014-12-07T10:43:43Z</time>
      </trkpt>
      <trkpt lat="47.49825" lon="6.67701">
        <ele>353.26310271999</ele>
        <time>2014-12-07T10:43:47Z</time>
      </trkpt>
      <trkpt lat="47.49824" lon="6.67702">
        <ele>353.25938560001</ele>
        <time>2014-12-07T10:43:48Z</time>
      </trkpt>
      <trkpt lat="47.49821" lon="6.67705">
        <ele>353.23662784</ele>
        <time>2014-12-07T10:43:50Z</time>
      </trkpt>
      <trkpt lat="47.49819" lon="6.67706">
        <ele>353.21627392</ele>
        <time>2014-12-07T10:43:51Z</time>
      </trkpt>
      <trkpt lat="47.49815" lon="6.67708">
        <ele>353.16695392</ele>
        <time>2014-12-07T10:43:53Z</time>
      </trkpt>
      <trkpt lat="47.49813" lon="6.67709">
        <ele>353.14549216</ele>
        <time>2014-12-07T10:43:54Z</time>
      </trkpt>
      <trkpt lat="47.49809" lon="6.67712">
        <ele>353.0968576</ele>
        <time>2014-12-07T10:43:56Z</time>
      </trkpt>
      <trkpt lat="47.49807" lon="6.67713">
        <ele>353.06886208</ele>
        <time>2014-12-07T10:43:57Z</time>
      </trkpt>
      <trkpt lat="47.49803" lon="6.67715">
        <ele>353.01363808</ele>
        <time>2014-12-07T10:43:59Z</time>
      </trkpt>
      <trkpt lat="47.49786" lon="6.67726">
        <ele>352.74165760001</ele>
        <time>2014-12-07T10:44:08Z</time>
      </trkpt>
      <trkpt lat="47.49783" lon="6.67729">
        <ele>352.69706224</ele>
        <time>2014-12-07T10:44:10Z</time>
      </trkpt>
      <trkpt lat="47.49782" lon="6.6773">
        <ele>352.67418736</ele>
        <time>2014-12-07T10:44:11Z</time>
      </trkpt>
      <trkpt lat="47.49779" lon="6.67733">
        <ele>352.62285279999</ele>
        <time>2014-12-07T10:44:13Z</time>
      </trkpt>
      <trkpt lat="47.49777" lon="6.67735">
        <ele>352.5899128</ele>
        <time>2014-12-07T10:44:14Z</time>
      </trkpt>
      <trkpt lat="47.49773" lon="6.67738">
        <ele>352.51537408</ele>
        <time>2014-12-07T10:44:16Z</time>
      </trkpt>
      <trkpt lat="47.49771" lon="6.6774">
        <ele>352.4734576</ele>
        <time>2014-12-07T10:44:17Z</time>
      </trkpt>
      <trkpt lat="47.49768" lon="6.67743">
        <ele>352.41969952</ele>
        <time>2014-12-07T10:44:18Z</time>
      </trkpt>
      <trkpt lat="47.49766" lon="6.67745">
        <ele>352.3599472</ele>
        <time>2014-12-07T10:44:19Z</time>
      </trkpt>
      <trkpt lat="47.49763" lon="6.67746">
        <ele>352.30019584</ele>
        <time>2014-12-07T10:44:20Z</time>
      </trkpt>
      <trkpt lat="47.49761" lon="6.67748">
        <ele>352.2483712</ele>
        <time>2014-12-07T10:44:21Z</time>
      </trkpt>
      <trkpt lat="47.49757" lon="6.6775">
        <ele>352.16550064</ele>
        <time>2014-12-07T10:44:23Z</time>
      </trkpt>
      <trkpt lat="47.49755" lon="6.67751">
        <ele>352.13996320001</ele>
        <time>2014-12-07T10:44:24Z</time>
      </trkpt>
      <trkpt lat="47.49752" lon="6.67754">
        <ele>352.10082544</ele>
        <time>2014-12-07T10:44:26Z</time>
      </trkpt>
      <trkpt lat="47.49751" lon="6.67756">
        <ele>352.09448704001</ele>
        <time>2014-12-07T10:44:27Z</time>
      </trkpt>
      <trkpt lat="47.49749" lon="6.6776">
        <ele>352.08701584</ele>
        <time>2014-12-07T10:44:29Z</time>
      </trkpt>
      <trkpt lat="47.49748" lon="6.67761">
        <ele>352.079668</ele>
        <time>2014-12-07T10:44:30Z</time>
      </trkpt>
      <trkpt lat="47.49744" lon="6.67765">
        <ele>352.04935168</ele>
        <time>2014-12-07T10:44:33Z</time>
      </trkpt>
      <trkpt lat="47.49743" lon="6.67767">
        <ele>352.03928895999</ele>
        <time>2014-12-07T10:44:34Z</time>
      </trkpt>
      <trkpt lat="47.4974" lon="6.67769">
        <ele>352.00202559999</ele>
        <time>2014-12-07T10:44:36Z</time>
      </trkpt>
      <trkpt lat="47.49738" lon="6.6777">
        <ele>351.976</ele>
        <time>2014-12-07T10:44:37Z</time>
      </trkpt>
      <trkpt lat="47.49735" lon="6.67772">
        <ele>351.95427328</ele>
        <time>2014-12-07T10:44:38Z</time>
      </trkpt>
      <trkpt lat="47.49733" lon="6.67774">
        <ele>351.93138400001</ele>
        <time>2014-12-07T10:44:39Z</time>
      </trkpt>
      <trkpt lat="47.4973" lon="6.67777">
        <ele>351.9102088</ele>
        <time>2014-12-07T10:44:40Z</time>
      </trkpt>
      <trkpt lat="47.49727" lon="6.6778">
        <ele>351.8913664</ele>
        <time>2014-12-07T10:44:41Z</time>
      </trkpt>
      <trkpt lat="47.49724" lon="6.67782">
        <ele>351.87169360001</ele>
        <time>2014-12-07T10:44:42Z</time>
      </trkpt>
      <trkpt lat="47.49721" lon="6.67784">
        <ele>351.85664512</ele>
        <time>2014-12-07T10:44:43Z</time>
      </trkpt>
      <trkpt lat="47.49718" lon="6.67786">
        <ele>351.8348704</ele>
        <time>2014-12-07T10:44:44Z</time>
      </trkpt>
      <trkpt lat="47.49715" lon="6.67788">
        <ele>351.81477808</ele>
        <time>2014-12-07T10:44:45Z</time>
      </trkpt>
      <trkpt lat="47.49713" lon="6.67789">
        <ele>351.78237952001</ele>
        <time>2014-12-07T10:44:46Z</time>
      </trkpt>
      <trkpt lat="47.49711" lon="6.6779">
        <ele>351.7612888</ele>
        <time>2014-12-07T10:44:47Z</time>
      </trkpt>
      <trkpt lat="47.49708" lon="6.67795">
        <ele>351.7880992</ele>
        <time>2014-12-07T10:44:49Z</time>
      </trkpt>
      <trkpt lat="47.49707" lon="6.67797">
        <ele>351.82686592</ele>
        <time>2014-12-07T10:44:50Z</time>
      </trkpt>
      <trkpt lat="47.49706" lon="6.67803">
        <ele>351.91725088</ele>
        <time>2014-12-07T10:44:52Z</time>
      </trkpt>
      <trkpt lat="47.49706" lon="6.67805">
        <ele>351.954088</ele>
        <time>2014-12-07T10:44:53Z</time>
      </trkpt>
      <trkpt lat="47.49706" lon="6.6781">
        <ele>352.04019952</ele>
        <time>2014-12-07T10:44:55Z</time>
      </trkpt>
      <trkpt lat="47.49706" lon="6.67813">
        <ele>352.09483072</ele>
        <time>2014-12-07T10:44:56Z</time>
      </trkpt>
      <trkpt lat="47.49707" lon="6.67819">
        <ele>352.2190288</ele>
        <time>2014-12-07T10:44:58Z</time>
      </trkpt>
      <trkpt lat="47.49707" lon="6.67822">
        <ele>352.28464048</ele>
        <time>2014-12-07T10:44:59Z</time>
      </trkpt>
      <trkpt lat="47.49708" lon="6.67826">
        <ele>352.3493728</ele>
        <time>2014-12-07T10:45:00Z</time>
      </trkpt>
      <trkpt lat="47.49709" lon="6.67848">
        <ele>352.5044</ele>
        <time>2014-12-07T10:45:08Z</time>
      </trkpt>
      <trkpt lat="47.49709" lon="6.67852">
        <ele>352.508</ele>
        <time>2014-12-07T10:45:09Z</time>
      </trkpt>
      <trkpt lat="47.4971" lon="6.67856">
        <ele>352.514</ele>
        <time>2014-12-07T10:45:10Z</time>
      </trkpt>
      <trkpt lat="47.4971" lon="6.67862">
        <ele>352.5212</ele>
        <time>2014-12-07T10:45:11Z</time>
      </trkpt>
      <trkpt lat="47.4971" lon="6.67867">
        <ele>352.5248</ele>
        <time>2014-12-07T10:45:12Z</time>
      </trkpt>
      <trkpt lat="47.4971" lon="6.67873">
        <ele>352.5248</ele>
        <time>2014-12-07T10:45:13Z</time>
      </trkpt>
      <trkpt lat="47.49711" lon="6.67878">
        <ele>352.5272</ele>
        <time>2014-12-07T10:45:14Z</time>
      </trkpt>
      <trkpt lat="47.49711" lon="6.67884">
        <ele>352.5284</ele>
        <time>2014-12-07T10:45:15Z</time>
      </trkpt>
      <trkpt lat="47.49711" lon="6.67889">
        <ele>352.5332</ele>
        <time>2014-12-07T10:45:16Z</time>
      </trkpt>
      <trkpt lat="47.49712" lon="6.67895">
        <ele>352.538</ele>
        <time>2014-12-07T10:45:17Z</time>
      </trkpt>
      <trkpt lat="47.49712" lon="6.679">
        <ele>352.5428</ele>
        <time>2014-12-07T10:45:18Z</time>
      </trkpt>
      <trkpt lat="47.49712" lon="6.67904">
        <ele>352.5488</ele>
        <time>2014-12-07T10:45:19Z</time>
      </trkpt>
      <trkpt lat="47.49713" lon="6.67909">
        <ele>352.5548</ele>
        <time>2014-12-07T10:45:20Z</time>
      </trkpt>
      <trkpt lat="47.49713" lon="6.67913">
        <ele>352.5596</ele>
        <time>2014-12-07T10:45:21Z</time>
      </trkpt>
      <trkpt lat="47.49714" lon="6.67918">
        <ele>352.57329216</ele>
        <time>2014-12-07T10:45:22Z</time>
      </trkpt>
      <trkpt lat="47.49714" lon="6.67923">
        <ele>352.61238144</ele>
        <time>2014-12-07T10:45:23Z</time>
      </trkpt>
      <trkpt lat="47.49714" lon="6.67928">
        <ele>352.64727984</ele>
        <time>2014-12-07T10:45:24Z</time>
      </trkpt>
      <trkpt lat="47.49715" lon="6.67933">
        <ele>352.6871928</ele>
        <time>2014-12-07T10:45:25Z</time>
      </trkpt>
      <trkpt lat="47.49715" lon="6.67939">
        <ele>352.7274168</ele>
        <time>2014-12-07T10:45:26Z</time>
      </trkpt>
      <trkpt lat="47.49715" lon="6.67943">
        <ele>352.76695152</ele>
        <time>2014-12-07T10:45:27Z</time>
      </trkpt>
      <trkpt lat="47.49716" lon="6.67948">
        <ele>352.81175664</ele>
        <time>2014-12-07T10:45:28Z</time>
      </trkpt>
      <trkpt lat="47.49716" lon="6.67953">
        <ele>352.85456688</ele>
        <time>2014-12-07T10:45:29Z</time>
      </trkpt>
      <trkpt lat="47.49717" lon="6.67958">
        <ele>352.90140959999</ele>
        <time>2014-12-07T10:45:30Z</time>
      </trkpt>
      <trkpt lat="47.49718" lon="6.67963">
        <ele>352.94995488</ele>
        <time>2014-12-07T10:45:31Z</time>
      </trkpt>
      <trkpt lat="47.49718" lon="6.67967">
        <ele>352.99501823999</ele>
        <time>2014-12-07T10:45:32Z</time>
      </trkpt>
      <trkpt lat="47.49719" lon="6.67971">
        <ele>353.03519520001</ele>
        <time>2014-12-07T10:45:33Z</time>
      </trkpt>
      <trkpt lat="47.4972" lon="6.67974">
        <ele>353.07145536</ele>
        <time>2014-12-07T10:45:34Z</time>
      </trkpt>
      <trkpt lat="47.4972" lon="6.67979">
        <ele>353.12655744</ele>
        <time>2014-12-07T10:45:36Z</time>
      </trkpt>
      <trkpt lat="47.49721" lon="6.67982">
        <ele>353.152464</ele>
        <time>2014-12-07T10:45:37Z</time>
      </trkpt>
      <trkpt lat="47.49721" lon="6.67987">
        <ele>353.19851328</ele>
        <time>2014-12-07T10:45:39Z</time>
      </trkpt>
      <trkpt lat="47.49721" lon="6.67989">
        <ele>353.22084863999</ele>
        <time>2014-12-07T10:45:40Z</time>
      </trkpt>
      <trkpt lat="47.49721" lon="6.67995">
        <ele>353.25479136</ele>
        <time>2014-12-07T10:45:44Z</time>
      </trkpt>
      <trkpt lat="47.4972" lon="6.67996">
        <ele>353.2431048</ele>
        <time>2014-12-07T10:45:45Z</time>
      </trkpt>
      <trkpt lat="47.49719" lon="6.68">
        <ele>353.25029855999</ele>
        <time>2014-12-07T10:46:09Z</time>
      </trkpt>
      <trkpt lat="47.49717" lon="6.68001">
        <ele>353.20969728001</ele>
        <time>2014-12-07T10:46:10Z</time>
      </trkpt>
      <trkpt lat="47.49714" lon="6.68003">
        <ele>353.15996543999</ele>
        <time>2014-12-07T10:46:12Z</time>
      </trkpt>
      <trkpt lat="47.49713" lon="6.68004">
        <ele>353.12771999999</ele>
        <time>2014-12-07T10:46:13Z</time>
      </trkpt>
      <trkpt lat="47.4971" lon="6.68006">
        <ele>353.0668584</ele>
        <time>2014-12-07T10:46:15Z</time>
      </trkpt>
      <trkpt lat="47.49708" lon="6.68008">
        <ele>353.03723519999</ele>
        <time>2014-12-07T10:46:16Z</time>
      </trkpt>
      <trkpt lat="47.49705" lon="6.6801">
        <ele>352.97210543999</ele>
        <time>2014-12-07T10:46:18Z</time>
      </trkpt>
      <trkpt lat="47.49704" lon="6.68011">
        <ele>352.94596608</ele>
        <time>2014-12-07T10:46:19Z</time>
      </trkpt>
      <trkpt lat="47.49701" lon="6.68014">
        <ele>352.89792192</ele>
        <time>2014-12-07T10:46:21Z</time>
      </trkpt>
      <trkpt lat="47.497" lon="6.68016">
        <ele>352.87273392001</ele>
        <time>2014-12-07T10:46:22Z</time>
      </trkpt>
      <trkpt lat="47.49698" lon="6.68018">
        <ele>352.83762624001</ele>
        <time>2014-12-07T10:46:23Z</time>
      </trkpt>
      <trkpt lat="47.49696" lon="6.6802">
        <ele>352.80008832</ele>
        <time>2014-12-07T10:46:24Z</time>
      </trkpt>
      <trkpt lat="47.49694" lon="6.68025">
        <ele>352.74728784001</ele>
        <time>2014-12-07T10:46:26Z</time>
      </trkpt>
      <trkpt lat="47.49693" lon="6.68028">
        <ele>352.7385552</ele>
        <time>2014-12-07T10:46:27Z</time>
      </trkpt>
      <trkpt lat="47.49693" lon="6.68034">
        <ele>352.74759599999</ele>
        <time>2014-12-07T10:46:29Z</time>
      </trkpt>
      <trkpt lat="47.49692" lon="6.68037">
        <ele>352.75251264001</ele>
        <time>2014-12-07T10:46:30Z</time>
      </trkpt>
      <trkpt lat="47.49692" lon="6.68044">
        <ele>352.76438831999</ele>
        <time>2014-12-07T10:46:38Z</time>
      </trkpt>
      <trkpt lat="47.49693" lon="6.68046">
        <ele>352.80261408</ele>
        <time>2014-12-07T10:46:39Z</time>
      </trkpt>
      <trkpt lat="47.49695" lon="6.6805">
        <ele>352.87383264</ele>
        <time>2014-12-07T10:46:41Z</time>
      </trkpt>
      <trkpt lat="47.49697" lon="6.68052">
        <ele>352.94927232001</ele>
        <time>2014-12-07T10:46:42Z</time>
      </trkpt>
      <trkpt lat="47.49699" lon="6.68055">
        <ele>353.03340384</ele>
        <time>2014-12-07T10:46:43Z</time>
      </trkpt>
      <trkpt lat="47.49702" lon="6.68057">
        <ele>353.12241359999</ele>
        <time>2014-12-07T10:46:44Z</time>
      </trkpt>
      <trkpt lat="47.49704" lon="6.6806">
        <ele>353.22400704</ele>
        <time>2014-12-07T10:46:45Z</time>
      </trkpt>
      <trkpt lat="47.49707" lon="6.68063">
        <ele>353.32167648</ele>
        <time>2014-12-07T10:46:46Z</time>
      </trkpt>
      <trkpt lat="47.4971" lon="6.68064">
        <ele>353.4260736</ele>
        <time>2014-12-07T10:46:47Z</time>
      </trkpt>
      <trkpt lat="47.49712" lon="6.68065">
        <ele>353.52698112</ele>
        <time>2014-12-07T10:46:48Z</time>
      </trkpt>
      <trkpt lat="47.49715" lon="6.68066">
        <ele>353.62815744</ele>
        <time>2014-12-07T10:46:49Z</time>
      </trkpt>
      <trkpt lat="47.49718" lon="6.68068">
        <ele>353.72906352001</ele>
        <time>2014-12-07T10:46:50Z</time>
      </trkpt>
      <trkpt lat="47.4972" lon="6.6807">
        <ele>353.82936864</ele>
        <time>2014-12-07T10:46:51Z</time>
      </trkpt>
      <trkpt lat="47.49723" lon="6.68073">
        <ele>353.926116</ele>
        <time>2014-12-07T10:46:52Z</time>
      </trkpt>
      <trkpt lat="47.49725" lon="6.68076">
        <ele>354.0200952</ele>
        <time>2014-12-07T10:46:53Z</time>
      </trkpt>
      <trkpt lat="47.49727" lon="6.68079">
        <ele>354.12201024</ele>
        <time>2014-12-07T10:46:54Z</time>
      </trkpt>
      <trkpt lat="47.49729" lon="6.68082">
        <ele>354.21503328001</ele>
        <time>2014-12-07T10:46:55Z</time>
      </trkpt>
      <trkpt lat="47.49731" lon="6.68085">
        <ele>354.28976319999</ele>
        <time>2014-12-07T10:46:56Z</time>
      </trkpt>
      <trkpt lat="47.49732" lon="6.68088">
        <ele>354.33630207999</ele>
        <time>2014-12-07T10:46:57Z</time>
      </trkpt>
      <trkpt lat="47.49734" lon="6.68091">
        <ele>354.38149696</ele>
        <time>2014-12-07T10:46:58Z</time>
      </trkpt>
      <trkpt lat="47.49735" lon="6.68094">
        <ele>354.42954880001</ele>
        <time>2014-12-07T10:46:59Z</time>
      </trkpt>
      <trkpt lat="47.49737" lon="6.68097">
        <ele>354.46770207999</ele>
        <time>2014-12-07T10:47:00Z</time>
      </trkpt>
      <trkpt lat="47.49744" lon="6.68127">
        <ele>354.70315936</ele>
        <time>2014-12-07T10:47:08Z</time>
      </trkpt>
      <trkpt lat="47.49745" lon="6.68131">
        <ele>354.73613632001</ele>
        <time>2014-12-07T10:47:09Z</time>
      </trkpt>
      <trkpt lat="47.49745" lon="6.68135">
        <ele>354.76581951999</ele>
        <time>2014-12-07T10:47:10Z</time>
      </trkpt>
      <trkpt lat="47.49746" lon="6.68139">
        <ele>354.80195007999</ele>
        <time>2014-12-07T10:47:11Z</time>
      </trkpt>
      <trkpt lat="47.49747" lon="6.68144">
        <ele>354.85593664</ele>
        <time>2014-12-07T10:47:12Z</time>
      </trkpt>
      <trkpt lat="47.49748" lon="6.68148">
        <ele>354.91255552</ele>
        <time>2014-12-07T10:47:13Z</time>
      </trkpt>
      <trkpt lat="47.49749" lon="6.68153">
        <ele>354.96632704002</ele>
        <time>2014-12-07T10:47:14Z</time>
      </trkpt>
      <trkpt lat="47.4975" lon="6.68158">
        <ele>355.014928</ele>
        <time>2014-12-07T10:47:15Z</time>
      </trkpt>
      <trkpt lat="47.49752" lon="6.68163">
        <ele>355.0549</ele>
        <time>2014-12-07T10:47:16Z</time>
      </trkpt>
      <trkpt lat="47.49753" lon="6.68168">
        <ele>355.10526304</ele>
        <time>2014-12-07T10:47:17Z</time>
      </trkpt>
      <trkpt lat="47.49754" lon="6.68172">
        <ele>355.14661504001</ele>
        <time>2014-12-07T10:47:18Z</time>
      </trkpt>
      <trkpt lat="47.49755" lon="6.68177">
        <ele>355.18653184001</ele>
        <time>2014-12-07T10:47:19Z</time>
      </trkpt>
      <trkpt lat="47.49756" lon="6.68181">
        <ele>355.22038719999</ele>
        <time>2014-12-07T10:47:20Z</time>
      </trkpt>
      <trkpt lat="47.49756" lon="6.68185">
        <ele>355.26060832</ele>
        <time>2014-12-07T10:47:21Z</time>
      </trkpt>
      <trkpt lat="47.49757" lon="6.6819">
        <ele>355.30716927999</ele>
        <time>2014-12-07T10:47:22Z</time>
      </trkpt>
      <trkpt lat="47.49758" lon="6.68194">
        <ele>355.36069504001</ele>
        <time>2014-12-07T10:47:23Z</time>
      </trkpt>
      <trkpt lat="47.49759" lon="6.68199">
        <ele>355.40806720001</ele>
        <time>2014-12-07T10:47:24Z</time>
      </trkpt>
      <trkpt lat="47.4976" lon="6.68204">
        <ele>355.44387039999</ele>
        <time>2014-12-07T10:47:25Z</time>
      </trkpt>
      <trkpt lat="47.4976" lon="6.68209">
        <ele>355.48644832001</ele>
        <time>2014-12-07T10:47:26Z</time>
      </trkpt>
      <trkpt lat="47.49761" lon="6.68214">
        <ele>355.5360256</ele>
        <time>2014-12-07T10:47:27Z</time>
      </trkpt>
      <trkpt lat="47.49762" lon="6.68219">
        <ele>355.59754239999</ele>
        <time>2014-12-07T10:47:28Z</time>
      </trkpt>
      <trkpt lat="47.49763" lon="6.68224">
        <ele>355.66726816001</ele>
        <time>2014-12-07T10:47:29Z</time>
      </trkpt>
      <trkpt lat="47.49764" lon="6.68229">
        <ele>355.73453056</ele>
        <time>2014-12-07T10:47:30Z</time>
      </trkpt>
      <trkpt lat="47.49764" lon="6.68234">
        <ele>355.79930368001</ele>
        <time>2014-12-07T10:47:31Z</time>
      </trkpt>
      <trkpt lat="47.49765" lon="6.6824">
        <ele>355.87349536</ele>
        <time>2014-12-07T10:47:32Z</time>
      </trkpt>
      <trkpt lat="47.49766" lon="6.68245">
        <ele>355.95053823999</ele>
        <time>2014-12-07T10:47:33Z</time>
      </trkpt>
      <trkpt lat="47.49767" lon="6.68251">
        <ele>356.02271583999</ele>
        <time>2014-12-07T10:47:34Z</time>
      </trkpt>
      <trkpt lat="47.49768" lon="6.68257">
        <ele>355.9915552</ele>
        <time>2014-12-07T10:47:35Z</time>
      </trkpt>
      <trkpt lat="47.4977" lon="6.68262">
        <ele>355.96249791999</ele>
        <time>2014-12-07T10:47:36Z</time>
      </trkpt>
      <trkpt lat="47.49771" lon="6.68268">
        <ele>355.93145632</ele>
        <time>2014-12-07T10:47:37Z</time>
      </trkpt>
      <trkpt lat="47.49772" lon="6.68274">
        <ele>355.88708127999</ele>
        <time>2014-12-07T10:47:38Z</time>
      </trkpt>
      <trkpt lat="47.49773" lon="6.6828">
        <ele>355.84744576001</ele>
        <time>2014-12-07T10:47:39Z</time>
      </trkpt>
      <trkpt lat="47.49775" lon="6.68286">
        <ele>355.79351200001</ele>
        <time>2014-12-07T10:47:40Z</time>
      </trkpt>
      <trkpt lat="47.49775" lon="6.68291">
        <ele>355.73593984</ele>
        <time>2014-12-07T10:47:41Z</time>
      </trkpt>
      <trkpt lat="47.49776" lon="6.68296">
        <ele>355.67953503999</ele>
        <time>2014-12-07T10:47:42Z</time>
      </trkpt>
      <trkpt lat="47.49777" lon="6.68301">
        <ele>355.61397472</ele>
        <time>2014-12-07T10:47:43Z</time>
      </trkpt>
      <trkpt lat="47.49778" lon="6.68307">
        <ele>355.55311744</ele>
        <time>2014-12-07T10:47:44Z</time>
      </trkpt>
      <trkpt lat="47.4978" lon="6.68312">
        <ele>355.49104959998</ele>
        <time>2014-12-07T10:47:45Z</time>
      </trkpt>
      <trkpt lat="47.49781" lon="6.68318">
        <ele>355.41643456001</ele>
        <time>2014-12-07T10:47:46Z</time>
      </trkpt>
      <trkpt lat="47.49782" lon="6.68324">
        <ele>355.35137152</ele>
        <time>2014-12-07T10:47:47Z</time>
      </trkpt>
      <trkpt lat="47.49784" lon="6.6833">
        <ele>355.29512032</ele>
        <time>2014-12-07T10:47:48Z</time>
      </trkpt>
      <trkpt lat="47.49786" lon="6.68335">
        <ele>355.29116928</ele>
        <time>2014-12-07T10:47:49Z</time>
      </trkpt>
      <trkpt lat="47.49788" lon="6.6834">
        <ele>355.39132031999</ele>
        <time>2014-12-07T10:47:50Z</time>
      </trkpt>
      <trkpt lat="47.49789" lon="6.68345">
        <ele>355.48686144001</ele>
        <time>2014-12-07T10:47:51Z</time>
      </trkpt>
      <trkpt lat="47.49791" lon="6.6835">
        <ele>355.59214464001</ele>
        <time>2014-12-07T10:47:52Z</time>
      </trkpt>
      <trkpt lat="47.49793" lon="6.68356">
        <ele>355.70218272</ele>
        <time>2014-12-07T10:47:53Z</time>
      </trkpt>
      <trkpt lat="47.49797" lon="6.68361">
        <ele>355.8619344</ele>
        <time>2014-12-07T10:47:54Z</time>
      </trkpt>
      <trkpt lat="47.49799" lon="6.68367">
        <ele>355.99605887999</ele>
        <time>2014-12-07T10:47:55Z</time>
      </trkpt>
      <trkpt lat="47.49802" lon="6.68372">
        <ele>356.15962128</ele>
        <time>2014-12-07T10:47:56Z</time>
      </trkpt>
      <trkpt lat="47.49805" lon="6.68378">
        <ele>356.35312608001</ele>
        <time>2014-12-07T10:47:57Z</time>
      </trkpt>
      <trkpt lat="47.49808" lon="6.68385">
        <ele>356.50898064001</ele>
        <time>2014-12-07T10:47:58Z</time>
      </trkpt>
      <trkpt lat="47.49811" lon="6.68391">
        <ele>356.71583519998</ele>
        <time>2014-12-07T10:47:59Z</time>
      </trkpt>
      <trkpt lat="47.49814" lon="6.68397">
        <ele>356.89157663999</ele>
        <time>2014-12-07T10:48:00Z</time>
      </trkpt>
      <trkpt lat="47.49831" lon="6.68436">
        <ele>358.36512384</ele>
        <time>2014-12-07T10:48:08Z</time>
      </trkpt>
      <trkpt lat="47.49834" lon="6.68443">
        <ele>358.71430655999</ele>
        <time>2014-12-07T10:48:09Z</time>
      </trkpt>
      <trkpt lat="47.49837" lon="6.68449">
        <ele>359.06838815997</ele>
        <time>2014-12-07T10:48:10Z</time>
      </trkpt>
      <trkpt lat="47.49839" lon="6.68455">
        <ele>359.3670384</ele>
        <time>2014-12-07T10:48:11Z</time>
      </trkpt>
      <trkpt lat="47.4984" lon="6.68459">
        <ele>359.56563024002</ele>
        <time>2014-12-07T10:48:12Z</time>
      </trkpt>
      <trkpt lat="47.49843" lon="6.68464">
        <ele>359.88344256001</ele>
        <time>2014-12-07T10:48:13Z</time>
      </trkpt>
      <trkpt lat="47.49846" lon="6.6847">
        <ele>360.21396863998</ele>
        <time>2014-12-07T10:48:14Z</time>
      </trkpt>
      <trkpt lat="47.49847" lon="6.68475">
        <ele>360.43195296002</ele>
        <time>2014-12-07T10:48:15Z</time>
      </trkpt>
      <trkpt lat="47.49849" lon="6.6848">
        <ele>360.67692864</ele>
        <time>2014-12-07T10:48:16Z</time>
      </trkpt>
      <trkpt lat="47.49851" lon="6.68484">
        <ele>360.94785023998</ele>
        <time>2014-12-07T10:48:17Z</time>
      </trkpt>
      <trkpt lat="47.49853" lon="6.68489">
        <ele>361.17891840002</ele>
        <time>2014-12-07T10:48:18Z</time>
      </trkpt>
      <trkpt lat="47.49855" lon="6.68493">
        <ele>361.42531391999</ele>
        <time>2014-12-07T10:48:19Z</time>
      </trkpt>
      <trkpt lat="47.49858" lon="6.68498">
        <ele>361.69075200002</ele>
        <time>2014-12-07T10:48:20Z</time>
      </trkpt>
      <trkpt lat="47.4986" lon="6.68502">
        <ele>361.87448015998</ele>
        <time>2014-12-07T10:48:21Z</time>
      </trkpt>
      <trkpt lat="47.49862" lon="6.68507">
        <ele>361.99734239998</ele>
        <time>2014-12-07T10:48:22Z</time>
      </trkpt>
      <trkpt lat="47.49865" lon="6.68511">
        <ele>362.12143152</ele>
        <time>2014-12-07T10:48:23Z</time>
      </trkpt>
      <trkpt lat="47.49868" lon="6.68516">
        <ele>362.24187743999</ele>
        <time>2014-12-07T10:48:24Z</time>
      </trkpt>
      <trkpt lat="47.49871" lon="6.68521">
        <ele>362.34495264002</ele>
        <time>2014-12-07T10:48:25Z</time>
      </trkpt>
      <trkpt lat="47.49874" lon="6.68527">
        <ele>362.42349600002</ele>
        <time>2014-12-07T10:48:26Z</time>
      </trkpt>
      <trkpt lat="47.49876" lon="6.68533">
        <ele>362.48849183998</ele>
        <time>2014-12-07T10:48:27Z</time>
      </trkpt>
      <trkpt lat="47.49879" lon="6.68538">
        <ele>362.53080912001</ele>
        <time>2014-12-07T10:48:28Z</time>
      </trkpt>
      <trkpt lat="47.49881" lon="6.68544">
        <ele>362.55221039999</ele>
        <time>2014-12-07T10:48:29Z</time>
      </trkpt>
      <trkpt lat="47.49885" lon="6.6855">
        <ele>362.63090784001</ele>
        <time>2014-12-07T10:48:30Z</time>
      </trkpt>
      <trkpt lat="47.49888" lon="6.68555">
        <ele>362.63484623999</ele>
        <time>2014-12-07T10:48:31Z</time>
      </trkpt>
      <trkpt lat="47.49892" lon="6.68559">
        <ele>362.72363519999</ele>
        <time>2014-12-07T10:48:32Z</time>
      </trkpt>
      <trkpt lat="47.49895" lon="6.68565">
        <ele>362.73054720001</ele>
        <time>2014-12-07T10:48:33Z</time>
      </trkpt>
      <trkpt lat="47.49898" lon="6.68569">
        <ele>362.70177600001</ele>
        <time>2014-12-07T10:48:34Z</time>
      </trkpt>
      <trkpt lat="47.499" lon="6.68574">
        <ele>362.68258367999</ele>
        <time>2014-12-07T10:48:35Z</time>
      </trkpt>
      <trkpt lat="47.49903" lon="6.68578">
        <ele>362.65647359999</ele>
        <time>2014-12-07T10:48:36Z</time>
      </trkpt>
      <trkpt lat="47.49906" lon="6.68583">
        <ele>362.61150959999</ele>
        <time>2014-12-07T10:48:37Z</time>
      </trkpt>
      <trkpt lat="47.49908" lon="6.68588">
        <ele>362.89581327999</ele>
        <time>2014-12-07T10:48:38Z</time>
      </trkpt>
      <trkpt lat="47.4991" lon="6.68592">
        <ele>363.17786944001</ele>
        <time>2014-12-07T10:48:39Z</time>
      </trkpt>
      <trkpt lat="47.49913" lon="6.68596">
        <ele>363.45409983999</ele>
        <time>2014-12-07T10:48:40Z</time>
      </trkpt>
      <trkpt lat="47.49916" lon="6.686">
        <ele>363.75809391999</ele>
        <time>2014-12-07T10:48:41Z</time>
      </trkpt>
      <trkpt lat="47.49918" lon="6.68605">
        <ele>364.00176976</ele>
        <time>2014-12-07T10:48:42Z</time>
      </trkpt>
      <trkpt lat="47.4992" lon="6.68609">
        <ele>364.14086656</ele>
        <time>2014-12-07T10:48:43Z</time>
      </trkpt>
      <trkpt lat="47.49923" lon="6.68614">
        <ele>364.27603264</ele>
        <time>2014-12-07T10:48:44Z</time>
      </trkpt>
      <trkpt lat="47.49925" lon="6.68618">
        <ele>364.39678048</ele>
        <time>2014-12-07T10:48:45Z</time>
      </trkpt>
      <trkpt lat="47.49928" lon="6.68622">
        <ele>364.49476239999</ele>
        <time>2014-12-07T10:48:46Z</time>
      </trkpt>
      <trkpt lat="47.49931" lon="6.68625">
        <ele>364.576</ele>
        <time>2014-12-07T10:48:47Z</time>
      </trkpt>
      <trkpt lat="47.49933" lon="6.68628">
        <ele>364.64085759999</ele>
        <time>2014-12-07T10:48:48Z</time>
      </trkpt>
      <trkpt lat="47.49935" lon="6.68631">
        <ele>364.69930576</ele>
        <time>2014-12-07T10:48:49Z</time>
      </trkpt>
      <trkpt lat="47.49938" lon="6.68636">
        <ele>364.83442144001</ele>
        <time>2014-12-07T10:48:51Z</time>
      </trkpt>
      <trkpt lat="47.49939" lon="6.68638">
        <ele>364.92942496</ele>
        <time>2014-12-07T10:48:52Z</time>
      </trkpt>
      <trkpt lat="47.49939" lon="6.68643">
        <ele>365.12511808</ele>
        <time>2014-12-07T10:48:54Z</time>
      </trkpt>
      <trkpt lat="47.4994" lon="6.68645">
        <ele>365.20055344001</ele>
        <time>2014-12-07T10:48:55Z</time>
      </trkpt>
      <trkpt lat="47.49939" lon="6.6865">
        <ele>365.44846816001</ele>
        <time>2014-12-07T10:48:57Z</time>
      </trkpt>
      <trkpt lat="47.49938" lon="6.68653">
        <ele>365.60450559999</ele>
        <time>2014-12-07T10:48:58Z</time>
      </trkpt>
      <trkpt lat="47.49938" lon="6.68655">
        <ele>365.7385</ele>
        <time>2014-12-07T10:48:58Z</time>
      </trkpt>
      <trkpt lat="47.49934" lon="6.68655">
        <ele>365.86908016001</ele>
        <time>2014-12-07T10:49:00Z</time>
      </trkpt>
      <trkpt lat="47.49915" lon="6.68659">
        <ele>366.53022784001</ele>
        <time>2014-12-07T10:49:08Z</time>
      </trkpt>
      <trkpt lat="47.49912" lon="6.68659">
        <ele>366.43673824</ele>
        <time>2014-12-07T10:49:09Z</time>
      </trkpt>
      <trkpt lat="47.4991" lon="6.6866">
        <ele>366.33818319999</ele>
        <time>2014-12-07T10:49:10Z</time>
      </trkpt>
      <trkpt lat="47.49906" lon="6.68662">
        <ele>366.271168</ele>
        <time>2014-12-07T10:49:11Z</time>
      </trkpt>
      <trkpt lat="47.49902" lon="6.68664">
        <ele>366.19198720001</ele>
        <time>2014-12-07T10:49:12Z</time>
      </trkpt>
      <trkpt lat="47.49898" lon="6.68667">
        <ele>366.07481664</ele>
        <time>2014-12-07T10:49:13Z</time>
      </trkpt>
      <trkpt lat="47.49894" lon="6.6867">
        <ele>365.84695680001</ele>
        <time>2014-12-07T10:49:14Z</time>
      </trkpt>
      <trkpt lat="47.4989" lon="6.68672">
        <ele>365.65260144001</ele>
        <time>2014-12-07T10:49:15Z</time>
      </trkpt>
      <trkpt lat="47.49885" lon="6.68673">
        <ele>365.40600288</ele>
        <time>2014-12-07T10:49:16Z</time>
      </trkpt>
      <trkpt lat="47.49881" lon="6.68675">
        <ele>365.2172592</ele>
        <time>2014-12-07T10:49:17Z</time>
      </trkpt>
      <trkpt lat="47.49878" lon="6.68676">
        <ele>365.06999424001</ele>
        <time>2014-12-07T10:49:18Z</time>
      </trkpt>
      <trkpt lat="47.49873" lon="6.68676">
        <ele>364.87258944</ele>
        <time>2014-12-07T10:49:20Z</time>
      </trkpt>
      <trkpt lat="47.49872" lon="6.68677">
        <ele>364.78607279999</ele>
        <time>2014-12-07T10:49:21Z</time>
      </trkpt>
      <trkpt lat="47.49869" lon="6.68678">
        <ele>364.68164735999</ele>
        <time>2014-12-07T10:49:22Z</time>
      </trkpt>
      <trkpt lat="47.49867" lon="6.6868">
        <ele>364.56964943999</ele>
        <time>2014-12-07T10:49:23Z</time>
      </trkpt>
      <trkpt lat="47.49864" lon="6.68682">
        <ele>364.4445888</ele>
        <time>2014-12-07T10:49:24Z</time>
      </trkpt>
      <trkpt lat="47.49861" lon="6.68684">
        <ele>364.3288224</ele>
        <time>2014-12-07T10:49:25Z</time>
      </trkpt>
      <trkpt lat="47.49858" lon="6.68685">
        <ele>364.21615296</ele>
        <time>2014-12-07T10:49:26Z</time>
      </trkpt>
      <trkpt lat="47.49855" lon="6.68684">
        <ele>364.0979136</ele>
        <time>2014-12-07T10:49:27Z</time>
      </trkpt>
      <trkpt lat="47.49852" lon="6.68683">
        <ele>363.97553664001</ele>
        <time>2014-12-07T10:49:28Z</time>
      </trkpt>
      <trkpt lat="47.49849" lon="6.68682">
        <ele>363.83428608001</ele>
        <time>2014-12-07T10:49:29Z</time>
      </trkpt>
      <trkpt lat="47.49846" lon="6.68681">
        <ele>363.69607295999</ele>
        <time>2014-12-07T10:49:30Z</time>
      </trkpt>
      <trkpt lat="47.49843" lon="6.68681">
        <ele>363.57196320001</ele>
        <time>2014-12-07T10:49:31Z</time>
      </trkpt>
      <trkpt lat="47.4984" lon="6.68682">
        <ele>363.44880288001</ele>
        <time>2014-12-07T10:49:32Z</time>
      </trkpt>
      <trkpt lat="47.49837" lon="6.68682">
        <ele>363.33987840001</ele>
        <time>2014-12-07T10:49:33Z</time>
      </trkpt>
      <trkpt lat="47.49834" lon="6.68684">
        <ele>363.22507920001</ele>
        <time>2014-12-07T10:49:34Z</time>
      </trkpt>
      <trkpt lat="47.49831" lon="6.68684">
        <ele>362.93388655997</ele>
        <time>2014-12-07T10:49:35Z</time>
      </trkpt>
      <trkpt lat="47.49828" lon="6.68685">
        <ele>362.61593599997</ele>
        <time>2014-12-07T10:49:36Z</time>
      </trkpt>
      <trkpt lat="47.49824" lon="6.68686">
        <ele>362.27755856002</ele>
        <time>2014-12-07T10:49:37Z</time>
      </trkpt>
      <trkpt lat="47.49821" lon="6.68687">
        <ele>361.92295615998</ele>
        <time>2014-12-07T10:49:38Z</time>
      </trkpt>
      <trkpt lat="47.49817" lon="6.68688">
        <ele>361.55697007999</ele>
        <time>2014-12-07T10:49:39Z</time>
      </trkpt>
      <trkpt lat="47.49814" lon="6.68691">
        <ele>361.21503919998</ele>
        <time>2014-12-07T10:49:40Z</time>
      </trkpt>
      <trkpt lat="47.4981" lon="6.68694">
        <ele>360.90871183998</ele>
        <time>2014-12-07T10:49:41Z</time>
      </trkpt>
      <trkpt lat="47.49807" lon="6.68697">
        <ele>360.63976159998</ele>
        <time>2014-12-07T10:49:42Z</time>
      </trkpt>
      <trkpt lat="47.49804" lon="6.68701">
        <ele>360.37871839999</ele>
        <time>2014-12-07T10:49:43Z</time>
      </trkpt>
      <trkpt lat="47.49801" lon="6.68704">
        <ele>360.12122864003</ele>
        <time>2014-12-07T10:49:44Z</time>
      </trkpt>
      <trkpt lat="47.49798" lon="6.68707">
        <ele>359.90728064002</ele>
        <time>2014-12-07T10:49:45Z</time>
      </trkpt>
      <trkpt lat="47.49796" lon="6.68709">
        <ele>359.70358399999</ele>
        <time>2014-12-07T10:49:46Z</time>
      </trkpt>
      <trkpt lat="47.49794" lon="6.68712">
        <ele>359.50331840003</ele>
        <time>2014-12-07T10:49:47Z</time>
      </trkpt>
      <trkpt lat="47.49792" lon="6.68714">
        <ele>359.35245824004</ele>
        <time>2014-12-07T10:49:48Z</time>
      </trkpt>
      <trkpt lat="47.4979" lon="6.68718">
        <ele>359.2096784</ele>
        <time>2014-12-07T10:49:49Z</time>
      </trkpt>
      <trkpt lat="47.49788" lon="6.68722">
        <ele>359.09292031998</ele>
        <time>2014-12-07T10:49:50Z</time>
      </trkpt>
      <trkpt lat="47.49786" lon="6.68727">
        <ele>359.00953471998</ele>
        <time>2014-12-07T10:49:51Z</time>
      </trkpt>
      <trkpt lat="47.49785" lon="6.68732">
        <ele>358.99330495998</ele>
        <time>2014-12-07T10:49:52Z</time>
      </trkpt>
      <trkpt lat="47.49784" lon="6.68737">
        <ele>359.03522239999</ele>
        <time>2014-12-07T10:49:53Z</time>
      </trkpt>
      <trkpt lat="47.49784" lon="6.68743">
        <ele>359.13233696001</ele>
        <time>2014-12-07T10:49:54Z</time>
      </trkpt>
      <trkpt lat="47.49784" lon="6.68748">
        <ele>359.24305664001</ele>
        <time>2014-12-07T10:49:55Z</time>
      </trkpt>
      <trkpt lat="47.49784" lon="6.68754">
        <ele>359.29844288001</ele>
        <time>2014-12-07T10:49:56Z</time>
      </trkpt>
      <trkpt lat="47.49784" lon="6.68759">
        <ele>359.29990207997</ele>
        <time>2014-12-07T10:49:57Z</time>
      </trkpt>
      <trkpt lat="47.49783" lon="6.68765">
        <ele>359.26217983999</ele>
        <time>2014-12-07T10:49:58Z</time>
      </trkpt>
      <trkpt lat="47.49782" lon="6.6877">
        <ele>359.24071039998</ele>
        <time>2014-12-07T10:49:59Z</time>
      </trkpt>
      <trkpt lat="47.49781" lon="6.68775">
        <ele>359.20824320001</ele>
        <time>2014-12-07T10:50:00Z</time>
      </trkpt>
      <trkpt lat="47.49776" lon="6.68809">
        <ele>359.30450623999</ele>
        <time>2014-12-07T10:50:08Z</time>
      </trkpt>
      <trkpt lat="47.49776" lon="6.68814">
        <ele>359.3431952</ele>
        <time>2014-12-07T10:50:09Z</time>
      </trkpt>
      <trkpt lat="47.49775" lon="6.68818">
        <ele>359.38330400001</ele>
        <time>2014-12-07T10:50:10Z</time>
      </trkpt>
      <trkpt lat="47.49775" lon="6.68821">
        <ele>359.41984064001</ele>
        <time>2014-12-07T10:50:11Z</time>
      </trkpt>
      <trkpt lat="47.49774" lon="6.68825">
        <ele>359.45365856</ele>
        <time>2014-12-07T10:50:12Z</time>
      </trkpt>
      <trkpt lat="47.49774" lon="6.68828">
        <ele>359.49326624001</ele>
        <time>2014-12-07T10:50:13Z</time>
      </trkpt>
      <trkpt lat="47.49774" lon="6.68831">
        <ele>359.5320848</ele>
        <time>2014-12-07T10:50:14Z</time>
      </trkpt>
      <trkpt lat="47.49772" lon="6.68837">
        <ele>359.5619448</ele>
        <time>2014-12-07T10:50:16Z</time>
      </trkpt>
      <trkpt lat="47.49772" lon="6.68839">
        <ele>359.56711679999</ele>
        <time>2014-12-07T10:50:17Z</time>
      </trkpt>
      <trkpt lat="47.4977" lon="6.68845">
        <ele>359.59008</ele>
        <time>2014-12-07T10:50:19Z</time>
      </trkpt>
      <trkpt lat="47.49769" lon="6.68848">
        <ele>359.6144232</ele>
        <time>2014-12-07T10:50:20Z</time>
      </trkpt>
      <trkpt lat="47.49769" lon="6.68853">
        <ele>359.6518416</ele>
        <time>2014-12-07T10:50:21Z</time>
      </trkpt>
      <trkpt lat="47.49768" lon="6.68857">
        <ele>359.6893632</ele>
        <time>2014-12-07T10:50:22Z</time>
      </trkpt>
      <trkpt lat="47.49767" lon="6.68861">
        <ele>359.73132</ele>
        <time>2014-12-07T10:50:23Z</time>
      </trkpt>
      <trkpt lat="47.49766" lon="6.68865">
        <ele>359.7786</ele>
        <time>2014-12-07T10:50:24Z</time>
      </trkpt>
      <trkpt lat="47.49765" lon="6.68869">
        <ele>359.8287744</ele>
        <time>2014-12-07T10:50:25Z</time>
      </trkpt>
      <trkpt lat="47.49764" lon="6.68873">
        <ele>359.8849344</ele>
        <time>2014-12-07T10:50:26Z</time>
      </trkpt>
      <trkpt lat="47.49764" lon="6.68877">
        <ele>359.9375568</ele>
        <time>2014-12-07T10:50:27Z</time>
      </trkpt>
      <trkpt lat="47.49765" lon="6.6888">
        <ele>359.984868</ele>
        <time>2014-12-07T10:50:28Z</time>
      </trkpt>
      <trkpt lat="47.49765" lon="6.68884">
        <ele>360.02484</ele>
        <time>2014-12-07T10:50:29Z</time>
      </trkpt>
      <trkpt lat="47.49765" lon="6.68888">
        <ele>360.0741648</ele>
        <time>2014-12-07T10:50:30Z</time>
      </trkpt>
      <trkpt lat="47.49765" lon="6.68892">
        <ele>360.13226880001</ele>
        <time>2014-12-07T10:50:31Z</time>
      </trkpt>
      <trkpt lat="47.49765" lon="6.68897">
        <ele>360.18779040001</ele>
        <time>2014-12-07T10:50:32Z</time>
      </trkpt>
      <trkpt lat="47.49765" lon="6.68901">
        <ele>360.26098079999</ele>
        <time>2014-12-07T10:50:33Z</time>
      </trkpt>
      <trkpt lat="47.49765" lon="6.68906">
        <ele>360.32658</ele>
        <time>2014-12-07T10:50:34Z</time>
      </trkpt>
      <trkpt lat="47.49764" lon="6.68909">
        <ele>360.377088</ele>
        <time>2014-12-07T10:50:35Z</time>
      </trkpt>
      <trkpt lat="47.49764" lon="6.68912">
        <ele>360.42398880001</ele>
        <time>2014-12-07T10:50:36Z</time>
      </trkpt>
      <trkpt lat="47.49764" lon="6.68917">
        <ele>360.51415328001</ele>
        <time>2014-12-07T10:50:38Z</time>
      </trkpt>
      <trkpt lat="47.49763" lon="6.6892">
        <ele>360.56110064001</ele>
        <time>2014-12-07T10:50:39Z</time>
      </trkpt>
      <trkpt lat="47.49762" lon="6.68925">
        <ele>360.64513568</ele>
        <time>2014-12-07T10:50:41Z</time>
      </trkpt>
      <trkpt lat="47.49762" lon="6.68927">
        <ele>360.66869504</ele>
        <time>2014-12-07T10:50:42Z</time>
      </trkpt>
      <trkpt lat="47.49763" lon="6.68932">
        <ele>360.70282687999</ele>
        <time>2014-12-07T10:50:44Z</time>
      </trkpt>
      <trkpt lat="47.49763" lon="6.68935">
        <ele>360.7186928</ele>
        <time>2014-12-07T10:50:45Z</time>
      </trkpt>
      <trkpt lat="47.49764" lon="6.68941">
        <ele>360.74884735999</ele>
        <time>2014-12-07T10:50:48Z</time>
      </trkpt>
      <trkpt lat="47.49764" lon="6.68943">
        <ele>360.76189136</ele>
        <time>2014-12-07T10:50:49Z</time>
      </trkpt>
      <trkpt lat="47.49764" lon="6.68949">
        <ele>360.81267584</ele>
        <time>2014-12-07T10:50:52Z</time>
      </trkpt>
      <trkpt lat="47.49764" lon="6.68952">
        <ele>360.83134016</ele>
        <time>2014-12-07T10:50:53Z</time>
      </trkpt>
      <trkpt lat="47.49765" lon="6.68955">
        <ele>360.85380799999</ele>
        <time>2014-12-07T10:50:54Z</time>
      </trkpt>
      <trkpt lat="47.49765" lon="6.68959">
        <ele>360.86001248</ele>
        <time>2014-12-07T10:50:55Z</time>
      </trkpt>
      <trkpt lat="47.49766" lon="6.68962">
        <ele>360.86974688001</ele>
        <time>2014-12-07T10:50:56Z</time>
      </trkpt>
      <trkpt lat="47.49766" lon="6.68966">
        <ele>360.89178176001</ele>
        <time>2014-12-07T10:50:57Z</time>
      </trkpt>
      <trkpt lat="47.49766" lon="6.68972">
        <ele>360.9429248</ele>
        <time>2014-12-07T10:50:59Z</time>
      </trkpt>
      <trkpt lat="47.49767" lon="6.68975">
        <ele>360.95815519999</ele>
        <time>2014-12-07T10:51:00Z</time>
      </trkpt>
      <trkpt lat="47.49768" lon="6.6898">
        <ele>360.95759551999</ele>
        <time>2014-12-07T10:51:03Z</time>
      </trkpt>
      <trkpt lat="47.49769" lon="6.68981">
        <ele>360.93288607999</ele>
        <time>2014-12-07T10:51:04Z</time>
      </trkpt>
      <trkpt lat="47.49771" lon="6.68986">
        <ele>360.86364320001</ele>
        <time>2014-12-07T10:51:06Z</time>
      </trkpt>
      <trkpt lat="47.49772" lon="6.68989">
        <ele>360.83316319999</ele>
        <time>2014-12-07T10:51:07Z</time>
      </trkpt>
      <trkpt lat="47.49773" lon="6.68992">
        <ele>360.8127968</ele>
        <time>2014-12-07T10:51:08Z</time>
      </trkpt>
      <trkpt lat="47.49774" lon="6.68995">
        <ele>360.80055200001</ele>
        <time>2014-12-07T10:51:09Z</time>
      </trkpt>
      <trkpt lat="47.49775" lon="6.68999">
        <ele>360.77951744001</ele>
        <time>2014-12-07T10:51:10Z</time>
      </trkpt>
      <trkpt lat="47.49776" lon="6.69003">
        <ele>360.7737152</ele>
        <time>2014-12-07T10:51:11Z</time>
      </trkpt>
      <trkpt lat="47.49777" lon="6.69008">
        <ele>360.76543039999</ele>
        <time>2014-12-07T10:51:12Z</time>
      </trkpt>
      <trkpt lat="47.49778" lon="6.69013">
        <ele>360.78171391999</ele>
        <time>2014-12-07T10:51:13Z</time>
      </trkpt>
      <trkpt lat="47.49778" lon="6.69019">
        <ele>360.79827392</ele>
        <time>2014-12-07T10:51:14Z</time>
      </trkpt>
      <trkpt lat="47.49779" lon="6.69024">
        <ele>360.82405952001</ele>
        <time>2014-12-07T10:51:15Z</time>
      </trkpt>
      <trkpt lat="47.49779" lon="6.69029">
        <ele>360.86210239999</ele>
        <time>2014-12-07T10:51:16Z</time>
      </trkpt>
      <trkpt lat="47.49779" lon="6.69034">
        <ele>360.90395648001</ele>
        <time>2014-12-07T10:51:17Z</time>
      </trkpt>
      <trkpt lat="47.49779" lon="6.69038">
        <ele>360.93772736001</ele>
        <time>2014-12-07T10:51:18Z</time>
      </trkpt>
      <trkpt lat="47.49779" lon="6.69041">
        <ele>360.9701696</ele>
        <time>2014-12-07T10:51:19Z</time>
      </trkpt>
      <trkpt lat="47.49779" lon="6.69045">
        <ele>360.98835968</ele>
        <time>2014-12-07T10:51:20Z</time>
      </trkpt>
      <trkpt lat="47.49779" lon="6.69048">
        <ele>361.00206080001</ele>
        <time>2014-12-07T10:51:21Z</time>
      </trkpt>
      <trkpt lat="47.4978" lon="6.69051">
        <ele>361.01481728</ele>
        <time>2014-12-07T10:51:22Z</time>
      </trkpt>
      <trkpt lat="47.49781" lon="6.69055">
        <ele>361.014728</ele>
        <time>2014-12-07T10:51:23Z</time>
      </trkpt>
      <trkpt lat="47.49781" lon="6.69059">
        <ele>361.02182720001</ele>
        <time>2014-12-07T10:51:24Z</time>
      </trkpt>
      <trkpt lat="47.49783" lon="6.69063">
        <ele>361.02182528</ele>
        <time>2014-12-07T10:51:25Z</time>
      </trkpt>
      <trkpt lat="47.49784" lon="6.69067">
        <ele>361.02602240001</ele>
        <time>2014-12-07T10:51:26Z</time>
      </trkpt>
      <trkpt lat="47.49785" lon="6.69072">
        <ele>361.04620160001</ele>
        <time>2014-12-07T10:51:27Z</time>
      </trkpt>
      <trkpt lat="47.49785" lon="6.69075">
        <ele>361.07214656</ele>
        <time>2014-12-07T10:51:28Z</time>
      </trkpt>
      <trkpt lat="47.49786" lon="6.69079">
        <ele>361.09715264</ele>
        <time>2014-12-07T10:51:29Z</time>
      </trkpt>
      <trkpt lat="47.49786" lon="6.69083">
        <ele>361.12080896</ele>
        <time>2014-12-07T10:51:30Z</time>
      </trkpt>
      <trkpt lat="47.49787" lon="6.69086">
        <ele>361.10616831999</ele>
        <time>2014-12-07T10:51:31Z</time>
      </trkpt>
      <trkpt lat="47.49789" lon="6.6909">
        <ele>361.07663968</ele>
        <time>2014-12-07T10:51:32Z</time>
      </trkpt>
      <trkpt lat="47.49791" lon="6.69094">
        <ele>361.02603040001</ele>
        <time>2014-12-07T10:51:33Z</time>
      </trkpt>
      <trkpt lat="47.49793" lon="6.69097">
        <ele>360.96824128</ele>
        <time>2014-12-07T10:51:34Z</time>
      </trkpt>
      <trkpt lat="47.49795" lon="6.69101">
        <ele>360.91185375999</ele>
        <time>2014-12-07T10:51:35Z</time>
      </trkpt>
      <trkpt lat="47.49796" lon="6.69105">
        <ele>360.85740927999</ele>
        <time>2014-12-07T10:51:36Z</time>
      </trkpt>
      <trkpt lat="47.49798" lon="6.69108">
        <ele>360.80852223999</ele>
        <time>2014-12-07T10:51:37Z</time>
      </trkpt>
      <trkpt lat="47.49799" lon="6.69112">
        <ele>360.75958816</ele>
        <time>2014-12-07T10:51:38Z</time>
      </trkpt>
      <trkpt lat="47.498" lon="6.69116">
        <ele>360.70773375999</ele>
        <time>2014-12-07T10:51:39Z</time>
      </trkpt>
      <trkpt lat="47.49802" lon="6.6912">
        <ele>360.65613184</ele>
        <time>2014-12-07T10:51:40Z</time>
      </trkpt>
      <trkpt lat="47.49803" lon="6.69124">
        <ele>360.60502432</ele>
        <time>2014-12-07T10:51:41Z</time>
      </trkpt>
      <trkpt lat="47.49804" lon="6.69129">
        <ele>360.55062016</ele>
        <time>2014-12-07T10:51:42Z</time>
      </trkpt>
      <trkpt lat="47.49805" lon="6.69133">
        <ele>360.49311039999</ele>
        <time>2014-12-07T10:51:43Z</time>
      </trkpt>
      <trkpt lat="47.49806" lon="6.69138">
        <ele>360.43636000001</ele>
        <time>2014-12-07T10:51:44Z</time>
      </trkpt>
      <trkpt lat="47.49807" lon="6.69142">
        <ele>360.38285055999</ele>
        <time>2014-12-07T10:51:45Z</time>
      </trkpt>
      <trkpt lat="47.49808" lon="6.69145">
        <ele>360.337888</ele>
        <time>2014-12-07T10:51:46Z</time>
      </trkpt>
      <trkpt lat="47.49808" lon="6.69148">
        <ele>360.29480704001</ele>
        <time>2014-12-07T10:51:47Z</time>
      </trkpt>
      <trkpt lat="47.49809" lon="6.69153">
        <ele>360.2274112</ele>
        <time>2014-12-07T10:51:49Z</time>
      </trkpt>
      <trkpt lat="47.4981" lon="6.69156">
        <ele>360.201352</ele>
        <time>2014-12-07T10:51:50Z</time>
      </trkpt>
      <trkpt lat="47.49809" lon="6.69161">
        <ele>360.2009248</ele>
        <time>2014-12-07T10:51:52Z</time>
      </trkpt>
      <trkpt lat="47.49809" lon="6.69164">
        <ele>360.19125183999</ele>
        <time>2014-12-07T10:51:53Z</time>
      </trkpt>
      <trkpt lat="47.49809" lon="6.69169">
        <ele>360.03454975999</ele>
        <time>2014-12-07T10:51:55Z</time>
      </trkpt>
      <trkpt lat="47.49809" lon="6.69172">
        <ele>359.86591664</ele>
        <time>2014-12-07T10:51:56Z</time>
      </trkpt>
      <trkpt lat="47.49809" lon="6.69175">
        <ele>359.69647184</ele>
        <time>2014-12-07T10:51:57Z</time>
      </trkpt>
      <trkpt lat="47.49809" lon="6.6918">
        <ele>359.39343104</ele>
        <time>2014-12-07T10:51:58Z</time>
      </trkpt>
      <trkpt lat="47.4981" lon="6.69186">
        <ele>359.01871327998</ele>
        <time>2014-12-07T10:51:59Z</time>
      </trkpt>
      <trkpt lat="47.49811" lon="6.69192">
        <ele>358.64845856</ele>
        <time>2014-12-07T10:52:00Z</time>
      </trkpt>
      <trkpt lat="47.49819" lon="6.69226">
        <ele>356.27378480001</ele>
        <time>2014-12-07T10:52:08Z</time>
      </trkpt>
      <trkpt lat="47.4982" lon="6.69229">
        <ele>355.99085216</ele>
        <time>2014-12-07T10:52:09Z</time>
      </trkpt>
      <trkpt lat="47.49821" lon="6.69234">
        <ele>355.68312320001</ele>
        <time>2014-12-07T10:52:10Z</time>
      </trkpt>
      <trkpt lat="47.49822" lon="6.6924">
        <ele>355.287104</ele>
        <time>2014-12-07T10:52:11Z</time>
      </trkpt>
      <trkpt lat="47.49822" lon="6.69246">
        <ele>354.89001487999</ele>
        <time>2014-12-07T10:52:12Z</time>
      </trkpt>
      <trkpt lat="47.49823" lon="6.69252">
        <ele>354.54612608001</ele>
        <time>2014-12-07T10:52:13Z</time>
      </trkpt>
      <trkpt lat="47.49824" lon="6.69258">
        <ele>354.29099359999</ele>
        <time>2014-12-07T10:52:14Z</time>
      </trkpt>
      <trkpt lat="47.49824" lon="6.69263">
        <ele>354.07993088</ele>
        <time>2014-12-07T10:52:15Z</time>
      </trkpt>
      <trkpt lat="47.49824" lon="6.69267">
        <ele>353.91391039998</ele>
        <time>2014-12-07T10:52:16Z</time>
      </trkpt>
      <trkpt lat="47.49823" lon="6.6927">
        <ele>353.81101184002</ele>
        <time>2014-12-07T10:52:17Z</time>
      </trkpt>
      <trkpt lat="47.49823" lon="6.69273">
        <ele>353.74241600001</ele>
        <time>2014-12-07T10:52:18Z</time>
      </trkpt>
      <trkpt lat="47.49821" lon="6.69276">
        <ele>353.68669952001</ele>
        <time>2014-12-07T10:52:19Z</time>
      </trkpt>
      <trkpt lat="47.4982" lon="6.69279">
        <ele>353.63947519999</ele>
        <time>2014-12-07T10:52:20Z</time>
      </trkpt>
      <trkpt lat="47.49819" lon="6.69282">
        <ele>353.58499808002</ele>
        <time>2014-12-07T10:52:21Z</time>
      </trkpt>
      <trkpt lat="47.49818" lon="6.69285">
        <ele>353.51447648</ele>
        <time>2014-12-07T10:52:22Z</time>
      </trkpt>
      <trkpt lat="47.49817" lon="6.69288">
        <ele>353.42510719999</ele>
        <time>2014-12-07T10:52:23Z</time>
      </trkpt>
      <trkpt lat="47.49816" lon="6.69292">
        <ele>353.3292224</ele>
        <time>2014-12-07T10:52:24Z</time>
      </trkpt>
      <trkpt lat="47.49816" lon="6.69295">
        <ele>353.19773311999</ele>
        <time>2014-12-07T10:52:25Z</time>
      </trkpt>
      <trkpt lat="47.49815" lon="6.693">
        <ele>353.04749120001</ele>
        <time>2014-12-07T10:52:26Z</time>
      </trkpt>
      <trkpt lat="47.49815" lon="6.69304">
        <ele>352.87881056</ele>
        <time>2014-12-07T10:52:27Z</time>
      </trkpt>
      <trkpt lat="47.49815" lon="6.69308">
        <ele>352.69277119999</ele>
        <time>2014-12-07T10:52:28Z</time>
      </trkpt>
      <trkpt lat="47.49816" lon="6.69312">
        <ele>352.51124287999</ele>
        <time>2014-12-07T10:52:29Z</time>
      </trkpt>
      <trkpt lat="47.49816" lon="6.69316">
        <ele>352.33452512</ele>
        <time>2014-12-07T10:52:30Z</time>
      </trkpt>
      <trkpt lat="47.49816" lon="6.6932">
        <ele>352.174544</ele>
        <time>2014-12-07T10:52:31Z</time>
      </trkpt>
      <trkpt lat="47.49816" lon="6.69324">
        <ele>352.01479040001</ele>
        <time>2014-12-07T10:52:32Z</time>
      </trkpt>
      <trkpt lat="47.49816" lon="6.69327">
        <ele>351.86754463999</ele>
        <time>2014-12-07T10:52:33Z</time>
      </trkpt>
      <trkpt lat="47.49816" lon="6.69331">
        <ele>351.72868736</ele>
        <time>2014-12-07T10:52:34Z</time>
      </trkpt>
      <trkpt lat="47.49816" lon="6.69337">
        <ele>351.7397536</ele>
        <time>2014-12-07T10:52:36Z</time>
      </trkpt>
      <trkpt lat="47.49816" lon="6.6934">
        <ele>351.85041184</ele>
        <time>2014-12-07T10:52:37Z</time>
      </trkpt>
      <trkpt lat="47.49816" lon="6.69344">
        <ele>351.96452223999</ele>
        <time>2014-12-07T10:52:38Z</time>
      </trkpt>
      <trkpt lat="47.49816" lon="6.69347">
        <ele>352.08529119999</ele>
        <time>2014-12-07T10:52:39Z</time>
      </trkpt>
      <trkpt lat="47.49816" lon="6.69353">
        <ele>352.30955775999</ele>
        <time>2014-12-07T10:52:41Z</time>
      </trkpt>
      <trkpt lat="47.49816" lon="6.69357">
        <ele>352.41650800001</ele>
        <time>2014-12-07T10:52:42Z</time>
      </trkpt>
      <trkpt lat="47.49815" lon="6.69363">
        <ele>352.63030528</ele>
        <time>2014-12-07T10:52:44Z</time>
      </trkpt>
      <trkpt lat="47.49816" lon="6.69366">
        <ele>352.74079840001</ele>
        <time>2014-12-07T10:52:45Z</time>
      </trkpt>
      <trkpt lat="47.49816" lon="6.6937">
        <ele>352.85500384</ele>
        <time>2014-12-07T10:52:46Z</time>
      </trkpt>
      <trkpt lat="47.49816" lon="6.69373">
        <ele>352.97243968001</ele>
        <time>2014-12-07T10:52:47Z</time>
      </trkpt>
      <trkpt lat="47.49816" lon="6.69377">
        <ele>353.09629792001</ele>
        <time>2014-12-07T10:52:48Z</time>
      </trkpt>
      <trkpt lat="47.49816" lon="6.69381">
        <ele>353.21680864001</ele>
        <time>2014-12-07T10:52:49Z</time>
      </trkpt>
      <trkpt lat="47.49816" lon="6.69384">
        <ele>353.34305152</ele>
        <time>2014-12-07T10:52:50Z</time>
      </trkpt>
      <trkpt lat="47.49815" lon="6.69388">
        <ele>353.47190127999</ele>
        <time>2014-12-07T10:52:51Z</time>
      </trkpt>
      <trkpt lat="47.49815" lon="6.69391">
        <ele>353.59434016</ele>
        <time>2014-12-07T10:52:51Z</time>
      </trkpt>
      <trkpt lat="47.49815" lon="6.69395">
        <ele>353.72658112001</ele>
        <time>2014-12-07T10:52:53Z</time>
      </trkpt>
      <trkpt lat="47.49815" lon="6.69399">
        <ele>353.8559488</ele>
        <time>2014-12-07T10:52:54Z</time>
      </trkpt>
      <trkpt lat="47.49815" lon="6.69403">
        <ele>353.99187039999</ele>
        <time>2014-12-07T10:52:55Z</time>
      </trkpt>
      <trkpt lat="47.49815" lon="6.69407">
        <ele>354.1368736</ele>
        <time>2014-12-07T10:52:56Z</time>
      </trkpt>
      <trkpt lat="47.49814" lon="6.69411">
        <ele>354.27583167999</ele>
        <time>2014-12-07T10:52:57Z</time>
      </trkpt>
      <trkpt lat="47.49814" lon="6.69415">
        <ele>354.41950816001</ele>
        <time>2014-12-07T10:52:58Z</time>
      </trkpt>
      <trkpt lat="47.49814" lon="6.69419">
        <ele>354.57100704001</ele>
        <time>2014-12-07T10:52:59Z</time>
      </trkpt>
      <trkpt lat="47.49814" lon="6.69423">
        <ele>354.71820240001</ele>
        <time>2014-12-07T10:53:00Z</time>
      </trkpt>
      <trkpt lat="47.4981" lon="6.69449">
        <ele>355.83729648</ele>
        <time>2014-12-07T10:53:08Z</time>
      </trkpt>
      <trkpt lat="47.49809" lon="6.69453">
        <ele>355.99767552</ele>
        <time>2014-12-07T10:53:09Z</time>
      </trkpt>
      <trkpt lat="47.49809" lon="6.69457">
        <ele>356.18231568</ele>
        <time>2014-12-07T10:53:10Z</time>
      </trkpt>
      <trkpt lat="47.49808" lon="6.69463">
        <ele>356.43528768</ele>
        <time>2014-12-07T10:53:11Z</time>
      </trkpt>
      <trkpt lat="47.49807" lon="6.69467">
        <ele>356.6286144</ele>
        <time>2014-12-07T10:53:12Z</time>
      </trkpt>
      <trkpt lat="47.49806" lon="6.69472">
        <ele>356.86737984001</ele>
        <time>2014-12-07T10:53:13Z</time>
      </trkpt>
      <trkpt lat="47.49805" lon="6.69478">
        <ele>357.13095024001</ele>
        <time>2014-12-07T10:53:14Z</time>
      </trkpt>
      <trkpt lat="47.49805" lon="6.69483">
        <ele>357.37147680001</ele>
        <time>2014-12-07T10:53:15Z</time>
      </trkpt>
      <trkpt lat="47.49804" lon="6.69489">
        <ele>357.59744639999</ele>
        <time>2014-12-07T10:53:16Z</time>
      </trkpt>
      <trkpt lat="47.49804" lon="6.69494">
        <ele>357.812076</ele>
        <time>2014-12-07T10:53:17Z</time>
      </trkpt>
      <trkpt lat="47.49803" lon="6.69498">
        <ele>358.01979888001</ele>
        <time>2014-12-07T10:53:18Z</time>
      </trkpt>
      <trkpt lat="47.49803" lon="6.69503">
        <ele>358.18200000001</ele>
        <time>2014-12-07T10:53:19Z</time>
      </trkpt>
      <trkpt lat="47.49802" lon="6.69508">
        <ele>358.32840000001</ele>
        <time>2014-12-07T10:53:20Z</time>
      </trkpt>
      <trkpt lat="47.49801" lon="6.69513">
        <ele>358.48199999999</ele>
        <time>2014-12-07T10:53:21Z</time>
      </trkpt>
      <trkpt lat="47.498" lon="6.69519">
        <ele>358.6368</ele>
        <time>2014-12-07T10:53:22Z</time>
      </trkpt>
      <trkpt lat="47.498" lon="6.69524">
        <ele>358.7976</ele>
        <time>2014-12-07T10:53:23Z</time>
      </trkpt>
      <trkpt lat="47.49799" lon="6.6953">
        <ele>358.95599999999</ele>
        <time>2014-12-07T10:53:24Z</time>
      </trkpt>
      <trkpt lat="47.49799" lon="6.69536">
        <ele>359.1084</ele>
        <time>2014-12-07T10:53:25Z</time>
      </trkpt>
      <trkpt lat="47.49798" lon="6.69541">
        <ele>359.24999999999</ele>
        <time>2014-12-07T10:53:26Z</time>
      </trkpt>
      <trkpt lat="47.49798" lon="6.69546">
        <ele>359.3952</ele>
        <time>2014-12-07T10:53:27Z</time>
      </trkpt>
      <trkpt lat="47.49797" lon="6.69552">
        <ele>359.53680000001</ele>
        <time>2014-12-07T10:53:28Z</time>
      </trkpt>
      <trkpt lat="47.49797" lon="6.69557">
        <ele>359.66879999999</ele>
        <time>2014-12-07T10:53:29Z</time>
      </trkpt>
      <trkpt lat="47.49797" lon="6.69562">
        <ele>359.7924</ele>
        <time>2014-12-07T10:53:30Z</time>
      </trkpt>
      <trkpt lat="47.49797" lon="6.69567">
        <ele>359.9172</ele>
        <time>2014-12-07T10:53:31Z</time>
      </trkpt>
      <trkpt lat="47.49797" lon="6.69572">
        <ele>360.03600000001</ele>
        <time>2014-12-07T10:53:32Z</time>
      </trkpt>
      <trkpt lat="47.49797" lon="6.69577">
        <ele>360.1596</ele>
        <time>2014-12-07T10:53:33Z</time>
      </trkpt>
      <trkpt lat="47.49797" lon="6.69582">
        <ele>360.28079999999</ele>
        <time>2014-12-07T10:53:34Z</time>
      </trkpt>
      <trkpt lat="47.49797" lon="6.69587">
        <ele>360.42081599999</ele>
        <time>2014-12-07T10:53:35Z</time>
      </trkpt>
      <trkpt lat="47.49797" lon="6.69592">
        <ele>360.56194608</ele>
        <time>2014-12-07T10:53:36Z</time>
      </trkpt>
      <trkpt lat="47.49797" lon="6.69596">
        <ele>360.69671855999</ele>
        <time>2014-12-07T10:53:37Z</time>
      </trkpt>
      <trkpt lat="47.49797" lon="6.69601">
        <ele>360.83202048</ele>
        <time>2014-12-07T10:53:38Z</time>
      </trkpt>
      <trkpt lat="47.49798" lon="6.69605">
        <ele>360.96436800001</ele>
        <time>2014-12-07T10:53:39Z</time>
      </trkpt>
      <trkpt lat="47.49798" lon="6.6961">
        <ele>361.0905336</ele>
        <time>2014-12-07T10:53:40Z</time>
      </trkpt>
      <trkpt lat="47.49798" lon="6.69614">
        <ele>361.21069440001</ele>
        <time>2014-12-07T10:53:41Z</time>
      </trkpt>
      <trkpt lat="47.49798" lon="6.69618">
        <ele>361.32501887999</ele>
        <time>2014-12-07T10:53:42Z</time>
      </trkpt>
      <trkpt lat="47.49799" lon="6.69622">
        <ele>361.43665775999</ele>
        <time>2014-12-07T10:53:43Z</time>
      </trkpt>
      <trkpt lat="47.49799" lon="6.69625">
        <ele>361.54841088</ele>
        <time>2014-12-07T10:53:44Z</time>
      </trkpt>
      <trkpt lat="47.49799" lon="6.69629">
        <ele>361.6512816</ele>
        <time>2014-12-07T10:53:45Z</time>
      </trkpt>
      <trkpt lat="47.49799" lon="6.69633">
        <ele>361.75735392</ele>
        <time>2014-12-07T10:53:46Z</time>
      </trkpt>
      <trkpt lat="47.498" lon="6.69636">
        <ele>361.86702336</ele>
        <time>2014-12-07T10:53:47Z</time>
      </trkpt>
      <trkpt lat="47.498" lon="6.6964">
        <ele>361.97458031999</ele>
        <time>2014-12-07T10:53:48Z</time>
      </trkpt>
      <trkpt lat="47.49801" lon="6.69644">
        <ele>362.0854224</ele>
        <time>2014-12-07T10:53:49Z</time>
      </trkpt>
      <trkpt lat="47.49801" lon="6.69648">
        <ele>362.1962496</ele>
        <time>2014-12-07T10:53:50Z</time>
      </trkpt>
      <trkpt lat="47.49801" lon="6.69652">
        <ele>362.3136768</ele>
        <time>2014-12-07T10:53:51Z</time>
      </trkpt>
      <trkpt lat="47.49801" lon="6.69656">
        <ele>362.4340032</ele>
        <time>2014-12-07T10:53:52Z</time>
      </trkpt>
      <trkpt lat="47.49802" lon="6.6966">
        <ele>362.55520704</ele>
        <time>2014-12-07T10:53:53Z</time>
      </trkpt>
      <trkpt lat="47.49802" lon="6.69665">
        <ele>362.6789136</ele>
        <time>2014-12-07T10:53:54Z</time>
      </trkpt>
      <trkpt lat="47.49803" lon="6.69669">
        <ele>362.80338048001</ele>
        <time>2014-12-07T10:53:55Z</time>
      </trkpt>
      <trkpt lat="47.49804" lon="6.69673">
        <ele>362.92399872</ele>
        <time>2014-12-07T10:53:56Z</time>
      </trkpt>
      <trkpt lat="47.49805" lon="6.69678">
        <ele>363.04433472</ele>
        <time>2014-12-07T10:53:57Z</time>
      </trkpt>
      <trkpt lat="47.49806" lon="6.69682">
        <ele>363.1617432</ele>
        <time>2014-12-07T10:53:58Z</time>
      </trkpt>
      <trkpt lat="47.49807" lon="6.69686">
        <ele>363.27493680001</ele>
        <time>2014-12-07T10:53:59Z</time>
      </trkpt>
      <trkpt lat="47.49808" lon="6.6969">
        <ele>363.379656</ele>
        <time>2014-12-07T10:54:00Z</time>
      </trkpt>
      <trkpt lat="47.49816" lon="6.69723">
        <ele>364.31502768</ele>
        <time>2014-12-07T10:54:08Z</time>
      </trkpt>
      <trkpt lat="47.49817" lon="6.69727">
        <ele>364.4288256</ele>
        <time>2014-12-07T10:54:09Z</time>
      </trkpt>
      <trkpt lat="47.49818" lon="6.69731">
        <ele>364.52928768</ele>
        <time>2014-12-07T10:54:10Z</time>
      </trkpt>
      <trkpt lat="47.4982" lon="6.69735">
        <ele>364.63374624</ele>
        <time>2014-12-07T10:54:11Z</time>
      </trkpt>
      <trkpt lat="47.49822" lon="6.69738">
        <ele>364.7338944</ele>
        <time>2014-12-07T10:54:12Z</time>
      </trkpt>
      <trkpt lat="47.49824" lon="6.69742">
        <ele>364.83690384</ele>
        <time>2014-12-07T10:54:13Z</time>
      </trkpt>
      <trkpt lat="47.49826" lon="6.69746">
        <ele>364.95646752</ele>
        <time>2014-12-07T10:54:14Z</time>
      </trkpt>
      <trkpt lat="47.49828" lon="6.69751">
        <ele>365.0832792</ele>
        <time>2014-12-07T10:54:15Z</time>
      </trkpt>
      <trkpt lat="47.4983" lon="6.69755">
        <ele>365.1561168</ele>
        <time>2014-12-07T10:54:16Z</time>
      </trkpt>
      <trkpt lat="47.49832" lon="6.69759">
        <ele>365.2318632</ele>
        <time>2014-12-07T10:54:17Z</time>
      </trkpt>
      <trkpt lat="47.49834" lon="6.69763">
        <ele>365.3133728</ele>
        <time>2014-12-07T10:54:18Z</time>
      </trkpt>
      <trkpt lat="47.49836" lon="6.69767">
        <ele>365.4081968</ele>
        <time>2014-12-07T10:54:19Z</time>
      </trkpt>
      <trkpt lat="47.49838" lon="6.6977">
        <ele>365.50999328</ele>
        <time>2014-12-07T10:54:20Z</time>
      </trkpt>
      <trkpt lat="47.4984" lon="6.69774">
        <ele>365.61635168</ele>
        <time>2014-12-07T10:54:21Z</time>
      </trkpt>
      <trkpt lat="47.49843" lon="6.69777">
        <ele>365.727272</ele>
        <time>2014-12-07T10:54:22Z</time>
      </trkpt>
      <trkpt lat="47.49845" lon="6.69781">
        <ele>365.84186432</ele>
        <time>2014-12-07T10:54:23Z</time>
      </trkpt>
      <trkpt lat="47.49847" lon="6.69785">
        <ele>365.9627984</ele>
        <time>2014-12-07T10:54:24Z</time>
      </trkpt>
      <trkpt lat="47.49849" lon="6.69788">
        <ele>366.0856448</ele>
        <time>2014-12-07T10:54:25Z</time>
      </trkpt>
      <trkpt lat="47.49852" lon="6.69791">
        <ele>366.20847104</ele>
        <time>2014-12-07T10:54:26Z</time>
      </trkpt>
      <trkpt lat="47.49854" lon="6.69795">
        <ele>366.3358592</ele>
        <time>2014-12-07T10:54:27Z</time>
      </trkpt>
      <trkpt lat="47.49856" lon="6.69798">
        <ele>366.46336832</ele>
        <time>2014-12-07T10:54:28Z</time>
      </trkpt>
      <trkpt lat="47.49858" lon="6.69801">
        <ele>366.58281344</ele>
        <time>2014-12-07T10:54:29Z</time>
      </trkpt>
      <trkpt lat="47.4986" lon="6.69803">
        <ele>366.69786368</ele>
        <time>2014-12-07T10:54:30Z</time>
      </trkpt>
      <trkpt lat="47.49862" lon="6.69806">
        <ele>366.80633024</ele>
        <time>2014-12-07T10:54:31Z</time>
      </trkpt>
      <trkpt lat="47.49864" lon="6.69808">
        <ele>366.90419264</ele>
        <time>2014-12-07T10:54:32Z</time>
      </trkpt>
      <trkpt lat="47.49866" lon="6.69812">
        <ele>367.07821376001</ele>
        <time>2014-12-07T10:54:34Z</time>
      </trkpt>
      <trkpt lat="47.49867" lon="6.69814">
        <ele>367.16053568</ele>
        <time>2014-12-07T10:54:35Z</time>
      </trkpt>
      <trkpt lat="47.4987" lon="6.69818">
        <ele>367.35249056</ele>
        <time>2014-12-07T10:56:43Z</time>
      </trkpt>
      <trkpt lat="47.49872" lon="6.69819">
        <ele>367.44043712001</ele>
        <time>2014-12-07T10:56:44Z</time>
      </trkpt>
      <trkpt lat="47.49875" lon="6.69823">
        <ele>367.61</ele>
        <time>2014-12-07T10:56:46Z</time>
      </trkpt>
      <trkpt lat="47.49877" lon="6.69825">
        <ele>367.72427264</ele>
        <time>2014-12-07T10:56:47Z</time>
      </trkpt>
      <trkpt lat="47.49879" lon="6.69827">
        <ele>367.85553728001</ele>
        <time>2014-12-07T10:56:48Z</time>
      </trkpt>
      <trkpt lat="47.4988" lon="6.6983">
        <ele>367.9856384</ele>
        <time>2014-12-07T10:56:49Z</time>
      </trkpt>
      <trkpt lat="47.49882" lon="6.69832">
        <ele>368.13489152</ele>
        <time>2014-12-07T10:56:50Z</time>
      </trkpt>
      <trkpt lat="47.49884" lon="6.69836">
        <ele>368.26093039999</ele>
        <time>2014-12-07T10:56:51Z</time>
      </trkpt>
      <trkpt lat="47.49886" lon="6.69839">
        <ele>368.3876384</ele>
        <time>2014-12-07T10:56:52Z</time>
      </trkpt>
      <trkpt lat="47.49888" lon="6.69843">
        <ele>368.53700575999</ele>
        <time>2014-12-07T10:56:53Z</time>
      </trkpt>
      <trkpt lat="47.4989" lon="6.69847">
        <ele>368.68989056001</ele>
        <time>2014-12-07T10:56:54Z</time>
      </trkpt>
      <trkpt lat="47.49891" lon="6.69852">
        <ele>368.84862656</ele>
        <time>2014-12-07T10:56:55Z</time>
      </trkpt>
      <trkpt lat="47.49893" lon="6.69856">
        <ele>369.00930752</ele>
        <time>2014-12-07T10:56:56Z</time>
      </trkpt>
      <trkpt lat="47.49895" lon="6.69859">
        <ele>369.16470847999</ele>
        <time>2014-12-07T10:56:57Z</time>
      </trkpt>
      <trkpt lat="47.49897" lon="6.69863">
        <ele>369.33477824001</ele>
        <time>2014-12-07T10:56:58Z</time>
      </trkpt>
      <trkpt lat="47.49899" lon="6.69866">
        <ele>369.51697135999</ele>
        <time>2014-12-07T10:56:59Z</time>
      </trkpt>
      <trkpt lat="47.49902" lon="6.69869">
        <ele>369.70204927999</ele>
        <time>2014-12-07T10:57:00Z</time>
      </trkpt>
      <trkpt lat="47.4991" lon="6.6989">
        <ele>370.68093440001</ele>
        <time>2014-12-07T10:57:08Z</time>
      </trkpt>
      <trkpt lat="47.49911" lon="6.69893">
        <ele>370.86430927999</ele>
        <time>2014-12-07T10:57:10Z</time>
      </trkpt>
      <trkpt lat="47.49912" lon="6.69895">
        <ele>370.98202975999</ele>
        <time>2014-12-07T10:57:11Z</time>
      </trkpt>
      <trkpt lat="47.49914" lon="6.69901">
        <ele>371.26071919999</ele>
        <time>2014-12-07T10:57:13Z</time>
      </trkpt>
      <trkpt lat="47.49915" lon="6.69903">
        <ele>371.41757887999</ele>
        <time>2014-12-07T10:57:14Z</time>
      </trkpt>
      <trkpt lat="47.49916" lon="6.69906">
        <ele>371.58621440002</ele>
        <time>2014-12-07T10:57:15Z</time>
      </trkpt>
      <trkpt lat="47.49917" lon="6.69909">
        <ele>371.76053728</ele>
        <time>2014-12-07T10:57:16Z</time>
      </trkpt>
      <trkpt lat="47.49919" lon="6.69913">
        <ele>371.92915071999</ele>
        <time>2014-12-07T10:57:17Z</time>
      </trkpt>
      <trkpt lat="47.4992" lon="6.69916">
        <ele>372.09549424</ele>
        <time>2014-12-07T10:57:18Z</time>
      </trkpt>
      <trkpt lat="47.49923" lon="6.69921">
        <ele>372.18593024</ele>
        <time>2014-12-07T10:57:20Z</time>
      </trkpt>
      <trkpt lat="47.49924" lon="6.69923">
        <ele>372.20596544001</ele>
        <time>2014-12-07T10:57:21Z</time>
      </trkpt>
      <trkpt lat="47.49925" lon="6.69927">
        <ele>372.22295551999</ele>
        <time>2014-12-07T10:57:23Z</time>
      </trkpt>
      <trkpt lat="47.49926" lon="6.69929">
        <ele>372.22785151999</ele>
        <time>2014-12-07T10:57:24Z</time>
      </trkpt>
      <trkpt lat="47.49927" lon="6.69934">
        <ele>372.25220048001</ele>
        <time>2014-12-07T10:57:26Z</time>
      </trkpt>
      <trkpt lat="47.49928" lon="6.69937">
        <ele>372.27531584</ele>
        <time>2014-12-07T10:57:27Z</time>
      </trkpt>
      <trkpt lat="47.4993" lon="6.69942">
        <ele>372.32503999999</ele>
        <time>2014-12-07T10:57:29Z</time>
      </trkpt>
      <trkpt lat="47.49931" lon="6.69944">
        <ele>372.35782880001</ele>
        <time>2014-12-07T10:57:30Z</time>
      </trkpt>
      <trkpt lat="47.49933" lon="6.69948">
        <ele>372.4316048</ele>
        <time>2014-12-07T10:57:32Z</time>
      </trkpt>
      <trkpt lat="47.49934" lon="6.69951">
        <ele>372.47134399998</ele>
        <time>2014-12-07T10:57:33Z</time>
      </trkpt>
      <trkpt lat="47.49936" lon="6.69955">
        <ele>372.56069504</ele>
        <time>2014-12-07T10:57:35Z</time>
      </trkpt>
      <trkpt lat="47.49937" lon="6.69958">
        <ele>372.60067999999</ele>
        <time>2014-12-07T10:57:36Z</time>
      </trkpt>
      <trkpt lat="47.49939" lon="6.69963">
        <ele>372.67896367999</ele>
        <time>2014-12-07T10:57:38Z</time>
      </trkpt>
      <trkpt lat="47.4994" lon="6.69965">
        <ele>372.7181192</ele>
        <time>2014-12-07T10:57:39Z</time>
      </trkpt>
      <trkpt lat="47.49941" lon="6.69971">
        <ele>372.81894080001</ele>
        <time>2014-12-07T10:57:41Z</time>
      </trkpt>
      <trkpt lat="47.49942" lon="6.69974">
        <ele>372.87585151999</ele>
        <time>2014-12-07T10:57:42Z</time>
      </trkpt>
      <trkpt lat="47.49944" lon="6.6998">
        <ele>372.99087296</ele>
        <time>2014-12-07T10:57:44Z</time>
      </trkpt>
      <trkpt lat="47.49945" lon="6.69982">
        <ele>373.05502112002</ele>
        <time>2014-12-07T10:57:45Z</time>
      </trkpt>
      <trkpt lat="47.49947" lon="6.69987">
        <ele>373.19632928</ele>
        <time>2014-12-07T10:57:47Z</time>
      </trkpt>
      <trkpt lat="47.49949" lon="6.6999">
        <ele>373.28709680001</ele>
        <time>2014-12-07T10:57:48Z</time>
      </trkpt>
      <trkpt lat="47.49951" lon="6.69995">
        <ele>373.45642400001</ele>
        <time>2014-12-07T10:57:50Z</time>
      </trkpt>
      <trkpt lat="47.49952" lon="6.69997">
        <ele>373.54227056001</ele>
        <time>2014-12-07T10:57:51Z</time>
      </trkpt>
      <trkpt lat="47.49953" lon="6.7">
        <ele>373.61839999998</ele>
        <time>2014-12-07T10:57:52Z</time>
      </trkpt>
      <trkpt lat="47.49954" lon="6.70004">
        <ele>373.65200000001</ele>
        <time>2014-12-07T10:57:53Z</time>
      </trkpt>
      <trkpt lat="47.49955" lon="6.70007">
        <ele>373.68679999998</ele>
        <time>2014-12-07T10:57:54Z</time>
      </trkpt>
      <trkpt lat="47.49956" lon="6.7001">
        <ele>373.724</ele>
        <time>2014-12-07T10:57:55Z</time>
      </trkpt>
      <trkpt lat="47.49957" lon="6.70013">
        <ele>373.75880000002</ele>
        <time>2014-12-07T10:57:56Z</time>
      </trkpt>
      <trkpt lat="47.49958" lon="6.70016">
        <ele>373.80680000001</ele>
        <time>2014-12-07T10:57:57Z</time>
      </trkpt>
      <trkpt lat="47.4996" lon="6.70019">
        <ele>373.8584</ele>
        <time>2014-12-07T10:57:58Z</time>
      </trkpt>
      <trkpt lat="47.49961" lon="6.70022">
        <ele>373.922</ele>
        <time>2014-12-07T10:57:59Z</time>
      </trkpt>
      <trkpt lat="47.49962" lon="6.70025">
        <ele>373.97720000002</ele>
        <time>2014-12-07T10:58:00Z</time>
      </trkpt>
      <trkpt lat="47.49966" lon="6.70035">
        <ele>374.13799999999</ele>
        <time>2014-12-07T10:58:03Z</time>
      </trkpt>
      <trkpt lat="47.49968" lon="6.70037">
        <ele>374.21960000001</ele>
        <time>2014-12-07T10:58:04Z</time>
      </trkpt>
      <trkpt lat="47.49969" lon="6.7004">
        <ele>374.30120000002</ele>
        <time>2014-12-07T10:58:05Z</time>
      </trkpt>
      <trkpt lat="47.49971" lon="6.70043">
        <ele>374.40799999998</ele>
        <time>2014-12-07T10:58:06Z</time>
      </trkpt>
      <trkpt lat="47.49973" lon="6.70044">
        <ele>374.53039999998</ele>
        <time>2014-12-07T10:58:07Z</time>
      </trkpt>
      <trkpt lat="47.49975" lon="6.70046">
        <ele>374.67079999999</ele>
        <time>2014-12-07T10:58:08Z</time>
      </trkpt>
      <trkpt lat="47.49978" lon="6.70047">
        <ele>374.82439999998</ele>
        <time>2014-12-07T10:58:09Z</time>
      </trkpt>
      <trkpt lat="47.4998" lon="6.70048">
        <ele>374.99359999998</ele>
        <time>2014-12-07T10:58:10Z</time>
      </trkpt>
      <trkpt lat="47.49982" lon="6.70049">
        <ele>375.14839999998</ele>
        <time>2014-12-07T10:58:11Z</time>
      </trkpt>
      <trkpt lat="47.49985" lon="6.7005">
        <ele>375.30320000002</ele>
        <time>2014-12-07T10:58:12Z</time>
      </trkpt>
      <trkpt lat="47.49987" lon="6.70051">
        <ele>375.46279999999</ele>
        <time>2014-12-07T10:58:13Z</time>
      </trkpt>
      <trkpt lat="47.49989" lon="6.70052">
        <ele>375.6092</ele>
        <time>2014-12-07T10:58:14Z</time>
      </trkpt>
      <trkpt lat="47.49991" lon="6.70052">
        <ele>375.75199999998</ele>
        <time>2014-12-07T10:58:15Z</time>
      </trkpt>
      <trkpt lat="47.49995" lon="6.70054">
        <ele>375.97279999999</ele>
        <time>2014-12-07T10:58:17Z</time>
      </trkpt>
      <trkpt lat="47.49997" lon="6.70054">
        <ele>376.12160000002</ele>
        <time>2014-12-07T10:58:18Z</time>
      </trkpt>
      <trkpt lat="47.49999" lon="6.70054">
        <ele>376.28239999998</ele>
        <time>2014-12-07T10:58:19Z</time>
      </trkpt>
      <trkpt lat="47.50001" lon="6.70054">
        <ele>376.41038480001</ele>
        <time>2014-12-07T10:58:20Z</time>
      </trkpt>
      <trkpt lat="47.50004" lon="6.70053">
        <ele>376.5214352</ele>
        <time>2014-12-07T10:58:21Z</time>
      </trkpt>
      <trkpt lat="47.50006" lon="6.70053">
        <ele>376.62493952001</ele>
        <time>2014-12-07T10:58:22Z</time>
      </trkpt>
      <trkpt lat="47.50009" lon="6.70053">
        <ele>376.72593152001</ele>
        <time>2014-12-07T10:58:23Z</time>
      </trkpt>
      <trkpt lat="47.50011" lon="6.70053">
        <ele>376.82288384</ele>
        <time>2014-12-07T10:58:24Z</time>
      </trkpt>
      <trkpt lat="47.50015" lon="6.70053">
        <ele>376.98140192001</ele>
        <time>2014-12-07T10:58:26Z</time>
      </trkpt>
      <trkpt lat="47.50017" lon="6.70054">
        <ele>377.04964352</ele>
        <time>2014-12-07T10:58:27Z</time>
      </trkpt>
      <trkpt lat="47.5002" lon="6.70054">
        <ele>377.16556256</ele>
        <time>2014-12-07T10:58:29Z</time>
      </trkpt>
      <trkpt lat="47.50022" lon="6.70055">
        <ele>377.22078272001</ele>
        <time>2014-12-07T10:58:30Z</time>
      </trkpt>
      <trkpt lat="47.50026" lon="6.70055">
        <ele>377.38136048001</ele>
        <time>2014-12-07T10:58:32Z</time>
      </trkpt>
      <trkpt lat="47.50028" lon="6.70056">
        <ele>377.46301136001</ele>
        <time>2014-12-07T10:58:33Z</time>
      </trkpt>
      <trkpt lat="47.50032" lon="6.70058">
        <ele>377.58796064001</ele>
        <time>2014-12-07T10:58:35Z</time>
      </trkpt>
      <trkpt lat="47.50034" lon="6.70059">
        <ele>377.65263295999</ele>
        <time>2014-12-07T10:58:36Z</time>
      </trkpt>
      <trkpt lat="47.50037" lon="6.7006">
        <ele>377.72624047999</ele>
        <time>2014-12-07T10:58:37Z</time>
      </trkpt>
      <trkpt lat="47.50039" lon="6.7006">
        <ele>377.81978432001</ele>
        <time>2014-12-07T10:58:38Z</time>
      </trkpt>
      <trkpt lat="47.50042" lon="6.70061">
        <ele>377.91836384</ele>
        <time>2014-12-07T10:58:39Z</time>
      </trkpt>
      <trkpt lat="47.50045" lon="6.70061">
        <ele>378.0204752</ele>
        <time>2014-12-07T10:58:40Z</time>
      </trkpt>
      <trkpt lat="47.50047" lon="6.70061">
        <ele>378.12070831999</ele>
        <time>2014-12-07T10:58:41Z</time>
      </trkpt>
      <trkpt lat="47.5005" lon="6.70061">
        <ele>378.22278224001</ele>
        <time>2014-12-07T10:58:42Z</time>
      </trkpt>
      <trkpt lat="47.50052" lon="6.70061">
        <ele>378.31895456</ele>
        <time>2014-12-07T10:58:43Z</time>
      </trkpt>
      <trkpt lat="47.50055" lon="6.70061">
        <ele>378.41519600001</ele>
        <time>2014-12-07T10:58:44Z</time>
      </trkpt>
      <trkpt lat="47.50057" lon="6.7006">
        <ele>378.51554528</ele>
        <time>2014-12-07T10:58:45Z</time>
      </trkpt>
      <trkpt lat="47.50059" lon="6.7006">
        <ele>378.61404800001</ele>
        <time>2014-12-07T10:58:46Z</time>
      </trkpt>
      <trkpt lat="47.50062" lon="6.7006">
        <ele>378.71268895999</ele>
        <time>2014-12-07T10:58:47Z</time>
      </trkpt>
      <trkpt lat="47.50064" lon="6.7006">
        <ele>378.80903648</ele>
        <time>2014-12-07T10:58:48Z</time>
      </trkpt>
      <trkpt lat="47.50067" lon="6.7006">
        <ele>378.89489888001</ele>
        <time>2014-12-07T10:58:49Z</time>
      </trkpt>
      <trkpt lat="47.50069" lon="6.70061">
        <ele>378.98441072001</ele>
        <time>2014-12-07T10:58:50Z</time>
      </trkpt>
      <trkpt lat="47.50072" lon="6.70061">
        <ele>379.0697144</ele>
        <time>2014-12-07T10:58:51Z</time>
      </trkpt>
      <trkpt lat="47.50074" lon="6.70062">
        <ele>379.1563904</ele>
        <time>2014-12-07T10:58:52Z</time>
      </trkpt>
      <trkpt lat="47.50076" lon="6.70062">
        <ele>379.23420031999</ele>
        <time>2014-12-07T10:58:53Z</time>
      </trkpt>
      <trkpt lat="47.50079" lon="6.70063">
        <ele>379.31619584</ele>
        <time>2014-12-07T10:58:54Z</time>
      </trkpt>
      <trkpt lat="47.50081" lon="6.70063">
        <ele>379.40562271999</ele>
        <time>2014-12-07T10:58:55Z</time>
      </trkpt>
      <trkpt lat="47.50084" lon="6.70063">
        <ele>379.4844864</ele>
        <time>2014-12-07T10:58:56Z</time>
      </trkpt>
      <trkpt lat="47.50087" lon="6.70063">
        <ele>379.51148784</ele>
        <time>2014-12-07T10:58:57Z</time>
      </trkpt>
      <trkpt lat="47.50089" lon="6.70063">
        <ele>379.5430368</ele>
        <time>2014-12-07T10:58:58Z</time>
      </trkpt>
      <trkpt lat="47.50092" lon="6.70063">
        <ele>379.57615824</ele>
        <time>2014-12-07T10:58:59Z</time>
      </trkpt>
      <trkpt lat="47.50095" lon="6.70063">
        <ele>379.6068</ele>
        <time>2014-12-07T10:59:00Z</time>
      </trkpt>
      <trkpt lat="47.50117" lon="6.70063">
        <ele>379.79232384</ele>
        <time>2014-12-07T10:59:08Z</time>
      </trkpt>
      <trkpt lat="47.5012" lon="6.70063">
        <ele>379.81775856</ele>
        <time>2014-12-07T10:59:09Z</time>
      </trkpt>
      <trkpt lat="47.50123" lon="6.70063">
        <ele>379.84601568</ele>
        <time>2014-12-07T10:59:10Z</time>
      </trkpt>
      <trkpt lat="47.50127" lon="6.70063">
        <ele>379.87787136</ele>
        <time>2014-12-07T10:59:11Z</time>
      </trkpt>
      <trkpt lat="47.5013" lon="6.70063">
        <ele>379.91662464</ele>
        <time>2014-12-07T10:59:12Z</time>
      </trkpt>
      <trkpt lat="47.50134" lon="6.70062">
        <ele>379.9593408</ele>
        <time>2014-12-07T10:59:13Z</time>
      </trkpt>
      <trkpt lat="47.50138" lon="6.70062">
        <ele>379.9982784</ele>
        <time>2014-12-07T10:59:14Z</time>
      </trkpt>
      <trkpt lat="47.50142" lon="6.70062">
        <ele>380.03376576</ele>
        <time>2014-12-07T10:59:15Z</time>
      </trkpt>
      <trkpt lat="47.50145" lon="6.70062">
        <ele>380.06071536</ele>
        <time>2014-12-07T10:59:16Z</time>
      </trkpt>
      <trkpt lat="47.50149" lon="6.70063">
        <ele>380.08573248</ele>
        <time>2014-12-07T10:59:17Z</time>
      </trkpt>
      <trkpt lat="47.50153" lon="6.70064">
        <ele>380.10797184</ele>
        <time>2014-12-07T10:59:18Z</time>
      </trkpt>
      <trkpt lat="47.50156" lon="6.70064">
        <ele>380.13199104</ele>
        <time>2014-12-07T10:59:18Z</time>
      </trkpt>
      <trkpt lat="47.5016" lon="6.70065">
        <ele>380.16392448</ele>
        <time>2014-12-07T10:59:20Z</time>
      </trkpt>
      <trkpt lat="47.50164" lon="6.70065">
        <ele>380.196912</ele>
        <time>2014-12-07T10:59:21Z</time>
      </trkpt>
      <trkpt lat="47.50168" lon="6.70065">
        <ele>380.252</ele>
        <time>2014-12-07T10:59:22Z</time>
      </trkpt>
      <trkpt lat="47.50172" lon="6.70065">
        <ele>380.34199999999</ele>
        <time>2014-12-07T10:59:23Z</time>
      </trkpt>
      <trkpt lat="47.50176" lon="6.70065">
        <ele>380.43799999999</ele>
        <time>2014-12-07T10:59:24Z</time>
      </trkpt>
      <trkpt lat="47.5018" lon="6.70065">
        <ele>380.5328</ele>
        <time>2014-12-07T10:59:25Z</time>
      </trkpt>
      <trkpt lat="47.50184" lon="6.70064">
        <ele>380.63479999999</ele>
        <time>2014-12-07T10:59:26Z</time>
      </trkpt>
      <trkpt lat="47.50188" lon="6.70064">
        <ele>380.7416</ele>
        <time>2014-12-07T10:59:27Z</time>
      </trkpt>
      <trkpt lat="47.50192" lon="6.70063">
        <ele>380.84840000001</ele>
        <time>2014-12-07T10:59:28Z</time>
      </trkpt>
      <trkpt lat="47.50196" lon="6.70062">
        <ele>380.9504</ele>
        <time>2014-12-07T10:59:29Z</time>
      </trkpt>
      <trkpt lat="47.502" lon="6.70062">
        <ele>381.05</ele>
        <time>2014-12-07T10:59:30Z</time>
      </trkpt>
      <trkpt lat="47.50204" lon="6.70062">
        <ele>381.1472</ele>
        <time>2014-12-07T10:59:31Z</time>
      </trkpt>
      <trkpt lat="47.50208" lon="6.70062">
        <ele>381.24200000001</ele>
        <time>2014-12-07T10:59:32Z</time>
      </trkpt>
      <trkpt lat="47.50211" lon="6.70062">
        <ele>381.3356</ele>
        <time>2014-12-07T10:59:33Z</time>
      </trkpt>
      <trkpt lat="47.50215" lon="6.70062">
        <ele>381.42439999999</ele>
        <time>2014-12-07T10:59:34Z</time>
      </trkpt>
      <trkpt lat="47.50219" lon="6.70061">
        <ele>381.50719999999</ele>
        <time>2014-12-07T10:59:35Z</time>
      </trkpt>
      <trkpt lat="47.50222" lon="6.70061">
        <ele>381.5864</ele>
        <time>2014-12-07T10:59:36Z</time>
      </trkpt>
      <trkpt lat="47.50224" lon="6.70062">
        <ele>381.64759999999</ele>
        <time>2014-12-07T10:59:37Z</time>
      </trkpt>
      <trkpt lat="47.50227" lon="6.70062">
        <ele>381.69560000001</ele>
        <time>2014-12-07T10:59:38Z</time>
      </trkpt>
      <trkpt lat="47.50224" lon="6.70065">
        <ele>381.59359999999</ele>
        <time>2014-12-07T10:59:57Z</time>
      </trkpt>
      <trkpt lat="47.50223" lon="6.70067">
        <ele>381.5564</ele>
        <time>2014-12-07T10:59:58Z</time>
      </trkpt>
      <trkpt lat="47.50221" lon="6.7007">
        <ele>381.4592</ele>
        <time>2014-12-07T11:00:00Z</time>
      </trkpt>
      <trkpt lat="47.50206" lon="6.70099">
        <ele>380.48832191999</ele>
        <time>2014-12-07T11:00:08Z</time>
      </trkpt>
      <trkpt lat="47.50204" lon="6.70103">
        <ele>380.29449216</ele>
        <time>2014-12-07T11:00:09Z</time>
      </trkpt>
      <trkpt lat="47.50199" lon="6.70109">
        <ele>379.9621008</ele>
        <time>2014-12-07T11:00:10Z</time>
      </trkpt>
      <trkpt lat="47.50197" lon="6.70113">
        <ele>379.77193728001</ele>
        <time>2014-12-07T11:00:11Z</time>
      </trkpt>
      <trkpt lat="47.50193" lon="6.70117">
        <ele>379.56275136</ele>
        <time>2014-12-07T11:00:12Z</time>
      </trkpt>
      <trkpt lat="47.50189" lon="6.70121">
        <ele>379.31323728001</ele>
        <time>2014-12-07T11:00:13Z</time>
      </trkpt>
      <trkpt lat="47.50186" lon="6.70125">
        <ele>379.05769632</ele>
        <time>2014-12-07T11:00:14Z</time>
      </trkpt>
      <trkpt lat="47.50182" lon="6.7013">
        <ele>378.78428160001</ele>
        <time>2014-12-07T11:00:15Z</time>
      </trkpt>
      <trkpt lat="47.50178" lon="6.70134">
        <ele>378.52412016</ele>
        <time>2014-12-07T11:00:16Z</time>
      </trkpt>
      <trkpt lat="47.50175" lon="6.70137">
        <ele>378.31970879999</ele>
        <time>2014-12-07T11:00:17Z</time>
      </trkpt>
      <trkpt lat="47.50171" lon="6.7014">
        <ele>378.10162848</ele>
        <time>2014-12-07T11:00:18Z</time>
      </trkpt>
      <trkpt lat="47.50166" lon="6.70146">
        <ele>377.72518975999</ele>
        <time>2014-12-07T11:00:19Z</time>
      </trkpt>
      <trkpt lat="47.50162" lon="6.7015">
        <ele>377.50525184</ele>
        <time>2014-12-07T11:00:20Z</time>
      </trkpt>
      <trkpt lat="47.50157" lon="6.70154">
        <ele>377.24842304</ele>
        <time>2014-12-07T11:00:21Z</time>
      </trkpt>
      <trkpt lat="47.50153" lon="6.70158">
        <ele>376.97674495999</ele>
        <time>2014-12-07T11:00:22Z</time>
      </trkpt>
      <trkpt lat="47.50148" lon="6.70164">
        <ele>376.64959615999</ele>
        <time>2014-12-07T11:00:23Z</time>
      </trkpt>
      <trkpt lat="47.50143" lon="6.7017">
        <ele>376.33021920001</ele>
        <time>2014-12-07T11:00:24Z</time>
      </trkpt>
      <trkpt lat="47.50138" lon="6.70175">
        <ele>376.04366543999</ele>
        <time>2014-12-07T11:00:25Z</time>
      </trkpt>
      <trkpt lat="47.50135" lon="6.70182">
        <ele>375.7492032</ele>
        <time>2014-12-07T11:00:26Z</time>
      </trkpt>
      <trkpt lat="47.50129" lon="6.70192">
        <ele>375.32648400001</ele>
        <time>2014-12-07T11:00:27Z</time>
      </trkpt>
      <trkpt lat="47.50122" lon="6.702">
        <ele>374.9591112</ele>
        <time>2014-12-07T11:00:28Z</time>
      </trkpt>
      <trkpt lat="47.50116" lon="6.70208">
        <ele>374.59362912001</ele>
        <time>2014-12-07T11:00:29Z</time>
      </trkpt>
      <trkpt lat="47.50109" lon="6.70216">
        <ele>374.2652088</ele>
        <time>2014-12-07T11:00:30Z</time>
      </trkpt>
      <trkpt lat="47.50102" lon="6.70222">
        <ele>373.96539168</ele>
        <time>2014-12-07T11:00:31Z</time>
      </trkpt>
      <trkpt lat="47.50094" lon="6.70229">
        <ele>373.664256</ele>
        <time>2014-12-07T11:00:32Z</time>
      </trkpt>
      <trkpt lat="47.50087" lon="6.70234">
        <ele>373.42338528</ele>
        <time>2014-12-07T11:00:33Z</time>
      </trkpt>
      <trkpt lat="47.50079" lon="6.70241">
        <ele>373.21946368</ele>
        <time>2014-12-07T11:00:34Z</time>
      </trkpt>
      <trkpt lat="47.50071" lon="6.70247">
        <ele>373.06218688</ele>
        <time>2014-12-07T11:00:35Z</time>
      </trkpt>
      <trkpt lat="47.50064" lon="6.70253">
        <ele>373</ele>
        <time>2014-12-07T11:00:36Z</time>
      </trkpt>
      <trkpt lat="47.50058" lon="6.70258">
        <ele>373</ele>
        <time>2014-12-07T11:00:37Z</time>
      </trkpt>
      <trkpt lat="47.50052" lon="6.70265">
        <ele>373</ele>
        <time>2014-12-07T11:00:38Z</time>
      </trkpt>
      <trkpt lat="47.50047" lon="6.70272">
        <ele>373</ele>
        <time>2014-12-07T11:00:39Z</time>
      </trkpt>
      <trkpt lat="47.50043" lon="6.7028">
        <ele>373</ele>
        <time>2014-12-07T11:00:40Z</time>
      </trkpt>
      <trkpt lat="47.50039" lon="6.70288">
        <ele>373</ele>
        <time>2014-12-07T11:00:41Z</time>
      </trkpt>
      <trkpt lat="47.50035" lon="6.70297">
        <ele>373</ele>
        <time>2014-12-07T11:00:42Z</time>
      </trkpt>
      <trkpt lat="47.5003" lon="6.70307">
        <ele>373</ele>
        <time>2014-12-07T11:00:43Z</time>
      </trkpt>
      <trkpt lat="47.50025" lon="6.70315">
        <ele>373</ele>
        <time>2014-12-07T11:00:44Z</time>
      </trkpt>
      <trkpt lat="47.50021" lon="6.70324">
        <ele>373</ele>
        <time>2014-12-07T11:00:45Z</time>
      </trkpt>
      <trkpt lat="47.50016" lon="6.70332">
        <ele>373</ele>
        <time>2014-12-07T11:00:46Z</time>
      </trkpt>
      <trkpt lat="47.50011" lon="6.7034">
        <ele>373.0930032</ele>
        <time>2014-12-07T11:00:47Z</time>
      </trkpt>
      <trkpt lat="47.50006" lon="6.70348">
        <ele>373.19763936</ele>
        <time>2014-12-07T11:00:48Z</time>
      </trkpt>
      <trkpt lat="47.50001" lon="6.70356">
        <ele>373.2717456</ele>
        <time>2014-12-07T11:00:49Z</time>
      </trkpt>
      <trkpt lat="47.49995" lon="6.70364">
        <ele>373.4184</ele>
        <time>2014-12-07T11:00:50Z</time>
      </trkpt>
      <trkpt lat="47.4999" lon="6.7037">
        <ele>373.5636</ele>
        <time>2014-12-07T11:00:51Z</time>
      </trkpt>
      <trkpt lat="47.49984" lon="6.70377">
        <ele>373.7112</ele>
        <time>2014-12-07T11:00:52Z</time>
      </trkpt>
      <trkpt lat="47.49979" lon="6.70384">
        <ele>373.8624</ele>
        <time>2014-12-07T11:00:53Z</time>
      </trkpt>
      <trkpt lat="47.49973" lon="6.7039">
        <ele>373.9992</ele>
        <time>2014-12-07T11:00:54Z</time>
      </trkpt>
      <trkpt lat="47.49968" lon="6.70396">
        <ele>374.142</ele>
        <time>2014-12-07T11:00:55Z</time>
      </trkpt>
      <trkpt lat="47.49963" lon="6.70402">
        <ele>374.2668</ele>
        <time>2014-12-07T11:00:56Z</time>
      </trkpt>
      <trkpt lat="47.49959" lon="6.70409">
        <ele>374.4024</ele>
        <time>2014-12-07T11:00:57Z</time>
      </trkpt>
      <trkpt lat="47.49953" lon="6.70415">
        <ele>374.538</ele>
        <time>2014-12-07T11:00:58Z</time>
      </trkpt>
      <trkpt lat="47.49948" lon="6.70421">
        <ele>374.66352256</ele>
        <time>2014-12-07T11:00:59Z</time>
      </trkpt>
      <trkpt lat="47.49912" lon="6.70474">
        <ele>374.85359359999</ele>
        <time>2014-12-07T11:01:08Z</time>
      </trkpt>
      <trkpt lat="47.49908" lon="6.70479">
        <ele>374.74332895999</ele>
        <time>2014-12-07T11:01:09Z</time>
      </trkpt>
      <trkpt lat="47.49905" lon="6.70486">
        <ele>374.66667008001</ele>
        <time>2014-12-07T11:01:10Z</time>
      </trkpt>
      <trkpt lat="47.49903" lon="6.70495">
        <ele>374.65918207999</ele>
        <time>2014-12-07T11:01:11Z</time>
      </trkpt>
      <trkpt lat="47.49902" lon="6.70504">
        <ele>374.6850584</ele>
        <time>2014-12-07T11:01:12Z</time>
      </trkpt>
      <trkpt lat="47.49902" lon="6.70513">
        <ele>374.7616448</ele>
        <time>2014-12-07T11:01:13Z</time>
      </trkpt>
      <trkpt lat="47.49902" lon="6.70522">
        <ele>374.87540864</ele>
        <time>2014-12-07T11:01:14Z</time>
      </trkpt>
      <trkpt lat="47.49902" lon="6.7053">
        <ele>374.94549152</ele>
        <time>2014-12-07T11:01:15Z</time>
      </trkpt>
      <trkpt lat="47.49902" lon="6.70537">
        <ele>375.01094816</ele>
        <time>2014-12-07T11:01:16Z</time>
      </trkpt>
      <trkpt lat="47.49902" lon="6.70545">
        <ele>375.07781887999</ele>
        <time>2014-12-07T11:01:17Z</time>
      </trkpt>
      <trkpt lat="47.49901" lon="6.70553">
        <ele>375.15187903999</ele>
        <time>2014-12-07T11:01:18Z</time>
      </trkpt>
      <trkpt lat="47.49901" lon="6.70561">
        <ele>375.21182720001</ele>
        <time>2014-12-07T11:01:19Z</time>
      </trkpt>
      <trkpt lat="47.499" lon="6.7057">
        <ele>375.27836672001</ele>
        <time>2014-12-07T11:01:20Z</time>
      </trkpt>
      <trkpt lat="47.499" lon="6.70577">
        <ele>375.35006911999</ele>
        <time>2014-12-07T11:01:21Z</time>
      </trkpt>
      <trkpt lat="47.499" lon="6.70586">
        <ele>375.4191064</ele>
        <time>2014-12-07T11:01:22Z</time>
      </trkpt>
      <trkpt lat="47.49901" lon="6.70595">
        <ele>375.50945344001</ele>
        <time>2014-12-07T11:01:23Z</time>
      </trkpt>
      <trkpt lat="47.49901" lon="6.70604">
        <ele>375.57248368</ele>
        <time>2014-12-07T11:01:24Z</time>
      </trkpt>
      <trkpt lat="47.49901" lon="6.70613">
        <ele>375.63189808</ele>
        <time>2014-12-07T11:01:25Z</time>
      </trkpt>
      <trkpt lat="47.499" lon="6.70622">
        <ele>375.6841888</ele>
        <time>2014-12-07T11:01:26Z</time>
      </trkpt>
      <trkpt lat="47.49901" lon="6.70632">
        <ele>375.76418368</ele>
        <time>2014-12-07T11:01:27Z</time>
      </trkpt>
      <trkpt lat="47.49902" lon="6.70641">
        <ele>375.8354752</ele>
        <time>2014-12-07T11:01:28Z</time>
      </trkpt>
      <trkpt lat="47.49903" lon="6.7065">
        <ele>375.89944</ele>
        <time>2014-12-07T11:01:29Z</time>
      </trkpt>
      <trkpt lat="47.49903" lon="6.70659">
        <ele>375.95434144</ele>
        <time>2014-12-07T11:01:30Z</time>
      </trkpt>
      <trkpt lat="47.49904" lon="6.70667">
        <ele>376.00095744</ele>
        <time>2014-12-07T11:01:31Z</time>
      </trkpt>
      <trkpt lat="47.49905" lon="6.70676">
        <ele>376.01526528</ele>
        <time>2014-12-07T11:01:32Z</time>
      </trkpt>
      <trkpt lat="47.49905" lon="6.70685">
        <ele>376.0307304</ele>
        <time>2014-12-07T11:01:33Z</time>
      </trkpt>
      <trkpt lat="47.49905" lon="6.70693">
        <ele>376.04369424</ele>
        <time>2014-12-07T11:01:34Z</time>
      </trkpt>
      <trkpt lat="47.49906" lon="6.70702">
        <ele>376.0550088</ele>
        <time>2014-12-07T11:01:35Z</time>
      </trkpt>
      <trkpt lat="47.49906" lon="6.70709">
        <ele>376.06655616</ele>
        <time>2014-12-07T11:01:36Z</time>
      </trkpt>
      <trkpt lat="47.49907" lon="6.70718">
        <ele>376.0752984</ele>
        <time>2014-12-07T11:01:37Z</time>
      </trkpt>
      <trkpt lat="47.49907" lon="6.70727">
        <ele>376.08687936</ele>
        <time>2014-12-07T11:01:38Z</time>
      </trkpt>
      <trkpt lat="47.49907" lon="6.70736">
        <ele>376.09779168</ele>
        <time>2014-12-07T11:01:39Z</time>
      </trkpt>
      <trkpt lat="47.49908" lon="6.70745">
        <ele>376.102272</ele>
        <time>2014-12-07T11:01:40Z</time>
      </trkpt>
      <trkpt lat="47.49908" lon="6.70754">
        <ele>376.0524</ele>
        <time>2014-12-07T11:01:41Z</time>
      </trkpt>
      <trkpt lat="47.49909" lon="6.70763">
        <ele>375.9408</ele>
        <time>2014-12-07T11:01:42Z</time>
      </trkpt>
      <trkpt lat="47.49909" lon="6.70771">
        <ele>375.8328</ele>
        <time>2014-12-07T11:01:43Z</time>
      </trkpt>
      <trkpt lat="47.4991" lon="6.7078">
        <ele>375.7224</ele>
        <time>2014-12-07T11:01:44Z</time>
      </trkpt>
      <trkpt lat="47.49909" lon="6.70789">
        <ele>375.6192</ele>
        <time>2014-12-07T11:01:45Z</time>
      </trkpt>
      <trkpt lat="47.49909" lon="6.70798">
        <ele>375.5136</ele>
        <time>2014-12-07T11:01:46Z</time>
      </trkpt>
      <trkpt lat="47.49908" lon="6.70807">
        <ele>375.4224</ele>
        <time>2014-12-07T11:01:47Z</time>
      </trkpt>
      <trkpt lat="47.49908" lon="6.70816">
        <ele>375.3192</ele>
        <time>2014-12-07T11:01:48Z</time>
      </trkpt>
      <trkpt lat="47.49907" lon="6.70824">
        <ele>375.2304</ele>
        <time>2014-12-07T11:01:49Z</time>
      </trkpt>
      <trkpt lat="47.49906" lon="6.70833">
        <ele>375.138</ele>
        <time>2014-12-07T11:01:50Z</time>
      </trkpt>
      <trkpt lat="47.49905" lon="6.70841">
        <ele>374.964416</ele>
        <time>2014-12-07T11:01:51Z</time>
      </trkpt>
      <trkpt lat="47.49904" lon="6.70849">
        <ele>374.79935312</ele>
        <time>2014-12-07T11:01:52Z</time>
      </trkpt>
      <trkpt lat="47.49903" lon="6.70858">
        <ele>374.60860928</ele>
        <time>2014-12-07T11:01:53Z</time>
      </trkpt>
      <trkpt lat="47.49903" lon="6.70867">
        <ele>374.42614256</ele>
        <time>2014-12-07T11:01:54Z</time>
      </trkpt>
      <trkpt lat="47.49902" lon="6.70876">
        <ele>374.24324816</ele>
        <time>2014-12-07T11:01:55Z</time>
      </trkpt>
      <trkpt lat="47.49902" lon="6.70885">
        <ele>374.04658304</ele>
        <time>2014-12-07T11:01:56Z</time>
      </trkpt>
      <trkpt lat="47.49902" lon="6.70895">
        <ele>373.84332416001</ele>
        <time>2014-12-07T11:01:57Z</time>
      </trkpt>
      <trkpt lat="47.499" lon="6.70904">
        <ele>373.67600768</ele>
        <time>2014-12-07T11:01:58Z</time>
      </trkpt>
      <trkpt lat="47.49898" lon="6.70915">
        <ele>373.501772</ele>
        <time>2014-12-07T11:01:59Z</time>
      </trkpt>
      <trkpt lat="47.49896" lon="6.70925">
        <ele>373.32542096</ele>
        <time>2014-12-07T11:02:00Z</time>
      </trkpt>
      <trkpt lat="47.49889" lon="6.71023">
        <ele>371.62460768</ele>
        <time>2014-12-07T11:02:08Z</time>
      </trkpt>
      <trkpt lat="47.49889" lon="6.71034">
        <ele>371.46029216001</ele>
        <time>2014-12-07T11:02:09Z</time>
      </trkpt>
      <trkpt lat="47.49888" lon="6.71045">
        <ele>371.30235008002</ele>
        <time>2014-12-07T11:02:10Z</time>
      </trkpt>
      <trkpt lat="47.49889" lon="6.71057">
        <ele>371.07372224</ele>
        <time>2014-12-07T11:02:11Z</time>
      </trkpt>
      <trkpt lat="47.4989" lon="6.71069">
        <ele>370.81947007999</ele>
        <time>2014-12-07T11:02:12Z</time>
      </trkpt>
      <trkpt lat="47.49891" lon="6.71081">
        <ele>370.58994175998</ele>
        <time>2014-12-07T11:02:13Z</time>
      </trkpt>
      <trkpt lat="47.49892" lon="6.71095">
        <ele>370.39630175998</ele>
        <time>2014-12-07T11:02:14Z</time>
      </trkpt>
      <trkpt lat="47.49893" lon="6.71107">
        <ele>370.23482351999</ele>
        <time>2014-12-07T11:02:15Z</time>
      </trkpt>
      <trkpt lat="47.49893" lon="6.7112">
        <ele>370.09621439998</ele>
        <time>2014-12-07T11:02:16Z</time>
      </trkpt>
      <trkpt lat="47.49894" lon="6.71132">
        <ele>369.95668896001</ele>
        <time>2014-12-07T11:02:17Z</time>
      </trkpt>
      <trkpt lat="47.49894" lon="6.71145">
        <ele>369.80149392002</ele>
        <time>2014-12-07T11:02:18Z</time>
      </trkpt>
      <trkpt lat="47.49895" lon="6.71157">
        <ele>369.65819136001</ele>
        <time>2014-12-07T11:02:19Z</time>
      </trkpt>
      <trkpt lat="47.49895" lon="6.71169">
        <ele>369.56605056001</ele>
        <time>2014-12-07T11:02:20Z</time>
      </trkpt>
      <trkpt lat="47.49896" lon="6.71181">
        <ele>369.59735808002</ele>
        <time>2014-12-07T11:02:21Z</time>
      </trkpt>
      <trkpt lat="47.49896" lon="6.71193">
        <ele>369.63855455999</ele>
        <time>2014-12-07T11:02:22Z</time>
      </trkpt>
      <trkpt lat="47.49897" lon="6.71206">
        <ele>369.6609072</ele>
        <time>2014-12-07T11:02:23Z</time>
      </trkpt>
      <trkpt lat="47.49897" lon="6.71218">
        <ele>369.67148352003</ele>
        <time>2014-12-07T11:02:24Z</time>
      </trkpt>
      <trkpt lat="47.49899" lon="6.71231">
        <ele>369.59932800001</ele>
        <time>2014-12-07T11:02:25Z</time>
      </trkpt>
      <trkpt lat="47.49899" lon="6.71245">
        <ele>369.64963583999</ele>
        <time>2014-12-07T11:02:26Z</time>
      </trkpt>
      <trkpt lat="47.499" lon="6.71258">
        <ele>369.47063999998</ele>
        <time>2014-12-07T11:02:27Z</time>
      </trkpt>
      <trkpt lat="47.49901" lon="6.71271">
        <ele>369.17878032001</ele>
        <time>2014-12-07T11:02:28Z</time>
      </trkpt>
      <trkpt lat="47.49901" lon="6.71284">
        <ele>368.92402415999</ele>
        <time>2014-12-07T11:02:29Z</time>
      </trkpt>
      <trkpt lat="47.49902" lon="6.71298">
        <ele>368.54033088004</ele>
        <time>2014-12-07T11:02:30Z</time>
      </trkpt>
      <trkpt lat="47.49903" lon="6.7131">
        <ele>368.17199135998</ele>
        <time>2014-12-07T11:02:31Z</time>
      </trkpt>
      <trkpt lat="47.49904" lon="6.71324">
        <ele>367.86511871996</ele>
        <time>2014-12-07T11:02:32Z</time>
      </trkpt>
      <trkpt lat="47.49904" lon="6.71337">
        <ele>367.57773616</ele>
        <time>2014-12-07T11:02:33Z</time>
      </trkpt>
      <trkpt lat="47.49905" lon="6.7135">
        <ele>367.28198464001</ele>
        <time>2014-12-07T11:02:34Z</time>
      </trkpt>
      <trkpt lat="47.49906" lon="6.71364">
        <ele>366.992896</ele>
        <time>2014-12-07T11:02:35Z</time>
      </trkpt>
      <trkpt lat="47.49907" lon="6.71378">
        <ele>366.70964799999</ele>
        <time>2014-12-07T11:02:36Z</time>
      </trkpt>
      <trkpt lat="47.49907" lon="6.7139">
        <ele>366.52414144002</ele>
        <time>2014-12-07T11:02:37Z</time>
      </trkpt>
      <trkpt lat="47.49906" lon="6.71403">
        <ele>366.42024832004</ele>
        <time>2014-12-07T11:02:38Z</time>
      </trkpt>
      <trkpt lat="47.49906" lon="6.71415">
        <ele>366.32389504002</ele>
        <time>2014-12-07T11:02:39Z</time>
      </trkpt>
      <trkpt lat="47.49905" lon="6.71428">
        <ele>365.94783808</ele>
        <time>2014-12-07T11:02:40Z</time>
      </trkpt>
      <trkpt lat="47.49904" lon="6.71441">
        <ele>365.48329695998</ele>
        <time>2014-12-07T11:02:41Z</time>
      </trkpt>
      <trkpt lat="47.49902" lon="6.71454">
        <ele>365.09962911999</ele>
        <time>2014-12-07T11:02:42Z</time>
      </trkpt>
      <trkpt lat="47.49901" lon="6.71467">
        <ele>364.65985023999</ele>
        <time>2014-12-07T11:02:43Z</time>
      </trkpt>
      <trkpt lat="47.499" lon="6.7148">
        <ele>364.19137792001</ele>
        <time>2014-12-07T11:02:44Z</time>
      </trkpt>
      <trkpt lat="47.49899" lon="6.71494">
        <ele>363.74886591995</ele>
        <time>2014-12-07T11:02:45Z</time>
      </trkpt>
      <trkpt lat="47.49899" lon="6.71509">
        <ele>363.57886960001</ele>
        <time>2014-12-07T11:02:46Z</time>
      </trkpt>
      <trkpt lat="47.49897" lon="6.71523">
        <ele>363.73209280004</ele>
        <time>2014-12-07T11:02:47Z</time>
      </trkpt>
      <trkpt lat="47.49898" lon="6.71537">
        <ele>363.66959680004</ele>
        <time>2014-12-07T11:02:48Z</time>
      </trkpt>
      <trkpt lat="47.49898" lon="6.71551">
        <ele>363.66765999998</ele>
        <time>2014-12-07T11:02:49Z</time>
      </trkpt>
      <trkpt lat="47.49897" lon="6.71564">
        <ele>363.67397439998</ele>
        <time>2014-12-07T11:02:50Z</time>
      </trkpt>
      <trkpt lat="47.49898" lon="6.71577">
        <ele>363.61237120001</ele>
        <time>2014-12-07T11:02:51Z</time>
      </trkpt>
      <trkpt lat="47.49898" lon="6.7159">
        <ele>363.47600000002</ele>
        <time>2014-12-07T11:02:52Z</time>
      </trkpt>
      <trkpt lat="47.49899" lon="6.71603">
        <ele>363.23599999999</ele>
        <time>2014-12-07T11:02:53Z</time>
      </trkpt>
      <trkpt lat="47.49901" lon="6.71615">
        <ele>362.93840000001</ele>
        <time>2014-12-07T11:02:54Z</time>
      </trkpt>
      <trkpt lat="47.49901" lon="6.71627">
        <ele>362.80039999999</ele>
        <time>2014-12-07T11:02:55Z</time>
      </trkpt>
      <trkpt lat="47.49902" lon="6.71639">
        <ele>362.5868</ele>
        <time>2014-12-07T11:02:56Z</time>
      </trkpt>
      <trkpt lat="47.49904" lon="6.71649">
        <ele>362.30600000003</ele>
        <time>2014-12-07T11:02:57Z</time>
      </trkpt>
      <trkpt lat="47.49905" lon="6.7166">
        <ele>362.0636</ele>
        <time>2014-12-07T11:02:58Z</time>
      </trkpt>
      <trkpt lat="47.49907" lon="6.71671">
        <ele>361.79700239999</ele>
        <time>2014-12-07T11:02:59Z</time>
      </trkpt>
      <trkpt lat="47.49907" lon="6.71681">
        <ele>361.59680207998</ele>
        <time>2014-12-07T11:03:00Z</time>
      </trkpt>
      <trkpt lat="47.49918" lon="6.71752">
        <ele>359.98118048</ele>
        <time>2014-12-07T11:03:08Z</time>
      </trkpt>
      <trkpt lat="47.49919" lon="6.71761">
        <ele>359.97108224</ele>
        <time>2014-12-07T11:03:09Z</time>
      </trkpt>
      <trkpt lat="47.4992" lon="6.71769">
        <ele>359.94808544</ele>
        <time>2014-12-07T11:03:10Z</time>
      </trkpt>
      <trkpt lat="47.49922" lon="6.71778">
        <ele>359.918072</ele>
        <time>2014-12-07T11:03:11Z</time>
      </trkpt>
      <trkpt lat="47.49922" lon="6.71787">
        <ele>359.90090048</ele>
        <time>2014-12-07T11:03:12Z</time>
      </trkpt>
      <trkpt lat="47.49924" lon="6.71796">
        <ele>359.85739712</ele>
        <time>2014-12-07T11:03:13Z</time>
      </trkpt>
      <trkpt lat="47.49925" lon="6.71806">
        <ele>359.82427136</ele>
        <time>2014-12-07T11:03:14Z</time>
      </trkpt>
      <trkpt lat="47.49927" lon="6.71816">
        <ele>359.7879776</ele>
        <time>2014-12-07T11:03:15Z</time>
      </trkpt>
      <trkpt lat="47.49928" lon="6.71827">
        <ele>359.73174464</ele>
        <time>2014-12-07T11:03:16Z</time>
      </trkpt>
      <trkpt lat="47.49929" lon="6.71837">
        <ele>359.6636</ele>
        <time>2014-12-07T11:03:17Z</time>
      </trkpt>
      <trkpt lat="47.4993" lon="6.71847">
        <ele>359.51959999999</ele>
        <time>2014-12-07T11:03:18Z</time>
      </trkpt>
      <trkpt lat="47.49931" lon="6.71857">
        <ele>359.3732</ele>
        <time>2014-12-07T11:03:19Z</time>
      </trkpt>
      <trkpt lat="47.49932" lon="6.71867">
        <ele>359.2268</ele>
        <time>2014-12-07T11:03:20Z</time>
      </trkpt>
      <trkpt lat="47.49933" lon="6.71878">
        <ele>359.0744</ele>
        <time>2014-12-07T11:03:21Z</time>
      </trkpt>
      <trkpt lat="47.49934" lon="6.71888">
        <ele>358.92199999999</ele>
        <time>2014-12-07T11:03:22Z</time>
      </trkpt>
      <trkpt lat="47.49936" lon="6.71899">
        <ele>358.7612</ele>
        <time>2014-12-07T11:03:23Z</time>
      </trkpt>
      <trkpt lat="47.49937" lon="6.71909">
        <ele>358.5932</ele>
        <time>2014-12-07T11:03:24Z</time>
      </trkpt>
      <trkpt lat="47.49938" lon="6.71919">
        <ele>358.46129152</ele>
        <time>2014-12-07T11:03:25Z</time>
      </trkpt>
      <trkpt lat="47.4994" lon="6.7193">
        <ele>358.36351744001</ele>
        <time>2014-12-07T11:03:26Z</time>
      </trkpt>
      <trkpt lat="47.49941" lon="6.7194">
        <ele>358.26169600001</ele>
        <time>2014-12-07T11:03:27Z</time>
      </trkpt>
      <trkpt lat="47.49942" lon="6.71951">
        <ele>358.15649536001</ele>
        <time>2014-12-07T11:03:28Z</time>
      </trkpt>
      <trkpt lat="47.49943" lon="6.71962">
        <ele>358.02277024</ele>
        <time>2014-12-07T11:03:29Z</time>
      </trkpt>
      <trkpt lat="47.49944" lon="6.71972">
        <ele>357.90363232001</ele>
        <time>2014-12-07T11:03:30Z</time>
      </trkpt>
      <trkpt lat="47.49945" lon="6.71982">
        <ele>357.77932288</ele>
        <time>2014-12-07T11:03:31Z</time>
      </trkpt>
      <trkpt lat="47.49946" lon="6.71993">
        <ele>357.6519808</ele>
        <time>2014-12-07T11:03:32Z</time>
      </trkpt>
      <trkpt lat="47.49947" lon="6.72004">
        <ele>357.43903839999</ele>
        <time>2014-12-07T11:03:33Z</time>
      </trkpt>
      <trkpt lat="47.49948" lon="6.72015">
        <ele>357.08758479999</ele>
        <time>2014-12-07T11:03:34Z</time>
      </trkpt>
      <trkpt lat="47.49949" lon="6.72025">
        <ele>356.7459664</ele>
        <time>2014-12-07T11:03:35Z</time>
      </trkpt>
      <trkpt lat="47.49949" lon="6.72036">
        <ele>356.40492159999</ele>
        <time>2014-12-07T11:03:36Z</time>
      </trkpt>
      <trkpt lat="47.4995" lon="6.72048">
        <ele>356.05941999998</ele>
        <time>2014-12-07T11:03:37Z</time>
      </trkpt>
      <trkpt lat="47.4995" lon="6.72059">
        <ele>355.73489536</ele>
        <time>2014-12-07T11:03:38Z</time>
      </trkpt>
      <trkpt lat="47.49949" lon="6.7207">
        <ele>355.42459072001</ele>
        <time>2014-12-07T11:03:39Z</time>
      </trkpt>
      <trkpt lat="47.49949" lon="6.72081">
        <ele>355.11826719999</ele>
        <time>2014-12-07T11:03:40Z</time>
      </trkpt>
      <trkpt lat="47.49948" lon="6.72092">
        <ele>354.96271295999</ele>
        <time>2014-12-07T11:03:41Z</time>
      </trkpt>
      <trkpt lat="47.49946" lon="6.72104">
        <ele>354.83832768001</ele>
        <time>2014-12-07T11:03:42Z</time>
      </trkpt>
      <trkpt lat="47.49944" lon="6.72114">
        <ele>354.71387136001</ele>
        <time>2014-12-07T11:03:43Z</time>
      </trkpt>
      <trkpt lat="47.49942" lon="6.72125">
        <ele>354.58931711999</ele>
        <time>2014-12-07T11:03:44Z</time>
      </trkpt>
      <trkpt lat="47.4994" lon="6.72135">
        <ele>354.44420928001</ele>
        <time>2014-12-07T11:03:45Z</time>
      </trkpt>
      <trkpt lat="47.49938" lon="6.72145">
        <ele>354.27465791999</ele>
        <time>2014-12-07T11:03:46Z</time>
      </trkpt>
      <trkpt lat="47.49935" lon="6.72154">
        <ele>354.09704256001</ele>
        <time>2014-12-07T11:03:47Z</time>
      </trkpt>
      <trkpt lat="47.49933" lon="6.72163">
        <ele>353.88795072</ele>
        <time>2014-12-07T11:03:48Z</time>
      </trkpt>
      <trkpt lat="47.49931" lon="6.72172">
        <ele>353.67403616</ele>
        <time>2014-12-07T11:03:49Z</time>
      </trkpt>
      <trkpt lat="47.49929" lon="6.72181">
        <ele>353.41426496</ele>
        <time>2014-12-07T11:03:50Z</time>
      </trkpt>
      <trkpt lat="47.49928" lon="6.72191">
        <ele>353.11974368</ele>
        <time>2014-12-07T11:03:51Z</time>
      </trkpt>
      <trkpt lat="47.49927" lon="6.722">
        <ele>352.82748224</ele>
        <time>2014-12-07T11:03:52Z</time>
      </trkpt>
      <trkpt lat="47.49926" lon="6.7221">
        <ele>352.51110368</ele>
        <time>2014-12-07T11:03:53Z</time>
      </trkpt>
      <trkpt lat="47.49926" lon="6.72219">
        <ele>352.2128864</ele>
        <time>2014-12-07T11:03:54Z</time>
      </trkpt>
      <trkpt lat="47.49926" lon="6.72229">
        <ele>351.88913696</ele>
        <time>2014-12-07T11:03:55Z</time>
      </trkpt>
      <trkpt lat="47.49926" lon="6.72239">
        <ele>351.5717984</ele>
        <time>2014-12-07T11:03:56Z</time>
      </trkpt>
      <trkpt lat="47.49926" lon="6.72249">
        <ele>351.271952</ele>
        <time>2014-12-07T11:03:57Z</time>
      </trkpt>
      <trkpt lat="47.49926" lon="6.72258">
        <ele>351.13639999999</ele>
        <time>2014-12-07T11:03:58Z</time>
      </trkpt>
      <trkpt lat="47.49927" lon="6.72268">
        <ele>351.0212</ele>
        <time>2014-12-07T11:03:59Z</time>
      </trkpt>
      <trkpt lat="47.49927" lon="6.72278">
        <ele>350.912</ele>
        <time>2014-12-07T11:04:00Z</time>
      </trkpt>
      <trkpt lat="47.49926" lon="6.72355">
        <ele>349.46151408</ele>
        <time>2014-12-07T11:04:08Z</time>
      </trkpt>
      <trkpt lat="47.49925" lon="6.72365">
        <ele>349.103712</ele>
        <time>2014-12-07T11:04:09Z</time>
      </trkpt>
      <trkpt lat="47.49925" lon="6.72375">
        <ele>348.76740000001</ele>
        <time>2014-12-07T11:04:10Z</time>
      </trkpt>
      <trkpt lat="47.49924" lon="6.72384">
        <ele>348.41212655999</ele>
        <time>2014-12-07T11:04:11Z</time>
      </trkpt>
      <trkpt lat="47.49924" lon="6.72393">
        <ele>348.07399776</ele>
        <time>2014-12-07T11:04:12Z</time>
      </trkpt>
      <trkpt lat="47.49924" lon="6.72403">
        <ele>347.74185456</ele>
        <time>2014-12-07T11:04:13Z</time>
      </trkpt>
      <trkpt lat="47.49924" lon="6.72413">
        <ele>347.38498512</ele>
        <time>2014-12-07T11:04:14Z</time>
      </trkpt>
      <trkpt lat="47.49923" lon="6.72421">
        <ele>347.17642112</ele>
        <time>2014-12-07T11:04:15Z</time>
      </trkpt>
      <trkpt lat="47.49923" lon="6.72431">
        <ele>347.0426048</ele>
        <time>2014-12-07T11:04:16Z</time>
      </trkpt>
      <trkpt lat="47.49923" lon="6.7244">
        <ele>346.90803008</ele>
        <time>2014-12-07T11:04:17Z</time>
      </trkpt>
      <trkpt lat="47.49923" lon="6.72449">
        <ele>346.78646336</ele>
        <time>2014-12-07T11:04:18Z</time>
      </trkpt>
      <trkpt lat="47.49924" lon="6.72458">
        <ele>346.6630688</ele>
        <time>2014-12-07T11:04:19Z</time>
      </trkpt>
      <trkpt lat="47.49924" lon="6.72467">
        <ele>346.55941376</ele>
        <time>2014-12-07T11:04:20Z</time>
      </trkpt>
      <trkpt lat="47.49924" lon="6.72476">
        <ele>346.43709824</ele>
        <time>2014-12-07T11:04:21Z</time>
      </trkpt>
      <trkpt lat="47.49925" lon="6.72485">
        <ele>346.3166144</ele>
        <time>2014-12-07T11:04:22Z</time>
      </trkpt>
      <trkpt lat="47.49925" lon="6.72494">
        <ele>346.19210144</ele>
        <time>2014-12-07T11:04:23Z</time>
      </trkpt>
      <trkpt lat="47.49926" lon="6.72503">
        <ele>346.0775456</ele>
        <time>2014-12-07T11:04:24Z</time>
      </trkpt>
      <trkpt lat="47.49926" lon="6.72512">
        <ele>345.98718512</ele>
        <time>2014-12-07T11:04:25Z</time>
      </trkpt>
      <trkpt lat="47.49927" lon="6.72521">
        <ele>345.90129728</ele>
        <time>2014-12-07T11:04:26Z</time>
      </trkpt>
      <trkpt lat="47.49927" lon="6.7253">
        <ele>345.81085568</ele>
        <time>2014-12-07T11:04:27Z</time>
      </trkpt>
      <trkpt lat="47.49928" lon="6.7254">
        <ele>345.72365696</ele>
        <time>2014-12-07T11:04:28Z</time>
      </trkpt>
      <trkpt lat="47.49928" lon="6.72549">
        <ele>345.63591488</ele>
        <time>2014-12-07T11:04:29Z</time>
      </trkpt>
      <trkpt lat="47.49929" lon="6.72559">
        <ele>345.5458112</ele>
        <time>2014-12-07T11:04:30Z</time>
      </trkpt>
      <trkpt lat="47.49929" lon="6.72568">
        <ele>345.45843488</ele>
        <time>2014-12-07T11:04:31Z</time>
      </trkpt>
      <trkpt lat="47.4993" lon="6.72578">
        <ele>345.36881504</ele>
        <time>2014-12-07T11:04:32Z</time>
      </trkpt>
      <trkpt lat="47.4993" lon="6.72587">
        <ele>345.2344</ele>
        <time>2014-12-07T11:04:33Z</time>
      </trkpt>
      <trkpt lat="47.4993" lon="6.72597">
        <ele>345.0016</ele>
        <time>2014-12-07T11:04:34Z</time>
      </trkpt>
      <trkpt lat="47.4993" lon="6.72606">
        <ele>344.77360000001</ele>
        <time>2014-12-07T11:04:35Z</time>
      </trkpt>
      <trkpt lat="47.4993" lon="6.72616">
        <ele>344.55040000001</ele>
        <time>2014-12-07T11:04:36Z</time>
      </trkpt>
      <trkpt lat="47.4993" lon="6.72625">
        <ele>344.31040000001</ele>
        <time>2014-12-07T11:04:37Z</time>
      </trkpt>
      <trkpt lat="47.49929" lon="6.72635">
        <ele>344.0752</ele>
        <time>2014-12-07T11:04:38Z</time>
      </trkpt>
      <trkpt lat="47.49928" lon="6.72644">
        <ele>343.82800000001</ele>
        <time>2014-12-07T11:04:39Z</time>
      </trkpt>
      <trkpt lat="47.49928" lon="6.72653">
        <ele>343.5952</ele>
        <time>2014-12-07T11:04:40Z</time>
      </trkpt>
      <trkpt lat="47.49927" lon="6.72661">
        <ele>343.372</ele>
        <time>2014-12-07T11:04:41Z</time>
      </trkpt>
      <trkpt lat="47.49926" lon="6.72671">
        <ele>343.15900416</ele>
        <time>2014-12-07T11:04:42Z</time>
      </trkpt>
      <trkpt lat="47.49926" lon="6.72681">
        <ele>343.0020816</ele>
        <time>2014-12-07T11:04:43Z</time>
      </trkpt>
      <trkpt lat="47.49925" lon="6.72691">
        <ele>342.8619408</ele>
        <time>2014-12-07T11:04:44Z</time>
      </trkpt>
      <trkpt lat="47.49925" lon="6.72699">
        <ele>342.72856224</ele>
        <time>2014-12-07T11:04:45Z</time>
      </trkpt>
      <trkpt lat="47.49925" lon="6.72709">
        <ele>342.59131584</ele>
        <time>2014-12-07T11:04:46Z</time>
      </trkpt>
      <trkpt lat="47.49926" lon="6.72718">
        <ele>342.46596096</ele>
        <time>2014-12-07T11:04:47Z</time>
      </trkpt>
      <trkpt lat="47.49927" lon="6.72727">
        <ele>342.3504384</ele>
        <time>2014-12-07T11:04:48Z</time>
      </trkpt>
      <trkpt lat="47.49928" lon="6.72735">
        <ele>342.22872096</ele>
        <time>2014-12-07T11:04:49Z</time>
      </trkpt>
      <trkpt lat="47.49929" lon="6.72743">
        <ele>342.117072</ele>
        <time>2014-12-07T11:04:50Z</time>
      </trkpt>
      <trkpt lat="47.49931" lon="6.72752">
        <ele>342.0087768</ele>
        <time>2014-12-07T11:04:51Z</time>
      </trkpt>
      <trkpt lat="47.49932" lon="6.7276">
        <ele>342.05236704</ele>
        <time>2014-12-07T11:04:52Z</time>
      </trkpt>
      <trkpt lat="47.49933" lon="6.72768">
        <ele>342.094428</ele>
        <time>2014-12-07T11:04:53Z</time>
      </trkpt>
      <trkpt lat="47.49932" lon="6.72777">
        <ele>342.1416528</ele>
        <time>2014-12-07T11:04:54Z</time>
      </trkpt>
      <trkpt lat="47.49932" lon="6.72786">
        <ele>342.18834576001</ele>
        <time>2014-12-07T11:04:55Z</time>
      </trkpt>
      <trkpt lat="47.49933" lon="6.72794">
        <ele>342.22222368</ele>
        <time>2014-12-07T11:04:56Z</time>
      </trkpt>
      <trkpt lat="47.49933" lon="6.72802">
        <ele>342.25631184</ele>
        <time>2014-12-07T11:04:57Z</time>
      </trkpt>
      <trkpt lat="47.49934" lon="6.7281">
        <ele>342.26768112</ele>
        <time>2014-12-07T11:04:58Z</time>
      </trkpt>
      <trkpt lat="47.49933" lon="6.72818">
        <ele>342.32444160001</ele>
        <time>2014-12-07T11:04:59Z</time>
      </trkpt>
      <trkpt lat="47.49935" lon="6.72825">
        <ele>342.29991935999</ele>
        <time>2014-12-07T11:05:00Z</time>
      </trkpt>
      <trkpt lat="47.49938" lon="6.72874">
        <ele>341.2368</ele>
        <time>2014-12-07T11:05:08Z</time>
      </trkpt>
      <trkpt lat="47.49939" lon="6.72878">
        <ele>341.13720000001</ele>
        <time>2014-12-07T11:05:09Z</time>
      </trkpt>
      <trkpt lat="47.49939" lon="6.72881">
        <ele>341.04479999999</ele>
        <time>2014-12-07T11:05:10Z</time>
      </trkpt>
      <trkpt lat="47.49942" lon="6.72885">
        <ele>340.86480000001</ele>
        <time>2014-12-07T11:07:12Z</time>
      </trkpt>
      <trkpt lat="47.49943" lon="6.72886">
        <ele>340.78800000001</ele>
        <time>2014-12-07T11:07:14Z</time>
      </trkpt>
      <trkpt lat="47.49946" lon="6.72888">
        <ele>340.62600000001</ele>
        <time>2014-12-07T11:07:15Z</time>
      </trkpt>
      <trkpt lat="47.49949" lon="6.72892">
        <ele>340.43040000001</ele>
        <time>2014-12-07T11:07:17Z</time>
      </trkpt>
      <trkpt lat="47.49952" lon="6.72895">
        <ele>340.2576</ele>
        <time>2014-12-07T11:07:18Z</time>
      </trkpt>
      <trkpt lat="47.49954" lon="6.72899">
        <ele>340.07519999999</ele>
        <time>2014-12-07T11:07:19Z</time>
      </trkpt>
      <trkpt lat="47.49957" lon="6.72904">
        <ele>339.87960000001</ele>
        <time>2014-12-07T11:07:20Z</time>
      </trkpt>
      <trkpt lat="47.49959" lon="6.72908">
        <ele>339.6876</ele>
        <time>2014-12-07T11:07:21Z</time>
      </trkpt>
      <trkpt lat="47.49962" lon="6.72912">
        <ele>339.48840000001</ele>
        <time>2014-12-07T11:07:22Z</time>
      </trkpt>
      <trkpt lat="47.49964" lon="6.72917">
        <ele>339.28822815999</ele>
        <time>2014-12-07T11:07:23Z</time>
      </trkpt>
      <trkpt lat="47.49967" lon="6.72921">
        <ele>339.11875839999</ele>
        <time>2014-12-07T11:07:24Z</time>
      </trkpt>
      <trkpt lat="47.4997" lon="6.72925">
        <ele>338.95607632001</ele>
        <time>2014-12-07T11:07:25Z</time>
      </trkpt>
      <trkpt lat="47.49972" lon="6.72929">
        <ele>338.7965824</ele>
        <time>2014-12-07T11:07:26Z</time>
      </trkpt>
      <trkpt lat="47.49975" lon="6.72933">
        <ele>338.64388047999</ele>
        <time>2014-12-07T11:07:27Z</time>
      </trkpt>
      <trkpt lat="47.49978" lon="6.72938">
        <ele>338.483356</ele>
        <time>2014-12-07T11:07:28Z</time>
      </trkpt>
      <trkpt lat="47.4998" lon="6.72943">
        <ele>338.33460160001</ele>
        <time>2014-12-07T11:07:29Z</time>
      </trkpt>
      <trkpt lat="47.49982" lon="6.72948">
        <ele>338.18955087999</ele>
        <time>2014-12-07T11:07:30Z</time>
      </trkpt>
      <trkpt lat="47.49983" lon="6.72954">
        <ele>338.07728512</ele>
        <time>2014-12-07T11:07:31Z</time>
      </trkpt>
      <trkpt lat="47.49983" lon="6.7296">
        <ele>337.991872</ele>
        <time>2014-12-07T11:07:32Z</time>
      </trkpt>
      <trkpt lat="47.49982" lon="6.72966">
        <ele>337.91366272001</ele>
        <time>2014-12-07T11:07:33Z</time>
      </trkpt>
      <trkpt lat="47.49982" lon="6.72973">
        <ele>337.82756848001</ele>
        <time>2014-12-07T11:07:34Z</time>
      </trkpt>
      <trkpt lat="47.49982" lon="6.72979">
        <ele>337.72907584001</ele>
        <time>2014-12-07T11:07:35Z</time>
      </trkpt>
      <trkpt lat="47.49983" lon="6.72985">
        <ele>337.61948800001</ele>
        <time>2014-12-07T11:07:36Z</time>
      </trkpt>
      <trkpt lat="47.49984" lon="6.72991">
        <ele>337.50831615999</ele>
        <time>2014-12-07T11:07:37Z</time>
      </trkpt>
      <trkpt lat="47.49986" lon="6.72996">
        <ele>337.39732768</ele>
        <time>2014-12-07T11:07:38Z</time>
      </trkpt>
      <trkpt lat="47.49988" lon="6.73001">
        <ele>337.28440000001</ele>
        <time>2014-12-07T11:07:39Z</time>
      </trkpt>
      <trkpt lat="47.49994" lon="6.73007">
        <ele>337.0516</ele>
        <time>2014-12-07T11:07:40Z</time>
      </trkpt>
      <trkpt lat="47.49997" lon="6.73012">
        <ele>336.9196</ele>
        <time>2014-12-07T11:07:41Z</time>
      </trkpt>
      <trkpt lat="47.50001" lon="6.73017">
        <ele>336.80248576</ele>
        <time>2014-12-07T11:07:42Z</time>
      </trkpt>
      <trkpt lat="47.50004" lon="6.73022">
        <ele>336.76381696</ele>
        <time>2014-12-07T11:07:43Z</time>
      </trkpt>
      <trkpt lat="47.50008" lon="6.73026">
        <ele>336.74663584</ele>
        <time>2014-12-07T11:07:44Z</time>
      </trkpt>
      <trkpt lat="47.50012" lon="6.73033">
        <ele>336.71814688</ele>
        <time>2014-12-07T11:07:45Z</time>
      </trkpt>
      <trkpt lat="47.50016" lon="6.73038">
        <ele>336.71956</ele>
        <time>2014-12-07T11:07:46Z</time>
      </trkpt>
      <trkpt lat="47.5002" lon="6.73042">
        <ele>336.73424128</ele>
        <time>2014-12-07T11:07:47Z</time>
      </trkpt>
      <trkpt lat="47.50024" lon="6.73047">
        <ele>336.7593904</ele>
        <time>2014-12-07T11:07:48Z</time>
      </trkpt>
      <trkpt lat="47.50028" lon="6.73051">
        <ele>336.79298368</ele>
        <time>2014-12-07T11:07:49Z</time>
      </trkpt>
      <trkpt lat="47.50031" lon="6.73055">
        <ele>336.83519488</ele>
        <time>2014-12-07T11:07:49Z</time>
      </trkpt>
      <trkpt lat="47.50035" lon="6.7306">
        <ele>336.8806192</ele>
        <time>2014-12-07T11:07:51Z</time>
      </trkpt>
      <trkpt lat="47.50039" lon="6.73064">
        <ele>336.9475744</ele>
        <time>2014-12-07T11:07:52Z</time>
      </trkpt>
      <trkpt lat="47.50043" lon="6.73067">
        <ele>337.03165792</ele>
        <time>2014-12-07T11:07:53Z</time>
      </trkpt>
      <trkpt lat="47.50048" lon="6.73071">
        <ele>337.1204704</ele>
        <time>2014-12-07T11:07:54Z</time>
      </trkpt>
      <trkpt lat="47.50051" lon="6.73075">
        <ele>337.20697024</ele>
        <time>2014-12-07T11:07:55Z</time>
      </trkpt>
      <trkpt lat="47.50055" lon="6.73079">
        <ele>337.29574912</ele>
        <time>2014-12-07T11:07:56Z</time>
      </trkpt>
      <trkpt lat="47.50059" lon="6.73084">
        <ele>337.4112</ele>
        <time>2014-12-07T11:07:57Z</time>
      </trkpt>
      <trkpt lat="47.50062" lon="6.73088">
        <ele>337.49519999999</ele>
        <time>2014-12-07T11:07:58Z</time>
      </trkpt>
      <trkpt lat="47.50066" lon="6.73092">
        <ele>337.57679999999</ele>
        <time>2014-12-07T11:07:59Z</time>
      </trkpt>
      <trkpt lat="47.50069" lon="6.73095">
        <ele>337.6608</ele>
        <time>2014-12-07T11:08:00Z</time>
      </trkpt>
      <trkpt lat="47.50092" lon="6.73114">
        <ele>338.2852928</ele>
        <time>2014-12-07T11:08:08Z</time>
      </trkpt>
      <trkpt lat="47.50094" lon="6.73116">
        <ele>338.36669024</ele>
        <time>2014-12-07T11:08:09Z</time>
      </trkpt>
      <trkpt lat="47.50097" lon="6.73118">
        <ele>338.46665696</ele>
        <time>2014-12-07T11:08:10Z</time>
      </trkpt>
      <trkpt lat="47.501" lon="6.73119">
        <ele>338.57317856001</ele>
        <time>2014-12-07T11:08:11Z</time>
      </trkpt>
      <trkpt lat="47.50104" lon="6.73119">
        <ele>338.71051904</ele>
        <time>2014-12-07T11:08:12Z</time>
      </trkpt>
      <trkpt lat="47.50108" lon="6.7312">
        <ele>338.83586047999</ele>
        <time>2014-12-07T11:08:13Z</time>
      </trkpt>
      <trkpt lat="47.50112" lon="6.7312">
        <ele>339.00203263999</ele>
        <time>2014-12-07T11:08:14Z</time>
      </trkpt>
      <trkpt lat="47.50117" lon="6.73121">
        <ele>339.17961824</ele>
        <time>2014-12-07T11:08:15Z</time>
      </trkpt>
      <trkpt lat="47.5012" lon="6.73122">
        <ele>339.29460223999</ele>
        <time>2014-12-07T11:08:16Z</time>
      </trkpt>
      <trkpt lat="47.50124" lon="6.73122">
        <ele>339.42768703999</ele>
        <time>2014-12-07T11:08:17Z</time>
      </trkpt>
      <trkpt lat="47.50127" lon="6.73123">
        <ele>339.54534848001</ele>
        <time>2014-12-07T11:08:18Z</time>
      </trkpt>
      <trkpt lat="47.50131" lon="6.73124">
        <ele>339.71240384</ele>
        <time>2014-12-07T11:08:19Z</time>
      </trkpt>
      <trkpt lat="47.50135" lon="6.73125">
        <ele>339.84412351999</ele>
        <time>2014-12-07T11:08:20Z</time>
      </trkpt>
      <trkpt lat="47.50137" lon="6.73125">
        <ele>339.92839999999</ele>
        <time>2014-12-07T11:08:21Z</time>
      </trkpt>
      <trkpt lat="47.5014" lon="6.73125">
        <ele>340.03869536</ele>
        <time>2014-12-07T11:08:22Z</time>
      </trkpt>
      <trkpt lat="47.50143" lon="6.73125">
        <ele>340.15175168</ele>
        <time>2014-12-07T11:08:23Z</time>
      </trkpt>
      <trkpt lat="47.50147" lon="6.73125">
        <ele>340.29009056001</ele>
        <time>2014-12-07T11:08:24Z</time>
      </trkpt>
      <trkpt lat="47.50151" lon="6.73125">
        <ele>340.4216</ele>
        <time>2014-12-07T11:08:25Z</time>
      </trkpt>
      <trkpt lat="47.50154" lon="6.73125">
        <ele>340.54085887999</ele>
        <time>2014-12-07T11:08:26Z</time>
      </trkpt>
      <trkpt lat="47.50157" lon="6.73128">
        <ele>340.69879231999</ele>
        <time>2014-12-07T11:08:27Z</time>
      </trkpt>
      <trkpt lat="47.5016" lon="6.73129">
        <ele>340.86087872</ele>
        <time>2014-12-07T11:08:28Z</time>
      </trkpt>
      <trkpt lat="47.50163" lon="6.73131">
        <ele>341.0132096</ele>
        <time>2014-12-07T11:08:29Z</time>
      </trkpt>
      <trkpt lat="47.50165" lon="6.73134">
        <ele>341.15232512</ele>
        <time>2014-12-07T11:08:30Z</time>
      </trkpt>
      <trkpt lat="47.50167" lon="6.73136">
        <ele>341.27374528</ele>
        <time>2014-12-07T11:08:31Z</time>
      </trkpt>
      <trkpt lat="47.50168" lon="6.73142">
        <ele>341.40415552</ele>
        <time>2014-12-07T11:08:33Z</time>
      </trkpt>
      <trkpt lat="47.50168" lon="6.73144">
        <ele>341.4471136</ele>
        <time>2014-12-07T11:08:34Z</time>
      </trkpt>
      <trkpt lat="47.50166" lon="6.73149">
        <ele>341.52930944</ele>
        <time>2014-12-07T11:08:39Z</time>
      </trkpt>
      <trkpt lat="47.50166" lon="6.73151">
        <ele>341.57287423999</ele>
        <time>2014-12-07T11:08:40Z</time>
      </trkpt>
      <trkpt lat="47.50165" lon="6.73154">
        <ele>341.62180544001</ele>
        <time>2014-12-07T11:08:41Z</time>
      </trkpt>
      <trkpt lat="47.50164" lon="6.73157">
        <ele>341.67031616001</ele>
        <time>2014-12-07T11:08:42Z</time>
      </trkpt>
      <trkpt lat="47.50163" lon="6.73162">
        <ele>341.72165888</ele>
        <time>2014-12-07T11:08:43Z</time>
      </trkpt>
      <trkpt lat="47.50162" lon="6.73166">
        <ele>341.76995840001</ele>
        <time>2014-12-07T11:08:44Z</time>
      </trkpt>
      <trkpt lat="47.50161" lon="6.73171">
        <ele>341.7812</ele>
        <time>2014-12-07T11:08:45Z</time>
      </trkpt>
      <trkpt lat="47.5016" lon="6.73176">
        <ele>341.79679999999</ele>
        <time>2014-12-07T11:08:46Z</time>
      </trkpt>
      <trkpt lat="47.5016" lon="6.7318">
        <ele>341.83880000002</ele>
        <time>2014-12-07T11:08:47Z</time>
      </trkpt>
      <trkpt lat="47.5016" lon="6.73184">
        <ele>341.8916</ele>
        <time>2014-12-07T11:08:48Z</time>
      </trkpt>
      <trkpt lat="47.50161" lon="6.73188">
        <ele>341.96000000001</ele>
        <time>2014-12-07T11:08:49Z</time>
      </trkpt>
      <trkpt lat="47.50161" lon="6.73191">
        <ele>342.02959999998</ele>
        <time>2014-12-07T11:08:50Z</time>
      </trkpt>
      <trkpt lat="47.50161" lon="6.73195">
        <ele>342.08120000001</ele>
        <time>2014-12-07T11:08:51Z</time>
      </trkpt>
      <trkpt lat="47.50161" lon="6.73199">
        <ele>342.1196</ele>
        <time>2014-12-07T11:08:52Z</time>
      </trkpt>
      <trkpt lat="47.50161" lon="6.73204">
        <ele>342.15320000001</ele>
        <time>2014-12-07T11:08:53Z</time>
      </trkpt>
      <trkpt lat="47.5016" lon="6.73208">
        <ele>342.16279999998</ele>
        <time>2014-12-07T11:08:54Z</time>
      </trkpt>
      <trkpt lat="47.50159" lon="6.73212">
        <ele>342.1652</ele>
        <time>2014-12-07T11:08:55Z</time>
      </trkpt>
      <trkpt lat="47.50158" lon="6.73216">
        <ele>342.15680000001</ele>
        <time>2014-12-07T11:08:56Z</time>
      </trkpt>
      <trkpt lat="47.50156" lon="6.7322">
        <ele>342.14599999999</ele>
        <time>2014-12-07T11:08:57Z</time>
      </trkpt>
      <trkpt lat="47.50155" lon="6.73224">
        <ele>342.13160000001</ele>
        <time>2014-12-07T11:08:58Z</time>
      </trkpt>
      <trkpt lat="47.50154" lon="6.73229">
        <ele>342.1196</ele>
        <time>2014-12-07T11:08:59Z</time>
      </trkpt>
      <trkpt lat="47.50152" lon="6.73233">
        <ele>342.09800000001</ele>
        <time>2014-12-07T11:09:00Z</time>
      </trkpt>
      <trkpt lat="47.50139" lon="6.73269">
        <ele>342.55999999998</ele>
        <time>2014-12-07T11:09:08Z</time>
      </trkpt>
      <trkpt lat="47.50137" lon="6.73274">
        <ele>342.71840000001</ele>
        <time>2014-12-07T11:09:09Z</time>
      </trkpt>
      <trkpt lat="47.50135" lon="6.73279">
        <ele>342.872</ele>
        <time>2014-12-07T11:09:10Z</time>
      </trkpt>
      <trkpt lat="47.50134" lon="6.73284">
        <ele>343.03519999998</ele>
        <time>2014-12-07T11:09:11Z</time>
      </trkpt>
      <trkpt lat="47.50132" lon="6.73289">
        <ele>343.19360000001</ele>
        <time>2014-12-07T11:09:12Z</time>
      </trkpt>
      <trkpt lat="47.5013" lon="6.73293">
        <ele>343.33759999999</ele>
        <time>2014-12-07T11:09:13Z</time>
      </trkpt>
      <trkpt lat="47.50129" lon="6.73298">
        <ele>343.46240000001</ele>
        <time>2014-12-07T11:09:14Z</time>
      </trkpt>
      <trkpt lat="47.50127" lon="6.73302">
        <ele>343.57759999999</ele>
        <time>2014-12-07T11:09:15Z</time>
      </trkpt>
      <trkpt lat="47.50125" lon="6.73306">
        <ele>343.69759999998</ele>
        <time>2014-12-07T11:09:16Z</time>
      </trkpt>
      <trkpt lat="47.50123" lon="6.73311">
        <ele>343.83679999999</ele>
        <time>2014-12-07T11:09:17Z</time>
      </trkpt>
      <trkpt lat="47.50121" lon="6.73316">
        <ele>343.98079999999</ele>
        <time>2014-12-07T11:09:18Z</time>
      </trkpt>
      <trkpt lat="47.5012" lon="6.73321">
        <ele>344.14880000001</ele>
        <time>2014-12-07T11:09:19Z</time>
      </trkpt>
      <trkpt lat="47.50118" lon="6.73326">
        <ele>344.3264</ele>
        <time>2014-12-07T11:09:20Z</time>
      </trkpt>
      <trkpt lat="47.50117" lon="6.73331">
        <ele>344.49919999999</ele>
        <time>2014-12-07T11:09:21Z</time>
      </trkpt>
      <trkpt lat="47.50115" lon="6.73337">
        <ele>344.67190400001</ele>
        <time>2014-12-07T11:09:22Z</time>
      </trkpt>
      <trkpt lat="47.50113" lon="6.73342">
        <ele>344.82014719999</ele>
        <time>2014-12-07T11:09:23Z</time>
      </trkpt>
      <trkpt lat="47.50111" lon="6.73347">
        <ele>344.95689344</ele>
        <time>2014-12-07T11:09:24Z</time>
      </trkpt>
      <trkpt lat="47.50109" lon="6.73353">
        <ele>345.09277951998</ele>
        <time>2014-12-07T11:09:25Z</time>
      </trkpt>
      <trkpt lat="47.50108" lon="6.73358">
        <ele>345.228272</ele>
        <time>2014-12-07T11:09:26Z</time>
      </trkpt>
      <trkpt lat="47.50106" lon="6.73364">
        <ele>345.36950911999</ele>
        <time>2014-12-07T11:09:27Z</time>
      </trkpt>
      <trkpt lat="47.50104" lon="6.73369">
        <ele>345.49476992</ele>
        <time>2014-12-07T11:09:28Z</time>
      </trkpt>
      <trkpt lat="47.50103" lon="6.73373">
        <ele>345.6050048</ele>
        <time>2014-12-07T11:09:29Z</time>
      </trkpt>
      <trkpt lat="47.50102" lon="6.73378">
        <ele>345.72343999998</ele>
        <time>2014-12-07T11:09:30Z</time>
      </trkpt>
      <trkpt lat="47.50101" lon="6.73382">
        <ele>345.81469759999</ele>
        <time>2014-12-07T11:09:31Z</time>
      </trkpt>
      <trkpt lat="47.501" lon="6.73386">
        <ele>345.91579520002</ele>
        <time>2014-12-07T11:09:32Z</time>
      </trkpt>
      <trkpt lat="47.50099" lon="6.7339">
        <ele>346.01863424</ele>
        <time>2014-12-07T11:09:33Z</time>
      </trkpt>
      <trkpt lat="47.50098" lon="6.73394">
        <ele>346.09949599998</ele>
        <time>2014-12-07T11:09:34Z</time>
      </trkpt>
      <trkpt lat="47.50096" lon="6.73398">
        <ele>346.16666335998</ele>
        <time>2014-12-07T11:09:35Z</time>
      </trkpt>
      <trkpt lat="47.50095" lon="6.73402">
        <ele>346.21598719999</ele>
        <time>2014-12-07T11:09:36Z</time>
      </trkpt>
      <trkpt lat="47.50093" lon="6.73405">
        <ele>346.26411200002</ele>
        <time>2014-12-07T11:09:37Z</time>
      </trkpt>
      <trkpt lat="47.50092" lon="6.73408">
        <ele>346.30887583999</ele>
        <time>2014-12-07T11:09:38Z</time>
      </trkpt>
      <trkpt lat="47.50091" lon="6.73411">
        <ele>346.35077119998</ele>
        <time>2014-12-07T11:09:39Z</time>
      </trkpt>
      <trkpt lat="47.5009" lon="6.73415">
        <ele>346.39070239998</ele>
        <time>2014-12-07T11:09:40Z</time>
      </trkpt>
      <trkpt lat="47.50089" lon="6.73418">
        <ele>346.40090799999</ele>
        <time>2014-12-07T11:09:41Z</time>
      </trkpt>
      <trkpt lat="47.50088" lon="6.73421">
        <ele>346.37131647999</ele>
        <time>2014-12-07T11:09:42Z</time>
      </trkpt>
      <trkpt lat="47.50086" lon="6.73427">
        <ele>346.30366719999</ele>
        <time>2014-12-07T11:09:44Z</time>
      </trkpt>
      <trkpt lat="47.50085" lon="6.73429">
        <ele>346.26472816</ele>
        <time>2014-12-07T11:09:45Z</time>
      </trkpt>
      <trkpt lat="47.50083" lon="6.73434">
        <ele>346.1760128</ele>
        <time>2014-12-07T11:09:47Z</time>
      </trkpt>
      <trkpt lat="47.50082" lon="6.73435">
        <ele>346.13265728</ele>
        <time>2014-12-07T11:09:48Z</time>
      </trkpt>
      <trkpt lat="47.5008" lon="6.73441">
        <ele>346.05587840002</ele>
        <time>2014-12-07T11:09:52Z</time>
      </trkpt>
      <trkpt lat="47.5008" lon="6.73442">
        <ele>346.06457408002</ele>
        <time>2014-12-07T11:09:53Z</time>
      </trkpt>
      <trkpt lat="47.5008" lon="6.73447">
        <ele>346.13538176002</ele>
        <time>2014-12-07T11:10:00Z</time>
      </trkpt>
      <trkpt lat="47.50079" lon="6.73457">
        <ele>346.13987647998</ele>
        <time>2014-12-07T11:10:08Z</time>
      </trkpt>
      <trkpt lat="47.50082" lon="6.73459">
        <ele>346.36929152</ele>
        <time>2014-12-07T11:10:11Z</time>
      </trkpt>
      <trkpt lat="47.50083" lon="6.73459">
        <ele>346.50121856002</ele>
        <time>2014-12-07T11:10:12Z</time>
      </trkpt>
      <trkpt lat="47.50087" lon="6.73458">
        <ele>346.92729375996</ele>
        <time>2014-12-07T11:10:15Z</time>
      </trkpt>
      <trkpt lat="47.50088" lon="6.73457">
        <ele>346.96629567998</ele>
        <time>2014-12-07T11:10:16Z</time>
      </trkpt>
      <trkpt lat="47.50084" lon="6.73455">
        <ele>346.48459648</ele>
        <time>2014-12-07T11:10:24Z</time>
      </trkpt>
      <trkpt lat="47.50082" lon="6.73457">
        <ele>346.36899392002</ele>
        <time>2014-12-07T11:10:25Z</time>
      </trkpt>
      <trkpt lat="47.5008" lon="6.73461">
        <ele>346.29378368</ele>
        <time>2014-12-07T11:10:26Z</time>
      </trkpt>
      <trkpt lat="47.50079" lon="6.73466">
        <ele>346.2664736</ele>
        <time>2014-12-07T11:10:27Z</time>
      </trkpt>
      <trkpt lat="47.50078" lon="6.7347">
        <ele>346.25331968001</ele>
        <time>2014-12-07T11:10:28Z</time>
      </trkpt>
      <trkpt lat="47.50078" lon="6.73475">
        <ele>346.25514799998</ele>
        <time>2014-12-07T11:10:29Z</time>
      </trkpt>
      <trkpt lat="47.50077" lon="6.73479">
        <ele>346.23923120001</ele>
        <time>2014-12-07T11:10:30Z</time>
      </trkpt>
      <trkpt lat="47.50075" lon="6.73485">
        <ele>346.21024639999</ele>
        <time>2014-12-07T11:10:31Z</time>
      </trkpt>
      <trkpt lat="47.50074" lon="6.7349">
        <ele>346.17654416001</ele>
        <time>2014-12-07T11:10:32Z</time>
      </trkpt>
      <trkpt lat="47.50072" lon="6.73497">
        <ele>346.14626191999</ele>
        <time>2014-12-07T11:10:33Z</time>
      </trkpt>
      <trkpt lat="47.5007" lon="6.73507">
        <ele>346.24932992002</ele>
        <time>2014-12-07T11:10:34Z</time>
      </trkpt>
      <trkpt lat="47.50068" lon="6.73514">
        <ele>346.35021823998</ele>
        <time>2014-12-07T11:10:35Z</time>
      </trkpt>
      <trkpt lat="47.50067" lon="6.73521">
        <ele>346.48588831998</ele>
        <time>2014-12-07T11:10:36Z</time>
      </trkpt>
      <trkpt lat="47.50066" lon="6.73528">
        <ele>346.58019200002</ele>
        <time>2014-12-07T11:10:37Z</time>
      </trkpt>
      <trkpt lat="47.50064" lon="6.73535">
        <ele>346.67403296</ele>
        <time>2014-12-07T11:10:38Z</time>
      </trkpt>
      <trkpt lat="47.50063" lon="6.73542">
        <ele>346.84173823998</ele>
        <time>2014-12-07T11:10:39Z</time>
      </trkpt>
      <trkpt lat="47.50063" lon="6.73549">
        <ele>347.00786815999</ele>
        <time>2014-12-07T11:10:40Z</time>
      </trkpt>
      <trkpt lat="47.50062" lon="6.73556">
        <ele>347.17718144002</ele>
        <time>2014-12-07T11:10:41Z</time>
      </trkpt>
      <trkpt lat="47.50062" lon="6.73563">
        <ele>347.33285888003</ele>
        <time>2014-12-07T11:10:42Z</time>
      </trkpt>
      <trkpt lat="47.50061" lon="6.7357">
        <ele>347.50752895999</ele>
        <time>2014-12-07T11:10:43Z</time>
      </trkpt>
      <trkpt lat="47.50062" lon="6.73578">
        <ele>347.78381119998</ele>
        <time>2014-12-07T11:10:44Z</time>
      </trkpt>
      <trkpt lat="47.50062" lon="6.73585">
        <ele>348.0033096</ele>
        <time>2014-12-07T11:10:45Z</time>
      </trkpt>
      <trkpt lat="47.50062" lon="6.73591">
        <ele>348.28728480003</ele>
        <time>2014-12-07T11:10:46Z</time>
      </trkpt>
      <trkpt lat="47.50062" lon="6.73598">
        <ele>348.55522560001</ele>
        <time>2014-12-07T11:10:47Z</time>
      </trkpt>
      <trkpt lat="47.50062" lon="6.73604">
        <ele>348.82796879998</ele>
        <time>2014-12-07T11:10:48Z</time>
      </trkpt>
      <trkpt lat="47.50061" lon="6.73609">
        <ele>349.02465119999</ele>
        <time>2014-12-07T11:10:49Z</time>
      </trkpt>
      <trkpt lat="47.50062" lon="6.73614">
        <ele>349.28259840001</ele>
        <time>2014-12-07T11:10:50Z</time>
      </trkpt>
      <trkpt lat="47.50061" lon="6.7362">
        <ele>349.46884799996</ele>
        <time>2014-12-07T11:10:51Z</time>
      </trkpt>
      <trkpt lat="47.50061" lon="6.73625">
        <ele>349.65257040003</ele>
        <time>2014-12-07T11:10:52Z</time>
      </trkpt>
      <trkpt lat="47.50061" lon="6.73631">
        <ele>349.91894879996</ele>
        <time>2014-12-07T11:10:53Z</time>
      </trkpt>
      <trkpt lat="47.50061" lon="6.73636">
        <ele>350.12864159997</ele>
        <time>2014-12-07T11:10:54Z</time>
      </trkpt>
      <trkpt lat="47.5006" lon="6.73642">
        <ele>350.33664960004</ele>
        <time>2014-12-07T11:10:55Z</time>
      </trkpt>
      <trkpt lat="47.5006" lon="6.73647">
        <ele>350.54743680001</ele>
        <time>2014-12-07T11:10:56Z</time>
      </trkpt>
      <trkpt lat="47.5006" lon="6.73653">
        <ele>350.75231999998</ele>
        <time>2014-12-07T11:10:57Z</time>
      </trkpt>
      <trkpt lat="47.5006" lon="6.73658">
        <ele>350.97062400002</ele>
        <time>2014-12-07T11:10:58Z</time>
      </trkpt>
      <trkpt lat="47.5006" lon="6.73664">
        <ele>351.19245599995</ele>
        <time>2014-12-07T11:10:59Z</time>
      </trkpt>
      <trkpt lat="47.5006" lon="6.73669">
        <ele>351.43124799998</ele>
        <time>2014-12-07T11:11:00Z</time>
      </trkpt>
      <trkpt lat="47.50059" lon="6.73713">
        <ele>352.58987967996</ele>
        <time>2014-12-07T11:11:08Z</time>
      </trkpt>
      <trkpt lat="47.50059" lon="6.73719">
        <ele>352.74965247996</ele>
        <time>2014-12-07T11:11:09Z</time>
      </trkpt>
      <trkpt lat="47.50059" lon="6.73725">
        <ele>352.91523519996</ele>
        <time>2014-12-07T11:11:10Z</time>
      </trkpt>
      <trkpt lat="47.50059" lon="6.7373">
        <ele>353.12149887999</ele>
        <time>2014-12-07T11:11:11Z</time>
      </trkpt>
      <trkpt lat="47.5006" lon="6.73736">
        <ele>353.32552576003</ele>
        <time>2014-12-07T11:11:12Z</time>
      </trkpt>
      <trkpt lat="47.5006" lon="6.73743">
        <ele>353.63375199997</ele>
        <time>2014-12-07T11:11:13Z</time>
      </trkpt>
      <trkpt lat="47.50061" lon="6.73749">
        <ele>353.96248383999</ele>
        <time>2014-12-07T11:11:14Z</time>
      </trkpt>
      <trkpt lat="47.50062" lon="6.73755">
        <ele>354.18922192001</ele>
        <time>2014-12-07T11:11:15Z</time>
      </trkpt>
      <trkpt lat="47.50063" lon="6.73761">
        <ele>354.36921183995</ele>
        <time>2014-12-07T11:11:15Z</time>
      </trkpt>
      <trkpt lat="47.50064" lon="6.73768">
        <ele>354.58251040004</ele>
        <time>2014-12-07T11:11:17Z</time>
      </trkpt>
      <trkpt lat="47.50064" lon="6.73774">
        <ele>354.75437439999</ele>
        <time>2014-12-07T11:11:18Z</time>
      </trkpt>
      <trkpt lat="47.50065" lon="6.7378">
        <ele>354.92009968005</ele>
        <time>2014-12-07T11:11:19Z</time>
      </trkpt>
      <trkpt lat="47.50066" lon="6.73786">
        <ele>355.09794831995</ele>
        <time>2014-12-07T11:11:20Z</time>
      </trkpt>
      <trkpt lat="47.50066" lon="6.73791">
        <ele>355.23790192005</ele>
        <time>2014-12-07T11:11:21Z</time>
      </trkpt>
      <trkpt lat="47.50067" lon="6.73797">
        <ele>355.35826431996</ele>
        <time>2014-12-07T11:11:22Z</time>
      </trkpt>
      <trkpt lat="47.50068" lon="6.73802">
        <ele>355.50841600002</ele>
        <time>2014-12-07T11:11:23Z</time>
      </trkpt>
      <trkpt lat="47.50068" lon="6.73808">
        <ele>355.6396864</ele>
        <time>2014-12-07T11:11:24Z</time>
      </trkpt>
      <trkpt lat="47.50069" lon="6.73814">
        <ele>355.73883039996</ele>
        <time>2014-12-07T11:11:25Z</time>
      </trkpt>
      <trkpt lat="47.50069" lon="6.7382">
        <ele>355.80598335999</ele>
        <time>2014-12-07T11:11:26Z</time>
      </trkpt>
      <trkpt lat="47.50069" lon="6.73826">
        <ele>355.88749599998</ele>
        <time>2014-12-07T11:11:27Z</time>
      </trkpt>
      <trkpt lat="47.50069" lon="6.73831">
        <ele>355.98075904004</ele>
        <time>2014-12-07T11:11:28Z</time>
      </trkpt>
      <trkpt lat="47.5007" lon="6.73837">
        <ele>356.00597119996</ele>
        <time>2014-12-07T11:11:29Z</time>
      </trkpt>
      <trkpt lat="47.50071" lon="6.73843">
        <ele>356.02248703998</ele>
        <time>2014-12-07T11:11:30Z</time>
      </trkpt>
      <trkpt lat="47.50072" lon="6.73849">
        <ele>356.03365759999</ele>
        <time>2014-12-07T11:11:31Z</time>
      </trkpt>
      <trkpt lat="47.50073" lon="6.73855">
        <ele>356.0772608</ele>
        <time>2014-12-07T11:11:32Z</time>
      </trkpt>
      <trkpt lat="47.50074" lon="6.7386">
        <ele>356.10422528004</ele>
        <time>2014-12-07T11:11:33Z</time>
      </trkpt>
      <trkpt lat="47.50075" lon="6.73866">
        <ele>356.18916992001</ele>
        <time>2014-12-07T11:11:34Z</time>
      </trkpt>
      <trkpt lat="47.50077" lon="6.73871">
        <ele>356.30105983998</ele>
        <time>2014-12-07T11:11:35Z</time>
      </trkpt>
      <trkpt lat="47.50078" lon="6.73877">
        <ele>356.36779904004</ele>
        <time>2014-12-07T11:11:36Z</time>
      </trkpt>
      <trkpt lat="47.50079" lon="6.73883">
        <ele>356.33969407997</ele>
        <time>2014-12-07T11:11:37Z</time>
      </trkpt>
      <trkpt lat="47.5008" lon="6.73889">
        <ele>356.25703040001</ele>
        <time>2014-12-07T11:11:38Z</time>
      </trkpt>
      <trkpt lat="47.5008" lon="6.73894">
        <ele>356.16076544001</ele>
        <time>2014-12-07T11:11:39Z</time>
      </trkpt>
      <trkpt lat="47.5008" lon="6.739">
        <ele>356.06912</ele>
        <time>2014-12-07T11:11:40Z</time>
      </trkpt>
      <trkpt lat="47.50081" lon="6.73906">
        <ele>356.00625151999</ele>
        <time>2014-12-07T11:11:41Z</time>
      </trkpt>
      <trkpt lat="47.50081" lon="6.73911">
        <ele>355.94408959998</ele>
        <time>2014-12-07T11:11:42Z</time>
      </trkpt>
      <trkpt lat="47.50082" lon="6.73916">
        <ele>355.88284159997</ele>
        <time>2014-12-07T11:11:43Z</time>
      </trkpt>
      <trkpt lat="47.50083" lon="6.73921">
        <ele>355.98813568003</ele>
        <time>2014-12-07T11:11:44Z</time>
      </trkpt>
      <trkpt lat="47.50083" lon="6.73925">
        <ele>356.03867008003</ele>
        <time>2014-12-07T11:11:45Z</time>
      </trkpt>
      <trkpt lat="47.50082" lon="6.73929">
        <ele>356.06834560001</ele>
        <time>2014-12-07T11:11:46Z</time>
      </trkpt>
      <trkpt lat="47.50082" lon="6.73933">
        <ele>356.09239168002</ele>
        <time>2014-12-07T11:11:47Z</time>
      </trkpt>
      <trkpt lat="47.5008" lon="6.73939">
        <ele>356.00149504002</ele>
        <time>2014-12-07T11:11:48Z</time>
      </trkpt>
      <trkpt lat="47.5008" lon="6.73946">
        <ele>356.08212736001</ele>
        <time>2014-12-07T11:11:49Z</time>
      </trkpt>
      <trkpt lat="47.50081" lon="6.73951">
        <ele>356.24820543999</ele>
        <time>2014-12-07T11:11:50Z</time>
      </trkpt>
      <trkpt lat="47.50082" lon="6.73957">
        <ele>356.37732160002</ele>
        <time>2014-12-07T11:11:51Z</time>
      </trkpt>
      <trkpt lat="47.50083" lon="6.73963">
        <ele>356.5541344</ele>
        <time>2014-12-07T11:11:52Z</time>
      </trkpt>
      <trkpt lat="47.50085" lon="6.73969">
        <ele>357.00535808004</ele>
        <time>2014-12-07T11:11:53Z</time>
      </trkpt>
      <trkpt lat="47.50087" lon="6.73975">
        <ele>357.49341727997</ele>
        <time>2014-12-07T11:11:54Z</time>
      </trkpt>
      <trkpt lat="47.5009" lon="6.73981">
        <ele>357.984632</ele>
        <time>2014-12-07T11:11:55Z</time>
      </trkpt>
      <trkpt lat="47.50091" lon="6.73986">
        <ele>358.35549152004</ele>
        <time>2014-12-07T11:11:56Z</time>
      </trkpt>
      <trkpt lat="47.50093" lon="6.73991">
        <ele>358.73042816003</ele>
        <time>2014-12-07T11:11:57Z</time>
      </trkpt>
      <trkpt lat="47.50095" lon="6.73996">
        <ele>359.14487647993</ele>
        <time>2014-12-07T11:11:58Z</time>
      </trkpt>
      <trkpt lat="47.50097" lon="6.74001">
        <ele>359.67258368</ele>
        <time>2014-12-07T11:11:59Z</time>
      </trkpt>
      <trkpt lat="47.50099" lon="6.74006">
        <ele>360.62707520003</ele>
        <time>2014-12-07T11:12:00Z</time>
      </trkpt>
      <trkpt lat="47.50112" lon="6.74045">
        <ele>366.18060800001</ele>
        <time>2014-12-07T11:12:08Z</time>
      </trkpt>
      <trkpt lat="47.50147" lon="6.74163">
        <ele>369.81732864</ele>
        <time>2014-12-07T11:12:34Z</time>
      </trkpt>
      <trkpt lat="47.50151" lon="6.7417">
        <ele>369.49790560001</ele>
        <time>2014-12-07T11:12:35Z</time>
      </trkpt>
      <trkpt lat="47.50154" lon="6.74175">
        <ele>369.00610144</ele>
        <time>2014-12-07T11:12:36Z</time>
      </trkpt>
      <trkpt lat="47.50158" lon="6.74181">
        <ele>368.475616</ele>
        <time>2014-12-07T11:12:37Z</time>
      </trkpt>
      <trkpt lat="47.50161" lon="6.74187">
        <ele>367.92837472</ele>
        <time>2014-12-07T11:12:38Z</time>
      </trkpt>
      <trkpt lat="47.50164" lon="6.74194">
        <ele>367.3351816</ele>
        <time>2014-12-07T11:12:39Z</time>
      </trkpt>
      <trkpt lat="47.50167" lon="6.742">
        <ele>366.76047616</ele>
        <time>2014-12-07T11:12:40Z</time>
      </trkpt>
      <trkpt lat="47.5017" lon="6.74207">
        <ele>366.58733568003</ele>
        <time>2014-12-07T11:12:41Z</time>
      </trkpt>
      <trkpt lat="47.50173" lon="6.74213">
        <ele>366.4434432</ele>
        <time>2014-12-07T11:12:42Z</time>
      </trkpt>
      <trkpt lat="47.50179" lon="6.74224">
        <ele>366.29234784001</ele>
        <time>2014-12-07T11:12:43Z</time>
      </trkpt>
      <trkpt lat="47.50182" lon="6.74229">
        <ele>366.31859135996</ele>
        <time>2014-12-07T11:12:44Z</time>
      </trkpt>
      <trkpt lat="47.50185" lon="6.74235">
        <ele>366.22378176</ele>
        <time>2014-12-07T11:12:45Z</time>
      </trkpt>
      <trkpt lat="47.50188" lon="6.74241">
        <ele>366.12136320004</ele>
        <time>2014-12-07T11:12:46Z</time>
      </trkpt>
      <trkpt lat="47.50191" lon="6.74247">
        <ele>365.95866720001</ele>
        <time>2014-12-07T11:12:47Z</time>
      </trkpt>
      <trkpt lat="47.50194" lon="6.74254">
        <ele>365.82197760001</ele>
        <time>2014-12-07T11:12:48Z</time>
      </trkpt>
      <trkpt lat="47.50197" lon="6.7426">
        <ele>365.68055615997</ele>
        <time>2014-12-07T11:12:49Z</time>
      </trkpt>
      <trkpt lat="47.502" lon="6.74268">
        <ele>365.31144000004</ele>
        <time>2014-12-07T11:12:50Z</time>
      </trkpt>
      <trkpt lat="47.50203" lon="6.74274">
        <ele>365.12632512003</ele>
        <time>2014-12-07T11:12:51Z</time>
      </trkpt>
      <trkpt lat="47.50207" lon="6.74281">
        <ele>364.83362831999</ele>
        <time>2014-12-07T11:12:52Z</time>
      </trkpt>
      <trkpt lat="47.5021" lon="6.74287">
        <ele>364.53025728001</ele>
        <time>2014-12-07T11:12:53Z</time>
      </trkpt>
      <trkpt lat="47.50213" lon="6.74292">
        <ele>364.23035904004</ele>
        <time>2014-12-07T11:12:54Z</time>
      </trkpt>
      <trkpt lat="47.50216" lon="6.74297">
        <ele>363.87387983998</ele>
        <time>2014-12-07T11:12:55Z</time>
      </trkpt>
      <trkpt lat="47.50218" lon="6.74301">
        <ele>363.52606512</ele>
        <time>2014-12-07T11:12:56Z</time>
      </trkpt>
      <trkpt lat="47.50219" lon="6.74305">
        <ele>363.10811519998</ele>
        <time>2014-12-07T11:12:57Z</time>
      </trkpt>
      <trkpt lat="47.5022" lon="6.74308">
        <ele>362.84395200002</ele>
        <time>2014-12-07T11:12:58Z</time>
      </trkpt>
      <trkpt lat="47.50221" lon="6.74311">
        <ele>362.61686880002</ele>
        <time>2014-12-07T11:13:00Z</time>
      </trkpt>
      <trkpt lat="47.50223" lon="6.74312">
        <ele>362.53170528001</ele>
        <time>2014-12-07T11:13:03Z</time>
      </trkpt>
      <trkpt lat="47.50227" lon="6.74315">
        <ele>362.46965279999</ele>
        <time>2014-12-07T11:13:50Z</time>
      </trkpt>
      <trkpt lat="47.50228" lon="6.74317">
        <ele>362.31997440002</ele>
        <time>2014-12-07T11:13:51Z</time>
      </trkpt>
      <trkpt lat="47.5023" lon="6.74319">
        <ele>362.07459072002</ele>
        <time>2014-12-07T11:13:52Z</time>
      </trkpt>
      <trkpt lat="47.50233" lon="6.74322">
        <ele>361.78413887997</ele>
        <time>2014-12-07T11:13:53Z</time>
      </trkpt>
      <trkpt lat="47.50235" lon="6.74325">
        <ele>361.53285599999</ele>
        <time>2014-12-07T11:13:54Z</time>
      </trkpt>
      <trkpt lat="47.50238" lon="6.74328">
        <ele>361.26067007999</ele>
        <time>2014-12-07T11:13:55Z</time>
      </trkpt>
      <trkpt lat="47.5024" lon="6.7433">
        <ele>361.02661631999</ele>
        <time>2014-12-07T11:13:56Z</time>
      </trkpt>
      <trkpt lat="47.50243" lon="6.74333">
        <ele>360.67152160002</ele>
        <time>2014-12-07T11:13:57Z</time>
      </trkpt>
      <trkpt lat="47.50246" lon="6.74337">
        <ele>360.40005280001</ele>
        <time>2014-12-07T11:13:58Z</time>
      </trkpt>
      <trkpt lat="47.50249" lon="6.74341">
        <ele>360.08660800001</ele>
        <time>2014-12-07T11:13:59Z</time>
      </trkpt>
      <trkpt lat="47.50252" lon="6.74346">
        <ele>359.77659519998</ele>
        <time>2014-12-07T11:14:00Z</time>
      </trkpt>
      <trkpt lat="47.50268" lon="6.74385">
        <ele>356.39186944</ele>
        <time>2014-12-07T11:14:08Z</time>
      </trkpt>
      <trkpt lat="47.5027" lon="6.74391">
        <ele>355.76282080001</ele>
        <time>2014-12-07T11:14:09Z</time>
      </trkpt>
      <trkpt lat="47.50271" lon="6.74396">
        <ele>355.16987392001</ele>
        <time>2014-12-07T11:14:10Z</time>
      </trkpt>
      <trkpt lat="47.50273" lon="6.744">
        <ele>354.676744</ele>
        <time>2014-12-07T11:14:11Z</time>
      </trkpt>
      <trkpt lat="47.50274" lon="6.74404">
        <ele>354.22303264</ele>
        <time>2014-12-07T11:14:12Z</time>
      </trkpt>
      <trkpt lat="47.50275" lon="6.74408">
        <ele>353.77160416</ele>
        <time>2014-12-07T11:14:13Z</time>
      </trkpt>
      <trkpt lat="47.50277" lon="6.74413">
        <ele>353.13176704</ele>
        <time>2014-12-07T11:14:14Z</time>
      </trkpt>
      <trkpt lat="47.50278" lon="6.7442">
        <ele>352.576</ele>
        <time>2014-12-07T11:14:15Z</time>
      </trkpt>
      <trkpt lat="47.5028" lon="6.74425">
        <ele>352.43560000001</ele>
        <time>2014-12-07T11:14:16Z</time>
      </trkpt>
      <trkpt lat="47.50281" lon="6.74429">
        <ele>352.2988</ele>
        <time>2014-12-07T11:14:17Z</time>
      </trkpt>
      <trkpt lat="47.50283" lon="6.74435">
        <ele>352.13920000001</ele>
        <time>2014-12-07T11:14:18Z</time>
      </trkpt>
      <trkpt lat="47.50284" lon="6.7444">
        <ele>351.97119999999</ele>
        <time>2014-12-07T11:14:19Z</time>
      </trkpt>
      <trkpt lat="47.50286" lon="6.74447">
        <ele>351.748</ele>
        <time>2014-12-07T11:14:20Z</time>
      </trkpt>
      <trkpt lat="47.50287" lon="6.74453">
        <ele>351.568</ele>
        <time>2014-12-07T11:14:21Z</time>
      </trkpt>
      <trkpt lat="47.50287" lon="6.7446">
        <ele>351.3484</ele>
        <time>2014-12-07T11:14:22Z</time>
      </trkpt>
      <trkpt lat="47.50289" lon="6.74467">
        <ele>351.13</ele>
        <time>2014-12-07T11:14:23Z</time>
      </trkpt>
      <trkpt lat="47.5029" lon="6.74473">
        <ele>350.92</ele>
        <time>2014-12-07T11:14:24Z</time>
      </trkpt>
      <trkpt lat="47.5029" lon="6.7448">
        <ele>350.67640000001</ele>
        <time>2014-12-07T11:14:25Z</time>
      </trkpt>
      <trkpt lat="47.5029" lon="6.74488">
        <ele>350.398</ele>
        <time>2014-12-07T11:14:26Z</time>
      </trkpt>
      <trkpt lat="47.50291" lon="6.74496">
        <ele>350.14119999999</ele>
        <time>2014-12-07T11:14:27Z</time>
      </trkpt>
      <trkpt lat="47.50291" lon="6.74504">
        <ele>349.80402928</ele>
        <time>2014-12-07T11:14:28Z</time>
      </trkpt>
      <trkpt lat="47.5029" lon="6.74512">
        <ele>349.44653824</ele>
        <time>2014-12-07T11:14:29Z</time>
      </trkpt>
      <trkpt lat="47.5029" lon="6.74521">
        <ele>349.09255264001</ele>
        <time>2014-12-07T11:14:30Z</time>
      </trkpt>
      <trkpt lat="47.5029" lon="6.74529">
        <ele>348.73645408</ele>
        <time>2014-12-07T11:14:31Z</time>
      </trkpt>
      <trkpt lat="47.5029" lon="6.74538">
        <ele>348.34093696001</ele>
        <time>2014-12-07T11:14:32Z</time>
      </trkpt>
      <trkpt lat="47.5029" lon="6.74547">
        <ele>347.96707168001</ele>
        <time>2014-12-07T11:14:33Z</time>
      </trkpt>
      <trkpt lat="47.50291" lon="6.74556">
        <ele>347.59693696001</ele>
        <time>2014-12-07T11:14:34Z</time>
      </trkpt>
      <trkpt lat="47.50291" lon="6.74566">
        <ele>347.1931288</ele>
        <time>2014-12-07T11:14:35Z</time>
      </trkpt>
      <trkpt lat="47.5029" lon="6.74575">
        <ele>346.81509904001</ele>
        <time>2014-12-07T11:14:36Z</time>
      </trkpt>
      <trkpt lat="47.50291" lon="6.74585">
        <ele>346.4263184</ele>
        <time>2014-12-07T11:14:37Z</time>
      </trkpt>
      <trkpt lat="47.50291" lon="6.74594">
        <ele>346.13033120001</ele>
        <time>2014-12-07T11:14:38Z</time>
      </trkpt>
      <trkpt lat="47.50291" lon="6.74604">
        <ele>345.84202879999</ele>
        <time>2014-12-07T11:14:39Z</time>
      </trkpt>
      <trkpt lat="47.50291" lon="6.74614">
        <ele>345.52660159999</ele>
        <time>2014-12-07T11:14:40Z</time>
      </trkpt>
      <trkpt lat="47.50292" lon="6.74624">
        <ele>345.29169440001</ele>
        <time>2014-12-07T11:14:41Z</time>
      </trkpt>
      <trkpt lat="47.50293" lon="6.74635">
        <ele>345.06940399998</ele>
        <time>2014-12-07T11:14:42Z</time>
      </trkpt>
      <trkpt lat="47.50293" lon="6.74644">
        <ele>344.79928640001</ele>
        <time>2014-12-07T11:14:43Z</time>
      </trkpt>
      <trkpt lat="47.50293" lon="6.74654">
        <ele>344.47262719998</ele>
        <time>2014-12-07T11:14:44Z</time>
      </trkpt>
      <trkpt lat="47.50293" lon="6.74664">
        <ele>344.22213439999</ele>
        <time>2014-12-07T11:14:45Z</time>
      </trkpt>
      <trkpt lat="47.50293" lon="6.74675">
        <ele>343.94064639999</ele>
        <time>2014-12-07T11:14:46Z</time>
      </trkpt>
      <trkpt lat="47.50293" lon="6.74685">
        <ele>343.664656</ele>
        <time>2014-12-07T11:14:47Z</time>
      </trkpt>
      <trkpt lat="47.50292" lon="6.74695">
        <ele>343.34515840003</ele>
        <time>2014-12-07T11:14:48Z</time>
      </trkpt>
      <trkpt lat="47.50291" lon="6.74706">
        <ele>343.02146751999</ele>
        <time>2014-12-07T11:14:49Z</time>
      </trkpt>
      <trkpt lat="47.5029" lon="6.74716">
        <ele>342.64947711999</ele>
        <time>2014-12-07T11:14:50Z</time>
      </trkpt>
      <trkpt lat="47.50289" lon="6.74727">
        <ele>342.23832640004</ele>
        <time>2014-12-07T11:14:51Z</time>
      </trkpt>
      <trkpt lat="47.50287" lon="6.74738">
        <ele>341.76337695999</ele>
        <time>2014-12-07T11:14:52Z</time>
      </trkpt>
      <trkpt lat="47.50285" lon="6.74749">
        <ele>341.23628800003</ele>
        <time>2014-12-07T11:14:53Z</time>
      </trkpt>
      <trkpt lat="47.50283" lon="6.74759">
        <ele>340.85546272004</ele>
        <time>2014-12-07T11:14:54Z</time>
      </trkpt>
      <trkpt lat="47.5028" lon="6.7477">
        <ele>340.483264</ele>
        <time>2014-12-07T11:14:55Z</time>
      </trkpt>
      <trkpt lat="47.50277" lon="6.7478">
        <ele>340.00583296003</ele>
        <time>2014-12-07T11:14:56Z</time>
      </trkpt>
      <trkpt lat="47.50274" lon="6.74791">
        <ele>339.54569824</ele>
        <time>2014-12-07T11:14:57Z</time>
      </trkpt>
      <trkpt lat="47.50271" lon="6.74801">
        <ele>339.03315327998</ele>
        <time>2014-12-07T11:14:58Z</time>
      </trkpt>
      <trkpt lat="47.50267" lon="6.74812">
        <ele>338.45159680003</ele>
        <time>2014-12-07T11:14:59Z</time>
      </trkpt>
      <trkpt lat="47.50264" lon="6.74823">
        <ele>337.94111632003</ele>
        <time>2014-12-07T11:15:00Z</time>
      </trkpt>
      <trkpt lat="47.50243" lon="6.74906">
        <ele>336.0804</ele>
        <time>2014-12-07T11:15:08Z</time>
      </trkpt>
      <trkpt lat="47.50241" lon="6.74918">
        <ele>336.1114528</ele>
        <time>2014-12-07T11:15:09Z</time>
      </trkpt>
      <trkpt lat="47.50239" lon="6.74929">
        <ele>336.183256</ele>
        <time>2014-12-07T11:15:10Z</time>
      </trkpt>
      <trkpt lat="47.50235" lon="6.74939">
        <ele>336.2067304</ele>
        <time>2014-12-07T11:15:11Z</time>
      </trkpt>
      <trkpt lat="47.50231" lon="6.7495">
        <ele>336.172672</ele>
        <time>2014-12-07T11:15:12Z</time>
      </trkpt>
      <trkpt lat="47.50226" lon="6.74959">
        <ele>336.065008</ele>
        <time>2014-12-07T11:15:13Z</time>
      </trkpt>
      <trkpt lat="47.5022" lon="6.74966">
        <ele>335.8777984</ele>
        <time>2014-12-07T11:15:14Z</time>
      </trkpt>
      <trkpt lat="47.50213" lon="6.74973">
        <ele>335.613568</ele>
        <time>2014-12-07T11:15:15Z</time>
      </trkpt>
      <trkpt lat="47.50207" lon="6.74981">
        <ele>335.3106304</ele>
        <time>2014-12-07T11:15:16Z</time>
      </trkpt>
      <trkpt lat="47.50203" lon="6.74989">
        <ele>334.9780408</ele>
        <time>2014-12-07T11:15:17Z</time>
      </trkpt>
      <trkpt lat="47.50202" lon="6.75">
        <ele>334.69119999999</ele>
        <time>2014-12-07T11:15:18Z</time>
      </trkpt>
      <trkpt lat="47.502" lon="6.75014">
        <ele>334.0946224</ele>
        <time>2014-12-07T11:15:19Z</time>
      </trkpt>
      <trkpt lat="47.50199" lon="6.75026">
        <ele>333.59868159998</ele>
        <time>2014-12-07T11:15:20Z</time>
      </trkpt>
      <trkpt lat="47.50197" lon="6.75036">
        <ele>333.1120048</ele>
        <time>2014-12-07T11:15:21Z</time>
      </trkpt>
      <trkpt lat="47.50196" lon="6.75046">
        <ele>332.63927440001</ele>
        <time>2014-12-07T11:15:22Z</time>
      </trkpt>
      <trkpt lat="47.50195" lon="6.75056">
        <ele>332.13268479999</ele>
        <time>2014-12-07T11:15:23Z</time>
      </trkpt>
      <trkpt lat="47.50194" lon="6.75065">
        <ele>331.63159600003</ele>
        <time>2014-12-07T11:15:24Z</time>
      </trkpt>
      <trkpt lat="47.50193" lon="6.75075">
        <ele>331.12258</ele>
        <time>2014-12-07T11:15:25Z</time>
      </trkpt>
      <trkpt lat="47.50192" lon="6.75085">
        <ele>330.61442240001</ele>
        <time>2014-12-07T11:15:26Z</time>
      </trkpt>
      <trkpt lat="47.50191" lon="6.75093">
        <ele>329.92096160001</ele>
        <time>2014-12-07T11:15:27Z</time>
      </trkpt>
      <trkpt lat="47.50189" lon="6.75102">
        <ele>329.19967616</ele>
        <time>2014-12-07T11:15:28Z</time>
      </trkpt>
      <trkpt lat="47.50188" lon="6.75111">
        <ele>328.44400640001</ele>
        <time>2014-12-07T11:15:29Z</time>
      </trkpt>
      <trkpt lat="47.50185" lon="6.7512">
        <ele>327.64177855997</ele>
        <time>2014-12-07T11:15:30Z</time>
      </trkpt>
      <trkpt lat="47.5018" lon="6.75125">
        <ele>326.71289120001</ele>
        <time>2014-12-07T11:15:31Z</time>
      </trkpt>
      <trkpt lat="47.50174" lon="6.75131">
        <ele>325.89070879998</ele>
        <time>2014-12-07T11:15:32Z</time>
      </trkpt>
      <trkpt lat="47.50169" lon="6.75136">
        <ele>325.04975359999</ele>
        <time>2014-12-07T11:15:33Z</time>
      </trkpt>
      <trkpt lat="47.50163" lon="6.75141">
        <ele>324.66655679999</ele>
        <time>2014-12-07T11:15:34Z</time>
      </trkpt>
      <trkpt lat="47.50158" lon="6.75145">
        <ele>324.53905344001</ele>
        <time>2014-12-07T11:15:35Z</time>
      </trkpt>
      <trkpt lat="47.50152" lon="6.75149">
        <ele>324.38764608</ele>
        <time>2014-12-07T11:15:36Z</time>
      </trkpt>
      <trkpt lat="47.50147" lon="6.75154">
        <ele>324.15699264</ele>
        <time>2014-12-07T11:15:37Z</time>
      </trkpt>
      <trkpt lat="47.50142" lon="6.75158">
        <ele>323.9774304</ele>
        <time>2014-12-07T11:15:38Z</time>
      </trkpt>
      <trkpt lat="47.50137" lon="6.75161">
        <ele>323.80207296</ele>
        <time>2014-12-07T11:15:39Z</time>
      </trkpt>
      <trkpt lat="47.50132" lon="6.75165">
        <ele>323.52656832</ele>
        <time>2014-12-07T11:15:40Z</time>
      </trkpt>
      <trkpt lat="47.50127" lon="6.7517">
        <ele>323.36588992</ele>
        <time>2014-12-07T11:15:41Z</time>
      </trkpt>
      <trkpt lat="47.50121" lon="6.75174">
        <ele>323.2981408</ele>
        <time>2014-12-07T11:15:42Z</time>
      </trkpt>
      <trkpt lat="47.50115" lon="6.75177">
        <ele>323.22484384</ele>
        <time>2014-12-07T11:15:43Z</time>
      </trkpt>
      <trkpt lat="47.50109" lon="6.7518">
        <ele>323.153824</ele>
        <time>2014-12-07T11:15:44Z</time>
      </trkpt>
      <trkpt lat="47.50102" lon="6.75183">
        <ele>323.08612672</ele>
        <time>2014-12-07T11:15:45Z</time>
      </trkpt>
      <trkpt lat="47.50096" lon="6.75186">
        <ele>322.99367104</ele>
        <time>2014-12-07T11:15:46Z</time>
      </trkpt>
      <trkpt lat="47.5009" lon="6.75189">
        <ele>322.91101696</ele>
        <time>2014-12-07T11:15:47Z</time>
      </trkpt>
      <trkpt lat="47.50084" lon="6.75191">
        <ele>322.8263728</ele>
        <time>2014-12-07T11:15:48Z</time>
      </trkpt>
      <trkpt lat="47.50077" lon="6.75193">
        <ele>322.74435552</ele>
        <time>2014-12-07T11:15:49Z</time>
      </trkpt>
      <trkpt lat="47.50071" lon="6.75195">
        <ele>322.7118288</ele>
        <time>2014-12-07T11:15:50Z</time>
      </trkpt>
      <trkpt lat="47.50065" lon="6.75195">
        <ele>322.70077968</ele>
        <time>2014-12-07T11:15:51Z</time>
      </trkpt>
      <trkpt lat="47.50059" lon="6.75196">
        <ele>322.68503424</ele>
        <time>2014-12-07T11:15:52Z</time>
      </trkpt>
      <trkpt lat="47.50053" lon="6.75198">
        <ele>322.64898048</ele>
        <time>2014-12-07T11:15:53Z</time>
      </trkpt>
      <trkpt lat="47.50048" lon="6.75199">
        <ele>322.631976</ele>
        <time>2014-12-07T11:15:54Z</time>
      </trkpt>
      <trkpt lat="47.50042" lon="6.752">
        <ele>322.58626992</ele>
        <time>2014-12-07T11:15:55Z</time>
      </trkpt>
      <trkpt lat="47.50036" lon="6.75202">
        <ele>322.53918288</ele>
        <time>2014-12-07T11:15:56Z</time>
      </trkpt>
      <trkpt lat="47.50031" lon="6.75206">
        <ele>322.42111728</ele>
        <time>2014-12-07T11:15:57Z</time>
      </trkpt>
      <trkpt lat="47.50026" lon="6.7521">
        <ele>322.27776</ele>
        <time>2014-12-07T11:15:58Z</time>
      </trkpt>
      <trkpt lat="47.50022" lon="6.75215">
        <ele>322.0986312</ele>
        <time>2014-12-07T11:15:59Z</time>
      </trkpt>
      <trkpt lat="47.50018" lon="6.75221">
        <ele>321.89780544</ele>
        <time>2014-12-07T11:16:00Z</time>
      </trkpt>
      <trkpt lat="47.50008" lon="6.75272">
        <ele>321.50477856</ele>
        <time>2014-12-07T11:16:08Z</time>
      </trkpt>
      <trkpt lat="47.50009" lon="6.75281">
        <ele>321.741996</ele>
        <time>2014-12-07T11:16:09Z</time>
      </trkpt>
      <trkpt lat="47.5001" lon="6.75288">
        <ele>321.9543936</ele>
        <time>2014-12-07T11:16:10Z</time>
      </trkpt>
      <trkpt lat="47.5001" lon="6.75297">
        <ele>322.21502592</ele>
        <time>2014-12-07T11:16:11Z</time>
      </trkpt>
      <trkpt lat="47.50011" lon="6.75304">
        <ele>322.4235048</ele>
        <time>2014-12-07T11:16:12Z</time>
      </trkpt>
      <trkpt lat="47.50011" lon="6.75311">
        <ele>322.63194576</ele>
        <time>2014-12-07T11:16:13Z</time>
      </trkpt>
      <trkpt lat="47.50011" lon="6.75319">
        <ele>322.85033376</ele>
        <time>2014-12-07T11:16:14Z</time>
      </trkpt>
      <trkpt lat="47.50012" lon="6.75326">
        <ele>323.05901808001</ele>
        <time>2014-12-07T11:16:15Z</time>
      </trkpt>
      <trkpt lat="47.50012" lon="6.75333">
        <ele>323.27663472</ele>
        <time>2014-12-07T11:16:16Z</time>
      </trkpt>
      <trkpt lat="47.50013" lon="6.7534">
        <ele>323.96911679999</ele>
        <time>2014-12-07T11:16:17Z</time>
      </trkpt>
      <trkpt lat="47.50013" lon="6.75345">
        <ele>324.51342</ele>
        <time>2014-12-07T11:16:18Z</time>
      </trkpt>
      <trkpt lat="47.50013" lon="6.7535">
        <ele>325.00166976</ele>
        <time>2014-12-07T11:16:19Z</time>
      </trkpt>
      <trkpt lat="47.50012" lon="6.75355">
        <ele>325.53085344001</ele>
        <time>2014-12-07T11:16:20Z</time>
      </trkpt>
      <trkpt lat="47.50012" lon="6.75361">
        <ele>326.03979456</ele>
        <time>2014-12-07T11:16:21Z</time>
      </trkpt>
      <trkpt lat="47.5001" lon="6.75365">
        <ele>326.38921728001</ele>
        <time>2014-12-07T11:16:22Z</time>
      </trkpt>
      <trkpt lat="47.50008" lon="6.75369">
        <ele>326.71956000001</ele>
        <time>2014-12-07T11:16:23Z</time>
      </trkpt>
      <trkpt lat="47.50006" lon="6.75374">
        <ele>327.10155263999</ele>
        <time>2014-12-07T11:16:24Z</time>
      </trkpt>
      <trkpt lat="47.50004" lon="6.75379">
        <ele>327.54040224002</ele>
        <time>2014-12-07T11:16:25Z</time>
      </trkpt>
      <trkpt lat="47.50002" lon="6.75384">
        <ele>327.93692063999</ele>
        <time>2014-12-07T11:16:26Z</time>
      </trkpt>
      <trkpt lat="47.49999" lon="6.75389">
        <ele>328.30560768</ele>
        <time>2014-12-07T11:16:27Z</time>
      </trkpt>
      <trkpt lat="47.49997" lon="6.75393">
        <ele>328.65865631999</ele>
        <time>2014-12-07T11:16:28Z</time>
      </trkpt>
      <trkpt lat="47.49994" lon="6.75397">
        <ele>328.92206016001</ele>
        <time>2014-12-07T11:16:29Z</time>
      </trkpt>
      <trkpt lat="47.49991" lon="6.75401">
        <ele>329.1375792</ele>
        <time>2014-12-07T11:16:30Z</time>
      </trkpt>
      <trkpt lat="47.49988" lon="6.75404">
        <ele>329.36363519999</ele>
        <time>2014-12-07T11:16:31Z</time>
      </trkpt>
      <trkpt lat="47.49986" lon="6.75408">
        <ele>329.65573056001</ele>
        <time>2014-12-07T11:16:32Z</time>
      </trkpt>
      <trkpt lat="47.49985" lon="6.75412">
        <ele>330.03499824</ele>
        <time>2014-12-07T11:16:33Z</time>
      </trkpt>
      <trkpt lat="47.49986" lon="6.75417">
        <ele>330.46594560001</ele>
        <time>2014-12-07T11:16:34Z</time>
      </trkpt>
      <trkpt lat="47.49987" lon="6.7542">
        <ele>331.09638319999</ele>
        <time>2014-12-07T11:16:35Z</time>
      </trkpt>
      <trkpt lat="47.4999" lon="6.75424">
        <ele>331.833728</ele>
        <time>2014-12-07T11:16:37Z</time>
      </trkpt>
      <trkpt lat="47.49992" lon="6.75425">
        <ele>332.01257600001</ele>
        <time>2014-12-07T11:16:38Z</time>
      </trkpt>
      <trkpt lat="47.49994" lon="6.75427">
        <ele>332.424608</ele>
        <time>2014-12-07T11:16:40Z</time>
      </trkpt>
      <trkpt lat="47.49995" lon="6.75429">
        <ele>332.75647999999</ele>
        <time>2014-12-07T11:16:41Z</time>
      </trkpt>
      <trkpt lat="47.49996" lon="6.75434">
        <ele>333.58760959999</ele>
        <time>2014-12-07T11:16:43Z</time>
      </trkpt>
      <trkpt lat="47.49997" lon="6.75436">
        <ele>333.981392</ele>
        <time>2014-12-07T11:16:44Z</time>
      </trkpt>
      <trkpt lat="47.49999" lon="6.75442">
        <ele>334.91143520001</ele>
        <time>2014-12-07T11:16:47Z</time>
      </trkpt>
      <trkpt lat="47.49999" lon="6.75444">
        <ele>335.1866528</ele>
        <time>2014-12-07T11:16:48Z</time>
      </trkpt>
      <trkpt lat="47.5" lon="6.75448">
        <ele>335.81489600001</ele>
        <time>2014-12-07T11:16:50Z</time>
      </trkpt>
      <trkpt lat="47.50001" lon="6.7545">
        <ele>336.20394368</ele>
        <time>2014-12-07T11:16:51Z</time>
      </trkpt>
      <trkpt lat="47.50002" lon="6.75455">
        <ele>336.97204544</ele>
        <time>2014-12-07T11:16:53Z</time>
      </trkpt>
      <trkpt lat="47.50003" lon="6.75457">
        <ele>337.3339616</ele>
        <time>2014-12-07T11:16:54Z</time>
      </trkpt>
      <trkpt lat="47.50005" lon="6.75462">
        <ele>338.08003136</ele>
        <time>2014-12-07T11:16:56Z</time>
      </trkpt>
      <trkpt lat="47.50006" lon="6.75464">
        <ele>338.46053312</ele>
        <time>2014-12-07T11:16:57Z</time>
      </trkpt>
      <trkpt lat="47.50008" lon="6.7547">
        <ele>339.264992</ele>
        <time>2014-12-07T11:16:59Z</time>
      </trkpt>
      <trkpt lat="47.50008" lon="6.75473">
        <ele>339.67544</ele>
        <time>2014-12-07T11:17:00Z</time>
      </trkpt>
      <trkpt lat="47.50012" lon="6.75495">
        <ele>342.863168</ele>
        <time>2014-12-07T11:17:08Z</time>
      </trkpt>
      <trkpt lat="47.50012" lon="6.755">
        <ele>343.49691392</ele>
        <time>2014-12-07T11:17:10Z</time>
      </trkpt>
      <trkpt lat="47.50013" lon="6.75502">
        <ele>343.75792448001</ele>
        <time>2014-12-07T11:17:11Z</time>
      </trkpt>
      <trkpt lat="47.50014" lon="6.75508">
        <ele>344.25090415999</ele>
        <time>2014-12-07T11:17:13Z</time>
      </trkpt>
      <trkpt lat="47.50014" lon="6.7551">
        <ele>344.45828576001</ele>
        <time>2014-12-07T11:17:14Z</time>
      </trkpt>
      <trkpt lat="47.50015" lon="6.75506">
        <ele>343.96668559999</ele>
        <time>2014-12-07T11:17:27Z</time>
      </trkpt>
      <trkpt lat="47.50016" lon="6.75503">
        <ele>343.67294</ele>
        <time>2014-12-07T11:17:28Z</time>
      </trkpt>
      <trkpt lat="47.50016" lon="6.75499">
        <ele>343.27962176</ele>
        <time>2014-12-07T11:17:29Z</time>
      </trkpt>
      <trkpt lat="47.50016" lon="6.75495">
        <ele>342.6811328</ele>
        <time>2014-12-07T11:17:30Z</time>
      </trkpt>
      <trkpt lat="47.50016" lon="6.7549">
        <ele>342.1020032</ele>
        <time>2014-12-07T11:17:31Z</time>
      </trkpt>
      <trkpt lat="47.50015" lon="6.75486">
        <ele>341.54566400001</ele>
        <time>2014-12-07T11:17:32Z</time>
      </trkpt>
      <trkpt lat="47.50015" lon="6.75483">
        <ele>341.05265407999</ele>
        <time>2014-12-07T11:17:33Z</time>
      </trkpt>
      <trkpt lat="47.50014" lon="6.7548">
        <ele>340.6261472</ele>
        <time>2014-12-07T11:17:34Z</time>
      </trkpt>
      <trkpt lat="47.50018" lon="6.75475">
        <ele>340.02756992</ele>
        <time>2014-12-07T11:17:50Z</time>
      </trkpt>
      <trkpt lat="47.50018" lon="6.75475">
        <ele>340.01324288</ele>
        <time>2014-12-07T11:17:51Z</time>
      </trkpt>
      <trkpt lat="47.50014" lon="6.75472">
        <ele>339.5803328</ele>
        <time>2014-12-07T11:18:49Z</time>
      </trkpt>
      <trkpt lat="47.50014" lon="6.75472">
        <ele>339.55231232001</ele>
        <time>2014-12-07T11:18:50Z</time>
      </trkpt>
      <trkpt lat="47.50015" lon="6.75475">
        <ele>340.00660352</ele>
        <time>2014-12-07T11:19:00Z</time>
      </trkpt>
      <trkpt lat="47.50017" lon="6.7548">
        <ele>340.62857792001</ele>
        <time>2014-12-07T11:19:03Z</time>
      </trkpt>
      <trkpt lat="47.50018" lon="6.75485">
        <ele>341.32304</ele>
        <time>2014-12-07T11:19:05Z</time>
      </trkpt>
      <trkpt lat="47.50018" lon="6.75488">
        <ele>341.73567104</ele>
        <time>2014-12-07T11:19:06Z</time>
      </trkpt>
      <trkpt lat="47.50019" lon="6.75494">
        <ele>342.5124032</ele>
        <time>2014-12-07T11:19:08Z</time>
      </trkpt>
      <trkpt lat="47.50018" lon="6.75497">
        <ele>342.89596928</ele>
        <time>2014-12-07T11:19:09Z</time>
      </trkpt>
      <trkpt lat="47.50019" lon="6.75503">
        <ele>343.57137824</ele>
        <time>2014-12-07T11:19:11Z</time>
      </trkpt>
      <trkpt lat="47.50019" lon="6.75506">
        <ele>343.82243359998</ele>
        <time>2014-12-07T11:19:12Z</time>
      </trkpt>
      <trkpt lat="47.5002" lon="6.75512">
        <ele>344.33408</ele>
        <time>2014-12-07T11:19:14Z</time>
      </trkpt>
      <trkpt lat="47.50021" lon="6.75515">
        <ele>344.57204</ele>
        <time>2014-12-07T11:19:15Z</time>
      </trkpt>
      <trkpt lat="47.50021" lon="6.75521">
        <ele>345.03301567998</ele>
        <time>2014-12-07T11:19:17Z</time>
      </trkpt>
      <trkpt lat="47.50022" lon="6.75524">
        <ele>345.26860832001</ele>
        <time>2014-12-07T11:19:18Z</time>
      </trkpt>
      <trkpt lat="47.50022" lon="6.7553">
        <ele>345.77876288002</ele>
        <time>2014-12-07T11:19:20Z</time>
      </trkpt>
      <trkpt lat="47.50022" lon="6.75533">
        <ele>346.03683968003</ele>
        <time>2014-12-07T11:19:21Z</time>
      </trkpt>
      <trkpt lat="47.50023" lon="6.75538">
        <ele>346.42045279999</ele>
        <time>2014-12-07T11:19:23Z</time>
      </trkpt>
      <trkpt lat="47.50024" lon="6.75541">
        <ele>346.56307904</ele>
        <time>2014-12-07T11:19:24Z</time>
      </trkpt>
      <trkpt lat="47.50026" lon="6.75546">
        <ele>346.89230479997</ele>
        <time>2014-12-07T11:19:26Z</time>
      </trkpt>
      <trkpt lat="47.50026" lon="6.75549">
        <ele>347.07104768001</ele>
        <time>2014-12-07T11:19:27Z</time>
      </trkpt>
      <trkpt lat="47.50027" lon="6.75552">
        <ele>347.26187503998</ele>
        <time>2014-12-07T11:19:28Z</time>
      </trkpt>
      <trkpt lat="47.50028" lon="6.75555">
        <ele>347.42995903999</ele>
        <time>2014-12-07T11:19:29Z</time>
      </trkpt>
      <trkpt lat="47.50029" lon="6.75558">
        <ele>347.57502464002</ele>
        <time>2014-12-07T11:19:30Z</time>
      </trkpt>
      <trkpt lat="47.5003" lon="6.75561">
        <ele>347.71404223999</ele>
        <time>2014-12-07T11:19:31Z</time>
      </trkpt>
      <trkpt lat="47.50031" lon="6.75564">
        <ele>347.84701184003</ele>
        <time>2014-12-07T11:19:32Z</time>
      </trkpt>
      <trkpt lat="47.50032" lon="6.75567">
        <ele>347.97393344</ele>
        <time>2014-12-07T11:19:33Z</time>
      </trkpt>
      <trkpt lat="47.50033" lon="6.75571">
        <ele>348.12051104001</ele>
        <time>2014-12-07T11:19:34Z</time>
      </trkpt>
      <trkpt lat="47.50034" lon="6.75574">
        <ele>348.2574752</ele>
        <time>2014-12-07T11:19:35Z</time>
      </trkpt>
      <trkpt lat="47.50034" lon="6.75577">
        <ele>348.38561216002</ele>
        <time>2014-12-07T11:19:36Z</time>
      </trkpt>
      <trkpt lat="47.50035" lon="6.7558">
        <ele>348.48924895998</ele>
        <time>2014-12-07T11:19:37Z</time>
      </trkpt>
      <trkpt lat="47.50036" lon="6.75583">
        <ele>348.58683776003</ele>
        <time>2014-12-07T11:19:38Z</time>
      </trkpt>
      <trkpt lat="47.50038" lon="6.75586">
        <ele>348.84897791996</ele>
        <time>2014-12-07T11:19:39Z</time>
      </trkpt>
      <trkpt lat="47.5004" lon="6.75592">
        <ele>349.46071680003</ele>
        <time>2014-12-07T11:19:41Z</time>
      </trkpt>
      <trkpt lat="47.5004" lon="6.75595">
        <ele>349.78262015996</ele>
        <time>2014-12-07T11:19:42Z</time>
      </trkpt>
      <trkpt lat="47.50041" lon="6.75598">
        <ele>350.12866176003</ele>
        <time>2014-12-07T11:19:43Z</time>
      </trkpt>
      <trkpt lat="47.50042" lon="6.75601">
        <ele>350.52664319995</ele>
        <time>2014-12-07T11:19:44Z</time>
      </trkpt>
      <trkpt lat="47.50042" lon="6.75604">
        <ele>350.92118784003</ele>
        <time>2014-12-07T11:19:45Z</time>
      </trkpt>
      <trkpt lat="47.50043" lon="6.75608">
        <ele>351.31483200004</ele>
        <time>2014-12-07T11:19:46Z</time>
      </trkpt>
      <trkpt lat="47.50044" lon="6.75611">
        <ele>351.66403583999</ele>
        <time>2014-12-07T11:19:47Z</time>
      </trkpt>
      <trkpt lat="47.50045" lon="6.75614">
        <ele>351.98372352005</ele>
        <time>2014-12-07T11:19:48Z</time>
      </trkpt>
      <trkpt lat="47.50046" lon="6.75617">
        <ele>352.25745024003</ele>
        <time>2014-12-07T11:19:49Z</time>
      </trkpt>
      <trkpt lat="47.50047" lon="6.7562">
        <ele>352.52736576</ele>
        <time>2014-12-07T11:19:50Z</time>
      </trkpt>
      <trkpt lat="47.50048" lon="6.75623">
        <ele>352.80777215999</ele>
        <time>2014-12-07T11:19:51Z</time>
      </trkpt>
      <trkpt lat="47.50049" lon="6.75626">
        <ele>353.07026687997</ele>
        <time>2014-12-07T11:19:52Z</time>
      </trkpt>
      <trkpt lat="47.50051" lon="6.75631">
        <ele>353.49980544</ele>
        <time>2014-12-07T11:19:54Z</time>
      </trkpt>
      <trkpt lat="47.50052" lon="6.75634">
        <ele>353.65562880005</ele>
        <time>2014-12-07T11:19:55Z</time>
      </trkpt>
      <trkpt lat="47.50054" lon="6.75638">
        <ele>354.03102719999</ele>
        <time>2014-12-07T11:19:57Z</time>
      </trkpt>
      <trkpt lat="47.50055" lon="6.75641">
        <ele>354.21854591998</ele>
        <time>2014-12-07T11:19:58Z</time>
      </trkpt>
      <trkpt lat="47.50058" lon="6.75646">
        <ele>354.49430784001</ele>
        <time>2014-12-07T11:20:00Z</time>
      </trkpt>
      <trkpt lat="47.50059" lon="6.75648">
        <ele>354.58169856004</ele>
        <time>2014-12-07T11:20:01Z</time>
      </trkpt>
      <trkpt lat="47.50069" lon="6.75667">
        <ele>355.52837119997</ele>
        <time>2014-12-07T11:20:09Z</time>
      </trkpt>
      <trkpt lat="47.5007" lon="6.75671">
        <ele>355.96579328005</ele>
        <time>2014-12-07T11:20:11Z</time>
      </trkpt>
      <trkpt lat="47.50071" lon="6.75673">
        <ele>356.18853056002</ele>
        <time>2014-12-07T11:20:12Z</time>
      </trkpt>
      <trkpt lat="47.50073" lon="6.75677">
        <ele>356.36193919996</ele>
        <time>2014-12-07T11:20:14Z</time>
      </trkpt>
      <trkpt lat="47.50074" lon="6.75678">
        <ele>356.4435968</ele>
        <time>2014-12-07T11:20:15Z</time>
      </trkpt>
      <trkpt lat="47.50077" lon="6.75682">
        <ele>356.66516863998</ele>
        <time>2014-12-07T11:20:17Z</time>
      </trkpt>
      <trkpt lat="47.50078" lon="6.75685">
        <ele>356.92043455995</ele>
        <time>2014-12-07T11:20:18Z</time>
      </trkpt>
      <trkpt lat="47.50079" lon="6.75688">
        <ele>357.21203839997</ele>
        <time>2014-12-07T11:20:19Z</time>
      </trkpt>
      <trkpt lat="47.50081" lon="6.75691">
        <ele>357.5575616</ele>
        <time>2014-12-07T11:20:20Z</time>
      </trkpt>
      <trkpt lat="47.50082" lon="6.75694">
        <ele>357.87409664004</ele>
        <time>2014-12-07T11:20:21Z</time>
      </trkpt>
      <trkpt lat="47.50083" lon="6.75697">
        <ele>358.14617599999</ele>
        <time>2014-12-07T11:20:22Z</time>
      </trkpt>
      <trkpt lat="47.50086" lon="6.75702">
        <ele>358.925776</ele>
        <time>2014-12-07T11:20:24Z</time>
      </trkpt>
      <trkpt lat="47.50087" lon="6.75704">
        <ele>359.27142880001</ele>
        <time>2014-12-07T11:20:25Z</time>
      </trkpt>
      <trkpt lat="47.50089" lon="6.75709">
        <ele>359.9513536</ele>
        <time>2014-12-07T11:20:27Z</time>
      </trkpt>
      <trkpt lat="47.5009" lon="6.75711">
        <ele>360.287224</ele>
        <time>2014-12-07T11:20:28Z</time>
      </trkpt>
      <trkpt lat="47.50092" lon="6.75715">
        <ele>360.8707648</ele>
        <time>2014-12-07T11:20:30Z</time>
      </trkpt>
      <trkpt lat="47.50094" lon="6.75718">
        <ele>361.14814</ele>
        <time>2014-12-07T11:20:31Z</time>
      </trkpt>
      <trkpt lat="47.50097" lon="6.75722">
        <ele>361.61449599999</ele>
        <time>2014-12-07T11:20:33Z</time>
      </trkpt>
      <trkpt lat="47.50098" lon="6.75724">
        <ele>361.817152</ele>
        <time>2014-12-07T11:20:34Z</time>
      </trkpt>
      <trkpt lat="47.50101" lon="6.75728">
        <ele>362.17059999999</ele>
        <time>2014-12-07T11:20:36Z</time>
      </trkpt>
      <trkpt lat="47.50103" lon="6.7573">
        <ele>362.321956</ele>
        <time>2014-12-07T11:20:37Z</time>
      </trkpt>
      <trkpt lat="47.50105" lon="6.75732">
        <ele>362.46404800002</ele>
        <time>2014-12-07T11:20:38Z</time>
      </trkpt>
      <trkpt lat="47.50106" lon="6.75734">
        <ele>362.57797119999</ele>
        <time>2014-12-07T11:20:39Z</time>
      </trkpt>
      <trkpt lat="47.50108" lon="6.75736">
        <ele>362.6877928</ele>
        <time>2014-12-07T11:20:40Z</time>
      </trkpt>
      <trkpt lat="47.5011" lon="6.75738">
        <ele>362.80340800003</ele>
        <time>2014-12-07T11:20:41Z</time>
      </trkpt>
      <trkpt lat="47.50112" lon="6.7574">
        <ele>362.92926400001</ele>
        <time>2014-12-07T11:20:42Z</time>
      </trkpt>
      <trkpt lat="47.50113" lon="6.75743">
        <ele>363.02928640001</ele>
        <time>2014-12-07T11:20:43Z</time>
      </trkpt>
      <trkpt lat="47.50115" lon="6.75745">
        <ele>363.10170160001</ele>
        <time>2014-12-07T11:20:44Z</time>
      </trkpt>
      <trkpt lat="47.50117" lon="6.75747">
        <ele>363.148192</ele>
        <time>2014-12-07T11:20:45Z</time>
      </trkpt>
      <trkpt lat="47.50119" lon="6.7575">
        <ele>363.165184</ele>
        <time>2014-12-07T11:20:46Z</time>
      </trkpt>
      <trkpt lat="47.50121" lon="6.75752">
        <ele>363.04618959997</ele>
        <time>2014-12-07T11:20:47Z</time>
      </trkpt>
      <trkpt lat="47.50123" lon="6.75755">
        <ele>362.89972000001</ele>
        <time>2014-12-07T11:20:48Z</time>
      </trkpt>
      <trkpt lat="47.50126" lon="6.75758">
        <ele>362.744992</ele>
        <time>2014-12-07T11:20:49Z</time>
      </trkpt>
      <trkpt lat="47.50128" lon="6.75761">
        <ele>362.57914719996</ele>
        <time>2014-12-07T11:20:50Z</time>
      </trkpt>
      <trkpt lat="47.5013" lon="6.75764">
        <ele>362.46662800002</ele>
        <time>2014-12-07T11:20:51Z</time>
      </trkpt>
      <trkpt lat="47.50132" lon="6.75766">
        <ele>362.35842159997</ele>
        <time>2014-12-07T11:20:52Z</time>
      </trkpt>
      <trkpt lat="47.50134" lon="6.75769">
        <ele>362.26372000003</ele>
        <time>2014-12-07T11:20:53Z</time>
      </trkpt>
      <trkpt lat="47.50135" lon="6.75772">
        <ele>362.15932480001</ele>
        <time>2014-12-07T11:20:54Z</time>
      </trkpt>
      <trkpt lat="47.50137" lon="6.75774">
        <ele>362.03639680001</ele>
        <time>2014-12-07T11:20:55Z</time>
      </trkpt>
      <trkpt lat="47.50138" lon="6.75777">
        <ele>361.91983359998</ele>
        <time>2014-12-07T11:20:56Z</time>
      </trkpt>
      <trkpt lat="47.5014" lon="6.75779">
        <ele>361.82660560004</ele>
        <time>2014-12-07T11:20:57Z</time>
      </trkpt>
      <trkpt lat="47.50142" lon="6.75784">
        <ele>361.6140064</ele>
        <time>2014-12-07T11:20:59Z</time>
      </trkpt>
      <trkpt lat="47.50144" lon="6.75786">
        <ele>361.51822720002</ele>
        <time>2014-12-07T11:21:00Z</time>
      </trkpt>
      <trkpt lat="47.50153" lon="6.75804">
        <ele>360.67662160003</ele>
        <time>2014-12-07T11:21:08Z</time>
      </trkpt>
      <trkpt lat="47.50155" lon="6.75809">
        <ele>360.4875328</ele>
        <time>2014-12-07T11:21:10Z</time>
      </trkpt>
      <trkpt lat="47.50156" lon="6.75811">
        <ele>360.367672</ele>
        <time>2014-12-07T11:21:11Z</time>
      </trkpt>
      <trkpt lat="47.50158" lon="6.75816">
        <ele>360.07763199998</ele>
        <time>2014-12-07T11:21:13Z</time>
      </trkpt>
      <trkpt lat="47.5016" lon="6.75819">
        <ele>359.95289199997</ele>
        <time>2014-12-07T11:21:14Z</time>
      </trkpt>
      <trkpt lat="47.50162" lon="6.75824">
        <ele>359.68435119995</ele>
        <time>2014-12-07T11:21:16Z</time>
      </trkpt>
      <trkpt lat="47.50163" lon="6.75826">
        <ele>359.53822720005</ele>
        <time>2014-12-07T11:21:17Z</time>
      </trkpt>
      <trkpt lat="47.50165" lon="6.75831">
        <ele>359.22862959996</ele>
        <time>2014-12-07T11:21:19Z</time>
      </trkpt>
      <trkpt lat="47.50166" lon="6.75833">
        <ele>359.04799232003</ele>
        <time>2014-12-07T11:21:20Z</time>
      </trkpt>
      <trkpt lat="47.50169" lon="6.75839">
        <ele>359.56254367998</ele>
        <time>2014-12-07T11:21:22Z</time>
      </trkpt>
      <trkpt lat="47.50171" lon="6.75841">
        <ele>359.89478960001</ele>
        <time>2014-12-07T11:21:23Z</time>
      </trkpt>
      <trkpt lat="47.50172" lon="6.75844">
        <ele>360.21471920005</ele>
        <time>2014-12-07T11:21:24Z</time>
      </trkpt>
      <trkpt lat="47.50174" lon="6.75846">
        <ele>360.52690735998</ele>
        <time>2014-12-07T11:21:25Z</time>
      </trkpt>
      <trkpt lat="47.50176" lon="6.75851">
        <ele>361.06863104002</ele>
        <time>2014-12-07T11:21:27Z</time>
      </trkpt>
      <trkpt lat="47.50178" lon="6.75853">
        <ele>361.30407200003</ele>
        <time>2014-12-07T11:21:28Z</time>
      </trkpt>
      <trkpt lat="47.5018" lon="6.75858">
        <ele>361.73181823998</ele>
        <time>2014-12-07T11:21:30Z</time>
      </trkpt>
      <trkpt lat="47.50181" lon="6.75861">
        <ele>361.95892351996</ele>
        <time>2014-12-07T11:21:31Z</time>
      </trkpt>
      <trkpt lat="47.50183" lon="6.75865">
        <ele>362.31858368001</ele>
        <time>2014-12-07T11:21:33Z</time>
      </trkpt>
      <trkpt lat="47.50184" lon="6.75868">
        <ele>362.50449535997</ele>
        <time>2014-12-07T11:21:34Z</time>
      </trkpt>
      <trkpt lat="47.50185" lon="6.75873">
        <ele>362.82136160002</ele>
        <time>2014-12-07T11:21:36Z</time>
      </trkpt>
      <trkpt lat="47.50186" lon="6.75876">
        <ele>362.96882815999</ele>
        <time>2014-12-07T11:21:37Z</time>
      </trkpt>
      <trkpt lat="47.50187" lon="6.75881">
        <ele>363.24587888001</ele>
        <time>2014-12-07T11:21:39Z</time>
      </trkpt>
      <trkpt lat="47.50188" lon="6.75883">
        <ele>363.37985983998</ele>
        <time>2014-12-07T11:21:40Z</time>
      </trkpt>
      <trkpt lat="47.50189" lon="6.75888">
        <ele>363.64608704002</ele>
        <time>2014-12-07T11:21:42Z</time>
      </trkpt>
      <trkpt lat="47.5019" lon="6.75891">
        <ele>363.77167999999</ele>
        <time>2014-12-07T11:21:43Z</time>
      </trkpt>
      <trkpt lat="47.50191" lon="6.75896">
        <ele>364.01185856</ele>
        <time>2014-12-07T11:21:45Z</time>
      </trkpt>
      <trkpt lat="47.50192" lon="6.75899">
        <ele>364.14426223998</ele>
        <time>2014-12-07T11:21:46Z</time>
      </trkpt>
      <trkpt lat="47.50194" lon="6.75904">
        <ele>364.40364416</ele>
        <time>2014-12-07T11:21:48Z</time>
      </trkpt>
      <trkpt lat="47.50195" lon="6.75907">
        <ele>364.52987648002</ele>
        <time>2014-12-07T11:21:49Z</time>
      </trkpt>
      <trkpt lat="47.50197" lon="6.75913">
        <ele>364.77478207998</ele>
        <time>2014-12-07T11:21:51Z</time>
      </trkpt>
      <trkpt lat="47.50198" lon="6.75915">
        <ele>364.88211584</ele>
        <time>2014-12-07T11:21:52Z</time>
      </trkpt>
      <trkpt lat="47.502" lon="6.75921">
        <ele>365.25168000001</ele>
        <time>2014-12-07T11:21:54Z</time>
      </trkpt>
      <trkpt lat="47.50201" lon="6.75924">
        <ele>365.48035008</ele>
        <time>2014-12-07T11:21:55Z</time>
      </trkpt>
      <trkpt lat="47.50203" lon="6.75929">
        <ele>365.87654400001</ele>
        <time>2014-12-07T11:21:57Z</time>
      </trkpt>
      <trkpt lat="47.50203" lon="6.75931">
        <ele>366.06696864001</ele>
        <time>2014-12-07T11:21:58Z</time>
      </trkpt>
      <trkpt lat="47.50205" lon="6.75937">
        <ele>366.41763600001</ele>
        <time>2014-12-07T11:22:00Z</time>
      </trkpt>
      <trkpt lat="47.50209" lon="6.75957">
        <ele>367.69773312</ele>
        <time>2014-12-07T11:22:08Z</time>
      </trkpt>
      <trkpt lat="47.5021" lon="6.75962">
        <ele>367.966608</ele>
        <time>2014-12-07T11:22:10Z</time>
      </trkpt>
      <trkpt lat="47.50211" lon="6.75964">
        <ele>368.10176448</ele>
        <time>2014-12-07T11:22:11Z</time>
      </trkpt>
      <trkpt lat="47.50213" lon="6.75969">
        <ele>368.37252912</ele>
        <time>2014-12-07T11:22:13Z</time>
      </trkpt>
      <trkpt lat="47.50214" lon="6.75972">
        <ele>368.50050816</ele>
        <time>2014-12-07T11:22:14Z</time>
      </trkpt>
      <trkpt lat="47.50215" lon="6.75977">
        <ele>368.73858144</ele>
        <time>2014-12-07T11:22:16Z</time>
      </trkpt>
      <trkpt lat="47.50215" lon="6.75979">
        <ele>368.8342008</ele>
        <time>2014-12-07T11:22:17Z</time>
      </trkpt>
      <trkpt lat="47.50214" lon="6.75985">
        <ele>369.13572912</ele>
        <time>2014-12-07T11:22:21Z</time>
      </trkpt>
      <trkpt lat="47.50214" lon="6.75987">
        <ele>369.21589152</ele>
        <time>2014-12-07T11:22:22Z</time>
      </trkpt>
      <trkpt lat="47.50212" lon="6.75992">
        <ele>369.52285631999</ele>
        <time>2014-12-07T11:22:26Z</time>
      </trkpt>
      <trkpt lat="47.50211" lon="6.75993">
        <ele>369.5716848</ele>
        <time>2014-12-07T11:22:27Z</time>
      </trkpt>
      <trkpt lat="47.50207" lon="6.75995">
        <ele>369.77354496001</ele>
        <time>2014-12-07T11:22:34Z</time>
      </trkpt>
      <trkpt lat="47.50207" lon="6.75995">
        <ele>369.78129024</ele>
        <time>2014-12-07T11:22:35Z</time>
      </trkpt>
      <trkpt lat="47.50203" lon="6.75992">
        <ele>369.65572224</ele>
        <time>2014-12-07T11:22:43Z</time>
      </trkpt>
      <trkpt lat="47.50202" lon="6.75992">
        <ele>369.6641472</ele>
        <time>2014-12-07T11:22:44Z</time>
      </trkpt>
      <trkpt lat="47.50198" lon="6.75993">
        <ele>369.76635936</ele>
        <time>2014-12-07T11:22:49Z</time>
      </trkpt>
      <trkpt lat="47.50198" lon="6.75993">
        <ele>369.78275568001</ele>
        <time>2014-12-07T11:22:50Z</time>
      </trkpt>
      <trkpt lat="47.50194" lon="6.75993">
        <ele>369.84765792</ele>
        <time>2014-12-07T11:22:55Z</time>
      </trkpt>
      <trkpt lat="47.50193" lon="6.75993">
        <ele>369.8609712</ele>
        <time>2014-12-07T11:22:56Z</time>
      </trkpt>
      <trkpt lat="47.5019" lon="6.75993">
        <ele>369.95399424</ele>
        <time>2014-12-07T11:23:00Z</time>
      </trkpt>
      <trkpt lat="47.50184" lon="6.75992">
        <ele>369.97470912</ele>
        <time>2014-12-07T11:23:08Z</time>
      </trkpt>
      <trkpt lat="47.5018" lon="6.75991">
        <ele>369.91603008</ele>
        <time>2014-12-07T11:23:13Z</time>
      </trkpt>
      <trkpt lat="47.50179" lon="6.75991">
        <ele>369.93908304</ele>
        <time>2014-12-07T11:23:14Z</time>
      </trkpt>
      <trkpt lat="47.50175" lon="6.75992">
        <ele>370.10956368001</ele>
        <time>2014-12-07T11:23:19Z</time>
      </trkpt>
      <trkpt lat="47.50174" lon="6.75992">
        <ele>370.0974144</ele>
        <time>2014-12-07T11:23:20Z</time>
      </trkpt>
      <trkpt lat="47.50171" lon="6.75992">
        <ele>370.170912</ele>
        <time>2014-12-07T11:23:25Z</time>
      </trkpt>
      <trkpt lat="47.50169" lon="6.75991">
        <ele>370.13402784</ele>
        <time>2014-12-07T11:23:26Z</time>
      </trkpt>
      <trkpt lat="47.50165" lon="6.75991">
        <ele>370.35852800002</ele>
        <time>2014-12-07T11:23:30Z</time>
      </trkpt>
      <trkpt lat="47.50164" lon="6.75992">
        <ele>370.53069151997</ele>
        <time>2014-12-07T11:23:31Z</time>
      </trkpt>
      <trkpt lat="47.5016" lon="6.75993">
        <ele>371.12105215999</ele>
        <time>2014-12-07T11:23:36Z</time>
      </trkpt>
      <trkpt lat="47.50159" lon="6.75994">
        <ele>371.2464896</ele>
        <time>2014-12-07T11:23:37Z</time>
      </trkpt>
      <trkpt lat="47.50156" lon="6.75996">
        <ele>371.73382400002</ele>
        <time>2014-12-07T11:23:40Z</time>
      </trkpt>
      <trkpt lat="47.50155" lon="6.75996">
        <ele>371.97011072003</ele>
        <time>2014-12-07T11:23:41Z</time>
      </trkpt>
      <trkpt lat="47.5015" lon="6.75999">
        <ele>372.61982720004</ele>
        <time>2014-12-07T11:23:44Z</time>
      </trkpt>
      <trkpt lat="47.50149" lon="6.75999">
        <ele>372.85345280003</ele>
        <time>2014-12-07T11:23:45Z</time>
      </trkpt>
      <trkpt lat="47.50145" lon="6.76002">
        <ele>373.38929120002</ele>
        <time>2014-12-07T11:23:48Z</time>
      </trkpt>
      <trkpt lat="47.50144" lon="6.76002">
        <ele>373.54830464003</ele>
        <time>2014-12-07T11:23:49Z</time>
      </trkpt>
      <trkpt lat="47.50141" lon="6.76003">
        <ele>373.97838080002</ele>
        <time>2014-12-07T11:23:52Z</time>
      </trkpt>
      <trkpt lat="47.50139" lon="6.76003">
        <ele>374.104712</ele>
        <time>2014-12-07T11:23:53Z</time>
      </trkpt>
      <trkpt lat="47.50135" lon="6.76004">
        <ele>374.65920704003</ele>
        <time>2014-12-07T11:23:57Z</time>
      </trkpt>
      <trkpt lat="47.50134" lon="6.76004">
        <ele>374.80416320001</ele>
        <time>2014-12-07T11:23:58Z</time>
      </trkpt>
      <trkpt lat="47.50132" lon="6.76005">
        <ele>375.02692544001</ele>
        <time>2014-12-07T11:24:00Z</time>
      </trkpt>
      <trkpt lat="47.50123" lon="6.76007">
        <ele>376.26229568003</ele>
        <time>2014-12-07T11:24:09Z</time>
      </trkpt>
      <trkpt lat="47.50119" lon="6.76008">
        <ele>376.83092287998</ele>
        <time>2014-12-07T11:24:15Z</time>
      </trkpt>
      <trkpt lat="47.50118" lon="6.76009">
        <ele>376.97000959999</ele>
        <time>2014-12-07T11:24:16Z</time>
      </trkpt>
      <trkpt lat="47.50115" lon="6.76014">
        <ele>377.67293119997</ele>
        <time>2014-12-07T11:24:19Z</time>
      </trkpt>
      <trkpt lat="47.50115" lon="6.76016">
        <ele>377.91884864</ele>
        <time>2014-12-07T11:24:20Z</time>
      </trkpt>
      <trkpt lat="47.50114" lon="6.76022">
        <ele>378.42315391998</ele>
        <time>2014-12-07T11:24:22Z</time>
      </trkpt>
      <trkpt lat="47.50114" lon="6.76024">
        <ele>378.63936416004</ele>
        <time>2014-12-07T11:24:23Z</time>
      </trkpt>
      <trkpt lat="47.50114" lon="6.76029">
        <ele>379.00357472001</ele>
        <time>2014-12-07T11:24:25Z</time>
      </trkpt>
      <trkpt lat="47.50114" lon="6.76031">
        <ele>379.16882624005</ele>
        <time>2014-12-07T11:24:26Z</time>
      </trkpt>
      <trkpt lat="47.50114" lon="6.76035">
        <ele>379.54552447997</ele>
        <time>2014-12-07T11:24:28Z</time>
      </trkpt>
      <trkpt lat="47.50114" lon="6.76038">
        <ele>379.8274016</ele>
        <time>2014-12-07T11:24:29Z</time>
      </trkpt>
      <trkpt lat="47.50112" lon="6.76044">
        <ele>380.57247775996</ele>
        <time>2014-12-07T11:24:32Z</time>
      </trkpt>
      <trkpt lat="47.50112" lon="6.76045">
        <ele>380.70819199995</ele>
        <time>2014-12-07T11:24:33Z</time>
      </trkpt>
      <trkpt lat="47.5011" lon="6.7605">
        <ele>381.28213568003</ele>
        <time>2014-12-07T11:24:36Z</time>
      </trkpt>
      <trkpt lat="47.5011" lon="6.76052">
        <ele>381.57527647998</ele>
        <time>2014-12-07T11:24:37Z</time>
      </trkpt>
      <trkpt lat="47.50108" lon="6.76056">
        <ele>382.27222207997</ele>
        <time>2014-12-07T11:24:39Z</time>
      </trkpt>
      <trkpt lat="47.50107" lon="6.76058">
        <ele>382.57118336006</ele>
        <time>2014-12-07T11:24:40Z</time>
      </trkpt>
      <trkpt lat="47.50104" lon="6.76062">
        <ele>383.46488479997</ele>
        <time>2014-12-07T11:25:42Z</time>
      </trkpt>
      <trkpt lat="47.50103" lon="6.76064">
        <ele>383.68418240004</ele>
        <time>2014-12-07T11:25:43Z</time>
      </trkpt>
      <trkpt lat="47.50103" lon="6.7607">
        <ele>384.17786624</ele>
        <time>2014-12-07T11:25:46Z</time>
      </trkpt>
      <trkpt lat="47.50104" lon="6.76072">
        <ele>384.34559168006</ele>
        <time>2014-12-07T11:25:47Z</time>
      </trkpt>
      <trkpt lat="47.50104" lon="6.76076">
        <ele>384.56621696003</ele>
        <time>2014-12-07T11:25:48Z</time>
      </trkpt>
      <trkpt lat="47.50104" lon="6.7608">
        <ele>384.86377279999</ele>
        <time>2014-12-07T11:25:49Z</time>
      </trkpt>
      <trkpt lat="47.50105" lon="6.76083">
        <ele>385.17803840004</ele>
        <time>2014-12-07T11:25:50Z</time>
      </trkpt>
      <trkpt lat="47.50104" lon="6.76086">
        <ele>385.43937215995</ele>
        <time>2014-12-07T11:25:51Z</time>
      </trkpt>
      <trkpt lat="47.50105" lon="6.7609">
        <ele>385.61356800005</ele>
        <time>2014-12-07T11:25:52Z</time>
      </trkpt>
      <trkpt lat="47.50106" lon="6.76094">
        <ele>385.76980799998</ele>
        <time>2014-12-07T11:25:53Z</time>
      </trkpt>
      <trkpt lat="47.50106" lon="6.76098">
        <ele>385.88982335996</ele>
        <time>2014-12-07T11:25:54Z</time>
      </trkpt>
      <trkpt lat="47.50107" lon="6.76102">
        <ele>386.04649920003</ele>
        <time>2014-12-07T11:25:55Z</time>
      </trkpt>
      <trkpt lat="47.50108" lon="6.76106">
        <ele>386.20344</ele>
        <time>2014-12-07T11:25:56Z</time>
      </trkpt>
      <trkpt lat="47.50108" lon="6.76109">
        <ele>386.40976319996</ele>
        <time>2014-12-07T11:25:57Z</time>
      </trkpt>
      <trkpt lat="47.50108" lon="6.76114">
        <ele>386.806128</ele>
        <time>2014-12-07T11:25:59Z</time>
      </trkpt>
      <trkpt lat="47.50108" lon="6.76116">
        <ele>386.967312</ele>
        <time>2014-12-07T11:26:00Z</time>
      </trkpt>
      <trkpt lat="47.50108" lon="6.76118">
        <ele>387.06743231996</ele>
        <time>2014-12-07T11:26:01Z</time>
      </trkpt>
      <trkpt lat="47.5011" lon="6.76131">
        <ele>387.57556800001</ele>
        <time>2014-12-07T11:26:09Z</time>
      </trkpt>
      <trkpt lat="47.50109" lon="6.76136">
        <ele>388.12339967998</ele>
        <time>2014-12-07T11:26:12Z</time>
      </trkpt>
      <trkpt lat="47.50108" lon="6.76138">
        <ele>388.34693376007</ele>
        <time>2014-12-07T11:26:13Z</time>
      </trkpt>
      <trkpt lat="47.50108" lon="6.76145">
        <ele>388.83592319996</ele>
        <time>2014-12-07T11:26:16Z</time>
      </trkpt>
      <trkpt lat="47.50108" lon="6.76147">
        <ele>388.95312192007</ele>
        <time>2014-12-07T11:26:17Z</time>
      </trkpt>
      <trkpt lat="47.50109" lon="6.76151">
        <ele>388.99672127996</ele>
        <time>2014-12-07T11:26:19Z</time>
      </trkpt>
      <trkpt lat="47.5011" lon="6.76154">
        <ele>388.95011519999</ele>
        <time>2014-12-07T11:26:20Z</time>
      </trkpt>
      <trkpt lat="47.50112" lon="6.76158">
        <ele>388.82566464</ele>
        <time>2014-12-07T11:26:22Z</time>
      </trkpt>
      <trkpt lat="47.50113" lon="6.76161">
        <ele>388.80093119998</ele>
        <time>2014-12-07T11:26:23Z</time>
      </trkpt>
      <trkpt lat="47.50115" lon="6.76166">
        <ele>388.87638719997</ele>
        <time>2014-12-07T11:26:26Z</time>
      </trkpt>
      <trkpt lat="47.50115" lon="6.7617">
        <ele>389.11199519992</ele>
        <time>2014-12-07T11:26:27Z</time>
      </trkpt>
      <trkpt lat="47.50115" lon="6.76173">
        <ele>389.45222015998</ele>
        <time>2014-12-07T11:26:28Z</time>
      </trkpt>
      <trkpt lat="47.50115" lon="6.76178">
        <ele>389.88417407993</ele>
        <time>2014-12-07T11:26:29Z</time>
      </trkpt>
      <trkpt lat="47.50115" lon="6.76182">
        <ele>390.30657408004</ele>
        <time>2014-12-07T11:26:30Z</time>
      </trkpt>
      <trkpt lat="47.50115" lon="6.76187">
        <ele>390.64191072</ele>
        <time>2014-12-07T11:26:31Z</time>
      </trkpt>
      <trkpt lat="47.50116" lon="6.76192">
        <ele>390.95997119996</ele>
        <time>2014-12-07T11:26:32Z</time>
      </trkpt>
      <trkpt lat="47.50116" lon="6.76196">
        <ele>391.18544255994</ele>
        <time>2014-12-07T11:26:33Z</time>
      </trkpt>
      <trkpt lat="47.50118" lon="6.762">
        <ele>391.34432063998</ele>
        <time>2014-12-07T11:26:34Z</time>
      </trkpt>
      <trkpt lat="47.50119" lon="6.76205">
        <ele>391.57141440001</ele>
        <time>2014-12-07T11:26:35Z</time>
      </trkpt>
      <trkpt lat="47.5012" lon="6.76209">
        <ele>391.77926879994</ele>
        <time>2014-12-07T11:26:36Z</time>
      </trkpt>
      <trkpt lat="47.5012" lon="6.76214">
        <ele>392.01115775997</ele>
        <time>2014-12-07T11:26:37Z</time>
      </trkpt>
      <trkpt lat="47.50121" lon="6.76218">
        <ele>392.25954240004</ele>
        <time>2014-12-07T11:26:38Z</time>
      </trkpt>
      <trkpt lat="47.50122" lon="6.76222">
        <ele>392.50230624007</ele>
        <time>2014-12-07T11:26:39Z</time>
      </trkpt>
      <trkpt lat="47.50122" lon="6.76225">
        <ele>392.67769535999</ele>
        <time>2014-12-07T11:26:40Z</time>
      </trkpt>
      <trkpt lat="47.50123" lon="6.76228">
        <ele>392.80672896006</ele>
        <time>2014-12-07T11:26:41Z</time>
      </trkpt>
      <trkpt lat="47.50125" lon="6.76233">
        <ele>392.94026016001</ele>
        <time>2014-12-07T11:26:43Z</time>
      </trkpt>
      <trkpt lat="47.50125" lon="6.76235">
        <ele>393.02632992003</ele>
        <time>2014-12-07T11:26:44Z</time>
      </trkpt>
      <trkpt lat="47.50127" lon="6.76241">
        <ele>393.23382047999</ele>
        <time>2014-12-07T11:26:47Z</time>
      </trkpt>
      <trkpt lat="47.50128" lon="6.76243">
        <ele>393.32263200001</ele>
        <time>2014-12-07T11:26:48Z</time>
      </trkpt>
      <trkpt lat="47.50128" lon="6.76248">
        <ele>393.71472960007</ele>
        <time>2014-12-07T11:26:50Z</time>
      </trkpt>
      <trkpt lat="47.50128" lon="6.76251">
        <ele>393.97471776002</ele>
        <time>2014-12-07T11:26:51Z</time>
      </trkpt>
      <trkpt lat="47.50128" lon="6.76257">
        <ele>394.38879503996</ele>
        <time>2014-12-07T11:26:54Z</time>
      </trkpt>
      <trkpt lat="47.50128" lon="6.76258">
        <ele>394.41994272006</ele>
        <time>2014-12-07T11:26:55Z</time>
      </trkpt>
      <trkpt lat="47.5013" lon="6.76263">
        <ele>394.36328352003</ele>
        <time>2014-12-07T11:27:00Z</time>
      </trkpt>
      <trkpt lat="47.50132" lon="6.76264">
        <ele>394.0013856</ele>
        <time>2014-12-07T11:27:08Z</time>
      </trkpt>
      <trkpt lat="47.50133" lon="6.7627">
        <ele>394.27489199997</ele>
        <time>2014-12-07T11:27:27Z</time>
      </trkpt>
      <trkpt lat="47.50132" lon="6.76273">
        <ele>394.50337152007</ele>
        <time>2014-12-07T11:27:28Z</time>
      </trkpt>
      <trkpt lat="47.50133" lon="6.7628">
        <ele>394.89812399997</ele>
        <time>2014-12-07T11:27:30Z</time>
      </trkpt>
      <trkpt lat="47.50133" lon="6.76283">
        <ele>395.03675903998</ele>
        <time>2014-12-07T11:27:31Z</time>
      </trkpt>
      <trkpt lat="47.50134" lon="6.76289">
        <ele>395.13414960007</ele>
        <time>2014-12-07T11:27:33Z</time>
      </trkpt>
      <trkpt lat="47.50135" lon="6.76292">
        <ele>395.15215199995</ele>
        <time>2014-12-07T11:27:34Z</time>
      </trkpt>
      <trkpt lat="47.50136" lon="6.76295">
        <ele>395.13539520004</ele>
        <time>2014-12-07T11:27:35Z</time>
      </trkpt>
      <trkpt lat="47.50137" lon="6.76298">
        <ele>395.09487359992</ele>
        <time>2014-12-07T11:27:36Z</time>
      </trkpt>
      <trkpt lat="47.50138" lon="6.76302">
        <ele>395.15059200005</ele>
        <time>2014-12-07T11:27:37Z</time>
      </trkpt>
      <trkpt lat="47.50139" lon="6.76305">
        <ele>395.16951839999</ele>
        <time>2014-12-07T11:27:38Z</time>
      </trkpt>
      <trkpt lat="47.5014" lon="6.76309">
        <ele>395.20445807997</ele>
        <time>2014-12-07T11:27:39Z</time>
      </trkpt>
      <trkpt lat="47.50141" lon="6.76314">
        <ele>395.24443391996</ele>
        <time>2014-12-07T11:27:40Z</time>
      </trkpt>
      <trkpt lat="47.50143" lon="6.76318">
        <ele>395.22526079996</ele>
        <time>2014-12-07T11:27:41Z</time>
      </trkpt>
      <trkpt lat="47.50144" lon="6.76322">
        <ele>395.12981088006</ele>
        <time>2014-12-07T11:27:42Z</time>
      </trkpt>
      <trkpt lat="47.50145" lon="6.76326">
        <ele>395.11222367995</ele>
        <time>2014-12-07T11:27:43Z</time>
      </trkpt>
      <trkpt lat="47.50147" lon="6.76329">
        <ele>395.07445631999</ele>
        <time>2014-12-07T11:27:44Z</time>
      </trkpt>
      <trkpt lat="47.50148" lon="6.76333">
        <ele>395.07238656007</ele>
        <time>2014-12-07T11:27:45Z</time>
      </trkpt>
      <trkpt lat="47.50149" lon="6.76336">
        <ele>395.11195199995</ele>
        <time>2014-12-07T11:27:46Z</time>
      </trkpt>
      <trkpt lat="47.5015" lon="6.76339">
        <ele>395.14402559993</ele>
        <time>2014-12-07T11:27:47Z</time>
      </trkpt>
      <trkpt lat="47.50151" lon="6.76342">
        <ele>395.18525760002</ele>
        <time>2014-12-07T11:27:48Z</time>
      </trkpt>
      <trkpt lat="47.50152" lon="6.76346">
        <ele>395.29041599996</ele>
        <time>2014-12-07T11:27:49Z</time>
      </trkpt>
      <trkpt lat="47.50153" lon="6.76351">
        <ele>395.44831199995</ele>
        <time>2014-12-07T11:27:50Z</time>
      </trkpt>
      <trkpt lat="47.50154" lon="6.76356">
        <ele>395.63923679999</ele>
        <time>2014-12-07T11:27:51Z</time>
      </trkpt>
      <trkpt lat="47.50156" lon="6.76361">
        <ele>395.85435599994</ele>
        <time>2014-12-07T11:27:52Z</time>
      </trkpt>
      <trkpt lat="47.50157" lon="6.76366">
        <ele>396.06180480002</ele>
        <time>2014-12-07T11:27:53Z</time>
      </trkpt>
      <trkpt lat="47.50158" lon="6.76372">
        <ele>396.26912640001</ele>
        <time>2014-12-07T11:27:54Z</time>
      </trkpt>
      <trkpt lat="47.5016" lon="6.76377">
        <ele>396.37635360003</ele>
        <time>2014-12-07T11:27:55Z</time>
      </trkpt>
      <trkpt lat="47.50162" lon="6.76381">
        <ele>396.46052160003</ele>
        <time>2014-12-07T11:27:56Z</time>
      </trkpt>
      <trkpt lat="47.50164" lon="6.76385">
        <ele>396.516828</ele>
        <time>2014-12-07T11:27:57Z</time>
      </trkpt>
      <trkpt lat="47.50165" lon="6.76388">
        <ele>396.61559039995</ele>
        <time>2014-12-07T11:27:58Z</time>
      </trkpt>
      <trkpt lat="47.50166" lon="6.76392">
        <ele>396.76351680002</ele>
        <time>2014-12-07T11:27:59Z</time>
      </trkpt>
      <trkpt lat="47.50167" lon="6.76395">
        <ele>396.95301248004</ele>
        <time>2014-12-07T11:28:00Z</time>
      </trkpt>
      <trkpt lat="47.50172" lon="6.76419">
        <ele>398.22931520002</ele>
        <time>2014-12-07T11:28:08Z</time>
      </trkpt>
      <trkpt lat="47.50173" lon="6.76425">
        <ele>398.52424208001</ele>
        <time>2014-12-07T11:28:10Z</time>
      </trkpt>
      <trkpt lat="47.50174" lon="6.76428">
        <ele>398.70514975994</ele>
        <time>2014-12-07T11:28:11Z</time>
      </trkpt>
      <trkpt lat="47.50175" lon="6.76432">
        <ele>398.86900256005</ele>
        <time>2014-12-07T11:28:12Z</time>
      </trkpt>
      <trkpt lat="47.50175" lon="6.76436">
        <ele>399.05141359999</ele>
        <time>2014-12-07T11:28:13Z</time>
      </trkpt>
      <trkpt lat="47.50176" lon="6.76439">
        <ele>399.25284127995</ele>
        <time>2014-12-07T11:28:14Z</time>
      </trkpt>
      <trkpt lat="47.50176" lon="6.76442">
        <ele>399.43768112006</ele>
        <time>2014-12-07T11:28:15Z</time>
      </trkpt>
      <trkpt lat="47.50177" lon="6.76448">
        <ele>399.77409248005</ele>
        <time>2014-12-07T11:28:17Z</time>
      </trkpt>
      <trkpt lat="47.50178" lon="6.76451">
        <ele>399.88215296002</ele>
        <time>2014-12-07T11:28:18Z</time>
      </trkpt>
      <trkpt lat="47.5018" lon="6.76457">
        <ele>400.03060160004</ele>
        <time>2014-12-07T11:28:20Z</time>
      </trkpt>
      <trkpt lat="47.50181" lon="6.7646">
        <ele>400.08870128003</ele>
        <time>2014-12-07T11:28:21Z</time>
      </trkpt>
      <trkpt lat="47.50183" lon="6.76463">
        <ele>400.11297440003</ele>
        <time>2014-12-07T11:28:22Z</time>
      </trkpt>
      <trkpt lat="47.50184" lon="6.76466">
        <ele>400.10389328002</ele>
        <time>2014-12-07T11:28:23Z</time>
      </trkpt>
      <trkpt lat="47.50187" lon="6.7647">
        <ele>400.03654448005</ele>
        <time>2014-12-07T11:28:25Z</time>
      </trkpt>
      <trkpt lat="47.50188" lon="6.76472">
        <ele>400.02130447996</ele>
        <time>2014-12-07T11:28:26Z</time>
      </trkpt>
      <trkpt lat="47.5019" lon="6.76477">
        <ele>400.02704000001</ele>
        <time>2014-12-07T11:28:28Z</time>
      </trkpt>
      <trkpt lat="47.50191" lon="6.76479">
        <ele>400.03980992001</ele>
        <time>2014-12-07T11:28:29Z</time>
      </trkpt>
      <trkpt lat="47.50192" lon="6.76482">
        <ele>400.08055807996</ele>
        <time>2014-12-07T11:28:30Z</time>
      </trkpt>
      <trkpt lat="47.50194" lon="6.76485">
        <ele>400.13178271996</ele>
        <time>2014-12-07T11:28:31Z</time>
      </trkpt>
      <trkpt lat="47.50195" lon="6.76488">
        <ele>400.17552703995</ele>
        <time>2014-12-07T11:28:32Z</time>
      </trkpt>
      <trkpt lat="47.50197" lon="6.76492">
        <ele>400.23748400003</ele>
        <time>2014-12-07T11:28:33Z</time>
      </trkpt>
      <trkpt lat="47.50198" lon="6.76495">
        <ele>400.28294239998</ele>
        <time>2014-12-07T11:28:34Z</time>
      </trkpt>
      <trkpt lat="47.50199" lon="6.76498">
        <ele>400.38003200004</ele>
        <time>2014-12-07T11:28:35Z</time>
      </trkpt>
      <trkpt lat="47.502" lon="6.76501">
        <ele>400.51963999999</ele>
        <time>2014-12-07T11:28:36Z</time>
      </trkpt>
      <trkpt lat="47.502" lon="6.76505">
        <ele>400.56919999996</ele>
        <time>2014-12-07T11:28:37Z</time>
      </trkpt>
      <trkpt lat="47.502" lon="6.76509">
        <ele>400.64124800001</ele>
        <time>2014-12-07T11:28:38Z</time>
      </trkpt>
      <trkpt lat="47.50201" lon="6.76512">
        <ele>400.69353919994</ele>
        <time>2014-12-07T11:28:39Z</time>
      </trkpt>
      <trkpt lat="47.50202" lon="6.76517">
        <ele>400.69240640001</ele>
        <time>2014-12-07T11:28:41Z</time>
      </trkpt>
      <trkpt lat="47.50203" lon="6.76519">
        <ele>400.6440896</ele>
        <time>2014-12-07T11:28:42Z</time>
      </trkpt>
      <trkpt lat="47.50205" lon="6.76524">
        <ele>400.47549199997</ele>
        <time>2014-12-07T11:28:44Z</time>
      </trkpt>
      <trkpt lat="47.50206" lon="6.76525">
        <ele>400.42707439996</ele>
        <time>2014-12-07T11:28:45Z</time>
      </trkpt>
      <trkpt lat="47.50207" lon="6.76531">
        <ele>400.52309840002</ele>
        <time>2014-12-07T11:28:49Z</time>
      </trkpt>
      <trkpt lat="47.50207" lon="6.76533">
        <ele>400.58045360002</ele>
        <time>2014-12-07T11:28:50Z</time>
      </trkpt>
      <trkpt lat="47.50206" lon="6.76539">
        <ele>400.90039040004</ele>
        <time>2014-12-07T11:28:57Z</time>
      </trkpt>
      <trkpt lat="47.50206" lon="6.76539">
        <ele>401.00049920003</ele>
        <time>2014-12-07T11:28:58Z</time>
      </trkpt>
      <trkpt lat="47.50202" lon="6.76539">
        <ele>401.5633328</ele>
        <time>2014-12-07T11:29:03Z</time>
      </trkpt>
      <trkpt lat="47.50201" lon="6.7654">
        <ele>401.68244000002</ele>
        <time>2014-12-07T11:29:04Z</time>
      </trkpt>
      <trkpt lat="47.50198" lon="6.76544">
        <ele>402.1986272</ele>
        <time>2014-12-07T11:29:11Z</time>
      </trkpt>
      <trkpt lat="47.50198" lon="6.76545">
        <ele>402.27391999996</ele>
        <time>2014-12-07T11:29:12Z</time>
      </trkpt>
      <trkpt lat="47.50196" lon="6.76549">
        <ele>402.75796399997</ele>
        <time>2014-12-07T11:29:16Z</time>
      </trkpt>
      <trkpt lat="47.50195" lon="6.7655">
        <ele>402.86673439996</ele>
        <time>2014-12-07T11:29:17Z</time>
      </trkpt>
      <trkpt lat="47.50196" lon="6.76556">
        <ele>402.95555359998</ele>
        <time>2014-12-07T11:29:25Z</time>
      </trkpt>
      <trkpt lat="47.50198" lon="6.76557">
        <ele>402.74400800004</ele>
        <time>2014-12-07T11:29:26Z</time>
      </trkpt>
      <trkpt lat="47.50197" lon="6.76561">
        <ele>403.00780639996</ele>
        <time>2014-12-07T11:29:36Z</time>
      </trkpt>
      <trkpt lat="47.50197" lon="6.76564">
        <ele>403.13406800002</ele>
        <time>2014-12-07T11:29:37Z</time>
      </trkpt>
      <trkpt lat="47.50196" lon="6.76568">
        <ele>403.31422400004</ele>
        <time>2014-12-07T11:29:38Z</time>
      </trkpt>
      <trkpt lat="47.50196" lon="6.76571">
        <ele>403.44030079998</ele>
        <time>2014-12-07T11:29:39Z</time>
      </trkpt>
      <trkpt lat="47.50196" lon="6.76575">
        <ele>403.5917504</ele>
        <time>2014-12-07T11:29:40Z</time>
      </trkpt>
      <trkpt lat="47.50195" lon="6.76579">
        <ele>403.7532176</ele>
        <time>2014-12-07T11:29:41Z</time>
      </trkpt>
      <trkpt lat="47.50195" lon="6.76582">
        <ele>403.95322880004</ele>
        <time>2014-12-07T11:29:42Z</time>
      </trkpt>
      <trkpt lat="47.50194" lon="6.76586">
        <ele>403.98993280002</ele>
        <time>2014-12-07T11:29:43Z</time>
      </trkpt>
      <trkpt lat="47.50193" lon="6.7659">
        <ele>403.97545600001</ele>
        <time>2014-12-07T11:29:44Z</time>
      </trkpt>
      <trkpt lat="47.50193" lon="6.76594">
        <ele>403.988944</ele>
        <time>2014-12-07T11:29:45Z</time>
      </trkpt>
      <trkpt lat="47.50192" lon="6.76598">
        <ele>404.00065599999</ele>
        <time>2014-12-07T11:29:46Z</time>
      </trkpt>
      <trkpt lat="47.50191" lon="6.76601">
        <ele>404.02584639999</ele>
        <time>2014-12-07T11:29:47Z</time>
      </trkpt>
      <trkpt lat="47.5019" lon="6.76605">
        <ele>404.02712895998</ele>
        <time>2014-12-07T11:29:48Z</time>
      </trkpt>
      <trkpt lat="47.5019" lon="6.76609">
        <ele>403.90349631999</ele>
        <time>2014-12-07T11:29:49Z</time>
      </trkpt>
      <trkpt lat="47.50191" lon="6.76614">
        <ele>403.6997536</ele>
        <time>2014-12-07T11:29:50Z</time>
      </trkpt>
      <trkpt lat="47.50193" lon="6.76618">
        <ele>403.46233407998</ele>
        <time>2014-12-07T11:29:51Z</time>
      </trkpt>
      <trkpt lat="47.50195" lon="6.76622">
        <ele>403.20934912003</ele>
        <time>2014-12-07T11:29:52Z</time>
      </trkpt>
      <trkpt lat="47.50196" lon="6.76626">
        <ele>402.97786431999</ele>
        <time>2014-12-07T11:29:53Z</time>
      </trkpt>
      <trkpt lat="47.50198" lon="6.7663">
        <ele>402.78003519997</ele>
        <time>2014-12-07T11:29:54Z</time>
      </trkpt>
      <trkpt lat="47.502" lon="6.76633">
        <ele>402.60016959999</ele>
        <time>2014-12-07T11:29:55Z</time>
      </trkpt>
      <trkpt lat="47.50201" lon="6.76636">
        <ele>402.47306560002</ele>
        <time>2014-12-07T11:29:56Z</time>
      </trkpt>
      <trkpt lat="47.50202" lon="6.76639">
        <ele>402.30221632001</ele>
        <time>2014-12-07T11:29:57Z</time>
      </trkpt>
      <trkpt lat="47.50204" lon="6.76645">
        <ele>402.05520064</ele>
        <time>2014-12-07T11:29:59Z</time>
      </trkpt>
      <trkpt lat="47.50205" lon="6.76648">
        <ele>401.93838399999</ele>
        <time>2014-12-07T11:30:00Z</time>
      </trkpt>
      <trkpt lat="47.50213" lon="6.76667">
        <ele>401.24379039999</ele>
        <time>2014-12-07T11:30:08Z</time>
      </trkpt>
      <trkpt lat="47.50215" lon="6.76671">
        <ele>401.17913728001</ele>
        <time>2014-12-07T11:30:10Z</time>
      </trkpt>
      <trkpt lat="47.50216" lon="6.76673">
        <ele>401.13145216001</ele>
        <time>2014-12-07T11:30:11Z</time>
      </trkpt>
      <trkpt lat="47.50219" lon="6.76678">
        <ele>401.04616383999</ele>
        <time>2014-12-07T11:30:13Z</time>
      </trkpt>
      <trkpt lat="47.5022" lon="6.76681">
        <ele>401.02119136</ele>
        <time>2014-12-07T11:30:14Z</time>
      </trkpt>
      <trkpt lat="47.50221" lon="6.76684">
        <ele>400.99518208001</ele>
        <time>2014-12-07T11:30:15Z</time>
      </trkpt>
      <trkpt lat="47.50223" lon="6.76687">
        <ele>400.96813599998</ele>
        <time>2014-12-07T11:30:16Z</time>
      </trkpt>
      <trkpt lat="47.50224" lon="6.7669">
        <ele>400.94954367998</ele>
        <time>2014-12-07T11:30:17Z</time>
      </trkpt>
      <trkpt lat="47.50225" lon="6.76693">
        <ele>400.91405632001</ele>
        <time>2014-12-07T11:30:18Z</time>
      </trkpt>
      <trkpt lat="47.50226" lon="6.76696">
        <ele>400.87565008001</ele>
        <time>2014-12-07T11:30:19Z</time>
      </trkpt>
      <trkpt lat="47.50228" lon="6.76699">
        <ele>400.82184352002</ele>
        <time>2014-12-07T11:30:20Z</time>
      </trkpt>
      <trkpt lat="47.50229" lon="6.76702">
        <ele>400.77483136002</ele>
        <time>2014-12-07T11:30:21Z</time>
      </trkpt>
      <trkpt lat="47.50231" lon="6.76704">
        <ele>400.67640831999</ele>
        <time>2014-12-07T11:30:22Z</time>
      </trkpt>
      <trkpt lat="47.50233" lon="6.76707">
        <ele>400.62682575999</ele>
        <time>2014-12-07T11:30:22Z</time>
      </trkpt>
      <trkpt lat="47.50235" lon="6.7671">
        <ele>400.54009599998</ele>
        <time>2014-12-07T11:30:24Z</time>
      </trkpt>
      <trkpt lat="47.50236" lon="6.76713">
        <ele>400.47327616001</ele>
        <time>2014-12-07T11:30:25Z</time>
      </trkpt>
      <trkpt lat="47.50238" lon="6.76716">
        <ele>400.42133248001</ele>
        <time>2014-12-07T11:30:26Z</time>
      </trkpt>
      <trkpt lat="47.5024" lon="6.76718">
        <ele>400.323616</ele>
        <time>2014-12-07T11:30:27Z</time>
      </trkpt>
      <trkpt lat="47.50241" lon="6.76721">
        <ele>400.23131487999</ele>
        <time>2014-12-07T11:30:28Z</time>
      </trkpt>
      <trkpt lat="47.50244" lon="6.76724">
        <ele>400.12519600001</ele>
        <time>2014-12-07T11:30:29Z</time>
      </trkpt>
      <trkpt lat="47.50246" lon="6.76726">
        <ele>400.01052496</ele>
        <time>2014-12-07T11:30:30Z</time>
      </trkpt>
      <trkpt lat="47.50248" lon="6.76729">
        <ele>399.86403472001</ele>
        <time>2014-12-07T11:30:31Z</time>
      </trkpt>
      <trkpt lat="47.50251" lon="6.76731">
        <ele>399.7492</ele>
        <time>2014-12-07T11:30:32Z</time>
      </trkpt>
      <trkpt lat="47.50254" lon="6.76733">
        <ele>399.6976</ele>
        <time>2014-12-07T11:30:33Z</time>
      </trkpt>
      <trkpt lat="47.50257" lon="6.76734">
        <ele>399.634</ele>
        <time>2014-12-07T11:30:34Z</time>
      </trkpt>
      <trkpt lat="47.50261" lon="6.76734">
        <ele>399.5572</ele>
        <time>2014-12-07T11:30:35Z</time>
      </trkpt>
      <trkpt lat="47.50264" lon="6.76734">
        <ele>399.47560000001</ele>
        <time>2014-12-07T11:30:36Z</time>
      </trkpt>
      <trkpt lat="47.50267" lon="6.76733">
        <ele>399.38560000001</ele>
        <time>2014-12-07T11:30:37Z</time>
      </trkpt>
      <trkpt lat="47.50271" lon="6.76732">
        <ele>399.2884</ele>
        <time>2014-12-07T11:30:38Z</time>
      </trkpt>
      <trkpt lat="47.50274" lon="6.76731">
        <ele>399.18999999999</ele>
        <time>2014-12-07T11:30:39Z</time>
      </trkpt>
      <trkpt lat="47.50278" lon="6.7673">
        <ele>399.0952</ele>
        <time>2014-12-07T11:30:40Z</time>
      </trkpt>
      <trkpt lat="47.50281" lon="6.7673">
        <ele>399.00399999999</ele>
        <time>2014-12-07T11:30:41Z</time>
      </trkpt>
      <trkpt lat="47.50285" lon="6.76729">
        <ele>398.91759999999</ele>
        <time>2014-12-07T11:30:42Z</time>
      </trkpt>
      <trkpt lat="47.50288" lon="6.76729">
        <ele>398.83959999999</ele>
        <time>2014-12-07T11:30:43Z</time>
      </trkpt>
      <trkpt lat="47.50291" lon="6.76729">
        <ele>398.76279999999</ele>
        <time>2014-12-07T11:30:44Z</time>
      </trkpt>
      <trkpt lat="47.50294" lon="6.76729">
        <ele>398.68120000001</ele>
        <time>2014-12-07T11:30:45Z</time>
      </trkpt>
      <trkpt lat="47.50298" lon="6.76728">
        <ele>398.5912</ele>
        <time>2014-12-07T11:30:46Z</time>
      </trkpt>
      <trkpt lat="47.50302" lon="6.76727">
        <ele>398.49040000001</ele>
        <time>2014-12-07T11:30:47Z</time>
      </trkpt>
      <trkpt lat="47.50305" lon="6.76727">
        <ele>398.3884</ele>
        <time>2014-12-07T11:30:48Z</time>
      </trkpt>
      <trkpt lat="47.50309" lon="6.76726">
        <ele>398.2864</ele>
        <time>2014-12-07T11:30:49Z</time>
      </trkpt>
      <trkpt lat="47.50313" lon="6.76725">
        <ele>398.1856</ele>
        <time>2014-12-07T11:30:50Z</time>
      </trkpt>
      <trkpt lat="47.50317" lon="6.76724">
        <ele>398.08959999999</ele>
        <time>2014-12-07T11:30:51Z</time>
      </trkpt>
      <trkpt lat="47.5032" lon="6.76723">
        <ele>397.9948</ele>
        <time>2014-12-07T11:30:52Z</time>
      </trkpt>
      <trkpt lat="47.50323" lon="6.76722">
        <ele>397.90720000001</ele>
        <time>2014-12-07T11:30:53Z</time>
      </trkpt>
      <trkpt lat="47.50326" lon="6.76721">
        <ele>397.8196</ele>
        <time>2014-12-07T11:30:54Z</time>
      </trkpt>
      <trkpt lat="47.50329" lon="6.7672">
        <ele>397.7392</ele>
        <time>2014-12-07T11:30:55Z</time>
      </trkpt>
      <trkpt lat="47.50332" lon="6.76719">
        <ele>397.65639999999</ele>
        <time>2014-12-07T11:30:56Z</time>
      </trkpt>
      <trkpt lat="47.50335" lon="6.76718">
        <ele>397.6124</ele>
        <time>2014-12-07T11:30:57Z</time>
      </trkpt>
      <trkpt lat="47.50338" lon="6.76717">
        <ele>397.6016</ele>
        <time>2014-12-07T11:30:58Z</time>
      </trkpt>
      <trkpt lat="47.50342" lon="6.76716">
        <ele>397.592</ele>
        <time>2014-12-07T11:30:59Z</time>
      </trkpt>
      <trkpt lat="47.50345" lon="6.76715">
        <ele>397.5812</ele>
        <time>2014-12-07T11:31:00Z</time>
      </trkpt>
      <trkpt lat="47.50371" lon="6.76707">
        <ele>397.4888</ele>
        <time>2014-12-07T11:31:08Z</time>
      </trkpt>
      <trkpt lat="47.50375" lon="6.76706">
        <ele>397.4744</ele>
        <time>2014-12-07T11:31:09Z</time>
      </trkpt>
      <trkpt lat="47.50378" lon="6.76705">
        <ele>397.4588</ele>
        <time>2014-12-07T11:31:10Z</time>
      </trkpt>
      <trkpt lat="47.50382" lon="6.76703">
        <ele>397.4408</ele>
        <time>2014-12-07T11:31:11Z</time>
      </trkpt>
      <trkpt lat="47.50385" lon="6.76702">
        <ele>397.4252</ele>
        <time>2014-12-07T11:31:12Z</time>
      </trkpt>
      <trkpt lat="47.50388" lon="6.76701">
        <ele>397.4132</ele>
        <time>2014-12-07T11:31:13Z</time>
      </trkpt>
      <trkpt lat="47.50392" lon="6.767">
        <ele>397.4</ele>
        <time>2014-12-07T11:31:14Z</time>
      </trkpt>
      <trkpt lat="47.50395" lon="6.76699">
        <ele>397.3856</ele>
        <time>2014-12-07T11:31:15Z</time>
      </trkpt>
      <trkpt lat="47.50399" lon="6.76698">
        <ele>397.37</ele>
        <time>2014-12-07T11:31:16Z</time>
      </trkpt>
      <trkpt lat="47.50402" lon="6.76696">
        <ele>397.3544</ele>
        <time>2014-12-07T11:31:17Z</time>
      </trkpt>
      <trkpt lat="47.50405" lon="6.76695">
        <ele>397.34</ele>
        <time>2014-12-07T11:31:18Z</time>
      </trkpt>
      <trkpt lat="47.50408" lon="6.76694">
        <ele>397.3268</ele>
        <time>2014-12-07T11:31:19Z</time>
      </trkpt>
      <trkpt lat="47.50411" lon="6.76693">
        <ele>397.3172</ele>
        <time>2014-12-07T11:31:20Z</time>
      </trkpt>
      <trkpt lat="47.50414" lon="6.76692">
        <ele>397.3064</ele>
        <time>2014-12-07T11:31:21Z</time>
      </trkpt>
      <trkpt lat="47.50417" lon="6.76691">
        <ele>397.29127424</ele>
        <time>2014-12-07T11:31:22Z</time>
      </trkpt>
      <trkpt lat="47.50421" lon="6.7669">
        <ele>397.26737216</ele>
        <time>2014-12-07T11:31:23Z</time>
      </trkpt>
      <trkpt lat="47.50424" lon="6.76689">
        <ele>397.25365376</ele>
        <time>2014-12-07T11:31:24Z</time>
      </trkpt>
      <trkpt lat="47.50428" lon="6.76687">
        <ele>397.25017856</ele>
        <time>2014-12-07T11:31:25Z</time>
      </trkpt>
      <trkpt lat="47.50431" lon="6.76686">
        <ele>397.2572192</ele>
        <time>2014-12-07T11:31:26Z</time>
      </trkpt>
      <trkpt lat="47.50434" lon="6.76685">
        <ele>397.27275776</ele>
        <time>2014-12-07T11:31:27Z</time>
      </trkpt>
      <trkpt lat="47.50438" lon="6.76684">
        <ele>397.2993824</ele>
        <time>2014-12-07T11:31:28Z</time>
      </trkpt>
      <trkpt lat="47.50441" lon="6.76682">
        <ele>397.33396544</ele>
        <time>2014-12-07T11:31:29Z</time>
      </trkpt>
      <trkpt lat="47.50445" lon="6.76681">
        <ele>397.3844288</ele>
        <time>2014-12-07T11:31:30Z</time>
      </trkpt>
      <trkpt lat="47.50448" lon="6.76679">
        <ele>397.44664256</ele>
        <time>2014-12-07T11:31:31Z</time>
      </trkpt>
      <trkpt lat="47.50451" lon="6.76678">
        <ele>397.5161216</ele>
        <time>2014-12-07T11:31:32Z</time>
      </trkpt>
      <trkpt lat="47.50455" lon="6.76677">
        <ele>397.59483968</ele>
        <time>2014-12-07T11:31:33Z</time>
      </trkpt>
      <trkpt lat="47.50458" lon="6.76676">
        <ele>397.67520128</ele>
        <time>2014-12-07T11:31:34Z</time>
      </trkpt>
      <trkpt lat="47.50461" lon="6.76675">
        <ele>397.7624288</ele>
        <time>2014-12-07T11:31:35Z</time>
      </trkpt>
      <trkpt lat="47.50464" lon="6.76673">
        <ele>397.86044096</ele>
        <time>2014-12-07T11:31:36Z</time>
      </trkpt>
      <trkpt lat="47.50468" lon="6.76672">
        <ele>397.957712</ele>
        <time>2014-12-07T11:31:37Z</time>
      </trkpt>
      <trkpt lat="47.50471" lon="6.76672">
        <ele>398.05394240001</ele>
        <time>2014-12-07T11:31:38Z</time>
      </trkpt>
      <trkpt lat="47.50474" lon="6.7667">
        <ele>398.17225088</ele>
        <time>2014-12-07T11:31:39Z</time>
      </trkpt>
      <trkpt lat="47.50477" lon="6.76669">
        <ele>398.2965728</ele>
        <time>2014-12-07T11:31:40Z</time>
      </trkpt>
      <trkpt lat="47.5048" lon="6.76668">
        <ele>398.420432</ele>
        <time>2014-12-07T11:31:41Z</time>
      </trkpt>
      <trkpt lat="47.50483" lon="6.76667">
        <ele>398.5447616</ele>
        <time>2014-12-07T11:31:42Z</time>
      </trkpt>
      <trkpt lat="47.50486" lon="6.76667">
        <ele>398.6646656</ele>
        <time>2014-12-07T11:31:43Z</time>
      </trkpt>
      <trkpt lat="47.50489" lon="6.76666">
        <ele>398.7405344</ele>
        <time>2014-12-07T11:31:44Z</time>
      </trkpt>
      <trkpt lat="47.50492" lon="6.76665">
        <ele>398.82040592</ele>
        <time>2014-12-07T11:31:45Z</time>
      </trkpt>
      <trkpt lat="47.50495" lon="6.76665">
        <ele>398.90200880001</ele>
        <time>2014-12-07T11:31:46Z</time>
      </trkpt>
      <trkpt lat="47.50498" lon="6.76664">
        <ele>398.98430288</ele>
        <time>2014-12-07T11:31:47Z</time>
      </trkpt>
      <trkpt lat="47.50501" lon="6.76663">
        <ele>399.0332</ele>
        <time>2014-12-07T11:31:48Z</time>
      </trkpt>
      <trkpt lat="47.50504" lon="6.76662">
        <ele>399.008</ele>
        <time>2014-12-07T11:31:49Z</time>
      </trkpt>
      <trkpt lat="47.50507" lon="6.76661">
        <ele>398.984</ele>
        <time>2014-12-07T11:31:50Z</time>
      </trkpt>
      <trkpt lat="47.5051" lon="6.76661">
        <ele>398.96</ele>
        <time>2014-12-07T11:31:51Z</time>
      </trkpt>
      <trkpt lat="47.50513" lon="6.7666">
        <ele>398.9348</ele>
        <time>2014-12-07T11:31:52Z</time>
      </trkpt>
      <trkpt lat="47.50516" lon="6.76659">
        <ele>398.9048</ele>
        <time>2014-12-07T11:31:53Z</time>
      </trkpt>
      <trkpt lat="47.50518" lon="6.76658">
        <ele>398.8784</ele>
        <time>2014-12-07T11:31:54Z</time>
      </trkpt>
      <trkpt lat="47.50521" lon="6.76658">
        <ele>398.8556</ele>
        <time>2014-12-07T11:31:55Z</time>
      </trkpt>
      <trkpt lat="47.50524" lon="6.76656">
        <ele>398.8376</ele>
        <time>2014-12-07T11:31:56Z</time>
      </trkpt>
      <trkpt lat="47.50527" lon="6.76655">
        <ele>398.8232</ele>
        <time>2014-12-07T11:31:57Z</time>
      </trkpt>
      <trkpt lat="47.5053" lon="6.76653">
        <ele>398.8076</ele>
        <time>2014-12-07T11:31:58Z</time>
      </trkpt>
      <trkpt lat="47.50533" lon="6.76652">
        <ele>398.7872</ele>
        <time>2014-12-07T11:31:59Z</time>
      </trkpt>
      <trkpt lat="47.50535" lon="6.76651">
        <ele>398.7668</ele>
        <time>2014-12-07T11:32:00Z</time>
      </trkpt>
      <trkpt lat="47.50546" lon="6.76648">
        <ele>398.678</ele>
        <time>2014-12-07T11:32:04Z</time>
      </trkpt>
      <trkpt lat="47.50549" lon="6.76647">
        <ele>398.6528</ele>
        <time>2014-12-07T11:32:05Z</time>
      </trkpt>
      <trkpt lat="47.50553" lon="6.76645">
        <ele>398.624</ele>
        <time>2014-12-07T11:32:06Z</time>
      </trkpt>
      <trkpt lat="47.50556" lon="6.76644">
        <ele>398.5928</ele>
        <time>2014-12-07T11:32:07Z</time>
      </trkpt>
      <trkpt lat="47.5056" lon="6.76643">
        <ele>398.5628</ele>
        <time>2014-12-07T11:32:08Z</time>
      </trkpt>
      <trkpt lat="47.50563" lon="6.76642">
        <ele>398.534</ele>
        <time>2014-12-07T11:32:09Z</time>
      </trkpt>
      <trkpt lat="47.50567" lon="6.76642">
        <ele>398.5016</ele>
        <time>2014-12-07T11:32:10Z</time>
      </trkpt>
      <trkpt lat="47.5057" lon="6.7664">
        <ele>398.474</ele>
        <time>2014-12-07T11:32:11Z</time>
      </trkpt>
      <trkpt lat="47.50574" lon="6.76639">
        <ele>398.4452</ele>
        <time>2014-12-07T11:32:12Z</time>
      </trkpt>
      <trkpt lat="47.50578" lon="6.76638">
        <ele>398.414</ele>
        <time>2014-12-07T11:32:13Z</time>
      </trkpt>
      <trkpt lat="47.50582" lon="6.76636">
        <ele>398.3864</ele>
        <time>2014-12-07T11:32:14Z</time>
      </trkpt>
      <trkpt lat="47.50586" lon="6.76634">
        <ele>398.29980224</ele>
        <time>2014-12-07T11:32:15Z</time>
      </trkpt>
      <trkpt lat="47.50591" lon="6.76632">
        <ele>398.18806591999</ele>
        <time>2014-12-07T11:32:16Z</time>
      </trkpt>
      <trkpt lat="47.50595" lon="6.7663">
        <ele>398.07271424</ele>
        <time>2014-12-07T11:32:17Z</time>
      </trkpt>
      <trkpt lat="47.506" lon="6.76629">
        <ele>397.95426368001</ele>
        <time>2014-12-07T11:32:18Z</time>
      </trkpt>
      <trkpt lat="47.50604" lon="6.76627">
        <ele>397.83793279999</ele>
        <time>2014-12-07T11:32:19Z</time>
      </trkpt>
      <trkpt lat="47.50609" lon="6.76626">
        <ele>397.7174432</ele>
        <time>2014-12-07T11:32:20Z</time>
      </trkpt>
      <trkpt lat="47.50613" lon="6.76624">
        <ele>397.61541056</ele>
        <time>2014-12-07T11:32:21Z</time>
      </trkpt>
      <trkpt lat="47.50617" lon="6.76623">
        <ele>397.51816064001</ele>
        <time>2014-12-07T11:32:22Z</time>
      </trkpt>
      <trkpt lat="47.50622" lon="6.7662">
        <ele>397.43369600001</ele>
        <time>2014-12-07T11:32:23Z</time>
      </trkpt>
      <trkpt lat="47.50626" lon="6.76617">
        <ele>397.36656608001</ele>
        <time>2014-12-07T11:32:24Z</time>
      </trkpt>
      <trkpt lat="47.50629" lon="6.76615">
        <ele>397.31178944001</ele>
        <time>2014-12-07T11:32:25Z</time>
      </trkpt>
      <trkpt lat="47.50633" lon="6.76612">
        <ele>397.26382975999</ele>
        <time>2014-12-07T11:32:26Z</time>
      </trkpt>
      <trkpt lat="47.50637" lon="6.76609">
        <ele>397.20250352</ele>
        <time>2014-12-07T11:32:27Z</time>
      </trkpt>
      <trkpt lat="47.50641" lon="6.76608">
        <ele>397.130816</ele>
        <time>2014-12-07T11:32:28Z</time>
      </trkpt>
      <trkpt lat="47.50645" lon="6.76605">
        <ele>397.0728368</ele>
        <time>2014-12-07T11:32:29Z</time>
      </trkpt>
      <trkpt lat="47.50648" lon="6.76604">
        <ele>397.01933216</ele>
        <time>2014-12-07T11:32:30Z</time>
      </trkpt>
      <trkpt lat="47.50652" lon="6.76603">
        <ele>396.9269024</ele>
        <time>2014-12-07T11:32:31Z</time>
      </trkpt>
      <trkpt lat="47.50657" lon="6.76604">
        <ele>396.76068752</ele>
        <time>2014-12-07T11:32:32Z</time>
      </trkpt>
      <trkpt lat="47.50661" lon="6.76604">
        <ele>396.65611136001</ele>
        <time>2014-12-07T11:32:33Z</time>
      </trkpt>
      <trkpt lat="47.50666" lon="6.76603">
        <ele>396.54977119999</ele>
        <time>2014-12-07T11:32:34Z</time>
      </trkpt>
      <trkpt lat="47.5067" lon="6.76602">
        <ele>396.42731535999</ele>
        <time>2014-12-07T11:32:35Z</time>
      </trkpt>
      <trkpt lat="47.50674" lon="6.76601">
        <ele>396.28968591999</ele>
        <time>2014-12-07T11:32:36Z</time>
      </trkpt>
      <trkpt lat="47.50678" lon="6.766">
        <ele>396.16863999999</ele>
        <time>2014-12-07T11:32:37Z</time>
      </trkpt>
      <trkpt lat="47.50682" lon="6.76598">
        <ele>396.05694976</ele>
        <time>2014-12-07T11:32:38Z</time>
      </trkpt>
      <trkpt lat="47.50686" lon="6.76597">
        <ele>395.92879552</ele>
        <time>2014-12-07T11:32:39Z</time>
      </trkpt>
      <trkpt lat="47.50691" lon="6.76594">
        <ele>395.83090048001</ele>
        <time>2014-12-07T11:32:40Z</time>
      </trkpt>
      <trkpt lat="47.50696" lon="6.76595">
        <ele>395.64482080001</ele>
        <time>2014-12-07T11:32:41Z</time>
      </trkpt>
      <trkpt lat="47.50701" lon="6.76595">
        <ele>395.44340415999</ele>
        <time>2014-12-07T11:32:42Z</time>
      </trkpt>
      <trkpt lat="47.50706" lon="6.76595">
        <ele>395.24249248</ele>
        <time>2014-12-07T11:32:43Z</time>
      </trkpt>
      <trkpt lat="47.50711" lon="6.76595">
        <ele>395.04575199999</ele>
        <time>2014-12-07T11:32:44Z</time>
      </trkpt>
      <trkpt lat="47.50716" lon="6.76595">
        <ele>394.84293183999</ele>
        <time>2014-12-07T11:32:45Z</time>
      </trkpt>
      <trkpt lat="47.50721" lon="6.76597">
        <ele>394.61923071999</ele>
        <time>2014-12-07T11:32:46Z</time>
      </trkpt>
      <trkpt lat="47.50725" lon="6.76597">
        <ele>394.43987776</ele>
        <time>2014-12-07T11:32:47Z</time>
      </trkpt>
      <trkpt lat="47.5073" lon="6.76597">
        <ele>394.2896488</ele>
        <time>2014-12-07T11:32:48Z</time>
      </trkpt>
      <trkpt lat="47.50734" lon="6.76597">
        <ele>394.11169120001</ele>
        <time>2014-12-07T11:32:49Z</time>
      </trkpt>
      <trkpt lat="47.50738" lon="6.76598">
        <ele>393.92858176</ele>
        <time>2014-12-07T11:32:50Z</time>
      </trkpt>
      <trkpt lat="47.50742" lon="6.76598">
        <ele>393.76644159999</ele>
        <time>2014-12-07T11:32:51Z</time>
      </trkpt>
      <trkpt lat="47.50746" lon="6.76599">
        <ele>393.6143728</ele>
        <time>2014-12-07T11:32:52Z</time>
      </trkpt>
      <trkpt lat="47.5075" lon="6.76598">
        <ele>393.48702928</ele>
        <time>2014-12-07T11:32:53Z</time>
      </trkpt>
      <trkpt lat="47.50753" lon="6.76598">
        <ele>393.29299552</ele>
        <time>2014-12-07T11:32:54Z</time>
      </trkpt>
      <trkpt lat="47.50757" lon="6.76598">
        <ele>393.07696816</ele>
        <time>2014-12-07T11:32:55Z</time>
      </trkpt>
      <trkpt lat="47.50762" lon="6.76597">
        <ele>392.88436047998</ele>
        <time>2014-12-07T11:32:56Z</time>
      </trkpt>
      <trkpt lat="47.50766" lon="6.76596">
        <ele>392.67409168002</ele>
        <time>2014-12-07T11:32:57Z</time>
      </trkpt>
      <trkpt lat="47.5077" lon="6.76595">
        <ele>392.46710896002</ele>
        <time>2014-12-07T11:32:58Z</time>
      </trkpt>
      <trkpt lat="47.50774" lon="6.76594">
        <ele>392.27040448</ele>
        <time>2014-12-07T11:32:59Z</time>
      </trkpt>
      <trkpt lat="47.50778" lon="6.76593">
        <ele>392.06897152</ele>
        <time>2014-12-07T11:33:00Z</time>
      </trkpt>
      <trkpt lat="47.50808" lon="6.76594">
        <ele>390.38649280002</ele>
        <time>2014-12-07T11:33:09Z</time>
      </trkpt>
      <trkpt lat="47.5081" lon="6.76597">
        <ele>390.28387839999</ele>
        <time>2014-12-07T11:33:10Z</time>
      </trkpt>
      <trkpt lat="47.50812" lon="6.766">
        <ele>390.11584</ele>
        <time>2014-12-07T11:33:11Z</time>
      </trkpt>
      <trkpt lat="47.50814" lon="6.76602">
        <ele>389.98933744002</ele>
        <time>2014-12-07T11:33:12Z</time>
      </trkpt>
      <trkpt lat="47.50816" lon="6.76604">
        <ele>389.87799424001</ele>
        <time>2014-12-07T11:33:13Z</time>
      </trkpt>
      <trkpt lat="47.5082" lon="6.766">
        <ele>389.7298024</ele>
        <time>2014-12-07T11:33:14Z</time>
      </trkpt>
      <trkpt lat="47.50821" lon="6.76602">
        <ele>389.62444336001</ele>
        <time>2014-12-07T11:33:15Z</time>
      </trkpt>
      <trkpt lat="47.50822" lon="6.76605">
        <ele>389.56063455999</ele>
        <time>2014-12-07T11:33:16Z</time>
      </trkpt>
      <trkpt lat="47.50824" lon="6.76607">
        <ele>389.45383167999</ele>
        <time>2014-12-07T11:33:17Z</time>
      </trkpt>
      <trkpt lat="47.50826" lon="6.76612">
        <ele>389.35330335999</ele>
        <time>2014-12-07T11:33:18Z</time>
      </trkpt>
      <trkpt lat="47.50828" lon="6.76618">
        <ele>389.25436528</ele>
        <time>2014-12-07T11:33:19Z</time>
      </trkpt>
      <trkpt lat="47.50831" lon="6.76624">
        <ele>389.10325120001</ele>
        <time>2014-12-07T11:33:20Z</time>
      </trkpt>
      <trkpt lat="47.50833" lon="6.7663">
        <ele>389.00132512</ele>
        <time>2014-12-07T11:33:21Z</time>
      </trkpt>
      <trkpt lat="47.50836" lon="6.76636">
        <ele>388.75846111998</ele>
        <time>2014-12-07T11:33:22Z</time>
      </trkpt>
      <trkpt lat="47.50839" lon="6.76643">
        <ele>388.46989951998</ele>
        <time>2014-12-07T11:33:23Z</time>
      </trkpt>
      <trkpt lat="47.50843" lon="6.76649">
        <ele>388.14991999998</ele>
        <time>2014-12-07T11:33:24Z</time>
      </trkpt>
      <trkpt lat="47.50846" lon="6.76656">
        <ele>387.75861439998</ele>
        <time>2014-12-07T11:33:25Z</time>
      </trkpt>
      <trkpt lat="47.5085" lon="6.76663">
        <ele>387.30242239996</ele>
        <time>2014-12-07T11:33:26Z</time>
      </trkpt>
      <trkpt lat="47.50853" lon="6.76671">
        <ele>386.78519007996</ele>
        <time>2014-12-07T11:33:27Z</time>
      </trkpt>
      <trkpt lat="47.50856" lon="6.76679">
        <ele>386.19651279996</ele>
        <time>2014-12-07T11:33:28Z</time>
      </trkpt>
      <trkpt lat="47.5086" lon="6.76687">
        <ele>385.49031328001</ele>
        <time>2014-12-07T11:33:29Z</time>
      </trkpt>
      <trkpt lat="47.50863" lon="6.76695">
        <ele>384.89473504001</ele>
        <time>2014-12-07T11:33:30Z</time>
      </trkpt>
      <trkpt lat="47.50866" lon="6.76704">
        <ele>384.30586623996</ele>
        <time>2014-12-07T11:33:31Z</time>
      </trkpt>
      <trkpt lat="47.50869" lon="6.76713">
        <ele>383.71092016001</ele>
        <time>2014-12-07T11:33:32Z</time>
      </trkpt>
      <trkpt lat="47.50872" lon="6.76722">
        <ele>383.13617631999</ele>
        <time>2014-12-07T11:33:32Z</time>
      </trkpt>
      <trkpt lat="47.50874" lon="6.76732">
        <ele>382.65831039999</ele>
        <time>2014-12-07T11:33:34Z</time>
      </trkpt>
      <trkpt lat="47.50877" lon="6.76742">
        <ele>382.10320720003</ele>
        <time>2014-12-07T11:33:35Z</time>
      </trkpt>
      <trkpt lat="47.5088" lon="6.76752">
        <ele>381.487924</ele>
        <time>2014-12-07T11:33:36Z</time>
      </trkpt>
      <trkpt lat="47.50884" lon="6.76762">
        <ele>381.14156800001</ele>
        <time>2014-12-07T11:33:37Z</time>
      </trkpt>
      <trkpt lat="47.50887" lon="6.76772">
        <ele>380.88146079999</ele>
        <time>2014-12-07T11:33:38Z</time>
      </trkpt>
      <trkpt lat="47.50891" lon="6.76781">
        <ele>380.62887040002</ele>
        <time>2014-12-07T11:33:39Z</time>
      </trkpt>
      <trkpt lat="47.50895" lon="6.7679">
        <ele>380.44558000002</ele>
        <time>2014-12-07T11:33:40Z</time>
      </trkpt>
      <trkpt lat="47.50899" lon="6.76799">
        <ele>380.26914880001</ele>
        <time>2014-12-07T11:33:41Z</time>
      </trkpt>
      <trkpt lat="47.50903" lon="6.76808">
        <ele>380.15497600001</ele>
        <time>2014-12-07T11:33:42Z</time>
      </trkpt>
      <trkpt lat="47.50906" lon="6.76816">
        <ele>380.0881312</ele>
        <time>2014-12-07T11:33:43Z</time>
      </trkpt>
      <trkpt lat="47.5091" lon="6.76824">
        <ele>380.056528</ele>
        <time>2014-12-07T11:33:44Z</time>
      </trkpt>
      <trkpt lat="47.50914" lon="6.76832">
        <ele>380.07465760001</ele>
        <time>2014-12-07T11:33:45Z</time>
      </trkpt>
      <trkpt lat="47.50918" lon="6.7684">
        <ele>379.79961280001</ele>
        <time>2014-12-07T11:33:46Z</time>
      </trkpt>
      <trkpt lat="47.50922" lon="6.76847">
        <ele>379.44795616</ele>
        <time>2014-12-07T11:33:47Z</time>
      </trkpt>
      <trkpt lat="47.50925" lon="6.76854">
        <ele>379.15370944</ele>
        <time>2014-12-07T11:33:48Z</time>
      </trkpt>
      <trkpt lat="47.50929" lon="6.7686">
        <ele>378.84862528001</ele>
        <time>2014-12-07T11:33:49Z</time>
      </trkpt>
      <trkpt lat="47.50935" lon="6.76867">
        <ele>378.4820992</ele>
        <time>2014-12-07T11:33:50Z</time>
      </trkpt>
      <trkpt lat="47.50941" lon="6.76873">
        <ele>378.15798399999</ele>
        <time>2014-12-07T11:33:51Z</time>
      </trkpt>
      <trkpt lat="47.50946" lon="6.7688">
        <ele>377.87939583999</ele>
        <time>2014-12-07T11:33:52Z</time>
      </trkpt>
      <trkpt lat="47.50953" lon="6.76886">
        <ele>377.5531696</ele>
        <time>2014-12-07T11:33:53Z</time>
      </trkpt>
      <trkpt lat="47.50959" lon="6.76887">
        <ele>377.32309504001</ele>
        <time>2014-12-07T11:33:54Z</time>
      </trkpt>
      <trkpt lat="47.50966" lon="6.76891">
        <ele>377.0610496</ele>
        <time>2014-12-07T11:33:55Z</time>
      </trkpt>
      <trkpt lat="47.50973" lon="6.76891">
        <ele>376.83196287999</ele>
        <time>2014-12-07T11:33:56Z</time>
      </trkpt>
      <trkpt lat="47.5098" lon="6.76892">
        <ele>376.61896959999</ele>
        <time>2014-12-07T11:33:57Z</time>
      </trkpt>
      <trkpt lat="47.50986" lon="6.76892">
        <ele>376.42963264001</ele>
        <time>2014-12-07T11:33:58Z</time>
      </trkpt>
      <trkpt lat="47.50991" lon="6.76897">
        <ele>376.26503487999</ele>
        <time>2014-12-07T11:33:59Z</time>
      </trkpt>
      <trkpt lat="47.50995" lon="6.76901">
        <ele>376.13427711999</ele>
        <time>2014-12-07T11:34:00Z</time>
      </trkpt>
      <trkpt lat="47.51023" lon="6.76926">
        <ele>375.48514336</ele>
        <time>2014-12-07T11:34:08Z</time>
      </trkpt>
      <trkpt lat="47.51026" lon="6.76932">
        <ele>375.3183712</ele>
        <time>2014-12-07T11:34:09Z</time>
      </trkpt>
      <trkpt lat="47.51031" lon="6.76936">
        <ele>375.19280368</ele>
        <time>2014-12-07T11:34:10Z</time>
      </trkpt>
      <trkpt lat="47.51036" lon="6.76939">
        <ele>375.10336672</ele>
        <time>2014-12-07T11:34:11Z</time>
      </trkpt>
      <trkpt lat="47.5104" lon="6.76943">
        <ele>375.03064192</ele>
        <time>2014-12-07T11:34:12Z</time>
      </trkpt>
      <trkpt lat="47.51045" lon="6.76948">
        <ele>374.94650992</ele>
        <time>2014-12-07T11:34:13Z</time>
      </trkpt>
      <trkpt lat="47.5105" lon="6.76952">
        <ele>374.88731488</ele>
        <time>2014-12-07T11:34:14Z</time>
      </trkpt>
      <trkpt lat="47.51054" lon="6.76956">
        <ele>374.8540672</ele>
        <time>2014-12-07T11:34:15Z</time>
      </trkpt>
      <trkpt lat="47.51058" lon="6.76959">
        <ele>374.8388176</ele>
        <time>2014-12-07T11:34:16Z</time>
      </trkpt>
      <trkpt lat="47.51062" lon="6.76962">
        <ele>374.83312912</ele>
        <time>2014-12-07T11:34:17Z</time>
      </trkpt>
      <trkpt lat="47.51066" lon="6.76966">
        <ele>374.83563328</ele>
        <time>2014-12-07T11:34:18Z</time>
      </trkpt>
      <trkpt lat="47.51069" lon="6.76969">
        <ele>374.84763136</ele>
        <time>2014-12-07T11:34:19Z</time>
      </trkpt>
      <trkpt lat="47.51073" lon="6.76973">
        <ele>374.879608</ele>
        <time>2014-12-07T11:34:20Z</time>
      </trkpt>
      <trkpt lat="47.51077" lon="6.76975">
        <ele>374.92193632</ele>
        <time>2014-12-07T11:34:21Z</time>
      </trkpt>
      <trkpt lat="47.51081" lon="6.76978">
        <ele>374.97078832</ele>
        <time>2014-12-07T11:34:22Z</time>
      </trkpt>
      <trkpt lat="47.51084" lon="6.76982">
        <ele>374.9948448</ele>
        <time>2014-12-07T11:34:23Z</time>
      </trkpt>
      <trkpt lat="47.51086" lon="6.76987">
        <ele>374.98317504</ele>
        <time>2014-12-07T11:34:24Z</time>
      </trkpt>
      <trkpt lat="47.5109" lon="6.7699">
        <ele>374.97374016</ele>
        <time>2014-12-07T11:34:25Z</time>
      </trkpt>
      <trkpt lat="47.51092" lon="6.76992">
        <ele>374.97056064</ele>
        <time>2014-12-07T11:34:26Z</time>
      </trkpt>
      <trkpt lat="47.51095" lon="6.76999">
        <ele>374.9951328</ele>
        <time>2014-12-07T11:34:27Z</time>
      </trkpt>
      <trkpt lat="47.51095" lon="6.77006">
        <ele>374.9107728</ele>
        <time>2014-12-07T11:34:28Z</time>
      </trkpt>
      <trkpt lat="47.51097" lon="6.77011">
        <ele>374.852076</ele>
        <time>2014-12-07T11:34:29Z</time>
      </trkpt>
      <trkpt lat="47.51101" lon="6.77015">
        <ele>374.8318224</ele>
        <time>2014-12-07T11:34:30Z</time>
      </trkpt>
      <trkpt lat="47.51106" lon="6.7702">
        <ele>374.8458672</ele>
        <time>2014-12-07T11:34:31Z</time>
      </trkpt>
      <trkpt lat="47.51109" lon="6.77024">
        <ele>374.8635552</ele>
        <time>2014-12-07T11:34:32Z</time>
      </trkpt>
      <trkpt lat="47.51112" lon="6.7703">
        <ele>374.89663200001</ele>
        <time>2014-12-07T11:34:33Z</time>
      </trkpt>
      <trkpt lat="47.51117" lon="6.77034">
        <ele>375.00324479999</ele>
        <time>2014-12-07T11:34:34Z</time>
      </trkpt>
      <trkpt lat="47.51122" lon="6.77039">
        <ele>375.15457919999</ele>
        <time>2014-12-07T11:34:35Z</time>
      </trkpt>
      <trkpt lat="47.51127" lon="6.77043">
        <ele>375.32838719999</ele>
        <time>2014-12-07T11:34:36Z</time>
      </trkpt>
      <trkpt lat="47.51135" lon="6.77048">
        <ele>375.61246799999</ele>
        <time>2014-12-07T11:34:37Z</time>
      </trkpt>
      <trkpt lat="47.5114" lon="6.77051">
        <ele>375.85344000001</ele>
        <time>2014-12-07T11:34:38Z</time>
      </trkpt>
      <trkpt lat="47.51144" lon="6.77054">
        <ele>376.07450879999</ele>
        <time>2014-12-07T11:34:39Z</time>
      </trkpt>
      <trkpt lat="47.51149" lon="6.77058">
        <ele>376.3763712</ele>
        <time>2014-12-07T11:34:40Z</time>
      </trkpt>
      <trkpt lat="47.51154" lon="6.77063">
        <ele>376.711584</ele>
        <time>2014-12-07T11:34:41Z</time>
      </trkpt>
      <trkpt lat="47.51159" lon="6.77068">
        <ele>377.07811919999</ele>
        <time>2014-12-07T11:34:42Z</time>
      </trkpt>
      <trkpt lat="47.51164" lon="6.77073">
        <ele>377.47732799999</ele>
        <time>2014-12-07T11:34:43Z</time>
      </trkpt>
      <trkpt lat="47.51168" lon="6.77079">
        <ele>377.7888</ele>
        <time>2014-12-07T11:34:44Z</time>
      </trkpt>
      <trkpt lat="47.51172" lon="6.77085">
        <ele>377.80547456</ele>
        <time>2014-12-07T11:34:45Z</time>
      </trkpt>
      <trkpt lat="47.51176" lon="6.77091">
        <ele>377.70151424</ele>
        <time>2014-12-07T11:34:46Z</time>
      </trkpt>
      <trkpt lat="47.51179" lon="6.77097">
        <ele>377.6559008</ele>
        <time>2014-12-07T11:34:47Z</time>
      </trkpt>
      <trkpt lat="47.51182" lon="6.77103">
        <ele>377.609792</ele>
        <time>2014-12-07T11:34:48Z</time>
      </trkpt>
      <trkpt lat="47.51185" lon="6.77108">
        <ele>377.59068416</ele>
        <time>2014-12-07T11:34:49Z</time>
      </trkpt>
      <trkpt lat="47.51188" lon="6.77113">
        <ele>377.58647552</ele>
        <time>2014-12-07T11:34:50Z</time>
      </trkpt>
      <trkpt lat="47.51192" lon="6.77118">
        <ele>377.59472</ele>
        <time>2014-12-07T11:34:51Z</time>
      </trkpt>
      <trkpt lat="47.51194" lon="6.77123">
        <ele>377.63019968</ele>
        <time>2014-12-07T11:34:52Z</time>
      </trkpt>
      <trkpt lat="47.51197" lon="6.77128">
        <ele>377.67827648</ele>
        <time>2014-12-07T11:34:53Z</time>
      </trkpt>
      <trkpt lat="47.512" lon="6.77132">
        <ele>377.73315584</ele>
        <time>2014-12-07T11:34:54Z</time>
      </trkpt>
      <trkpt lat="47.51203" lon="6.77136">
        <ele>377.79517952</ele>
        <time>2014-12-07T11:34:55Z</time>
      </trkpt>
      <trkpt lat="47.51206" lon="6.7714">
        <ele>377.87721536</ele>
        <time>2014-12-07T11:34:56Z</time>
      </trkpt>
      <trkpt lat="47.51209" lon="6.77145">
        <ele>377.9677952</ele>
        <time>2014-12-07T11:34:57Z</time>
      </trkpt>
      <trkpt lat="47.51211" lon="6.77149">
        <ele>378.07287296</ele>
        <time>2014-12-07T11:34:58Z</time>
      </trkpt>
      <trkpt lat="47.51214" lon="6.77153">
        <ele>378.19914752</ele>
        <time>2014-12-07T11:34:59Z</time>
      </trkpt>
      <trkpt lat="47.51215" lon="6.77159">
        <ele>378.358208</ele>
        <time>2014-12-07T11:35:00Z</time>
      </trkpt>
      <trkpt lat="47.51232" lon="6.77197">
        <ele>377.59297839999</ele>
        <time>2014-12-07T11:35:08Z</time>
      </trkpt>
      <trkpt lat="47.51234" lon="6.77203">
        <ele>377.55449919999</ele>
        <time>2014-12-07T11:35:09Z</time>
      </trkpt>
      <trkpt lat="47.51238" lon="6.77209">
        <ele>377.72537920003</ele>
        <time>2014-12-07T11:35:10Z</time>
      </trkpt>
      <trkpt lat="47.5124" lon="6.77215">
        <ele>377.87930079999</ele>
        <time>2014-12-07T11:35:11Z</time>
      </trkpt>
      <trkpt lat="47.51243" lon="6.7722">
        <ele>378.06671199997</ele>
        <time>2014-12-07T11:35:12Z</time>
      </trkpt>
      <trkpt lat="47.51246" lon="6.77225">
        <ele>378.37900000004</ele>
        <time>2014-12-07T11:35:13Z</time>
      </trkpt>
      <trkpt lat="47.51248" lon="6.7723">
        <ele>378.70153599995</ele>
        <time>2014-12-07T11:35:14Z</time>
      </trkpt>
      <trkpt lat="47.51251" lon="6.77235">
        <ele>378.980176</ele>
        <time>2014-12-07T11:35:15Z</time>
      </trkpt>
      <trkpt lat="47.51254" lon="6.7724">
        <ele>378.9055168</ele>
        <time>2014-12-07T11:35:16Z</time>
      </trkpt>
      <trkpt lat="47.51256" lon="6.77244">
        <ele>378.83736928</ele>
        <time>2014-12-07T11:35:17Z</time>
      </trkpt>
      <trkpt lat="47.51259" lon="6.77247">
        <ele>378.77452384</ele>
        <time>2014-12-07T11:35:18Z</time>
      </trkpt>
      <trkpt lat="47.51262" lon="6.7725">
        <ele>378.6789952</ele>
        <time>2014-12-07T11:35:19Z</time>
      </trkpt>
      <trkpt lat="47.51264" lon="6.77253">
        <ele>378.3716416</ele>
        <time>2014-12-07T11:35:20Z</time>
      </trkpt>
      <trkpt lat="47.51267" lon="6.77256">
        <ele>378.1124176</ele>
        <time>2014-12-07T11:35:21Z</time>
      </trkpt>
      <trkpt lat="47.51269" lon="6.77258">
        <ele>377.8958992</ele>
        <time>2014-12-07T11:35:22Z</time>
      </trkpt>
      <trkpt lat="47.51272" lon="6.77261">
        <ele>377.6962864</ele>
        <time>2014-12-07T11:35:23Z</time>
      </trkpt>
      <trkpt lat="47.51276" lon="6.77263">
        <ele>377.5513048</ele>
        <time>2014-12-07T11:35:24Z</time>
      </trkpt>
      <trkpt lat="47.5128" lon="6.77265">
        <ele>377.436544</ele>
        <time>2014-12-07T11:35:25Z</time>
      </trkpt>
      <trkpt lat="47.51286" lon="6.77268">
        <ele>377.3783488</ele>
        <time>2014-12-07T11:35:26Z</time>
      </trkpt>
      <trkpt lat="47.5129" lon="6.7727">
        <ele>377.35792</ele>
        <time>2014-12-07T11:35:27Z</time>
      </trkpt>
      <trkpt lat="47.51294" lon="6.77274">
        <ele>377.365468</ele>
        <time>2014-12-07T11:35:28Z</time>
      </trkpt>
      <trkpt lat="47.51299" lon="6.77276">
        <ele>377.4523264</ele>
        <time>2014-12-07T11:35:28Z</time>
      </trkpt>
      <trkpt lat="47.51305" lon="6.77278">
        <ele>377.63845119999</ele>
        <time>2014-12-07T11:35:30Z</time>
      </trkpt>
      <trkpt lat="47.5131" lon="6.77281">
        <ele>377.870488</ele>
        <time>2014-12-07T11:35:31Z</time>
      </trkpt>
      <trkpt lat="47.51316" lon="6.77283">
        <ele>378.1484872</ele>
        <time>2014-12-07T11:35:32Z</time>
      </trkpt>
      <trkpt lat="47.51322" lon="6.77284">
        <ele>378.46873600001</ele>
        <time>2014-12-07T11:35:33Z</time>
      </trkpt>
      <trkpt lat="47.51327" lon="6.77284">
        <ele>378.74578480002</ele>
        <time>2014-12-07T11:35:34Z</time>
      </trkpt>
      <trkpt lat="47.51334" lon="6.77283">
        <ele>378.95358336001</ele>
        <time>2014-12-07T11:35:35Z</time>
      </trkpt>
      <trkpt lat="47.5134" lon="6.77281">
        <ele>378.62664576</ele>
        <time>2014-12-07T11:35:36Z</time>
      </trkpt>
      <trkpt lat="47.51347" lon="6.77276">
        <ele>378.18073152</ele>
        <time>2014-12-07T11:35:37Z</time>
      </trkpt>
      <trkpt lat="47.51353" lon="6.77271">
        <ele>377.7715104</ele>
        <time>2014-12-07T11:35:38Z</time>
      </trkpt>
      <trkpt lat="47.5136" lon="6.77265">
        <ele>377.34340799999</ele>
        <time>2014-12-07T11:35:39Z</time>
      </trkpt>
      <trkpt lat="47.51367" lon="6.7726">
        <ele>377.02192128</ele>
        <time>2014-12-07T11:35:40Z</time>
      </trkpt>
      <trkpt lat="47.51374" lon="6.77256">
        <ele>376.7376384</ele>
        <time>2014-12-07T11:35:41Z</time>
      </trkpt>
      <trkpt lat="47.51383" lon="6.77251">
        <ele>376.42530432</ele>
        <time>2014-12-07T11:35:42Z</time>
      </trkpt>
      <trkpt lat="47.51391" lon="6.77246">
        <ele>376.2036</ele>
        <time>2014-12-07T11:35:43Z</time>
      </trkpt>
      <trkpt lat="47.51399" lon="6.77242">
        <ele>376.0032</ele>
        <time>2014-12-07T11:35:44Z</time>
      </trkpt>
      <trkpt lat="47.51408" lon="6.77238">
        <ele>375.81</ele>
        <time>2014-12-07T11:35:45Z</time>
      </trkpt>
      <trkpt lat="47.51416" lon="6.77234">
        <ele>375.6096</ele>
        <time>2014-12-07T11:35:46Z</time>
      </trkpt>
      <trkpt lat="47.51425" lon="6.7723">
        <ele>375.5248</ele>
        <time>2014-12-07T11:35:47Z</time>
      </trkpt>
      <trkpt lat="47.51433" lon="6.77226">
        <ele>375.4264</ele>
        <time>2014-12-07T11:35:48Z</time>
      </trkpt>
      <trkpt lat="47.51441" lon="6.77222">
        <ele>375.3256</ele>
        <time>2014-12-07T11:35:49Z</time>
      </trkpt>
      <trkpt lat="47.51449" lon="6.77219">
        <ele>375.2488</ele>
        <time>2014-12-07T11:35:50Z</time>
      </trkpt>
      <trkpt lat="47.51456" lon="6.77216">
        <ele>375.1744</ele>
        <time>2014-12-07T11:35:51Z</time>
      </trkpt>
      <trkpt lat="47.51463" lon="6.77213">
        <ele>375.1024</ele>
        <time>2014-12-07T11:35:52Z</time>
      </trkpt>
      <trkpt lat="47.51469" lon="6.7721">
        <ele>375.0304</ele>
        <time>2014-12-07T11:35:53Z</time>
      </trkpt>
      <trkpt lat="47.51474" lon="6.77209">
        <ele>375.0136</ele>
        <time>2014-12-07T11:35:54Z</time>
      </trkpt>
      <trkpt lat="47.51479" lon="6.77211">
        <ele>375.0712</ele>
        <time>2014-12-07T11:35:55Z</time>
      </trkpt>
      <trkpt lat="47.51482" lon="6.77215">
        <ele>375.1648</ele>
        <time>2014-12-07T11:35:56Z</time>
      </trkpt>
      <trkpt lat="47.51483" lon="6.77222">
        <ele>375.3208</ele>
        <time>2014-12-07T11:35:57Z</time>
      </trkpt>
      <trkpt lat="47.51483" lon="6.7723">
        <ele>375.5128</ele>
        <time>2014-12-07T11:35:58Z</time>
      </trkpt>
      <trkpt lat="47.51484" lon="6.77238">
        <ele>375.7048</ele>
        <time>2014-12-07T11:35:59Z</time>
      </trkpt>
      <trkpt lat="47.51484" lon="6.77246">
        <ele>375.892</ele>
        <time>2014-12-07T11:36:00Z</time>
      </trkpt>
      <trkpt lat="47.51488" lon="6.77306">
        <ele>377.25107488</ele>
        <time>2014-12-07T11:36:08Z</time>
      </trkpt>
      <trkpt lat="47.51496" lon="6.77311">
        <ele>377.4221368</ele>
        <time>2014-12-07T11:36:09Z</time>
      </trkpt>
      <trkpt lat="47.51502" lon="6.77315">
        <ele>377.65359999999</ele>
        <time>2014-12-07T11:36:10Z</time>
      </trkpt>
      <trkpt lat="47.51507" lon="6.77317">
        <ele>377.85160000001</ele>
        <time>2014-12-07T11:36:11Z</time>
      </trkpt>
      <trkpt lat="47.5151" lon="6.7732">
        <ele>378.0616</ele>
        <time>2014-12-07T11:36:12Z</time>
      </trkpt>
      <trkpt lat="47.51515" lon="6.77324">
        <ele>378.3076</ele>
        <time>2014-12-07T11:36:13Z</time>
      </trkpt>
      <trkpt lat="47.51518" lon="6.77327">
        <ele>378.4732</ele>
        <time>2014-12-07T11:36:14Z</time>
      </trkpt>
      <trkpt lat="47.51521" lon="6.77331">
        <ele>378.6736</ele>
        <time>2014-12-07T11:36:15Z</time>
      </trkpt>
      <trkpt lat="47.51525" lon="6.77332">
        <ele>378.86080000001</ele>
        <time>2014-12-07T11:36:16Z</time>
      </trkpt>
      <trkpt lat="47.51529" lon="6.77335">
        <ele>379.05399999999</ele>
        <time>2014-12-07T11:36:17Z</time>
      </trkpt>
      <trkpt lat="47.51531" lon="6.77337">
        <ele>379.20159999999</ele>
        <time>2014-12-07T11:36:18Z</time>
      </trkpt>
      <trkpt lat="47.51533" lon="6.77342">
        <ele>379.39959999999</ele>
        <time>2014-12-07T11:36:19Z</time>
      </trkpt>
      <trkpt lat="47.51536" lon="6.77346">
        <ele>379.58319999999</ele>
        <time>2014-12-07T11:36:20Z</time>
      </trkpt>
      <trkpt lat="47.5154" lon="6.77349">
        <ele>379.80159999999</ele>
        <time>2014-12-07T11:36:21Z</time>
      </trkpt>
      <trkpt lat="47.51543" lon="6.77352">
        <ele>379.9732</ele>
        <time>2014-12-07T11:36:22Z</time>
      </trkpt>
      <trkpt lat="47.51545" lon="6.77355">
        <ele>380.15679999999</ele>
        <time>2014-12-07T11:36:23Z</time>
      </trkpt>
      <trkpt lat="47.51548" lon="6.77358">
        <ele>380.3392</ele>
        <time>2014-12-07T11:36:24Z</time>
      </trkpt>
      <trkpt lat="47.51551" lon="6.77361">
        <ele>380.512</ele>
        <time>2014-12-07T11:36:25Z</time>
      </trkpt>
      <trkpt lat="47.51554" lon="6.77364">
        <ele>380.68479999999</ele>
        <time>2014-12-07T11:36:26Z</time>
      </trkpt>
      <trkpt lat="47.51557" lon="6.77367">
        <ele>380.85519999999</ele>
        <time>2014-12-07T11:36:27Z</time>
      </trkpt>
      <trkpt lat="47.5156" lon="6.7737">
        <ele>381.02920000001</ele>
        <time>2014-12-07T11:36:28Z</time>
      </trkpt>
      <trkpt lat="47.51563" lon="6.77373">
        <ele>381.20680000001</ele>
        <time>2014-12-07T11:36:29Z</time>
      </trkpt>
      <trkpt lat="47.51565" lon="6.77376">
        <ele>381.3724</ele>
        <time>2014-12-07T11:36:30Z</time>
      </trkpt>
      <trkpt lat="47.51568" lon="6.77379">
        <ele>381.52600000001</ele>
        <time>2014-12-07T11:36:31Z</time>
      </trkpt>
      <trkpt lat="47.5157" lon="6.77382">
        <ele>381.6748</ele>
        <time>2014-12-07T11:36:32Z</time>
      </trkpt>
      <trkpt lat="47.51572" lon="6.77385">
        <ele>381.8236</ele>
        <time>2014-12-07T11:36:33Z</time>
      </trkpt>
      <trkpt lat="47.51573" lon="6.77389">
        <ele>381.97840000001</ele>
        <time>2014-12-07T11:36:34Z</time>
      </trkpt>
      <trkpt lat="47.51576" lon="6.77393">
        <ele>382.14400000001</ele>
        <time>2014-12-07T11:36:35Z</time>
      </trkpt>
      <trkpt lat="47.51578" lon="6.77396">
        <ele>382.30840000001</ele>
        <time>2014-12-07T11:36:36Z</time>
      </trkpt>
      <trkpt lat="47.5158" lon="6.774">
        <ele>382.47160000001</ele>
        <time>2014-12-07T11:36:37Z</time>
      </trkpt>
      <trkpt lat="47.51582" lon="6.77403">
        <ele>382.63840000001</ele>
        <time>2014-12-07T11:36:38Z</time>
      </trkpt>
      <trkpt lat="47.51585" lon="6.77407">
        <ele>382.80583616001</ele>
        <time>2014-12-07T11:36:39Z</time>
      </trkpt>
      <trkpt lat="47.51587" lon="6.7741">
        <ele>382.97182400001</ele>
        <time>2014-12-07T11:36:40Z</time>
      </trkpt>
      <trkpt lat="47.51589" lon="6.77413">
        <ele>383.14285376001</ele>
        <time>2014-12-07T11:36:41Z</time>
      </trkpt>
      <trkpt lat="47.51592" lon="6.77416">
        <ele>383.30232895999</ele>
        <time>2014-12-07T11:36:42Z</time>
      </trkpt>
      <trkpt lat="47.51594" lon="6.7742">
        <ele>383.47091519999</ele>
        <time>2014-12-07T11:36:43Z</time>
      </trkpt>
      <trkpt lat="47.51597" lon="6.77423">
        <ele>383.64498671999</ele>
        <time>2014-12-07T11:36:44Z</time>
      </trkpt>
      <trkpt lat="47.516" lon="6.77426">
        <ele>383.82509519999</ele>
        <time>2014-12-07T11:36:45Z</time>
      </trkpt>
      <trkpt lat="47.51602" lon="6.77429">
        <ele>384.00648959999</ele>
        <time>2014-12-07T11:36:46Z</time>
      </trkpt>
      <trkpt lat="47.51604" lon="6.77432">
        <ele>384.18372864</ele>
        <time>2014-12-07T11:36:47Z</time>
      </trkpt>
      <trkpt lat="47.51607" lon="6.77436">
        <ele>384.3565704</ele>
        <time>2014-12-07T11:36:48Z</time>
      </trkpt>
      <trkpt lat="47.51609" lon="6.77439">
        <ele>384.53700479999</ele>
        <time>2014-12-07T11:36:49Z</time>
      </trkpt>
      <trkpt lat="47.51611" lon="6.77442">
        <ele>384.71682239999</ele>
        <time>2014-12-07T11:36:50Z</time>
      </trkpt>
      <trkpt lat="47.51614" lon="6.77445">
        <ele>384.89875968001</ele>
        <time>2014-12-07T11:36:51Z</time>
      </trkpt>
      <trkpt lat="47.51616" lon="6.77448">
        <ele>385.08805871999</ele>
        <time>2014-12-07T11:36:52Z</time>
      </trkpt>
      <trkpt lat="47.51619" lon="6.77452">
        <ele>385.28249759999</ele>
        <time>2014-12-07T11:36:53Z</time>
      </trkpt>
      <trkpt lat="47.51621" lon="6.77455">
        <ele>385.48753584</ele>
        <time>2014-12-07T11:36:54Z</time>
      </trkpt>
      <trkpt lat="47.51624" lon="6.77458">
        <ele>385.69804800001</ele>
        <time>2014-12-07T11:36:55Z</time>
      </trkpt>
      <trkpt lat="47.51627" lon="6.77462">
        <ele>385.92142079999</ele>
        <time>2014-12-07T11:36:56Z</time>
      </trkpt>
      <trkpt lat="47.5163" lon="6.77465">
        <ele>386.1402552</ele>
        <time>2014-12-07T11:36:57Z</time>
      </trkpt>
      <trkpt lat="47.51632" lon="6.77468">
        <ele>386.35862976001</ele>
        <time>2014-12-07T11:36:58Z</time>
      </trkpt>
      <trkpt lat="47.51635" lon="6.77472">
        <ele>386.57079120002</ele>
        <time>2014-12-07T11:36:59Z</time>
      </trkpt>
      <trkpt lat="47.51637" lon="6.77475">
        <ele>386.77580159999</ele>
        <time>2014-12-07T11:37:00Z</time>
      </trkpt>
      <trkpt lat="47.51644" lon="6.77482">
        <ele>387.32929920001</ele>
        <time>2014-12-07T11:37:03Z</time>
      </trkpt>
      <trkpt lat="47.51646" lon="6.77485">
        <ele>387.52766783999</ele>
        <time>2014-12-07T11:37:04Z</time>
      </trkpt>
      <trkpt lat="47.51649" lon="6.77488">
        <ele>387.75387359999</ele>
        <time>2014-12-07T11:37:05Z</time>
      </trkpt>
      <trkpt lat="47.51652" lon="6.77492">
        <ele>388.03087392001</ele>
        <time>2014-12-07T11:37:06Z</time>
      </trkpt>
      <trkpt lat="47.51655" lon="6.77496">
        <ele>388.30190015999</ele>
        <time>2014-12-07T11:37:07Z</time>
      </trkpt>
      <trkpt lat="47.51659" lon="6.775">
        <ele>388.59058799999</ele>
        <time>2014-12-07T11:37:08Z</time>
      </trkpt>
      <trkpt lat="47.51662" lon="6.77503">
        <ele>388.75200000001</ele>
        <time>2014-12-07T11:37:08Z</time>
      </trkpt>
      <trkpt lat="47.51665" lon="6.77507">
        <ele>388.9152</ele>
        <time>2014-12-07T11:37:10Z</time>
      </trkpt>
      <trkpt lat="47.51668" lon="6.77511">
        <ele>389.0200704</ele>
        <time>2014-12-07T11:37:11Z</time>
      </trkpt>
      <trkpt lat="47.51671" lon="6.77514">
        <ele>389.07454848</ele>
        <time>2014-12-07T11:37:12Z</time>
      </trkpt>
      <trkpt lat="47.51674" lon="6.77517">
        <ele>389.13133056</ele>
        <time>2014-12-07T11:37:13Z</time>
      </trkpt>
      <trkpt lat="47.51678" lon="6.7752">
        <ele>389.19480576</ele>
        <time>2014-12-07T11:37:14Z</time>
      </trkpt>
      <trkpt lat="47.51681" lon="6.77523">
        <ele>389.26839071999</ele>
        <time>2014-12-07T11:37:15Z</time>
      </trkpt>
      <trkpt lat="47.51685" lon="6.77525">
        <ele>389.34868224001</ele>
        <time>2014-12-07T11:37:16Z</time>
      </trkpt>
      <trkpt lat="47.51689" lon="6.77528">
        <ele>389.43492</ele>
        <time>2014-12-07T11:37:17Z</time>
      </trkpt>
      <trkpt lat="47.51692" lon="6.7753">
        <ele>389.51802815999</ele>
        <time>2014-12-07T11:37:18Z</time>
      </trkpt>
      <trkpt lat="47.51695" lon="6.77533">
        <ele>389.607648</ele>
        <time>2014-12-07T11:37:19Z</time>
      </trkpt>
      <trkpt lat="47.51698" lon="6.77536">
        <ele>389.69996159999</ele>
        <time>2014-12-07T11:37:20Z</time>
      </trkpt>
      <trkpt lat="47.51701" lon="6.77539">
        <ele>389.79593471999</ele>
        <time>2014-12-07T11:37:21Z</time>
      </trkpt>
      <trkpt lat="47.51704" lon="6.77543">
        <ele>389.89845503999</ele>
        <time>2014-12-07T11:37:22Z</time>
      </trkpt>
      <trkpt lat="47.51706" lon="6.77546">
        <ele>390.00408672</ele>
        <time>2014-12-07T11:37:23Z</time>
      </trkpt>
      <trkpt lat="47.51709" lon="6.77549">
        <ele>390.10784640001</ele>
        <time>2014-12-07T11:37:24Z</time>
      </trkpt>
      <trkpt lat="47.51712" lon="6.77551">
        <ele>390.20444352</ele>
        <time>2014-12-07T11:37:25Z</time>
      </trkpt>
      <trkpt lat="47.51714" lon="6.77552">
        <ele>390.28358495999</ele>
        <time>2014-12-07T11:37:26Z</time>
      </trkpt>
      <trkpt lat="47.51717" lon="6.77551">
        <ele>390.34084607999</ele>
        <time>2014-12-07T11:37:27Z</time>
      </trkpt>
      <trkpt lat="47.51719" lon="6.77549">
        <ele>390.36241248001</ele>
        <time>2014-12-07T11:37:28Z</time>
      </trkpt>
      <trkpt lat="47.51721" lon="6.77545">
        <ele>390.35238912</ele>
        <time>2014-12-07T11:37:29Z</time>
      </trkpt>
      <trkpt lat="47.51722" lon="6.77541">
        <ele>390.32853503999</ele>
        <time>2014-12-07T11:37:30Z</time>
      </trkpt>
      <trkpt lat="47.51724" lon="6.77537">
        <ele>390.29707488</ele>
        <time>2014-12-07T11:37:31Z</time>
      </trkpt>
      <trkpt lat="47.51725" lon="6.77533">
        <ele>390.26760575999</ele>
        <time>2014-12-07T11:37:32Z</time>
      </trkpt>
      <trkpt lat="47.51727" lon="6.77529">
        <ele>390.23516064</ele>
        <time>2014-12-07T11:37:33Z</time>
      </trkpt>
      <trkpt lat="47.51729" lon="6.77525">
        <ele>390.18376896</ele>
        <time>2014-12-07T11:37:34Z</time>
      </trkpt>
      <trkpt lat="47.5173" lon="6.7752">
        <ele>390.11402592</ele>
        <time>2014-12-07T11:37:35Z</time>
      </trkpt>
      <trkpt lat="47.5173" lon="6.77515">
        <ele>390.03462144001</ele>
        <time>2014-12-07T11:37:36Z</time>
      </trkpt>
      <trkpt lat="47.51731" lon="6.7751">
        <ele>389.95394208</ele>
        <time>2014-12-07T11:37:37Z</time>
      </trkpt>
      <trkpt lat="47.51732" lon="6.77505">
        <ele>389.87509439999</ele>
        <time>2014-12-07T11:37:38Z</time>
      </trkpt>
      <trkpt lat="47.51732" lon="6.77501">
        <ele>389.80216032</ele>
        <time>2014-12-07T11:37:39Z</time>
      </trkpt>
      <trkpt lat="47.51733" lon="6.77496">
        <ele>389.69703168</ele>
        <time>2014-12-07T11:37:40Z</time>
      </trkpt>
      <trkpt lat="47.51733" lon="6.77492">
        <ele>389.5883616</ele>
        <time>2014-12-07T11:37:41Z</time>
      </trkpt>
      <trkpt lat="47.51734" lon="6.77488">
        <ele>389.48433984</ele>
        <time>2014-12-07T11:37:42Z</time>
      </trkpt>
      <trkpt lat="47.51735" lon="6.77484">
        <ele>389.38692240001</ele>
        <time>2014-12-07T11:37:43Z</time>
      </trkpt>
      <trkpt lat="47.51737" lon="6.7748">
        <ele>389.31322368</ele>
        <time>2014-12-07T11:37:44Z</time>
      </trkpt>
      <trkpt lat="47.5174" lon="6.77477">
        <ele>389.29691136</ele>
        <time>2014-12-07T11:37:45Z</time>
      </trkpt>
      <trkpt lat="47.51744" lon="6.77476">
        <ele>389.33505024001</ele>
        <time>2014-12-07T11:37:46Z</time>
      </trkpt>
      <trkpt lat="47.51748" lon="6.77477">
        <ele>389.4125184</ele>
        <time>2014-12-07T11:37:47Z</time>
      </trkpt>
      <trkpt lat="47.51753" lon="6.77478">
        <ele>389.38099248</ele>
        <time>2014-12-07T11:37:48Z</time>
      </trkpt>
      <trkpt lat="47.5176" lon="6.77483">
        <ele>389.24861568</ele>
        <time>2014-12-07T11:37:49Z</time>
      </trkpt>
      <trkpt lat="47.51765" lon="6.77484">
        <ele>389.116452</ele>
        <time>2014-12-07T11:37:50Z</time>
      </trkpt>
      <trkpt lat="47.51769" lon="6.77484">
        <ele>388.97399808</ele>
        <time>2014-12-07T11:37:51Z</time>
      </trkpt>
      <trkpt lat="47.51774" lon="6.77484">
        <ele>388.81534608001</ele>
        <time>2014-12-07T11:37:52Z</time>
      </trkpt>
      <trkpt lat="47.51779" lon="6.77486">
        <ele>388.69404576</ele>
        <time>2014-12-07T11:37:53Z</time>
      </trkpt>
    </trkseg>
  </trk>
</gpx>